<?xml version="1.0" encoding="UTF-8" standalone="no" ?>
<gpx xmlns="http://www.topografix.com/GPX/1/1" creator="www.cicloide.com" version="1.1" xmlns:xsi="http://www.w3.org/2001/XMLSchema-instance" xsi:schemaLocation="http://www.topografix.com/GPX/1/1 http://www.topografix.com/GPX/1/1/gpx.xsd">
  <trk>
    <name>www.cicloide.com 14719</name>
    <desc>www.cicloide.com 14719</desc>
    <trkseg>
      <trkpt lat="42.460848000" lon="-2.464182000">
        <ele>401.20</ele>
        <time>2013-07-27T08:17:33Z</time>
      </trkpt>
      <trkpt lat="42.460435000" lon="-2.463711000">
        <ele>403.00</ele>
        <time>2013-07-27T08:18:39Z</time>
      </trkpt>
      <trkpt lat="42.460435000" lon="-2.463711000">
        <ele>403.00</ele>
        <time>2013-07-27T08:18:39Z</time>
      </trkpt>
      <trkpt lat="42.460390000" lon="-2.463746000">
        <ele>404.40</ele>
        <time>2013-07-27T08:18:44Z</time>
      </trkpt>
      <trkpt lat="42.460381000" lon="-2.463759000">
        <ele>404.60</ele>
        <time>2013-07-27T08:18:45Z</time>
      </trkpt>
      <trkpt lat="42.460373000" lon="-2.463763000">
        <ele>404.80</ele>
        <time>2013-07-27T08:18:46Z</time>
      </trkpt>
      <trkpt lat="42.460364000" lon="-2.463764000">
        <ele>404.90</ele>
        <time>2013-07-27T08:18:47Z</time>
      </trkpt>
      <trkpt lat="42.460350000" lon="-2.463772000">
        <ele>405.10</ele>
        <time>2013-07-27T08:18:48Z</time>
      </trkpt>
      <trkpt lat="42.460335000" lon="-2.463779000">
        <ele>405.10</ele>
        <time>2013-07-27T08:18:49Z</time>
      </trkpt>
      <trkpt lat="42.460322000" lon="-2.463790000">
        <ele>405.10</ele>
        <time>2013-07-27T08:18:50Z</time>
      </trkpt>
      <trkpt lat="42.460307000" lon="-2.463796000">
        <ele>405.10</ele>
        <time>2013-07-27T08:18:51Z</time>
      </trkpt>
      <trkpt lat="42.460287000" lon="-2.463802000">
        <ele>405.10</ele>
        <time>2013-07-27T08:18:52Z</time>
      </trkpt>
      <trkpt lat="42.460277000" lon="-2.463809000">
        <ele>405.20</ele>
        <time>2013-07-27T08:18:53Z</time>
      </trkpt>
      <trkpt lat="42.460263000" lon="-2.463816000">
        <ele>405.30</ele>
        <time>2013-07-27T08:18:54Z</time>
      </trkpt>
      <trkpt lat="42.460253000" lon="-2.463825000">
        <ele>405.40</ele>
        <time>2013-07-27T08:18:55Z</time>
      </trkpt>
      <trkpt lat="42.460242000" lon="-2.463835000">
        <ele>405.50</ele>
        <time>2013-07-27T08:18:56Z</time>
      </trkpt>
      <trkpt lat="42.460228000" lon="-2.463846000">
        <ele>405.50</ele>
        <time>2013-07-27T08:18:57Z</time>
      </trkpt>
      <trkpt lat="42.460212000" lon="-2.463856000">
        <ele>405.50</ele>
        <time>2013-07-27T08:18:58Z</time>
      </trkpt>
      <trkpt lat="42.460192000" lon="-2.463860000">
        <ele>405.70</ele>
        <time>2013-07-27T08:18:59Z</time>
      </trkpt>
      <trkpt lat="42.460177000" lon="-2.463869000">
        <ele>405.80</ele>
        <time>2013-07-27T08:19:00Z</time>
      </trkpt>
      <trkpt lat="42.460166000" lon="-2.463873000">
        <ele>406.00</ele>
        <time>2013-07-27T08:19:01Z</time>
      </trkpt>
      <trkpt lat="42.460151000" lon="-2.463879000">
        <ele>406.10</ele>
        <time>2013-07-27T08:19:02Z</time>
      </trkpt>
      <trkpt lat="42.460136000" lon="-2.463879000">
        <ele>406.40</ele>
        <time>2013-07-27T08:19:03Z</time>
      </trkpt>
      <trkpt lat="42.460121000" lon="-2.463885000">
        <ele>406.60</ele>
        <time>2013-07-27T08:19:04Z</time>
      </trkpt>
      <trkpt lat="42.460110000" lon="-2.463890000">
        <ele>406.80</ele>
        <time>2013-07-27T08:19:05Z</time>
      </trkpt>
      <trkpt lat="42.460095000" lon="-2.463904000">
        <ele>406.90</ele>
        <time>2013-07-27T08:19:06Z</time>
      </trkpt>
      <trkpt lat="42.460087000" lon="-2.463913000">
        <ele>407.00</ele>
        <time>2013-07-27T08:19:07Z</time>
      </trkpt>
      <trkpt lat="42.460074000" lon="-2.463918000">
        <ele>407.10</ele>
        <time>2013-07-27T08:19:08Z</time>
      </trkpt>
      <trkpt lat="42.460060000" lon="-2.463917000">
        <ele>407.10</ele>
        <time>2013-07-27T08:19:09Z</time>
      </trkpt>
      <trkpt lat="42.460051000" lon="-2.463927000">
        <ele>407.20</ele>
        <time>2013-07-27T08:19:10Z</time>
      </trkpt>
      <trkpt lat="42.460040000" lon="-2.463937000">
        <ele>407.20</ele>
        <time>2013-07-27T08:19:11Z</time>
      </trkpt>
      <trkpt lat="42.460031000" lon="-2.463948000">
        <ele>407.20</ele>
        <time>2013-07-27T08:19:12Z</time>
      </trkpt>
      <trkpt lat="42.460021000" lon="-2.463954000">
        <ele>407.20</ele>
        <time>2013-07-27T08:19:13Z</time>
      </trkpt>
      <trkpt lat="42.460009000" lon="-2.463957000">
        <ele>407.20</ele>
        <time>2013-07-27T08:19:14Z</time>
      </trkpt>
      <trkpt lat="42.459996000" lon="-2.463961000">
        <ele>407.20</ele>
        <time>2013-07-27T08:19:15Z</time>
      </trkpt>
      <trkpt lat="42.459982000" lon="-2.463975000">
        <ele>407.10</ele>
        <time>2013-07-27T08:19:16Z</time>
      </trkpt>
      <trkpt lat="42.459969000" lon="-2.463984000">
        <ele>407.10</ele>
        <time>2013-07-27T08:19:17Z</time>
      </trkpt>
      <trkpt lat="42.459960000" lon="-2.463988000">
        <ele>407.10</ele>
        <time>2013-07-27T08:19:18Z</time>
      </trkpt>
      <trkpt lat="42.459944000" lon="-2.463996000">
        <ele>407.20</ele>
        <time>2013-07-27T08:19:19Z</time>
      </trkpt>
      <trkpt lat="42.459939000" lon="-2.464004000">
        <ele>407.30</ele>
        <time>2013-07-27T08:19:20Z</time>
      </trkpt>
      <trkpt lat="42.459931000" lon="-2.464010000">
        <ele>407.40</ele>
        <time>2013-07-27T08:19:21Z</time>
      </trkpt>
      <trkpt lat="42.459921000" lon="-2.464021000">
        <ele>407.50</ele>
        <time>2013-07-27T08:19:22Z</time>
      </trkpt>
      <trkpt lat="42.459904000" lon="-2.464029000">
        <ele>407.70</ele>
        <time>2013-07-27T08:19:23Z</time>
      </trkpt>
      <trkpt lat="42.459887000" lon="-2.464034000">
        <ele>407.80</ele>
        <time>2013-07-27T08:19:24Z</time>
      </trkpt>
      <trkpt lat="42.459871000" lon="-2.464038000">
        <ele>407.90</ele>
        <time>2013-07-27T08:19:25Z</time>
      </trkpt>
      <trkpt lat="42.459855000" lon="-2.464038000">
        <ele>408.00</ele>
        <time>2013-07-27T08:19:26Z</time>
      </trkpt>
      <trkpt lat="42.459837000" lon="-2.464041000">
        <ele>408.10</ele>
        <time>2013-07-27T08:19:27Z</time>
      </trkpt>
      <trkpt lat="42.459826000" lon="-2.464034000">
        <ele>408.10</ele>
        <time>2013-07-27T08:19:28Z</time>
      </trkpt>
      <trkpt lat="42.459814000" lon="-2.464031000">
        <ele>408.10</ele>
        <time>2013-07-27T08:19:29Z</time>
      </trkpt>
      <trkpt lat="42.459798000" lon="-2.464034000">
        <ele>408.20</ele>
        <time>2013-07-27T08:19:30Z</time>
      </trkpt>
      <trkpt lat="42.459785000" lon="-2.464036000">
        <ele>408.20</ele>
        <time>2013-07-27T08:19:31Z</time>
      </trkpt>
      <trkpt lat="42.459772000" lon="-2.464036000">
        <ele>408.20</ele>
        <time>2013-07-27T08:19:32Z</time>
      </trkpt>
      <trkpt lat="42.459757000" lon="-2.464035000">
        <ele>408.50</ele>
        <time>2013-07-27T08:19:33Z</time>
      </trkpt>
      <trkpt lat="42.459743000" lon="-2.464034000">
        <ele>408.60</ele>
        <time>2013-07-27T08:19:34Z</time>
      </trkpt>
      <trkpt lat="42.459732000" lon="-2.464035000">
        <ele>408.80</ele>
        <time>2013-07-27T08:19:35Z</time>
      </trkpt>
      <trkpt lat="42.459719000" lon="-2.464028000">
        <ele>408.90</ele>
        <time>2013-07-27T08:19:36Z</time>
      </trkpt>
      <trkpt lat="42.459706000" lon="-2.464015000">
        <ele>408.80</ele>
        <time>2013-07-27T08:19:37Z</time>
      </trkpt>
      <trkpt lat="42.459693000" lon="-2.464006000">
        <ele>408.80</ele>
        <time>2013-07-27T08:19:38Z</time>
      </trkpt>
      <trkpt lat="42.459683000" lon="-2.463993000">
        <ele>408.80</ele>
        <time>2013-07-27T08:19:39Z</time>
      </trkpt>
      <trkpt lat="42.459678000" lon="-2.463987000">
        <ele>408.70</ele>
        <time>2013-07-27T08:19:40Z</time>
      </trkpt>
      <trkpt lat="42.459665000" lon="-2.463971000">
        <ele>408.90</ele>
        <time>2013-07-27T08:19:41Z</time>
      </trkpt>
      <trkpt lat="42.459652000" lon="-2.463955000">
        <ele>408.90</ele>
        <time>2013-07-27T08:19:42Z</time>
      </trkpt>
      <trkpt lat="42.459635000" lon="-2.463946000">
        <ele>409.00</ele>
        <time>2013-07-27T08:19:43Z</time>
      </trkpt>
      <trkpt lat="42.459617000" lon="-2.463941000">
        <ele>409.10</ele>
        <time>2013-07-27T08:19:44Z</time>
      </trkpt>
      <trkpt lat="42.459596000" lon="-2.463941000">
        <ele>409.00</ele>
        <time>2013-07-27T08:19:45Z</time>
      </trkpt>
      <trkpt lat="42.459581000" lon="-2.463947000">
        <ele>409.00</ele>
        <time>2013-07-27T08:19:46Z</time>
      </trkpt>
      <trkpt lat="42.459564000" lon="-2.463954000">
        <ele>409.00</ele>
        <time>2013-07-27T08:19:47Z</time>
      </trkpt>
      <trkpt lat="42.459546000" lon="-2.463952000">
        <ele>409.00</ele>
        <time>2013-07-27T08:19:48Z</time>
      </trkpt>
      <trkpt lat="42.459527000" lon="-2.463952000">
        <ele>409.00</ele>
        <time>2013-07-27T08:19:49Z</time>
      </trkpt>
      <trkpt lat="42.459508000" lon="-2.463950000">
        <ele>409.00</ele>
        <time>2013-07-27T08:19:50Z</time>
      </trkpt>
      <trkpt lat="42.459491000" lon="-2.463951000">
        <ele>409.00</ele>
        <time>2013-07-27T08:19:51Z</time>
      </trkpt>
      <trkpt lat="42.459473000" lon="-2.463951000">
        <ele>409.00</ele>
        <time>2013-07-27T08:19:52Z</time>
      </trkpt>
      <trkpt lat="42.459458000" lon="-2.463952000">
        <ele>408.90</ele>
        <time>2013-07-27T08:19:53Z</time>
      </trkpt>
      <trkpt lat="42.459440000" lon="-2.463958000">
        <ele>408.90</ele>
        <time>2013-07-27T08:19:54Z</time>
      </trkpt>
      <trkpt lat="42.459419000" lon="-2.463958000">
        <ele>409.10</ele>
        <time>2013-07-27T08:19:55Z</time>
      </trkpt>
      <trkpt lat="42.459399000" lon="-2.463952000">
        <ele>409.20</ele>
        <time>2013-07-27T08:19:56Z</time>
      </trkpt>
      <trkpt lat="42.459379000" lon="-2.463938000">
        <ele>409.20</ele>
        <time>2013-07-27T08:19:57Z</time>
      </trkpt>
      <trkpt lat="42.459362000" lon="-2.463926000">
        <ele>409.30</ele>
        <time>2013-07-27T08:19:58Z</time>
      </trkpt>
      <trkpt lat="42.459336000" lon="-2.463918000">
        <ele>409.40</ele>
        <time>2013-07-27T08:19:59Z</time>
      </trkpt>
      <trkpt lat="42.459305000" lon="-2.463913000">
        <ele>409.40</ele>
        <time>2013-07-27T08:20:00Z</time>
      </trkpt>
      <trkpt lat="42.459272000" lon="-2.463920000">
        <ele>409.50</ele>
        <time>2013-07-27T08:20:01Z</time>
      </trkpt>
      <trkpt lat="42.459243000" lon="-2.463937000">
        <ele>409.50</ele>
        <time>2013-07-27T08:20:02Z</time>
      </trkpt>
      <trkpt lat="42.459223000" lon="-2.463957000">
        <ele>409.40</ele>
        <time>2013-07-27T08:20:03Z</time>
      </trkpt>
      <trkpt lat="42.459203000" lon="-2.463986000">
        <ele>409.30</ele>
        <time>2013-07-27T08:20:04Z</time>
      </trkpt>
      <trkpt lat="42.459187000" lon="-2.464019000">
        <ele>409.30</ele>
        <time>2013-07-27T08:20:05Z</time>
      </trkpt>
      <trkpt lat="42.459177000" lon="-2.464058000">
        <ele>409.20</ele>
        <time>2013-07-27T08:20:06Z</time>
      </trkpt>
      <trkpt lat="42.459169000" lon="-2.464086000">
        <ele>409.20</ele>
        <time>2013-07-27T08:20:07Z</time>
      </trkpt>
      <trkpt lat="42.459163000" lon="-2.464117000">
        <ele>409.10</ele>
        <time>2013-07-27T08:20:08Z</time>
      </trkpt>
      <trkpt lat="42.459161000" lon="-2.464148000">
        <ele>409.00</ele>
        <time>2013-07-27T08:20:09Z</time>
      </trkpt>
      <trkpt lat="42.459157000" lon="-2.464169000">
        <ele>409.00</ele>
        <time>2013-07-27T08:20:10Z</time>
      </trkpt>
      <trkpt lat="42.459150000" lon="-2.464193000">
        <ele>408.80</ele>
        <time>2013-07-27T08:20:11Z</time>
      </trkpt>
      <trkpt lat="42.459144000" lon="-2.464217000">
        <ele>408.70</ele>
        <time>2013-07-27T08:20:12Z</time>
      </trkpt>
      <trkpt lat="42.459136000" lon="-2.464235000">
        <ele>408.60</ele>
        <time>2013-07-27T08:20:13Z</time>
      </trkpt>
      <trkpt lat="42.459132000" lon="-2.464254000">
        <ele>408.60</ele>
        <time>2013-07-27T08:20:14Z</time>
      </trkpt>
      <trkpt lat="42.459130000" lon="-2.464273000">
        <ele>408.40</ele>
        <time>2013-07-27T08:20:15Z</time>
      </trkpt>
      <trkpt lat="42.459128000" lon="-2.464291000">
        <ele>408.30</ele>
        <time>2013-07-27T08:20:16Z</time>
      </trkpt>
      <trkpt lat="42.459127000" lon="-2.464312000">
        <ele>408.30</ele>
        <time>2013-07-27T08:20:17Z</time>
      </trkpt>
      <trkpt lat="42.459119000" lon="-2.464332000">
        <ele>408.20</ele>
        <time>2013-07-27T08:20:18Z</time>
      </trkpt>
      <trkpt lat="42.459110000" lon="-2.464350000">
        <ele>408.20</ele>
        <time>2013-07-27T08:20:19Z</time>
      </trkpt>
      <trkpt lat="42.459098000" lon="-2.464366000">
        <ele>408.20</ele>
        <time>2013-07-27T08:20:20Z</time>
      </trkpt>
      <trkpt lat="42.459087000" lon="-2.464380000">
        <ele>408.20</ele>
        <time>2013-07-27T08:20:21Z</time>
      </trkpt>
      <trkpt lat="42.459080000" lon="-2.464397000">
        <ele>408.20</ele>
        <time>2013-07-27T08:20:22Z</time>
      </trkpt>
      <trkpt lat="42.459076000" lon="-2.464415000">
        <ele>408.30</ele>
        <time>2013-07-27T08:20:23Z</time>
      </trkpt>
      <trkpt lat="42.459073000" lon="-2.464436000">
        <ele>408.30</ele>
        <time>2013-07-27T08:20:24Z</time>
      </trkpt>
      <trkpt lat="42.459072000" lon="-2.464458000">
        <ele>408.30</ele>
        <time>2013-07-27T08:20:25Z</time>
      </trkpt>
      <trkpt lat="42.459071000" lon="-2.464479000">
        <ele>408.40</ele>
        <time>2013-07-27T08:20:26Z</time>
      </trkpt>
      <trkpt lat="42.459062000" lon="-2.464498000">
        <ele>408.50</ele>
        <time>2013-07-27T08:20:27Z</time>
      </trkpt>
      <trkpt lat="42.459059000" lon="-2.464518000">
        <ele>408.60</ele>
        <time>2013-07-27T08:20:28Z</time>
      </trkpt>
      <trkpt lat="42.459054000" lon="-2.464538000">
        <ele>408.70</ele>
        <time>2013-07-27T08:20:29Z</time>
      </trkpt>
      <trkpt lat="42.459053000" lon="-2.464557000">
        <ele>408.80</ele>
        <time>2013-07-27T08:20:30Z</time>
      </trkpt>
      <trkpt lat="42.459050000" lon="-2.464579000">
        <ele>408.80</ele>
        <time>2013-07-27T08:20:31Z</time>
      </trkpt>
      <trkpt lat="42.459047000" lon="-2.464600000">
        <ele>408.80</ele>
        <time>2013-07-27T08:20:32Z</time>
      </trkpt>
      <trkpt lat="42.459045000" lon="-2.464619000">
        <ele>408.70</ele>
        <time>2013-07-27T08:20:33Z</time>
      </trkpt>
      <trkpt lat="42.459040000" lon="-2.464640000">
        <ele>408.60</ele>
        <time>2013-07-27T08:20:34Z</time>
      </trkpt>
      <trkpt lat="42.459038000" lon="-2.464662000">
        <ele>408.50</ele>
        <time>2013-07-27T08:20:35Z</time>
      </trkpt>
      <trkpt lat="42.459039000" lon="-2.464684000">
        <ele>408.50</ele>
        <time>2013-07-27T08:20:36Z</time>
      </trkpt>
      <trkpt lat="42.459030000" lon="-2.464701000">
        <ele>408.50</ele>
        <time>2013-07-27T08:20:37Z</time>
      </trkpt>
      <trkpt lat="42.459028000" lon="-2.464718000">
        <ele>408.40</ele>
        <time>2013-07-27T08:20:38Z</time>
      </trkpt>
      <trkpt lat="42.459022000" lon="-2.464735000">
        <ele>408.50</ele>
        <time>2013-07-27T08:20:39Z</time>
      </trkpt>
      <trkpt lat="42.459023000" lon="-2.464756000">
        <ele>408.50</ele>
        <time>2013-07-27T08:20:40Z</time>
      </trkpt>
      <trkpt lat="42.459013000" lon="-2.464771000">
        <ele>408.40</ele>
        <time>2013-07-27T08:20:41Z</time>
      </trkpt>
      <trkpt lat="42.459002000" lon="-2.464787000">
        <ele>408.40</ele>
        <time>2013-07-27T08:20:42Z</time>
      </trkpt>
      <trkpt lat="42.458995000" lon="-2.464804000">
        <ele>408.50</ele>
        <time>2013-07-27T08:20:43Z</time>
      </trkpt>
      <trkpt lat="42.458994000" lon="-2.464821000">
        <ele>408.60</ele>
        <time>2013-07-27T08:20:44Z</time>
      </trkpt>
      <trkpt lat="42.458994000" lon="-2.464841000">
        <ele>408.50</ele>
        <time>2013-07-27T08:20:45Z</time>
      </trkpt>
      <trkpt lat="42.458994000" lon="-2.464861000">
        <ele>408.40</ele>
        <time>2013-07-27T08:20:46Z</time>
      </trkpt>
      <trkpt lat="42.458989000" lon="-2.464880000">
        <ele>408.40</ele>
        <time>2013-07-27T08:20:47Z</time>
      </trkpt>
      <trkpt lat="42.458990000" lon="-2.464899000">
        <ele>408.50</ele>
        <time>2013-07-27T08:20:48Z</time>
      </trkpt>
      <trkpt lat="42.458987000" lon="-2.464920000">
        <ele>408.50</ele>
        <time>2013-07-27T08:20:49Z</time>
      </trkpt>
      <trkpt lat="42.458984000" lon="-2.464940000">
        <ele>408.50</ele>
        <time>2013-07-27T08:20:50Z</time>
      </trkpt>
      <trkpt lat="42.458980000" lon="-2.464958000">
        <ele>408.50</ele>
        <time>2013-07-27T08:20:51Z</time>
      </trkpt>
      <trkpt lat="42.458974000" lon="-2.464976000">
        <ele>408.50</ele>
        <time>2013-07-27T08:20:52Z</time>
      </trkpt>
      <trkpt lat="42.458969000" lon="-2.464994000">
        <ele>408.60</ele>
        <time>2013-07-27T08:20:53Z</time>
      </trkpt>
      <trkpt lat="42.458967000" lon="-2.465014000">
        <ele>408.60</ele>
        <time>2013-07-27T08:20:54Z</time>
      </trkpt>
      <trkpt lat="42.458963000" lon="-2.465033000">
        <ele>408.50</ele>
        <time>2013-07-27T08:20:55Z</time>
      </trkpt>
      <trkpt lat="42.458959000" lon="-2.465054000">
        <ele>408.40</ele>
        <time>2013-07-27T08:20:56Z</time>
      </trkpt>
      <trkpt lat="42.458954000" lon="-2.465072000">
        <ele>408.50</ele>
        <time>2013-07-27T08:20:57Z</time>
      </trkpt>
      <trkpt lat="42.458944000" lon="-2.465088000">
        <ele>408.60</ele>
        <time>2013-07-27T08:20:58Z</time>
      </trkpt>
      <trkpt lat="42.458938000" lon="-2.465105000">
        <ele>408.50</ele>
        <time>2013-07-27T08:20:59Z</time>
      </trkpt>
      <trkpt lat="42.458929000" lon="-2.465123000">
        <ele>408.40</ele>
        <time>2013-07-27T08:21:00Z</time>
      </trkpt>
      <trkpt lat="42.458921000" lon="-2.465142000">
        <ele>408.60</ele>
        <time>2013-07-27T08:21:01Z</time>
      </trkpt>
      <trkpt lat="42.458916000" lon="-2.465157000">
        <ele>408.70</ele>
        <time>2013-07-27T08:21:02Z</time>
      </trkpt>
      <trkpt lat="42.458909000" lon="-2.465172000">
        <ele>408.90</ele>
        <time>2013-07-27T08:21:03Z</time>
      </trkpt>
      <trkpt lat="42.458903000" lon="-2.465177000">
        <ele>408.90</ele>
        <time>2013-07-27T08:21:04Z</time>
      </trkpt>
      <trkpt lat="42.458901000" lon="-2.465186000">
        <ele>409.00</ele>
        <time>2013-07-27T08:21:05Z</time>
      </trkpt>
      <trkpt lat="42.458910000" lon="-2.465183000">
        <ele>409.10</ele>
        <time>2013-07-27T08:21:06Z</time>
      </trkpt>
      <trkpt lat="42.458912000" lon="-2.465184000">
        <ele>408.90</ele>
        <time>2013-07-27T08:21:07Z</time>
      </trkpt>
      <trkpt lat="42.458912000" lon="-2.465188000">
        <ele>408.90</ele>
        <time>2013-07-27T08:21:08Z</time>
      </trkpt>
      <trkpt lat="42.458910000" lon="-2.465188000">
        <ele>408.80</ele>
        <time>2013-07-27T08:21:09Z</time>
      </trkpt>
      <trkpt lat="42.458925000" lon="-2.465185000">
        <ele>408.70</ele>
        <time>2013-07-27T08:21:10Z</time>
      </trkpt>
      <trkpt lat="42.458937000" lon="-2.465183000">
        <ele>408.60</ele>
        <time>2013-07-27T08:21:11Z</time>
      </trkpt>
      <trkpt lat="42.458956000" lon="-2.465180000">
        <ele>408.40</ele>
        <time>2013-07-27T08:21:12Z</time>
      </trkpt>
      <trkpt lat="42.458979000" lon="-2.465170000">
        <ele>408.50</ele>
        <time>2013-07-27T08:21:13Z</time>
      </trkpt>
      <trkpt lat="42.458996000" lon="-2.465165000">
        <ele>408.50</ele>
        <time>2013-07-27T08:21:14Z</time>
      </trkpt>
      <trkpt lat="42.459004000" lon="-2.465166000">
        <ele>408.40</ele>
        <time>2013-07-27T08:21:15Z</time>
      </trkpt>
      <trkpt lat="42.459014000" lon="-2.465167000">
        <ele>408.30</ele>
        <time>2013-07-27T08:21:16Z</time>
      </trkpt>
      <trkpt lat="42.459023000" lon="-2.465164000">
        <ele>408.40</ele>
        <time>2013-07-27T08:21:17Z</time>
      </trkpt>
      <trkpt lat="42.459029000" lon="-2.465162000">
        <ele>408.50</ele>
        <time>2013-07-27T08:21:18Z</time>
      </trkpt>
      <trkpt lat="42.459037000" lon="-2.465160000">
        <ele>408.60</ele>
        <time>2013-07-27T08:21:19Z</time>
      </trkpt>
      <trkpt lat="42.459043000" lon="-2.465162000">
        <ele>408.60</ele>
        <time>2013-07-27T08:21:20Z</time>
      </trkpt>
      <trkpt lat="42.459053000" lon="-2.465158000">
        <ele>408.70</ele>
        <time>2013-07-27T08:21:21Z</time>
      </trkpt>
      <trkpt lat="42.459062000" lon="-2.465155000">
        <ele>408.70</ele>
        <time>2013-07-27T08:21:22Z</time>
      </trkpt>
      <trkpt lat="42.459071000" lon="-2.465153000">
        <ele>408.70</ele>
        <time>2013-07-27T08:21:23Z</time>
      </trkpt>
      <trkpt lat="42.459080000" lon="-2.465154000">
        <ele>408.70</ele>
        <time>2013-07-27T08:21:24Z</time>
      </trkpt>
      <trkpt lat="42.459089000" lon="-2.465157000">
        <ele>408.60</ele>
        <time>2013-07-27T08:21:25Z</time>
      </trkpt>
      <trkpt lat="42.459097000" lon="-2.465160000">
        <ele>408.50</ele>
        <time>2013-07-27T08:21:26Z</time>
      </trkpt>
      <trkpt lat="42.459105000" lon="-2.465163000">
        <ele>408.40</ele>
        <time>2013-07-27T08:21:27Z</time>
      </trkpt>
      <trkpt lat="42.459114000" lon="-2.465164000">
        <ele>408.30</ele>
        <time>2013-07-27T08:21:28Z</time>
      </trkpt>
      <trkpt lat="42.459118000" lon="-2.465167000">
        <ele>408.30</ele>
        <time>2013-07-27T08:21:29Z</time>
      </trkpt>
      <trkpt lat="42.459120000" lon="-2.465169000">
        <ele>408.30</ele>
        <time>2013-07-27T08:21:30Z</time>
      </trkpt>
      <trkpt lat="42.459117000" lon="-2.465171000">
        <ele>408.20</ele>
        <time>2013-07-27T08:21:31Z</time>
      </trkpt>
      <trkpt lat="42.459113000" lon="-2.465173000">
        <ele>408.20</ele>
        <time>2013-07-27T08:21:32Z</time>
      </trkpt>
      <trkpt lat="42.459093000" lon="-2.465170000">
        <ele>408.40</ele>
        <time>2013-07-27T08:21:33Z</time>
      </trkpt>
      <trkpt lat="42.459080000" lon="-2.465166000">
        <ele>408.50</ele>
        <time>2013-07-27T08:21:34Z</time>
      </trkpt>
      <trkpt lat="42.459062000" lon="-2.465159000">
        <ele>408.60</ele>
        <time>2013-07-27T08:21:35Z</time>
      </trkpt>
      <trkpt lat="42.459050000" lon="-2.465153000">
        <ele>408.70</ele>
        <time>2013-07-27T08:21:36Z</time>
      </trkpt>
      <trkpt lat="42.459038000" lon="-2.465148000">
        <ele>408.70</ele>
        <time>2013-07-27T08:21:37Z</time>
      </trkpt>
      <trkpt lat="42.459026000" lon="-2.465148000">
        <ele>408.70</ele>
        <time>2013-07-27T08:21:38Z</time>
      </trkpt>
      <trkpt lat="42.459020000" lon="-2.465146000">
        <ele>408.70</ele>
        <time>2013-07-27T08:21:39Z</time>
      </trkpt>
      <trkpt lat="42.459006000" lon="-2.465147000">
        <ele>408.70</ele>
        <time>2013-07-27T08:21:40Z</time>
      </trkpt>
      <trkpt lat="42.458997000" lon="-2.465148000">
        <ele>408.70</ele>
        <time>2013-07-27T08:21:41Z</time>
      </trkpt>
      <trkpt lat="42.458988000" lon="-2.465146000">
        <ele>408.70</ele>
        <time>2013-07-27T08:21:42Z</time>
      </trkpt>
      <trkpt lat="42.458981000" lon="-2.465144000">
        <ele>408.50</ele>
        <time>2013-07-27T08:21:43Z</time>
      </trkpt>
      <trkpt lat="42.458973000" lon="-2.465142000">
        <ele>408.30</ele>
        <time>2013-07-27T08:21:44Z</time>
      </trkpt>
      <trkpt lat="42.458966000" lon="-2.465140000">
        <ele>408.20</ele>
        <time>2013-07-27T08:21:45Z</time>
      </trkpt>
      <trkpt lat="42.458961000" lon="-2.465140000">
        <ele>408.10</ele>
        <time>2013-07-27T08:21:46Z</time>
      </trkpt>
      <trkpt lat="42.458954000" lon="-2.465140000">
        <ele>408.10</ele>
        <time>2013-07-27T08:21:47Z</time>
      </trkpt>
      <trkpt lat="42.458948000" lon="-2.465139000">
        <ele>408.20</ele>
        <time>2013-07-27T08:21:48Z</time>
      </trkpt>
      <trkpt lat="42.458943000" lon="-2.465139000">
        <ele>408.30</ele>
        <time>2013-07-27T08:21:49Z</time>
      </trkpt>
      <trkpt lat="42.458938000" lon="-2.465140000">
        <ele>408.40</ele>
        <time>2013-07-27T08:21:50Z</time>
      </trkpt>
      <trkpt lat="42.458932000" lon="-2.465138000">
        <ele>408.50</ele>
        <time>2013-07-27T08:21:51Z</time>
      </trkpt>
      <trkpt lat="42.458927000" lon="-2.465135000">
        <ele>408.50</ele>
        <time>2013-07-27T08:21:52Z</time>
      </trkpt>
      <trkpt lat="42.458924000" lon="-2.465133000">
        <ele>408.70</ele>
        <time>2013-07-27T08:21:53Z</time>
      </trkpt>
      <trkpt lat="42.458922000" lon="-2.465130000">
        <ele>408.80</ele>
        <time>2013-07-27T08:21:54Z</time>
      </trkpt>
      <trkpt lat="42.458920000" lon="-2.465129000">
        <ele>408.80</ele>
        <time>2013-07-27T08:21:55Z</time>
      </trkpt>
      <trkpt lat="42.458919000" lon="-2.465126000">
        <ele>408.90</ele>
        <time>2013-07-27T08:21:56Z</time>
      </trkpt>
      <trkpt lat="42.458919000" lon="-2.465122000">
        <ele>408.80</ele>
        <time>2013-07-27T08:21:57Z</time>
      </trkpt>
      <trkpt lat="42.458918000" lon="-2.465122000">
        <ele>408.70</ele>
        <time>2013-07-27T08:21:58Z</time>
      </trkpt>
      <trkpt lat="42.458917000" lon="-2.465122000">
        <ele>408.50</ele>
        <time>2013-07-27T08:21:59Z</time>
      </trkpt>
      <trkpt lat="42.458917000" lon="-2.465122000">
        <ele>408.40</ele>
        <time>2013-07-27T08:22:00Z</time>
      </trkpt>
      <trkpt lat="42.458919000" lon="-2.465120000">
        <ele>408.20</ele>
        <time>2013-07-27T08:22:01Z</time>
      </trkpt>
      <trkpt lat="42.458921000" lon="-2.465119000">
        <ele>408.20</ele>
        <time>2013-07-27T08:22:02Z</time>
      </trkpt>
      <trkpt lat="42.458921000" lon="-2.465119000">
        <ele>408.20</ele>
        <time>2013-07-27T08:22:03Z</time>
      </trkpt>
      <trkpt lat="42.458922000" lon="-2.465120000">
        <ele>408.20</ele>
        <time>2013-07-27T08:22:04Z</time>
      </trkpt>
      <trkpt lat="42.458922000" lon="-2.465118000">
        <ele>408.20</ele>
        <time>2013-07-27T08:22:05Z</time>
      </trkpt>
      <trkpt lat="42.458921000" lon="-2.465116000">
        <ele>408.20</ele>
        <time>2013-07-27T08:22:06Z</time>
      </trkpt>
      <trkpt lat="42.458917000" lon="-2.465113000">
        <ele>408.20</ele>
        <time>2013-07-27T08:22:07Z</time>
      </trkpt>
      <trkpt lat="42.458914000" lon="-2.465109000">
        <ele>408.30</ele>
        <time>2013-07-27T08:22:08Z</time>
      </trkpt>
      <trkpt lat="42.458912000" lon="-2.465107000">
        <ele>408.10</ele>
        <time>2013-07-27T08:22:09Z</time>
      </trkpt>
      <trkpt lat="42.458910000" lon="-2.465104000">
        <ele>408.00</ele>
        <time>2013-07-27T08:22:10Z</time>
      </trkpt>
      <trkpt lat="42.458910000" lon="-2.465104000">
        <ele>408.10</ele>
        <time>2013-07-27T08:22:11Z</time>
      </trkpt>
      <trkpt lat="42.458910000" lon="-2.465103000">
        <ele>408.20</ele>
        <time>2013-07-27T08:22:12Z</time>
      </trkpt>
      <trkpt lat="42.458913000" lon="-2.465104000">
        <ele>408.20</ele>
        <time>2013-07-27T08:22:13Z</time>
      </trkpt>
      <trkpt lat="42.458914000" lon="-2.465106000">
        <ele>408.20</ele>
        <time>2013-07-27T08:22:14Z</time>
      </trkpt>
      <trkpt lat="42.458914000" lon="-2.465110000">
        <ele>408.30</ele>
        <time>2013-07-27T08:22:15Z</time>
      </trkpt>
      <trkpt lat="42.458916000" lon="-2.465113000">
        <ele>408.40</ele>
        <time>2013-07-27T08:22:16Z</time>
      </trkpt>
      <trkpt lat="42.458918000" lon="-2.465115000">
        <ele>408.40</ele>
        <time>2013-07-27T08:22:17Z</time>
      </trkpt>
      <trkpt lat="42.458919000" lon="-2.465118000">
        <ele>408.40</ele>
        <time>2013-07-27T08:22:18Z</time>
      </trkpt>
      <trkpt lat="42.458920000" lon="-2.465121000">
        <ele>408.40</ele>
        <time>2013-07-27T08:22:19Z</time>
      </trkpt>
      <trkpt lat="42.458920000" lon="-2.465126000">
        <ele>408.40</ele>
        <time>2013-07-27T08:22:20Z</time>
      </trkpt>
      <trkpt lat="42.458919000" lon="-2.465131000">
        <ele>408.30</ele>
        <time>2013-07-27T08:22:21Z</time>
      </trkpt>
      <trkpt lat="42.458919000" lon="-2.465135000">
        <ele>408.20</ele>
        <time>2013-07-27T08:22:22Z</time>
      </trkpt>
      <trkpt lat="42.458917000" lon="-2.465144000">
        <ele>408.20</ele>
        <time>2013-07-27T08:22:23Z</time>
      </trkpt>
      <trkpt lat="42.458916000" lon="-2.465149000">
        <ele>408.20</ele>
        <time>2013-07-27T08:22:24Z</time>
      </trkpt>
      <trkpt lat="42.458916000" lon="-2.465153000">
        <ele>408.20</ele>
        <time>2013-07-27T08:22:25Z</time>
      </trkpt>
      <trkpt lat="42.458917000" lon="-2.465156000">
        <ele>408.20</ele>
        <time>2013-07-27T08:22:26Z</time>
      </trkpt>
      <trkpt lat="42.458917000" lon="-2.465158000">
        <ele>408.20</ele>
        <time>2013-07-27T08:22:27Z</time>
      </trkpt>
      <trkpt lat="42.458917000" lon="-2.465161000">
        <ele>408.20</ele>
        <time>2013-07-27T08:22:28Z</time>
      </trkpt>
      <trkpt lat="42.458917000" lon="-2.465165000">
        <ele>408.20</ele>
        <time>2013-07-27T08:22:29Z</time>
      </trkpt>
      <trkpt lat="42.458919000" lon="-2.465168000">
        <ele>408.20</ele>
        <time>2013-07-27T08:22:30Z</time>
      </trkpt>
      <trkpt lat="42.458918000" lon="-2.465171000">
        <ele>408.20</ele>
        <time>2013-07-27T08:22:31Z</time>
      </trkpt>
      <trkpt lat="42.458918000" lon="-2.465174000">
        <ele>408.20</ele>
        <time>2013-07-27T08:22:32Z</time>
      </trkpt>
      <trkpt lat="42.458917000" lon="-2.465175000">
        <ele>408.20</ele>
        <time>2013-07-27T08:22:33Z</time>
      </trkpt>
      <trkpt lat="42.458917000" lon="-2.465174000">
        <ele>408.10</ele>
        <time>2013-07-27T08:22:34Z</time>
      </trkpt>
      <trkpt lat="42.458918000" lon="-2.465175000">
        <ele>408.10</ele>
        <time>2013-07-27T08:22:35Z</time>
      </trkpt>
      <trkpt lat="42.458916000" lon="-2.465175000">
        <ele>408.00</ele>
        <time>2013-07-27T08:22:36Z</time>
      </trkpt>
      <trkpt lat="42.458915000" lon="-2.465174000">
        <ele>408.00</ele>
        <time>2013-07-27T08:22:37Z</time>
      </trkpt>
      <trkpt lat="42.458913000" lon="-2.465173000">
        <ele>407.90</ele>
        <time>2013-07-27T08:22:38Z</time>
      </trkpt>
      <trkpt lat="42.458912000" lon="-2.465172000">
        <ele>407.90</ele>
        <time>2013-07-27T08:22:39Z</time>
      </trkpt>
      <trkpt lat="42.458912000" lon="-2.465169000">
        <ele>407.90</ele>
        <time>2013-07-27T08:22:40Z</time>
      </trkpt>
      <trkpt lat="42.458911000" lon="-2.465166000">
        <ele>407.90</ele>
        <time>2013-07-27T08:22:41Z</time>
      </trkpt>
      <trkpt lat="42.458911000" lon="-2.465164000">
        <ele>407.90</ele>
        <time>2013-07-27T08:22:42Z</time>
      </trkpt>
      <trkpt lat="42.458913000" lon="-2.465163000">
        <ele>407.90</ele>
        <time>2013-07-27T08:22:43Z</time>
      </trkpt>
      <trkpt lat="42.458914000" lon="-2.465165000">
        <ele>407.90</ele>
        <time>2013-07-27T08:22:44Z</time>
      </trkpt>
      <trkpt lat="42.458916000" lon="-2.465167000">
        <ele>407.90</ele>
        <time>2013-07-27T08:22:45Z</time>
      </trkpt>
      <trkpt lat="42.458917000" lon="-2.465167000">
        <ele>407.90</ele>
        <time>2013-07-27T08:22:46Z</time>
      </trkpt>
      <trkpt lat="42.458918000" lon="-2.465167000">
        <ele>407.80</ele>
        <time>2013-07-27T08:22:47Z</time>
      </trkpt>
      <trkpt lat="42.458920000" lon="-2.465165000">
        <ele>407.80</ele>
        <time>2013-07-27T08:22:48Z</time>
      </trkpt>
      <trkpt lat="42.458921000" lon="-2.465162000">
        <ele>407.90</ele>
        <time>2013-07-27T08:22:49Z</time>
      </trkpt>
      <trkpt lat="42.458922000" lon="-2.465159000">
        <ele>407.90</ele>
        <time>2013-07-27T08:22:50Z</time>
      </trkpt>
      <trkpt lat="42.458922000" lon="-2.465157000">
        <ele>407.90</ele>
        <time>2013-07-27T08:22:51Z</time>
      </trkpt>
      <trkpt lat="42.458924000" lon="-2.465155000">
        <ele>407.80</ele>
        <time>2013-07-27T08:22:52Z</time>
      </trkpt>
      <trkpt lat="42.458926000" lon="-2.465151000">
        <ele>407.70</ele>
        <time>2013-07-27T08:22:53Z</time>
      </trkpt>
      <trkpt lat="42.458927000" lon="-2.465149000">
        <ele>407.70</ele>
        <time>2013-07-27T08:22:54Z</time>
      </trkpt>
      <trkpt lat="42.458929000" lon="-2.465146000">
        <ele>407.70</ele>
        <time>2013-07-27T08:22:55Z</time>
      </trkpt>
      <trkpt lat="42.458930000" lon="-2.465145000">
        <ele>407.60</ele>
        <time>2013-07-27T08:22:56Z</time>
      </trkpt>
      <trkpt lat="42.458931000" lon="-2.465145000">
        <ele>407.60</ele>
        <time>2013-07-27T08:22:57Z</time>
      </trkpt>
      <trkpt lat="42.458932000" lon="-2.465145000">
        <ele>407.60</ele>
        <time>2013-07-27T08:22:58Z</time>
      </trkpt>
      <trkpt lat="42.458933000" lon="-2.465146000">
        <ele>407.60</ele>
        <time>2013-07-27T08:22:59Z</time>
      </trkpt>
      <trkpt lat="42.458932000" lon="-2.465146000">
        <ele>407.70</ele>
        <time>2013-07-27T08:23:00Z</time>
      </trkpt>
      <trkpt lat="42.458929000" lon="-2.465146000">
        <ele>407.80</ele>
        <time>2013-07-27T08:23:01Z</time>
      </trkpt>
      <trkpt lat="42.458924000" lon="-2.465145000">
        <ele>407.90</ele>
        <time>2013-07-27T08:23:02Z</time>
      </trkpt>
      <trkpt lat="42.458921000" lon="-2.465145000">
        <ele>407.80</ele>
        <time>2013-07-27T08:23:03Z</time>
      </trkpt>
      <trkpt lat="42.458917000" lon="-2.465141000">
        <ele>407.80</ele>
        <time>2013-07-27T08:23:04Z</time>
      </trkpt>
      <trkpt lat="42.458915000" lon="-2.465137000">
        <ele>408.00</ele>
        <time>2013-07-27T08:23:05Z</time>
      </trkpt>
      <trkpt lat="42.458913000" lon="-2.465131000">
        <ele>408.10</ele>
        <time>2013-07-27T08:23:06Z</time>
      </trkpt>
      <trkpt lat="42.458911000" lon="-2.465129000">
        <ele>408.00</ele>
        <time>2013-07-27T08:23:07Z</time>
      </trkpt>
      <trkpt lat="42.458911000" lon="-2.465128000">
        <ele>408.00</ele>
        <time>2013-07-27T08:23:08Z</time>
      </trkpt>
      <trkpt lat="42.458913000" lon="-2.465125000">
        <ele>408.00</ele>
        <time>2013-07-27T08:23:09Z</time>
      </trkpt>
      <trkpt lat="42.458913000" lon="-2.465123000">
        <ele>408.00</ele>
        <time>2013-07-27T08:23:10Z</time>
      </trkpt>
      <trkpt lat="42.458913000" lon="-2.465122000">
        <ele>408.00</ele>
        <time>2013-07-27T08:23:11Z</time>
      </trkpt>
      <trkpt lat="42.458914000" lon="-2.465122000">
        <ele>408.00</ele>
        <time>2013-07-27T08:23:12Z</time>
      </trkpt>
      <trkpt lat="42.458915000" lon="-2.465122000">
        <ele>408.00</ele>
        <time>2013-07-27T08:23:13Z</time>
      </trkpt>
      <trkpt lat="42.458916000" lon="-2.465121000">
        <ele>408.00</ele>
        <time>2013-07-27T08:23:14Z</time>
      </trkpt>
      <trkpt lat="42.458917000" lon="-2.465121000">
        <ele>408.00</ele>
        <time>2013-07-27T08:23:15Z</time>
      </trkpt>
      <trkpt lat="42.458918000" lon="-2.465120000">
        <ele>408.00</ele>
        <time>2013-07-27T08:23:16Z</time>
      </trkpt>
      <trkpt lat="42.458918000" lon="-2.465119000">
        <ele>408.00</ele>
        <time>2013-07-27T08:23:17Z</time>
      </trkpt>
      <trkpt lat="42.458916000" lon="-2.465121000">
        <ele>408.00</ele>
        <time>2013-07-27T08:23:18Z</time>
      </trkpt>
      <trkpt lat="42.458913000" lon="-2.465123000">
        <ele>407.90</ele>
        <time>2013-07-27T08:23:19Z</time>
      </trkpt>
      <trkpt lat="42.458912000" lon="-2.465122000">
        <ele>407.90</ele>
        <time>2013-07-27T08:23:20Z</time>
      </trkpt>
      <trkpt lat="42.458910000" lon="-2.465122000">
        <ele>407.70</ele>
        <time>2013-07-27T08:23:21Z</time>
      </trkpt>
      <trkpt lat="42.458908000" lon="-2.465123000">
        <ele>407.60</ele>
        <time>2013-07-27T08:23:22Z</time>
      </trkpt>
      <trkpt lat="42.458907000" lon="-2.465124000">
        <ele>407.50</ele>
        <time>2013-07-27T08:23:23Z</time>
      </trkpt>
      <trkpt lat="42.458907000" lon="-2.465124000">
        <ele>407.50</ele>
        <time>2013-07-27T08:23:24Z</time>
      </trkpt>
      <trkpt lat="42.458907000" lon="-2.465125000">
        <ele>407.60</ele>
        <time>2013-07-27T08:23:25Z</time>
      </trkpt>
      <trkpt lat="42.458907000" lon="-2.465127000">
        <ele>407.70</ele>
        <time>2013-07-27T08:23:26Z</time>
      </trkpt>
      <trkpt lat="42.458908000" lon="-2.465130000">
        <ele>407.80</ele>
        <time>2013-07-27T08:23:27Z</time>
      </trkpt>
      <trkpt lat="42.458909000" lon="-2.465134000">
        <ele>407.80</ele>
        <time>2013-07-27T08:23:28Z</time>
      </trkpt>
      <trkpt lat="42.458909000" lon="-2.465139000">
        <ele>407.90</ele>
        <time>2013-07-27T08:23:29Z</time>
      </trkpt>
      <trkpt lat="42.458909000" lon="-2.465147000">
        <ele>407.90</ele>
        <time>2013-07-27T08:23:30Z</time>
      </trkpt>
      <trkpt lat="42.458910000" lon="-2.465153000">
        <ele>407.80</ele>
        <time>2013-07-27T08:23:31Z</time>
      </trkpt>
      <trkpt lat="42.458912000" lon="-2.465159000">
        <ele>407.80</ele>
        <time>2013-07-27T08:23:32Z</time>
      </trkpt>
      <trkpt lat="42.458914000" lon="-2.465161000">
        <ele>407.70</ele>
        <time>2013-07-27T08:23:33Z</time>
      </trkpt>
      <trkpt lat="42.458915000" lon="-2.465162000">
        <ele>407.70</ele>
        <time>2013-07-27T08:23:34Z</time>
      </trkpt>
      <trkpt lat="42.458916000" lon="-2.465161000">
        <ele>407.70</ele>
        <time>2013-07-27T08:23:35Z</time>
      </trkpt>
      <trkpt lat="42.458917000" lon="-2.465161000">
        <ele>407.70</ele>
        <time>2013-07-27T08:23:36Z</time>
      </trkpt>
      <trkpt lat="42.458919000" lon="-2.465160000">
        <ele>407.70</ele>
        <time>2013-07-27T08:23:37Z</time>
      </trkpt>
      <trkpt lat="42.458921000" lon="-2.465159000">
        <ele>407.80</ele>
        <time>2013-07-27T08:23:38Z</time>
      </trkpt>
      <trkpt lat="42.458922000" lon="-2.465158000">
        <ele>407.80</ele>
        <time>2013-07-27T08:23:39Z</time>
      </trkpt>
      <trkpt lat="42.458923000" lon="-2.465158000">
        <ele>407.80</ele>
        <time>2013-07-27T08:23:40Z</time>
      </trkpt>
      <trkpt lat="42.458925000" lon="-2.465155000">
        <ele>407.80</ele>
        <time>2013-07-27T08:23:41Z</time>
      </trkpt>
      <trkpt lat="42.458928000" lon="-2.465152000">
        <ele>407.70</ele>
        <time>2013-07-27T08:23:42Z</time>
      </trkpt>
      <trkpt lat="42.458931000" lon="-2.465148000">
        <ele>407.70</ele>
        <time>2013-07-27T08:23:43Z</time>
      </trkpt>
      <trkpt lat="42.458933000" lon="-2.465144000">
        <ele>407.70</ele>
        <time>2013-07-27T08:23:44Z</time>
      </trkpt>
      <trkpt lat="42.458933000" lon="-2.465141000">
        <ele>407.70</ele>
        <time>2013-07-27T08:23:45Z</time>
      </trkpt>
      <trkpt lat="42.458933000" lon="-2.465138000">
        <ele>407.70</ele>
        <time>2013-07-27T08:23:46Z</time>
      </trkpt>
      <trkpt lat="42.458933000" lon="-2.465134000">
        <ele>407.80</ele>
        <time>2013-07-27T08:23:47Z</time>
      </trkpt>
      <trkpt lat="42.458934000" lon="-2.465130000">
        <ele>407.80</ele>
        <time>2013-07-27T08:23:48Z</time>
      </trkpt>
      <trkpt lat="42.458935000" lon="-2.465128000">
        <ele>407.80</ele>
        <time>2013-07-27T08:23:49Z</time>
      </trkpt>
      <trkpt lat="42.458935000" lon="-2.465124000">
        <ele>407.80</ele>
        <time>2013-07-27T08:23:50Z</time>
      </trkpt>
      <trkpt lat="42.458937000" lon="-2.465116000">
        <ele>407.90</ele>
        <time>2013-07-27T08:23:51Z</time>
      </trkpt>
      <trkpt lat="42.458937000" lon="-2.465112000">
        <ele>407.90</ele>
        <time>2013-07-27T08:23:52Z</time>
      </trkpt>
      <trkpt lat="42.458937000" lon="-2.465108000">
        <ele>407.80</ele>
        <time>2013-07-27T08:23:53Z</time>
      </trkpt>
      <trkpt lat="42.458938000" lon="-2.465105000">
        <ele>407.80</ele>
        <time>2013-07-27T08:23:54Z</time>
      </trkpt>
      <trkpt lat="42.458938000" lon="-2.465102000">
        <ele>407.80</ele>
        <time>2013-07-27T08:23:55Z</time>
      </trkpt>
      <trkpt lat="42.458939000" lon="-2.465102000">
        <ele>407.80</ele>
        <time>2013-07-27T08:23:56Z</time>
      </trkpt>
      <trkpt lat="42.458942000" lon="-2.465106000">
        <ele>407.80</ele>
        <time>2013-07-27T08:23:57Z</time>
      </trkpt>
      <trkpt lat="42.458947000" lon="-2.465108000">
        <ele>407.80</ele>
        <time>2013-07-27T08:23:58Z</time>
      </trkpt>
      <trkpt lat="42.458947000" lon="-2.465112000">
        <ele>407.90</ele>
        <time>2013-07-27T08:23:59Z</time>
      </trkpt>
      <trkpt lat="42.458947000" lon="-2.465113000">
        <ele>407.90</ele>
        <time>2013-07-27T08:24:00Z</time>
      </trkpt>
      <trkpt lat="42.458948000" lon="-2.465112000">
        <ele>408.00</ele>
        <time>2013-07-27T08:24:01Z</time>
      </trkpt>
      <trkpt lat="42.458946000" lon="-2.465112000">
        <ele>408.00</ele>
        <time>2013-07-27T08:24:02Z</time>
      </trkpt>
      <trkpt lat="42.458944000" lon="-2.465113000">
        <ele>408.00</ele>
        <time>2013-07-27T08:24:03Z</time>
      </trkpt>
      <trkpt lat="42.458944000" lon="-2.465113000">
        <ele>408.00</ele>
        <time>2013-07-27T08:24:04Z</time>
      </trkpt>
      <trkpt lat="42.458943000" lon="-2.465112000">
        <ele>407.90</ele>
        <time>2013-07-27T08:24:05Z</time>
      </trkpt>
      <trkpt lat="42.458942000" lon="-2.465111000">
        <ele>407.80</ele>
        <time>2013-07-27T08:24:06Z</time>
      </trkpt>
      <trkpt lat="42.458942000" lon="-2.465111000">
        <ele>407.70</ele>
        <time>2013-07-27T08:24:07Z</time>
      </trkpt>
      <trkpt lat="42.458940000" lon="-2.465112000">
        <ele>407.70</ele>
        <time>2013-07-27T08:24:08Z</time>
      </trkpt>
      <trkpt lat="42.458938000" lon="-2.465114000">
        <ele>407.70</ele>
        <time>2013-07-27T08:24:09Z</time>
      </trkpt>
      <trkpt lat="42.458936000" lon="-2.465113000">
        <ele>407.60</ele>
        <time>2013-07-27T08:24:10Z</time>
      </trkpt>
      <trkpt lat="42.458933000" lon="-2.465111000">
        <ele>407.70</ele>
        <time>2013-07-27T08:24:11Z</time>
      </trkpt>
      <trkpt lat="42.458928000" lon="-2.465110000">
        <ele>407.70</ele>
        <time>2013-07-27T08:24:12Z</time>
      </trkpt>
      <trkpt lat="42.458924000" lon="-2.465107000">
        <ele>407.80</ele>
        <time>2013-07-27T08:24:13Z</time>
      </trkpt>
      <trkpt lat="42.458920000" lon="-2.465109000">
        <ele>407.90</ele>
        <time>2013-07-27T08:24:14Z</time>
      </trkpt>
      <trkpt lat="42.458916000" lon="-2.465110000">
        <ele>407.90</ele>
        <time>2013-07-27T08:24:15Z</time>
      </trkpt>
      <trkpt lat="42.458914000" lon="-2.465111000">
        <ele>408.00</ele>
        <time>2013-07-27T08:24:16Z</time>
      </trkpt>
      <trkpt lat="42.458914000" lon="-2.465113000">
        <ele>408.00</ele>
        <time>2013-07-27T08:24:17Z</time>
      </trkpt>
      <trkpt lat="42.458915000" lon="-2.465113000">
        <ele>408.00</ele>
        <time>2013-07-27T08:24:18Z</time>
      </trkpt>
      <trkpt lat="42.458914000" lon="-2.465119000">
        <ele>408.10</ele>
        <time>2013-07-27T08:24:19Z</time>
      </trkpt>
      <trkpt lat="42.458916000" lon="-2.465123000">
        <ele>408.10</ele>
        <time>2013-07-27T08:24:20Z</time>
      </trkpt>
      <trkpt lat="42.458916000" lon="-2.465125000">
        <ele>408.10</ele>
        <time>2013-07-27T08:24:21Z</time>
      </trkpt>
      <trkpt lat="42.458917000" lon="-2.465127000">
        <ele>408.10</ele>
        <time>2013-07-27T08:24:22Z</time>
      </trkpt>
      <trkpt lat="42.458920000" lon="-2.465129000">
        <ele>408.10</ele>
        <time>2013-07-27T08:24:23Z</time>
      </trkpt>
      <trkpt lat="42.458922000" lon="-2.465132000">
        <ele>408.20</ele>
        <time>2013-07-27T08:24:24Z</time>
      </trkpt>
      <trkpt lat="42.458926000" lon="-2.465132000">
        <ele>408.10</ele>
        <time>2013-07-27T08:24:25Z</time>
      </trkpt>
      <trkpt lat="42.458931000" lon="-2.465135000">
        <ele>408.10</ele>
        <time>2013-07-27T08:24:26Z</time>
      </trkpt>
      <trkpt lat="42.458936000" lon="-2.465137000">
        <ele>408.20</ele>
        <time>2013-07-27T08:24:27Z</time>
      </trkpt>
      <trkpt lat="42.458941000" lon="-2.465136000">
        <ele>408.20</ele>
        <time>2013-07-27T08:24:28Z</time>
      </trkpt>
      <trkpt lat="42.458944000" lon="-2.465138000">
        <ele>408.10</ele>
        <time>2013-07-27T08:24:29Z</time>
      </trkpt>
      <trkpt lat="42.458947000" lon="-2.465144000">
        <ele>408.10</ele>
        <time>2013-07-27T08:24:30Z</time>
      </trkpt>
      <trkpt lat="42.458949000" lon="-2.465149000">
        <ele>408.10</ele>
        <time>2013-07-27T08:24:31Z</time>
      </trkpt>
      <trkpt lat="42.458952000" lon="-2.465154000">
        <ele>408.00</ele>
        <time>2013-07-27T08:24:32Z</time>
      </trkpt>
      <trkpt lat="42.458952000" lon="-2.465157000">
        <ele>408.00</ele>
        <time>2013-07-27T08:24:33Z</time>
      </trkpt>
      <trkpt lat="42.458953000" lon="-2.465159000">
        <ele>408.00</ele>
        <time>2013-07-27T08:24:34Z</time>
      </trkpt>
      <trkpt lat="42.458954000" lon="-2.465160000">
        <ele>407.90</ele>
        <time>2013-07-27T08:24:35Z</time>
      </trkpt>
      <trkpt lat="42.458955000" lon="-2.465161000">
        <ele>407.80</ele>
        <time>2013-07-27T08:24:36Z</time>
      </trkpt>
      <trkpt lat="42.458955000" lon="-2.465162000">
        <ele>407.70</ele>
        <time>2013-07-27T08:24:37Z</time>
      </trkpt>
      <trkpt lat="42.458958000" lon="-2.465159000">
        <ele>407.70</ele>
        <time>2013-07-27T08:24:38Z</time>
      </trkpt>
      <trkpt lat="42.458961000" lon="-2.465159000">
        <ele>407.80</ele>
        <time>2013-07-27T08:24:39Z</time>
      </trkpt>
      <trkpt lat="42.458964000" lon="-2.465158000">
        <ele>407.80</ele>
        <time>2013-07-27T08:24:40Z</time>
      </trkpt>
      <trkpt lat="42.458966000" lon="-2.465161000">
        <ele>407.90</ele>
        <time>2013-07-27T08:24:41Z</time>
      </trkpt>
      <trkpt lat="42.458969000" lon="-2.465166000">
        <ele>407.90</ele>
        <time>2013-07-27T08:24:42Z</time>
      </trkpt>
      <trkpt lat="42.458973000" lon="-2.465166000">
        <ele>407.80</ele>
        <time>2013-07-27T08:24:43Z</time>
      </trkpt>
      <trkpt lat="42.458976000" lon="-2.465165000">
        <ele>407.70</ele>
        <time>2013-07-27T08:24:44Z</time>
      </trkpt>
      <trkpt lat="42.458978000" lon="-2.465169000">
        <ele>407.60</ele>
        <time>2013-07-27T08:24:45Z</time>
      </trkpt>
      <trkpt lat="42.458982000" lon="-2.465169000">
        <ele>407.50</ele>
        <time>2013-07-27T08:24:46Z</time>
      </trkpt>
      <trkpt lat="42.458983000" lon="-2.465170000">
        <ele>407.50</ele>
        <time>2013-07-27T08:24:47Z</time>
      </trkpt>
      <trkpt lat="42.458982000" lon="-2.465172000">
        <ele>407.40</ele>
        <time>2013-07-27T08:24:48Z</time>
      </trkpt>
      <trkpt lat="42.458981000" lon="-2.465176000">
        <ele>407.40</ele>
        <time>2013-07-27T08:24:49Z</time>
      </trkpt>
      <trkpt lat="42.458979000" lon="-2.465178000">
        <ele>407.40</ele>
        <time>2013-07-27T08:24:50Z</time>
      </trkpt>
      <trkpt lat="42.458977000" lon="-2.465173000">
        <ele>407.50</ele>
        <time>2013-07-27T08:24:51Z</time>
      </trkpt>
      <trkpt lat="42.458975000" lon="-2.465169000">
        <ele>407.50</ele>
        <time>2013-07-27T08:24:52Z</time>
      </trkpt>
      <trkpt lat="42.458974000" lon="-2.465166000">
        <ele>407.60</ele>
        <time>2013-07-27T08:24:53Z</time>
      </trkpt>
      <trkpt lat="42.458974000" lon="-2.465167000">
        <ele>407.60</ele>
        <time>2013-07-27T08:24:54Z</time>
      </trkpt>
      <trkpt lat="42.458973000" lon="-2.465167000">
        <ele>407.70</ele>
        <time>2013-07-27T08:24:55Z</time>
      </trkpt>
      <trkpt lat="42.458973000" lon="-2.465166000">
        <ele>407.90</ele>
        <time>2013-07-27T08:24:56Z</time>
      </trkpt>
      <trkpt lat="42.458972000" lon="-2.465160000">
        <ele>407.80</ele>
        <time>2013-07-27T08:24:57Z</time>
      </trkpt>
      <trkpt lat="42.458970000" lon="-2.465155000">
        <ele>407.80</ele>
        <time>2013-07-27T08:24:58Z</time>
      </trkpt>
      <trkpt lat="42.458969000" lon="-2.465151000">
        <ele>407.70</ele>
        <time>2013-07-27T08:24:59Z</time>
      </trkpt>
      <trkpt lat="42.458966000" lon="-2.465148000">
        <ele>407.70</ele>
        <time>2013-07-27T08:25:00Z</time>
      </trkpt>
      <trkpt lat="42.458963000" lon="-2.465146000">
        <ele>407.70</ele>
        <time>2013-07-27T08:25:01Z</time>
      </trkpt>
      <trkpt lat="42.458960000" lon="-2.465142000">
        <ele>407.70</ele>
        <time>2013-07-27T08:25:02Z</time>
      </trkpt>
      <trkpt lat="42.458957000" lon="-2.465141000">
        <ele>407.70</ele>
        <time>2013-07-27T08:25:03Z</time>
      </trkpt>
      <trkpt lat="42.458955000" lon="-2.465138000">
        <ele>407.70</ele>
        <time>2013-07-27T08:25:04Z</time>
      </trkpt>
      <trkpt lat="42.458953000" lon="-2.465134000">
        <ele>407.50</ele>
        <time>2013-07-27T08:25:05Z</time>
      </trkpt>
      <trkpt lat="42.458950000" lon="-2.465131000">
        <ele>407.50</ele>
        <time>2013-07-27T08:25:06Z</time>
      </trkpt>
      <trkpt lat="42.458946000" lon="-2.465128000">
        <ele>407.40</ele>
        <time>2013-07-27T08:25:07Z</time>
      </trkpt>
      <trkpt lat="42.458941000" lon="-2.465126000">
        <ele>407.30</ele>
        <time>2013-07-27T08:25:08Z</time>
      </trkpt>
      <trkpt lat="42.458939000" lon="-2.465126000">
        <ele>407.30</ele>
        <time>2013-07-27T08:25:09Z</time>
      </trkpt>
      <trkpt lat="42.458939000" lon="-2.465125000">
        <ele>407.30</ele>
        <time>2013-07-27T08:25:10Z</time>
      </trkpt>
      <trkpt lat="42.458939000" lon="-2.465127000">
        <ele>407.40</ele>
        <time>2013-07-27T08:25:11Z</time>
      </trkpt>
      <trkpt lat="42.458941000" lon="-2.465130000">
        <ele>407.40</ele>
        <time>2013-07-27T08:25:12Z</time>
      </trkpt>
      <trkpt lat="42.458941000" lon="-2.465131000">
        <ele>407.50</ele>
        <time>2013-07-27T08:25:13Z</time>
      </trkpt>
      <trkpt lat="42.458940000" lon="-2.465133000">
        <ele>407.50</ele>
        <time>2013-07-27T08:25:14Z</time>
      </trkpt>
      <trkpt lat="42.458942000" lon="-2.465134000">
        <ele>407.50</ele>
        <time>2013-07-27T08:25:15Z</time>
      </trkpt>
      <trkpt lat="42.458943000" lon="-2.465138000">
        <ele>407.50</ele>
        <time>2013-07-27T08:25:16Z</time>
      </trkpt>
      <trkpt lat="42.458946000" lon="-2.465140000">
        <ele>407.50</ele>
        <time>2013-07-27T08:25:17Z</time>
      </trkpt>
      <trkpt lat="42.458948000" lon="-2.465145000">
        <ele>407.50</ele>
        <time>2013-07-27T08:25:18Z</time>
      </trkpt>
      <trkpt lat="42.458949000" lon="-2.465149000">
        <ele>407.50</ele>
        <time>2013-07-27T08:25:19Z</time>
      </trkpt>
      <trkpt lat="42.458952000" lon="-2.465151000">
        <ele>407.50</ele>
        <time>2013-07-27T08:25:20Z</time>
      </trkpt>
      <trkpt lat="42.458956000" lon="-2.465154000">
        <ele>407.60</ele>
        <time>2013-07-27T08:25:21Z</time>
      </trkpt>
      <trkpt lat="42.458960000" lon="-2.465158000">
        <ele>407.60</ele>
        <time>2013-07-27T08:25:22Z</time>
      </trkpt>
      <trkpt lat="42.458961000" lon="-2.465159000">
        <ele>407.70</ele>
        <time>2013-07-27T08:25:23Z</time>
      </trkpt>
      <trkpt lat="42.458962000" lon="-2.465165000">
        <ele>407.70</ele>
        <time>2013-07-27T08:25:24Z</time>
      </trkpt>
      <trkpt lat="42.458962000" lon="-2.465169000">
        <ele>407.60</ele>
        <time>2013-07-27T08:25:25Z</time>
      </trkpt>
      <trkpt lat="42.458960000" lon="-2.465173000">
        <ele>407.60</ele>
        <time>2013-07-27T08:25:26Z</time>
      </trkpt>
      <trkpt lat="42.458956000" lon="-2.465178000">
        <ele>407.60</ele>
        <time>2013-07-27T08:25:27Z</time>
      </trkpt>
      <trkpt lat="42.458952000" lon="-2.465180000">
        <ele>407.70</ele>
        <time>2013-07-27T08:25:28Z</time>
      </trkpt>
      <trkpt lat="42.458947000" lon="-2.465181000">
        <ele>407.60</ele>
        <time>2013-07-27T08:25:29Z</time>
      </trkpt>
      <trkpt lat="42.458944000" lon="-2.465182000">
        <ele>407.50</ele>
        <time>2013-07-27T08:25:30Z</time>
      </trkpt>
      <trkpt lat="42.458940000" lon="-2.465182000">
        <ele>407.60</ele>
        <time>2013-07-27T08:25:31Z</time>
      </trkpt>
      <trkpt lat="42.458936000" lon="-2.465184000">
        <ele>407.70</ele>
        <time>2013-07-27T08:25:32Z</time>
      </trkpt>
      <trkpt lat="42.458933000" lon="-2.465186000">
        <ele>407.80</ele>
        <time>2013-07-27T08:25:33Z</time>
      </trkpt>
      <trkpt lat="42.458931000" lon="-2.465186000">
        <ele>407.80</ele>
        <time>2013-07-27T08:25:34Z</time>
      </trkpt>
      <trkpt lat="42.458931000" lon="-2.465187000">
        <ele>407.90</ele>
        <time>2013-07-27T08:25:35Z</time>
      </trkpt>
      <trkpt lat="42.458930000" lon="-2.465187000">
        <ele>407.90</ele>
        <time>2013-07-27T08:25:36Z</time>
      </trkpt>
      <trkpt lat="42.458928000" lon="-2.465187000">
        <ele>408.00</ele>
        <time>2013-07-27T08:25:37Z</time>
      </trkpt>
      <trkpt lat="42.458929000" lon="-2.465187000">
        <ele>408.00</ele>
        <time>2013-07-27T08:25:38Z</time>
      </trkpt>
      <trkpt lat="42.458930000" lon="-2.465187000">
        <ele>408.00</ele>
        <time>2013-07-27T08:25:39Z</time>
      </trkpt>
      <trkpt lat="42.458929000" lon="-2.465187000">
        <ele>407.90</ele>
        <time>2013-07-27T08:25:40Z</time>
      </trkpt>
      <trkpt lat="42.458928000" lon="-2.465186000">
        <ele>407.80</ele>
        <time>2013-07-27T08:25:41Z</time>
      </trkpt>
      <trkpt lat="42.458928000" lon="-2.465184000">
        <ele>407.80</ele>
        <time>2013-07-27T08:25:42Z</time>
      </trkpt>
      <trkpt lat="42.458927000" lon="-2.465180000">
        <ele>407.70</ele>
        <time>2013-07-27T08:25:43Z</time>
      </trkpt>
      <trkpt lat="42.458925000" lon="-2.465177000">
        <ele>407.70</ele>
        <time>2013-07-27T08:25:44Z</time>
      </trkpt>
      <trkpt lat="42.458924000" lon="-2.465175000">
        <ele>407.70</ele>
        <time>2013-07-27T08:25:45Z</time>
      </trkpt>
      <trkpt lat="42.458922000" lon="-2.465173000">
        <ele>407.70</ele>
        <time>2013-07-27T08:25:46Z</time>
      </trkpt>
      <trkpt lat="42.458920000" lon="-2.465172000">
        <ele>407.70</ele>
        <time>2013-07-27T08:25:47Z</time>
      </trkpt>
      <trkpt lat="42.458919000" lon="-2.465173000">
        <ele>407.80</ele>
        <time>2013-07-27T08:25:48Z</time>
      </trkpt>
      <trkpt lat="42.458918000" lon="-2.465173000">
        <ele>407.80</ele>
        <time>2013-07-27T08:25:49Z</time>
      </trkpt>
      <trkpt lat="42.458918000" lon="-2.465172000">
        <ele>407.80</ele>
        <time>2013-07-27T08:25:50Z</time>
      </trkpt>
      <trkpt lat="42.458918000" lon="-2.465173000">
        <ele>407.80</ele>
        <time>2013-07-27T08:25:51Z</time>
      </trkpt>
      <trkpt lat="42.458917000" lon="-2.465175000">
        <ele>407.80</ele>
        <time>2013-07-27T08:25:52Z</time>
      </trkpt>
      <trkpt lat="42.458917000" lon="-2.465176000">
        <ele>407.80</ele>
        <time>2013-07-27T08:25:53Z</time>
      </trkpt>
      <trkpt lat="42.458917000" lon="-2.465177000">
        <ele>407.80</ele>
        <time>2013-07-27T08:25:54Z</time>
      </trkpt>
      <trkpt lat="42.458915000" lon="-2.465180000">
        <ele>407.80</ele>
        <time>2013-07-27T08:25:55Z</time>
      </trkpt>
      <trkpt lat="42.458913000" lon="-2.465182000">
        <ele>407.80</ele>
        <time>2013-07-27T08:25:56Z</time>
      </trkpt>
      <trkpt lat="42.458912000" lon="-2.465182000">
        <ele>407.90</ele>
        <time>2013-07-27T08:25:57Z</time>
      </trkpt>
      <trkpt lat="42.458910000" lon="-2.465182000">
        <ele>408.00</ele>
        <time>2013-07-27T08:25:58Z</time>
      </trkpt>
      <trkpt lat="42.458908000" lon="-2.465182000">
        <ele>407.90</ele>
        <time>2013-07-27T08:25:59Z</time>
      </trkpt>
      <trkpt lat="42.458906000" lon="-2.465182000">
        <ele>407.90</ele>
        <time>2013-07-27T08:26:00Z</time>
      </trkpt>
      <trkpt lat="42.458904000" lon="-2.465181000">
        <ele>407.80</ele>
        <time>2013-07-27T08:26:01Z</time>
      </trkpt>
      <trkpt lat="42.458903000" lon="-2.465181000">
        <ele>407.80</ele>
        <time>2013-07-27T08:26:02Z</time>
      </trkpt>
      <trkpt lat="42.458902000" lon="-2.465178000">
        <ele>407.80</ele>
        <time>2013-07-27T08:26:03Z</time>
      </trkpt>
      <trkpt lat="42.458901000" lon="-2.465178000">
        <ele>407.80</ele>
        <time>2013-07-27T08:26:04Z</time>
      </trkpt>
      <trkpt lat="42.458901000" lon="-2.465180000">
        <ele>407.80</ele>
        <time>2013-07-27T08:26:05Z</time>
      </trkpt>
      <trkpt lat="42.458900000" lon="-2.465182000">
        <ele>407.70</ele>
        <time>2013-07-27T08:26:06Z</time>
      </trkpt>
      <trkpt lat="42.458902000" lon="-2.465183000">
        <ele>407.80</ele>
        <time>2013-07-27T08:26:07Z</time>
      </trkpt>
      <trkpt lat="42.458903000" lon="-2.465185000">
        <ele>407.90</ele>
        <time>2013-07-27T08:26:08Z</time>
      </trkpt>
      <trkpt lat="42.458904000" lon="-2.465185000">
        <ele>407.80</ele>
        <time>2013-07-27T08:26:09Z</time>
      </trkpt>
      <trkpt lat="42.458904000" lon="-2.465186000">
        <ele>407.80</ele>
        <time>2013-07-27T08:26:10Z</time>
      </trkpt>
      <trkpt lat="42.458905000" lon="-2.465188000">
        <ele>407.80</ele>
        <time>2013-07-27T08:26:11Z</time>
      </trkpt>
      <trkpt lat="42.458906000" lon="-2.465190000">
        <ele>407.90</ele>
        <time>2013-07-27T08:26:12Z</time>
      </trkpt>
      <trkpt lat="42.458907000" lon="-2.465192000">
        <ele>407.90</ele>
        <time>2013-07-27T08:26:13Z</time>
      </trkpt>
      <trkpt lat="42.458907000" lon="-2.465195000">
        <ele>407.90</ele>
        <time>2013-07-27T08:26:14Z</time>
      </trkpt>
      <trkpt lat="42.458907000" lon="-2.465196000">
        <ele>407.90</ele>
        <time>2013-07-27T08:26:15Z</time>
      </trkpt>
      <trkpt lat="42.458904000" lon="-2.465196000">
        <ele>408.00</ele>
        <time>2013-07-27T08:26:16Z</time>
      </trkpt>
      <trkpt lat="42.458902000" lon="-2.465194000">
        <ele>407.90</ele>
        <time>2013-07-27T08:26:17Z</time>
      </trkpt>
      <trkpt lat="42.458899000" lon="-2.465190000">
        <ele>407.90</ele>
        <time>2013-07-27T08:26:18Z</time>
      </trkpt>
      <trkpt lat="42.458894000" lon="-2.465184000">
        <ele>407.80</ele>
        <time>2013-07-27T08:26:19Z</time>
      </trkpt>
      <trkpt lat="42.458888000" lon="-2.465178000">
        <ele>407.80</ele>
        <time>2013-07-27T08:26:20Z</time>
      </trkpt>
      <trkpt lat="42.458884000" lon="-2.465175000">
        <ele>407.80</ele>
        <time>2013-07-27T08:26:21Z</time>
      </trkpt>
      <trkpt lat="42.458877000" lon="-2.465168000">
        <ele>407.80</ele>
        <time>2013-07-27T08:26:22Z</time>
      </trkpt>
      <trkpt lat="42.458872000" lon="-2.465161000">
        <ele>407.70</ele>
        <time>2013-07-27T08:26:23Z</time>
      </trkpt>
      <trkpt lat="42.458869000" lon="-2.465155000">
        <ele>407.70</ele>
        <time>2013-07-27T08:26:24Z</time>
      </trkpt>
      <trkpt lat="42.458866000" lon="-2.465152000">
        <ele>407.60</ele>
        <time>2013-07-27T08:26:25Z</time>
      </trkpt>
      <trkpt lat="42.458864000" lon="-2.465147000">
        <ele>407.60</ele>
        <time>2013-07-27T08:26:26Z</time>
      </trkpt>
      <trkpt lat="42.458862000" lon="-2.465145000">
        <ele>407.60</ele>
        <time>2013-07-27T08:26:27Z</time>
      </trkpt>
      <trkpt lat="42.458861000" lon="-2.465141000">
        <ele>407.60</ele>
        <time>2013-07-27T08:26:28Z</time>
      </trkpt>
      <trkpt lat="42.458861000" lon="-2.465138000">
        <ele>407.60</ele>
        <time>2013-07-27T08:26:29Z</time>
      </trkpt>
      <trkpt lat="42.458862000" lon="-2.465134000">
        <ele>407.60</ele>
        <time>2013-07-27T08:26:30Z</time>
      </trkpt>
      <trkpt lat="42.458862000" lon="-2.465133000">
        <ele>407.70</ele>
        <time>2013-07-27T08:26:31Z</time>
      </trkpt>
      <trkpt lat="42.458862000" lon="-2.465130000">
        <ele>407.70</ele>
        <time>2013-07-27T08:26:32Z</time>
      </trkpt>
      <trkpt lat="42.458862000" lon="-2.465128000">
        <ele>407.60</ele>
        <time>2013-07-27T08:26:33Z</time>
      </trkpt>
      <trkpt lat="42.458863000" lon="-2.465127000">
        <ele>407.50</ele>
        <time>2013-07-27T08:26:34Z</time>
      </trkpt>
      <trkpt lat="42.458863000" lon="-2.465126000">
        <ele>407.50</ele>
        <time>2013-07-27T08:26:35Z</time>
      </trkpt>
      <trkpt lat="42.458863000" lon="-2.465124000">
        <ele>407.50</ele>
        <time>2013-07-27T08:26:36Z</time>
      </trkpt>
      <trkpt lat="42.458864000" lon="-2.465123000">
        <ele>407.50</ele>
        <time>2013-07-27T08:26:37Z</time>
      </trkpt>
      <trkpt lat="42.458863000" lon="-2.465123000">
        <ele>407.50</ele>
        <time>2013-07-27T08:26:38Z</time>
      </trkpt>
      <trkpt lat="42.458864000" lon="-2.465121000">
        <ele>407.60</ele>
        <time>2013-07-27T08:26:39Z</time>
      </trkpt>
      <trkpt lat="42.458864000" lon="-2.465121000">
        <ele>407.70</ele>
        <time>2013-07-27T08:26:40Z</time>
      </trkpt>
      <trkpt lat="42.458865000" lon="-2.465118000">
        <ele>407.70</ele>
        <time>2013-07-27T08:26:41Z</time>
      </trkpt>
      <trkpt lat="42.458868000" lon="-2.465116000">
        <ele>407.80</ele>
        <time>2013-07-27T08:26:42Z</time>
      </trkpt>
      <trkpt lat="42.458872000" lon="-2.465117000">
        <ele>407.70</ele>
        <time>2013-07-27T08:26:43Z</time>
      </trkpt>
      <trkpt lat="42.458874000" lon="-2.465117000">
        <ele>407.70</ele>
        <time>2013-07-27T08:26:44Z</time>
      </trkpt>
      <trkpt lat="42.458877000" lon="-2.465119000">
        <ele>407.70</ele>
        <time>2013-07-27T08:26:45Z</time>
      </trkpt>
      <trkpt lat="42.458880000" lon="-2.465120000">
        <ele>407.70</ele>
        <time>2013-07-27T08:26:46Z</time>
      </trkpt>
      <trkpt lat="42.458882000" lon="-2.465121000">
        <ele>407.70</ele>
        <time>2013-07-27T08:26:47Z</time>
      </trkpt>
      <trkpt lat="42.458884000" lon="-2.465121000">
        <ele>407.70</ele>
        <time>2013-07-27T08:26:48Z</time>
      </trkpt>
      <trkpt lat="42.458884000" lon="-2.465120000">
        <ele>407.60</ele>
        <time>2013-07-27T08:26:49Z</time>
      </trkpt>
      <trkpt lat="42.458884000" lon="-2.465119000">
        <ele>407.60</ele>
        <time>2013-07-27T08:26:50Z</time>
      </trkpt>
      <trkpt lat="42.458885000" lon="-2.465117000">
        <ele>407.60</ele>
        <time>2013-07-27T08:26:51Z</time>
      </trkpt>
      <trkpt lat="42.458886000" lon="-2.465116000">
        <ele>407.60</ele>
        <time>2013-07-27T08:26:52Z</time>
      </trkpt>
      <trkpt lat="42.458887000" lon="-2.465117000">
        <ele>407.50</ele>
        <time>2013-07-27T08:26:53Z</time>
      </trkpt>
      <trkpt lat="42.458886000" lon="-2.465117000">
        <ele>407.50</ele>
        <time>2013-07-27T08:26:54Z</time>
      </trkpt>
      <trkpt lat="42.458886000" lon="-2.465119000">
        <ele>407.50</ele>
        <time>2013-07-27T08:26:55Z</time>
      </trkpt>
      <trkpt lat="42.458887000" lon="-2.465119000">
        <ele>407.40</ele>
        <time>2013-07-27T08:26:56Z</time>
      </trkpt>
      <trkpt lat="42.458888000" lon="-2.465122000">
        <ele>407.50</ele>
        <time>2013-07-27T08:26:57Z</time>
      </trkpt>
      <trkpt lat="42.458891000" lon="-2.465122000">
        <ele>407.50</ele>
        <time>2013-07-27T08:26:58Z</time>
      </trkpt>
      <trkpt lat="42.458893000" lon="-2.465124000">
        <ele>407.50</ele>
        <time>2013-07-27T08:26:59Z</time>
      </trkpt>
      <trkpt lat="42.458895000" lon="-2.465126000">
        <ele>407.50</ele>
        <time>2013-07-27T08:27:00Z</time>
      </trkpt>
      <trkpt lat="42.458898000" lon="-2.465126000">
        <ele>407.50</ele>
        <time>2013-07-27T08:27:01Z</time>
      </trkpt>
      <trkpt lat="42.458900000" lon="-2.465128000">
        <ele>407.50</ele>
        <time>2013-07-27T08:27:02Z</time>
      </trkpt>
      <trkpt lat="42.458902000" lon="-2.465130000">
        <ele>407.50</ele>
        <time>2013-07-27T08:27:03Z</time>
      </trkpt>
      <trkpt lat="42.458904000" lon="-2.465130000">
        <ele>407.50</ele>
        <time>2013-07-27T08:27:04Z</time>
      </trkpt>
      <trkpt lat="42.458907000" lon="-2.465131000">
        <ele>407.50</ele>
        <time>2013-07-27T08:27:05Z</time>
      </trkpt>
      <trkpt lat="42.458910000" lon="-2.465132000">
        <ele>407.50</ele>
        <time>2013-07-27T08:27:06Z</time>
      </trkpt>
      <trkpt lat="42.458911000" lon="-2.465135000">
        <ele>407.50</ele>
        <time>2013-07-27T08:27:07Z</time>
      </trkpt>
      <trkpt lat="42.458913000" lon="-2.465139000">
        <ele>407.50</ele>
        <time>2013-07-27T08:27:08Z</time>
      </trkpt>
      <trkpt lat="42.458915000" lon="-2.465141000">
        <ele>407.40</ele>
        <time>2013-07-27T08:27:09Z</time>
      </trkpt>
      <trkpt lat="42.458916000" lon="-2.465143000">
        <ele>407.40</ele>
        <time>2013-07-27T08:27:10Z</time>
      </trkpt>
      <trkpt lat="42.458917000" lon="-2.465144000">
        <ele>407.40</ele>
        <time>2013-07-27T08:27:11Z</time>
      </trkpt>
      <trkpt lat="42.458919000" lon="-2.465145000">
        <ele>407.40</ele>
        <time>2013-07-27T08:27:12Z</time>
      </trkpt>
      <trkpt lat="42.458919000" lon="-2.465145000">
        <ele>407.40</ele>
        <time>2013-07-27T08:27:13Z</time>
      </trkpt>
      <trkpt lat="42.458919000" lon="-2.465145000">
        <ele>407.40</ele>
        <time>2013-07-27T08:27:14Z</time>
      </trkpt>
      <trkpt lat="42.458920000" lon="-2.465146000">
        <ele>407.40</ele>
        <time>2013-07-27T08:27:15Z</time>
      </trkpt>
      <trkpt lat="42.458921000" lon="-2.465148000">
        <ele>407.40</ele>
        <time>2013-07-27T08:27:16Z</time>
      </trkpt>
      <trkpt lat="42.458922000" lon="-2.465148000">
        <ele>407.50</ele>
        <time>2013-07-27T08:27:17Z</time>
      </trkpt>
      <trkpt lat="42.458922000" lon="-2.465147000">
        <ele>407.60</ele>
        <time>2013-07-27T08:27:18Z</time>
      </trkpt>
      <trkpt lat="42.458922000" lon="-2.465144000">
        <ele>407.60</ele>
        <time>2013-07-27T08:27:19Z</time>
      </trkpt>
      <trkpt lat="42.458923000" lon="-2.465143000">
        <ele>407.70</ele>
        <time>2013-07-27T08:27:20Z</time>
      </trkpt>
      <trkpt lat="42.458923000" lon="-2.465144000">
        <ele>407.80</ele>
        <time>2013-07-27T08:27:21Z</time>
      </trkpt>
      <trkpt lat="42.458922000" lon="-2.465145000">
        <ele>407.80</ele>
        <time>2013-07-27T08:27:22Z</time>
      </trkpt>
      <trkpt lat="42.458921000" lon="-2.465146000">
        <ele>407.90</ele>
        <time>2013-07-27T08:27:23Z</time>
      </trkpt>
      <trkpt lat="42.458923000" lon="-2.465146000">
        <ele>407.90</ele>
        <time>2013-07-27T08:27:24Z</time>
      </trkpt>
      <trkpt lat="42.458925000" lon="-2.465148000">
        <ele>407.90</ele>
        <time>2013-07-27T08:27:25Z</time>
      </trkpt>
      <trkpt lat="42.458926000" lon="-2.465148000">
        <ele>407.90</ele>
        <time>2013-07-27T08:27:26Z</time>
      </trkpt>
      <trkpt lat="42.458927000" lon="-2.465152000">
        <ele>407.90</ele>
        <time>2013-07-27T08:27:27Z</time>
      </trkpt>
      <trkpt lat="42.458928000" lon="-2.465155000">
        <ele>408.00</ele>
        <time>2013-07-27T08:27:28Z</time>
      </trkpt>
      <trkpt lat="42.458929000" lon="-2.465157000">
        <ele>407.90</ele>
        <time>2013-07-27T08:27:29Z</time>
      </trkpt>
      <trkpt lat="42.458929000" lon="-2.465160000">
        <ele>407.90</ele>
        <time>2013-07-27T08:27:30Z</time>
      </trkpt>
      <trkpt lat="42.458929000" lon="-2.465161000">
        <ele>407.80</ele>
        <time>2013-07-27T08:27:31Z</time>
      </trkpt>
      <trkpt lat="42.458929000" lon="-2.465164000">
        <ele>407.80</ele>
        <time>2013-07-27T08:27:32Z</time>
      </trkpt>
      <trkpt lat="42.458929000" lon="-2.465165000">
        <ele>407.80</ele>
        <time>2013-07-27T08:27:33Z</time>
      </trkpt>
      <trkpt lat="42.458926000" lon="-2.465165000">
        <ele>407.80</ele>
        <time>2013-07-27T08:27:34Z</time>
      </trkpt>
      <trkpt lat="42.458925000" lon="-2.465166000">
        <ele>407.70</ele>
        <time>2013-07-27T08:27:35Z</time>
      </trkpt>
      <trkpt lat="42.458924000" lon="-2.465165000">
        <ele>407.70</ele>
        <time>2013-07-27T08:27:36Z</time>
      </trkpt>
      <trkpt lat="42.458925000" lon="-2.465165000">
        <ele>407.80</ele>
        <time>2013-07-27T08:27:37Z</time>
      </trkpt>
      <trkpt lat="42.458924000" lon="-2.465162000">
        <ele>407.90</ele>
        <time>2013-07-27T08:27:38Z</time>
      </trkpt>
      <trkpt lat="42.458924000" lon="-2.465162000">
        <ele>407.80</ele>
        <time>2013-07-27T08:27:39Z</time>
      </trkpt>
      <trkpt lat="42.458924000" lon="-2.465159000">
        <ele>407.80</ele>
        <time>2013-07-27T08:27:40Z</time>
      </trkpt>
      <trkpt lat="42.458923000" lon="-2.465157000">
        <ele>407.60</ele>
        <time>2013-07-27T08:27:41Z</time>
      </trkpt>
      <trkpt lat="42.458922000" lon="-2.465157000">
        <ele>407.60</ele>
        <time>2013-07-27T08:27:42Z</time>
      </trkpt>
      <trkpt lat="42.458923000" lon="-2.465154000">
        <ele>407.50</ele>
        <time>2013-07-27T08:27:43Z</time>
      </trkpt>
      <trkpt lat="42.458924000" lon="-2.465153000">
        <ele>407.40</ele>
        <time>2013-07-27T08:27:44Z</time>
      </trkpt>
      <trkpt lat="42.458924000" lon="-2.465152000">
        <ele>407.50</ele>
        <time>2013-07-27T08:27:45Z</time>
      </trkpt>
      <trkpt lat="42.458923000" lon="-2.465147000">
        <ele>407.50</ele>
        <time>2013-07-27T08:27:46Z</time>
      </trkpt>
      <trkpt lat="42.458925000" lon="-2.465146000">
        <ele>407.50</ele>
        <time>2013-07-27T08:27:47Z</time>
      </trkpt>
      <trkpt lat="42.458925000" lon="-2.465143000">
        <ele>407.50</ele>
        <time>2013-07-27T08:27:48Z</time>
      </trkpt>
      <trkpt lat="42.458924000" lon="-2.465142000">
        <ele>407.50</ele>
        <time>2013-07-27T08:27:49Z</time>
      </trkpt>
      <trkpt lat="42.458922000" lon="-2.465141000">
        <ele>407.50</ele>
        <time>2013-07-27T08:27:50Z</time>
      </trkpt>
      <trkpt lat="42.458922000" lon="-2.465139000">
        <ele>407.50</ele>
        <time>2013-07-27T08:27:51Z</time>
      </trkpt>
      <trkpt lat="42.458922000" lon="-2.465139000">
        <ele>407.50</ele>
        <time>2013-07-27T08:27:52Z</time>
      </trkpt>
      <trkpt lat="42.458921000" lon="-2.465137000">
        <ele>407.60</ele>
        <time>2013-07-27T08:27:53Z</time>
      </trkpt>
      <trkpt lat="42.458918000" lon="-2.465134000">
        <ele>407.70</ele>
        <time>2013-07-27T08:27:54Z</time>
      </trkpt>
      <trkpt lat="42.458915000" lon="-2.465130000">
        <ele>407.80</ele>
        <time>2013-07-27T08:27:55Z</time>
      </trkpt>
      <trkpt lat="42.458911000" lon="-2.465129000">
        <ele>407.80</ele>
        <time>2013-07-27T08:27:56Z</time>
      </trkpt>
      <trkpt lat="42.458909000" lon="-2.465128000">
        <ele>407.80</ele>
        <time>2013-07-27T08:27:57Z</time>
      </trkpt>
      <trkpt lat="42.458907000" lon="-2.465127000">
        <ele>407.80</ele>
        <time>2013-07-27T08:27:58Z</time>
      </trkpt>
      <trkpt lat="42.458905000" lon="-2.465124000">
        <ele>407.70</ele>
        <time>2013-07-27T08:27:59Z</time>
      </trkpt>
      <trkpt lat="42.458904000" lon="-2.465120000">
        <ele>407.60</ele>
        <time>2013-07-27T08:28:00Z</time>
      </trkpt>
      <trkpt lat="42.458902000" lon="-2.465120000">
        <ele>407.60</ele>
        <time>2013-07-27T08:28:01Z</time>
      </trkpt>
      <trkpt lat="42.458902000" lon="-2.465120000">
        <ele>407.60</ele>
        <time>2013-07-27T08:28:02Z</time>
      </trkpt>
      <trkpt lat="42.458904000" lon="-2.465119000">
        <ele>407.70</ele>
        <time>2013-07-27T08:28:03Z</time>
      </trkpt>
      <trkpt lat="42.458905000" lon="-2.465119000">
        <ele>407.70</ele>
        <time>2013-07-27T08:28:04Z</time>
      </trkpt>
      <trkpt lat="42.458905000" lon="-2.465120000">
        <ele>407.70</ele>
        <time>2013-07-27T08:28:05Z</time>
      </trkpt>
      <trkpt lat="42.458908000" lon="-2.465121000">
        <ele>407.70</ele>
        <time>2013-07-27T08:28:06Z</time>
      </trkpt>
      <trkpt lat="42.458909000" lon="-2.465122000">
        <ele>407.80</ele>
        <time>2013-07-27T08:28:07Z</time>
      </trkpt>
      <trkpt lat="42.458911000" lon="-2.465123000">
        <ele>407.80</ele>
        <time>2013-07-27T08:28:08Z</time>
      </trkpt>
      <trkpt lat="42.458914000" lon="-2.465125000">
        <ele>407.90</ele>
        <time>2013-07-27T08:28:09Z</time>
      </trkpt>
      <trkpt lat="42.458917000" lon="-2.465126000">
        <ele>407.90</ele>
        <time>2013-07-27T08:28:10Z</time>
      </trkpt>
      <trkpt lat="42.458919000" lon="-2.465126000">
        <ele>407.90</ele>
        <time>2013-07-27T08:28:11Z</time>
      </trkpt>
      <trkpt lat="42.458920000" lon="-2.465126000">
        <ele>407.90</ele>
        <time>2013-07-27T08:28:12Z</time>
      </trkpt>
      <trkpt lat="42.458920000" lon="-2.465125000">
        <ele>407.90</ele>
        <time>2013-07-27T08:28:13Z</time>
      </trkpt>
      <trkpt lat="42.458920000" lon="-2.465123000">
        <ele>407.90</ele>
        <time>2013-07-27T08:28:14Z</time>
      </trkpt>
      <trkpt lat="42.458921000" lon="-2.465121000">
        <ele>407.80</ele>
        <time>2013-07-27T08:28:15Z</time>
      </trkpt>
      <trkpt lat="42.458920000" lon="-2.465119000">
        <ele>407.70</ele>
        <time>2013-07-27T08:28:16Z</time>
      </trkpt>
      <trkpt lat="42.458922000" lon="-2.465118000">
        <ele>407.60</ele>
        <time>2013-07-27T08:28:17Z</time>
      </trkpt>
      <trkpt lat="42.458924000" lon="-2.465118000">
        <ele>407.60</ele>
        <time>2013-07-27T08:28:18Z</time>
      </trkpt>
      <trkpt lat="42.458925000" lon="-2.465119000">
        <ele>407.60</ele>
        <time>2013-07-27T08:28:19Z</time>
      </trkpt>
      <trkpt lat="42.458927000" lon="-2.465119000">
        <ele>407.50</ele>
        <time>2013-07-27T08:28:20Z</time>
      </trkpt>
      <trkpt lat="42.458928000" lon="-2.465118000">
        <ele>407.60</ele>
        <time>2013-07-27T08:28:21Z</time>
      </trkpt>
      <trkpt lat="42.458929000" lon="-2.465115000">
        <ele>407.60</ele>
        <time>2013-07-27T08:28:22Z</time>
      </trkpt>
      <trkpt lat="42.458930000" lon="-2.465115000">
        <ele>407.60</ele>
        <time>2013-07-27T08:28:23Z</time>
      </trkpt>
      <trkpt lat="42.458930000" lon="-2.465115000">
        <ele>407.60</ele>
        <time>2013-07-27T08:28:24Z</time>
      </trkpt>
      <trkpt lat="42.458932000" lon="-2.465116000">
        <ele>407.60</ele>
        <time>2013-07-27T08:28:25Z</time>
      </trkpt>
      <trkpt lat="42.458933000" lon="-2.465116000">
        <ele>407.50</ele>
        <time>2013-07-27T08:28:26Z</time>
      </trkpt>
      <trkpt lat="42.458933000" lon="-2.465117000">
        <ele>407.50</ele>
        <time>2013-07-27T08:28:27Z</time>
      </trkpt>
      <trkpt lat="42.458936000" lon="-2.465117000">
        <ele>407.50</ele>
        <time>2013-07-27T08:28:28Z</time>
      </trkpt>
      <trkpt lat="42.458937000" lon="-2.465117000">
        <ele>407.50</ele>
        <time>2013-07-27T08:28:29Z</time>
      </trkpt>
      <trkpt lat="42.458936000" lon="-2.465118000">
        <ele>407.50</ele>
        <time>2013-07-27T08:28:30Z</time>
      </trkpt>
      <trkpt lat="42.458936000" lon="-2.465122000">
        <ele>407.50</ele>
        <time>2013-07-27T08:28:31Z</time>
      </trkpt>
      <trkpt lat="42.458937000" lon="-2.465124000">
        <ele>407.60</ele>
        <time>2013-07-27T08:28:32Z</time>
      </trkpt>
      <trkpt lat="42.458936000" lon="-2.465125000">
        <ele>407.60</ele>
        <time>2013-07-27T08:28:33Z</time>
      </trkpt>
      <trkpt lat="42.458933000" lon="-2.465125000">
        <ele>407.60</ele>
        <time>2013-07-27T08:28:34Z</time>
      </trkpt>
      <trkpt lat="42.458930000" lon="-2.465126000">
        <ele>407.60</ele>
        <time>2013-07-27T08:28:35Z</time>
      </trkpt>
      <trkpt lat="42.458927000" lon="-2.465123000">
        <ele>407.60</ele>
        <time>2013-07-27T08:28:36Z</time>
      </trkpt>
      <trkpt lat="42.458925000" lon="-2.465120000">
        <ele>407.60</ele>
        <time>2013-07-27T08:28:37Z</time>
      </trkpt>
      <trkpt lat="42.458923000" lon="-2.465118000">
        <ele>407.60</ele>
        <time>2013-07-27T08:28:38Z</time>
      </trkpt>
      <trkpt lat="42.458921000" lon="-2.465118000">
        <ele>407.50</ele>
        <time>2013-07-27T08:28:39Z</time>
      </trkpt>
      <trkpt lat="42.458920000" lon="-2.465118000">
        <ele>407.40</ele>
        <time>2013-07-27T08:28:40Z</time>
      </trkpt>
      <trkpt lat="42.458917000" lon="-2.465118000">
        <ele>407.40</ele>
        <time>2013-07-27T08:28:41Z</time>
      </trkpt>
      <trkpt lat="42.458916000" lon="-2.465117000">
        <ele>407.30</ele>
        <time>2013-07-27T08:28:42Z</time>
      </trkpt>
      <trkpt lat="42.458916000" lon="-2.465115000">
        <ele>407.30</ele>
        <time>2013-07-27T08:28:43Z</time>
      </trkpt>
      <trkpt lat="42.458914000" lon="-2.465114000">
        <ele>407.40</ele>
        <time>2013-07-27T08:28:44Z</time>
      </trkpt>
      <trkpt lat="42.458912000" lon="-2.465112000">
        <ele>407.40</ele>
        <time>2013-07-27T08:28:45Z</time>
      </trkpt>
      <trkpt lat="42.458910000" lon="-2.465108000">
        <ele>407.40</ele>
        <time>2013-07-27T08:28:46Z</time>
      </trkpt>
      <trkpt lat="42.458910000" lon="-2.465103000">
        <ele>407.20</ele>
        <time>2013-07-27T08:28:47Z</time>
      </trkpt>
      <trkpt lat="42.458910000" lon="-2.465101000">
        <ele>407.00</ele>
        <time>2013-07-27T08:28:48Z</time>
      </trkpt>
      <trkpt lat="42.458911000" lon="-2.465100000">
        <ele>406.90</ele>
        <time>2013-07-27T08:28:49Z</time>
      </trkpt>
      <trkpt lat="42.458912000" lon="-2.465100000">
        <ele>406.80</ele>
        <time>2013-07-27T08:28:50Z</time>
      </trkpt>
      <trkpt lat="42.458913000" lon="-2.465098000">
        <ele>406.90</ele>
        <time>2013-07-27T08:28:51Z</time>
      </trkpt>
      <trkpt lat="42.458914000" lon="-2.465095000">
        <ele>407.00</ele>
        <time>2013-07-27T08:28:52Z</time>
      </trkpt>
      <trkpt lat="42.458916000" lon="-2.465092000">
        <ele>407.00</ele>
        <time>2013-07-27T08:28:53Z</time>
      </trkpt>
      <trkpt lat="42.458917000" lon="-2.465090000">
        <ele>407.00</ele>
        <time>2013-07-27T08:28:54Z</time>
      </trkpt>
      <trkpt lat="42.458918000" lon="-2.465088000">
        <ele>407.00</ele>
        <time>2013-07-27T08:28:55Z</time>
      </trkpt>
      <trkpt lat="42.458918000" lon="-2.465086000">
        <ele>407.10</ele>
        <time>2013-07-27T08:28:56Z</time>
      </trkpt>
      <trkpt lat="42.458919000" lon="-2.465085000">
        <ele>407.10</ele>
        <time>2013-07-27T08:28:57Z</time>
      </trkpt>
      <trkpt lat="42.458919000" lon="-2.465086000">
        <ele>407.20</ele>
        <time>2013-07-27T08:28:58Z</time>
      </trkpt>
      <trkpt lat="42.458919000" lon="-2.465084000">
        <ele>407.20</ele>
        <time>2013-07-27T08:28:59Z</time>
      </trkpt>
      <trkpt lat="42.458919000" lon="-2.465082000">
        <ele>407.30</ele>
        <time>2013-07-27T08:29:00Z</time>
      </trkpt>
      <trkpt lat="42.458919000" lon="-2.465080000">
        <ele>407.30</ele>
        <time>2013-07-27T08:29:01Z</time>
      </trkpt>
      <trkpt lat="42.458916000" lon="-2.465081000">
        <ele>407.40</ele>
        <time>2013-07-27T08:29:02Z</time>
      </trkpt>
      <trkpt lat="42.458916000" lon="-2.465080000">
        <ele>407.40</ele>
        <time>2013-07-27T08:29:03Z</time>
      </trkpt>
      <trkpt lat="42.458915000" lon="-2.465078000">
        <ele>407.50</ele>
        <time>2013-07-27T08:29:04Z</time>
      </trkpt>
      <trkpt lat="42.458912000" lon="-2.465077000">
        <ele>407.40</ele>
        <time>2013-07-27T08:29:05Z</time>
      </trkpt>
      <trkpt lat="42.458911000" lon="-2.465079000">
        <ele>407.30</ele>
        <time>2013-07-27T08:29:06Z</time>
      </trkpt>
      <trkpt lat="42.458908000" lon="-2.465081000">
        <ele>407.30</ele>
        <time>2013-07-27T08:29:07Z</time>
      </trkpt>
      <trkpt lat="42.458905000" lon="-2.465082000">
        <ele>407.20</ele>
        <time>2013-07-27T08:29:08Z</time>
      </trkpt>
      <trkpt lat="42.458902000" lon="-2.465084000">
        <ele>407.20</ele>
        <time>2013-07-27T08:29:09Z</time>
      </trkpt>
      <trkpt lat="42.458899000" lon="-2.465085000">
        <ele>407.20</ele>
        <time>2013-07-27T08:29:10Z</time>
      </trkpt>
      <trkpt lat="42.458897000" lon="-2.465088000">
        <ele>407.30</ele>
        <time>2013-07-27T08:29:11Z</time>
      </trkpt>
      <trkpt lat="42.458894000" lon="-2.465090000">
        <ele>407.30</ele>
        <time>2013-07-27T08:29:12Z</time>
      </trkpt>
      <trkpt lat="42.458892000" lon="-2.465090000">
        <ele>407.40</ele>
        <time>2013-07-27T08:29:13Z</time>
      </trkpt>
      <trkpt lat="42.458890000" lon="-2.465090000">
        <ele>407.40</ele>
        <time>2013-07-27T08:29:14Z</time>
      </trkpt>
      <trkpt lat="42.458888000" lon="-2.465091000">
        <ele>407.50</ele>
        <time>2013-07-27T08:29:15Z</time>
      </trkpt>
      <trkpt lat="42.458888000" lon="-2.465090000">
        <ele>407.60</ele>
        <time>2013-07-27T08:29:16Z</time>
      </trkpt>
      <trkpt lat="42.458890000" lon="-2.465088000">
        <ele>407.60</ele>
        <time>2013-07-27T08:29:17Z</time>
      </trkpt>
      <trkpt lat="42.458890000" lon="-2.465090000">
        <ele>407.70</ele>
        <time>2013-07-27T08:29:18Z</time>
      </trkpt>
      <trkpt lat="42.458892000" lon="-2.465091000">
        <ele>407.70</ele>
        <time>2013-07-27T08:29:19Z</time>
      </trkpt>
      <trkpt lat="42.458895000" lon="-2.465091000">
        <ele>407.70</ele>
        <time>2013-07-27T08:29:20Z</time>
      </trkpt>
      <trkpt lat="42.458896000" lon="-2.465092000">
        <ele>407.80</ele>
        <time>2013-07-27T08:29:21Z</time>
      </trkpt>
      <trkpt lat="42.458896000" lon="-2.465092000">
        <ele>407.80</ele>
        <time>2013-07-27T08:29:22Z</time>
      </trkpt>
      <trkpt lat="42.458896000" lon="-2.465094000">
        <ele>407.70</ele>
        <time>2013-07-27T08:29:23Z</time>
      </trkpt>
      <trkpt lat="42.458895000" lon="-2.465094000">
        <ele>407.70</ele>
        <time>2013-07-27T08:29:24Z</time>
      </trkpt>
      <trkpt lat="42.458895000" lon="-2.465096000">
        <ele>407.70</ele>
        <time>2013-07-27T08:29:25Z</time>
      </trkpt>
      <trkpt lat="42.458895000" lon="-2.465100000">
        <ele>407.70</ele>
        <time>2013-07-27T08:29:26Z</time>
      </trkpt>
      <trkpt lat="42.458894000" lon="-2.465104000">
        <ele>407.70</ele>
        <time>2013-07-27T08:29:27Z</time>
      </trkpt>
      <trkpt lat="42.458893000" lon="-2.465106000">
        <ele>407.70</ele>
        <time>2013-07-27T08:29:28Z</time>
      </trkpt>
      <trkpt lat="42.458892000" lon="-2.465107000">
        <ele>407.60</ele>
        <time>2013-07-27T08:29:29Z</time>
      </trkpt>
      <trkpt lat="42.458892000" lon="-2.465110000">
        <ele>407.50</ele>
        <time>2013-07-27T08:29:30Z</time>
      </trkpt>
      <trkpt lat="42.458893000" lon="-2.465112000">
        <ele>407.50</ele>
        <time>2013-07-27T08:29:31Z</time>
      </trkpt>
      <trkpt lat="42.458893000" lon="-2.465115000">
        <ele>407.50</ele>
        <time>2013-07-27T08:29:32Z</time>
      </trkpt>
      <trkpt lat="42.458894000" lon="-2.465116000">
        <ele>407.40</ele>
        <time>2013-07-27T08:29:33Z</time>
      </trkpt>
      <trkpt lat="42.458895000" lon="-2.465118000">
        <ele>407.40</ele>
        <time>2013-07-27T08:29:34Z</time>
      </trkpt>
      <trkpt lat="42.458896000" lon="-2.465122000">
        <ele>407.40</ele>
        <time>2013-07-27T08:29:35Z</time>
      </trkpt>
      <trkpt lat="42.458896000" lon="-2.465126000">
        <ele>407.40</ele>
        <time>2013-07-27T08:29:36Z</time>
      </trkpt>
      <trkpt lat="42.458897000" lon="-2.465128000">
        <ele>407.40</ele>
        <time>2013-07-27T08:29:37Z</time>
      </trkpt>
      <trkpt lat="42.458897000" lon="-2.465129000">
        <ele>407.40</ele>
        <time>2013-07-27T08:29:38Z</time>
      </trkpt>
      <trkpt lat="42.458897000" lon="-2.465128000">
        <ele>407.40</ele>
        <time>2013-07-27T08:29:39Z</time>
      </trkpt>
      <trkpt lat="42.458896000" lon="-2.465128000">
        <ele>407.40</ele>
        <time>2013-07-27T08:29:40Z</time>
      </trkpt>
      <trkpt lat="42.458895000" lon="-2.465130000">
        <ele>407.40</ele>
        <time>2013-07-27T08:29:41Z</time>
      </trkpt>
      <trkpt lat="42.458894000" lon="-2.465129000">
        <ele>407.40</ele>
        <time>2013-07-27T08:29:42Z</time>
      </trkpt>
      <trkpt lat="42.458894000" lon="-2.465128000">
        <ele>407.40</ele>
        <time>2013-07-27T08:29:43Z</time>
      </trkpt>
      <trkpt lat="42.458893000" lon="-2.465126000">
        <ele>407.40</ele>
        <time>2013-07-27T08:29:44Z</time>
      </trkpt>
      <trkpt lat="42.458891000" lon="-2.465125000">
        <ele>407.40</ele>
        <time>2013-07-27T08:29:45Z</time>
      </trkpt>
      <trkpt lat="42.458891000" lon="-2.465125000">
        <ele>407.40</ele>
        <time>2013-07-27T08:29:46Z</time>
      </trkpt>
      <trkpt lat="42.458889000" lon="-2.465125000">
        <ele>407.50</ele>
        <time>2013-07-27T08:29:47Z</time>
      </trkpt>
      <trkpt lat="42.458886000" lon="-2.465127000">
        <ele>407.60</ele>
        <time>2013-07-27T08:29:48Z</time>
      </trkpt>
      <trkpt lat="42.458885000" lon="-2.465129000">
        <ele>407.60</ele>
        <time>2013-07-27T08:29:49Z</time>
      </trkpt>
      <trkpt lat="42.458883000" lon="-2.465131000">
        <ele>407.70</ele>
        <time>2013-07-27T08:29:50Z</time>
      </trkpt>
      <trkpt lat="42.458881000" lon="-2.465135000">
        <ele>407.80</ele>
        <time>2013-07-27T08:29:51Z</time>
      </trkpt>
      <trkpt lat="42.458879000" lon="-2.465137000">
        <ele>407.80</ele>
        <time>2013-07-27T08:29:52Z</time>
      </trkpt>
      <trkpt lat="42.458876000" lon="-2.465138000">
        <ele>407.80</ele>
        <time>2013-07-27T08:29:53Z</time>
      </trkpt>
      <trkpt lat="42.458875000" lon="-2.465138000">
        <ele>407.80</ele>
        <time>2013-07-27T08:29:54Z</time>
      </trkpt>
      <trkpt lat="42.458874000" lon="-2.465137000">
        <ele>407.70</ele>
        <time>2013-07-27T08:29:55Z</time>
      </trkpt>
      <trkpt lat="42.458873000" lon="-2.465136000">
        <ele>407.60</ele>
        <time>2013-07-27T08:29:56Z</time>
      </trkpt>
      <trkpt lat="42.458872000" lon="-2.465136000">
        <ele>407.60</ele>
        <time>2013-07-27T08:29:57Z</time>
      </trkpt>
      <trkpt lat="42.458870000" lon="-2.465136000">
        <ele>407.50</ele>
        <time>2013-07-27T08:29:58Z</time>
      </trkpt>
      <trkpt lat="42.458869000" lon="-2.465136000">
        <ele>407.50</ele>
        <time>2013-07-27T08:29:59Z</time>
      </trkpt>
      <trkpt lat="42.458869000" lon="-2.465136000">
        <ele>407.50</ele>
        <time>2013-07-27T08:30:00Z</time>
      </trkpt>
      <trkpt lat="42.458868000" lon="-2.465137000">
        <ele>407.60</ele>
        <time>2013-07-27T08:30:01Z</time>
      </trkpt>
      <trkpt lat="42.458868000" lon="-2.465137000">
        <ele>407.70</ele>
        <time>2013-07-27T08:30:02Z</time>
      </trkpt>
      <trkpt lat="42.458869000" lon="-2.465136000">
        <ele>407.60</ele>
        <time>2013-07-27T08:30:03Z</time>
      </trkpt>
      <trkpt lat="42.458869000" lon="-2.465134000">
        <ele>407.60</ele>
        <time>2013-07-27T08:30:04Z</time>
      </trkpt>
      <trkpt lat="42.458868000" lon="-2.465134000">
        <ele>407.60</ele>
        <time>2013-07-27T08:30:05Z</time>
      </trkpt>
      <trkpt lat="42.458866000" lon="-2.465136000">
        <ele>407.60</ele>
        <time>2013-07-27T08:30:06Z</time>
      </trkpt>
      <trkpt lat="42.458862000" lon="-2.465137000">
        <ele>407.60</ele>
        <time>2013-07-27T08:30:07Z</time>
      </trkpt>
      <trkpt lat="42.458860000" lon="-2.465137000">
        <ele>407.60</ele>
        <time>2013-07-27T08:30:08Z</time>
      </trkpt>
      <trkpt lat="42.458859000" lon="-2.465138000">
        <ele>407.60</ele>
        <time>2013-07-27T08:30:09Z</time>
      </trkpt>
      <trkpt lat="42.458856000" lon="-2.465140000">
        <ele>407.60</ele>
        <time>2013-07-27T08:30:10Z</time>
      </trkpt>
      <trkpt lat="42.458852000" lon="-2.465141000">
        <ele>407.60</ele>
        <time>2013-07-27T08:30:11Z</time>
      </trkpt>
      <trkpt lat="42.458848000" lon="-2.465141000">
        <ele>407.60</ele>
        <time>2013-07-27T08:30:12Z</time>
      </trkpt>
      <trkpt lat="42.458843000" lon="-2.465141000">
        <ele>407.60</ele>
        <time>2013-07-27T08:30:13Z</time>
      </trkpt>
      <trkpt lat="42.458839000" lon="-2.465141000">
        <ele>407.60</ele>
        <time>2013-07-27T08:30:14Z</time>
      </trkpt>
      <trkpt lat="42.458836000" lon="-2.465141000">
        <ele>407.70</ele>
        <time>2013-07-27T08:30:15Z</time>
      </trkpt>
      <trkpt lat="42.458833000" lon="-2.465140000">
        <ele>407.90</ele>
        <time>2013-07-27T08:30:16Z</time>
      </trkpt>
      <trkpt lat="42.458832000" lon="-2.465138000">
        <ele>408.00</ele>
        <time>2013-07-27T08:30:17Z</time>
      </trkpt>
      <trkpt lat="42.458830000" lon="-2.465138000">
        <ele>408.00</ele>
        <time>2013-07-27T08:30:18Z</time>
      </trkpt>
      <trkpt lat="42.458829000" lon="-2.465139000">
        <ele>408.00</ele>
        <time>2013-07-27T08:30:19Z</time>
      </trkpt>
      <trkpt lat="42.458829000" lon="-2.465138000">
        <ele>408.00</ele>
        <time>2013-07-27T08:30:20Z</time>
      </trkpt>
      <trkpt lat="42.458830000" lon="-2.465139000">
        <ele>407.90</ele>
        <time>2013-07-27T08:30:21Z</time>
      </trkpt>
      <trkpt lat="42.458830000" lon="-2.465140000">
        <ele>407.80</ele>
        <time>2013-07-27T08:30:22Z</time>
      </trkpt>
      <trkpt lat="42.458829000" lon="-2.465138000">
        <ele>407.70</ele>
        <time>2013-07-27T08:30:23Z</time>
      </trkpt>
      <trkpt lat="42.458828000" lon="-2.465137000">
        <ele>407.70</ele>
        <time>2013-07-27T08:30:24Z</time>
      </trkpt>
      <trkpt lat="42.458827000" lon="-2.465135000">
        <ele>407.50</ele>
        <time>2013-07-27T08:30:25Z</time>
      </trkpt>
      <trkpt lat="42.458827000" lon="-2.465132000">
        <ele>407.40</ele>
        <time>2013-07-27T08:30:26Z</time>
      </trkpt>
      <trkpt lat="42.458829000" lon="-2.465129000">
        <ele>407.30</ele>
        <time>2013-07-27T08:30:27Z</time>
      </trkpt>
      <trkpt lat="42.458831000" lon="-2.465128000">
        <ele>407.20</ele>
        <time>2013-07-27T08:30:28Z</time>
      </trkpt>
      <trkpt lat="42.458833000" lon="-2.465128000">
        <ele>407.20</ele>
        <time>2013-07-27T08:30:29Z</time>
      </trkpt>
      <trkpt lat="42.458834000" lon="-2.465128000">
        <ele>407.10</ele>
        <time>2013-07-27T08:30:30Z</time>
      </trkpt>
      <trkpt lat="42.458837000" lon="-2.465129000">
        <ele>407.40</ele>
        <time>2013-07-27T08:30:31Z</time>
      </trkpt>
      <trkpt lat="42.458840000" lon="-2.465130000">
        <ele>407.50</ele>
        <time>2013-07-27T08:30:32Z</time>
      </trkpt>
      <trkpt lat="42.458843000" lon="-2.465133000">
        <ele>407.60</ele>
        <time>2013-07-27T08:30:33Z</time>
      </trkpt>
      <trkpt lat="42.458845000" lon="-2.465134000">
        <ele>407.70</ele>
        <time>2013-07-27T08:30:34Z</time>
      </trkpt>
      <trkpt lat="42.458846000" lon="-2.465133000">
        <ele>407.70</ele>
        <time>2013-07-27T08:30:35Z</time>
      </trkpt>
      <trkpt lat="42.458847000" lon="-2.465132000">
        <ele>407.70</ele>
        <time>2013-07-27T08:30:36Z</time>
      </trkpt>
      <trkpt lat="42.458846000" lon="-2.465130000">
        <ele>407.70</ele>
        <time>2013-07-27T08:30:37Z</time>
      </trkpt>
      <trkpt lat="42.458846000" lon="-2.465127000">
        <ele>407.70</ele>
        <time>2013-07-27T08:30:38Z</time>
      </trkpt>
      <trkpt lat="42.458848000" lon="-2.465123000">
        <ele>407.70</ele>
        <time>2013-07-27T08:30:39Z</time>
      </trkpt>
      <trkpt lat="42.458851000" lon="-2.465119000">
        <ele>407.60</ele>
        <time>2013-07-27T08:30:40Z</time>
      </trkpt>
      <trkpt lat="42.458854000" lon="-2.465116000">
        <ele>407.60</ele>
        <time>2013-07-27T08:30:41Z</time>
      </trkpt>
      <trkpt lat="42.458856000" lon="-2.465116000">
        <ele>407.60</ele>
        <time>2013-07-27T08:30:42Z</time>
      </trkpt>
      <trkpt lat="42.458859000" lon="-2.465119000">
        <ele>407.60</ele>
        <time>2013-07-27T08:30:43Z</time>
      </trkpt>
      <trkpt lat="42.458865000" lon="-2.465116000">
        <ele>407.70</ele>
        <time>2013-07-27T08:30:44Z</time>
      </trkpt>
      <trkpt lat="42.458869000" lon="-2.465115000">
        <ele>407.70</ele>
        <time>2013-07-27T08:30:45Z</time>
      </trkpt>
      <trkpt lat="42.458873000" lon="-2.465114000">
        <ele>407.70</ele>
        <time>2013-07-27T08:30:46Z</time>
      </trkpt>
      <trkpt lat="42.458877000" lon="-2.465115000">
        <ele>407.70</ele>
        <time>2013-07-27T08:30:47Z</time>
      </trkpt>
      <trkpt lat="42.458882000" lon="-2.465113000">
        <ele>407.60</ele>
        <time>2013-07-27T08:30:48Z</time>
      </trkpt>
      <trkpt lat="42.458885000" lon="-2.465111000">
        <ele>407.60</ele>
        <time>2013-07-27T08:30:49Z</time>
      </trkpt>
      <trkpt lat="42.458887000" lon="-2.465106000">
        <ele>407.60</ele>
        <time>2013-07-27T08:30:50Z</time>
      </trkpt>
      <trkpt lat="42.458888000" lon="-2.465101000">
        <ele>407.60</ele>
        <time>2013-07-27T08:30:51Z</time>
      </trkpt>
      <trkpt lat="42.458889000" lon="-2.465097000">
        <ele>407.60</ele>
        <time>2013-07-27T08:30:52Z</time>
      </trkpt>
      <trkpt lat="42.458890000" lon="-2.465090000">
        <ele>407.60</ele>
        <time>2013-07-27T08:30:53Z</time>
      </trkpt>
      <trkpt lat="42.458890000" lon="-2.465084000">
        <ele>407.60</ele>
        <time>2013-07-27T08:30:54Z</time>
      </trkpt>
      <trkpt lat="42.458888000" lon="-2.465079000">
        <ele>407.60</ele>
        <time>2013-07-27T08:30:55Z</time>
      </trkpt>
      <trkpt lat="42.458884000" lon="-2.465077000">
        <ele>407.60</ele>
        <time>2013-07-27T08:30:56Z</time>
      </trkpt>
      <trkpt lat="42.458880000" lon="-2.465072000">
        <ele>407.60</ele>
        <time>2013-07-27T08:30:57Z</time>
      </trkpt>
      <trkpt lat="42.458876000" lon="-2.465067000">
        <ele>407.60</ele>
        <time>2013-07-27T08:30:58Z</time>
      </trkpt>
      <trkpt lat="42.458873000" lon="-2.465058000">
        <ele>407.50</ele>
        <time>2013-07-27T08:30:59Z</time>
      </trkpt>
      <trkpt lat="42.458871000" lon="-2.465053000">
        <ele>407.50</ele>
        <time>2013-07-27T08:31:00Z</time>
      </trkpt>
      <trkpt lat="42.458870000" lon="-2.465049000">
        <ele>407.60</ele>
        <time>2013-07-27T08:31:01Z</time>
      </trkpt>
      <trkpt lat="42.458869000" lon="-2.465047000">
        <ele>407.70</ele>
        <time>2013-07-27T08:31:02Z</time>
      </trkpt>
      <trkpt lat="42.458868000" lon="-2.465046000">
        <ele>407.70</ele>
        <time>2013-07-27T08:31:03Z</time>
      </trkpt>
      <trkpt lat="42.458866000" lon="-2.465044000">
        <ele>407.80</ele>
        <time>2013-07-27T08:31:04Z</time>
      </trkpt>
      <trkpt lat="42.458867000" lon="-2.465046000">
        <ele>407.70</ele>
        <time>2013-07-27T08:31:05Z</time>
      </trkpt>
      <trkpt lat="42.458869000" lon="-2.465046000">
        <ele>407.70</ele>
        <time>2013-07-27T08:31:06Z</time>
      </trkpt>
      <trkpt lat="42.458869000" lon="-2.465045000">
        <ele>407.70</ele>
        <time>2013-07-27T08:31:07Z</time>
      </trkpt>
      <trkpt lat="42.458868000" lon="-2.465045000">
        <ele>407.70</ele>
        <time>2013-07-27T08:31:08Z</time>
      </trkpt>
      <trkpt lat="42.458869000" lon="-2.465045000">
        <ele>407.70</ele>
        <time>2013-07-27T08:31:09Z</time>
      </trkpt>
      <trkpt lat="42.458870000" lon="-2.465045000">
        <ele>407.70</ele>
        <time>2013-07-27T08:31:10Z</time>
      </trkpt>
      <trkpt lat="42.458871000" lon="-2.465043000">
        <ele>407.60</ele>
        <time>2013-07-27T08:31:11Z</time>
      </trkpt>
      <trkpt lat="42.458872000" lon="-2.465042000">
        <ele>407.60</ele>
        <time>2013-07-27T08:31:12Z</time>
      </trkpt>
      <trkpt lat="42.458874000" lon="-2.465044000">
        <ele>407.60</ele>
        <time>2013-07-27T08:31:13Z</time>
      </trkpt>
      <trkpt lat="42.458874000" lon="-2.465047000">
        <ele>407.60</ele>
        <time>2013-07-27T08:31:14Z</time>
      </trkpt>
      <trkpt lat="42.458875000" lon="-2.465047000">
        <ele>407.60</ele>
        <time>2013-07-27T08:31:15Z</time>
      </trkpt>
      <trkpt lat="42.458876000" lon="-2.465051000">
        <ele>407.60</ele>
        <time>2013-07-27T08:31:16Z</time>
      </trkpt>
      <trkpt lat="42.458876000" lon="-2.465054000">
        <ele>407.70</ele>
        <time>2013-07-27T08:31:17Z</time>
      </trkpt>
      <trkpt lat="42.458876000" lon="-2.465056000">
        <ele>407.70</ele>
        <time>2013-07-27T08:31:18Z</time>
      </trkpt>
      <trkpt lat="42.458877000" lon="-2.465058000">
        <ele>407.80</ele>
        <time>2013-07-27T08:31:19Z</time>
      </trkpt>
      <trkpt lat="42.458878000" lon="-2.465061000">
        <ele>407.90</ele>
        <time>2013-07-27T08:31:20Z</time>
      </trkpt>
      <trkpt lat="42.458879000" lon="-2.465064000">
        <ele>408.00</ele>
        <time>2013-07-27T08:31:21Z</time>
      </trkpt>
      <trkpt lat="42.458880000" lon="-2.465066000">
        <ele>408.00</ele>
        <time>2013-07-27T08:31:22Z</time>
      </trkpt>
      <trkpt lat="42.458880000" lon="-2.465068000">
        <ele>408.00</ele>
        <time>2013-07-27T08:31:23Z</time>
      </trkpt>
      <trkpt lat="42.458878000" lon="-2.465068000">
        <ele>408.00</ele>
        <time>2013-07-27T08:31:24Z</time>
      </trkpt>
      <trkpt lat="42.458877000" lon="-2.465065000">
        <ele>408.00</ele>
        <time>2013-07-27T08:31:25Z</time>
      </trkpt>
      <trkpt lat="42.458877000" lon="-2.465063000">
        <ele>407.90</ele>
        <time>2013-07-27T08:31:26Z</time>
      </trkpt>
      <trkpt lat="42.458876000" lon="-2.465060000">
        <ele>407.90</ele>
        <time>2013-07-27T08:31:27Z</time>
      </trkpt>
      <trkpt lat="42.458874000" lon="-2.465056000">
        <ele>407.90</ele>
        <time>2013-07-27T08:31:28Z</time>
      </trkpt>
      <trkpt lat="42.458872000" lon="-2.465053000">
        <ele>407.80</ele>
        <time>2013-07-27T08:31:29Z</time>
      </trkpt>
      <trkpt lat="42.458873000" lon="-2.465051000">
        <ele>407.70</ele>
        <time>2013-07-27T08:31:30Z</time>
      </trkpt>
      <trkpt lat="42.458873000" lon="-2.465049000">
        <ele>407.80</ele>
        <time>2013-07-27T08:31:31Z</time>
      </trkpt>
      <trkpt lat="42.458874000" lon="-2.465048000">
        <ele>407.80</ele>
        <time>2013-07-27T08:31:32Z</time>
      </trkpt>
      <trkpt lat="42.458875000" lon="-2.465046000">
        <ele>407.70</ele>
        <time>2013-07-27T08:31:33Z</time>
      </trkpt>
      <trkpt lat="42.458879000" lon="-2.465046000">
        <ele>407.70</ele>
        <time>2013-07-27T08:31:34Z</time>
      </trkpt>
      <trkpt lat="42.458882000" lon="-2.465046000">
        <ele>407.70</ele>
        <time>2013-07-27T08:31:35Z</time>
      </trkpt>
      <trkpt lat="42.458884000" lon="-2.465048000">
        <ele>407.80</ele>
        <time>2013-07-27T08:31:36Z</time>
      </trkpt>
      <trkpt lat="42.458886000" lon="-2.465049000">
        <ele>407.80</ele>
        <time>2013-07-27T08:31:37Z</time>
      </trkpt>
      <trkpt lat="42.458888000" lon="-2.465051000">
        <ele>407.90</ele>
        <time>2013-07-27T08:31:38Z</time>
      </trkpt>
      <trkpt lat="42.458890000" lon="-2.465052000">
        <ele>407.90</ele>
        <time>2013-07-27T08:31:39Z</time>
      </trkpt>
      <trkpt lat="42.458889000" lon="-2.465056000">
        <ele>407.90</ele>
        <time>2013-07-27T08:31:40Z</time>
      </trkpt>
      <trkpt lat="42.458891000" lon="-2.465059000">
        <ele>407.90</ele>
        <time>2013-07-27T08:31:41Z</time>
      </trkpt>
      <trkpt lat="42.458892000" lon="-2.465059000">
        <ele>407.90</ele>
        <time>2013-07-27T08:31:42Z</time>
      </trkpt>
      <trkpt lat="42.458893000" lon="-2.465059000">
        <ele>408.00</ele>
        <time>2013-07-27T08:31:43Z</time>
      </trkpt>
      <trkpt lat="42.458893000" lon="-2.465058000">
        <ele>408.00</ele>
        <time>2013-07-27T08:31:44Z</time>
      </trkpt>
      <trkpt lat="42.458894000" lon="-2.465057000">
        <ele>408.00</ele>
        <time>2013-07-27T08:31:45Z</time>
      </trkpt>
      <trkpt lat="42.458896000" lon="-2.465060000">
        <ele>408.00</ele>
        <time>2013-07-27T08:31:46Z</time>
      </trkpt>
      <trkpt lat="42.458894000" lon="-2.465061000">
        <ele>408.00</ele>
        <time>2013-07-27T08:31:47Z</time>
      </trkpt>
      <trkpt lat="42.458895000" lon="-2.465060000">
        <ele>407.90</ele>
        <time>2013-07-27T08:31:48Z</time>
      </trkpt>
      <trkpt lat="42.458894000" lon="-2.465058000">
        <ele>407.90</ele>
        <time>2013-07-27T08:31:49Z</time>
      </trkpt>
      <trkpt lat="42.458895000" lon="-2.465057000">
        <ele>407.80</ele>
        <time>2013-07-27T08:31:50Z</time>
      </trkpt>
      <trkpt lat="42.458897000" lon="-2.465060000">
        <ele>407.90</ele>
        <time>2013-07-27T08:31:51Z</time>
      </trkpt>
      <trkpt lat="42.458900000" lon="-2.465060000">
        <ele>407.90</ele>
        <time>2013-07-27T08:31:52Z</time>
      </trkpt>
      <trkpt lat="42.458900000" lon="-2.465059000">
        <ele>407.90</ele>
        <time>2013-07-27T08:31:53Z</time>
      </trkpt>
      <trkpt lat="42.458901000" lon="-2.465059000">
        <ele>407.90</ele>
        <time>2013-07-27T08:31:54Z</time>
      </trkpt>
      <trkpt lat="42.458902000" lon="-2.465061000">
        <ele>408.10</ele>
        <time>2013-07-27T08:31:55Z</time>
      </trkpt>
      <trkpt lat="42.458904000" lon="-2.465060000">
        <ele>408.20</ele>
        <time>2013-07-27T08:31:56Z</time>
      </trkpt>
      <trkpt lat="42.458905000" lon="-2.465059000">
        <ele>408.10</ele>
        <time>2013-07-27T08:31:57Z</time>
      </trkpt>
      <trkpt lat="42.458906000" lon="-2.465057000">
        <ele>408.10</ele>
        <time>2013-07-27T08:31:58Z</time>
      </trkpt>
      <trkpt lat="42.458908000" lon="-2.465054000">
        <ele>408.20</ele>
        <time>2013-07-27T08:31:59Z</time>
      </trkpt>
      <trkpt lat="42.458910000" lon="-2.465053000">
        <ele>408.20</ele>
        <time>2013-07-27T08:32:00Z</time>
      </trkpt>
      <trkpt lat="42.458909000" lon="-2.465053000">
        <ele>408.30</ele>
        <time>2013-07-27T08:32:01Z</time>
      </trkpt>
      <trkpt lat="42.458908000" lon="-2.465055000">
        <ele>408.30</ele>
        <time>2013-07-27T08:32:02Z</time>
      </trkpt>
      <trkpt lat="42.458907000" lon="-2.465055000">
        <ele>408.30</ele>
        <time>2013-07-27T08:32:03Z</time>
      </trkpt>
      <trkpt lat="42.458908000" lon="-2.465055000">
        <ele>408.40</ele>
        <time>2013-07-27T08:32:04Z</time>
      </trkpt>
      <trkpt lat="42.458907000" lon="-2.465056000">
        <ele>408.30</ele>
        <time>2013-07-27T08:32:05Z</time>
      </trkpt>
      <trkpt lat="42.458905000" lon="-2.465059000">
        <ele>408.30</ele>
        <time>2013-07-27T08:32:06Z</time>
      </trkpt>
      <trkpt lat="42.458903000" lon="-2.465060000">
        <ele>408.20</ele>
        <time>2013-07-27T08:32:07Z</time>
      </trkpt>
      <trkpt lat="42.458903000" lon="-2.465061000">
        <ele>408.10</ele>
        <time>2013-07-27T08:32:08Z</time>
      </trkpt>
      <trkpt lat="42.458901000" lon="-2.465061000">
        <ele>408.10</ele>
        <time>2013-07-27T08:32:09Z</time>
      </trkpt>
      <trkpt lat="42.458899000" lon="-2.465061000">
        <ele>408.00</ele>
        <time>2013-07-27T08:32:10Z</time>
      </trkpt>
      <trkpt lat="42.458895000" lon="-2.465061000">
        <ele>408.00</ele>
        <time>2013-07-27T08:32:11Z</time>
      </trkpt>
      <trkpt lat="42.458890000" lon="-2.465057000">
        <ele>408.00</ele>
        <time>2013-07-27T08:32:12Z</time>
      </trkpt>
      <trkpt lat="42.458885000" lon="-2.465056000">
        <ele>407.90</ele>
        <time>2013-07-27T08:32:13Z</time>
      </trkpt>
      <trkpt lat="42.458883000" lon="-2.465056000">
        <ele>407.90</ele>
        <time>2013-07-27T08:32:14Z</time>
      </trkpt>
      <trkpt lat="42.458881000" lon="-2.465058000">
        <ele>407.90</ele>
        <time>2013-07-27T08:32:15Z</time>
      </trkpt>
      <trkpt lat="42.458881000" lon="-2.465059000">
        <ele>407.90</ele>
        <time>2013-07-27T08:32:16Z</time>
      </trkpt>
      <trkpt lat="42.458881000" lon="-2.465058000">
        <ele>407.70</ele>
        <time>2013-07-27T08:32:17Z</time>
      </trkpt>
      <trkpt lat="42.458882000" lon="-2.465059000">
        <ele>407.60</ele>
        <time>2013-07-27T08:32:18Z</time>
      </trkpt>
      <trkpt lat="42.458881000" lon="-2.465061000">
        <ele>407.60</ele>
        <time>2013-07-27T08:32:19Z</time>
      </trkpt>
      <trkpt lat="42.458881000" lon="-2.465063000">
        <ele>407.50</ele>
        <time>2013-07-27T08:32:20Z</time>
      </trkpt>
      <trkpt lat="42.458882000" lon="-2.465061000">
        <ele>407.50</ele>
        <time>2013-07-27T08:32:21Z</time>
      </trkpt>
      <trkpt lat="42.458882000" lon="-2.465061000">
        <ele>407.50</ele>
        <time>2013-07-27T08:32:22Z</time>
      </trkpt>
      <trkpt lat="42.458881000" lon="-2.465059000">
        <ele>407.50</ele>
        <time>2013-07-27T08:32:23Z</time>
      </trkpt>
      <trkpt lat="42.458881000" lon="-2.465058000">
        <ele>407.60</ele>
        <time>2013-07-27T08:32:24Z</time>
      </trkpt>
      <trkpt lat="42.458878000" lon="-2.465057000">
        <ele>407.60</ele>
        <time>2013-07-27T08:32:25Z</time>
      </trkpt>
      <trkpt lat="42.458874000" lon="-2.465053000">
        <ele>407.70</ele>
        <time>2013-07-27T08:32:26Z</time>
      </trkpt>
      <trkpt lat="42.458874000" lon="-2.465050000">
        <ele>407.80</ele>
        <time>2013-07-27T08:32:27Z</time>
      </trkpt>
      <trkpt lat="42.458872000" lon="-2.465049000">
        <ele>407.80</ele>
        <time>2013-07-27T08:32:28Z</time>
      </trkpt>
      <trkpt lat="42.458874000" lon="-2.465047000">
        <ele>407.80</ele>
        <time>2013-07-27T08:32:29Z</time>
      </trkpt>
      <trkpt lat="42.458876000" lon="-2.465047000">
        <ele>407.80</ele>
        <time>2013-07-27T08:32:30Z</time>
      </trkpt>
      <trkpt lat="42.458876000" lon="-2.465047000">
        <ele>407.80</ele>
        <time>2013-07-27T08:32:31Z</time>
      </trkpt>
      <trkpt lat="42.458875000" lon="-2.465049000">
        <ele>407.70</ele>
        <time>2013-07-27T08:32:32Z</time>
      </trkpt>
      <trkpt lat="42.458874000" lon="-2.465048000">
        <ele>407.70</ele>
        <time>2013-07-27T08:32:33Z</time>
      </trkpt>
      <trkpt lat="42.458875000" lon="-2.465050000">
        <ele>407.70</ele>
        <time>2013-07-27T08:32:34Z</time>
      </trkpt>
      <trkpt lat="42.458876000" lon="-2.465051000">
        <ele>407.80</ele>
        <time>2013-07-27T08:32:35Z</time>
      </trkpt>
      <trkpt lat="42.458878000" lon="-2.465051000">
        <ele>407.90</ele>
        <time>2013-07-27T08:32:36Z</time>
      </trkpt>
      <trkpt lat="42.458878000" lon="-2.465052000">
        <ele>408.00</ele>
        <time>2013-07-27T08:32:37Z</time>
      </trkpt>
      <trkpt lat="42.458880000" lon="-2.465049000">
        <ele>408.00</ele>
        <time>2013-07-27T08:32:38Z</time>
      </trkpt>
      <trkpt lat="42.458882000" lon="-2.465048000">
        <ele>407.90</ele>
        <time>2013-07-27T08:32:39Z</time>
      </trkpt>
      <trkpt lat="42.458884000" lon="-2.465046000">
        <ele>407.80</ele>
        <time>2013-07-27T08:32:40Z</time>
      </trkpt>
      <trkpt lat="42.458885000" lon="-2.465044000">
        <ele>407.70</ele>
        <time>2013-07-27T08:32:41Z</time>
      </trkpt>
      <trkpt lat="42.458888000" lon="-2.465046000">
        <ele>407.60</ele>
        <time>2013-07-27T08:32:42Z</time>
      </trkpt>
      <trkpt lat="42.458887000" lon="-2.465044000">
        <ele>407.60</ele>
        <time>2013-07-27T08:32:43Z</time>
      </trkpt>
      <trkpt lat="42.458885000" lon="-2.465040000">
        <ele>407.60</ele>
        <time>2013-07-27T08:32:44Z</time>
      </trkpt>
      <trkpt lat="42.458883000" lon="-2.465039000">
        <ele>407.70</ele>
        <time>2013-07-27T08:32:45Z</time>
      </trkpt>
      <trkpt lat="42.458881000" lon="-2.465037000">
        <ele>407.80</ele>
        <time>2013-07-27T08:32:46Z</time>
      </trkpt>
      <trkpt lat="42.458880000" lon="-2.465037000">
        <ele>407.90</ele>
        <time>2013-07-27T08:32:47Z</time>
      </trkpt>
      <trkpt lat="42.458880000" lon="-2.465039000">
        <ele>407.90</ele>
        <time>2013-07-27T08:32:48Z</time>
      </trkpt>
      <trkpt lat="42.458882000" lon="-2.465044000">
        <ele>407.80</ele>
        <time>2013-07-27T08:32:49Z</time>
      </trkpt>
      <trkpt lat="42.458881000" lon="-2.465049000">
        <ele>407.80</ele>
        <time>2013-07-27T08:32:50Z</time>
      </trkpt>
      <trkpt lat="42.458881000" lon="-2.465057000">
        <ele>407.70</ele>
        <time>2013-07-27T08:32:51Z</time>
      </trkpt>
      <trkpt lat="42.458881000" lon="-2.465063000">
        <ele>407.70</ele>
        <time>2013-07-27T08:32:52Z</time>
      </trkpt>
      <trkpt lat="42.458880000" lon="-2.465069000">
        <ele>407.60</ele>
        <time>2013-07-27T08:32:53Z</time>
      </trkpt>
      <trkpt lat="42.458878000" lon="-2.465074000">
        <ele>407.60</ele>
        <time>2013-07-27T08:32:54Z</time>
      </trkpt>
      <trkpt lat="42.458881000" lon="-2.465078000">
        <ele>407.70</ele>
        <time>2013-07-27T08:32:55Z</time>
      </trkpt>
      <trkpt lat="42.458879000" lon="-2.465080000">
        <ele>407.80</ele>
        <time>2013-07-27T08:32:56Z</time>
      </trkpt>
      <trkpt lat="42.458878000" lon="-2.465084000">
        <ele>407.70</ele>
        <time>2013-07-27T08:32:57Z</time>
      </trkpt>
      <trkpt lat="42.458878000" lon="-2.465087000">
        <ele>407.70</ele>
        <time>2013-07-27T08:32:58Z</time>
      </trkpt>
      <trkpt lat="42.458879000" lon="-2.465090000">
        <ele>407.70</ele>
        <time>2013-07-27T08:32:59Z</time>
      </trkpt>
      <trkpt lat="42.458881000" lon="-2.465093000">
        <ele>407.70</ele>
        <time>2013-07-27T08:33:00Z</time>
      </trkpt>
      <trkpt lat="42.458881000" lon="-2.465096000">
        <ele>407.80</ele>
        <time>2013-07-27T08:33:01Z</time>
      </trkpt>
      <trkpt lat="42.458880000" lon="-2.465101000">
        <ele>407.80</ele>
        <time>2013-07-27T08:33:02Z</time>
      </trkpt>
      <trkpt lat="42.458879000" lon="-2.465103000">
        <ele>407.80</ele>
        <time>2013-07-27T08:33:03Z</time>
      </trkpt>
      <trkpt lat="42.458880000" lon="-2.465105000">
        <ele>407.80</ele>
        <time>2013-07-27T08:33:04Z</time>
      </trkpt>
      <trkpt lat="42.458880000" lon="-2.465106000">
        <ele>407.80</ele>
        <time>2013-07-27T08:33:05Z</time>
      </trkpt>
      <trkpt lat="42.458881000" lon="-2.465107000">
        <ele>407.80</ele>
        <time>2013-07-27T08:33:06Z</time>
      </trkpt>
      <trkpt lat="42.458879000" lon="-2.465109000">
        <ele>407.70</ele>
        <time>2013-07-27T08:33:07Z</time>
      </trkpt>
      <trkpt lat="42.458876000" lon="-2.465109000">
        <ele>407.70</ele>
        <time>2013-07-27T08:33:08Z</time>
      </trkpt>
      <trkpt lat="42.458872000" lon="-2.465110000">
        <ele>407.70</ele>
        <time>2013-07-27T08:33:09Z</time>
      </trkpt>
      <trkpt lat="42.458869000" lon="-2.465108000">
        <ele>407.60</ele>
        <time>2013-07-27T08:33:10Z</time>
      </trkpt>
      <trkpt lat="42.458867000" lon="-2.465106000">
        <ele>407.70</ele>
        <time>2013-07-27T08:33:11Z</time>
      </trkpt>
      <trkpt lat="42.458865000" lon="-2.465107000">
        <ele>407.70</ele>
        <time>2013-07-27T08:33:12Z</time>
      </trkpt>
      <trkpt lat="42.458862000" lon="-2.465111000">
        <ele>407.80</ele>
        <time>2013-07-27T08:33:13Z</time>
      </trkpt>
      <trkpt lat="42.458860000" lon="-2.465113000">
        <ele>407.90</ele>
        <time>2013-07-27T08:33:14Z</time>
      </trkpt>
      <trkpt lat="42.458858000" lon="-2.465116000">
        <ele>407.90</ele>
        <time>2013-07-27T08:33:15Z</time>
      </trkpt>
      <trkpt lat="42.458856000" lon="-2.465118000">
        <ele>407.80</ele>
        <time>2013-07-27T08:33:16Z</time>
      </trkpt>
      <trkpt lat="42.458853000" lon="-2.465122000">
        <ele>407.80</ele>
        <time>2013-07-27T08:33:17Z</time>
      </trkpt>
      <trkpt lat="42.458849000" lon="-2.465125000">
        <ele>407.80</ele>
        <time>2013-07-27T08:33:18Z</time>
      </trkpt>
      <trkpt lat="42.458845000" lon="-2.465125000">
        <ele>407.80</ele>
        <time>2013-07-27T08:33:19Z</time>
      </trkpt>
      <trkpt lat="42.458842000" lon="-2.465125000">
        <ele>407.80</ele>
        <time>2013-07-27T08:33:20Z</time>
      </trkpt>
      <trkpt lat="42.458839000" lon="-2.465125000">
        <ele>407.80</ele>
        <time>2013-07-27T08:33:21Z</time>
      </trkpt>
      <trkpt lat="42.458836000" lon="-2.465123000">
        <ele>407.70</ele>
        <time>2013-07-27T08:33:22Z</time>
      </trkpt>
      <trkpt lat="42.458833000" lon="-2.465119000">
        <ele>407.70</ele>
        <time>2013-07-27T08:33:23Z</time>
      </trkpt>
      <trkpt lat="42.458831000" lon="-2.465115000">
        <ele>407.70</ele>
        <time>2013-07-27T08:33:24Z</time>
      </trkpt>
      <trkpt lat="42.458831000" lon="-2.465112000">
        <ele>407.70</ele>
        <time>2013-07-27T08:33:25Z</time>
      </trkpt>
      <trkpt lat="42.458832000" lon="-2.465111000">
        <ele>407.70</ele>
        <time>2013-07-27T08:33:26Z</time>
      </trkpt>
      <trkpt lat="42.458832000" lon="-2.465111000">
        <ele>407.60</ele>
        <time>2013-07-27T08:33:27Z</time>
      </trkpt>
      <trkpt lat="42.458831000" lon="-2.465110000">
        <ele>407.60</ele>
        <time>2013-07-27T08:33:28Z</time>
      </trkpt>
      <trkpt lat="42.458830000" lon="-2.465108000">
        <ele>407.60</ele>
        <time>2013-07-27T08:33:29Z</time>
      </trkpt>
      <trkpt lat="42.458829000" lon="-2.465103000">
        <ele>407.60</ele>
        <time>2013-07-27T08:33:30Z</time>
      </trkpt>
      <trkpt lat="42.458830000" lon="-2.465099000">
        <ele>407.60</ele>
        <time>2013-07-27T08:33:31Z</time>
      </trkpt>
      <trkpt lat="42.458830000" lon="-2.465096000">
        <ele>407.60</ele>
        <time>2013-07-27T08:33:32Z</time>
      </trkpt>
      <trkpt lat="42.458830000" lon="-2.465096000">
        <ele>407.70</ele>
        <time>2013-07-27T08:33:33Z</time>
      </trkpt>
      <trkpt lat="42.458831000" lon="-2.465095000">
        <ele>407.70</ele>
        <time>2013-07-27T08:33:34Z</time>
      </trkpt>
      <trkpt lat="42.458832000" lon="-2.465095000">
        <ele>407.60</ele>
        <time>2013-07-27T08:33:35Z</time>
      </trkpt>
      <trkpt lat="42.458835000" lon="-2.465095000">
        <ele>407.60</ele>
        <time>2013-07-27T08:33:36Z</time>
      </trkpt>
      <trkpt lat="42.458840000" lon="-2.465093000">
        <ele>407.60</ele>
        <time>2013-07-27T08:33:37Z</time>
      </trkpt>
      <trkpt lat="42.458843000" lon="-2.465093000">
        <ele>407.60</ele>
        <time>2013-07-27T08:33:38Z</time>
      </trkpt>
      <trkpt lat="42.458846000" lon="-2.465096000">
        <ele>407.40</ele>
        <time>2013-07-27T08:33:39Z</time>
      </trkpt>
      <trkpt lat="42.458849000" lon="-2.465100000">
        <ele>407.30</ele>
        <time>2013-07-27T08:33:40Z</time>
      </trkpt>
      <trkpt lat="42.458853000" lon="-2.465103000">
        <ele>407.30</ele>
        <time>2013-07-27T08:33:41Z</time>
      </trkpt>
      <trkpt lat="42.458856000" lon="-2.465106000">
        <ele>407.20</ele>
        <time>2013-07-27T08:33:42Z</time>
      </trkpt>
      <trkpt lat="42.458860000" lon="-2.465108000">
        <ele>407.20</ele>
        <time>2013-07-27T08:33:43Z</time>
      </trkpt>
      <trkpt lat="42.458866000" lon="-2.465113000">
        <ele>407.10</ele>
        <time>2013-07-27T08:33:44Z</time>
      </trkpt>
      <trkpt lat="42.458873000" lon="-2.465117000">
        <ele>407.30</ele>
        <time>2013-07-27T08:33:45Z</time>
      </trkpt>
      <trkpt lat="42.458880000" lon="-2.465120000">
        <ele>407.40</ele>
        <time>2013-07-27T08:33:46Z</time>
      </trkpt>
      <trkpt lat="42.458884000" lon="-2.465124000">
        <ele>407.50</ele>
        <time>2013-07-27T08:33:47Z</time>
      </trkpt>
      <trkpt lat="42.458888000" lon="-2.465127000">
        <ele>407.50</ele>
        <time>2013-07-27T08:33:48Z</time>
      </trkpt>
      <trkpt lat="42.458891000" lon="-2.465129000">
        <ele>407.60</ele>
        <time>2013-07-27T08:33:49Z</time>
      </trkpt>
      <trkpt lat="42.458894000" lon="-2.465132000">
        <ele>407.70</ele>
        <time>2013-07-27T08:33:50Z</time>
      </trkpt>
      <trkpt lat="42.458897000" lon="-2.465132000">
        <ele>407.60</ele>
        <time>2013-07-27T08:33:51Z</time>
      </trkpt>
      <trkpt lat="42.458899000" lon="-2.465132000">
        <ele>407.50</ele>
        <time>2013-07-27T08:33:52Z</time>
      </trkpt>
      <trkpt lat="42.458902000" lon="-2.465132000">
        <ele>407.50</ele>
        <time>2013-07-27T08:33:53Z</time>
      </trkpt>
      <trkpt lat="42.458904000" lon="-2.465134000">
        <ele>407.40</ele>
        <time>2013-07-27T08:33:54Z</time>
      </trkpt>
      <trkpt lat="42.458906000" lon="-2.465135000">
        <ele>407.40</ele>
        <time>2013-07-27T08:33:55Z</time>
      </trkpt>
      <trkpt lat="42.458907000" lon="-2.465137000">
        <ele>407.40</ele>
        <time>2013-07-27T08:33:56Z</time>
      </trkpt>
      <trkpt lat="42.458908000" lon="-2.465138000">
        <ele>407.40</ele>
        <time>2013-07-27T08:33:57Z</time>
      </trkpt>
      <trkpt lat="42.458909000" lon="-2.465138000">
        <ele>407.40</ele>
        <time>2013-07-27T08:33:58Z</time>
      </trkpt>
      <trkpt lat="42.458907000" lon="-2.465138000">
        <ele>407.40</ele>
        <time>2013-07-27T08:33:59Z</time>
      </trkpt>
      <trkpt lat="42.458906000" lon="-2.465137000">
        <ele>407.50</ele>
        <time>2013-07-27T08:34:00Z</time>
      </trkpt>
      <trkpt lat="42.458905000" lon="-2.465137000">
        <ele>407.50</ele>
        <time>2013-07-27T08:34:01Z</time>
      </trkpt>
      <trkpt lat="42.458904000" lon="-2.465135000">
        <ele>407.50</ele>
        <time>2013-07-27T08:34:02Z</time>
      </trkpt>
      <trkpt lat="42.458902000" lon="-2.465133000">
        <ele>407.60</ele>
        <time>2013-07-27T08:34:03Z</time>
      </trkpt>
      <trkpt lat="42.458900000" lon="-2.465133000">
        <ele>407.70</ele>
        <time>2013-07-27T08:34:04Z</time>
      </trkpt>
      <trkpt lat="42.458899000" lon="-2.465135000">
        <ele>407.80</ele>
        <time>2013-07-27T08:34:05Z</time>
      </trkpt>
      <trkpt lat="42.458898000" lon="-2.465136000">
        <ele>407.80</ele>
        <time>2013-07-27T08:34:06Z</time>
      </trkpt>
      <trkpt lat="42.458898000" lon="-2.465139000">
        <ele>407.70</ele>
        <time>2013-07-27T08:34:07Z</time>
      </trkpt>
      <trkpt lat="42.458899000" lon="-2.465138000">
        <ele>407.70</ele>
        <time>2013-07-27T08:34:08Z</time>
      </trkpt>
      <trkpt lat="42.458901000" lon="-2.465139000">
        <ele>407.60</ele>
        <time>2013-07-27T08:34:09Z</time>
      </trkpt>
      <trkpt lat="42.458902000" lon="-2.465142000">
        <ele>407.50</ele>
        <time>2013-07-27T08:34:10Z</time>
      </trkpt>
      <trkpt lat="42.458902000" lon="-2.465142000">
        <ele>407.50</ele>
        <time>2013-07-27T08:34:11Z</time>
      </trkpt>
      <trkpt lat="42.458902000" lon="-2.465144000">
        <ele>407.50</ele>
        <time>2013-07-27T08:34:12Z</time>
      </trkpt>
      <trkpt lat="42.458902000" lon="-2.465146000">
        <ele>407.50</ele>
        <time>2013-07-27T08:34:13Z</time>
      </trkpt>
      <trkpt lat="42.458903000" lon="-2.465146000">
        <ele>407.50</ele>
        <time>2013-07-27T08:34:14Z</time>
      </trkpt>
      <trkpt lat="42.458904000" lon="-2.465146000">
        <ele>407.50</ele>
        <time>2013-07-27T08:34:15Z</time>
      </trkpt>
      <trkpt lat="42.458904000" lon="-2.465148000">
        <ele>407.50</ele>
        <time>2013-07-27T08:34:16Z</time>
      </trkpt>
      <trkpt lat="42.458904000" lon="-2.465149000">
        <ele>407.50</ele>
        <time>2013-07-27T08:34:17Z</time>
      </trkpt>
      <trkpt lat="42.458903000" lon="-2.465149000">
        <ele>407.50</ele>
        <time>2013-07-27T08:34:18Z</time>
      </trkpt>
      <trkpt lat="42.458902000" lon="-2.465148000">
        <ele>407.50</ele>
        <time>2013-07-27T08:34:19Z</time>
      </trkpt>
      <trkpt lat="42.458901000" lon="-2.465148000">
        <ele>407.50</ele>
        <time>2013-07-27T08:34:20Z</time>
      </trkpt>
      <trkpt lat="42.458901000" lon="-2.465149000">
        <ele>407.50</ele>
        <time>2013-07-27T08:34:21Z</time>
      </trkpt>
      <trkpt lat="42.458900000" lon="-2.465148000">
        <ele>407.50</ele>
        <time>2013-07-27T08:34:22Z</time>
      </trkpt>
      <trkpt lat="42.458901000" lon="-2.465148000">
        <ele>407.50</ele>
        <time>2013-07-27T08:34:23Z</time>
      </trkpt>
      <trkpt lat="42.458901000" lon="-2.465147000">
        <ele>407.50</ele>
        <time>2013-07-27T08:34:24Z</time>
      </trkpt>
      <trkpt lat="42.458900000" lon="-2.465146000">
        <ele>407.50</ele>
        <time>2013-07-27T08:34:25Z</time>
      </trkpt>
      <trkpt lat="42.458900000" lon="-2.465145000">
        <ele>407.50</ele>
        <time>2013-07-27T08:34:26Z</time>
      </trkpt>
      <trkpt lat="42.458900000" lon="-2.465143000">
        <ele>407.50</ele>
        <time>2013-07-27T08:34:27Z</time>
      </trkpt>
      <trkpt lat="42.458900000" lon="-2.465140000">
        <ele>407.50</ele>
        <time>2013-07-27T08:34:28Z</time>
      </trkpt>
      <trkpt lat="42.458900000" lon="-2.465138000">
        <ele>407.60</ele>
        <time>2013-07-27T08:34:29Z</time>
      </trkpt>
      <trkpt lat="42.458901000" lon="-2.465136000">
        <ele>407.70</ele>
        <time>2013-07-27T08:34:30Z</time>
      </trkpt>
      <trkpt lat="42.458901000" lon="-2.465136000">
        <ele>407.70</ele>
        <time>2013-07-27T08:34:31Z</time>
      </trkpt>
      <trkpt lat="42.458900000" lon="-2.465135000">
        <ele>407.80</ele>
        <time>2013-07-27T08:34:32Z</time>
      </trkpt>
      <trkpt lat="42.458898000" lon="-2.465135000">
        <ele>407.60</ele>
        <time>2013-07-27T08:34:33Z</time>
      </trkpt>
      <trkpt lat="42.458897000" lon="-2.465134000">
        <ele>407.50</ele>
        <time>2013-07-27T08:34:34Z</time>
      </trkpt>
      <trkpt lat="42.458895000" lon="-2.465132000">
        <ele>407.40</ele>
        <time>2013-07-27T08:34:35Z</time>
      </trkpt>
      <trkpt lat="42.458893000" lon="-2.465131000">
        <ele>407.40</ele>
        <time>2013-07-27T08:34:36Z</time>
      </trkpt>
      <trkpt lat="42.458889000" lon="-2.465132000">
        <ele>407.30</ele>
        <time>2013-07-27T08:34:37Z</time>
      </trkpt>
      <trkpt lat="42.458886000" lon="-2.465131000">
        <ele>407.30</ele>
        <time>2013-07-27T08:34:38Z</time>
      </trkpt>
      <trkpt lat="42.458883000" lon="-2.465129000">
        <ele>407.30</ele>
        <time>2013-07-27T08:34:39Z</time>
      </trkpt>
      <trkpt lat="42.458881000" lon="-2.465129000">
        <ele>407.30</ele>
        <time>2013-07-27T08:34:40Z</time>
      </trkpt>
      <trkpt lat="42.458879000" lon="-2.465129000">
        <ele>407.20</ele>
        <time>2013-07-27T08:34:41Z</time>
      </trkpt>
      <trkpt lat="42.458878000" lon="-2.465130000">
        <ele>407.20</ele>
        <time>2013-07-27T08:34:42Z</time>
      </trkpt>
      <trkpt lat="42.458876000" lon="-2.465130000">
        <ele>407.50</ele>
        <time>2013-07-27T08:34:43Z</time>
      </trkpt>
      <trkpt lat="42.458875000" lon="-2.465131000">
        <ele>407.60</ele>
        <time>2013-07-27T08:34:44Z</time>
      </trkpt>
      <trkpt lat="42.458875000" lon="-2.465134000">
        <ele>407.80</ele>
        <time>2013-07-27T08:34:45Z</time>
      </trkpt>
      <trkpt lat="42.458875000" lon="-2.465136000">
        <ele>407.90</ele>
        <time>2013-07-27T08:34:46Z</time>
      </trkpt>
      <trkpt lat="42.458875000" lon="-2.465137000">
        <ele>407.90</ele>
        <time>2013-07-27T08:34:47Z</time>
      </trkpt>
      <trkpt lat="42.458876000" lon="-2.465136000">
        <ele>408.00</ele>
        <time>2013-07-27T08:34:48Z</time>
      </trkpt>
      <trkpt lat="42.458876000" lon="-2.465136000">
        <ele>407.90</ele>
        <time>2013-07-27T08:34:49Z</time>
      </trkpt>
      <trkpt lat="42.458875000" lon="-2.465137000">
        <ele>407.80</ele>
        <time>2013-07-27T08:34:50Z</time>
      </trkpt>
      <trkpt lat="42.458874000" lon="-2.465136000">
        <ele>407.70</ele>
        <time>2013-07-27T08:34:51Z</time>
      </trkpt>
      <trkpt lat="42.458872000" lon="-2.465134000">
        <ele>407.60</ele>
        <time>2013-07-27T08:34:52Z</time>
      </trkpt>
      <trkpt lat="42.458871000" lon="-2.465133000">
        <ele>407.60</ele>
        <time>2013-07-27T08:34:53Z</time>
      </trkpt>
      <trkpt lat="42.458870000" lon="-2.465132000">
        <ele>407.60</ele>
        <time>2013-07-27T08:34:54Z</time>
      </trkpt>
      <trkpt lat="42.458870000" lon="-2.465126000">
        <ele>407.50</ele>
        <time>2013-07-27T08:34:55Z</time>
      </trkpt>
      <trkpt lat="42.458869000" lon="-2.465124000">
        <ele>407.50</ele>
        <time>2013-07-27T08:34:56Z</time>
      </trkpt>
      <trkpt lat="42.458867000" lon="-2.465123000">
        <ele>407.50</ele>
        <time>2013-07-27T08:34:57Z</time>
      </trkpt>
      <trkpt lat="42.458866000" lon="-2.465119000">
        <ele>407.60</ele>
        <time>2013-07-27T08:34:58Z</time>
      </trkpt>
      <trkpt lat="42.458865000" lon="-2.465117000">
        <ele>407.50</ele>
        <time>2013-07-27T08:34:59Z</time>
      </trkpt>
      <trkpt lat="42.458865000" lon="-2.465112000">
        <ele>407.50</ele>
        <time>2013-07-27T08:35:00Z</time>
      </trkpt>
      <trkpt lat="42.458866000" lon="-2.465109000">
        <ele>407.60</ele>
        <time>2013-07-27T08:35:01Z</time>
      </trkpt>
      <trkpt lat="42.458866000" lon="-2.465103000">
        <ele>407.60</ele>
        <time>2013-07-27T08:35:02Z</time>
      </trkpt>
      <trkpt lat="42.458868000" lon="-2.465101000">
        <ele>407.60</ele>
        <time>2013-07-27T08:35:03Z</time>
      </trkpt>
      <trkpt lat="42.458869000" lon="-2.465097000">
        <ele>407.60</ele>
        <time>2013-07-27T08:35:04Z</time>
      </trkpt>
      <trkpt lat="42.458870000" lon="-2.465095000">
        <ele>407.60</ele>
        <time>2013-07-27T08:35:05Z</time>
      </trkpt>
      <trkpt lat="42.458871000" lon="-2.465094000">
        <ele>407.60</ele>
        <time>2013-07-27T08:35:06Z</time>
      </trkpt>
      <trkpt lat="42.458871000" lon="-2.465092000">
        <ele>407.60</ele>
        <time>2013-07-27T08:35:07Z</time>
      </trkpt>
      <trkpt lat="42.458873000" lon="-2.465089000">
        <ele>407.50</ele>
        <time>2013-07-27T08:35:08Z</time>
      </trkpt>
      <trkpt lat="42.458874000" lon="-2.465089000">
        <ele>407.50</ele>
        <time>2013-07-27T08:35:09Z</time>
      </trkpt>
      <trkpt lat="42.458879000" lon="-2.465090000">
        <ele>407.50</ele>
        <time>2013-07-27T08:35:10Z</time>
      </trkpt>
      <trkpt lat="42.458885000" lon="-2.465096000">
        <ele>407.40</ele>
        <time>2013-07-27T08:35:11Z</time>
      </trkpt>
      <trkpt lat="42.458893000" lon="-2.465100000">
        <ele>407.40</ele>
        <time>2013-07-27T08:35:12Z</time>
      </trkpt>
      <trkpt lat="42.458897000" lon="-2.465103000">
        <ele>407.40</ele>
        <time>2013-07-27T08:35:13Z</time>
      </trkpt>
      <trkpt lat="42.458900000" lon="-2.465102000">
        <ele>407.50</ele>
        <time>2013-07-27T08:35:14Z</time>
      </trkpt>
      <trkpt lat="42.458900000" lon="-2.465098000">
        <ele>407.40</ele>
        <time>2013-07-27T08:35:15Z</time>
      </trkpt>
      <trkpt lat="42.458900000" lon="-2.465093000">
        <ele>407.40</ele>
        <time>2013-07-27T08:35:16Z</time>
      </trkpt>
      <trkpt lat="42.458900000" lon="-2.465095000">
        <ele>407.50</ele>
        <time>2013-07-27T08:35:17Z</time>
      </trkpt>
      <trkpt lat="42.458903000" lon="-2.465093000">
        <ele>407.50</ele>
        <time>2013-07-27T08:35:18Z</time>
      </trkpt>
      <trkpt lat="42.458905000" lon="-2.465096000">
        <ele>407.60</ele>
        <time>2013-07-27T08:35:19Z</time>
      </trkpt>
      <trkpt lat="42.458908000" lon="-2.465097000">
        <ele>407.70</ele>
        <time>2013-07-27T08:35:20Z</time>
      </trkpt>
      <trkpt lat="42.458909000" lon="-2.465098000">
        <ele>407.80</ele>
        <time>2013-07-27T08:35:21Z</time>
      </trkpt>
      <trkpt lat="42.458911000" lon="-2.465100000">
        <ele>407.90</ele>
        <time>2013-07-27T08:35:22Z</time>
      </trkpt>
      <trkpt lat="42.458912000" lon="-2.465102000">
        <ele>407.90</ele>
        <time>2013-07-27T08:35:23Z</time>
      </trkpt>
      <trkpt lat="42.458914000" lon="-2.465105000">
        <ele>408.00</ele>
        <time>2013-07-27T08:35:24Z</time>
      </trkpt>
      <trkpt lat="42.458914000" lon="-2.465108000">
        <ele>407.80</ele>
        <time>2013-07-27T08:35:25Z</time>
      </trkpt>
      <trkpt lat="42.458916000" lon="-2.465111000">
        <ele>407.70</ele>
        <time>2013-07-27T08:35:26Z</time>
      </trkpt>
      <trkpt lat="42.458921000" lon="-2.465110000">
        <ele>407.60</ele>
        <time>2013-07-27T08:35:27Z</time>
      </trkpt>
      <trkpt lat="42.458925000" lon="-2.465108000">
        <ele>407.60</ele>
        <time>2013-07-27T08:35:28Z</time>
      </trkpt>
      <trkpt lat="42.458927000" lon="-2.465107000">
        <ele>407.60</ele>
        <time>2013-07-27T08:35:29Z</time>
      </trkpt>
      <trkpt lat="42.458931000" lon="-2.465104000">
        <ele>407.60</ele>
        <time>2013-07-27T08:35:30Z</time>
      </trkpt>
      <trkpt lat="42.458931000" lon="-2.465103000">
        <ele>407.60</ele>
        <time>2013-07-27T08:35:31Z</time>
      </trkpt>
      <trkpt lat="42.458931000" lon="-2.465103000">
        <ele>407.60</ele>
        <time>2013-07-27T08:35:32Z</time>
      </trkpt>
      <trkpt lat="42.458929000" lon="-2.465100000">
        <ele>407.60</ele>
        <time>2013-07-27T08:35:33Z</time>
      </trkpt>
      <trkpt lat="42.458930000" lon="-2.465101000">
        <ele>407.60</ele>
        <time>2013-07-27T08:35:34Z</time>
      </trkpt>
      <trkpt lat="42.458934000" lon="-2.465102000">
        <ele>407.60</ele>
        <time>2013-07-27T08:35:35Z</time>
      </trkpt>
      <trkpt lat="42.458935000" lon="-2.465109000">
        <ele>407.60</ele>
        <time>2013-07-27T08:35:36Z</time>
      </trkpt>
      <trkpt lat="42.458937000" lon="-2.465117000">
        <ele>407.50</ele>
        <time>2013-07-27T08:35:37Z</time>
      </trkpt>
      <trkpt lat="42.458935000" lon="-2.465118000">
        <ele>407.50</ele>
        <time>2013-07-27T08:35:38Z</time>
      </trkpt>
      <trkpt lat="42.458932000" lon="-2.465117000">
        <ele>407.40</ele>
        <time>2013-07-27T08:35:39Z</time>
      </trkpt>
      <trkpt lat="42.458928000" lon="-2.465115000">
        <ele>407.40</ele>
        <time>2013-07-27T08:35:40Z</time>
      </trkpt>
      <trkpt lat="42.458922000" lon="-2.465115000">
        <ele>407.40</ele>
        <time>2013-07-27T08:35:41Z</time>
      </trkpt>
      <trkpt lat="42.458917000" lon="-2.465114000">
        <ele>407.40</ele>
        <time>2013-07-27T08:35:42Z</time>
      </trkpt>
      <trkpt lat="42.458917000" lon="-2.465118000">
        <ele>407.40</ele>
        <time>2013-07-27T08:35:43Z</time>
      </trkpt>
      <trkpt lat="42.458911000" lon="-2.465125000">
        <ele>407.50</ele>
        <time>2013-07-27T08:35:44Z</time>
      </trkpt>
      <trkpt lat="42.458900000" lon="-2.465132000">
        <ele>407.60</ele>
        <time>2013-07-27T08:35:45Z</time>
      </trkpt>
      <trkpt lat="42.458883000" lon="-2.465132000">
        <ele>407.70</ele>
        <time>2013-07-27T08:35:46Z</time>
      </trkpt>
      <trkpt lat="42.458874000" lon="-2.465133000">
        <ele>407.80</ele>
        <time>2013-07-27T08:35:47Z</time>
      </trkpt>
      <trkpt lat="42.458866000" lon="-2.465145000">
        <ele>407.90</ele>
        <time>2013-07-27T08:35:48Z</time>
      </trkpt>
      <trkpt lat="42.458852000" lon="-2.465155000">
        <ele>407.90</ele>
        <time>2013-07-27T08:35:49Z</time>
      </trkpt>
      <trkpt lat="42.458840000" lon="-2.465168000">
        <ele>408.00</ele>
        <time>2013-07-27T08:35:50Z</time>
      </trkpt>
      <trkpt lat="42.458824000" lon="-2.465187000">
        <ele>407.90</ele>
        <time>2013-07-27T08:35:51Z</time>
      </trkpt>
      <trkpt lat="42.458815000" lon="-2.465192000">
        <ele>407.90</ele>
        <time>2013-07-27T08:35:52Z</time>
      </trkpt>
      <trkpt lat="42.458814000" lon="-2.465198000">
        <ele>407.80</ele>
        <time>2013-07-27T08:35:53Z</time>
      </trkpt>
      <trkpt lat="42.458814000" lon="-2.465197000">
        <ele>407.70</ele>
        <time>2013-07-27T08:35:54Z</time>
      </trkpt>
      <trkpt lat="42.458811000" lon="-2.465190000">
        <ele>407.80</ele>
        <time>2013-07-27T08:35:55Z</time>
      </trkpt>
      <trkpt lat="42.458810000" lon="-2.465190000">
        <ele>407.80</ele>
        <time>2013-07-27T08:35:56Z</time>
      </trkpt>
      <trkpt lat="42.458809000" lon="-2.465190000">
        <ele>407.70</ele>
        <time>2013-07-27T08:35:57Z</time>
      </trkpt>
      <trkpt lat="42.458805000" lon="-2.465191000">
        <ele>407.70</ele>
        <time>2013-07-27T08:35:58Z</time>
      </trkpt>
      <trkpt lat="42.458799000" lon="-2.465192000">
        <ele>407.60</ele>
        <time>2013-07-27T08:35:59Z</time>
      </trkpt>
      <trkpt lat="42.458795000" lon="-2.465193000">
        <ele>407.60</ele>
        <time>2013-07-27T08:36:00Z</time>
      </trkpt>
      <trkpt lat="42.458789000" lon="-2.465195000">
        <ele>407.60</ele>
        <time>2013-07-27T08:36:01Z</time>
      </trkpt>
      <trkpt lat="42.458782000" lon="-2.465200000">
        <ele>407.60</ele>
        <time>2013-07-27T08:36:02Z</time>
      </trkpt>
      <trkpt lat="42.458767000" lon="-2.465208000">
        <ele>407.60</ele>
        <time>2013-07-27T08:36:03Z</time>
      </trkpt>
      <trkpt lat="42.458750000" lon="-2.465212000">
        <ele>407.60</ele>
        <time>2013-07-27T08:36:04Z</time>
      </trkpt>
      <trkpt lat="42.458726000" lon="-2.465220000">
        <ele>407.60</ele>
        <time>2013-07-27T08:36:05Z</time>
      </trkpt>
      <trkpt lat="42.458709000" lon="-2.465231000">
        <ele>407.70</ele>
        <time>2013-07-27T08:36:06Z</time>
      </trkpt>
      <trkpt lat="42.458697000" lon="-2.465246000">
        <ele>407.70</ele>
        <time>2013-07-27T08:36:07Z</time>
      </trkpt>
      <trkpt lat="42.458686000" lon="-2.465259000">
        <ele>407.70</ele>
        <time>2013-07-27T08:36:08Z</time>
      </trkpt>
      <trkpt lat="42.458674000" lon="-2.465259000">
        <ele>407.80</ele>
        <time>2013-07-27T08:36:09Z</time>
      </trkpt>
      <trkpt lat="42.458658000" lon="-2.465256000">
        <ele>407.90</ele>
        <time>2013-07-27T08:36:10Z</time>
      </trkpt>
      <trkpt lat="42.458644000" lon="-2.465249000">
        <ele>407.90</ele>
        <time>2013-07-27T08:36:11Z</time>
      </trkpt>
      <trkpt lat="42.458635000" lon="-2.465234000">
        <ele>408.00</ele>
        <time>2013-07-27T08:36:12Z</time>
      </trkpt>
      <trkpt lat="42.458626000" lon="-2.465210000">
        <ele>408.00</ele>
        <time>2013-07-27T08:36:13Z</time>
      </trkpt>
      <trkpt lat="42.458621000" lon="-2.465183000">
        <ele>408.00</ele>
        <time>2013-07-27T08:36:14Z</time>
      </trkpt>
      <trkpt lat="42.458618000" lon="-2.465154000">
        <ele>408.00</ele>
        <time>2013-07-27T08:36:15Z</time>
      </trkpt>
      <trkpt lat="42.458615000" lon="-2.465121000">
        <ele>408.00</ele>
        <time>2013-07-27T08:36:16Z</time>
      </trkpt>
      <trkpt lat="42.458612000" lon="-2.465087000">
        <ele>407.90</ele>
        <time>2013-07-27T08:36:17Z</time>
      </trkpt>
      <trkpt lat="42.458604000" lon="-2.465052000">
        <ele>407.90</ele>
        <time>2013-07-27T08:36:18Z</time>
      </trkpt>
      <trkpt lat="42.458599000" lon="-2.465015000">
        <ele>407.90</ele>
        <time>2013-07-27T08:36:19Z</time>
      </trkpt>
      <trkpt lat="42.458594000" lon="-2.464977000">
        <ele>407.90</ele>
        <time>2013-07-27T08:36:20Z</time>
      </trkpt>
      <trkpt lat="42.458591000" lon="-2.464933000">
        <ele>407.80</ele>
        <time>2013-07-27T08:36:21Z</time>
      </trkpt>
      <trkpt lat="42.458589000" lon="-2.464887000">
        <ele>407.80</ele>
        <time>2013-07-27T08:36:22Z</time>
      </trkpt>
      <trkpt lat="42.458588000" lon="-2.464844000">
        <ele>407.80</ele>
        <time>2013-07-27T08:36:23Z</time>
      </trkpt>
      <trkpt lat="42.458584000" lon="-2.464795000">
        <ele>407.50</ele>
        <time>2013-07-27T08:36:24Z</time>
      </trkpt>
      <trkpt lat="42.458579000" lon="-2.464746000">
        <ele>407.30</ele>
        <time>2013-07-27T08:36:25Z</time>
      </trkpt>
      <trkpt lat="42.458575000" lon="-2.464694000">
        <ele>407.10</ele>
        <time>2013-07-27T08:36:26Z</time>
      </trkpt>
      <trkpt lat="42.458570000" lon="-2.464642000">
        <ele>407.00</ele>
        <time>2013-07-27T08:36:27Z</time>
      </trkpt>
      <trkpt lat="42.458557000" lon="-2.464597000">
        <ele>406.90</ele>
        <time>2013-07-27T08:36:28Z</time>
      </trkpt>
      <trkpt lat="42.458543000" lon="-2.464553000">
        <ele>406.80</ele>
        <time>2013-07-27T08:36:29Z</time>
      </trkpt>
      <trkpt lat="42.458535000" lon="-2.464506000">
        <ele>406.80</ele>
        <time>2013-07-27T08:36:30Z</time>
      </trkpt>
      <trkpt lat="42.458529000" lon="-2.464466000">
        <ele>406.80</ele>
        <time>2013-07-27T08:36:31Z</time>
      </trkpt>
      <trkpt lat="42.458525000" lon="-2.464431000">
        <ele>406.70</ele>
        <time>2013-07-27T08:36:32Z</time>
      </trkpt>
      <trkpt lat="42.458519000" lon="-2.464394000">
        <ele>406.70</ele>
        <time>2013-07-27T08:36:33Z</time>
      </trkpt>
      <trkpt lat="42.458513000" lon="-2.464355000">
        <ele>406.60</ele>
        <time>2013-07-27T08:36:34Z</time>
      </trkpt>
      <trkpt lat="42.458506000" lon="-2.464320000">
        <ele>406.60</ele>
        <time>2013-07-27T08:36:35Z</time>
      </trkpt>
      <trkpt lat="42.458503000" lon="-2.464285000">
        <ele>406.60</ele>
        <time>2013-07-27T08:36:36Z</time>
      </trkpt>
      <trkpt lat="42.458500000" lon="-2.464251000">
        <ele>406.60</ele>
        <time>2013-07-27T08:36:37Z</time>
      </trkpt>
      <trkpt lat="42.458504000" lon="-2.464214000">
        <ele>406.50</ele>
        <time>2013-07-27T08:36:38Z</time>
      </trkpt>
      <trkpt lat="42.458501000" lon="-2.464175000">
        <ele>406.50</ele>
        <time>2013-07-27T08:36:39Z</time>
      </trkpt>
      <trkpt lat="42.458512000" lon="-2.464133000">
        <ele>406.40</ele>
        <time>2013-07-27T08:36:40Z</time>
      </trkpt>
      <trkpt lat="42.458503000" lon="-2.464091000">
        <ele>406.30</ele>
        <time>2013-07-27T08:36:41Z</time>
      </trkpt>
      <trkpt lat="42.458485000" lon="-2.464048000">
        <ele>406.10</ele>
        <time>2013-07-27T08:36:42Z</time>
      </trkpt>
      <trkpt lat="42.458470000" lon="-2.464007000">
        <ele>405.90</ele>
        <time>2013-07-27T08:36:43Z</time>
      </trkpt>
      <trkpt lat="42.458455000" lon="-2.463968000">
        <ele>405.80</ele>
        <time>2013-07-27T08:36:44Z</time>
      </trkpt>
      <trkpt lat="42.458440000" lon="-2.463930000">
        <ele>405.70</ele>
        <time>2013-07-27T08:36:45Z</time>
      </trkpt>
      <trkpt lat="42.458434000" lon="-2.463891000">
        <ele>405.60</ele>
        <time>2013-07-27T08:36:46Z</time>
      </trkpt>
      <trkpt lat="42.458430000" lon="-2.463852000">
        <ele>405.50</ele>
        <time>2013-07-27T08:36:47Z</time>
      </trkpt>
      <trkpt lat="42.458423000" lon="-2.463813000">
        <ele>405.30</ele>
        <time>2013-07-27T08:36:48Z</time>
      </trkpt>
      <trkpt lat="42.458418000" lon="-2.463773000">
        <ele>405.10</ele>
        <time>2013-07-27T08:36:49Z</time>
      </trkpt>
      <trkpt lat="42.458407000" lon="-2.463733000">
        <ele>405.00</ele>
        <time>2013-07-27T08:36:50Z</time>
      </trkpt>
      <trkpt lat="42.458395000" lon="-2.463692000">
        <ele>404.80</ele>
        <time>2013-07-27T08:36:51Z</time>
      </trkpt>
      <trkpt lat="42.458387000" lon="-2.463653000">
        <ele>404.70</ele>
        <time>2013-07-27T08:36:52Z</time>
      </trkpt>
      <trkpt lat="42.458381000" lon="-2.463609000">
        <ele>404.60</ele>
        <time>2013-07-27T08:36:53Z</time>
      </trkpt>
      <trkpt lat="42.458371000" lon="-2.463567000">
        <ele>404.60</ele>
        <time>2013-07-27T08:36:54Z</time>
      </trkpt>
      <trkpt lat="42.458362000" lon="-2.463523000">
        <ele>404.50</ele>
        <time>2013-07-27T08:36:55Z</time>
      </trkpt>
      <trkpt lat="42.458356000" lon="-2.463476000">
        <ele>404.60</ele>
        <time>2013-07-27T08:36:56Z</time>
      </trkpt>
      <trkpt lat="42.458350000" lon="-2.463434000">
        <ele>404.70</ele>
        <time>2013-07-27T08:36:57Z</time>
      </trkpt>
      <trkpt lat="42.458345000" lon="-2.463398000">
        <ele>404.80</ele>
        <time>2013-07-27T08:36:58Z</time>
      </trkpt>
      <trkpt lat="42.458342000" lon="-2.463359000">
        <ele>404.80</ele>
        <time>2013-07-27T08:36:59Z</time>
      </trkpt>
      <trkpt lat="42.458341000" lon="-2.463318000">
        <ele>404.80</ele>
        <time>2013-07-27T08:37:00Z</time>
      </trkpt>
      <trkpt lat="42.458339000" lon="-2.463274000">
        <ele>404.80</ele>
        <time>2013-07-27T08:37:01Z</time>
      </trkpt>
      <trkpt lat="42.458334000" lon="-2.463231000">
        <ele>404.80</ele>
        <time>2013-07-27T08:37:02Z</time>
      </trkpt>
      <trkpt lat="42.458327000" lon="-2.463186000">
        <ele>404.80</ele>
        <time>2013-07-27T08:37:03Z</time>
      </trkpt>
      <trkpt lat="42.458320000" lon="-2.463136000">
        <ele>404.80</ele>
        <time>2013-07-27T08:37:04Z</time>
      </trkpt>
      <trkpt lat="42.458313000" lon="-2.463086000">
        <ele>404.70</ele>
        <time>2013-07-27T08:37:05Z</time>
      </trkpt>
      <trkpt lat="42.458307000" lon="-2.463033000">
        <ele>404.70</ele>
        <time>2013-07-27T08:37:06Z</time>
      </trkpt>
      <trkpt lat="42.458300000" lon="-2.462989000">
        <ele>404.70</ele>
        <time>2013-07-27T08:37:07Z</time>
      </trkpt>
      <trkpt lat="42.458293000" lon="-2.462941000">
        <ele>404.70</ele>
        <time>2013-07-27T08:37:08Z</time>
      </trkpt>
      <trkpt lat="42.458285000" lon="-2.462892000">
        <ele>404.60</ele>
        <time>2013-07-27T08:37:09Z</time>
      </trkpt>
      <trkpt lat="42.458275000" lon="-2.462841000">
        <ele>404.50</ele>
        <time>2013-07-27T08:37:10Z</time>
      </trkpt>
      <trkpt lat="42.458264000" lon="-2.462791000">
        <ele>404.40</ele>
        <time>2013-07-27T08:37:11Z</time>
      </trkpt>
      <trkpt lat="42.458268000" lon="-2.462742000">
        <ele>404.30</ele>
        <time>2013-07-27T08:37:12Z</time>
      </trkpt>
      <trkpt lat="42.458254000" lon="-2.462692000">
        <ele>404.20</ele>
        <time>2013-07-27T08:37:13Z</time>
      </trkpt>
      <trkpt lat="42.458241000" lon="-2.462643000">
        <ele>404.20</ele>
        <time>2013-07-27T08:37:14Z</time>
      </trkpt>
      <trkpt lat="42.458225000" lon="-2.462596000">
        <ele>404.20</ele>
        <time>2013-07-27T08:37:15Z</time>
      </trkpt>
      <trkpt lat="42.458213000" lon="-2.462549000">
        <ele>404.10</ele>
        <time>2013-07-27T08:37:16Z</time>
      </trkpt>
      <trkpt lat="42.458207000" lon="-2.462505000">
        <ele>404.10</ele>
        <time>2013-07-27T08:37:17Z</time>
      </trkpt>
      <trkpt lat="42.458202000" lon="-2.462462000">
        <ele>404.10</ele>
        <time>2013-07-27T08:37:18Z</time>
      </trkpt>
      <trkpt lat="42.458195000" lon="-2.462418000">
        <ele>404.10</ele>
        <time>2013-07-27T08:37:19Z</time>
      </trkpt>
      <trkpt lat="42.458188000" lon="-2.462372000">
        <ele>404.10</ele>
        <time>2013-07-27T08:37:20Z</time>
      </trkpt>
      <trkpt lat="42.458179000" lon="-2.462324000">
        <ele>404.10</ele>
        <time>2013-07-27T08:37:21Z</time>
      </trkpt>
      <trkpt lat="42.458170000" lon="-2.462277000">
        <ele>403.90</ele>
        <time>2013-07-27T08:37:22Z</time>
      </trkpt>
      <trkpt lat="42.458162000" lon="-2.462227000">
        <ele>403.70</ele>
        <time>2013-07-27T08:37:23Z</time>
      </trkpt>
      <trkpt lat="42.458156000" lon="-2.462181000">
        <ele>403.50</ele>
        <time>2013-07-27T08:37:24Z</time>
      </trkpt>
      <trkpt lat="42.458148000" lon="-2.462134000">
        <ele>403.40</ele>
        <time>2013-07-27T08:37:25Z</time>
      </trkpt>
      <trkpt lat="42.458144000" lon="-2.462083000">
        <ele>403.20</ele>
        <time>2013-07-27T08:37:26Z</time>
      </trkpt>
      <trkpt lat="42.458138000" lon="-2.462029000">
        <ele>403.10</ele>
        <time>2013-07-27T08:37:27Z</time>
      </trkpt>
      <trkpt lat="42.458129000" lon="-2.461975000">
        <ele>402.90</ele>
        <time>2013-07-27T08:37:28Z</time>
      </trkpt>
      <trkpt lat="42.458122000" lon="-2.461920000">
        <ele>402.80</ele>
        <time>2013-07-27T08:37:29Z</time>
      </trkpt>
      <trkpt lat="42.458111000" lon="-2.461867000">
        <ele>402.70</ele>
        <time>2013-07-27T08:37:30Z</time>
      </trkpt>
      <trkpt lat="42.458102000" lon="-2.461815000">
        <ele>402.60</ele>
        <time>2013-07-27T08:37:31Z</time>
      </trkpt>
      <trkpt lat="42.458093000" lon="-2.461767000">
        <ele>402.50</ele>
        <time>2013-07-27T08:37:32Z</time>
      </trkpt>
      <trkpt lat="42.458085000" lon="-2.461718000">
        <ele>402.40</ele>
        <time>2013-07-27T08:37:33Z</time>
      </trkpt>
      <trkpt lat="42.458076000" lon="-2.461668000">
        <ele>402.30</ele>
        <time>2013-07-27T08:37:34Z</time>
      </trkpt>
      <trkpt lat="42.458068000" lon="-2.461616000">
        <ele>402.30</ele>
        <time>2013-07-27T08:37:35Z</time>
      </trkpt>
      <trkpt lat="42.458058000" lon="-2.461568000">
        <ele>402.20</ele>
        <time>2013-07-27T08:37:36Z</time>
      </trkpt>
      <trkpt lat="42.458051000" lon="-2.461518000">
        <ele>402.10</ele>
        <time>2013-07-27T08:37:37Z</time>
      </trkpt>
      <trkpt lat="42.458045000" lon="-2.461468000">
        <ele>402.00</ele>
        <time>2013-07-27T08:37:38Z</time>
      </trkpt>
      <trkpt lat="42.458037000" lon="-2.461424000">
        <ele>402.00</ele>
        <time>2013-07-27T08:37:39Z</time>
      </trkpt>
      <trkpt lat="42.458033000" lon="-2.461384000">
        <ele>401.90</ele>
        <time>2013-07-27T08:37:40Z</time>
      </trkpt>
      <trkpt lat="42.458030000" lon="-2.461339000">
        <ele>401.90</ele>
        <time>2013-07-27T08:37:41Z</time>
      </trkpt>
      <trkpt lat="42.458026000" lon="-2.461292000">
        <ele>401.90</ele>
        <time>2013-07-27T08:37:42Z</time>
      </trkpt>
      <trkpt lat="42.458023000" lon="-2.461250000">
        <ele>401.90</ele>
        <time>2013-07-27T08:37:43Z</time>
      </trkpt>
      <trkpt lat="42.458020000" lon="-2.461215000">
        <ele>401.70</ele>
        <time>2013-07-27T08:37:44Z</time>
      </trkpt>
      <trkpt lat="42.458021000" lon="-2.461186000">
        <ele>401.60</ele>
        <time>2013-07-27T08:37:45Z</time>
      </trkpt>
      <trkpt lat="42.458023000" lon="-2.461166000">
        <ele>401.30</ele>
        <time>2013-07-27T08:37:46Z</time>
      </trkpt>
      <trkpt lat="42.458017000" lon="-2.461138000">
        <ele>401.10</ele>
        <time>2013-07-27T08:37:47Z</time>
      </trkpt>
      <trkpt lat="42.458010000" lon="-2.461106000">
        <ele>401.00</ele>
        <time>2013-07-27T08:37:48Z</time>
      </trkpt>
      <trkpt lat="42.458001000" lon="-2.461075000">
        <ele>400.90</ele>
        <time>2013-07-27T08:37:49Z</time>
      </trkpt>
      <trkpt lat="42.457995000" lon="-2.461045000">
        <ele>400.80</ele>
        <time>2013-07-27T08:37:50Z</time>
      </trkpt>
      <trkpt lat="42.457976000" lon="-2.461027000">
        <ele>400.70</ele>
        <time>2013-07-27T08:37:51Z</time>
      </trkpt>
      <trkpt lat="42.457973000" lon="-2.460986000">
        <ele>400.70</ele>
        <time>2013-07-27T08:37:52Z</time>
      </trkpt>
      <trkpt lat="42.457971000" lon="-2.460941000">
        <ele>400.60</ele>
        <time>2013-07-27T08:37:53Z</time>
      </trkpt>
      <trkpt lat="42.457974000" lon="-2.460901000">
        <ele>400.60</ele>
        <time>2013-07-27T08:37:54Z</time>
      </trkpt>
      <trkpt lat="42.457977000" lon="-2.460860000">
        <ele>400.60</ele>
        <time>2013-07-27T08:37:55Z</time>
      </trkpt>
      <trkpt lat="42.457974000" lon="-2.460820000">
        <ele>400.60</ele>
        <time>2013-07-27T08:37:56Z</time>
      </trkpt>
      <trkpt lat="42.457968000" lon="-2.460782000">
        <ele>400.60</ele>
        <time>2013-07-27T08:37:57Z</time>
      </trkpt>
      <trkpt lat="42.457960000" lon="-2.460746000">
        <ele>400.60</ele>
        <time>2013-07-27T08:37:58Z</time>
      </trkpt>
      <trkpt lat="42.457955000" lon="-2.460710000">
        <ele>400.50</ele>
        <time>2013-07-27T08:37:59Z</time>
      </trkpt>
      <trkpt lat="42.457948000" lon="-2.460674000">
        <ele>400.50</ele>
        <time>2013-07-27T08:38:00Z</time>
      </trkpt>
      <trkpt lat="42.457939000" lon="-2.460635000">
        <ele>400.40</ele>
        <time>2013-07-27T08:38:01Z</time>
      </trkpt>
      <trkpt lat="42.457932000" lon="-2.460595000">
        <ele>400.30</ele>
        <time>2013-07-27T08:38:02Z</time>
      </trkpt>
      <trkpt lat="42.457923000" lon="-2.460555000">
        <ele>400.20</ele>
        <time>2013-07-27T08:38:03Z</time>
      </trkpt>
      <trkpt lat="42.457914000" lon="-2.460514000">
        <ele>400.20</ele>
        <time>2013-07-27T08:38:04Z</time>
      </trkpt>
      <trkpt lat="42.457907000" lon="-2.460470000">
        <ele>400.20</ele>
        <time>2013-07-27T08:38:05Z</time>
      </trkpt>
      <trkpt lat="42.457902000" lon="-2.460431000">
        <ele>400.10</ele>
        <time>2013-07-27T08:38:06Z</time>
      </trkpt>
      <trkpt lat="42.457900000" lon="-2.460391000">
        <ele>400.10</ele>
        <time>2013-07-27T08:38:07Z</time>
      </trkpt>
      <trkpt lat="42.457894000" lon="-2.460347000">
        <ele>400.00</ele>
        <time>2013-07-27T08:38:08Z</time>
      </trkpt>
      <trkpt lat="42.457887000" lon="-2.460301000">
        <ele>399.90</ele>
        <time>2013-07-27T08:38:09Z</time>
      </trkpt>
      <trkpt lat="42.457879000" lon="-2.460256000">
        <ele>399.80</ele>
        <time>2013-07-27T08:38:10Z</time>
      </trkpt>
      <trkpt lat="42.457870000" lon="-2.460211000">
        <ele>399.70</ele>
        <time>2013-07-27T08:38:11Z</time>
      </trkpt>
      <trkpt lat="42.457864000" lon="-2.460164000">
        <ele>399.70</ele>
        <time>2013-07-27T08:38:12Z</time>
      </trkpt>
      <trkpt lat="42.457859000" lon="-2.460116000">
        <ele>399.70</ele>
        <time>2013-07-27T08:38:13Z</time>
      </trkpt>
      <trkpt lat="42.457856000" lon="-2.460066000">
        <ele>399.60</ele>
        <time>2013-07-27T08:38:14Z</time>
      </trkpt>
      <trkpt lat="42.457852000" lon="-2.460018000">
        <ele>399.60</ele>
        <time>2013-07-27T08:38:15Z</time>
      </trkpt>
      <trkpt lat="42.457849000" lon="-2.459966000">
        <ele>399.60</ele>
        <time>2013-07-27T08:38:16Z</time>
      </trkpt>
      <trkpt lat="42.457836000" lon="-2.459917000">
        <ele>399.60</ele>
        <time>2013-07-27T08:38:17Z</time>
      </trkpt>
      <trkpt lat="42.457821000" lon="-2.459869000">
        <ele>399.70</ele>
        <time>2013-07-27T08:38:18Z</time>
      </trkpt>
      <trkpt lat="42.457807000" lon="-2.459823000">
        <ele>399.80</ele>
        <time>2013-07-27T08:38:19Z</time>
      </trkpt>
      <trkpt lat="42.457797000" lon="-2.459779000">
        <ele>399.80</ele>
        <time>2013-07-27T08:38:20Z</time>
      </trkpt>
      <trkpt lat="42.457785000" lon="-2.459733000">
        <ele>399.80</ele>
        <time>2013-07-27T08:38:21Z</time>
      </trkpt>
      <trkpt lat="42.457778000" lon="-2.459685000">
        <ele>399.80</ele>
        <time>2013-07-27T08:38:22Z</time>
      </trkpt>
      <trkpt lat="42.457775000" lon="-2.459638000">
        <ele>399.90</ele>
        <time>2013-07-27T08:38:23Z</time>
      </trkpt>
      <trkpt lat="42.457769000" lon="-2.459591000">
        <ele>399.70</ele>
        <time>2013-07-27T08:38:24Z</time>
      </trkpt>
      <trkpt lat="42.457762000" lon="-2.459542000">
        <ele>399.60</ele>
        <time>2013-07-27T08:38:25Z</time>
      </trkpt>
      <trkpt lat="42.457759000" lon="-2.459494000">
        <ele>399.60</ele>
        <time>2013-07-27T08:38:26Z</time>
      </trkpt>
      <trkpt lat="42.457751000" lon="-2.459449000">
        <ele>399.50</ele>
        <time>2013-07-27T08:38:27Z</time>
      </trkpt>
      <trkpt lat="42.457748000" lon="-2.459405000">
        <ele>399.40</ele>
        <time>2013-07-27T08:38:28Z</time>
      </trkpt>
      <trkpt lat="42.457741000" lon="-2.459362000">
        <ele>399.40</ele>
        <time>2013-07-27T08:38:29Z</time>
      </trkpt>
      <trkpt lat="42.457734000" lon="-2.459313000">
        <ele>399.40</ele>
        <time>2013-07-27T08:38:30Z</time>
      </trkpt>
      <trkpt lat="42.457727000" lon="-2.459266000">
        <ele>399.40</ele>
        <time>2013-07-27T08:38:31Z</time>
      </trkpt>
      <trkpt lat="42.457723000" lon="-2.459223000">
        <ele>399.30</ele>
        <time>2013-07-27T08:38:32Z</time>
      </trkpt>
      <trkpt lat="42.457718000" lon="-2.459181000">
        <ele>399.30</ele>
        <time>2013-07-27T08:38:33Z</time>
      </trkpt>
      <trkpt lat="42.457712000" lon="-2.459134000">
        <ele>399.30</ele>
        <time>2013-07-27T08:38:34Z</time>
      </trkpt>
      <trkpt lat="42.457704000" lon="-2.459087000">
        <ele>399.30</ele>
        <time>2013-07-27T08:38:35Z</time>
      </trkpt>
      <trkpt lat="42.457693000" lon="-2.459042000">
        <ele>399.40</ele>
        <time>2013-07-27T08:38:36Z</time>
      </trkpt>
      <trkpt lat="42.457685000" lon="-2.458999000">
        <ele>399.40</ele>
        <time>2013-07-27T08:38:37Z</time>
      </trkpt>
      <trkpt lat="42.457679000" lon="-2.458953000">
        <ele>399.30</ele>
        <time>2013-07-27T08:38:38Z</time>
      </trkpt>
      <trkpt lat="42.457675000" lon="-2.458900000">
        <ele>399.10</ele>
        <time>2013-07-27T08:38:39Z</time>
      </trkpt>
      <trkpt lat="42.457670000" lon="-2.458852000">
        <ele>399.10</ele>
        <time>2013-07-27T08:38:40Z</time>
      </trkpt>
      <trkpt lat="42.457665000" lon="-2.458805000">
        <ele>399.10</ele>
        <time>2013-07-27T08:38:41Z</time>
      </trkpt>
      <trkpt lat="42.457658000" lon="-2.458755000">
        <ele>398.90</ele>
        <time>2013-07-27T08:38:42Z</time>
      </trkpt>
      <trkpt lat="42.457649000" lon="-2.458706000">
        <ele>398.80</ele>
        <time>2013-07-27T08:38:43Z</time>
      </trkpt>
      <trkpt lat="42.457641000" lon="-2.458656000">
        <ele>398.90</ele>
        <time>2013-07-27T08:38:44Z</time>
      </trkpt>
      <trkpt lat="42.457631000" lon="-2.458610000">
        <ele>398.90</ele>
        <time>2013-07-27T08:38:45Z</time>
      </trkpt>
      <trkpt lat="42.457621000" lon="-2.458571000">
        <ele>399.00</ele>
        <time>2013-07-27T08:38:46Z</time>
      </trkpt>
      <trkpt lat="42.457614000" lon="-2.458527000">
        <ele>399.10</ele>
        <time>2013-07-27T08:38:47Z</time>
      </trkpt>
      <trkpt lat="42.457607000" lon="-2.458481000">
        <ele>399.10</ele>
        <time>2013-07-27T08:38:48Z</time>
      </trkpt>
      <trkpt lat="42.457598000" lon="-2.458435000">
        <ele>399.20</ele>
        <time>2013-07-27T08:38:49Z</time>
      </trkpt>
      <trkpt lat="42.457589000" lon="-2.458390000">
        <ele>399.20</ele>
        <time>2013-07-27T08:38:50Z</time>
      </trkpt>
      <trkpt lat="42.457578000" lon="-2.458343000">
        <ele>399.30</ele>
        <time>2013-07-27T08:38:51Z</time>
      </trkpt>
      <trkpt lat="42.457567000" lon="-2.458298000">
        <ele>399.30</ele>
        <time>2013-07-27T08:38:52Z</time>
      </trkpt>
      <trkpt lat="42.457558000" lon="-2.458253000">
        <ele>399.40</ele>
        <time>2013-07-27T08:38:53Z</time>
      </trkpt>
      <trkpt lat="42.457552000" lon="-2.458209000">
        <ele>399.50</ele>
        <time>2013-07-27T08:38:54Z</time>
      </trkpt>
      <trkpt lat="42.457544000" lon="-2.458163000">
        <ele>399.50</ele>
        <time>2013-07-27T08:38:55Z</time>
      </trkpt>
      <trkpt lat="42.457536000" lon="-2.458121000">
        <ele>399.40</ele>
        <time>2013-07-27T08:38:56Z</time>
      </trkpt>
      <trkpt lat="42.457525000" lon="-2.458078000">
        <ele>399.40</ele>
        <time>2013-07-27T08:38:57Z</time>
      </trkpt>
      <trkpt lat="42.457511000" lon="-2.458037000">
        <ele>399.50</ele>
        <time>2013-07-27T08:38:58Z</time>
      </trkpt>
      <trkpt lat="42.457493000" lon="-2.458000000">
        <ele>399.50</ele>
        <time>2013-07-27T08:38:59Z</time>
      </trkpt>
      <trkpt lat="42.457486000" lon="-2.457964000">
        <ele>399.40</ele>
        <time>2013-07-27T08:39:00Z</time>
      </trkpt>
      <trkpt lat="42.457482000" lon="-2.457924000">
        <ele>399.30</ele>
        <time>2013-07-27T08:39:01Z</time>
      </trkpt>
      <trkpt lat="42.457480000" lon="-2.457883000">
        <ele>399.40</ele>
        <time>2013-07-27T08:39:02Z</time>
      </trkpt>
      <trkpt lat="42.457475000" lon="-2.457845000">
        <ele>399.50</ele>
        <time>2013-07-27T08:39:03Z</time>
      </trkpt>
      <trkpt lat="42.457471000" lon="-2.457806000">
        <ele>399.50</ele>
        <time>2013-07-27T08:39:04Z</time>
      </trkpt>
      <trkpt lat="42.457466000" lon="-2.457767000">
        <ele>399.50</ele>
        <time>2013-07-27T08:39:05Z</time>
      </trkpt>
      <trkpt lat="42.457463000" lon="-2.457728000">
        <ele>399.50</ele>
        <time>2013-07-27T08:39:06Z</time>
      </trkpt>
      <trkpt lat="42.457460000" lon="-2.457689000">
        <ele>399.50</ele>
        <time>2013-07-27T08:39:07Z</time>
      </trkpt>
      <trkpt lat="42.457456000" lon="-2.457654000">
        <ele>399.30</ele>
        <time>2013-07-27T08:39:08Z</time>
      </trkpt>
      <trkpt lat="42.457452000" lon="-2.457620000">
        <ele>399.20</ele>
        <time>2013-07-27T08:39:09Z</time>
      </trkpt>
      <trkpt lat="42.457448000" lon="-2.457590000">
        <ele>399.10</ele>
        <time>2013-07-27T08:39:10Z</time>
      </trkpt>
      <trkpt lat="42.457451000" lon="-2.457573000">
        <ele>399.00</ele>
        <time>2013-07-27T08:39:11Z</time>
      </trkpt>
      <trkpt lat="42.457456000" lon="-2.457566000">
        <ele>399.00</ele>
        <time>2013-07-27T08:39:12Z</time>
      </trkpt>
      <trkpt lat="42.457461000" lon="-2.457557000">
        <ele>399.00</ele>
        <time>2013-07-27T08:39:13Z</time>
      </trkpt>
      <trkpt lat="42.457468000" lon="-2.457550000">
        <ele>399.00</ele>
        <time>2013-07-27T08:39:14Z</time>
      </trkpt>
      <trkpt lat="42.457470000" lon="-2.457544000">
        <ele>399.10</ele>
        <time>2013-07-27T08:39:15Z</time>
      </trkpt>
      <trkpt lat="42.457473000" lon="-2.457543000">
        <ele>399.20</ele>
        <time>2013-07-27T08:39:16Z</time>
      </trkpt>
      <trkpt lat="42.457475000" lon="-2.457543000">
        <ele>399.20</ele>
        <time>2013-07-27T08:39:17Z</time>
      </trkpt>
      <trkpt lat="42.457477000" lon="-2.457544000">
        <ele>399.30</ele>
        <time>2013-07-27T08:39:18Z</time>
      </trkpt>
      <trkpt lat="42.457480000" lon="-2.457544000">
        <ele>399.30</ele>
        <time>2013-07-27T08:39:19Z</time>
      </trkpt>
      <trkpt lat="42.457478000" lon="-2.457541000">
        <ele>399.30</ele>
        <time>2013-07-27T08:39:20Z</time>
      </trkpt>
      <trkpt lat="42.457480000" lon="-2.457534000">
        <ele>399.30</ele>
        <time>2013-07-27T08:39:21Z</time>
      </trkpt>
      <trkpt lat="42.457487000" lon="-2.457530000">
        <ele>399.30</ele>
        <time>2013-07-27T08:39:22Z</time>
      </trkpt>
      <trkpt lat="42.457491000" lon="-2.457526000">
        <ele>399.20</ele>
        <time>2013-07-27T08:39:23Z</time>
      </trkpt>
      <trkpt lat="42.457490000" lon="-2.457524000">
        <ele>399.30</ele>
        <time>2013-07-27T08:39:24Z</time>
      </trkpt>
      <trkpt lat="42.457488000" lon="-2.457523000">
        <ele>399.30</ele>
        <time>2013-07-27T08:39:25Z</time>
      </trkpt>
      <trkpt lat="42.457487000" lon="-2.457520000">
        <ele>399.40</ele>
        <time>2013-07-27T08:39:26Z</time>
      </trkpt>
      <trkpt lat="42.457492000" lon="-2.457513000">
        <ele>399.50</ele>
        <time>2013-07-27T08:39:27Z</time>
      </trkpt>
      <trkpt lat="42.457497000" lon="-2.457511000">
        <ele>399.50</ele>
        <time>2013-07-27T08:39:28Z</time>
      </trkpt>
      <trkpt lat="42.457503000" lon="-2.457506000">
        <ele>399.50</ele>
        <time>2013-07-27T08:39:29Z</time>
      </trkpt>
      <trkpt lat="42.457511000" lon="-2.457501000">
        <ele>399.50</ele>
        <time>2013-07-27T08:39:30Z</time>
      </trkpt>
      <trkpt lat="42.457516000" lon="-2.457494000">
        <ele>399.50</ele>
        <time>2013-07-27T08:39:31Z</time>
      </trkpt>
      <trkpt lat="42.457518000" lon="-2.457488000">
        <ele>399.40</ele>
        <time>2013-07-27T08:39:32Z</time>
      </trkpt>
      <trkpt lat="42.457519000" lon="-2.457480000">
        <ele>399.30</ele>
        <time>2013-07-27T08:39:33Z</time>
      </trkpt>
      <trkpt lat="42.457522000" lon="-2.457472000">
        <ele>399.30</ele>
        <time>2013-07-27T08:39:34Z</time>
      </trkpt>
      <trkpt lat="42.457525000" lon="-2.457466000">
        <ele>399.30</ele>
        <time>2013-07-27T08:39:35Z</time>
      </trkpt>
      <trkpt lat="42.457528000" lon="-2.457461000">
        <ele>399.30</ele>
        <time>2013-07-27T08:39:36Z</time>
      </trkpt>
      <trkpt lat="42.457530000" lon="-2.457455000">
        <ele>399.40</ele>
        <time>2013-07-27T08:39:37Z</time>
      </trkpt>
      <trkpt lat="42.457536000" lon="-2.457449000">
        <ele>399.40</ele>
        <time>2013-07-27T08:39:38Z</time>
      </trkpt>
      <trkpt lat="42.457540000" lon="-2.457443000">
        <ele>399.40</ele>
        <time>2013-07-27T08:39:39Z</time>
      </trkpt>
      <trkpt lat="42.457545000" lon="-2.457437000">
        <ele>399.40</ele>
        <time>2013-07-27T08:39:40Z</time>
      </trkpt>
      <trkpt lat="42.457549000" lon="-2.457433000">
        <ele>399.40</ele>
        <time>2013-07-27T08:39:41Z</time>
      </trkpt>
      <trkpt lat="42.457552000" lon="-2.457428000">
        <ele>399.20</ele>
        <time>2013-07-27T08:39:42Z</time>
      </trkpt>
      <trkpt lat="42.457553000" lon="-2.457423000">
        <ele>399.10</ele>
        <time>2013-07-27T08:39:43Z</time>
      </trkpt>
      <trkpt lat="42.457553000" lon="-2.457419000">
        <ele>399.10</ele>
        <time>2013-07-27T08:39:44Z</time>
      </trkpt>
      <trkpt lat="42.457555000" lon="-2.457422000">
        <ele>399.10</ele>
        <time>2013-07-27T08:39:45Z</time>
      </trkpt>
      <trkpt lat="42.457555000" lon="-2.457430000">
        <ele>399.10</ele>
        <time>2013-07-27T08:39:46Z</time>
      </trkpt>
      <trkpt lat="42.457556000" lon="-2.457436000">
        <ele>399.10</ele>
        <time>2013-07-27T08:39:47Z</time>
      </trkpt>
      <trkpt lat="42.457557000" lon="-2.457437000">
        <ele>399.10</ele>
        <time>2013-07-27T08:39:48Z</time>
      </trkpt>
      <trkpt lat="42.457556000" lon="-2.457439000">
        <ele>399.10</ele>
        <time>2013-07-27T08:39:49Z</time>
      </trkpt>
      <trkpt lat="42.457553000" lon="-2.457440000">
        <ele>399.10</ele>
        <time>2013-07-27T08:39:50Z</time>
      </trkpt>
      <trkpt lat="42.457551000" lon="-2.457440000">
        <ele>399.10</ele>
        <time>2013-07-27T08:39:51Z</time>
      </trkpt>
      <trkpt lat="42.457548000" lon="-2.457445000">
        <ele>399.10</ele>
        <time>2013-07-27T08:39:52Z</time>
      </trkpt>
      <trkpt lat="42.457547000" lon="-2.457449000">
        <ele>399.00</ele>
        <time>2013-07-27T08:39:53Z</time>
      </trkpt>
      <trkpt lat="42.457547000" lon="-2.457452000">
        <ele>399.00</ele>
        <time>2013-07-27T08:39:54Z</time>
      </trkpt>
      <trkpt lat="42.457545000" lon="-2.457457000">
        <ele>399.10</ele>
        <time>2013-07-27T08:39:55Z</time>
      </trkpt>
      <trkpt lat="42.457544000" lon="-2.457459000">
        <ele>399.10</ele>
        <time>2013-07-27T08:39:56Z</time>
      </trkpt>
      <trkpt lat="42.457542000" lon="-2.457460000">
        <ele>399.20</ele>
        <time>2013-07-27T08:39:57Z</time>
      </trkpt>
      <trkpt lat="42.457542000" lon="-2.457457000">
        <ele>399.20</ele>
        <time>2013-07-27T08:39:58Z</time>
      </trkpt>
      <trkpt lat="42.457542000" lon="-2.457455000">
        <ele>399.30</ele>
        <time>2013-07-27T08:39:59Z</time>
      </trkpt>
      <trkpt lat="42.457542000" lon="-2.457455000">
        <ele>399.10</ele>
        <time>2013-07-27T08:40:00Z</time>
      </trkpt>
      <trkpt lat="42.457542000" lon="-2.457454000">
        <ele>399.10</ele>
        <time>2013-07-27T08:40:01Z</time>
      </trkpt>
      <trkpt lat="42.457541000" lon="-2.457456000">
        <ele>399.00</ele>
        <time>2013-07-27T08:40:02Z</time>
      </trkpt>
      <trkpt lat="42.457540000" lon="-2.457457000">
        <ele>398.90</ele>
        <time>2013-07-27T08:40:03Z</time>
      </trkpt>
      <trkpt lat="42.457540000" lon="-2.457460000">
        <ele>398.90</ele>
        <time>2013-07-27T08:40:04Z</time>
      </trkpt>
      <trkpt lat="42.457540000" lon="-2.457459000">
        <ele>398.90</ele>
        <time>2013-07-27T08:40:05Z</time>
      </trkpt>
      <trkpt lat="42.457536000" lon="-2.457450000">
        <ele>398.80</ele>
        <time>2013-07-27T08:40:06Z</time>
      </trkpt>
      <trkpt lat="42.457529000" lon="-2.457433000">
        <ele>398.80</ele>
        <time>2013-07-27T08:40:07Z</time>
      </trkpt>
      <trkpt lat="42.457520000" lon="-2.457412000">
        <ele>398.80</ele>
        <time>2013-07-27T08:40:08Z</time>
      </trkpt>
      <trkpt lat="42.457511000" lon="-2.457391000">
        <ele>398.80</ele>
        <time>2013-07-27T08:40:09Z</time>
      </trkpt>
      <trkpt lat="42.457503000" lon="-2.457371000">
        <ele>398.90</ele>
        <time>2013-07-27T08:40:10Z</time>
      </trkpt>
      <trkpt lat="42.457494000" lon="-2.457352000">
        <ele>399.00</ele>
        <time>2013-07-27T08:40:11Z</time>
      </trkpt>
      <trkpt lat="42.457477000" lon="-2.457330000">
        <ele>399.10</ele>
        <time>2013-07-27T08:40:12Z</time>
      </trkpt>
      <trkpt lat="42.457451000" lon="-2.457314000">
        <ele>399.20</ele>
        <time>2013-07-27T08:40:13Z</time>
      </trkpt>
      <trkpt lat="42.457427000" lon="-2.457300000">
        <ele>399.40</ele>
        <time>2013-07-27T08:40:14Z</time>
      </trkpt>
      <trkpt lat="42.457395000" lon="-2.457290000">
        <ele>399.50</ele>
        <time>2013-07-27T08:40:15Z</time>
      </trkpt>
      <trkpt lat="42.457370000" lon="-2.457276000">
        <ele>399.60</ele>
        <time>2013-07-27T08:40:16Z</time>
      </trkpt>
      <trkpt lat="42.457348000" lon="-2.457261000">
        <ele>399.60</ele>
        <time>2013-07-27T08:40:17Z</time>
      </trkpt>
      <trkpt lat="42.457324000" lon="-2.457255000">
        <ele>399.70</ele>
        <time>2013-07-27T08:40:18Z</time>
      </trkpt>
      <trkpt lat="42.457306000" lon="-2.457241000">
        <ele>399.70</ele>
        <time>2013-07-27T08:40:19Z</time>
      </trkpt>
      <trkpt lat="42.457289000" lon="-2.457216000">
        <ele>399.70</ele>
        <time>2013-07-27T08:40:20Z</time>
      </trkpt>
      <trkpt lat="42.457275000" lon="-2.457192000">
        <ele>399.80</ele>
        <time>2013-07-27T08:40:21Z</time>
      </trkpt>
      <trkpt lat="42.457251000" lon="-2.457160000">
        <ele>399.80</ele>
        <time>2013-07-27T08:40:22Z</time>
      </trkpt>
      <trkpt lat="42.457227000" lon="-2.457124000">
        <ele>399.80</ele>
        <time>2013-07-27T08:40:23Z</time>
      </trkpt>
      <trkpt lat="42.457208000" lon="-2.457087000">
        <ele>399.80</ele>
        <time>2013-07-27T08:40:24Z</time>
      </trkpt>
      <trkpt lat="42.457197000" lon="-2.457046000">
        <ele>399.80</ele>
        <time>2013-07-27T08:40:25Z</time>
      </trkpt>
      <trkpt lat="42.457194000" lon="-2.456997000">
        <ele>399.60</ele>
        <time>2013-07-27T08:40:26Z</time>
      </trkpt>
      <trkpt lat="42.457197000" lon="-2.456949000">
        <ele>399.50</ele>
        <time>2013-07-27T08:40:27Z</time>
      </trkpt>
      <trkpt lat="42.457203000" lon="-2.456907000">
        <ele>399.60</ele>
        <time>2013-07-27T08:40:28Z</time>
      </trkpt>
      <trkpt lat="42.457205000" lon="-2.456870000">
        <ele>399.70</ele>
        <time>2013-07-27T08:40:29Z</time>
      </trkpt>
      <trkpt lat="42.457210000" lon="-2.456830000">
        <ele>399.40</ele>
        <time>2013-07-27T08:40:30Z</time>
      </trkpt>
      <trkpt lat="42.457224000" lon="-2.456797000">
        <ele>399.30</ele>
        <time>2013-07-27T08:40:31Z</time>
      </trkpt>
      <trkpt lat="42.457242000" lon="-2.456762000">
        <ele>399.20</ele>
        <time>2013-07-27T08:40:32Z</time>
      </trkpt>
      <trkpt lat="42.457264000" lon="-2.456730000">
        <ele>399.20</ele>
        <time>2013-07-27T08:40:33Z</time>
      </trkpt>
      <trkpt lat="42.457284000" lon="-2.456694000">
        <ele>399.10</ele>
        <time>2013-07-27T08:40:34Z</time>
      </trkpt>
      <trkpt lat="42.457289000" lon="-2.456658000">
        <ele>399.00</ele>
        <time>2013-07-27T08:40:35Z</time>
      </trkpt>
      <trkpt lat="42.457287000" lon="-2.456614000">
        <ele>398.90</ele>
        <time>2013-07-27T08:40:36Z</time>
      </trkpt>
      <trkpt lat="42.457280000" lon="-2.456573000">
        <ele>398.90</ele>
        <time>2013-07-27T08:40:37Z</time>
      </trkpt>
      <trkpt lat="42.457273000" lon="-2.456534000">
        <ele>398.90</ele>
        <time>2013-07-27T08:40:38Z</time>
      </trkpt>
      <trkpt lat="42.457266000" lon="-2.456496000">
        <ele>398.80</ele>
        <time>2013-07-27T08:40:39Z</time>
      </trkpt>
      <trkpt lat="42.457255000" lon="-2.456456000">
        <ele>398.80</ele>
        <time>2013-07-27T08:40:40Z</time>
      </trkpt>
      <trkpt lat="42.457246000" lon="-2.456415000">
        <ele>398.80</ele>
        <time>2013-07-27T08:40:41Z</time>
      </trkpt>
      <trkpt lat="42.457237000" lon="-2.456367000">
        <ele>398.80</ele>
        <time>2013-07-27T08:40:42Z</time>
      </trkpt>
      <trkpt lat="42.457229000" lon="-2.456321000">
        <ele>398.80</ele>
        <time>2013-07-27T08:40:43Z</time>
      </trkpt>
      <trkpt lat="42.457221000" lon="-2.456272000">
        <ele>398.90</ele>
        <time>2013-07-27T08:40:44Z</time>
      </trkpt>
      <trkpt lat="42.457211000" lon="-2.456224000">
        <ele>399.00</ele>
        <time>2013-07-27T08:40:45Z</time>
      </trkpt>
      <trkpt lat="42.457203000" lon="-2.456179000">
        <ele>399.00</ele>
        <time>2013-07-27T08:40:46Z</time>
      </trkpt>
      <trkpt lat="42.457195000" lon="-2.456137000">
        <ele>399.00</ele>
        <time>2013-07-27T08:40:47Z</time>
      </trkpt>
      <trkpt lat="42.457187000" lon="-2.456091000">
        <ele>399.10</ele>
        <time>2013-07-27T08:40:48Z</time>
      </trkpt>
      <trkpt lat="42.457179000" lon="-2.456047000">
        <ele>399.20</ele>
        <time>2013-07-27T08:40:49Z</time>
      </trkpt>
      <trkpt lat="42.457169000" lon="-2.456004000">
        <ele>399.10</ele>
        <time>2013-07-27T08:40:50Z</time>
      </trkpt>
      <trkpt lat="42.457157000" lon="-2.455961000">
        <ele>399.00</ele>
        <time>2013-07-27T08:40:51Z</time>
      </trkpt>
      <trkpt lat="42.457144000" lon="-2.455920000">
        <ele>399.00</ele>
        <time>2013-07-27T08:40:52Z</time>
      </trkpt>
      <trkpt lat="42.457141000" lon="-2.455876000">
        <ele>399.00</ele>
        <time>2013-07-27T08:40:53Z</time>
      </trkpt>
      <trkpt lat="42.457130000" lon="-2.455836000">
        <ele>398.90</ele>
        <time>2013-07-27T08:40:54Z</time>
      </trkpt>
      <trkpt lat="42.457118000" lon="-2.455792000">
        <ele>398.90</ele>
        <time>2013-07-27T08:40:55Z</time>
      </trkpt>
      <trkpt lat="42.457109000" lon="-2.455748000">
        <ele>399.00</ele>
        <time>2013-07-27T08:40:56Z</time>
      </trkpt>
      <trkpt lat="42.457100000" lon="-2.455706000">
        <ele>399.10</ele>
        <time>2013-07-27T08:40:57Z</time>
      </trkpt>
      <trkpt lat="42.457089000" lon="-2.455667000">
        <ele>399.20</ele>
        <time>2013-07-27T08:40:58Z</time>
      </trkpt>
      <trkpt lat="42.457083000" lon="-2.455628000">
        <ele>399.20</ele>
        <time>2013-07-27T08:40:59Z</time>
      </trkpt>
      <trkpt lat="42.457077000" lon="-2.455584000">
        <ele>399.20</ele>
        <time>2013-07-27T08:41:00Z</time>
      </trkpt>
      <trkpt lat="42.457070000" lon="-2.455537000">
        <ele>399.20</ele>
        <time>2013-07-27T08:41:01Z</time>
      </trkpt>
      <trkpt lat="42.457063000" lon="-2.455492000">
        <ele>399.20</ele>
        <time>2013-07-27T08:41:02Z</time>
      </trkpt>
      <trkpt lat="42.457059000" lon="-2.455444000">
        <ele>399.10</ele>
        <time>2013-07-27T08:41:03Z</time>
      </trkpt>
      <trkpt lat="42.457050000" lon="-2.455400000">
        <ele>398.90</ele>
        <time>2013-07-27T08:41:04Z</time>
      </trkpt>
      <trkpt lat="42.457044000" lon="-2.455358000">
        <ele>398.70</ele>
        <time>2013-07-27T08:41:05Z</time>
      </trkpt>
      <trkpt lat="42.457037000" lon="-2.455310000">
        <ele>398.60</ele>
        <time>2013-07-27T08:41:06Z</time>
      </trkpt>
      <trkpt lat="42.457032000" lon="-2.455264000">
        <ele>398.50</ele>
        <time>2013-07-27T08:41:07Z</time>
      </trkpt>
      <trkpt lat="42.457031000" lon="-2.455219000">
        <ele>398.50</ele>
        <time>2013-07-27T08:41:08Z</time>
      </trkpt>
      <trkpt lat="42.457034000" lon="-2.455168000">
        <ele>398.60</ele>
        <time>2013-07-27T08:41:09Z</time>
      </trkpt>
      <trkpt lat="42.457029000" lon="-2.455107000">
        <ele>398.70</ele>
        <time>2013-07-27T08:41:10Z</time>
      </trkpt>
      <trkpt lat="42.457015000" lon="-2.455051000">
        <ele>398.70</ele>
        <time>2013-07-27T08:41:11Z</time>
      </trkpt>
      <trkpt lat="42.456999000" lon="-2.454998000">
        <ele>398.80</ele>
        <time>2013-07-27T08:41:12Z</time>
      </trkpt>
      <trkpt lat="42.456990000" lon="-2.454944000">
        <ele>398.80</ele>
        <time>2013-07-27T08:41:13Z</time>
      </trkpt>
      <trkpt lat="42.456980000" lon="-2.454891000">
        <ele>398.90</ele>
        <time>2013-07-27T08:41:14Z</time>
      </trkpt>
      <trkpt lat="42.456968000" lon="-2.454841000">
        <ele>398.90</ele>
        <time>2013-07-27T08:41:15Z</time>
      </trkpt>
      <trkpt lat="42.456959000" lon="-2.454791000">
        <ele>398.90</ele>
        <time>2013-07-27T08:41:16Z</time>
      </trkpt>
      <trkpt lat="42.456952000" lon="-2.454742000">
        <ele>398.90</ele>
        <time>2013-07-27T08:41:17Z</time>
      </trkpt>
      <trkpt lat="42.456945000" lon="-2.454694000">
        <ele>398.70</ele>
        <time>2013-07-27T08:41:18Z</time>
      </trkpt>
      <trkpt lat="42.456938000" lon="-2.454646000">
        <ele>398.60</ele>
        <time>2013-07-27T08:41:19Z</time>
      </trkpt>
      <trkpt lat="42.456932000" lon="-2.454601000">
        <ele>398.50</ele>
        <time>2013-07-27T08:41:20Z</time>
      </trkpt>
      <trkpt lat="42.456926000" lon="-2.454556000">
        <ele>398.40</ele>
        <time>2013-07-27T08:41:21Z</time>
      </trkpt>
      <trkpt lat="42.456917000" lon="-2.454514000">
        <ele>398.30</ele>
        <time>2013-07-27T08:41:22Z</time>
      </trkpt>
      <trkpt lat="42.456912000" lon="-2.454472000">
        <ele>398.30</ele>
        <time>2013-07-27T08:41:23Z</time>
      </trkpt>
      <trkpt lat="42.456903000" lon="-2.454426000">
        <ele>398.10</ele>
        <time>2013-07-27T08:41:24Z</time>
      </trkpt>
      <trkpt lat="42.456895000" lon="-2.454386000">
        <ele>398.00</ele>
        <time>2013-07-27T08:41:25Z</time>
      </trkpt>
      <trkpt lat="42.456890000" lon="-2.454346000">
        <ele>397.90</ele>
        <time>2013-07-27T08:41:26Z</time>
      </trkpt>
      <trkpt lat="42.456878000" lon="-2.454305000">
        <ele>397.80</ele>
        <time>2013-07-27T08:41:27Z</time>
      </trkpt>
      <trkpt lat="42.456868000" lon="-2.454261000">
        <ele>397.80</ele>
        <time>2013-07-27T08:41:28Z</time>
      </trkpt>
      <trkpt lat="42.456856000" lon="-2.454217000">
        <ele>397.80</ele>
        <time>2013-07-27T08:41:29Z</time>
      </trkpt>
      <trkpt lat="42.456846000" lon="-2.454171000">
        <ele>397.70</ele>
        <time>2013-07-27T08:41:30Z</time>
      </trkpt>
      <trkpt lat="42.456834000" lon="-2.454122000">
        <ele>397.70</ele>
        <time>2013-07-27T08:41:31Z</time>
      </trkpt>
      <trkpt lat="42.456826000" lon="-2.454073000">
        <ele>397.80</ele>
        <time>2013-07-27T08:41:32Z</time>
      </trkpt>
      <trkpt lat="42.456816000" lon="-2.454023000">
        <ele>397.90</ele>
        <time>2013-07-27T08:41:33Z</time>
      </trkpt>
      <trkpt lat="42.456805000" lon="-2.453974000">
        <ele>398.00</ele>
        <time>2013-07-27T08:41:34Z</time>
      </trkpt>
      <trkpt lat="42.456792000" lon="-2.453927000">
        <ele>398.10</ele>
        <time>2013-07-27T08:41:35Z</time>
      </trkpt>
      <trkpt lat="42.456783000" lon="-2.453875000">
        <ele>398.10</ele>
        <time>2013-07-27T08:41:36Z</time>
      </trkpt>
      <trkpt lat="42.456776000" lon="-2.453824000">
        <ele>398.10</ele>
        <time>2013-07-27T08:41:37Z</time>
      </trkpt>
      <trkpt lat="42.456768000" lon="-2.453771000">
        <ele>398.20</ele>
        <time>2013-07-27T08:41:38Z</time>
      </trkpt>
      <trkpt lat="42.456758000" lon="-2.453712000">
        <ele>398.20</ele>
        <time>2013-07-27T08:41:39Z</time>
      </trkpt>
      <trkpt lat="42.456748000" lon="-2.453665000">
        <ele>398.00</ele>
        <time>2013-07-27T08:41:40Z</time>
      </trkpt>
      <trkpt lat="42.456744000" lon="-2.453612000">
        <ele>397.90</ele>
        <time>2013-07-27T08:41:41Z</time>
      </trkpt>
      <trkpt lat="42.456735000" lon="-2.453558000">
        <ele>397.80</ele>
        <time>2013-07-27T08:41:42Z</time>
      </trkpt>
      <trkpt lat="42.456727000" lon="-2.453516000">
        <ele>397.80</ele>
        <time>2013-07-27T08:41:43Z</time>
      </trkpt>
      <trkpt lat="42.456719000" lon="-2.453471000">
        <ele>397.70</ele>
        <time>2013-07-27T08:41:44Z</time>
      </trkpt>
      <trkpt lat="42.456711000" lon="-2.453426000">
        <ele>397.70</ele>
        <time>2013-07-27T08:41:45Z</time>
      </trkpt>
      <trkpt lat="42.456697000" lon="-2.453377000">
        <ele>397.60</ele>
        <time>2013-07-27T08:41:46Z</time>
      </trkpt>
      <trkpt lat="42.456692000" lon="-2.453324000">
        <ele>397.60</ele>
        <time>2013-07-27T08:41:47Z</time>
      </trkpt>
      <trkpt lat="42.456688000" lon="-2.453268000">
        <ele>397.50</ele>
        <time>2013-07-27T08:41:48Z</time>
      </trkpt>
      <trkpt lat="42.456685000" lon="-2.453217000">
        <ele>397.50</ele>
        <time>2013-07-27T08:41:49Z</time>
      </trkpt>
      <trkpt lat="42.456685000" lon="-2.453158000">
        <ele>397.50</ele>
        <time>2013-07-27T08:41:50Z</time>
      </trkpt>
      <trkpt lat="42.456677000" lon="-2.453103000">
        <ele>397.50</ele>
        <time>2013-07-27T08:41:51Z</time>
      </trkpt>
      <trkpt lat="42.456670000" lon="-2.453052000">
        <ele>397.50</ele>
        <time>2013-07-27T08:41:52Z</time>
      </trkpt>
      <trkpt lat="42.456657000" lon="-2.453000000">
        <ele>397.50</ele>
        <time>2013-07-27T08:41:53Z</time>
      </trkpt>
      <trkpt lat="42.456647000" lon="-2.452953000">
        <ele>397.50</ele>
        <time>2013-07-27T08:41:54Z</time>
      </trkpt>
      <trkpt lat="42.456639000" lon="-2.452909000">
        <ele>397.50</ele>
        <time>2013-07-27T08:41:55Z</time>
      </trkpt>
      <trkpt lat="42.456630000" lon="-2.452853000">
        <ele>397.50</ele>
        <time>2013-07-27T08:41:56Z</time>
      </trkpt>
      <trkpt lat="42.456617000" lon="-2.452800000">
        <ele>397.50</ele>
        <time>2013-07-27T08:41:57Z</time>
      </trkpt>
      <trkpt lat="42.456606000" lon="-2.452754000">
        <ele>397.40</ele>
        <time>2013-07-27T08:41:58Z</time>
      </trkpt>
      <trkpt lat="42.456596000" lon="-2.452702000">
        <ele>397.40</ele>
        <time>2013-07-27T08:41:59Z</time>
      </trkpt>
      <trkpt lat="42.456585000" lon="-2.452653000">
        <ele>397.30</ele>
        <time>2013-07-27T08:42:00Z</time>
      </trkpt>
      <trkpt lat="42.456573000" lon="-2.452603000">
        <ele>397.30</ele>
        <time>2013-07-27T08:42:01Z</time>
      </trkpt>
      <trkpt lat="42.456562000" lon="-2.452555000">
        <ele>397.20</ele>
        <time>2013-07-27T08:42:02Z</time>
      </trkpt>
      <trkpt lat="42.456556000" lon="-2.452507000">
        <ele>397.10</ele>
        <time>2013-07-27T08:42:03Z</time>
      </trkpt>
      <trkpt lat="42.456547000" lon="-2.452459000">
        <ele>397.10</ele>
        <time>2013-07-27T08:42:04Z</time>
      </trkpt>
      <trkpt lat="42.456539000" lon="-2.452416000">
        <ele>397.10</ele>
        <time>2013-07-27T08:42:05Z</time>
      </trkpt>
      <trkpt lat="42.456527000" lon="-2.452372000">
        <ele>397.10</ele>
        <time>2013-07-27T08:42:06Z</time>
      </trkpt>
      <trkpt lat="42.456520000" lon="-2.452327000">
        <ele>397.10</ele>
        <time>2013-07-27T08:42:07Z</time>
      </trkpt>
      <trkpt lat="42.456512000" lon="-2.452279000">
        <ele>397.10</ele>
        <time>2013-07-27T08:42:08Z</time>
      </trkpt>
      <trkpt lat="42.456504000" lon="-2.452227000">
        <ele>397.20</ele>
        <time>2013-07-27T08:42:09Z</time>
      </trkpt>
      <trkpt lat="42.456497000" lon="-2.452179000">
        <ele>397.00</ele>
        <time>2013-07-27T08:42:10Z</time>
      </trkpt>
      <trkpt lat="42.456494000" lon="-2.452120000">
        <ele>396.90</ele>
        <time>2013-07-27T08:42:11Z</time>
      </trkpt>
      <trkpt lat="42.456485000" lon="-2.452070000">
        <ele>396.70</ele>
        <time>2013-07-27T08:42:12Z</time>
      </trkpt>
      <trkpt lat="42.456482000" lon="-2.452022000">
        <ele>396.60</ele>
        <time>2013-07-27T08:42:13Z</time>
      </trkpt>
      <trkpt lat="42.456476000" lon="-2.451973000">
        <ele>396.60</ele>
        <time>2013-07-27T08:42:14Z</time>
      </trkpt>
      <trkpt lat="42.456475000" lon="-2.451925000">
        <ele>396.60</ele>
        <time>2013-07-27T08:42:15Z</time>
      </trkpt>
      <trkpt lat="42.456472000" lon="-2.451878000">
        <ele>396.70</ele>
        <time>2013-07-27T08:42:16Z</time>
      </trkpt>
      <trkpt lat="42.456467000" lon="-2.451832000">
        <ele>396.80</ele>
        <time>2013-07-27T08:42:17Z</time>
      </trkpt>
      <trkpt lat="42.456458000" lon="-2.451784000">
        <ele>396.90</ele>
        <time>2013-07-27T08:42:18Z</time>
      </trkpt>
      <trkpt lat="42.456450000" lon="-2.451737000">
        <ele>396.90</ele>
        <time>2013-07-27T08:42:19Z</time>
      </trkpt>
      <trkpt lat="42.456441000" lon="-2.451691000">
        <ele>396.70</ele>
        <time>2013-07-27T08:42:20Z</time>
      </trkpt>
      <trkpt lat="42.456430000" lon="-2.451641000">
        <ele>396.60</ele>
        <time>2013-07-27T08:42:21Z</time>
      </trkpt>
      <trkpt lat="42.456416000" lon="-2.451591000">
        <ele>396.50</ele>
        <time>2013-07-27T08:42:22Z</time>
      </trkpt>
      <trkpt lat="42.456405000" lon="-2.451538000">
        <ele>396.40</ele>
        <time>2013-07-27T08:42:23Z</time>
      </trkpt>
      <trkpt lat="42.456386000" lon="-2.451495000">
        <ele>396.40</ele>
        <time>2013-07-27T08:42:24Z</time>
      </trkpt>
      <trkpt lat="42.456364000" lon="-2.451452000">
        <ele>396.40</ele>
        <time>2013-07-27T08:42:25Z</time>
      </trkpt>
      <trkpt lat="42.456337000" lon="-2.451416000">
        <ele>396.60</ele>
        <time>2013-07-27T08:42:26Z</time>
      </trkpt>
      <trkpt lat="42.456305000" lon="-2.451394000">
        <ele>396.70</ele>
        <time>2013-07-27T08:42:27Z</time>
      </trkpt>
      <trkpt lat="42.456274000" lon="-2.451376000">
        <ele>396.70</ele>
        <time>2013-07-27T08:42:28Z</time>
      </trkpt>
      <trkpt lat="42.456244000" lon="-2.451356000">
        <ele>396.60</ele>
        <time>2013-07-27T08:42:29Z</time>
      </trkpt>
      <trkpt lat="42.456218000" lon="-2.451336000">
        <ele>396.50</ele>
        <time>2013-07-27T08:42:30Z</time>
      </trkpt>
      <trkpt lat="42.456191000" lon="-2.451315000">
        <ele>396.50</ele>
        <time>2013-07-27T08:42:31Z</time>
      </trkpt>
      <trkpt lat="42.456163000" lon="-2.451297000">
        <ele>396.40</ele>
        <time>2013-07-27T08:42:32Z</time>
      </trkpt>
      <trkpt lat="42.456133000" lon="-2.451283000">
        <ele>396.40</ele>
        <time>2013-07-27T08:42:33Z</time>
      </trkpt>
      <trkpt lat="42.456103000" lon="-2.451281000">
        <ele>396.30</ele>
        <time>2013-07-27T08:42:34Z</time>
      </trkpt>
      <trkpt lat="42.456074000" lon="-2.451285000">
        <ele>396.30</ele>
        <time>2013-07-27T08:42:35Z</time>
      </trkpt>
      <trkpt lat="42.456047000" lon="-2.451291000">
        <ele>396.40</ele>
        <time>2013-07-27T08:42:36Z</time>
      </trkpt>
      <trkpt lat="42.456019000" lon="-2.451304000">
        <ele>396.40</ele>
        <time>2013-07-27T08:42:37Z</time>
      </trkpt>
      <trkpt lat="42.455990000" lon="-2.451315000">
        <ele>396.40</ele>
        <time>2013-07-27T08:42:38Z</time>
      </trkpt>
      <trkpt lat="42.455961000" lon="-2.451328000">
        <ele>396.40</ele>
        <time>2013-07-27T08:42:39Z</time>
      </trkpt>
      <trkpt lat="42.455929000" lon="-2.451337000">
        <ele>396.50</ele>
        <time>2013-07-27T08:42:40Z</time>
      </trkpt>
      <trkpt lat="42.455898000" lon="-2.451347000">
        <ele>396.50</ele>
        <time>2013-07-27T08:42:41Z</time>
      </trkpt>
      <trkpt lat="42.455865000" lon="-2.451356000">
        <ele>396.50</ele>
        <time>2013-07-27T08:42:42Z</time>
      </trkpt>
      <trkpt lat="42.455831000" lon="-2.451364000">
        <ele>396.50</ele>
        <time>2013-07-27T08:42:43Z</time>
      </trkpt>
      <trkpt lat="42.455794000" lon="-2.451372000">
        <ele>396.40</ele>
        <time>2013-07-27T08:42:44Z</time>
      </trkpt>
      <trkpt lat="42.455761000" lon="-2.451381000">
        <ele>396.40</ele>
        <time>2013-07-27T08:42:45Z</time>
      </trkpt>
      <trkpt lat="42.455728000" lon="-2.451392000">
        <ele>396.30</ele>
        <time>2013-07-27T08:42:46Z</time>
      </trkpt>
      <trkpt lat="42.455694000" lon="-2.451403000">
        <ele>396.30</ele>
        <time>2013-07-27T08:42:47Z</time>
      </trkpt>
      <trkpt lat="42.455660000" lon="-2.451410000">
        <ele>396.30</ele>
        <time>2013-07-27T08:42:48Z</time>
      </trkpt>
      <trkpt lat="42.455627000" lon="-2.451416000">
        <ele>396.30</ele>
        <time>2013-07-27T08:42:49Z</time>
      </trkpt>
      <trkpt lat="42.455597000" lon="-2.451423000">
        <ele>396.30</ele>
        <time>2013-07-27T08:42:50Z</time>
      </trkpt>
      <trkpt lat="42.455566000" lon="-2.451430000">
        <ele>396.30</ele>
        <time>2013-07-27T08:42:51Z</time>
      </trkpt>
      <trkpt lat="42.455533000" lon="-2.451436000">
        <ele>396.30</ele>
        <time>2013-07-27T08:42:52Z</time>
      </trkpt>
      <trkpt lat="42.455499000" lon="-2.451443000">
        <ele>396.30</ele>
        <time>2013-07-27T08:42:53Z</time>
      </trkpt>
      <trkpt lat="42.455465000" lon="-2.451447000">
        <ele>396.30</ele>
        <time>2013-07-27T08:42:54Z</time>
      </trkpt>
      <trkpt lat="42.455429000" lon="-2.451457000">
        <ele>396.30</ele>
        <time>2013-07-27T08:42:55Z</time>
      </trkpt>
      <trkpt lat="42.455395000" lon="-2.451465000">
        <ele>396.40</ele>
        <time>2013-07-27T08:42:56Z</time>
      </trkpt>
      <trkpt lat="42.455359000" lon="-2.451472000">
        <ele>396.50</ele>
        <time>2013-07-27T08:42:57Z</time>
      </trkpt>
      <trkpt lat="42.455324000" lon="-2.451478000">
        <ele>396.60</ele>
        <time>2013-07-27T08:42:58Z</time>
      </trkpt>
      <trkpt lat="42.455290000" lon="-2.451490000">
        <ele>396.60</ele>
        <time>2013-07-27T08:42:59Z</time>
      </trkpt>
      <trkpt lat="42.455254000" lon="-2.451499000">
        <ele>396.70</ele>
        <time>2013-07-27T08:43:00Z</time>
      </trkpt>
      <trkpt lat="42.455220000" lon="-2.451508000">
        <ele>396.80</ele>
        <time>2013-07-27T08:43:01Z</time>
      </trkpt>
      <trkpt lat="42.455184000" lon="-2.451520000">
        <ele>396.80</ele>
        <time>2013-07-27T08:43:02Z</time>
      </trkpt>
      <trkpt lat="42.455150000" lon="-2.451527000">
        <ele>396.90</ele>
        <time>2013-07-27T08:43:03Z</time>
      </trkpt>
      <trkpt lat="42.455115000" lon="-2.451537000">
        <ele>397.10</ele>
        <time>2013-07-27T08:43:04Z</time>
      </trkpt>
      <trkpt lat="42.455079000" lon="-2.451545000">
        <ele>397.20</ele>
        <time>2013-07-27T08:43:05Z</time>
      </trkpt>
      <trkpt lat="42.455044000" lon="-2.451553000">
        <ele>397.20</ele>
        <time>2013-07-27T08:43:06Z</time>
      </trkpt>
      <trkpt lat="42.455009000" lon="-2.451561000">
        <ele>397.20</ele>
        <time>2013-07-27T08:43:07Z</time>
      </trkpt>
      <trkpt lat="42.454974000" lon="-2.451570000">
        <ele>397.20</ele>
        <time>2013-07-27T08:43:08Z</time>
      </trkpt>
      <trkpt lat="42.454940000" lon="-2.451578000">
        <ele>397.30</ele>
        <time>2013-07-27T08:43:09Z</time>
      </trkpt>
      <trkpt lat="42.454906000" lon="-2.451585000">
        <ele>397.30</ele>
        <time>2013-07-27T08:43:10Z</time>
      </trkpt>
      <trkpt lat="42.454873000" lon="-2.451594000">
        <ele>397.30</ele>
        <time>2013-07-27T08:43:11Z</time>
      </trkpt>
      <trkpt lat="42.454840000" lon="-2.451605000">
        <ele>397.30</ele>
        <time>2013-07-27T08:43:12Z</time>
      </trkpt>
      <trkpt lat="42.454808000" lon="-2.451615000">
        <ele>397.40</ele>
        <time>2013-07-27T08:43:13Z</time>
      </trkpt>
      <trkpt lat="42.454777000" lon="-2.451628000">
        <ele>397.50</ele>
        <time>2013-07-27T08:43:14Z</time>
      </trkpt>
      <trkpt lat="42.454744000" lon="-2.451636000">
        <ele>397.60</ele>
        <time>2013-07-27T08:43:15Z</time>
      </trkpt>
      <trkpt lat="42.454716000" lon="-2.451640000">
        <ele>397.80</ele>
        <time>2013-07-27T08:43:16Z</time>
      </trkpt>
      <trkpt lat="42.454683000" lon="-2.451649000">
        <ele>397.90</ele>
        <time>2013-07-27T08:43:17Z</time>
      </trkpt>
      <trkpt lat="42.454651000" lon="-2.451659000">
        <ele>398.00</ele>
        <time>2013-07-27T08:43:18Z</time>
      </trkpt>
      <trkpt lat="42.454621000" lon="-2.451670000">
        <ele>398.10</ele>
        <time>2013-07-27T08:43:19Z</time>
      </trkpt>
      <trkpt lat="42.454589000" lon="-2.451684000">
        <ele>398.20</ele>
        <time>2013-07-27T08:43:20Z</time>
      </trkpt>
      <trkpt lat="42.454559000" lon="-2.451703000">
        <ele>398.20</ele>
        <time>2013-07-27T08:43:21Z</time>
      </trkpt>
      <trkpt lat="42.454528000" lon="-2.451722000">
        <ele>398.40</ele>
        <time>2013-07-27T08:43:22Z</time>
      </trkpt>
      <trkpt lat="42.454500000" lon="-2.451750000">
        <ele>398.50</ele>
        <time>2013-07-27T08:43:23Z</time>
      </trkpt>
      <trkpt lat="42.454473000" lon="-2.451775000">
        <ele>398.60</ele>
        <time>2013-07-27T08:43:24Z</time>
      </trkpt>
      <trkpt lat="42.454447000" lon="-2.451807000">
        <ele>398.60</ele>
        <time>2013-07-27T08:43:25Z</time>
      </trkpt>
      <trkpt lat="42.454424000" lon="-2.451844000">
        <ele>398.80</ele>
        <time>2013-07-27T08:43:26Z</time>
      </trkpt>
      <trkpt lat="42.454400000" lon="-2.451884000">
        <ele>398.90</ele>
        <time>2013-07-27T08:43:27Z</time>
      </trkpt>
      <trkpt lat="42.454376000" lon="-2.451924000">
        <ele>399.10</ele>
        <time>2013-07-27T08:43:28Z</time>
      </trkpt>
      <trkpt lat="42.454353000" lon="-2.451966000">
        <ele>399.30</ele>
        <time>2013-07-27T08:43:29Z</time>
      </trkpt>
      <trkpt lat="42.454329000" lon="-2.452004000">
        <ele>399.50</ele>
        <time>2013-07-27T08:43:30Z</time>
      </trkpt>
      <trkpt lat="42.454300000" lon="-2.452038000">
        <ele>399.60</ele>
        <time>2013-07-27T08:43:31Z</time>
      </trkpt>
      <trkpt lat="42.454272000" lon="-2.452071000">
        <ele>399.60</ele>
        <time>2013-07-27T08:43:32Z</time>
      </trkpt>
      <trkpt lat="42.454243000" lon="-2.452102000">
        <ele>399.70</ele>
        <time>2013-07-27T08:43:33Z</time>
      </trkpt>
      <trkpt lat="42.454212000" lon="-2.452127000">
        <ele>399.70</ele>
        <time>2013-07-27T08:43:34Z</time>
      </trkpt>
      <trkpt lat="42.454180000" lon="-2.452146000">
        <ele>399.70</ele>
        <time>2013-07-27T08:43:35Z</time>
      </trkpt>
      <trkpt lat="42.454149000" lon="-2.452156000">
        <ele>399.80</ele>
        <time>2013-07-27T08:43:36Z</time>
      </trkpt>
      <trkpt lat="42.454114000" lon="-2.452162000">
        <ele>399.80</ele>
        <time>2013-07-27T08:43:37Z</time>
      </trkpt>
      <trkpt lat="42.454080000" lon="-2.452155000">
        <ele>399.90</ele>
        <time>2013-07-27T08:43:38Z</time>
      </trkpt>
      <trkpt lat="42.454045000" lon="-2.452143000">
        <ele>399.90</ele>
        <time>2013-07-27T08:43:39Z</time>
      </trkpt>
      <trkpt lat="42.454011000" lon="-2.452125000">
        <ele>399.90</ele>
        <time>2013-07-27T08:43:40Z</time>
      </trkpt>
      <trkpt lat="42.453977000" lon="-2.452103000">
        <ele>399.90</ele>
        <time>2013-07-27T08:43:41Z</time>
      </trkpt>
      <trkpt lat="42.453944000" lon="-2.452078000">
        <ele>400.10</ele>
        <time>2013-07-27T08:43:42Z</time>
      </trkpt>
      <trkpt lat="42.453913000" lon="-2.452048000">
        <ele>400.20</ele>
        <time>2013-07-27T08:43:43Z</time>
      </trkpt>
      <trkpt lat="42.453888000" lon="-2.452009000">
        <ele>400.30</ele>
        <time>2013-07-27T08:43:44Z</time>
      </trkpt>
      <trkpt lat="42.453870000" lon="-2.451962000">
        <ele>400.30</ele>
        <time>2013-07-27T08:43:45Z</time>
      </trkpt>
      <trkpt lat="42.453858000" lon="-2.451912000">
        <ele>400.20</ele>
        <time>2013-07-27T08:43:46Z</time>
      </trkpt>
      <trkpt lat="42.453850000" lon="-2.451860000">
        <ele>400.20</ele>
        <time>2013-07-27T08:43:47Z</time>
      </trkpt>
      <trkpt lat="42.453842000" lon="-2.451807000">
        <ele>400.10</ele>
        <time>2013-07-27T08:43:48Z</time>
      </trkpt>
      <trkpt lat="42.453839000" lon="-2.451754000">
        <ele>400.10</ele>
        <time>2013-07-27T08:43:49Z</time>
      </trkpt>
      <trkpt lat="42.453841000" lon="-2.451707000">
        <ele>400.00</ele>
        <time>2013-07-27T08:43:50Z</time>
      </trkpt>
      <trkpt lat="42.453850000" lon="-2.451663000">
        <ele>399.90</ele>
        <time>2013-07-27T08:43:51Z</time>
      </trkpt>
      <trkpt lat="42.453860000" lon="-2.451620000">
        <ele>399.80</ele>
        <time>2013-07-27T08:43:52Z</time>
      </trkpt>
      <trkpt lat="42.453870000" lon="-2.451573000">
        <ele>399.70</ele>
        <time>2013-07-27T08:43:53Z</time>
      </trkpt>
      <trkpt lat="42.453878000" lon="-2.451524000">
        <ele>399.70</ele>
        <time>2013-07-27T08:43:54Z</time>
      </trkpt>
      <trkpt lat="42.453885000" lon="-2.451474000">
        <ele>399.60</ele>
        <time>2013-07-27T08:43:55Z</time>
      </trkpt>
      <trkpt lat="42.453892000" lon="-2.451421000">
        <ele>399.60</ele>
        <time>2013-07-27T08:43:56Z</time>
      </trkpt>
      <trkpt lat="42.453892000" lon="-2.451372000">
        <ele>399.50</ele>
        <time>2013-07-27T08:43:57Z</time>
      </trkpt>
      <trkpt lat="42.453887000" lon="-2.451324000">
        <ele>399.60</ele>
        <time>2013-07-27T08:43:58Z</time>
      </trkpt>
      <trkpt lat="42.453881000" lon="-2.451274000">
        <ele>399.60</ele>
        <time>2013-07-27T08:43:59Z</time>
      </trkpt>
      <trkpt lat="42.453873000" lon="-2.451223000">
        <ele>399.60</ele>
        <time>2013-07-27T08:44:00Z</time>
      </trkpt>
      <trkpt lat="42.453865000" lon="-2.451172000">
        <ele>399.60</ele>
        <time>2013-07-27T08:44:01Z</time>
      </trkpt>
      <trkpt lat="42.453857000" lon="-2.451121000">
        <ele>399.70</ele>
        <time>2013-07-27T08:44:02Z</time>
      </trkpt>
      <trkpt lat="42.453850000" lon="-2.451071000">
        <ele>399.80</ele>
        <time>2013-07-27T08:44:03Z</time>
      </trkpt>
      <trkpt lat="42.453841000" lon="-2.451023000">
        <ele>399.80</ele>
        <time>2013-07-27T08:44:04Z</time>
      </trkpt>
      <trkpt lat="42.453836000" lon="-2.450976000">
        <ele>399.80</ele>
        <time>2013-07-27T08:44:05Z</time>
      </trkpt>
      <trkpt lat="42.453831000" lon="-2.450924000">
        <ele>400.00</ele>
        <time>2013-07-27T08:44:06Z</time>
      </trkpt>
      <trkpt lat="42.453825000" lon="-2.450880000">
        <ele>400.10</ele>
        <time>2013-07-27T08:44:07Z</time>
      </trkpt>
      <trkpt lat="42.453819000" lon="-2.450833000">
        <ele>400.30</ele>
        <time>2013-07-27T08:44:08Z</time>
      </trkpt>
      <trkpt lat="42.453811000" lon="-2.450790000">
        <ele>400.30</ele>
        <time>2013-07-27T08:44:09Z</time>
      </trkpt>
      <trkpt lat="42.453804000" lon="-2.450748000">
        <ele>400.40</ele>
        <time>2013-07-27T08:44:10Z</time>
      </trkpt>
      <trkpt lat="42.453797000" lon="-2.450703000">
        <ele>400.40</ele>
        <time>2013-07-27T08:44:11Z</time>
      </trkpt>
      <trkpt lat="42.453787000" lon="-2.450659000">
        <ele>400.30</ele>
        <time>2013-07-27T08:44:12Z</time>
      </trkpt>
      <trkpt lat="42.453780000" lon="-2.450615000">
        <ele>400.10</ele>
        <time>2013-07-27T08:44:13Z</time>
      </trkpt>
      <trkpt lat="42.453774000" lon="-2.450568000">
        <ele>400.00</ele>
        <time>2013-07-27T08:44:14Z</time>
      </trkpt>
      <trkpt lat="42.453766000" lon="-2.450524000">
        <ele>400.00</ele>
        <time>2013-07-27T08:44:15Z</time>
      </trkpt>
      <trkpt lat="42.453759000" lon="-2.450479000">
        <ele>400.00</ele>
        <time>2013-07-27T08:44:16Z</time>
      </trkpt>
      <trkpt lat="42.453751000" lon="-2.450435000">
        <ele>400.00</ele>
        <time>2013-07-27T08:44:17Z</time>
      </trkpt>
      <trkpt lat="42.453743000" lon="-2.450392000">
        <ele>400.00</ele>
        <time>2013-07-27T08:44:18Z</time>
      </trkpt>
      <trkpt lat="42.453733000" lon="-2.450349000">
        <ele>400.00</ele>
        <time>2013-07-27T08:44:19Z</time>
      </trkpt>
      <trkpt lat="42.453726000" lon="-2.450305000">
        <ele>400.00</ele>
        <time>2013-07-27T08:44:20Z</time>
      </trkpt>
      <trkpt lat="42.453722000" lon="-2.450259000">
        <ele>400.00</ele>
        <time>2013-07-27T08:44:21Z</time>
      </trkpt>
      <trkpt lat="42.453715000" lon="-2.450209000">
        <ele>399.80</ele>
        <time>2013-07-27T08:44:22Z</time>
      </trkpt>
      <trkpt lat="42.453709000" lon="-2.450159000">
        <ele>399.80</ele>
        <time>2013-07-27T08:44:23Z</time>
      </trkpt>
      <trkpt lat="42.453704000" lon="-2.450105000">
        <ele>399.80</ele>
        <time>2013-07-27T08:44:24Z</time>
      </trkpt>
      <trkpt lat="42.453697000" lon="-2.450055000">
        <ele>399.90</ele>
        <time>2013-07-27T08:44:25Z</time>
      </trkpt>
      <trkpt lat="42.453689000" lon="-2.450005000">
        <ele>400.00</ele>
        <time>2013-07-27T08:44:26Z</time>
      </trkpt>
      <trkpt lat="42.453681000" lon="-2.449956000">
        <ele>400.00</ele>
        <time>2013-07-27T08:44:27Z</time>
      </trkpt>
      <trkpt lat="42.453675000" lon="-2.449905000">
        <ele>400.10</ele>
        <time>2013-07-27T08:44:28Z</time>
      </trkpt>
      <trkpt lat="42.453667000" lon="-2.449857000">
        <ele>400.10</ele>
        <time>2013-07-27T08:44:29Z</time>
      </trkpt>
      <trkpt lat="42.453662000" lon="-2.449809000">
        <ele>400.20</ele>
        <time>2013-07-27T08:44:30Z</time>
      </trkpt>
      <trkpt lat="42.453654000" lon="-2.449763000">
        <ele>400.20</ele>
        <time>2013-07-27T08:44:31Z</time>
      </trkpt>
      <trkpt lat="42.453647000" lon="-2.449719000">
        <ele>400.10</ele>
        <time>2013-07-27T08:44:32Z</time>
      </trkpt>
      <trkpt lat="42.453640000" lon="-2.449673000">
        <ele>400.10</ele>
        <time>2013-07-27T08:44:33Z</time>
      </trkpt>
      <trkpt lat="42.453632000" lon="-2.449624000">
        <ele>399.90</ele>
        <time>2013-07-27T08:44:34Z</time>
      </trkpt>
      <trkpt lat="42.453626000" lon="-2.449576000">
        <ele>399.70</ele>
        <time>2013-07-27T08:44:35Z</time>
      </trkpt>
      <trkpt lat="42.453621000" lon="-2.449527000">
        <ele>399.60</ele>
        <time>2013-07-27T08:44:36Z</time>
      </trkpt>
      <trkpt lat="42.453615000" lon="-2.449481000">
        <ele>399.50</ele>
        <time>2013-07-27T08:44:37Z</time>
      </trkpt>
      <trkpt lat="42.453606000" lon="-2.449432000">
        <ele>399.40</ele>
        <time>2013-07-27T08:44:38Z</time>
      </trkpt>
      <trkpt lat="42.453595000" lon="-2.449378000">
        <ele>399.40</ele>
        <time>2013-07-27T08:44:39Z</time>
      </trkpt>
      <trkpt lat="42.453584000" lon="-2.449325000">
        <ele>399.30</ele>
        <time>2013-07-27T08:44:40Z</time>
      </trkpt>
      <trkpt lat="42.453579000" lon="-2.449280000">
        <ele>399.30</ele>
        <time>2013-07-27T08:44:41Z</time>
      </trkpt>
      <trkpt lat="42.453572000" lon="-2.449236000">
        <ele>399.30</ele>
        <time>2013-07-27T08:44:42Z</time>
      </trkpt>
      <trkpt lat="42.453563000" lon="-2.449194000">
        <ele>399.30</ele>
        <time>2013-07-27T08:44:43Z</time>
      </trkpt>
      <trkpt lat="42.453557000" lon="-2.449151000">
        <ele>399.20</ele>
        <time>2013-07-27T08:44:44Z</time>
      </trkpt>
      <trkpt lat="42.453552000" lon="-2.449111000">
        <ele>399.20</ele>
        <time>2013-07-27T08:44:45Z</time>
      </trkpt>
      <trkpt lat="42.453547000" lon="-2.449071000">
        <ele>399.20</ele>
        <time>2013-07-27T08:44:46Z</time>
      </trkpt>
      <trkpt lat="42.453544000" lon="-2.449039000">
        <ele>399.20</ele>
        <time>2013-07-27T08:44:47Z</time>
      </trkpt>
      <trkpt lat="42.453535000" lon="-2.449015000">
        <ele>399.20</ele>
        <time>2013-07-27T08:44:48Z</time>
      </trkpt>
      <trkpt lat="42.453530000" lon="-2.448992000">
        <ele>399.20</ele>
        <time>2013-07-27T08:44:49Z</time>
      </trkpt>
      <trkpt lat="42.453525000" lon="-2.448970000">
        <ele>399.30</ele>
        <time>2013-07-27T08:44:50Z</time>
      </trkpt>
      <trkpt lat="42.453517000" lon="-2.448943000">
        <ele>399.30</ele>
        <time>2013-07-27T08:44:51Z</time>
      </trkpt>
      <trkpt lat="42.453508000" lon="-2.448915000">
        <ele>399.30</ele>
        <time>2013-07-27T08:44:52Z</time>
      </trkpt>
      <trkpt lat="42.453491000" lon="-2.448886000">
        <ele>399.30</ele>
        <time>2013-07-27T08:44:53Z</time>
      </trkpt>
      <trkpt lat="42.453473000" lon="-2.448856000">
        <ele>399.30</ele>
        <time>2013-07-27T08:44:54Z</time>
      </trkpt>
      <trkpt lat="42.453451000" lon="-2.448830000">
        <ele>399.40</ele>
        <time>2013-07-27T08:44:55Z</time>
      </trkpt>
      <trkpt lat="42.453426000" lon="-2.448801000">
        <ele>399.40</ele>
        <time>2013-07-27T08:44:56Z</time>
      </trkpt>
      <trkpt lat="42.453404000" lon="-2.448769000">
        <ele>399.40</ele>
        <time>2013-07-27T08:44:57Z</time>
      </trkpt>
      <trkpt lat="42.453381000" lon="-2.448735000">
        <ele>399.50</ele>
        <time>2013-07-27T08:44:58Z</time>
      </trkpt>
      <trkpt lat="42.453359000" lon="-2.448695000">
        <ele>399.60</ele>
        <time>2013-07-27T08:44:59Z</time>
      </trkpt>
      <trkpt lat="42.453340000" lon="-2.448657000">
        <ele>399.70</ele>
        <time>2013-07-27T08:45:00Z</time>
      </trkpt>
      <trkpt lat="42.453323000" lon="-2.448614000">
        <ele>399.70</ele>
        <time>2013-07-27T08:45:01Z</time>
      </trkpt>
      <trkpt lat="42.453308000" lon="-2.448569000">
        <ele>399.60</ele>
        <time>2013-07-27T08:45:02Z</time>
      </trkpt>
      <trkpt lat="42.453297000" lon="-2.448521000">
        <ele>399.50</ele>
        <time>2013-07-27T08:45:03Z</time>
      </trkpt>
      <trkpt lat="42.453290000" lon="-2.448469000">
        <ele>399.50</ele>
        <time>2013-07-27T08:45:04Z</time>
      </trkpt>
      <trkpt lat="42.453286000" lon="-2.448417000">
        <ele>399.40</ele>
        <time>2013-07-27T08:45:05Z</time>
      </trkpt>
      <trkpt lat="42.453287000" lon="-2.448365000">
        <ele>399.50</ele>
        <time>2013-07-27T08:45:06Z</time>
      </trkpt>
      <trkpt lat="42.453293000" lon="-2.448316000">
        <ele>399.60</ele>
        <time>2013-07-27T08:45:07Z</time>
      </trkpt>
      <trkpt lat="42.453302000" lon="-2.448267000">
        <ele>399.70</ele>
        <time>2013-07-27T08:45:08Z</time>
      </trkpt>
      <trkpt lat="42.453313000" lon="-2.448218000">
        <ele>399.80</ele>
        <time>2013-07-27T08:45:09Z</time>
      </trkpt>
      <trkpt lat="42.453325000" lon="-2.448174000">
        <ele>399.90</ele>
        <time>2013-07-27T08:45:10Z</time>
      </trkpt>
      <trkpt lat="42.453336000" lon="-2.448130000">
        <ele>399.90</ele>
        <time>2013-07-27T08:45:11Z</time>
      </trkpt>
      <trkpt lat="42.453346000" lon="-2.448087000">
        <ele>400.00</ele>
        <time>2013-07-27T08:45:12Z</time>
      </trkpt>
      <trkpt lat="42.453355000" lon="-2.448047000">
        <ele>400.10</ele>
        <time>2013-07-27T08:45:13Z</time>
      </trkpt>
      <trkpt lat="42.453360000" lon="-2.448002000">
        <ele>400.20</ele>
        <time>2013-07-27T08:45:14Z</time>
      </trkpt>
      <trkpt lat="42.453360000" lon="-2.447954000">
        <ele>400.20</ele>
        <time>2013-07-27T08:45:15Z</time>
      </trkpt>
      <trkpt lat="42.453356000" lon="-2.447908000">
        <ele>400.10</ele>
        <time>2013-07-27T08:45:16Z</time>
      </trkpt>
      <trkpt lat="42.453349000" lon="-2.447860000">
        <ele>400.00</ele>
        <time>2013-07-27T08:45:17Z</time>
      </trkpt>
      <trkpt lat="42.453340000" lon="-2.447806000">
        <ele>400.00</ele>
        <time>2013-07-27T08:45:18Z</time>
      </trkpt>
      <trkpt lat="42.453330000" lon="-2.447751000">
        <ele>399.90</ele>
        <time>2013-07-27T08:45:19Z</time>
      </trkpt>
      <trkpt lat="42.453320000" lon="-2.447694000">
        <ele>399.80</ele>
        <time>2013-07-27T08:45:20Z</time>
      </trkpt>
      <trkpt lat="42.453312000" lon="-2.447636000">
        <ele>399.80</ele>
        <time>2013-07-27T08:45:21Z</time>
      </trkpt>
      <trkpt lat="42.453299000" lon="-2.447576000">
        <ele>399.60</ele>
        <time>2013-07-27T08:45:22Z</time>
      </trkpt>
      <trkpt lat="42.453291000" lon="-2.447520000">
        <ele>399.60</ele>
        <time>2013-07-27T08:45:23Z</time>
      </trkpt>
      <trkpt lat="42.453285000" lon="-2.447469000">
        <ele>399.40</ele>
        <time>2013-07-27T08:45:24Z</time>
      </trkpt>
      <trkpt lat="42.453280000" lon="-2.447414000">
        <ele>399.30</ele>
        <time>2013-07-27T08:45:25Z</time>
      </trkpt>
      <trkpt lat="42.453276000" lon="-2.447356000">
        <ele>399.30</ele>
        <time>2013-07-27T08:45:26Z</time>
      </trkpt>
      <trkpt lat="42.453267000" lon="-2.447298000">
        <ele>399.20</ele>
        <time>2013-07-27T08:45:27Z</time>
      </trkpt>
      <trkpt lat="42.453258000" lon="-2.447237000">
        <ele>399.10</ele>
        <time>2013-07-27T08:45:28Z</time>
      </trkpt>
      <trkpt lat="42.453249000" lon="-2.447174000">
        <ele>399.00</ele>
        <time>2013-07-27T08:45:29Z</time>
      </trkpt>
      <trkpt lat="42.453238000" lon="-2.447107000">
        <ele>398.90</ele>
        <time>2013-07-27T08:45:30Z</time>
      </trkpt>
      <trkpt lat="42.453229000" lon="-2.447041000">
        <ele>398.90</ele>
        <time>2013-07-27T08:45:31Z</time>
      </trkpt>
      <trkpt lat="42.453218000" lon="-2.446975000">
        <ele>398.70</ele>
        <time>2013-07-27T08:45:32Z</time>
      </trkpt>
      <trkpt lat="42.453208000" lon="-2.446907000">
        <ele>398.60</ele>
        <time>2013-07-27T08:45:33Z</time>
      </trkpt>
      <trkpt lat="42.453201000" lon="-2.446838000">
        <ele>398.50</ele>
        <time>2013-07-27T08:45:34Z</time>
      </trkpt>
      <trkpt lat="42.453194000" lon="-2.446770000">
        <ele>398.50</ele>
        <time>2013-07-27T08:45:35Z</time>
      </trkpt>
      <trkpt lat="42.453187000" lon="-2.446702000">
        <ele>398.40</ele>
        <time>2013-07-27T08:45:36Z</time>
      </trkpt>
      <trkpt lat="42.453181000" lon="-2.446639000">
        <ele>398.40</ele>
        <time>2013-07-27T08:45:37Z</time>
      </trkpt>
      <trkpt lat="42.453177000" lon="-2.446582000">
        <ele>398.20</ele>
        <time>2013-07-27T08:45:38Z</time>
      </trkpt>
      <trkpt lat="42.453175000" lon="-2.446538000">
        <ele>398.10</ele>
        <time>2013-07-27T08:45:39Z</time>
      </trkpt>
      <trkpt lat="42.453171000" lon="-2.446495000">
        <ele>398.00</ele>
        <time>2013-07-27T08:45:40Z</time>
      </trkpt>
      <trkpt lat="42.453162000" lon="-2.446460000">
        <ele>397.90</ele>
        <time>2013-07-27T08:45:41Z</time>
      </trkpt>
      <trkpt lat="42.453147000" lon="-2.446432000">
        <ele>397.70</ele>
        <time>2013-07-27T08:45:42Z</time>
      </trkpt>
      <trkpt lat="42.453115000" lon="-2.446412000">
        <ele>397.60</ele>
        <time>2013-07-27T08:45:43Z</time>
      </trkpt>
      <trkpt lat="42.453082000" lon="-2.446387000">
        <ele>397.60</ele>
        <time>2013-07-27T08:45:44Z</time>
      </trkpt>
      <trkpt lat="42.453042000" lon="-2.446373000">
        <ele>397.70</ele>
        <time>2013-07-27T08:45:45Z</time>
      </trkpt>
      <trkpt lat="42.453002000" lon="-2.446355000">
        <ele>397.70</ele>
        <time>2013-07-27T08:45:46Z</time>
      </trkpt>
      <trkpt lat="42.452958000" lon="-2.446336000">
        <ele>397.70</ele>
        <time>2013-07-27T08:45:47Z</time>
      </trkpt>
      <trkpt lat="42.452916000" lon="-2.446317000">
        <ele>397.70</ele>
        <time>2013-07-27T08:45:48Z</time>
      </trkpt>
      <trkpt lat="42.452873000" lon="-2.446302000">
        <ele>397.70</ele>
        <time>2013-07-27T08:45:49Z</time>
      </trkpt>
      <trkpt lat="42.452831000" lon="-2.446283000">
        <ele>397.80</ele>
        <time>2013-07-27T08:45:50Z</time>
      </trkpt>
      <trkpt lat="42.452787000" lon="-2.446268000">
        <ele>397.80</ele>
        <time>2013-07-27T08:45:51Z</time>
      </trkpt>
      <trkpt lat="42.452746000" lon="-2.446257000">
        <ele>397.90</ele>
        <time>2013-07-27T08:45:52Z</time>
      </trkpt>
      <trkpt lat="42.452709000" lon="-2.446249000">
        <ele>397.90</ele>
        <time>2013-07-27T08:45:53Z</time>
      </trkpt>
      <trkpt lat="42.452676000" lon="-2.446241000">
        <ele>397.90</ele>
        <time>2013-07-27T08:45:54Z</time>
      </trkpt>
      <trkpt lat="42.452645000" lon="-2.446230000">
        <ele>397.90</ele>
        <time>2013-07-27T08:45:55Z</time>
      </trkpt>
      <trkpt lat="42.452612000" lon="-2.446221000">
        <ele>397.80</ele>
        <time>2013-07-27T08:45:56Z</time>
      </trkpt>
      <trkpt lat="42.452582000" lon="-2.446212000">
        <ele>397.70</ele>
        <time>2013-07-27T08:45:57Z</time>
      </trkpt>
      <trkpt lat="42.452550000" lon="-2.446204000">
        <ele>397.80</ele>
        <time>2013-07-27T08:45:58Z</time>
      </trkpt>
      <trkpt lat="42.452518000" lon="-2.446198000">
        <ele>397.80</ele>
        <time>2013-07-27T08:45:59Z</time>
      </trkpt>
      <trkpt lat="42.452484000" lon="-2.446193000">
        <ele>397.90</ele>
        <time>2013-07-27T08:46:00Z</time>
      </trkpt>
      <trkpt lat="42.452451000" lon="-2.446190000">
        <ele>397.90</ele>
        <time>2013-07-27T08:46:01Z</time>
      </trkpt>
      <trkpt lat="42.452418000" lon="-2.446184000">
        <ele>398.00</ele>
        <time>2013-07-27T08:46:02Z</time>
      </trkpt>
      <trkpt lat="42.452384000" lon="-2.446176000">
        <ele>398.10</ele>
        <time>2013-07-27T08:46:03Z</time>
      </trkpt>
      <trkpt lat="42.452351000" lon="-2.446168000">
        <ele>398.20</ele>
        <time>2013-07-27T08:46:04Z</time>
      </trkpt>
      <trkpt lat="42.452319000" lon="-2.446157000">
        <ele>398.30</ele>
        <time>2013-07-27T08:46:05Z</time>
      </trkpt>
      <trkpt lat="42.452288000" lon="-2.446150000">
        <ele>398.30</ele>
        <time>2013-07-27T08:46:06Z</time>
      </trkpt>
      <trkpt lat="42.452259000" lon="-2.446140000">
        <ele>398.40</ele>
        <time>2013-07-27T08:46:07Z</time>
      </trkpt>
      <trkpt lat="42.452229000" lon="-2.446127000">
        <ele>398.40</ele>
        <time>2013-07-27T08:46:08Z</time>
      </trkpt>
      <trkpt lat="42.452196000" lon="-2.446120000">
        <ele>398.40</ele>
        <time>2013-07-27T08:46:09Z</time>
      </trkpt>
      <trkpt lat="42.452163000" lon="-2.446113000">
        <ele>398.40</ele>
        <time>2013-07-27T08:46:10Z</time>
      </trkpt>
      <trkpt lat="42.452131000" lon="-2.446106000">
        <ele>398.50</ele>
        <time>2013-07-27T08:46:11Z</time>
      </trkpt>
      <trkpt lat="42.452099000" lon="-2.446099000">
        <ele>398.50</ele>
        <time>2013-07-27T08:46:12Z</time>
      </trkpt>
      <trkpt lat="42.452066000" lon="-2.446091000">
        <ele>398.50</ele>
        <time>2013-07-27T08:46:13Z</time>
      </trkpt>
      <trkpt lat="42.452031000" lon="-2.446083000">
        <ele>398.40</ele>
        <time>2013-07-27T08:46:14Z</time>
      </trkpt>
      <trkpt lat="42.451997000" lon="-2.446074000">
        <ele>398.40</ele>
        <time>2013-07-27T08:46:15Z</time>
      </trkpt>
      <trkpt lat="42.451959000" lon="-2.446066000">
        <ele>398.30</ele>
        <time>2013-07-27T08:46:16Z</time>
      </trkpt>
      <trkpt lat="42.451922000" lon="-2.446057000">
        <ele>398.30</ele>
        <time>2013-07-27T08:46:17Z</time>
      </trkpt>
      <trkpt lat="42.451885000" lon="-2.446048000">
        <ele>398.40</ele>
        <time>2013-07-27T08:46:18Z</time>
      </trkpt>
      <trkpt lat="42.451849000" lon="-2.446039000">
        <ele>398.40</ele>
        <time>2013-07-27T08:46:19Z</time>
      </trkpt>
      <trkpt lat="42.451813000" lon="-2.446028000">
        <ele>398.60</ele>
        <time>2013-07-27T08:46:20Z</time>
      </trkpt>
      <trkpt lat="42.451778000" lon="-2.446015000">
        <ele>398.70</ele>
        <time>2013-07-27T08:46:21Z</time>
      </trkpt>
      <trkpt lat="42.451743000" lon="-2.446003000">
        <ele>398.80</ele>
        <time>2013-07-27T08:46:22Z</time>
      </trkpt>
      <trkpt lat="42.451706000" lon="-2.445992000">
        <ele>398.80</ele>
        <time>2013-07-27T08:46:23Z</time>
      </trkpt>
      <trkpt lat="42.451671000" lon="-2.445979000">
        <ele>398.90</ele>
        <time>2013-07-27T08:46:24Z</time>
      </trkpt>
      <trkpt lat="42.451637000" lon="-2.445972000">
        <ele>398.90</ele>
        <time>2013-07-27T08:46:25Z</time>
      </trkpt>
      <trkpt lat="42.451600000" lon="-2.445961000">
        <ele>398.90</ele>
        <time>2013-07-27T08:46:26Z</time>
      </trkpt>
      <trkpt lat="42.451563000" lon="-2.445953000">
        <ele>399.00</ele>
        <time>2013-07-27T08:46:27Z</time>
      </trkpt>
      <trkpt lat="42.451526000" lon="-2.445944000">
        <ele>399.00</ele>
        <time>2013-07-27T08:46:28Z</time>
      </trkpt>
      <trkpt lat="42.451486000" lon="-2.445936000">
        <ele>399.10</ele>
        <time>2013-07-27T08:46:29Z</time>
      </trkpt>
      <trkpt lat="42.451449000" lon="-2.445928000">
        <ele>399.20</ele>
        <time>2013-07-27T08:46:30Z</time>
      </trkpt>
      <trkpt lat="42.451410000" lon="-2.445922000">
        <ele>399.20</ele>
        <time>2013-07-27T08:46:31Z</time>
      </trkpt>
      <trkpt lat="42.451374000" lon="-2.445918000">
        <ele>399.20</ele>
        <time>2013-07-27T08:46:32Z</time>
      </trkpt>
      <trkpt lat="42.451337000" lon="-2.445908000">
        <ele>399.20</ele>
        <time>2013-07-27T08:46:33Z</time>
      </trkpt>
      <trkpt lat="42.451300000" lon="-2.445904000">
        <ele>399.20</ele>
        <time>2013-07-27T08:46:34Z</time>
      </trkpt>
      <trkpt lat="42.451264000" lon="-2.445898000">
        <ele>399.30</ele>
        <time>2013-07-27T08:46:35Z</time>
      </trkpt>
      <trkpt lat="42.451229000" lon="-2.445892000">
        <ele>399.30</ele>
        <time>2013-07-27T08:46:36Z</time>
      </trkpt>
      <trkpt lat="42.451192000" lon="-2.445885000">
        <ele>399.30</ele>
        <time>2013-07-27T08:46:37Z</time>
      </trkpt>
      <trkpt lat="42.451155000" lon="-2.445878000">
        <ele>399.30</ele>
        <time>2013-07-27T08:46:38Z</time>
      </trkpt>
      <trkpt lat="42.451120000" lon="-2.445867000">
        <ele>399.40</ele>
        <time>2013-07-27T08:46:39Z</time>
      </trkpt>
      <trkpt lat="42.451084000" lon="-2.445855000">
        <ele>399.50</ele>
        <time>2013-07-27T08:46:40Z</time>
      </trkpt>
      <trkpt lat="42.451047000" lon="-2.445844000">
        <ele>399.60</ele>
        <time>2013-07-27T08:46:41Z</time>
      </trkpt>
      <trkpt lat="42.451008000" lon="-2.445831000">
        <ele>399.60</ele>
        <time>2013-07-27T08:46:42Z</time>
      </trkpt>
      <trkpt lat="42.450974000" lon="-2.445812000">
        <ele>399.60</ele>
        <time>2013-07-27T08:46:43Z</time>
      </trkpt>
      <trkpt lat="42.450937000" lon="-2.445797000">
        <ele>399.50</ele>
        <time>2013-07-27T08:46:44Z</time>
      </trkpt>
      <trkpt lat="42.450903000" lon="-2.445781000">
        <ele>399.40</ele>
        <time>2013-07-27T08:46:45Z</time>
      </trkpt>
      <trkpt lat="42.450869000" lon="-2.445770000">
        <ele>399.40</ele>
        <time>2013-07-27T08:46:46Z</time>
      </trkpt>
      <trkpt lat="42.450835000" lon="-2.445762000">
        <ele>399.40</ele>
        <time>2013-07-27T08:46:47Z</time>
      </trkpt>
      <trkpt lat="42.450799000" lon="-2.445753000">
        <ele>399.50</ele>
        <time>2013-07-27T08:46:48Z</time>
      </trkpt>
      <trkpt lat="42.450760000" lon="-2.445743000">
        <ele>399.60</ele>
        <time>2013-07-27T08:46:49Z</time>
      </trkpt>
      <trkpt lat="42.450724000" lon="-2.445727000">
        <ele>399.60</ele>
        <time>2013-07-27T08:46:50Z</time>
      </trkpt>
      <trkpt lat="42.450689000" lon="-2.445713000">
        <ele>399.70</ele>
        <time>2013-07-27T08:46:51Z</time>
      </trkpt>
      <trkpt lat="42.450653000" lon="-2.445701000">
        <ele>399.70</ele>
        <time>2013-07-27T08:46:52Z</time>
      </trkpt>
      <trkpt lat="42.450617000" lon="-2.445690000">
        <ele>399.70</ele>
        <time>2013-07-27T08:46:53Z</time>
      </trkpt>
      <trkpt lat="42.450582000" lon="-2.445683000">
        <ele>399.70</ele>
        <time>2013-07-27T08:46:54Z</time>
      </trkpt>
      <trkpt lat="42.450548000" lon="-2.445674000">
        <ele>399.70</ele>
        <time>2013-07-27T08:46:55Z</time>
      </trkpt>
      <trkpt lat="42.450509000" lon="-2.445672000">
        <ele>399.70</ele>
        <time>2013-07-27T08:46:56Z</time>
      </trkpt>
      <trkpt lat="42.450472000" lon="-2.445675000">
        <ele>399.70</ele>
        <time>2013-07-27T08:46:57Z</time>
      </trkpt>
      <trkpt lat="42.450435000" lon="-2.445681000">
        <ele>399.70</ele>
        <time>2013-07-27T08:46:58Z</time>
      </trkpt>
      <trkpt lat="42.450396000" lon="-2.445688000">
        <ele>399.80</ele>
        <time>2013-07-27T08:46:59Z</time>
      </trkpt>
      <trkpt lat="42.450359000" lon="-2.445692000">
        <ele>399.80</ele>
        <time>2013-07-27T08:47:00Z</time>
      </trkpt>
      <trkpt lat="42.450320000" lon="-2.445693000">
        <ele>399.80</ele>
        <time>2013-07-27T08:47:01Z</time>
      </trkpt>
      <trkpt lat="42.450285000" lon="-2.445694000">
        <ele>399.90</ele>
        <time>2013-07-27T08:47:02Z</time>
      </trkpt>
      <trkpt lat="42.450247000" lon="-2.445692000">
        <ele>399.90</ele>
        <time>2013-07-27T08:47:03Z</time>
      </trkpt>
      <trkpt lat="42.450211000" lon="-2.445689000">
        <ele>399.90</ele>
        <time>2013-07-27T08:47:04Z</time>
      </trkpt>
      <trkpt lat="42.450174000" lon="-2.445686000">
        <ele>400.00</ele>
        <time>2013-07-27T08:47:05Z</time>
      </trkpt>
      <trkpt lat="42.450138000" lon="-2.445685000">
        <ele>400.00</ele>
        <time>2013-07-27T08:47:06Z</time>
      </trkpt>
      <trkpt lat="42.450104000" lon="-2.445682000">
        <ele>400.00</ele>
        <time>2013-07-27T08:47:07Z</time>
      </trkpt>
      <trkpt lat="42.450071000" lon="-2.445672000">
        <ele>400.00</ele>
        <time>2013-07-27T08:47:08Z</time>
      </trkpt>
      <trkpt lat="42.450037000" lon="-2.445661000">
        <ele>400.00</ele>
        <time>2013-07-27T08:47:09Z</time>
      </trkpt>
      <trkpt lat="42.450003000" lon="-2.445653000">
        <ele>400.10</ele>
        <time>2013-07-27T08:47:10Z</time>
      </trkpt>
      <trkpt lat="42.449968000" lon="-2.445648000">
        <ele>400.20</ele>
        <time>2013-07-27T08:47:11Z</time>
      </trkpt>
      <trkpt lat="42.449934000" lon="-2.445648000">
        <ele>400.40</ele>
        <time>2013-07-27T08:47:12Z</time>
      </trkpt>
      <trkpt lat="42.449896000" lon="-2.445646000">
        <ele>400.60</ele>
        <time>2013-07-27T08:47:13Z</time>
      </trkpt>
      <trkpt lat="42.449860000" lon="-2.445642000">
        <ele>400.70</ele>
        <time>2013-07-27T08:47:14Z</time>
      </trkpt>
      <trkpt lat="42.449823000" lon="-2.445628000">
        <ele>400.80</ele>
        <time>2013-07-27T08:47:15Z</time>
      </trkpt>
      <trkpt lat="42.449786000" lon="-2.445618000">
        <ele>400.90</ele>
        <time>2013-07-27T08:47:16Z</time>
      </trkpt>
      <trkpt lat="42.449747000" lon="-2.445609000">
        <ele>400.90</ele>
        <time>2013-07-27T08:47:17Z</time>
      </trkpt>
      <trkpt lat="42.449711000" lon="-2.445596000">
        <ele>401.00</ele>
        <time>2013-07-27T08:47:18Z</time>
      </trkpt>
      <trkpt lat="42.449676000" lon="-2.445582000">
        <ele>401.00</ele>
        <time>2013-07-27T08:47:19Z</time>
      </trkpt>
      <trkpt lat="42.449643000" lon="-2.445567000">
        <ele>400.90</ele>
        <time>2013-07-27T08:47:20Z</time>
      </trkpt>
      <trkpt lat="42.449611000" lon="-2.445549000">
        <ele>400.80</ele>
        <time>2013-07-27T08:47:21Z</time>
      </trkpt>
      <trkpt lat="42.449581000" lon="-2.445532000">
        <ele>400.90</ele>
        <time>2013-07-27T08:47:22Z</time>
      </trkpt>
      <trkpt lat="42.449549000" lon="-2.445517000">
        <ele>401.00</ele>
        <time>2013-07-27T08:47:23Z</time>
      </trkpt>
      <trkpt lat="42.449518000" lon="-2.445502000">
        <ele>400.90</ele>
        <time>2013-07-27T08:47:24Z</time>
      </trkpt>
      <trkpt lat="42.449487000" lon="-2.445488000">
        <ele>400.80</ele>
        <time>2013-07-27T08:47:25Z</time>
      </trkpt>
      <trkpt lat="42.449454000" lon="-2.445471000">
        <ele>400.90</ele>
        <time>2013-07-27T08:47:26Z</time>
      </trkpt>
      <trkpt lat="42.449421000" lon="-2.445454000">
        <ele>400.90</ele>
        <time>2013-07-27T08:47:27Z</time>
      </trkpt>
      <trkpt lat="42.449389000" lon="-2.445442000">
        <ele>401.00</ele>
        <time>2013-07-27T08:47:28Z</time>
      </trkpt>
      <trkpt lat="42.449355000" lon="-2.445431000">
        <ele>401.00</ele>
        <time>2013-07-27T08:47:29Z</time>
      </trkpt>
      <trkpt lat="42.449322000" lon="-2.445419000">
        <ele>401.20</ele>
        <time>2013-07-27T08:47:30Z</time>
      </trkpt>
      <trkpt lat="42.449290000" lon="-2.445421000">
        <ele>401.40</ele>
        <time>2013-07-27T08:47:31Z</time>
      </trkpt>
      <trkpt lat="42.449255000" lon="-2.445423000">
        <ele>401.50</ele>
        <time>2013-07-27T08:47:32Z</time>
      </trkpt>
      <trkpt lat="42.449220000" lon="-2.445426000">
        <ele>401.60</ele>
        <time>2013-07-27T08:47:33Z</time>
      </trkpt>
      <trkpt lat="42.449185000" lon="-2.445430000">
        <ele>401.60</ele>
        <time>2013-07-27T08:47:34Z</time>
      </trkpt>
      <trkpt lat="42.449150000" lon="-2.445428000">
        <ele>401.60</ele>
        <time>2013-07-27T08:47:35Z</time>
      </trkpt>
      <trkpt lat="42.449116000" lon="-2.445429000">
        <ele>401.60</ele>
        <time>2013-07-27T08:47:36Z</time>
      </trkpt>
      <trkpt lat="42.449079000" lon="-2.445428000">
        <ele>401.60</ele>
        <time>2013-07-27T08:47:37Z</time>
      </trkpt>
      <trkpt lat="42.449042000" lon="-2.445426000">
        <ele>401.60</ele>
        <time>2013-07-27T08:47:38Z</time>
      </trkpt>
      <trkpt lat="42.449005000" lon="-2.445425000">
        <ele>401.60</ele>
        <time>2013-07-27T08:47:39Z</time>
      </trkpt>
      <trkpt lat="42.448968000" lon="-2.445422000">
        <ele>401.70</ele>
        <time>2013-07-27T08:47:40Z</time>
      </trkpt>
      <trkpt lat="42.448929000" lon="-2.445418000">
        <ele>401.70</ele>
        <time>2013-07-27T08:47:41Z</time>
      </trkpt>
      <trkpt lat="42.448894000" lon="-2.445416000">
        <ele>401.70</ele>
        <time>2013-07-27T08:47:42Z</time>
      </trkpt>
      <trkpt lat="42.448859000" lon="-2.445409000">
        <ele>401.60</ele>
        <time>2013-07-27T08:47:43Z</time>
      </trkpt>
      <trkpt lat="42.448823000" lon="-2.445402000">
        <ele>401.50</ele>
        <time>2013-07-27T08:47:44Z</time>
      </trkpt>
      <trkpt lat="42.448787000" lon="-2.445393000">
        <ele>401.50</ele>
        <time>2013-07-27T08:47:45Z</time>
      </trkpt>
      <trkpt lat="42.448754000" lon="-2.445389000">
        <ele>401.50</ele>
        <time>2013-07-27T08:47:46Z</time>
      </trkpt>
      <trkpt lat="42.448721000" lon="-2.445382000">
        <ele>401.40</ele>
        <time>2013-07-27T08:47:47Z</time>
      </trkpt>
      <trkpt lat="42.448688000" lon="-2.445374000">
        <ele>401.40</ele>
        <time>2013-07-27T08:47:48Z</time>
      </trkpt>
      <trkpt lat="42.448655000" lon="-2.445360000">
        <ele>401.40</ele>
        <time>2013-07-27T08:47:49Z</time>
      </trkpt>
      <trkpt lat="42.448622000" lon="-2.445348000">
        <ele>401.50</ele>
        <time>2013-07-27T08:47:50Z</time>
      </trkpt>
      <trkpt lat="42.448589000" lon="-2.445337000">
        <ele>401.50</ele>
        <time>2013-07-27T08:47:51Z</time>
      </trkpt>
      <trkpt lat="42.448556000" lon="-2.445326000">
        <ele>401.50</ele>
        <time>2013-07-27T08:47:52Z</time>
      </trkpt>
      <trkpt lat="42.448520000" lon="-2.445313000">
        <ele>401.60</ele>
        <time>2013-07-27T08:47:53Z</time>
      </trkpt>
      <trkpt lat="42.448484000" lon="-2.445301000">
        <ele>401.60</ele>
        <time>2013-07-27T08:47:54Z</time>
      </trkpt>
      <trkpt lat="42.448446000" lon="-2.445291000">
        <ele>401.60</ele>
        <time>2013-07-27T08:47:55Z</time>
      </trkpt>
      <trkpt lat="42.448409000" lon="-2.445273000">
        <ele>401.80</ele>
        <time>2013-07-27T08:47:56Z</time>
      </trkpt>
      <trkpt lat="42.448370000" lon="-2.445253000">
        <ele>402.00</ele>
        <time>2013-07-27T08:47:57Z</time>
      </trkpt>
      <trkpt lat="42.448336000" lon="-2.445235000">
        <ele>402.00</ele>
        <time>2013-07-27T08:47:58Z</time>
      </trkpt>
      <trkpt lat="42.448301000" lon="-2.445220000">
        <ele>402.00</ele>
        <time>2013-07-27T08:47:59Z</time>
      </trkpt>
      <trkpt lat="42.448264000" lon="-2.445204000">
        <ele>402.10</ele>
        <time>2013-07-27T08:48:00Z</time>
      </trkpt>
      <trkpt lat="42.448229000" lon="-2.445189000">
        <ele>402.10</ele>
        <time>2013-07-27T08:48:01Z</time>
      </trkpt>
      <trkpt lat="42.448195000" lon="-2.445174000">
        <ele>402.10</ele>
        <time>2013-07-27T08:48:02Z</time>
      </trkpt>
      <trkpt lat="42.448163000" lon="-2.445158000">
        <ele>402.10</ele>
        <time>2013-07-27T08:48:03Z</time>
      </trkpt>
      <trkpt lat="42.448132000" lon="-2.445141000">
        <ele>402.30</ele>
        <time>2013-07-27T08:48:04Z</time>
      </trkpt>
      <trkpt lat="42.448104000" lon="-2.445118000">
        <ele>402.40</ele>
        <time>2013-07-27T08:48:05Z</time>
      </trkpt>
      <trkpt lat="42.448074000" lon="-2.445094000">
        <ele>402.40</ele>
        <time>2013-07-27T08:48:06Z</time>
      </trkpt>
      <trkpt lat="42.448043000" lon="-2.445069000">
        <ele>402.50</ele>
        <time>2013-07-27T08:48:07Z</time>
      </trkpt>
      <trkpt lat="42.448011000" lon="-2.445046000">
        <ele>402.60</ele>
        <time>2013-07-27T08:48:08Z</time>
      </trkpt>
      <trkpt lat="42.447978000" lon="-2.445024000">
        <ele>402.70</ele>
        <time>2013-07-27T08:48:09Z</time>
      </trkpt>
      <trkpt lat="42.447946000" lon="-2.444997000">
        <ele>402.80</ele>
        <time>2013-07-27T08:48:10Z</time>
      </trkpt>
      <trkpt lat="42.447913000" lon="-2.444973000">
        <ele>402.80</ele>
        <time>2013-07-27T08:48:11Z</time>
      </trkpt>
      <trkpt lat="42.447881000" lon="-2.444950000">
        <ele>402.80</ele>
        <time>2013-07-27T08:48:12Z</time>
      </trkpt>
      <trkpt lat="42.447849000" lon="-2.444927000">
        <ele>402.90</ele>
        <time>2013-07-27T08:48:13Z</time>
      </trkpt>
      <trkpt lat="42.447816000" lon="-2.444904000">
        <ele>402.90</ele>
        <time>2013-07-27T08:48:14Z</time>
      </trkpt>
      <trkpt lat="42.447786000" lon="-2.444878000">
        <ele>403.00</ele>
        <time>2013-07-27T08:48:15Z</time>
      </trkpt>
      <trkpt lat="42.447757000" lon="-2.444852000">
        <ele>403.00</ele>
        <time>2013-07-27T08:48:16Z</time>
      </trkpt>
      <trkpt lat="42.447727000" lon="-2.444825000">
        <ele>403.00</ele>
        <time>2013-07-27T08:48:17Z</time>
      </trkpt>
      <trkpt lat="42.447697000" lon="-2.444799000">
        <ele>403.00</ele>
        <time>2013-07-27T08:48:18Z</time>
      </trkpt>
      <trkpt lat="42.447668000" lon="-2.444772000">
        <ele>403.00</ele>
        <time>2013-07-27T08:48:19Z</time>
      </trkpt>
      <trkpt lat="42.447635000" lon="-2.444744000">
        <ele>403.00</ele>
        <time>2013-07-27T08:48:20Z</time>
      </trkpt>
      <trkpt lat="42.447607000" lon="-2.444720000">
        <ele>403.00</ele>
        <time>2013-07-27T08:48:21Z</time>
      </trkpt>
      <trkpt lat="42.447579000" lon="-2.444696000">
        <ele>402.90</ele>
        <time>2013-07-27T08:48:22Z</time>
      </trkpt>
      <trkpt lat="42.447553000" lon="-2.444674000">
        <ele>402.90</ele>
        <time>2013-07-27T08:48:23Z</time>
      </trkpt>
      <trkpt lat="42.447532000" lon="-2.444650000">
        <ele>402.90</ele>
        <time>2013-07-27T08:48:24Z</time>
      </trkpt>
      <trkpt lat="42.447517000" lon="-2.444629000">
        <ele>402.90</ele>
        <time>2013-07-27T08:48:25Z</time>
      </trkpt>
      <trkpt lat="42.447503000" lon="-2.444608000">
        <ele>402.90</ele>
        <time>2013-07-27T08:48:26Z</time>
      </trkpt>
      <trkpt lat="42.447487000" lon="-2.444586000">
        <ele>402.90</ele>
        <time>2013-07-27T08:48:27Z</time>
      </trkpt>
      <trkpt lat="42.447469000" lon="-2.444562000">
        <ele>402.90</ele>
        <time>2013-07-27T08:48:28Z</time>
      </trkpt>
      <trkpt lat="42.447448000" lon="-2.444534000">
        <ele>402.90</ele>
        <time>2013-07-27T08:48:29Z</time>
      </trkpt>
      <trkpt lat="42.447423000" lon="-2.444505000">
        <ele>403.10</ele>
        <time>2013-07-27T08:48:30Z</time>
      </trkpt>
      <trkpt lat="42.447393000" lon="-2.444480000">
        <ele>403.20</ele>
        <time>2013-07-27T08:48:31Z</time>
      </trkpt>
      <trkpt lat="42.447361000" lon="-2.444454000">
        <ele>403.20</ele>
        <time>2013-07-27T08:48:32Z</time>
      </trkpt>
      <trkpt lat="42.447330000" lon="-2.444432000">
        <ele>403.30</ele>
        <time>2013-07-27T08:48:33Z</time>
      </trkpt>
      <trkpt lat="42.447300000" lon="-2.444412000">
        <ele>403.30</ele>
        <time>2013-07-27T08:48:34Z</time>
      </trkpt>
      <trkpt lat="42.447273000" lon="-2.444392000">
        <ele>403.40</ele>
        <time>2013-07-27T08:48:35Z</time>
      </trkpt>
      <trkpt lat="42.447246000" lon="-2.444371000">
        <ele>403.30</ele>
        <time>2013-07-27T08:48:36Z</time>
      </trkpt>
      <trkpt lat="42.447213000" lon="-2.444350000">
        <ele>403.30</ele>
        <time>2013-07-27T08:48:37Z</time>
      </trkpt>
      <trkpt lat="42.447182000" lon="-2.444331000">
        <ele>403.30</ele>
        <time>2013-07-27T08:48:38Z</time>
      </trkpt>
      <trkpt lat="42.447150000" lon="-2.444317000">
        <ele>403.30</ele>
        <time>2013-07-27T08:48:39Z</time>
      </trkpt>
      <trkpt lat="42.447118000" lon="-2.444304000">
        <ele>403.20</ele>
        <time>2013-07-27T08:48:40Z</time>
      </trkpt>
      <trkpt lat="42.447083000" lon="-2.444289000">
        <ele>403.20</ele>
        <time>2013-07-27T08:48:41Z</time>
      </trkpt>
      <trkpt lat="42.447047000" lon="-2.444275000">
        <ele>403.20</ele>
        <time>2013-07-27T08:48:42Z</time>
      </trkpt>
      <trkpt lat="42.447014000" lon="-2.444261000">
        <ele>403.20</ele>
        <time>2013-07-27T08:48:43Z</time>
      </trkpt>
      <trkpt lat="42.446981000" lon="-2.444247000">
        <ele>403.30</ele>
        <time>2013-07-27T08:48:44Z</time>
      </trkpt>
      <trkpt lat="42.446947000" lon="-2.444231000">
        <ele>403.30</ele>
        <time>2013-07-27T08:48:45Z</time>
      </trkpt>
      <trkpt lat="42.446914000" lon="-2.444214000">
        <ele>403.40</ele>
        <time>2013-07-27T08:48:46Z</time>
      </trkpt>
      <trkpt lat="42.446878000" lon="-2.444198000">
        <ele>403.50</ele>
        <time>2013-07-27T08:48:47Z</time>
      </trkpt>
      <trkpt lat="42.446847000" lon="-2.444179000">
        <ele>403.50</ele>
        <time>2013-07-27T08:48:48Z</time>
      </trkpt>
      <trkpt lat="42.446814000" lon="-2.444162000">
        <ele>403.50</ele>
        <time>2013-07-27T08:48:49Z</time>
      </trkpt>
      <trkpt lat="42.446780000" lon="-2.444142000">
        <ele>403.50</ele>
        <time>2013-07-27T08:48:50Z</time>
      </trkpt>
      <trkpt lat="42.446746000" lon="-2.444124000">
        <ele>403.60</ele>
        <time>2013-07-27T08:48:51Z</time>
      </trkpt>
      <trkpt lat="42.446714000" lon="-2.444104000">
        <ele>403.70</ele>
        <time>2013-07-27T08:48:52Z</time>
      </trkpt>
      <trkpt lat="42.446680000" lon="-2.444085000">
        <ele>403.80</ele>
        <time>2013-07-27T08:48:53Z</time>
      </trkpt>
      <trkpt lat="42.446647000" lon="-2.444065000">
        <ele>403.80</ele>
        <time>2013-07-27T08:48:54Z</time>
      </trkpt>
      <trkpt lat="42.446614000" lon="-2.444047000">
        <ele>403.90</ele>
        <time>2013-07-27T08:48:55Z</time>
      </trkpt>
      <trkpt lat="42.446580000" lon="-2.444028000">
        <ele>403.90</ele>
        <time>2013-07-27T08:48:56Z</time>
      </trkpt>
      <trkpt lat="42.446544000" lon="-2.444010000">
        <ele>403.90</ele>
        <time>2013-07-27T08:48:57Z</time>
      </trkpt>
      <trkpt lat="42.446512000" lon="-2.443995000">
        <ele>403.70</ele>
        <time>2013-07-27T08:48:58Z</time>
      </trkpt>
      <trkpt lat="42.446480000" lon="-2.443978000">
        <ele>403.60</ele>
        <time>2013-07-27T08:48:59Z</time>
      </trkpt>
      <trkpt lat="42.446444000" lon="-2.443961000">
        <ele>403.50</ele>
        <time>2013-07-27T08:49:00Z</time>
      </trkpt>
      <trkpt lat="42.446409000" lon="-2.443942000">
        <ele>403.40</ele>
        <time>2013-07-27T08:49:01Z</time>
      </trkpt>
      <trkpt lat="42.446376000" lon="-2.443924000">
        <ele>403.50</ele>
        <time>2013-07-27T08:49:02Z</time>
      </trkpt>
      <trkpt lat="42.446343000" lon="-2.443906000">
        <ele>403.60</ele>
        <time>2013-07-27T08:49:03Z</time>
      </trkpt>
      <trkpt lat="42.446309000" lon="-2.443883000">
        <ele>403.80</ele>
        <time>2013-07-27T08:49:04Z</time>
      </trkpt>
      <trkpt lat="42.446273000" lon="-2.443858000">
        <ele>404.00</ele>
        <time>2013-07-27T08:49:05Z</time>
      </trkpt>
      <trkpt lat="42.446234000" lon="-2.443840000">
        <ele>404.20</ele>
        <time>2013-07-27T08:49:06Z</time>
      </trkpt>
      <trkpt lat="42.446201000" lon="-2.443824000">
        <ele>404.30</ele>
        <time>2013-07-27T08:49:07Z</time>
      </trkpt>
      <trkpt lat="42.446170000" lon="-2.443811000">
        <ele>404.40</ele>
        <time>2013-07-27T08:49:08Z</time>
      </trkpt>
      <trkpt lat="42.446139000" lon="-2.443798000">
        <ele>404.50</ele>
        <time>2013-07-27T08:49:09Z</time>
      </trkpt>
      <trkpt lat="42.446106000" lon="-2.443794000">
        <ele>404.40</ele>
        <time>2013-07-27T08:49:10Z</time>
      </trkpt>
      <trkpt lat="42.446068000" lon="-2.443794000">
        <ele>404.30</ele>
        <time>2013-07-27T08:49:11Z</time>
      </trkpt>
      <trkpt lat="42.446029000" lon="-2.443794000">
        <ele>404.20</ele>
        <time>2013-07-27T08:49:12Z</time>
      </trkpt>
      <trkpt lat="42.445992000" lon="-2.443796000">
        <ele>404.20</ele>
        <time>2013-07-27T08:49:13Z</time>
      </trkpt>
      <trkpt lat="42.445955000" lon="-2.443802000">
        <ele>404.20</ele>
        <time>2013-07-27T08:49:14Z</time>
      </trkpt>
      <trkpt lat="42.445919000" lon="-2.443807000">
        <ele>404.30</ele>
        <time>2013-07-27T08:49:15Z</time>
      </trkpt>
      <trkpt lat="42.445883000" lon="-2.443810000">
        <ele>404.40</ele>
        <time>2013-07-27T08:49:16Z</time>
      </trkpt>
      <trkpt lat="42.445847000" lon="-2.443817000">
        <ele>404.40</ele>
        <time>2013-07-27T08:49:17Z</time>
      </trkpt>
      <trkpt lat="42.445810000" lon="-2.443822000">
        <ele>404.40</ele>
        <time>2013-07-27T08:49:18Z</time>
      </trkpt>
      <trkpt lat="42.445773000" lon="-2.443827000">
        <ele>404.40</ele>
        <time>2013-07-27T08:49:19Z</time>
      </trkpt>
      <trkpt lat="42.445740000" lon="-2.443832000">
        <ele>404.40</ele>
        <time>2013-07-27T08:49:20Z</time>
      </trkpt>
      <trkpt lat="42.445704000" lon="-2.443835000">
        <ele>404.40</ele>
        <time>2013-07-27T08:49:21Z</time>
      </trkpt>
      <trkpt lat="42.445667000" lon="-2.443838000">
        <ele>404.40</ele>
        <time>2013-07-27T08:49:22Z</time>
      </trkpt>
      <trkpt lat="42.445632000" lon="-2.443842000">
        <ele>404.40</ele>
        <time>2013-07-27T08:49:23Z</time>
      </trkpt>
      <trkpt lat="42.445596000" lon="-2.443841000">
        <ele>404.40</ele>
        <time>2013-07-27T08:49:24Z</time>
      </trkpt>
      <trkpt lat="42.445562000" lon="-2.443844000">
        <ele>404.50</ele>
        <time>2013-07-27T08:49:25Z</time>
      </trkpt>
      <trkpt lat="42.445525000" lon="-2.443849000">
        <ele>404.50</ele>
        <time>2013-07-27T08:49:26Z</time>
      </trkpt>
      <trkpt lat="42.445490000" lon="-2.443852000">
        <ele>404.50</ele>
        <time>2013-07-27T08:49:27Z</time>
      </trkpt>
      <trkpt lat="42.445453000" lon="-2.443858000">
        <ele>404.50</ele>
        <time>2013-07-27T08:49:28Z</time>
      </trkpt>
      <trkpt lat="42.445417000" lon="-2.443862000">
        <ele>404.50</ele>
        <time>2013-07-27T08:49:29Z</time>
      </trkpt>
      <trkpt lat="42.445381000" lon="-2.443869000">
        <ele>404.50</ele>
        <time>2013-07-27T08:49:30Z</time>
      </trkpt>
      <trkpt lat="42.445346000" lon="-2.443876000">
        <ele>404.50</ele>
        <time>2013-07-27T08:49:31Z</time>
      </trkpt>
      <trkpt lat="42.445310000" lon="-2.443882000">
        <ele>404.60</ele>
        <time>2013-07-27T08:49:32Z</time>
      </trkpt>
      <trkpt lat="42.445274000" lon="-2.443886000">
        <ele>404.60</ele>
        <time>2013-07-27T08:49:33Z</time>
      </trkpt>
      <trkpt lat="42.445238000" lon="-2.443891000">
        <ele>404.80</ele>
        <time>2013-07-27T08:49:34Z</time>
      </trkpt>
      <trkpt lat="42.445203000" lon="-2.443896000">
        <ele>404.90</ele>
        <time>2013-07-27T08:49:35Z</time>
      </trkpt>
      <trkpt lat="42.445167000" lon="-2.443901000">
        <ele>404.90</ele>
        <time>2013-07-27T08:49:36Z</time>
      </trkpt>
      <trkpt lat="42.445132000" lon="-2.443903000">
        <ele>404.80</ele>
        <time>2013-07-27T08:49:37Z</time>
      </trkpt>
      <trkpt lat="42.445096000" lon="-2.443912000">
        <ele>405.00</ele>
        <time>2013-07-27T08:49:38Z</time>
      </trkpt>
      <trkpt lat="42.445061000" lon="-2.443917000">
        <ele>405.20</ele>
        <time>2013-07-27T08:49:39Z</time>
      </trkpt>
      <trkpt lat="42.445025000" lon="-2.443923000">
        <ele>405.20</ele>
        <time>2013-07-27T08:49:40Z</time>
      </trkpt>
      <trkpt lat="42.444985000" lon="-2.443928000">
        <ele>405.20</ele>
        <time>2013-07-27T08:49:41Z</time>
      </trkpt>
      <trkpt lat="42.444949000" lon="-2.443932000">
        <ele>405.30</ele>
        <time>2013-07-27T08:49:42Z</time>
      </trkpt>
      <trkpt lat="42.444915000" lon="-2.443938000">
        <ele>405.40</ele>
        <time>2013-07-27T08:49:43Z</time>
      </trkpt>
      <trkpt lat="42.444878000" lon="-2.443936000">
        <ele>405.50</ele>
        <time>2013-07-27T08:49:44Z</time>
      </trkpt>
      <trkpt lat="42.444840000" lon="-2.443939000">
        <ele>405.60</ele>
        <time>2013-07-27T08:49:45Z</time>
      </trkpt>
      <trkpt lat="42.444804000" lon="-2.443943000">
        <ele>405.70</ele>
        <time>2013-07-27T08:49:46Z</time>
      </trkpt>
      <trkpt lat="42.444769000" lon="-2.443948000">
        <ele>405.80</ele>
        <time>2013-07-27T08:49:47Z</time>
      </trkpt>
      <trkpt lat="42.444733000" lon="-2.443952000">
        <ele>405.90</ele>
        <time>2013-07-27T08:49:48Z</time>
      </trkpt>
      <trkpt lat="42.444699000" lon="-2.443956000">
        <ele>406.00</ele>
        <time>2013-07-27T08:49:49Z</time>
      </trkpt>
      <trkpt lat="42.444666000" lon="-2.443966000">
        <ele>406.20</ele>
        <time>2013-07-27T08:49:50Z</time>
      </trkpt>
      <trkpt lat="42.444631000" lon="-2.443973000">
        <ele>406.30</ele>
        <time>2013-07-27T08:49:51Z</time>
      </trkpt>
      <trkpt lat="42.444593000" lon="-2.443971000">
        <ele>406.40</ele>
        <time>2013-07-27T08:49:52Z</time>
      </trkpt>
      <trkpt lat="42.444555000" lon="-2.443973000">
        <ele>406.40</ele>
        <time>2013-07-27T08:49:53Z</time>
      </trkpt>
      <trkpt lat="42.444516000" lon="-2.443978000">
        <ele>406.30</ele>
        <time>2013-07-27T08:49:54Z</time>
      </trkpt>
      <trkpt lat="42.444480000" lon="-2.443984000">
        <ele>406.30</ele>
        <time>2013-07-27T08:49:55Z</time>
      </trkpt>
      <trkpt lat="42.444447000" lon="-2.443993000">
        <ele>406.20</ele>
        <time>2013-07-27T08:49:56Z</time>
      </trkpt>
      <trkpt lat="42.444412000" lon="-2.443999000">
        <ele>406.20</ele>
        <time>2013-07-27T08:49:57Z</time>
      </trkpt>
      <trkpt lat="42.444376000" lon="-2.444002000">
        <ele>406.20</ele>
        <time>2013-07-27T08:49:58Z</time>
      </trkpt>
      <trkpt lat="42.444341000" lon="-2.444007000">
        <ele>406.10</ele>
        <time>2013-07-27T08:49:59Z</time>
      </trkpt>
      <trkpt lat="42.444305000" lon="-2.444016000">
        <ele>406.20</ele>
        <time>2013-07-27T08:50:00Z</time>
      </trkpt>
      <trkpt lat="42.444271000" lon="-2.444025000">
        <ele>406.20</ele>
        <time>2013-07-27T08:50:01Z</time>
      </trkpt>
      <trkpt lat="42.444236000" lon="-2.444025000">
        <ele>406.20</ele>
        <time>2013-07-27T08:50:02Z</time>
      </trkpt>
      <trkpt lat="42.444197000" lon="-2.444026000">
        <ele>406.30</ele>
        <time>2013-07-27T08:50:03Z</time>
      </trkpt>
      <trkpt lat="42.444161000" lon="-2.444025000">
        <ele>406.30</ele>
        <time>2013-07-27T08:50:04Z</time>
      </trkpt>
      <trkpt lat="42.444124000" lon="-2.444022000">
        <ele>406.30</ele>
        <time>2013-07-27T08:50:05Z</time>
      </trkpt>
      <trkpt lat="42.444085000" lon="-2.444017000">
        <ele>406.30</ele>
        <time>2013-07-27T08:50:06Z</time>
      </trkpt>
      <trkpt lat="42.444050000" lon="-2.444012000">
        <ele>406.30</ele>
        <time>2013-07-27T08:50:07Z</time>
      </trkpt>
      <trkpt lat="42.444013000" lon="-2.444007000">
        <ele>406.30</ele>
        <time>2013-07-27T08:50:08Z</time>
      </trkpt>
      <trkpt lat="42.443976000" lon="-2.444006000">
        <ele>406.30</ele>
        <time>2013-07-27T08:50:09Z</time>
      </trkpt>
      <trkpt lat="42.443940000" lon="-2.444004000">
        <ele>406.30</ele>
        <time>2013-07-27T08:50:10Z</time>
      </trkpt>
      <trkpt lat="42.443903000" lon="-2.444002000">
        <ele>406.30</ele>
        <time>2013-07-27T08:50:11Z</time>
      </trkpt>
      <trkpt lat="42.443865000" lon="-2.444000000">
        <ele>406.50</ele>
        <time>2013-07-27T08:50:12Z</time>
      </trkpt>
      <trkpt lat="42.443830000" lon="-2.443999000">
        <ele>406.60</ele>
        <time>2013-07-27T08:50:13Z</time>
      </trkpt>
      <trkpt lat="42.443793000" lon="-2.443995000">
        <ele>406.60</ele>
        <time>2013-07-27T08:50:14Z</time>
      </trkpt>
      <trkpt lat="42.443756000" lon="-2.443995000">
        <ele>406.70</ele>
        <time>2013-07-27T08:50:15Z</time>
      </trkpt>
      <trkpt lat="42.443717000" lon="-2.443990000">
        <ele>406.80</ele>
        <time>2013-07-27T08:50:16Z</time>
      </trkpt>
      <trkpt lat="42.443684000" lon="-2.443993000">
        <ele>406.90</ele>
        <time>2013-07-27T08:50:17Z</time>
      </trkpt>
      <trkpt lat="42.443650000" lon="-2.443993000">
        <ele>406.90</ele>
        <time>2013-07-27T08:50:18Z</time>
      </trkpt>
      <trkpt lat="42.443612000" lon="-2.443993000">
        <ele>407.00</ele>
        <time>2013-07-27T08:50:19Z</time>
      </trkpt>
      <trkpt lat="42.443579000" lon="-2.443991000">
        <ele>407.00</ele>
        <time>2013-07-27T08:50:20Z</time>
      </trkpt>
      <trkpt lat="42.443541000" lon="-2.443992000">
        <ele>407.00</ele>
        <time>2013-07-27T08:50:21Z</time>
      </trkpt>
      <trkpt lat="42.443503000" lon="-2.444000000">
        <ele>407.10</ele>
        <time>2013-07-27T08:50:22Z</time>
      </trkpt>
      <trkpt lat="42.443467000" lon="-2.444002000">
        <ele>407.10</ele>
        <time>2013-07-27T08:50:23Z</time>
      </trkpt>
      <trkpt lat="42.443431000" lon="-2.444005000">
        <ele>407.10</ele>
        <time>2013-07-27T08:50:24Z</time>
      </trkpt>
      <trkpt lat="42.443394000" lon="-2.444009000">
        <ele>407.10</ele>
        <time>2013-07-27T08:50:25Z</time>
      </trkpt>
      <trkpt lat="42.443360000" lon="-2.444012000">
        <ele>407.10</ele>
        <time>2013-07-27T08:50:26Z</time>
      </trkpt>
      <trkpt lat="42.443322000" lon="-2.444016000">
        <ele>407.10</ele>
        <time>2013-07-27T08:50:27Z</time>
      </trkpt>
      <trkpt lat="42.443288000" lon="-2.444017000">
        <ele>407.10</ele>
        <time>2013-07-27T08:50:28Z</time>
      </trkpt>
      <trkpt lat="42.443254000" lon="-2.444018000">
        <ele>407.10</ele>
        <time>2013-07-27T08:50:29Z</time>
      </trkpt>
      <trkpt lat="42.443220000" lon="-2.444016000">
        <ele>407.20</ele>
        <time>2013-07-27T08:50:30Z</time>
      </trkpt>
      <trkpt lat="42.443185000" lon="-2.444007000">
        <ele>407.20</ele>
        <time>2013-07-27T08:50:31Z</time>
      </trkpt>
      <trkpt lat="42.443148000" lon="-2.443995000">
        <ele>407.30</ele>
        <time>2013-07-27T08:50:32Z</time>
      </trkpt>
      <trkpt lat="42.443115000" lon="-2.443984000">
        <ele>407.40</ele>
        <time>2013-07-27T08:50:33Z</time>
      </trkpt>
      <trkpt lat="42.443081000" lon="-2.443973000">
        <ele>407.40</ele>
        <time>2013-07-27T08:50:34Z</time>
      </trkpt>
      <trkpt lat="42.443048000" lon="-2.443961000">
        <ele>407.40</ele>
        <time>2013-07-27T08:50:35Z</time>
      </trkpt>
      <trkpt lat="42.443013000" lon="-2.443950000">
        <ele>407.50</ele>
        <time>2013-07-27T08:50:36Z</time>
      </trkpt>
      <trkpt lat="42.442976000" lon="-2.443938000">
        <ele>407.50</ele>
        <time>2013-07-27T08:50:37Z</time>
      </trkpt>
      <trkpt lat="42.442942000" lon="-2.443927000">
        <ele>407.50</ele>
        <time>2013-07-27T08:50:38Z</time>
      </trkpt>
      <trkpt lat="42.442906000" lon="-2.443917000">
        <ele>407.50</ele>
        <time>2013-07-27T08:50:39Z</time>
      </trkpt>
      <trkpt lat="42.442869000" lon="-2.443912000">
        <ele>407.50</ele>
        <time>2013-07-27T08:50:40Z</time>
      </trkpt>
      <trkpt lat="42.442830000" lon="-2.443911000">
        <ele>407.50</ele>
        <time>2013-07-27T08:50:41Z</time>
      </trkpt>
      <trkpt lat="42.442794000" lon="-2.443908000">
        <ele>407.60</ele>
        <time>2013-07-27T08:50:42Z</time>
      </trkpt>
      <trkpt lat="42.442758000" lon="-2.443909000">
        <ele>407.70</ele>
        <time>2013-07-27T08:50:43Z</time>
      </trkpt>
      <trkpt lat="42.442723000" lon="-2.443911000">
        <ele>407.60</ele>
        <time>2013-07-27T08:50:44Z</time>
      </trkpt>
      <trkpt lat="42.442689000" lon="-2.443916000">
        <ele>407.60</ele>
        <time>2013-07-27T08:50:45Z</time>
      </trkpt>
      <trkpt lat="42.442658000" lon="-2.443921000">
        <ele>407.70</ele>
        <time>2013-07-27T08:50:46Z</time>
      </trkpt>
      <trkpt lat="42.442625000" lon="-2.443929000">
        <ele>407.80</ele>
        <time>2013-07-27T08:50:47Z</time>
      </trkpt>
      <trkpt lat="42.442595000" lon="-2.443941000">
        <ele>407.90</ele>
        <time>2013-07-27T08:50:48Z</time>
      </trkpt>
      <trkpt lat="42.442565000" lon="-2.443957000">
        <ele>407.90</ele>
        <time>2013-07-27T08:50:49Z</time>
      </trkpt>
      <trkpt lat="42.442534000" lon="-2.443973000">
        <ele>408.00</ele>
        <time>2013-07-27T08:50:50Z</time>
      </trkpt>
      <trkpt lat="42.442503000" lon="-2.443991000">
        <ele>408.10</ele>
        <time>2013-07-27T08:50:51Z</time>
      </trkpt>
      <trkpt lat="42.442472000" lon="-2.444006000">
        <ele>408.30</ele>
        <time>2013-07-27T08:50:52Z</time>
      </trkpt>
      <trkpt lat="42.442441000" lon="-2.444019000">
        <ele>408.40</ele>
        <time>2013-07-27T08:50:53Z</time>
      </trkpt>
      <trkpt lat="42.442412000" lon="-2.444035000">
        <ele>408.40</ele>
        <time>2013-07-27T08:50:54Z</time>
      </trkpt>
      <trkpt lat="42.442385000" lon="-2.444050000">
        <ele>408.40</ele>
        <time>2013-07-27T08:50:55Z</time>
      </trkpt>
      <trkpt lat="42.442356000" lon="-2.444065000">
        <ele>408.50</ele>
        <time>2013-07-27T08:50:56Z</time>
      </trkpt>
      <trkpt lat="42.442327000" lon="-2.444079000">
        <ele>408.60</ele>
        <time>2013-07-27T08:50:57Z</time>
      </trkpt>
      <trkpt lat="42.442294000" lon="-2.444093000">
        <ele>408.70</ele>
        <time>2013-07-27T08:50:58Z</time>
      </trkpt>
      <trkpt lat="42.442262000" lon="-2.444107000">
        <ele>408.70</ele>
        <time>2013-07-27T08:50:59Z</time>
      </trkpt>
      <trkpt lat="42.442229000" lon="-2.444120000">
        <ele>408.70</ele>
        <time>2013-07-27T08:51:00Z</time>
      </trkpt>
      <trkpt lat="42.442196000" lon="-2.444134000">
        <ele>408.80</ele>
        <time>2013-07-27T08:51:01Z</time>
      </trkpt>
      <trkpt lat="42.442161000" lon="-2.444146000">
        <ele>408.80</ele>
        <time>2013-07-27T08:51:02Z</time>
      </trkpt>
      <trkpt lat="42.442127000" lon="-2.444158000">
        <ele>408.80</ele>
        <time>2013-07-27T08:51:03Z</time>
      </trkpt>
      <trkpt lat="42.442095000" lon="-2.444167000">
        <ele>408.80</ele>
        <time>2013-07-27T08:51:04Z</time>
      </trkpt>
      <trkpt lat="42.442066000" lon="-2.444180000">
        <ele>408.80</ele>
        <time>2013-07-27T08:51:05Z</time>
      </trkpt>
      <trkpt lat="42.442034000" lon="-2.444195000">
        <ele>408.80</ele>
        <time>2013-07-27T08:51:06Z</time>
      </trkpt>
      <trkpt lat="42.442004000" lon="-2.444208000">
        <ele>408.80</ele>
        <time>2013-07-27T08:51:07Z</time>
      </trkpt>
      <trkpt lat="42.441974000" lon="-2.444222000">
        <ele>408.80</ele>
        <time>2013-07-27T08:51:08Z</time>
      </trkpt>
      <trkpt lat="42.441942000" lon="-2.444232000">
        <ele>408.70</ele>
        <time>2013-07-27T08:51:09Z</time>
      </trkpt>
      <trkpt lat="42.441910000" lon="-2.444242000">
        <ele>408.70</ele>
        <time>2013-07-27T08:51:10Z</time>
      </trkpt>
      <trkpt lat="42.441878000" lon="-2.444254000">
        <ele>408.70</ele>
        <time>2013-07-27T08:51:11Z</time>
      </trkpt>
      <trkpt lat="42.441850000" lon="-2.444266000">
        <ele>408.70</ele>
        <time>2013-07-27T08:51:12Z</time>
      </trkpt>
      <trkpt lat="42.441819000" lon="-2.444280000">
        <ele>408.60</ele>
        <time>2013-07-27T08:51:13Z</time>
      </trkpt>
      <trkpt lat="42.441789000" lon="-2.444294000">
        <ele>408.70</ele>
        <time>2013-07-27T08:51:14Z</time>
      </trkpt>
      <trkpt lat="42.441756000" lon="-2.444308000">
        <ele>408.70</ele>
        <time>2013-07-27T08:51:15Z</time>
      </trkpt>
      <trkpt lat="42.441723000" lon="-2.444327000">
        <ele>408.80</ele>
        <time>2013-07-27T08:51:16Z</time>
      </trkpt>
      <trkpt lat="42.441691000" lon="-2.444341000">
        <ele>408.80</ele>
        <time>2013-07-27T08:51:17Z</time>
      </trkpt>
      <trkpt lat="42.441659000" lon="-2.444356000">
        <ele>408.90</ele>
        <time>2013-07-27T08:51:18Z</time>
      </trkpt>
      <trkpt lat="42.441627000" lon="-2.444372000">
        <ele>409.00</ele>
        <time>2013-07-27T08:51:19Z</time>
      </trkpt>
      <trkpt lat="42.441597000" lon="-2.444390000">
        <ele>409.10</ele>
        <time>2013-07-27T08:51:20Z</time>
      </trkpt>
      <trkpt lat="42.441568000" lon="-2.444405000">
        <ele>409.10</ele>
        <time>2013-07-27T08:51:21Z</time>
      </trkpt>
      <trkpt lat="42.441538000" lon="-2.444422000">
        <ele>409.20</ele>
        <time>2013-07-27T08:51:22Z</time>
      </trkpt>
      <trkpt lat="42.441505000" lon="-2.444438000">
        <ele>409.20</ele>
        <time>2013-07-27T08:51:23Z</time>
      </trkpt>
      <trkpt lat="42.441473000" lon="-2.444453000">
        <ele>409.20</ele>
        <time>2013-07-27T08:51:24Z</time>
      </trkpt>
      <trkpt lat="42.441441000" lon="-2.444464000">
        <ele>409.20</ele>
        <time>2013-07-27T08:51:25Z</time>
      </trkpt>
      <trkpt lat="42.441409000" lon="-2.444473000">
        <ele>409.20</ele>
        <time>2013-07-27T08:51:26Z</time>
      </trkpt>
      <trkpt lat="42.441377000" lon="-2.444488000">
        <ele>409.10</ele>
        <time>2013-07-27T08:51:27Z</time>
      </trkpt>
      <trkpt lat="42.441342000" lon="-2.444500000">
        <ele>409.10</ele>
        <time>2013-07-27T08:51:28Z</time>
      </trkpt>
      <trkpt lat="42.441309000" lon="-2.444513000">
        <ele>409.10</ele>
        <time>2013-07-27T08:51:29Z</time>
      </trkpt>
      <trkpt lat="42.441276000" lon="-2.444529000">
        <ele>409.30</ele>
        <time>2013-07-27T08:51:30Z</time>
      </trkpt>
      <trkpt lat="42.441241000" lon="-2.444542000">
        <ele>409.40</ele>
        <time>2013-07-27T08:51:31Z</time>
      </trkpt>
      <trkpt lat="42.441206000" lon="-2.444554000">
        <ele>409.60</ele>
        <time>2013-07-27T08:51:32Z</time>
      </trkpt>
      <trkpt lat="42.441169000" lon="-2.444559000">
        <ele>409.60</ele>
        <time>2013-07-27T08:51:33Z</time>
      </trkpt>
      <trkpt lat="42.441133000" lon="-2.444563000">
        <ele>409.70</ele>
        <time>2013-07-27T08:51:34Z</time>
      </trkpt>
      <trkpt lat="42.441097000" lon="-2.444563000">
        <ele>409.80</ele>
        <time>2013-07-27T08:51:35Z</time>
      </trkpt>
      <trkpt lat="42.441063000" lon="-2.444564000">
        <ele>409.80</ele>
        <time>2013-07-27T08:51:36Z</time>
      </trkpt>
      <trkpt lat="42.441031000" lon="-2.444566000">
        <ele>409.80</ele>
        <time>2013-07-27T08:51:37Z</time>
      </trkpt>
      <trkpt lat="42.440999000" lon="-2.444565000">
        <ele>409.80</ele>
        <time>2013-07-27T08:51:38Z</time>
      </trkpt>
      <trkpt lat="42.440967000" lon="-2.444561000">
        <ele>409.90</ele>
        <time>2013-07-27T08:51:39Z</time>
      </trkpt>
      <trkpt lat="42.440931000" lon="-2.444559000">
        <ele>409.90</ele>
        <time>2013-07-27T08:51:40Z</time>
      </trkpt>
      <trkpt lat="42.440896000" lon="-2.444559000">
        <ele>409.90</ele>
        <time>2013-07-27T08:51:41Z</time>
      </trkpt>
      <trkpt lat="42.440860000" lon="-2.444554000">
        <ele>409.90</ele>
        <time>2013-07-27T08:51:42Z</time>
      </trkpt>
      <trkpt lat="42.440824000" lon="-2.444549000">
        <ele>409.90</ele>
        <time>2013-07-27T08:51:43Z</time>
      </trkpt>
      <trkpt lat="42.440792000" lon="-2.444549000">
        <ele>409.90</ele>
        <time>2013-07-27T08:51:44Z</time>
      </trkpt>
      <trkpt lat="42.440760000" lon="-2.444550000">
        <ele>409.90</ele>
        <time>2013-07-27T08:51:45Z</time>
      </trkpt>
      <trkpt lat="42.440728000" lon="-2.444548000">
        <ele>410.00</ele>
        <time>2013-07-27T08:51:46Z</time>
      </trkpt>
      <trkpt lat="42.440694000" lon="-2.444544000">
        <ele>410.00</ele>
        <time>2013-07-27T08:51:47Z</time>
      </trkpt>
      <trkpt lat="42.440660000" lon="-2.444536000">
        <ele>410.10</ele>
        <time>2013-07-27T08:51:48Z</time>
      </trkpt>
      <trkpt lat="42.440624000" lon="-2.444524000">
        <ele>410.20</ele>
        <time>2013-07-27T08:51:49Z</time>
      </trkpt>
      <trkpt lat="42.440589000" lon="-2.444516000">
        <ele>410.20</ele>
        <time>2013-07-27T08:51:50Z</time>
      </trkpt>
      <trkpt lat="42.440555000" lon="-2.444511000">
        <ele>410.30</ele>
        <time>2013-07-27T08:51:51Z</time>
      </trkpt>
      <trkpt lat="42.440520000" lon="-2.444510000">
        <ele>410.30</ele>
        <time>2013-07-27T08:51:52Z</time>
      </trkpt>
      <trkpt lat="42.440485000" lon="-2.444509000">
        <ele>410.20</ele>
        <time>2013-07-27T08:51:53Z</time>
      </trkpt>
      <trkpt lat="42.440450000" lon="-2.444511000">
        <ele>410.20</ele>
        <time>2013-07-27T08:51:54Z</time>
      </trkpt>
      <trkpt lat="42.440415000" lon="-2.444508000">
        <ele>410.20</ele>
        <time>2013-07-27T08:51:55Z</time>
      </trkpt>
      <trkpt lat="42.440379000" lon="-2.444509000">
        <ele>410.30</ele>
        <time>2013-07-27T08:51:56Z</time>
      </trkpt>
      <trkpt lat="42.440345000" lon="-2.444509000">
        <ele>410.40</ele>
        <time>2013-07-27T08:51:57Z</time>
      </trkpt>
      <trkpt lat="42.440316000" lon="-2.444508000">
        <ele>410.70</ele>
        <time>2013-07-27T08:51:58Z</time>
      </trkpt>
      <trkpt lat="42.440285000" lon="-2.444512000">
        <ele>410.90</ele>
        <time>2013-07-27T08:51:59Z</time>
      </trkpt>
      <trkpt lat="42.440250000" lon="-2.444517000">
        <ele>411.00</ele>
        <time>2013-07-27T08:52:00Z</time>
      </trkpt>
      <trkpt lat="42.440216000" lon="-2.444519000">
        <ele>411.10</ele>
        <time>2013-07-27T08:52:01Z</time>
      </trkpt>
      <trkpt lat="42.440183000" lon="-2.444526000">
        <ele>411.00</ele>
        <time>2013-07-27T08:52:02Z</time>
      </trkpt>
      <trkpt lat="42.440148000" lon="-2.444529000">
        <ele>410.90</ele>
        <time>2013-07-27T08:52:03Z</time>
      </trkpt>
      <trkpt lat="42.440113000" lon="-2.444535000">
        <ele>410.90</ele>
        <time>2013-07-27T08:52:04Z</time>
      </trkpt>
      <trkpt lat="42.440076000" lon="-2.444541000">
        <ele>410.80</ele>
        <time>2013-07-27T08:52:05Z</time>
      </trkpt>
      <trkpt lat="42.440043000" lon="-2.444547000">
        <ele>411.20</ele>
        <time>2013-07-27T08:52:06Z</time>
      </trkpt>
      <trkpt lat="42.440012000" lon="-2.444552000">
        <ele>411.40</ele>
        <time>2013-07-27T08:52:07Z</time>
      </trkpt>
      <trkpt lat="42.439978000" lon="-2.444557000">
        <ele>411.60</ele>
        <time>2013-07-27T08:52:08Z</time>
      </trkpt>
      <trkpt lat="42.439942000" lon="-2.444557000">
        <ele>411.80</ele>
        <time>2013-07-27T08:52:09Z</time>
      </trkpt>
      <trkpt lat="42.439909000" lon="-2.444560000">
        <ele>411.80</ele>
        <time>2013-07-27T08:52:10Z</time>
      </trkpt>
      <trkpt lat="42.439876000" lon="-2.444567000">
        <ele>411.90</ele>
        <time>2013-07-27T08:52:11Z</time>
      </trkpt>
      <trkpt lat="42.439840000" lon="-2.444572000">
        <ele>411.80</ele>
        <time>2013-07-27T08:52:12Z</time>
      </trkpt>
      <trkpt lat="42.439807000" lon="-2.444579000">
        <ele>411.80</ele>
        <time>2013-07-27T08:52:13Z</time>
      </trkpt>
      <trkpt lat="42.439772000" lon="-2.444586000">
        <ele>411.80</ele>
        <time>2013-07-27T08:52:14Z</time>
      </trkpt>
      <trkpt lat="42.439738000" lon="-2.444593000">
        <ele>411.80</ele>
        <time>2013-07-27T08:52:15Z</time>
      </trkpt>
      <trkpt lat="42.439704000" lon="-2.444598000">
        <ele>411.80</ele>
        <time>2013-07-27T08:52:16Z</time>
      </trkpt>
      <trkpt lat="42.439671000" lon="-2.444605000">
        <ele>411.80</ele>
        <time>2013-07-27T08:52:17Z</time>
      </trkpt>
      <trkpt lat="42.439630000" lon="-2.444612000">
        <ele>411.80</ele>
        <time>2013-07-27T08:52:18Z</time>
      </trkpt>
      <trkpt lat="42.439587000" lon="-2.444616000">
        <ele>411.90</ele>
        <time>2013-07-27T08:52:19Z</time>
      </trkpt>
      <trkpt lat="42.439546000" lon="-2.444618000">
        <ele>412.10</ele>
        <time>2013-07-27T08:52:20Z</time>
      </trkpt>
      <trkpt lat="42.439511000" lon="-2.444624000">
        <ele>412.30</ele>
        <time>2013-07-27T08:52:21Z</time>
      </trkpt>
      <trkpt lat="42.439476000" lon="-2.444628000">
        <ele>412.40</ele>
        <time>2013-07-27T08:52:22Z</time>
      </trkpt>
      <trkpt lat="42.439446000" lon="-2.444637000">
        <ele>412.50</ele>
        <time>2013-07-27T08:52:23Z</time>
      </trkpt>
      <trkpt lat="42.439416000" lon="-2.444641000">
        <ele>412.60</ele>
        <time>2013-07-27T08:52:24Z</time>
      </trkpt>
      <trkpt lat="42.439387000" lon="-2.444645000">
        <ele>412.70</ele>
        <time>2013-07-27T08:52:25Z</time>
      </trkpt>
      <trkpt lat="42.439357000" lon="-2.444649000">
        <ele>412.60</ele>
        <time>2013-07-27T08:52:26Z</time>
      </trkpt>
      <trkpt lat="42.439326000" lon="-2.444656000">
        <ele>412.50</ele>
        <time>2013-07-27T08:52:27Z</time>
      </trkpt>
      <trkpt lat="42.439293000" lon="-2.444663000">
        <ele>412.40</ele>
        <time>2013-07-27T08:52:28Z</time>
      </trkpt>
      <trkpt lat="42.439258000" lon="-2.444667000">
        <ele>412.40</ele>
        <time>2013-07-27T08:52:29Z</time>
      </trkpt>
      <trkpt lat="42.439225000" lon="-2.444674000">
        <ele>412.40</ele>
        <time>2013-07-27T08:52:30Z</time>
      </trkpt>
      <trkpt lat="42.439191000" lon="-2.444685000">
        <ele>412.30</ele>
        <time>2013-07-27T08:52:31Z</time>
      </trkpt>
      <trkpt lat="42.439159000" lon="-2.444695000">
        <ele>412.50</ele>
        <time>2013-07-27T08:52:32Z</time>
      </trkpt>
      <trkpt lat="42.439127000" lon="-2.444706000">
        <ele>412.60</ele>
        <time>2013-07-27T08:52:33Z</time>
      </trkpt>
      <trkpt lat="42.439093000" lon="-2.444718000">
        <ele>412.70</ele>
        <time>2013-07-27T08:52:34Z</time>
      </trkpt>
      <trkpt lat="42.439062000" lon="-2.444732000">
        <ele>412.80</ele>
        <time>2013-07-27T08:52:35Z</time>
      </trkpt>
      <trkpt lat="42.439028000" lon="-2.444742000">
        <ele>412.90</ele>
        <time>2013-07-27T08:52:36Z</time>
      </trkpt>
      <trkpt lat="42.438995000" lon="-2.444753000">
        <ele>412.90</ele>
        <time>2013-07-27T08:52:37Z</time>
      </trkpt>
      <trkpt lat="42.438965000" lon="-2.444758000">
        <ele>412.90</ele>
        <time>2013-07-27T08:52:38Z</time>
      </trkpt>
      <trkpt lat="42.438932000" lon="-2.444763000">
        <ele>413.00</ele>
        <time>2013-07-27T08:52:39Z</time>
      </trkpt>
      <trkpt lat="42.438900000" lon="-2.444774000">
        <ele>413.00</ele>
        <time>2013-07-27T08:52:40Z</time>
      </trkpt>
      <trkpt lat="42.438871000" lon="-2.444783000">
        <ele>413.00</ele>
        <time>2013-07-27T08:52:41Z</time>
      </trkpt>
      <trkpt lat="42.438839000" lon="-2.444794000">
        <ele>413.10</ele>
        <time>2013-07-27T08:52:42Z</time>
      </trkpt>
      <trkpt lat="42.438806000" lon="-2.444807000">
        <ele>413.10</ele>
        <time>2013-07-27T08:52:43Z</time>
      </trkpt>
      <trkpt lat="42.438774000" lon="-2.444818000">
        <ele>413.30</ele>
        <time>2013-07-27T08:52:44Z</time>
      </trkpt>
      <trkpt lat="42.438740000" lon="-2.444831000">
        <ele>413.40</ele>
        <time>2013-07-27T08:52:45Z</time>
      </trkpt>
      <trkpt lat="42.438705000" lon="-2.444844000">
        <ele>413.40</ele>
        <time>2013-07-27T08:52:46Z</time>
      </trkpt>
      <trkpt lat="42.438672000" lon="-2.444856000">
        <ele>413.40</ele>
        <time>2013-07-27T08:52:47Z</time>
      </trkpt>
      <trkpt lat="42.438638000" lon="-2.444874000">
        <ele>413.50</ele>
        <time>2013-07-27T08:52:48Z</time>
      </trkpt>
      <trkpt lat="42.438606000" lon="-2.444888000">
        <ele>413.60</ele>
        <time>2013-07-27T08:52:49Z</time>
      </trkpt>
      <trkpt lat="42.438570000" lon="-2.444903000">
        <ele>413.60</ele>
        <time>2013-07-27T08:52:50Z</time>
      </trkpt>
      <trkpt lat="42.438537000" lon="-2.444919000">
        <ele>413.70</ele>
        <time>2013-07-27T08:52:51Z</time>
      </trkpt>
      <trkpt lat="42.438503000" lon="-2.444941000">
        <ele>413.70</ele>
        <time>2013-07-27T08:52:52Z</time>
      </trkpt>
      <trkpt lat="42.438466000" lon="-2.444954000">
        <ele>413.70</ele>
        <time>2013-07-27T08:52:53Z</time>
      </trkpt>
      <trkpt lat="42.438429000" lon="-2.444963000">
        <ele>413.70</ele>
        <time>2013-07-27T08:52:54Z</time>
      </trkpt>
      <trkpt lat="42.438394000" lon="-2.444972000">
        <ele>413.70</ele>
        <time>2013-07-27T08:52:55Z</time>
      </trkpt>
      <trkpt lat="42.438358000" lon="-2.444979000">
        <ele>413.60</ele>
        <time>2013-07-27T08:52:56Z</time>
      </trkpt>
      <trkpt lat="42.438325000" lon="-2.444991000">
        <ele>413.60</ele>
        <time>2013-07-27T08:52:57Z</time>
      </trkpt>
      <trkpt lat="42.438291000" lon="-2.444999000">
        <ele>413.70</ele>
        <time>2013-07-27T08:52:58Z</time>
      </trkpt>
      <trkpt lat="42.438256000" lon="-2.445009000">
        <ele>413.70</ele>
        <time>2013-07-27T08:52:59Z</time>
      </trkpt>
      <trkpt lat="42.438224000" lon="-2.445018000">
        <ele>413.90</ele>
        <time>2013-07-27T08:53:00Z</time>
      </trkpt>
      <trkpt lat="42.438193000" lon="-2.445027000">
        <ele>414.10</ele>
        <time>2013-07-27T08:53:01Z</time>
      </trkpt>
      <trkpt lat="42.438159000" lon="-2.445035000">
        <ele>414.20</ele>
        <time>2013-07-27T08:53:02Z</time>
      </trkpt>
      <trkpt lat="42.438124000" lon="-2.445046000">
        <ele>414.30</ele>
        <time>2013-07-27T08:53:03Z</time>
      </trkpt>
      <trkpt lat="42.438091000" lon="-2.445058000">
        <ele>414.40</ele>
        <time>2013-07-27T08:53:04Z</time>
      </trkpt>
      <trkpt lat="42.438058000" lon="-2.445070000">
        <ele>414.40</ele>
        <time>2013-07-27T08:53:05Z</time>
      </trkpt>
      <trkpt lat="42.438025000" lon="-2.445081000">
        <ele>414.30</ele>
        <time>2013-07-27T08:53:06Z</time>
      </trkpt>
      <trkpt lat="42.437991000" lon="-2.445092000">
        <ele>414.30</ele>
        <time>2013-07-27T08:53:07Z</time>
      </trkpt>
      <trkpt lat="42.437958000" lon="-2.445102000">
        <ele>414.20</ele>
        <time>2013-07-27T08:53:08Z</time>
      </trkpt>
      <trkpt lat="42.437923000" lon="-2.445113000">
        <ele>414.20</ele>
        <time>2013-07-27T08:53:09Z</time>
      </trkpt>
      <trkpt lat="42.437890000" lon="-2.445125000">
        <ele>414.30</ele>
        <time>2013-07-27T08:53:10Z</time>
      </trkpt>
      <trkpt lat="42.437858000" lon="-2.445137000">
        <ele>414.40</ele>
        <time>2013-07-27T08:53:11Z</time>
      </trkpt>
      <trkpt lat="42.437824000" lon="-2.445152000">
        <ele>414.50</ele>
        <time>2013-07-27T08:53:12Z</time>
      </trkpt>
      <trkpt lat="42.437790000" lon="-2.445162000">
        <ele>414.60</ele>
        <time>2013-07-27T08:53:13Z</time>
      </trkpt>
      <trkpt lat="42.437755000" lon="-2.445175000">
        <ele>414.70</ele>
        <time>2013-07-27T08:53:14Z</time>
      </trkpt>
      <trkpt lat="42.437721000" lon="-2.445191000">
        <ele>414.70</ele>
        <time>2013-07-27T08:53:15Z</time>
      </trkpt>
      <trkpt lat="42.437686000" lon="-2.445204000">
        <ele>414.70</ele>
        <time>2013-07-27T08:53:16Z</time>
      </trkpt>
      <trkpt lat="42.437652000" lon="-2.445218000">
        <ele>414.80</ele>
        <time>2013-07-27T08:53:17Z</time>
      </trkpt>
      <trkpt lat="42.437618000" lon="-2.445233000">
        <ele>414.80</ele>
        <time>2013-07-27T08:53:18Z</time>
      </trkpt>
      <trkpt lat="42.437586000" lon="-2.445247000">
        <ele>414.80</ele>
        <time>2013-07-27T08:53:19Z</time>
      </trkpt>
      <trkpt lat="42.437555000" lon="-2.445260000">
        <ele>414.80</ele>
        <time>2013-07-27T08:53:20Z</time>
      </trkpt>
      <trkpt lat="42.437522000" lon="-2.445273000">
        <ele>414.80</ele>
        <time>2013-07-27T08:53:21Z</time>
      </trkpt>
      <trkpt lat="42.437486000" lon="-2.445284000">
        <ele>414.80</ele>
        <time>2013-07-27T08:53:22Z</time>
      </trkpt>
      <trkpt lat="42.437451000" lon="-2.445299000">
        <ele>414.80</ele>
        <time>2013-07-27T08:53:23Z</time>
      </trkpt>
      <trkpt lat="42.437414000" lon="-2.445315000">
        <ele>414.80</ele>
        <time>2013-07-27T08:53:24Z</time>
      </trkpt>
      <trkpt lat="42.437379000" lon="-2.445329000">
        <ele>414.80</ele>
        <time>2013-07-27T08:53:25Z</time>
      </trkpt>
      <trkpt lat="42.437345000" lon="-2.445344000">
        <ele>415.00</ele>
        <time>2013-07-27T08:53:26Z</time>
      </trkpt>
      <trkpt lat="42.437311000" lon="-2.445360000">
        <ele>415.10</ele>
        <time>2013-07-27T08:53:27Z</time>
      </trkpt>
      <trkpt lat="42.437274000" lon="-2.445373000">
        <ele>415.10</ele>
        <time>2013-07-27T08:53:28Z</time>
      </trkpt>
      <trkpt lat="42.437239000" lon="-2.445384000">
        <ele>415.10</ele>
        <time>2013-07-27T08:53:29Z</time>
      </trkpt>
      <trkpt lat="42.437205000" lon="-2.445398000">
        <ele>415.20</ele>
        <time>2013-07-27T08:53:30Z</time>
      </trkpt>
      <trkpt lat="42.437175000" lon="-2.445411000">
        <ele>415.20</ele>
        <time>2013-07-27T08:53:31Z</time>
      </trkpt>
      <trkpt lat="42.437145000" lon="-2.445423000">
        <ele>415.30</ele>
        <time>2013-07-27T08:53:32Z</time>
      </trkpt>
      <trkpt lat="42.437113000" lon="-2.445435000">
        <ele>415.30</ele>
        <time>2013-07-27T08:53:33Z</time>
      </trkpt>
      <trkpt lat="42.437080000" lon="-2.445450000">
        <ele>415.30</ele>
        <time>2013-07-27T08:53:34Z</time>
      </trkpt>
      <trkpt lat="42.437048000" lon="-2.445461000">
        <ele>415.30</ele>
        <time>2013-07-27T08:53:35Z</time>
      </trkpt>
      <trkpt lat="42.437016000" lon="-2.445473000">
        <ele>415.40</ele>
        <time>2013-07-27T08:53:36Z</time>
      </trkpt>
      <trkpt lat="42.436984000" lon="-2.445486000">
        <ele>415.50</ele>
        <time>2013-07-27T08:53:37Z</time>
      </trkpt>
      <trkpt lat="42.436953000" lon="-2.445502000">
        <ele>415.40</ele>
        <time>2013-07-27T08:53:38Z</time>
      </trkpt>
      <trkpt lat="42.436925000" lon="-2.445518000">
        <ele>415.40</ele>
        <time>2013-07-27T08:53:39Z</time>
      </trkpt>
      <trkpt lat="42.436894000" lon="-2.445533000">
        <ele>415.40</ele>
        <time>2013-07-27T08:53:40Z</time>
      </trkpt>
      <trkpt lat="42.436866000" lon="-2.445550000">
        <ele>415.40</ele>
        <time>2013-07-27T08:53:41Z</time>
      </trkpt>
      <trkpt lat="42.436837000" lon="-2.445566000">
        <ele>415.40</ele>
        <time>2013-07-27T08:53:42Z</time>
      </trkpt>
      <trkpt lat="42.436804000" lon="-2.445581000">
        <ele>415.40</ele>
        <time>2013-07-27T08:53:43Z</time>
      </trkpt>
      <trkpt lat="42.436772000" lon="-2.445597000">
        <ele>415.50</ele>
        <time>2013-07-27T08:53:44Z</time>
      </trkpt>
      <trkpt lat="42.436741000" lon="-2.445597000">
        <ele>415.60</ele>
        <time>2013-07-27T08:53:45Z</time>
      </trkpt>
      <trkpt lat="42.436709000" lon="-2.445580000">
        <ele>415.70</ele>
        <time>2013-07-27T08:53:46Z</time>
      </trkpt>
      <trkpt lat="42.436685000" lon="-2.445553000">
        <ele>415.70</ele>
        <time>2013-07-27T08:53:47Z</time>
      </trkpt>
      <trkpt lat="42.436659000" lon="-2.445521000">
        <ele>415.80</ele>
        <time>2013-07-27T08:53:48Z</time>
      </trkpt>
      <trkpt lat="42.436633000" lon="-2.445486000">
        <ele>415.80</ele>
        <time>2013-07-27T08:53:49Z</time>
      </trkpt>
      <trkpt lat="42.436604000" lon="-2.445455000">
        <ele>415.80</ele>
        <time>2013-07-27T08:53:50Z</time>
      </trkpt>
      <trkpt lat="42.436574000" lon="-2.445423000">
        <ele>415.70</ele>
        <time>2013-07-27T08:53:51Z</time>
      </trkpt>
      <trkpt lat="42.436549000" lon="-2.445387000">
        <ele>415.70</ele>
        <time>2013-07-27T08:53:52Z</time>
      </trkpt>
      <trkpt lat="42.436523000" lon="-2.445351000">
        <ele>415.70</ele>
        <time>2013-07-27T08:53:53Z</time>
      </trkpt>
      <trkpt lat="42.436496000" lon="-2.445316000">
        <ele>415.70</ele>
        <time>2013-07-27T08:53:54Z</time>
      </trkpt>
      <trkpt lat="42.436470000" lon="-2.445281000">
        <ele>415.80</ele>
        <time>2013-07-27T08:53:55Z</time>
      </trkpt>
      <trkpt lat="42.436442000" lon="-2.445248000">
        <ele>416.00</ele>
        <time>2013-07-27T08:53:56Z</time>
      </trkpt>
      <trkpt lat="42.436413000" lon="-2.445215000">
        <ele>416.20</ele>
        <time>2013-07-27T08:53:57Z</time>
      </trkpt>
      <trkpt lat="42.436388000" lon="-2.445183000">
        <ele>416.50</ele>
        <time>2013-07-27T08:53:58Z</time>
      </trkpt>
      <trkpt lat="42.436361000" lon="-2.445150000">
        <ele>416.70</ele>
        <time>2013-07-27T08:53:59Z</time>
      </trkpt>
      <trkpt lat="42.436333000" lon="-2.445120000">
        <ele>416.70</ele>
        <time>2013-07-27T08:54:00Z</time>
      </trkpt>
      <trkpt lat="42.436307000" lon="-2.445090000">
        <ele>416.70</ele>
        <time>2013-07-27T08:54:01Z</time>
      </trkpt>
      <trkpt lat="42.436282000" lon="-2.445060000">
        <ele>416.60</ele>
        <time>2013-07-27T08:54:02Z</time>
      </trkpt>
      <trkpt lat="42.436254000" lon="-2.445031000">
        <ele>416.60</ele>
        <time>2013-07-27T08:54:03Z</time>
      </trkpt>
      <trkpt lat="42.436229000" lon="-2.445002000">
        <ele>416.50</ele>
        <time>2013-07-27T08:54:04Z</time>
      </trkpt>
      <trkpt lat="42.436204000" lon="-2.444971000">
        <ele>416.50</ele>
        <time>2013-07-27T08:54:05Z</time>
      </trkpt>
      <trkpt lat="42.436174000" lon="-2.444941000">
        <ele>416.60</ele>
        <time>2013-07-27T08:54:06Z</time>
      </trkpt>
      <trkpt lat="42.436147000" lon="-2.444910000">
        <ele>416.70</ele>
        <time>2013-07-27T08:54:07Z</time>
      </trkpt>
      <trkpt lat="42.436120000" lon="-2.444876000">
        <ele>416.80</ele>
        <time>2013-07-27T08:54:08Z</time>
      </trkpt>
      <trkpt lat="42.436093000" lon="-2.444843000">
        <ele>416.80</ele>
        <time>2013-07-27T08:54:09Z</time>
      </trkpt>
      <trkpt lat="42.436061000" lon="-2.444816000">
        <ele>416.80</ele>
        <time>2013-07-27T08:54:10Z</time>
      </trkpt>
      <trkpt lat="42.436034000" lon="-2.444787000">
        <ele>416.90</ele>
        <time>2013-07-27T08:54:11Z</time>
      </trkpt>
      <trkpt lat="42.436005000" lon="-2.444760000">
        <ele>416.90</ele>
        <time>2013-07-27T08:54:12Z</time>
      </trkpt>
      <trkpt lat="42.435978000" lon="-2.444734000">
        <ele>416.90</ele>
        <time>2013-07-27T08:54:13Z</time>
      </trkpt>
      <trkpt lat="42.435947000" lon="-2.444709000">
        <ele>417.10</ele>
        <time>2013-07-27T08:54:14Z</time>
      </trkpt>
      <trkpt lat="42.435918000" lon="-2.444682000">
        <ele>417.20</ele>
        <time>2013-07-27T08:54:15Z</time>
      </trkpt>
      <trkpt lat="42.435888000" lon="-2.444654000">
        <ele>417.30</ele>
        <time>2013-07-27T08:54:16Z</time>
      </trkpt>
      <trkpt lat="42.435858000" lon="-2.444628000">
        <ele>417.40</ele>
        <time>2013-07-27T08:54:17Z</time>
      </trkpt>
      <trkpt lat="42.435829000" lon="-2.444601000">
        <ele>417.40</ele>
        <time>2013-07-27T08:54:18Z</time>
      </trkpt>
      <trkpt lat="42.435801000" lon="-2.444571000">
        <ele>417.40</ele>
        <time>2013-07-27T08:54:19Z</time>
      </trkpt>
      <trkpt lat="42.435770000" lon="-2.444544000">
        <ele>417.20</ele>
        <time>2013-07-27T08:54:20Z</time>
      </trkpt>
      <trkpt lat="42.435738000" lon="-2.444517000">
        <ele>417.00</ele>
        <time>2013-07-27T08:54:21Z</time>
      </trkpt>
      <trkpt lat="42.435708000" lon="-2.444488000">
        <ele>416.80</ele>
        <time>2013-07-27T08:54:22Z</time>
      </trkpt>
      <trkpt lat="42.435675000" lon="-2.444463000">
        <ele>416.70</ele>
        <time>2013-07-27T08:54:23Z</time>
      </trkpt>
      <trkpt lat="42.435641000" lon="-2.444439000">
        <ele>416.70</ele>
        <time>2013-07-27T08:54:24Z</time>
      </trkpt>
      <trkpt lat="42.435609000" lon="-2.444420000">
        <ele>416.60</ele>
        <time>2013-07-27T08:54:25Z</time>
      </trkpt>
      <trkpt lat="42.435577000" lon="-2.444409000">
        <ele>416.60</ele>
        <time>2013-07-27T08:54:26Z</time>
      </trkpt>
      <trkpt lat="42.435543000" lon="-2.444395000">
        <ele>416.50</ele>
        <time>2013-07-27T08:54:27Z</time>
      </trkpt>
      <trkpt lat="42.435508000" lon="-2.444389000">
        <ele>416.60</ele>
        <time>2013-07-27T08:54:28Z</time>
      </trkpt>
      <trkpt lat="42.435473000" lon="-2.444382000">
        <ele>416.70</ele>
        <time>2013-07-27T08:54:29Z</time>
      </trkpt>
      <trkpt lat="42.435439000" lon="-2.444375000">
        <ele>416.90</ele>
        <time>2013-07-27T08:54:30Z</time>
      </trkpt>
      <trkpt lat="42.435403000" lon="-2.444367000">
        <ele>417.00</ele>
        <time>2013-07-27T08:54:31Z</time>
      </trkpt>
      <trkpt lat="42.435366000" lon="-2.444363000">
        <ele>417.10</ele>
        <time>2013-07-27T08:54:32Z</time>
      </trkpt>
      <trkpt lat="42.435328000" lon="-2.444355000">
        <ele>417.20</ele>
        <time>2013-07-27T08:54:33Z</time>
      </trkpt>
      <trkpt lat="42.435291000" lon="-2.444347000">
        <ele>417.20</ele>
        <time>2013-07-27T08:54:34Z</time>
      </trkpt>
      <trkpt lat="42.435256000" lon="-2.444333000">
        <ele>417.30</ele>
        <time>2013-07-27T08:54:35Z</time>
      </trkpt>
      <trkpt lat="42.435219000" lon="-2.444322000">
        <ele>417.20</ele>
        <time>2013-07-27T08:54:36Z</time>
      </trkpt>
      <trkpt lat="42.435186000" lon="-2.444306000">
        <ele>417.10</ele>
        <time>2013-07-27T08:54:37Z</time>
      </trkpt>
      <trkpt lat="42.435149000" lon="-2.444290000">
        <ele>417.10</ele>
        <time>2013-07-27T08:54:38Z</time>
      </trkpt>
      <trkpt lat="42.435115000" lon="-2.444272000">
        <ele>417.00</ele>
        <time>2013-07-27T08:54:39Z</time>
      </trkpt>
      <trkpt lat="42.435082000" lon="-2.444251000">
        <ele>417.00</ele>
        <time>2013-07-27T08:54:40Z</time>
      </trkpt>
      <trkpt lat="42.435049000" lon="-2.444228000">
        <ele>417.00</ele>
        <time>2013-07-27T08:54:41Z</time>
      </trkpt>
      <trkpt lat="42.435017000" lon="-2.444205000">
        <ele>417.00</ele>
        <time>2013-07-27T08:54:42Z</time>
      </trkpt>
      <trkpt lat="42.434983000" lon="-2.444184000">
        <ele>417.00</ele>
        <time>2013-07-27T08:54:43Z</time>
      </trkpt>
      <trkpt lat="42.434951000" lon="-2.444161000">
        <ele>416.80</ele>
        <time>2013-07-27T08:54:44Z</time>
      </trkpt>
      <trkpt lat="42.434917000" lon="-2.444141000">
        <ele>416.70</ele>
        <time>2013-07-27T08:54:45Z</time>
      </trkpt>
      <trkpt lat="42.434884000" lon="-2.444119000">
        <ele>416.70</ele>
        <time>2013-07-27T08:54:46Z</time>
      </trkpt>
      <trkpt lat="42.434853000" lon="-2.444098000">
        <ele>416.60</ele>
        <time>2013-07-27T08:54:47Z</time>
      </trkpt>
      <trkpt lat="42.434823000" lon="-2.444075000">
        <ele>416.60</ele>
        <time>2013-07-27T08:54:48Z</time>
      </trkpt>
      <trkpt lat="42.434793000" lon="-2.444050000">
        <ele>416.50</ele>
        <time>2013-07-27T08:54:49Z</time>
      </trkpt>
      <trkpt lat="42.434763000" lon="-2.444023000">
        <ele>416.70</ele>
        <time>2013-07-27T08:54:50Z</time>
      </trkpt>
      <trkpt lat="42.434733000" lon="-2.443993000">
        <ele>416.90</ele>
        <time>2013-07-27T08:54:51Z</time>
      </trkpt>
      <trkpt lat="42.434704000" lon="-2.443964000">
        <ele>417.00</ele>
        <time>2013-07-27T08:54:52Z</time>
      </trkpt>
      <trkpt lat="42.434675000" lon="-2.443932000">
        <ele>417.10</ele>
        <time>2013-07-27T08:54:53Z</time>
      </trkpt>
      <trkpt lat="42.434647000" lon="-2.443903000">
        <ele>417.20</ele>
        <time>2013-07-27T08:54:54Z</time>
      </trkpt>
      <trkpt lat="42.434615000" lon="-2.443872000">
        <ele>417.20</ele>
        <time>2013-07-27T08:54:55Z</time>
      </trkpt>
      <trkpt lat="42.434586000" lon="-2.443840000">
        <ele>417.30</ele>
        <time>2013-07-27T08:54:56Z</time>
      </trkpt>
      <trkpt lat="42.434561000" lon="-2.443809000">
        <ele>417.40</ele>
        <time>2013-07-27T08:54:57Z</time>
      </trkpt>
      <trkpt lat="42.434535000" lon="-2.443774000">
        <ele>417.50</ele>
        <time>2013-07-27T08:54:58Z</time>
      </trkpt>
      <trkpt lat="42.434515000" lon="-2.443737000">
        <ele>417.50</ele>
        <time>2013-07-27T08:54:59Z</time>
      </trkpt>
      <trkpt lat="42.434499000" lon="-2.443698000">
        <ele>417.50</ele>
        <time>2013-07-27T08:55:00Z</time>
      </trkpt>
      <trkpt lat="42.434489000" lon="-2.443653000">
        <ele>417.60</ele>
        <time>2013-07-27T08:55:01Z</time>
      </trkpt>
      <trkpt lat="42.434482000" lon="-2.443605000">
        <ele>417.50</ele>
        <time>2013-07-27T08:55:02Z</time>
      </trkpt>
      <trkpt lat="42.434475000" lon="-2.443556000">
        <ele>417.50</ele>
        <time>2013-07-27T08:55:03Z</time>
      </trkpt>
      <trkpt lat="42.434472000" lon="-2.443507000">
        <ele>417.70</ele>
        <time>2013-07-27T08:55:04Z</time>
      </trkpt>
      <trkpt lat="42.434471000" lon="-2.443457000">
        <ele>417.80</ele>
        <time>2013-07-27T08:55:05Z</time>
      </trkpt>
      <trkpt lat="42.434469000" lon="-2.443409000">
        <ele>417.80</ele>
        <time>2013-07-27T08:55:06Z</time>
      </trkpt>
      <trkpt lat="42.434467000" lon="-2.443361000">
        <ele>417.80</ele>
        <time>2013-07-27T08:55:07Z</time>
      </trkpt>
      <trkpt lat="42.434463000" lon="-2.443313000">
        <ele>417.90</ele>
        <time>2013-07-27T08:55:08Z</time>
      </trkpt>
      <trkpt lat="42.434452000" lon="-2.443265000">
        <ele>418.00</ele>
        <time>2013-07-27T08:55:09Z</time>
      </trkpt>
      <trkpt lat="42.434440000" lon="-2.443216000">
        <ele>418.10</ele>
        <time>2013-07-27T08:55:10Z</time>
      </trkpt>
      <trkpt lat="42.434418000" lon="-2.443171000">
        <ele>418.20</ele>
        <time>2013-07-27T08:55:11Z</time>
      </trkpt>
      <trkpt lat="42.434395000" lon="-2.443134000">
        <ele>418.30</ele>
        <time>2013-07-27T08:55:12Z</time>
      </trkpt>
      <trkpt lat="42.434368000" lon="-2.443097000">
        <ele>418.40</ele>
        <time>2013-07-27T08:55:13Z</time>
      </trkpt>
      <trkpt lat="42.434343000" lon="-2.443062000">
        <ele>418.50</ele>
        <time>2013-07-27T08:55:14Z</time>
      </trkpt>
      <trkpt lat="42.434317000" lon="-2.443032000">
        <ele>418.60</ele>
        <time>2013-07-27T08:55:15Z</time>
      </trkpt>
      <trkpt lat="42.434288000" lon="-2.443007000">
        <ele>418.90</ele>
        <time>2013-07-27T08:55:16Z</time>
      </trkpt>
      <trkpt lat="42.434259000" lon="-2.442987000">
        <ele>419.00</ele>
        <time>2013-07-27T08:55:17Z</time>
      </trkpt>
      <trkpt lat="42.434231000" lon="-2.442970000">
        <ele>419.10</ele>
        <time>2013-07-27T08:55:18Z</time>
      </trkpt>
      <trkpt lat="42.434199000" lon="-2.442955000">
        <ele>419.20</ele>
        <time>2013-07-27T08:55:19Z</time>
      </trkpt>
      <trkpt lat="42.434169000" lon="-2.442942000">
        <ele>419.50</ele>
        <time>2013-07-27T08:55:20Z</time>
      </trkpt>
      <trkpt lat="42.434139000" lon="-2.442933000">
        <ele>419.70</ele>
        <time>2013-07-27T08:55:21Z</time>
      </trkpt>
      <trkpt lat="42.434108000" lon="-2.442925000">
        <ele>419.80</ele>
        <time>2013-07-27T08:55:22Z</time>
      </trkpt>
      <trkpt lat="42.434076000" lon="-2.442918000">
        <ele>419.90</ele>
        <time>2013-07-27T08:55:23Z</time>
      </trkpt>
      <trkpt lat="42.434045000" lon="-2.442912000">
        <ele>420.10</ele>
        <time>2013-07-27T08:55:24Z</time>
      </trkpt>
      <trkpt lat="42.434015000" lon="-2.442904000">
        <ele>420.20</ele>
        <time>2013-07-27T08:55:25Z</time>
      </trkpt>
      <trkpt lat="42.433981000" lon="-2.442896000">
        <ele>420.50</ele>
        <time>2013-07-27T08:55:26Z</time>
      </trkpt>
      <trkpt lat="42.433951000" lon="-2.442890000">
        <ele>420.80</ele>
        <time>2013-07-27T08:55:27Z</time>
      </trkpt>
      <trkpt lat="42.433922000" lon="-2.442881000">
        <ele>421.00</ele>
        <time>2013-07-27T08:55:28Z</time>
      </trkpt>
      <trkpt lat="42.433892000" lon="-2.442872000">
        <ele>421.10</ele>
        <time>2013-07-27T08:55:29Z</time>
      </trkpt>
      <trkpt lat="42.433862000" lon="-2.442865000">
        <ele>421.50</ele>
        <time>2013-07-27T08:55:30Z</time>
      </trkpt>
      <trkpt lat="42.433831000" lon="-2.442856000">
        <ele>421.70</ele>
        <time>2013-07-27T08:55:31Z</time>
      </trkpt>
      <trkpt lat="42.433798000" lon="-2.442849000">
        <ele>421.90</ele>
        <time>2013-07-27T08:55:32Z</time>
      </trkpt>
      <trkpt lat="42.433767000" lon="-2.442842000">
        <ele>422.10</ele>
        <time>2013-07-27T08:55:33Z</time>
      </trkpt>
      <trkpt lat="42.433733000" lon="-2.442835000">
        <ele>422.20</ele>
        <time>2013-07-27T08:55:34Z</time>
      </trkpt>
      <trkpt lat="42.433697000" lon="-2.442826000">
        <ele>422.30</ele>
        <time>2013-07-27T08:55:35Z</time>
      </trkpt>
      <trkpt lat="42.433661000" lon="-2.442817000">
        <ele>422.30</ele>
        <time>2013-07-27T08:55:36Z</time>
      </trkpt>
      <trkpt lat="42.433625000" lon="-2.442810000">
        <ele>422.30</ele>
        <time>2013-07-27T08:55:37Z</time>
      </trkpt>
      <trkpt lat="42.433588000" lon="-2.442802000">
        <ele>422.30</ele>
        <time>2013-07-27T08:55:38Z</time>
      </trkpt>
      <trkpt lat="42.433551000" lon="-2.442796000">
        <ele>422.30</ele>
        <time>2013-07-27T08:55:39Z</time>
      </trkpt>
      <trkpt lat="42.433515000" lon="-2.442789000">
        <ele>422.20</ele>
        <time>2013-07-27T08:55:40Z</time>
      </trkpt>
      <trkpt lat="42.433479000" lon="-2.442785000">
        <ele>422.10</ele>
        <time>2013-07-27T08:55:41Z</time>
      </trkpt>
      <trkpt lat="42.433437000" lon="-2.442787000">
        <ele>422.00</ele>
        <time>2013-07-27T08:55:42Z</time>
      </trkpt>
      <trkpt lat="42.433392000" lon="-2.442792000">
        <ele>422.00</ele>
        <time>2013-07-27T08:55:43Z</time>
      </trkpt>
      <trkpt lat="42.433344000" lon="-2.442803000">
        <ele>421.90</ele>
        <time>2013-07-27T08:55:44Z</time>
      </trkpt>
      <trkpt lat="42.433302000" lon="-2.442823000">
        <ele>421.90</ele>
        <time>2013-07-27T08:55:45Z</time>
      </trkpt>
      <trkpt lat="42.433260000" lon="-2.442851000">
        <ele>421.70</ele>
        <time>2013-07-27T08:55:46Z</time>
      </trkpt>
      <trkpt lat="42.433218000" lon="-2.442882000">
        <ele>421.60</ele>
        <time>2013-07-27T08:55:47Z</time>
      </trkpt>
      <trkpt lat="42.433180000" lon="-2.442922000">
        <ele>421.40</ele>
        <time>2013-07-27T08:55:48Z</time>
      </trkpt>
      <trkpt lat="42.433141000" lon="-2.442967000">
        <ele>421.30</ele>
        <time>2013-07-27T08:55:49Z</time>
      </trkpt>
      <trkpt lat="42.433102000" lon="-2.443011000">
        <ele>420.80</ele>
        <time>2013-07-27T08:55:50Z</time>
      </trkpt>
      <trkpt lat="42.433060000" lon="-2.443056000">
        <ele>420.50</ele>
        <time>2013-07-27T08:55:51Z</time>
      </trkpt>
      <trkpt lat="42.433014000" lon="-2.443091000">
        <ele>420.20</ele>
        <time>2013-07-27T08:55:52Z</time>
      </trkpt>
      <trkpt lat="42.432964000" lon="-2.443119000">
        <ele>420.00</ele>
        <time>2013-07-27T08:55:53Z</time>
      </trkpt>
      <trkpt lat="42.432918000" lon="-2.443138000">
        <ele>419.80</ele>
        <time>2013-07-27T08:55:54Z</time>
      </trkpt>
      <trkpt lat="42.432871000" lon="-2.443145000">
        <ele>419.70</ele>
        <time>2013-07-27T08:55:55Z</time>
      </trkpt>
      <trkpt lat="42.432823000" lon="-2.443151000">
        <ele>419.60</ele>
        <time>2013-07-27T08:55:56Z</time>
      </trkpt>
      <trkpt lat="42.432776000" lon="-2.443153000">
        <ele>419.50</ele>
        <time>2013-07-27T08:55:57Z</time>
      </trkpt>
      <trkpt lat="42.432731000" lon="-2.443148000">
        <ele>419.50</ele>
        <time>2013-07-27T08:55:58Z</time>
      </trkpt>
      <trkpt lat="42.432688000" lon="-2.443138000">
        <ele>419.50</ele>
        <time>2013-07-27T08:55:59Z</time>
      </trkpt>
      <trkpt lat="42.432647000" lon="-2.443125000">
        <ele>419.50</ele>
        <time>2013-07-27T08:56:00Z</time>
      </trkpt>
      <trkpt lat="42.432608000" lon="-2.443112000">
        <ele>419.50</ele>
        <time>2013-07-27T08:56:01Z</time>
      </trkpt>
      <trkpt lat="42.432571000" lon="-2.443098000">
        <ele>419.50</ele>
        <time>2013-07-27T08:56:02Z</time>
      </trkpt>
      <trkpt lat="42.432532000" lon="-2.443084000">
        <ele>419.50</ele>
        <time>2013-07-27T08:56:03Z</time>
      </trkpt>
      <trkpt lat="42.432494000" lon="-2.443071000">
        <ele>419.50</ele>
        <time>2013-07-27T08:56:04Z</time>
      </trkpt>
      <trkpt lat="42.432457000" lon="-2.443053000">
        <ele>419.50</ele>
        <time>2013-07-27T08:56:05Z</time>
      </trkpt>
      <trkpt lat="42.432420000" lon="-2.443035000">
        <ele>419.50</ele>
        <time>2013-07-27T08:56:06Z</time>
      </trkpt>
      <trkpt lat="42.432383000" lon="-2.443016000">
        <ele>419.50</ele>
        <time>2013-07-27T08:56:07Z</time>
      </trkpt>
      <trkpt lat="42.432346000" lon="-2.442993000">
        <ele>419.50</ele>
        <time>2013-07-27T08:56:08Z</time>
      </trkpt>
      <trkpt lat="42.432310000" lon="-2.442970000">
        <ele>419.60</ele>
        <time>2013-07-27T08:56:09Z</time>
      </trkpt>
      <trkpt lat="42.432275000" lon="-2.442947000">
        <ele>419.60</ele>
        <time>2013-07-27T08:56:10Z</time>
      </trkpt>
      <trkpt lat="42.432241000" lon="-2.442924000">
        <ele>419.70</ele>
        <time>2013-07-27T08:56:11Z</time>
      </trkpt>
      <trkpt lat="42.432207000" lon="-2.442901000">
        <ele>419.90</ele>
        <time>2013-07-27T08:56:12Z</time>
      </trkpt>
      <trkpt lat="42.432172000" lon="-2.442878000">
        <ele>420.00</ele>
        <time>2013-07-27T08:56:13Z</time>
      </trkpt>
      <trkpt lat="42.432136000" lon="-2.442864000">
        <ele>420.20</ele>
        <time>2013-07-27T08:56:14Z</time>
      </trkpt>
      <trkpt lat="42.432099000" lon="-2.442847000">
        <ele>420.20</ele>
        <time>2013-07-27T08:56:15Z</time>
      </trkpt>
      <trkpt lat="42.432064000" lon="-2.442829000">
        <ele>420.20</ele>
        <time>2013-07-27T08:56:16Z</time>
      </trkpt>
      <trkpt lat="42.432030000" lon="-2.442815000">
        <ele>420.30</ele>
        <time>2013-07-27T08:56:17Z</time>
      </trkpt>
      <trkpt lat="42.431995000" lon="-2.442796000">
        <ele>420.30</ele>
        <time>2013-07-27T08:56:18Z</time>
      </trkpt>
      <trkpt lat="42.431961000" lon="-2.442778000">
        <ele>420.30</ele>
        <time>2013-07-27T08:56:19Z</time>
      </trkpt>
      <trkpt lat="42.431928000" lon="-2.442760000">
        <ele>420.30</ele>
        <time>2013-07-27T08:56:20Z</time>
      </trkpt>
      <trkpt lat="42.431894000" lon="-2.442737000">
        <ele>420.30</ele>
        <time>2013-07-27T08:56:21Z</time>
      </trkpt>
      <trkpt lat="42.431860000" lon="-2.442712000">
        <ele>420.20</ele>
        <time>2013-07-27T08:56:22Z</time>
      </trkpt>
      <trkpt lat="42.431823000" lon="-2.442690000">
        <ele>420.10</ele>
        <time>2013-07-27T08:56:23Z</time>
      </trkpt>
      <trkpt lat="42.431791000" lon="-2.442671000">
        <ele>420.00</ele>
        <time>2013-07-27T08:56:24Z</time>
      </trkpt>
      <trkpt lat="42.431755000" lon="-2.442656000">
        <ele>419.80</ele>
        <time>2013-07-27T08:56:25Z</time>
      </trkpt>
      <trkpt lat="42.431720000" lon="-2.442640000">
        <ele>419.80</ele>
        <time>2013-07-27T08:56:26Z</time>
      </trkpt>
      <trkpt lat="42.431682000" lon="-2.442623000">
        <ele>419.70</ele>
        <time>2013-07-27T08:56:27Z</time>
      </trkpt>
      <trkpt lat="42.431649000" lon="-2.442607000">
        <ele>419.80</ele>
        <time>2013-07-27T08:56:28Z</time>
      </trkpt>
      <trkpt lat="42.431613000" lon="-2.442587000">
        <ele>419.80</ele>
        <time>2013-07-27T08:56:29Z</time>
      </trkpt>
      <trkpt lat="42.431578000" lon="-2.442568000">
        <ele>419.90</ele>
        <time>2013-07-27T08:56:30Z</time>
      </trkpt>
      <trkpt lat="42.431542000" lon="-2.442550000">
        <ele>419.90</ele>
        <time>2013-07-27T08:56:31Z</time>
      </trkpt>
      <trkpt lat="42.431506000" lon="-2.442532000">
        <ele>419.90</ele>
        <time>2013-07-27T08:56:32Z</time>
      </trkpt>
      <trkpt lat="42.431471000" lon="-2.442514000">
        <ele>419.80</ele>
        <time>2013-07-27T08:56:33Z</time>
      </trkpt>
      <trkpt lat="42.431438000" lon="-2.442491000">
        <ele>419.80</ele>
        <time>2013-07-27T08:56:34Z</time>
      </trkpt>
      <trkpt lat="42.431406000" lon="-2.442468000">
        <ele>419.80</ele>
        <time>2013-07-27T08:56:35Z</time>
      </trkpt>
      <trkpt lat="42.431376000" lon="-2.442444000">
        <ele>419.80</ele>
        <time>2013-07-27T08:56:36Z</time>
      </trkpt>
      <trkpt lat="42.431340000" lon="-2.442420000">
        <ele>419.80</ele>
        <time>2013-07-27T08:56:37Z</time>
      </trkpt>
      <trkpt lat="42.431307000" lon="-2.442397000">
        <ele>420.00</ele>
        <time>2013-07-27T08:56:38Z</time>
      </trkpt>
      <trkpt lat="42.431274000" lon="-2.442370000">
        <ele>420.10</ele>
        <time>2013-07-27T08:56:39Z</time>
      </trkpt>
      <trkpt lat="42.431242000" lon="-2.442342000">
        <ele>420.10</ele>
        <time>2013-07-27T08:56:40Z</time>
      </trkpt>
      <trkpt lat="42.431212000" lon="-2.442310000">
        <ele>420.10</ele>
        <time>2013-07-27T08:56:41Z</time>
      </trkpt>
      <trkpt lat="42.431181000" lon="-2.442278000">
        <ele>420.20</ele>
        <time>2013-07-27T08:56:42Z</time>
      </trkpt>
      <trkpt lat="42.431153000" lon="-2.442246000">
        <ele>420.30</ele>
        <time>2013-07-27T08:56:43Z</time>
      </trkpt>
      <trkpt lat="42.431129000" lon="-2.442209000">
        <ele>420.30</ele>
        <time>2013-07-27T08:56:44Z</time>
      </trkpt>
      <trkpt lat="42.431104000" lon="-2.442174000">
        <ele>420.40</ele>
        <time>2013-07-27T08:56:45Z</time>
      </trkpt>
      <trkpt lat="42.431077000" lon="-2.442140000">
        <ele>420.40</ele>
        <time>2013-07-27T08:56:46Z</time>
      </trkpt>
      <trkpt lat="42.431049000" lon="-2.442113000">
        <ele>420.40</ele>
        <time>2013-07-27T08:56:47Z</time>
      </trkpt>
      <trkpt lat="42.431020000" lon="-2.442084000">
        <ele>420.50</ele>
        <time>2013-07-27T08:56:48Z</time>
      </trkpt>
      <trkpt lat="42.430988000" lon="-2.442060000">
        <ele>420.50</ele>
        <time>2013-07-27T08:56:49Z</time>
      </trkpt>
      <trkpt lat="42.430957000" lon="-2.442038000">
        <ele>420.70</ele>
        <time>2013-07-27T08:56:50Z</time>
      </trkpt>
      <trkpt lat="42.430926000" lon="-2.442017000">
        <ele>420.80</ele>
        <time>2013-07-27T08:56:51Z</time>
      </trkpt>
      <trkpt lat="42.430895000" lon="-2.441997000">
        <ele>421.00</ele>
        <time>2013-07-27T08:56:52Z</time>
      </trkpt>
      <trkpt lat="42.430863000" lon="-2.441978000">
        <ele>421.00</ele>
        <time>2013-07-27T08:56:53Z</time>
      </trkpt>
      <trkpt lat="42.430833000" lon="-2.441964000">
        <ele>421.00</ele>
        <time>2013-07-27T08:56:54Z</time>
      </trkpt>
      <trkpt lat="42.430802000" lon="-2.441945000">
        <ele>421.00</ele>
        <time>2013-07-27T08:56:55Z</time>
      </trkpt>
      <trkpt lat="42.430768000" lon="-2.441930000">
        <ele>421.00</ele>
        <time>2013-07-27T08:56:56Z</time>
      </trkpt>
      <trkpt lat="42.430738000" lon="-2.441912000">
        <ele>421.00</ele>
        <time>2013-07-27T08:56:57Z</time>
      </trkpt>
      <trkpt lat="42.430708000" lon="-2.441894000">
        <ele>421.00</ele>
        <time>2013-07-27T08:56:58Z</time>
      </trkpt>
      <trkpt lat="42.430679000" lon="-2.441875000">
        <ele>421.00</ele>
        <time>2013-07-27T08:56:59Z</time>
      </trkpt>
      <trkpt lat="42.430650000" lon="-2.441852000">
        <ele>421.10</ele>
        <time>2013-07-27T08:57:00Z</time>
      </trkpt>
      <trkpt lat="42.430620000" lon="-2.441831000">
        <ele>421.20</ele>
        <time>2013-07-27T08:57:01Z</time>
      </trkpt>
      <trkpt lat="42.430587000" lon="-2.441819000">
        <ele>421.10</ele>
        <time>2013-07-27T08:57:02Z</time>
      </trkpt>
      <trkpt lat="42.430552000" lon="-2.441805000">
        <ele>421.10</ele>
        <time>2013-07-27T08:57:03Z</time>
      </trkpt>
      <trkpt lat="42.430520000" lon="-2.441783000">
        <ele>421.00</ele>
        <time>2013-07-27T08:57:04Z</time>
      </trkpt>
      <trkpt lat="42.430488000" lon="-2.441762000">
        <ele>421.00</ele>
        <time>2013-07-27T08:57:05Z</time>
      </trkpt>
      <trkpt lat="42.430456000" lon="-2.441738000">
        <ele>420.90</ele>
        <time>2013-07-27T08:57:06Z</time>
      </trkpt>
      <trkpt lat="42.430422000" lon="-2.441718000">
        <ele>420.80</ele>
        <time>2013-07-27T08:57:07Z</time>
      </trkpt>
      <trkpt lat="42.430389000" lon="-2.441696000">
        <ele>420.80</ele>
        <time>2013-07-27T08:57:08Z</time>
      </trkpt>
      <trkpt lat="42.430356000" lon="-2.441676000">
        <ele>420.80</ele>
        <time>2013-07-27T08:57:09Z</time>
      </trkpt>
      <trkpt lat="42.430324000" lon="-2.441653000">
        <ele>420.80</ele>
        <time>2013-07-27T08:57:10Z</time>
      </trkpt>
      <trkpt lat="42.430294000" lon="-2.441627000">
        <ele>420.70</ele>
        <time>2013-07-27T08:57:11Z</time>
      </trkpt>
      <trkpt lat="42.430262000" lon="-2.441604000">
        <ele>421.00</ele>
        <time>2013-07-27T08:57:12Z</time>
      </trkpt>
      <trkpt lat="42.430230000" lon="-2.441576000">
        <ele>421.30</ele>
        <time>2013-07-27T08:57:13Z</time>
      </trkpt>
      <trkpt lat="42.430197000" lon="-2.441553000">
        <ele>421.40</ele>
        <time>2013-07-27T08:57:14Z</time>
      </trkpt>
      <trkpt lat="42.430166000" lon="-2.441532000">
        <ele>421.50</ele>
        <time>2013-07-27T08:57:15Z</time>
      </trkpt>
      <trkpt lat="42.430134000" lon="-2.441517000">
        <ele>421.50</ele>
        <time>2013-07-27T08:57:16Z</time>
      </trkpt>
      <trkpt lat="42.430100000" lon="-2.441497000">
        <ele>421.50</ele>
        <time>2013-07-27T08:57:17Z</time>
      </trkpt>
      <trkpt lat="42.430064000" lon="-2.441481000">
        <ele>421.50</ele>
        <time>2013-07-27T08:57:18Z</time>
      </trkpt>
      <trkpt lat="42.430030000" lon="-2.441466000">
        <ele>421.50</ele>
        <time>2013-07-27T08:57:19Z</time>
      </trkpt>
      <trkpt lat="42.429996000" lon="-2.441449000">
        <ele>421.60</ele>
        <time>2013-07-27T08:57:20Z</time>
      </trkpt>
      <trkpt lat="42.429958000" lon="-2.441432000">
        <ele>421.70</ele>
        <time>2013-07-27T08:57:21Z</time>
      </trkpt>
      <trkpt lat="42.429920000" lon="-2.441413000">
        <ele>421.70</ele>
        <time>2013-07-27T08:57:22Z</time>
      </trkpt>
      <trkpt lat="42.429884000" lon="-2.441395000">
        <ele>421.80</ele>
        <time>2013-07-27T08:57:23Z</time>
      </trkpt>
      <trkpt lat="42.429852000" lon="-2.441377000">
        <ele>421.90</ele>
        <time>2013-07-27T08:57:24Z</time>
      </trkpt>
      <trkpt lat="42.429817000" lon="-2.441354000">
        <ele>422.00</ele>
        <time>2013-07-27T08:57:25Z</time>
      </trkpt>
      <trkpt lat="42.429783000" lon="-2.441336000">
        <ele>422.00</ele>
        <time>2013-07-27T08:57:26Z</time>
      </trkpt>
      <trkpt lat="42.429751000" lon="-2.441317000">
        <ele>422.00</ele>
        <time>2013-07-27T08:57:27Z</time>
      </trkpt>
      <trkpt lat="42.429717000" lon="-2.441304000">
        <ele>422.10</ele>
        <time>2013-07-27T08:57:28Z</time>
      </trkpt>
      <trkpt lat="42.429684000" lon="-2.441291000">
        <ele>422.10</ele>
        <time>2013-07-27T08:57:29Z</time>
      </trkpt>
      <trkpt lat="42.429649000" lon="-2.441278000">
        <ele>422.10</ele>
        <time>2013-07-27T08:57:30Z</time>
      </trkpt>
      <trkpt lat="42.429616000" lon="-2.441263000">
        <ele>422.00</ele>
        <time>2013-07-27T08:57:31Z</time>
      </trkpt>
      <trkpt lat="42.429581000" lon="-2.441250000">
        <ele>422.10</ele>
        <time>2013-07-27T08:57:32Z</time>
      </trkpt>
      <trkpt lat="42.429545000" lon="-2.441235000">
        <ele>422.10</ele>
        <time>2013-07-27T08:57:33Z</time>
      </trkpt>
      <trkpt lat="42.429509000" lon="-2.441219000">
        <ele>422.30</ele>
        <time>2013-07-27T08:57:34Z</time>
      </trkpt>
      <trkpt lat="42.429471000" lon="-2.441206000">
        <ele>422.50</ele>
        <time>2013-07-27T08:57:35Z</time>
      </trkpt>
      <trkpt lat="42.429434000" lon="-2.441193000">
        <ele>422.60</ele>
        <time>2013-07-27T08:57:36Z</time>
      </trkpt>
      <trkpt lat="42.429396000" lon="-2.441180000">
        <ele>422.70</ele>
        <time>2013-07-27T08:57:37Z</time>
      </trkpt>
      <trkpt lat="42.429360000" lon="-2.441167000">
        <ele>422.60</ele>
        <time>2013-07-27T08:57:38Z</time>
      </trkpt>
      <trkpt lat="42.429327000" lon="-2.441155000">
        <ele>422.60</ele>
        <time>2013-07-27T08:57:39Z</time>
      </trkpt>
      <trkpt lat="42.429290000" lon="-2.441148000">
        <ele>422.50</ele>
        <time>2013-07-27T08:57:40Z</time>
      </trkpt>
      <trkpt lat="42.429254000" lon="-2.441144000">
        <ele>422.50</ele>
        <time>2013-07-27T08:57:41Z</time>
      </trkpt>
      <trkpt lat="42.429219000" lon="-2.441144000">
        <ele>422.50</ele>
        <time>2013-07-27T08:57:42Z</time>
      </trkpt>
      <trkpt lat="42.429182000" lon="-2.441144000">
        <ele>422.50</ele>
        <time>2013-07-27T08:57:43Z</time>
      </trkpt>
      <trkpt lat="42.429146000" lon="-2.441137000">
        <ele>422.50</ele>
        <time>2013-07-27T08:57:44Z</time>
      </trkpt>
      <trkpt lat="42.429112000" lon="-2.441130000">
        <ele>422.60</ele>
        <time>2013-07-27T08:57:45Z</time>
      </trkpt>
      <trkpt lat="42.429079000" lon="-2.441129000">
        <ele>422.60</ele>
        <time>2013-07-27T08:57:46Z</time>
      </trkpt>
      <trkpt lat="42.429041000" lon="-2.441127000">
        <ele>422.60</ele>
        <time>2013-07-27T08:57:47Z</time>
      </trkpt>
      <trkpt lat="42.429003000" lon="-2.441123000">
        <ele>422.60</ele>
        <time>2013-07-27T08:57:48Z</time>
      </trkpt>
      <trkpt lat="42.428966000" lon="-2.441117000">
        <ele>422.50</ele>
        <time>2013-07-27T08:57:49Z</time>
      </trkpt>
      <trkpt lat="42.428931000" lon="-2.441114000">
        <ele>422.50</ele>
        <time>2013-07-27T08:57:50Z</time>
      </trkpt>
      <trkpt lat="42.428897000" lon="-2.441107000">
        <ele>422.50</ele>
        <time>2013-07-27T08:57:51Z</time>
      </trkpt>
      <trkpt lat="42.428862000" lon="-2.441094000">
        <ele>422.70</ele>
        <time>2013-07-27T08:57:52Z</time>
      </trkpt>
      <trkpt lat="42.428831000" lon="-2.441079000">
        <ele>422.90</ele>
        <time>2013-07-27T08:57:53Z</time>
      </trkpt>
      <trkpt lat="42.428797000" lon="-2.441061000">
        <ele>423.10</ele>
        <time>2013-07-27T08:57:54Z</time>
      </trkpt>
      <trkpt lat="42.428766000" lon="-2.441039000">
        <ele>423.20</ele>
        <time>2013-07-27T08:57:55Z</time>
      </trkpt>
      <trkpt lat="42.428734000" lon="-2.441013000">
        <ele>423.20</ele>
        <time>2013-07-27T08:57:56Z</time>
      </trkpt>
      <trkpt lat="42.428703000" lon="-2.440987000">
        <ele>423.20</ele>
        <time>2013-07-27T08:57:57Z</time>
      </trkpt>
      <trkpt lat="42.428671000" lon="-2.440961000">
        <ele>423.10</ele>
        <time>2013-07-27T08:57:58Z</time>
      </trkpt>
      <trkpt lat="42.428637000" lon="-2.440939000">
        <ele>423.10</ele>
        <time>2013-07-27T08:57:59Z</time>
      </trkpt>
      <trkpt lat="42.428605000" lon="-2.440918000">
        <ele>423.20</ele>
        <time>2013-07-27T08:58:00Z</time>
      </trkpt>
      <trkpt lat="42.428572000" lon="-2.440896000">
        <ele>423.30</ele>
        <time>2013-07-27T08:58:01Z</time>
      </trkpt>
      <trkpt lat="42.428542000" lon="-2.440877000">
        <ele>423.30</ele>
        <time>2013-07-27T08:58:02Z</time>
      </trkpt>
      <trkpt lat="42.428509000" lon="-2.440859000">
        <ele>423.30</ele>
        <time>2013-07-27T08:58:03Z</time>
      </trkpt>
      <trkpt lat="42.428479000" lon="-2.440841000">
        <ele>423.40</ele>
        <time>2013-07-27T08:58:04Z</time>
      </trkpt>
      <trkpt lat="42.428445000" lon="-2.440828000">
        <ele>423.50</ele>
        <time>2013-07-27T08:58:05Z</time>
      </trkpt>
      <trkpt lat="42.428410000" lon="-2.440812000">
        <ele>423.30</ele>
        <time>2013-07-27T08:58:06Z</time>
      </trkpt>
      <trkpt lat="42.428375000" lon="-2.440800000">
        <ele>423.20</ele>
        <time>2013-07-27T08:58:07Z</time>
      </trkpt>
      <trkpt lat="42.428345000" lon="-2.440783000">
        <ele>423.30</ele>
        <time>2013-07-27T08:58:08Z</time>
      </trkpt>
      <trkpt lat="42.428315000" lon="-2.440767000">
        <ele>423.40</ele>
        <time>2013-07-27T08:58:09Z</time>
      </trkpt>
      <trkpt lat="42.428284000" lon="-2.440751000">
        <ele>423.50</ele>
        <time>2013-07-27T08:58:10Z</time>
      </trkpt>
      <trkpt lat="42.428254000" lon="-2.440732000">
        <ele>423.60</ele>
        <time>2013-07-27T08:58:11Z</time>
      </trkpt>
      <trkpt lat="42.428221000" lon="-2.440712000">
        <ele>423.90</ele>
        <time>2013-07-27T08:58:12Z</time>
      </trkpt>
      <trkpt lat="42.428188000" lon="-2.440691000">
        <ele>424.10</ele>
        <time>2013-07-27T08:58:13Z</time>
      </trkpt>
      <trkpt lat="42.428157000" lon="-2.440669000">
        <ele>424.40</ele>
        <time>2013-07-27T08:58:14Z</time>
      </trkpt>
      <trkpt lat="42.428126000" lon="-2.440650000">
        <ele>424.60</ele>
        <time>2013-07-27T08:58:15Z</time>
      </trkpt>
      <trkpt lat="42.428095000" lon="-2.440627000">
        <ele>424.70</ele>
        <time>2013-07-27T08:58:16Z</time>
      </trkpt>
      <trkpt lat="42.428065000" lon="-2.440606000">
        <ele>424.90</ele>
        <time>2013-07-27T08:58:17Z</time>
      </trkpt>
      <trkpt lat="42.428033000" lon="-2.440586000">
        <ele>424.80</ele>
        <time>2013-07-27T08:58:18Z</time>
      </trkpt>
      <trkpt lat="42.428000000" lon="-2.440571000">
        <ele>424.80</ele>
        <time>2013-07-27T08:58:19Z</time>
      </trkpt>
      <trkpt lat="42.427966000" lon="-2.440561000">
        <ele>424.80</ele>
        <time>2013-07-27T08:58:20Z</time>
      </trkpt>
      <trkpt lat="42.427931000" lon="-2.440555000">
        <ele>424.80</ele>
        <time>2013-07-27T08:58:21Z</time>
      </trkpt>
      <trkpt lat="42.427895000" lon="-2.440556000">
        <ele>424.90</ele>
        <time>2013-07-27T08:58:22Z</time>
      </trkpt>
      <trkpt lat="42.427857000" lon="-2.440555000">
        <ele>425.00</ele>
        <time>2013-07-27T08:58:23Z</time>
      </trkpt>
      <trkpt lat="42.427821000" lon="-2.440555000">
        <ele>425.20</ele>
        <time>2013-07-27T08:58:24Z</time>
      </trkpt>
      <trkpt lat="42.427782000" lon="-2.440555000">
        <ele>425.30</ele>
        <time>2013-07-27T08:58:25Z</time>
      </trkpt>
      <trkpt lat="42.427747000" lon="-2.440560000">
        <ele>425.30</ele>
        <time>2013-07-27T08:58:26Z</time>
      </trkpt>
      <trkpt lat="42.427710000" lon="-2.440563000">
        <ele>425.40</ele>
        <time>2013-07-27T08:58:27Z</time>
      </trkpt>
      <trkpt lat="42.427675000" lon="-2.440564000">
        <ele>425.40</ele>
        <time>2013-07-27T08:58:28Z</time>
      </trkpt>
      <trkpt lat="42.427640000" lon="-2.440567000">
        <ele>425.50</ele>
        <time>2013-07-27T08:58:29Z</time>
      </trkpt>
      <trkpt lat="42.427607000" lon="-2.440563000">
        <ele>425.50</ele>
        <time>2013-07-27T08:58:30Z</time>
      </trkpt>
      <trkpt lat="42.427572000" lon="-2.440555000">
        <ele>425.50</ele>
        <time>2013-07-27T08:58:31Z</time>
      </trkpt>
      <trkpt lat="42.427538000" lon="-2.440543000">
        <ele>425.50</ele>
        <time>2013-07-27T08:58:32Z</time>
      </trkpt>
      <trkpt lat="42.427504000" lon="-2.440528000">
        <ele>425.50</ele>
        <time>2013-07-27T08:58:33Z</time>
      </trkpt>
      <trkpt lat="42.427470000" lon="-2.440511000">
        <ele>425.90</ele>
        <time>2013-07-27T08:58:34Z</time>
      </trkpt>
      <trkpt lat="42.427435000" lon="-2.440496000">
        <ele>426.10</ele>
        <time>2013-07-27T08:58:35Z</time>
      </trkpt>
      <trkpt lat="42.427400000" lon="-2.440480000">
        <ele>426.30</ele>
        <time>2013-07-27T08:58:36Z</time>
      </trkpt>
      <trkpt lat="42.427364000" lon="-2.440464000">
        <ele>426.50</ele>
        <time>2013-07-27T08:58:37Z</time>
      </trkpt>
      <trkpt lat="42.427328000" lon="-2.440450000">
        <ele>426.40</ele>
        <time>2013-07-27T08:58:38Z</time>
      </trkpt>
      <trkpt lat="42.427293000" lon="-2.440432000">
        <ele>426.30</ele>
        <time>2013-07-27T08:58:39Z</time>
      </trkpt>
      <trkpt lat="42.427257000" lon="-2.440415000">
        <ele>426.20</ele>
        <time>2013-07-27T08:58:40Z</time>
      </trkpt>
      <trkpt lat="42.427222000" lon="-2.440399000">
        <ele>426.20</ele>
        <time>2013-07-27T08:58:41Z</time>
      </trkpt>
      <trkpt lat="42.427185000" lon="-2.440383000">
        <ele>426.20</ele>
        <time>2013-07-27T08:58:42Z</time>
      </trkpt>
      <trkpt lat="42.427148000" lon="-2.440366000">
        <ele>426.20</ele>
        <time>2013-07-27T08:58:43Z</time>
      </trkpt>
      <trkpt lat="42.427116000" lon="-2.440351000">
        <ele>426.10</ele>
        <time>2013-07-27T08:58:44Z</time>
      </trkpt>
      <trkpt lat="42.427086000" lon="-2.440335000">
        <ele>426.10</ele>
        <time>2013-07-27T08:58:45Z</time>
      </trkpt>
      <trkpt lat="42.427058000" lon="-2.440316000">
        <ele>426.30</ele>
        <time>2013-07-27T08:58:46Z</time>
      </trkpt>
      <trkpt lat="42.427030000" lon="-2.440296000">
        <ele>426.30</ele>
        <time>2013-07-27T08:58:47Z</time>
      </trkpt>
      <trkpt lat="42.427003000" lon="-2.440271000">
        <ele>426.40</ele>
        <time>2013-07-27T08:58:48Z</time>
      </trkpt>
      <trkpt lat="42.426975000" lon="-2.440245000">
        <ele>426.50</ele>
        <time>2013-07-27T08:58:49Z</time>
      </trkpt>
      <trkpt lat="42.426942000" lon="-2.440226000">
        <ele>426.60</ele>
        <time>2013-07-27T08:58:50Z</time>
      </trkpt>
      <trkpt lat="42.426913000" lon="-2.440204000">
        <ele>426.60</ele>
        <time>2013-07-27T08:58:51Z</time>
      </trkpt>
      <trkpt lat="42.426884000" lon="-2.440178000">
        <ele>426.60</ele>
        <time>2013-07-27T08:58:52Z</time>
      </trkpt>
      <trkpt lat="42.426854000" lon="-2.440160000">
        <ele>426.50</ele>
        <time>2013-07-27T08:58:53Z</time>
      </trkpt>
      <trkpt lat="42.426823000" lon="-2.440136000">
        <ele>426.50</ele>
        <time>2013-07-27T08:58:54Z</time>
      </trkpt>
      <trkpt lat="42.426792000" lon="-2.440113000">
        <ele>426.40</ele>
        <time>2013-07-27T08:58:55Z</time>
      </trkpt>
      <trkpt lat="42.426761000" lon="-2.440088000">
        <ele>426.40</ele>
        <time>2013-07-27T08:58:56Z</time>
      </trkpt>
      <trkpt lat="42.426726000" lon="-2.440073000">
        <ele>426.30</ele>
        <time>2013-07-27T08:58:57Z</time>
      </trkpt>
      <trkpt lat="42.426688000" lon="-2.440068000">
        <ele>426.30</ele>
        <time>2013-07-27T08:58:58Z</time>
      </trkpt>
      <trkpt lat="42.426648000" lon="-2.440070000">
        <ele>426.30</ele>
        <time>2013-07-27T08:58:59Z</time>
      </trkpt>
      <trkpt lat="42.426611000" lon="-2.440079000">
        <ele>426.30</ele>
        <time>2013-07-27T08:59:00Z</time>
      </trkpt>
      <trkpt lat="42.426574000" lon="-2.440093000">
        <ele>426.30</ele>
        <time>2013-07-27T08:59:01Z</time>
      </trkpt>
      <trkpt lat="42.426537000" lon="-2.440105000">
        <ele>426.30</ele>
        <time>2013-07-27T08:59:02Z</time>
      </trkpt>
      <trkpt lat="42.426499000" lon="-2.440116000">
        <ele>426.30</ele>
        <time>2013-07-27T08:59:03Z</time>
      </trkpt>
      <trkpt lat="42.426461000" lon="-2.440126000">
        <ele>426.30</ele>
        <time>2013-07-27T08:59:04Z</time>
      </trkpt>
      <trkpt lat="42.426423000" lon="-2.440134000">
        <ele>426.40</ele>
        <time>2013-07-27T08:59:05Z</time>
      </trkpt>
      <trkpt lat="42.426385000" lon="-2.440137000">
        <ele>426.40</ele>
        <time>2013-07-27T08:59:06Z</time>
      </trkpt>
      <trkpt lat="42.426344000" lon="-2.440130000">
        <ele>426.40</ele>
        <time>2013-07-27T08:59:07Z</time>
      </trkpt>
      <trkpt lat="42.426304000" lon="-2.440122000">
        <ele>426.40</ele>
        <time>2013-07-27T08:59:08Z</time>
      </trkpt>
      <trkpt lat="42.426267000" lon="-2.440113000">
        <ele>426.50</ele>
        <time>2013-07-27T08:59:09Z</time>
      </trkpt>
      <trkpt lat="42.426229000" lon="-2.440107000">
        <ele>426.40</ele>
        <time>2013-07-27T08:59:10Z</time>
      </trkpt>
      <trkpt lat="42.426189000" lon="-2.440100000">
        <ele>426.40</ele>
        <time>2013-07-27T08:59:11Z</time>
      </trkpt>
      <trkpt lat="42.426152000" lon="-2.440094000">
        <ele>426.00</ele>
        <time>2013-07-27T08:59:12Z</time>
      </trkpt>
      <trkpt lat="42.426115000" lon="-2.440097000">
        <ele>425.70</ele>
        <time>2013-07-27T08:59:13Z</time>
      </trkpt>
      <trkpt lat="42.426079000" lon="-2.440103000">
        <ele>425.50</ele>
        <time>2013-07-27T08:59:14Z</time>
      </trkpt>
      <trkpt lat="42.426041000" lon="-2.440110000">
        <ele>425.30</ele>
        <time>2013-07-27T08:59:15Z</time>
      </trkpt>
      <trkpt lat="42.426002000" lon="-2.440115000">
        <ele>425.70</ele>
        <time>2013-07-27T08:59:16Z</time>
      </trkpt>
      <trkpt lat="42.425963000" lon="-2.440115000">
        <ele>426.00</ele>
        <time>2013-07-27T08:59:17Z</time>
      </trkpt>
      <trkpt lat="42.425923000" lon="-2.440109000">
        <ele>426.20</ele>
        <time>2013-07-27T08:59:18Z</time>
      </trkpt>
      <trkpt lat="42.425886000" lon="-2.440098000">
        <ele>426.40</ele>
        <time>2013-07-27T08:59:19Z</time>
      </trkpt>
      <trkpt lat="42.425848000" lon="-2.440089000">
        <ele>426.50</ele>
        <time>2013-07-27T08:59:20Z</time>
      </trkpt>
      <trkpt lat="42.425808000" lon="-2.440079000">
        <ele>426.60</ele>
        <time>2013-07-27T08:59:21Z</time>
      </trkpt>
      <trkpt lat="42.425771000" lon="-2.440066000">
        <ele>426.70</ele>
        <time>2013-07-27T08:59:22Z</time>
      </trkpt>
      <trkpt lat="42.425734000" lon="-2.440053000">
        <ele>426.80</ele>
        <time>2013-07-27T08:59:23Z</time>
      </trkpt>
      <trkpt lat="42.425697000" lon="-2.440036000">
        <ele>426.90</ele>
        <time>2013-07-27T08:59:24Z</time>
      </trkpt>
      <trkpt lat="42.425660000" lon="-2.440022000">
        <ele>427.00</ele>
        <time>2013-07-27T08:59:25Z</time>
      </trkpt>
      <trkpt lat="42.425618000" lon="-2.440007000">
        <ele>427.00</ele>
        <time>2013-07-27T08:59:26Z</time>
      </trkpt>
      <trkpt lat="42.425582000" lon="-2.439989000">
        <ele>427.00</ele>
        <time>2013-07-27T08:59:27Z</time>
      </trkpt>
      <trkpt lat="42.425543000" lon="-2.439968000">
        <ele>427.10</ele>
        <time>2013-07-27T08:59:28Z</time>
      </trkpt>
      <trkpt lat="42.425506000" lon="-2.439949000">
        <ele>427.10</ele>
        <time>2013-07-27T08:59:29Z</time>
      </trkpt>
      <trkpt lat="42.425469000" lon="-2.439927000">
        <ele>427.10</ele>
        <time>2013-07-27T08:59:30Z</time>
      </trkpt>
      <trkpt lat="42.425434000" lon="-2.439900000">
        <ele>427.10</ele>
        <time>2013-07-27T08:59:31Z</time>
      </trkpt>
      <trkpt lat="42.425400000" lon="-2.439868000">
        <ele>427.10</ele>
        <time>2013-07-27T08:59:32Z</time>
      </trkpt>
      <trkpt lat="42.425366000" lon="-2.439842000">
        <ele>427.10</ele>
        <time>2013-07-27T08:59:33Z</time>
      </trkpt>
      <trkpt lat="42.425333000" lon="-2.439818000">
        <ele>427.30</ele>
        <time>2013-07-27T08:59:34Z</time>
      </trkpt>
      <trkpt lat="42.425300000" lon="-2.439794000">
        <ele>427.50</ele>
        <time>2013-07-27T08:59:35Z</time>
      </trkpt>
      <trkpt lat="42.425267000" lon="-2.439770000">
        <ele>427.30</ele>
        <time>2013-07-27T08:59:36Z</time>
      </trkpt>
      <trkpt lat="42.425235000" lon="-2.439751000">
        <ele>427.20</ele>
        <time>2013-07-27T08:59:37Z</time>
      </trkpt>
      <trkpt lat="42.425199000" lon="-2.439735000">
        <ele>427.30</ele>
        <time>2013-07-27T08:59:38Z</time>
      </trkpt>
      <trkpt lat="42.425164000" lon="-2.439720000">
        <ele>427.40</ele>
        <time>2013-07-27T08:59:39Z</time>
      </trkpt>
      <trkpt lat="42.425125000" lon="-2.439708000">
        <ele>427.50</ele>
        <time>2013-07-27T08:59:40Z</time>
      </trkpt>
      <trkpt lat="42.425088000" lon="-2.439699000">
        <ele>427.50</ele>
        <time>2013-07-27T08:59:41Z</time>
      </trkpt>
      <trkpt lat="42.425051000" lon="-2.439692000">
        <ele>427.70</ele>
        <time>2013-07-27T08:59:42Z</time>
      </trkpt>
      <trkpt lat="42.425013000" lon="-2.439689000">
        <ele>427.80</ele>
        <time>2013-07-27T08:59:43Z</time>
      </trkpt>
      <trkpt lat="42.424974000" lon="-2.439686000">
        <ele>428.00</ele>
        <time>2013-07-27T08:59:44Z</time>
      </trkpt>
      <trkpt lat="42.424934000" lon="-2.439676000">
        <ele>428.20</ele>
        <time>2013-07-27T08:59:45Z</time>
      </trkpt>
      <trkpt lat="42.424892000" lon="-2.439662000">
        <ele>428.30</ele>
        <time>2013-07-27T08:59:46Z</time>
      </trkpt>
      <trkpt lat="42.424853000" lon="-2.439644000">
        <ele>428.40</ele>
        <time>2013-07-27T08:59:47Z</time>
      </trkpt>
      <trkpt lat="42.424817000" lon="-2.439623000">
        <ele>428.50</ele>
        <time>2013-07-27T08:59:48Z</time>
      </trkpt>
      <trkpt lat="42.424781000" lon="-2.439600000">
        <ele>428.60</ele>
        <time>2013-07-27T08:59:49Z</time>
      </trkpt>
      <trkpt lat="42.424744000" lon="-2.439574000">
        <ele>428.40</ele>
        <time>2013-07-27T08:59:50Z</time>
      </trkpt>
      <trkpt lat="42.424709000" lon="-2.439544000">
        <ele>428.30</ele>
        <time>2013-07-27T08:59:51Z</time>
      </trkpt>
      <trkpt lat="42.424674000" lon="-2.439511000">
        <ele>428.40</ele>
        <time>2013-07-27T08:59:52Z</time>
      </trkpt>
      <trkpt lat="42.424640000" lon="-2.439482000">
        <ele>428.50</ele>
        <time>2013-07-27T08:59:53Z</time>
      </trkpt>
      <trkpt lat="42.424606000" lon="-2.439452000">
        <ele>428.70</ele>
        <time>2013-07-27T08:59:54Z</time>
      </trkpt>
      <trkpt lat="42.424575000" lon="-2.439422000">
        <ele>428.80</ele>
        <time>2013-07-27T08:59:55Z</time>
      </trkpt>
      <trkpt lat="42.424543000" lon="-2.439392000">
        <ele>428.90</ele>
        <time>2013-07-27T08:59:56Z</time>
      </trkpt>
      <trkpt lat="42.424511000" lon="-2.439360000">
        <ele>429.00</ele>
        <time>2013-07-27T08:59:57Z</time>
      </trkpt>
      <trkpt lat="42.424479000" lon="-2.439329000">
        <ele>428.90</ele>
        <time>2013-07-27T08:59:58Z</time>
      </trkpt>
      <trkpt lat="42.424449000" lon="-2.439295000">
        <ele>428.80</ele>
        <time>2013-07-27T08:59:59Z</time>
      </trkpt>
      <trkpt lat="42.424417000" lon="-2.439265000">
        <ele>428.60</ele>
        <time>2013-07-27T09:00:00Z</time>
      </trkpt>
      <trkpt lat="42.424384000" lon="-2.439232000">
        <ele>428.50</ele>
        <time>2013-07-27T09:00:01Z</time>
      </trkpt>
      <trkpt lat="42.424352000" lon="-2.439201000">
        <ele>428.40</ele>
        <time>2013-07-27T09:00:02Z</time>
      </trkpt>
      <trkpt lat="42.424317000" lon="-2.439174000">
        <ele>428.40</ele>
        <time>2013-07-27T09:00:03Z</time>
      </trkpt>
      <trkpt lat="42.424284000" lon="-2.439146000">
        <ele>428.30</ele>
        <time>2013-07-27T09:00:04Z</time>
      </trkpt>
      <trkpt lat="42.424249000" lon="-2.439120000">
        <ele>428.30</ele>
        <time>2013-07-27T09:00:05Z</time>
      </trkpt>
      <trkpt lat="42.424215000" lon="-2.439095000">
        <ele>428.30</ele>
        <time>2013-07-27T09:00:06Z</time>
      </trkpt>
      <trkpt lat="42.424178000" lon="-2.439070000">
        <ele>428.20</ele>
        <time>2013-07-27T09:00:07Z</time>
      </trkpt>
      <trkpt lat="42.424140000" lon="-2.439047000">
        <ele>428.20</ele>
        <time>2013-07-27T09:00:08Z</time>
      </trkpt>
      <trkpt lat="42.424101000" lon="-2.439028000">
        <ele>428.20</ele>
        <time>2013-07-27T09:00:09Z</time>
      </trkpt>
      <trkpt lat="42.424060000" lon="-2.439016000">
        <ele>428.30</ele>
        <time>2013-07-27T09:00:10Z</time>
      </trkpt>
      <trkpt lat="42.424024000" lon="-2.439005000">
        <ele>428.30</ele>
        <time>2013-07-27T09:00:11Z</time>
      </trkpt>
      <trkpt lat="42.423981000" lon="-2.438997000">
        <ele>428.40</ele>
        <time>2013-07-27T09:00:12Z</time>
      </trkpt>
      <trkpt lat="42.423943000" lon="-2.438985000">
        <ele>428.40</ele>
        <time>2013-07-27T09:00:13Z</time>
      </trkpt>
      <trkpt lat="42.423901000" lon="-2.438975000">
        <ele>428.50</ele>
        <time>2013-07-27T09:00:14Z</time>
      </trkpt>
      <trkpt lat="42.423860000" lon="-2.438966000">
        <ele>428.50</ele>
        <time>2013-07-27T09:00:15Z</time>
      </trkpt>
      <trkpt lat="42.423823000" lon="-2.438954000">
        <ele>428.60</ele>
        <time>2013-07-27T09:00:16Z</time>
      </trkpt>
      <trkpt lat="42.423784000" lon="-2.438941000">
        <ele>428.60</ele>
        <time>2013-07-27T09:00:17Z</time>
      </trkpt>
      <trkpt lat="42.423745000" lon="-2.438931000">
        <ele>428.60</ele>
        <time>2013-07-27T09:00:18Z</time>
      </trkpt>
      <trkpt lat="42.423706000" lon="-2.438921000">
        <ele>428.50</ele>
        <time>2013-07-27T09:00:19Z</time>
      </trkpt>
      <trkpt lat="42.423668000" lon="-2.438909000">
        <ele>428.50</ele>
        <time>2013-07-27T09:00:20Z</time>
      </trkpt>
      <trkpt lat="42.423628000" lon="-2.438896000">
        <ele>428.50</ele>
        <time>2013-07-27T09:00:21Z</time>
      </trkpt>
      <trkpt lat="42.423589000" lon="-2.438883000">
        <ele>428.60</ele>
        <time>2013-07-27T09:00:22Z</time>
      </trkpt>
      <trkpt lat="42.423551000" lon="-2.438871000">
        <ele>428.70</ele>
        <time>2013-07-27T09:00:23Z</time>
      </trkpt>
      <trkpt lat="42.423513000" lon="-2.438861000">
        <ele>428.80</ele>
        <time>2013-07-27T09:00:24Z</time>
      </trkpt>
      <trkpt lat="42.423476000" lon="-2.438848000">
        <ele>428.80</ele>
        <time>2013-07-27T09:00:25Z</time>
      </trkpt>
      <trkpt lat="42.423440000" lon="-2.438836000">
        <ele>428.90</ele>
        <time>2013-07-27T09:00:26Z</time>
      </trkpt>
      <trkpt lat="42.423401000" lon="-2.438825000">
        <ele>428.90</ele>
        <time>2013-07-27T09:00:27Z</time>
      </trkpt>
      <trkpt lat="42.423366000" lon="-2.438813000">
        <ele>428.80</ele>
        <time>2013-07-27T09:00:28Z</time>
      </trkpt>
      <trkpt lat="42.423327000" lon="-2.438806000">
        <ele>428.80</ele>
        <time>2013-07-27T09:00:29Z</time>
      </trkpt>
      <trkpt lat="42.423288000" lon="-2.438798000">
        <ele>428.80</ele>
        <time>2013-07-27T09:00:30Z</time>
      </trkpt>
      <trkpt lat="42.423248000" lon="-2.438794000">
        <ele>428.90</ele>
        <time>2013-07-27T09:00:31Z</time>
      </trkpt>
      <trkpt lat="42.423210000" lon="-2.438787000">
        <ele>429.00</ele>
        <time>2013-07-27T09:00:32Z</time>
      </trkpt>
      <trkpt lat="42.423169000" lon="-2.438782000">
        <ele>429.10</ele>
        <time>2013-07-27T09:00:33Z</time>
      </trkpt>
      <trkpt lat="42.423128000" lon="-2.438779000">
        <ele>429.20</ele>
        <time>2013-07-27T09:00:34Z</time>
      </trkpt>
      <trkpt lat="42.423091000" lon="-2.438782000">
        <ele>429.30</ele>
        <time>2013-07-27T09:00:35Z</time>
      </trkpt>
      <trkpt lat="42.423053000" lon="-2.438787000">
        <ele>429.30</ele>
        <time>2013-07-27T09:00:36Z</time>
      </trkpt>
      <trkpt lat="42.423013000" lon="-2.438791000">
        <ele>429.30</ele>
        <time>2013-07-27T09:00:37Z</time>
      </trkpt>
      <trkpt lat="42.422972000" lon="-2.438793000">
        <ele>429.30</ele>
        <time>2013-07-27T09:00:38Z</time>
      </trkpt>
      <trkpt lat="42.422933000" lon="-2.438796000">
        <ele>429.30</ele>
        <time>2013-07-27T09:00:39Z</time>
      </trkpt>
      <trkpt lat="42.422894000" lon="-2.438799000">
        <ele>429.20</ele>
        <time>2013-07-27T09:00:40Z</time>
      </trkpt>
      <trkpt lat="42.422859000" lon="-2.438805000">
        <ele>429.20</ele>
        <time>2013-07-27T09:00:41Z</time>
      </trkpt>
      <trkpt lat="42.422819000" lon="-2.438813000">
        <ele>429.20</ele>
        <time>2013-07-27T09:00:42Z</time>
      </trkpt>
      <trkpt lat="42.422780000" lon="-2.438821000">
        <ele>429.10</ele>
        <time>2013-07-27T09:00:43Z</time>
      </trkpt>
      <trkpt lat="42.422741000" lon="-2.438830000">
        <ele>429.10</ele>
        <time>2013-07-27T09:00:44Z</time>
      </trkpt>
      <trkpt lat="42.422701000" lon="-2.438838000">
        <ele>429.10</ele>
        <time>2013-07-27T09:00:45Z</time>
      </trkpt>
      <trkpt lat="42.422664000" lon="-2.438846000">
        <ele>429.00</ele>
        <time>2013-07-27T09:00:46Z</time>
      </trkpt>
      <trkpt lat="42.422623000" lon="-2.438854000">
        <ele>428.90</ele>
        <time>2013-07-27T09:00:47Z</time>
      </trkpt>
      <trkpt lat="42.422585000" lon="-2.438865000">
        <ele>429.20</ele>
        <time>2013-07-27T09:00:48Z</time>
      </trkpt>
      <trkpt lat="42.422546000" lon="-2.438873000">
        <ele>429.40</ele>
        <time>2013-07-27T09:00:49Z</time>
      </trkpt>
      <trkpt lat="42.422508000" lon="-2.438883000">
        <ele>429.40</ele>
        <time>2013-07-27T09:00:50Z</time>
      </trkpt>
      <trkpt lat="42.422467000" lon="-2.438890000">
        <ele>429.40</ele>
        <time>2013-07-27T09:00:51Z</time>
      </trkpt>
      <trkpt lat="42.422429000" lon="-2.438905000">
        <ele>429.50</ele>
        <time>2013-07-27T09:00:52Z</time>
      </trkpt>
      <trkpt lat="42.422388000" lon="-2.438917000">
        <ele>429.50</ele>
        <time>2013-07-27T09:00:53Z</time>
      </trkpt>
      <trkpt lat="42.422349000" lon="-2.438926000">
        <ele>429.50</ele>
        <time>2013-07-27T09:00:54Z</time>
      </trkpt>
      <trkpt lat="42.422313000" lon="-2.438940000">
        <ele>429.50</ele>
        <time>2013-07-27T09:00:55Z</time>
      </trkpt>
      <trkpt lat="42.422276000" lon="-2.438953000">
        <ele>429.30</ele>
        <time>2013-07-27T09:00:56Z</time>
      </trkpt>
      <trkpt lat="42.422242000" lon="-2.438969000">
        <ele>429.20</ele>
        <time>2013-07-27T09:00:57Z</time>
      </trkpt>
      <trkpt lat="42.422208000" lon="-2.438983000">
        <ele>429.10</ele>
        <time>2013-07-27T09:00:58Z</time>
      </trkpt>
      <trkpt lat="42.422169000" lon="-2.438994000">
        <ele>429.10</ele>
        <time>2013-07-27T09:00:59Z</time>
      </trkpt>
      <trkpt lat="42.422130000" lon="-2.439009000">
        <ele>429.10</ele>
        <time>2013-07-27T09:01:00Z</time>
      </trkpt>
      <trkpt lat="42.422093000" lon="-2.439021000">
        <ele>429.10</ele>
        <time>2013-07-27T09:01:01Z</time>
      </trkpt>
      <trkpt lat="42.422059000" lon="-2.439030000">
        <ele>429.10</ele>
        <time>2013-07-27T09:01:02Z</time>
      </trkpt>
      <trkpt lat="42.422022000" lon="-2.439043000">
        <ele>429.10</ele>
        <time>2013-07-27T09:01:03Z</time>
      </trkpt>
      <trkpt lat="42.421984000" lon="-2.439055000">
        <ele>429.40</ele>
        <time>2013-07-27T09:01:04Z</time>
      </trkpt>
      <trkpt lat="42.421944000" lon="-2.439072000">
        <ele>429.60</ele>
        <time>2013-07-27T09:01:05Z</time>
      </trkpt>
      <trkpt lat="42.421905000" lon="-2.439083000">
        <ele>429.80</ele>
        <time>2013-07-27T09:01:06Z</time>
      </trkpt>
      <trkpt lat="42.421865000" lon="-2.439099000">
        <ele>429.90</ele>
        <time>2013-07-27T09:01:07Z</time>
      </trkpt>
      <trkpt lat="42.421826000" lon="-2.439109000">
        <ele>430.00</ele>
        <time>2013-07-27T09:01:08Z</time>
      </trkpt>
      <trkpt lat="42.421787000" lon="-2.439119000">
        <ele>430.10</ele>
        <time>2013-07-27T09:01:09Z</time>
      </trkpt>
      <trkpt lat="42.421745000" lon="-2.439133000">
        <ele>430.30</ele>
        <time>2013-07-27T09:01:10Z</time>
      </trkpt>
      <trkpt lat="42.421705000" lon="-2.439143000">
        <ele>430.40</ele>
        <time>2013-07-27T09:01:11Z</time>
      </trkpt>
      <trkpt lat="42.421663000" lon="-2.439159000">
        <ele>430.50</ele>
        <time>2013-07-27T09:01:12Z</time>
      </trkpt>
      <trkpt lat="42.421626000" lon="-2.439171000">
        <ele>430.60</ele>
        <time>2013-07-27T09:01:13Z</time>
      </trkpt>
      <trkpt lat="42.421588000" lon="-2.439183000">
        <ele>430.60</ele>
        <time>2013-07-27T09:01:14Z</time>
      </trkpt>
      <trkpt lat="42.421548000" lon="-2.439192000">
        <ele>430.60</ele>
        <time>2013-07-27T09:01:15Z</time>
      </trkpt>
      <trkpt lat="42.421511000" lon="-2.439205000">
        <ele>430.50</ele>
        <time>2013-07-27T09:01:16Z</time>
      </trkpt>
      <trkpt lat="42.421474000" lon="-2.439212000">
        <ele>430.30</ele>
        <time>2013-07-27T09:01:17Z</time>
      </trkpt>
      <trkpt lat="42.421436000" lon="-2.439221000">
        <ele>430.20</ele>
        <time>2013-07-27T09:01:18Z</time>
      </trkpt>
      <trkpt lat="42.421400000" lon="-2.439229000">
        <ele>430.20</ele>
        <time>2013-07-27T09:01:19Z</time>
      </trkpt>
      <trkpt lat="42.421360000" lon="-2.439238000">
        <ele>430.20</ele>
        <time>2013-07-27T09:01:20Z</time>
      </trkpt>
      <trkpt lat="42.421322000" lon="-2.439245000">
        <ele>430.20</ele>
        <time>2013-07-27T09:01:21Z</time>
      </trkpt>
      <trkpt lat="42.421283000" lon="-2.439253000">
        <ele>430.40</ele>
        <time>2013-07-27T09:01:22Z</time>
      </trkpt>
      <trkpt lat="42.421244000" lon="-2.439260000">
        <ele>430.50</ele>
        <time>2013-07-27T09:01:23Z</time>
      </trkpt>
      <trkpt lat="42.421206000" lon="-2.439267000">
        <ele>430.70</ele>
        <time>2013-07-27T09:01:24Z</time>
      </trkpt>
      <trkpt lat="42.421167000" lon="-2.439276000">
        <ele>430.80</ele>
        <time>2013-07-27T09:01:25Z</time>
      </trkpt>
      <trkpt lat="42.421125000" lon="-2.439283000">
        <ele>431.00</ele>
        <time>2013-07-27T09:01:26Z</time>
      </trkpt>
      <trkpt lat="42.421088000" lon="-2.439288000">
        <ele>431.10</ele>
        <time>2013-07-27T09:01:27Z</time>
      </trkpt>
      <trkpt lat="42.421046000" lon="-2.439294000">
        <ele>431.10</ele>
        <time>2013-07-27T09:01:28Z</time>
      </trkpt>
      <trkpt lat="42.421008000" lon="-2.439302000">
        <ele>431.20</ele>
        <time>2013-07-27T09:01:29Z</time>
      </trkpt>
      <trkpt lat="42.420968000" lon="-2.439306000">
        <ele>431.10</ele>
        <time>2013-07-27T09:01:30Z</time>
      </trkpt>
      <trkpt lat="42.420928000" lon="-2.439315000">
        <ele>431.10</ele>
        <time>2013-07-27T09:01:31Z</time>
      </trkpt>
      <trkpt lat="42.420890000" lon="-2.439328000">
        <ele>431.20</ele>
        <time>2013-07-27T09:01:32Z</time>
      </trkpt>
      <trkpt lat="42.420852000" lon="-2.439336000">
        <ele>431.30</ele>
        <time>2013-07-27T09:01:33Z</time>
      </trkpt>
      <trkpt lat="42.420813000" lon="-2.439346000">
        <ele>431.30</ele>
        <time>2013-07-27T09:01:34Z</time>
      </trkpt>
      <trkpt lat="42.420776000" lon="-2.439358000">
        <ele>431.30</ele>
        <time>2013-07-27T09:01:35Z</time>
      </trkpt>
      <trkpt lat="42.420739000" lon="-2.439372000">
        <ele>431.30</ele>
        <time>2013-07-27T09:01:36Z</time>
      </trkpt>
      <trkpt lat="42.420701000" lon="-2.439386000">
        <ele>431.40</ele>
        <time>2013-07-27T09:01:37Z</time>
      </trkpt>
      <trkpt lat="42.420664000" lon="-2.439396000">
        <ele>431.50</ele>
        <time>2013-07-27T09:01:38Z</time>
      </trkpt>
      <trkpt lat="42.420623000" lon="-2.439409000">
        <ele>431.50</ele>
        <time>2013-07-27T09:01:39Z</time>
      </trkpt>
      <trkpt lat="42.420584000" lon="-2.439420000">
        <ele>431.60</ele>
        <time>2013-07-27T09:01:40Z</time>
      </trkpt>
      <trkpt lat="42.420543000" lon="-2.439434000">
        <ele>431.60</ele>
        <time>2013-07-27T09:01:41Z</time>
      </trkpt>
      <trkpt lat="42.420503000" lon="-2.439444000">
        <ele>431.50</ele>
        <time>2013-07-27T09:01:42Z</time>
      </trkpt>
      <trkpt lat="42.420465000" lon="-2.439457000">
        <ele>431.50</ele>
        <time>2013-07-27T09:01:43Z</time>
      </trkpt>
      <trkpt lat="42.420425000" lon="-2.439472000">
        <ele>431.40</ele>
        <time>2013-07-27T09:01:44Z</time>
      </trkpt>
      <trkpt lat="42.420383000" lon="-2.439487000">
        <ele>431.40</ele>
        <time>2013-07-27T09:01:45Z</time>
      </trkpt>
      <trkpt lat="42.420341000" lon="-2.439498000">
        <ele>431.30</ele>
        <time>2013-07-27T09:01:46Z</time>
      </trkpt>
      <trkpt lat="42.420298000" lon="-2.439507000">
        <ele>431.30</ele>
        <time>2013-07-27T09:01:47Z</time>
      </trkpt>
      <trkpt lat="42.420256000" lon="-2.439520000">
        <ele>431.30</ele>
        <time>2013-07-27T09:01:48Z</time>
      </trkpt>
      <trkpt lat="42.420210000" lon="-2.439532000">
        <ele>431.30</ele>
        <time>2013-07-27T09:01:49Z</time>
      </trkpt>
      <trkpt lat="42.420167000" lon="-2.439542000">
        <ele>431.30</ele>
        <time>2013-07-27T09:01:50Z</time>
      </trkpt>
      <trkpt lat="42.420123000" lon="-2.439549000">
        <ele>431.30</ele>
        <time>2013-07-27T09:01:51Z</time>
      </trkpt>
      <trkpt lat="42.420082000" lon="-2.439563000">
        <ele>431.30</ele>
        <time>2013-07-27T09:01:52Z</time>
      </trkpt>
      <trkpt lat="42.420041000" lon="-2.439578000">
        <ele>431.30</ele>
        <time>2013-07-27T09:01:53Z</time>
      </trkpt>
      <trkpt lat="42.420001000" lon="-2.439592000">
        <ele>431.20</ele>
        <time>2013-07-27T09:01:54Z</time>
      </trkpt>
      <trkpt lat="42.419960000" lon="-2.439602000">
        <ele>431.20</ele>
        <time>2013-07-27T09:01:55Z</time>
      </trkpt>
      <trkpt lat="42.419918000" lon="-2.439610000">
        <ele>431.20</ele>
        <time>2013-07-27T09:01:56Z</time>
      </trkpt>
      <trkpt lat="42.419877000" lon="-2.439622000">
        <ele>431.20</ele>
        <time>2013-07-27T09:01:57Z</time>
      </trkpt>
      <trkpt lat="42.419836000" lon="-2.439632000">
        <ele>431.20</ele>
        <time>2013-07-27T09:01:58Z</time>
      </trkpt>
      <trkpt lat="42.419799000" lon="-2.439644000">
        <ele>431.20</ele>
        <time>2013-07-27T09:01:59Z</time>
      </trkpt>
      <trkpt lat="42.419759000" lon="-2.439651000">
        <ele>431.20</ele>
        <time>2013-07-27T09:02:00Z</time>
      </trkpt>
      <trkpt lat="42.419720000" lon="-2.439656000">
        <ele>431.20</ele>
        <time>2013-07-27T09:02:01Z</time>
      </trkpt>
      <trkpt lat="42.419679000" lon="-2.439662000">
        <ele>431.30</ele>
        <time>2013-07-27T09:02:02Z</time>
      </trkpt>
      <trkpt lat="42.419641000" lon="-2.439668000">
        <ele>431.30</ele>
        <time>2013-07-27T09:02:03Z</time>
      </trkpt>
      <trkpt lat="42.419601000" lon="-2.439681000">
        <ele>431.40</ele>
        <time>2013-07-27T09:02:04Z</time>
      </trkpt>
      <trkpt lat="42.419562000" lon="-2.439694000">
        <ele>431.40</ele>
        <time>2013-07-27T09:02:05Z</time>
      </trkpt>
      <trkpt lat="42.419525000" lon="-2.439710000">
        <ele>431.40</ele>
        <time>2013-07-27T09:02:06Z</time>
      </trkpt>
      <trkpt lat="42.419485000" lon="-2.439729000">
        <ele>431.40</ele>
        <time>2013-07-27T09:02:07Z</time>
      </trkpt>
      <trkpt lat="42.419447000" lon="-2.439748000">
        <ele>431.60</ele>
        <time>2013-07-27T09:02:08Z</time>
      </trkpt>
      <trkpt lat="42.419413000" lon="-2.439770000">
        <ele>431.70</ele>
        <time>2013-07-27T09:02:09Z</time>
      </trkpt>
      <trkpt lat="42.419377000" lon="-2.439795000">
        <ele>431.80</ele>
        <time>2013-07-27T09:02:10Z</time>
      </trkpt>
      <trkpt lat="42.419338000" lon="-2.439812000">
        <ele>431.80</ele>
        <time>2013-07-27T09:02:11Z</time>
      </trkpt>
      <trkpt lat="42.419298000" lon="-2.439837000">
        <ele>431.90</ele>
        <time>2013-07-27T09:02:12Z</time>
      </trkpt>
      <trkpt lat="42.419259000" lon="-2.439853000">
        <ele>431.90</ele>
        <time>2013-07-27T09:02:13Z</time>
      </trkpt>
      <trkpt lat="42.419218000" lon="-2.439862000">
        <ele>432.00</ele>
        <time>2013-07-27T09:02:14Z</time>
      </trkpt>
      <trkpt lat="42.419178000" lon="-2.439870000">
        <ele>432.10</ele>
        <time>2013-07-27T09:02:15Z</time>
      </trkpt>
      <trkpt lat="42.419138000" lon="-2.439880000">
        <ele>432.10</ele>
        <time>2013-07-27T09:02:16Z</time>
      </trkpt>
      <trkpt lat="42.419096000" lon="-2.439891000">
        <ele>432.10</ele>
        <time>2013-07-27T09:02:17Z</time>
      </trkpt>
      <trkpt lat="42.419054000" lon="-2.439900000">
        <ele>432.20</ele>
        <time>2013-07-27T09:02:18Z</time>
      </trkpt>
      <trkpt lat="42.419012000" lon="-2.439911000">
        <ele>432.20</ele>
        <time>2013-07-27T09:02:19Z</time>
      </trkpt>
      <trkpt lat="42.418974000" lon="-2.439928000">
        <ele>432.20</ele>
        <time>2013-07-27T09:02:20Z</time>
      </trkpt>
      <trkpt lat="42.418937000" lon="-2.439952000">
        <ele>432.20</ele>
        <time>2013-07-27T09:02:21Z</time>
      </trkpt>
      <trkpt lat="42.418900000" lon="-2.439980000">
        <ele>432.20</ele>
        <time>2013-07-27T09:02:22Z</time>
      </trkpt>
      <trkpt lat="42.418868000" lon="-2.440015000">
        <ele>432.20</ele>
        <time>2013-07-27T09:02:23Z</time>
      </trkpt>
      <trkpt lat="42.418836000" lon="-2.440056000">
        <ele>432.40</ele>
        <time>2013-07-27T09:02:24Z</time>
      </trkpt>
      <trkpt lat="42.418807000" lon="-2.440095000">
        <ele>432.50</ele>
        <time>2013-07-27T09:02:25Z</time>
      </trkpt>
      <trkpt lat="42.418779000" lon="-2.440140000">
        <ele>432.60</ele>
        <time>2013-07-27T09:02:26Z</time>
      </trkpt>
      <trkpt lat="42.418752000" lon="-2.440185000">
        <ele>432.70</ele>
        <time>2013-07-27T09:02:27Z</time>
      </trkpt>
      <trkpt lat="42.418723000" lon="-2.440228000">
        <ele>432.80</ele>
        <time>2013-07-27T09:02:28Z</time>
      </trkpt>
      <trkpt lat="42.418700000" lon="-2.440269000">
        <ele>432.80</ele>
        <time>2013-07-27T09:02:29Z</time>
      </trkpt>
      <trkpt lat="42.418672000" lon="-2.440313000">
        <ele>432.90</ele>
        <time>2013-07-27T09:02:30Z</time>
      </trkpt>
      <trkpt lat="42.418643000" lon="-2.440358000">
        <ele>432.90</ele>
        <time>2013-07-27T09:02:31Z</time>
      </trkpt>
      <trkpt lat="42.418614000" lon="-2.440400000">
        <ele>432.70</ele>
        <time>2013-07-27T09:02:32Z</time>
      </trkpt>
      <trkpt lat="42.418583000" lon="-2.440436000">
        <ele>432.60</ele>
        <time>2013-07-27T09:02:33Z</time>
      </trkpt>
      <trkpt lat="42.418551000" lon="-2.440471000">
        <ele>432.70</ele>
        <time>2013-07-27T09:02:34Z</time>
      </trkpt>
      <trkpt lat="42.418518000" lon="-2.440504000">
        <ele>432.80</ele>
        <time>2013-07-27T09:02:35Z</time>
      </trkpt>
      <trkpt lat="42.418485000" lon="-2.440535000">
        <ele>432.70</ele>
        <time>2013-07-27T09:02:36Z</time>
      </trkpt>
      <trkpt lat="42.418452000" lon="-2.440565000">
        <ele>432.60</ele>
        <time>2013-07-27T09:02:37Z</time>
      </trkpt>
      <trkpt lat="42.418419000" lon="-2.440595000">
        <ele>432.60</ele>
        <time>2013-07-27T09:02:38Z</time>
      </trkpt>
      <trkpt lat="42.418385000" lon="-2.440628000">
        <ele>432.60</ele>
        <time>2013-07-27T09:02:39Z</time>
      </trkpt>
      <trkpt lat="42.418353000" lon="-2.440660000">
        <ele>432.50</ele>
        <time>2013-07-27T09:02:40Z</time>
      </trkpt>
      <trkpt lat="42.418318000" lon="-2.440692000">
        <ele>432.50</ele>
        <time>2013-07-27T09:02:41Z</time>
      </trkpt>
      <trkpt lat="42.418285000" lon="-2.440724000">
        <ele>432.60</ele>
        <time>2013-07-27T09:02:42Z</time>
      </trkpt>
      <trkpt lat="42.418252000" lon="-2.440757000">
        <ele>432.70</ele>
        <time>2013-07-27T09:02:43Z</time>
      </trkpt>
      <trkpt lat="42.418219000" lon="-2.440790000">
        <ele>432.80</ele>
        <time>2013-07-27T09:02:44Z</time>
      </trkpt>
      <trkpt lat="42.418189000" lon="-2.440821000">
        <ele>432.90</ele>
        <time>2013-07-27T09:02:45Z</time>
      </trkpt>
      <trkpt lat="42.418156000" lon="-2.440853000">
        <ele>433.50</ele>
        <time>2013-07-27T09:02:46Z</time>
      </trkpt>
      <trkpt lat="42.418120000" lon="-2.440883000">
        <ele>433.90</ele>
        <time>2013-07-27T09:02:47Z</time>
      </trkpt>
      <trkpt lat="42.418087000" lon="-2.440912000">
        <ele>434.20</ele>
        <time>2013-07-27T09:02:48Z</time>
      </trkpt>
      <trkpt lat="42.418058000" lon="-2.440946000">
        <ele>434.40</ele>
        <time>2013-07-27T09:02:49Z</time>
      </trkpt>
      <trkpt lat="42.418027000" lon="-2.440975000">
        <ele>434.60</ele>
        <time>2013-07-27T09:02:50Z</time>
      </trkpt>
      <trkpt lat="42.417997000" lon="-2.441006000">
        <ele>434.70</ele>
        <time>2013-07-27T09:02:51Z</time>
      </trkpt>
      <trkpt lat="42.417967000" lon="-2.441037000">
        <ele>435.00</ele>
        <time>2013-07-27T09:02:52Z</time>
      </trkpt>
      <trkpt lat="42.417936000" lon="-2.441068000">
        <ele>435.20</ele>
        <time>2013-07-27T09:02:53Z</time>
      </trkpt>
      <trkpt lat="42.417906000" lon="-2.441100000">
        <ele>435.40</ele>
        <time>2013-07-27T09:02:54Z</time>
      </trkpt>
      <trkpt lat="42.417875000" lon="-2.441128000">
        <ele>435.50</ele>
        <time>2013-07-27T09:02:55Z</time>
      </trkpt>
      <trkpt lat="42.417842000" lon="-2.441159000">
        <ele>435.60</ele>
        <time>2013-07-27T09:02:56Z</time>
      </trkpt>
      <trkpt lat="42.417807000" lon="-2.441187000">
        <ele>435.70</ele>
        <time>2013-07-27T09:02:57Z</time>
      </trkpt>
      <trkpt lat="42.417772000" lon="-2.441212000">
        <ele>435.70</ele>
        <time>2013-07-27T09:02:58Z</time>
      </trkpt>
      <trkpt lat="42.417735000" lon="-2.441235000">
        <ele>435.70</ele>
        <time>2013-07-27T09:02:59Z</time>
      </trkpt>
      <trkpt lat="42.417699000" lon="-2.441258000">
        <ele>435.60</ele>
        <time>2013-07-27T09:03:00Z</time>
      </trkpt>
      <trkpt lat="42.417660000" lon="-2.441281000">
        <ele>435.60</ele>
        <time>2013-07-27T09:03:01Z</time>
      </trkpt>
      <trkpt lat="42.417625000" lon="-2.441301000">
        <ele>435.50</ele>
        <time>2013-07-27T09:03:02Z</time>
      </trkpt>
      <trkpt lat="42.417587000" lon="-2.441318000">
        <ele>435.50</ele>
        <time>2013-07-27T09:03:03Z</time>
      </trkpt>
      <trkpt lat="42.417550000" lon="-2.441335000">
        <ele>435.40</ele>
        <time>2013-07-27T09:03:04Z</time>
      </trkpt>
      <trkpt lat="42.417516000" lon="-2.441352000">
        <ele>435.40</ele>
        <time>2013-07-27T09:03:05Z</time>
      </trkpt>
      <trkpt lat="42.417478000" lon="-2.441367000">
        <ele>435.50</ele>
        <time>2013-07-27T09:03:06Z</time>
      </trkpt>
      <trkpt lat="42.417439000" lon="-2.441384000">
        <ele>435.50</ele>
        <time>2013-07-27T09:03:07Z</time>
      </trkpt>
      <trkpt lat="42.417401000" lon="-2.441401000">
        <ele>435.50</ele>
        <time>2013-07-27T09:03:08Z</time>
      </trkpt>
      <trkpt lat="42.417363000" lon="-2.441416000">
        <ele>435.50</ele>
        <time>2013-07-27T09:03:09Z</time>
      </trkpt>
      <trkpt lat="42.417327000" lon="-2.441431000">
        <ele>435.70</ele>
        <time>2013-07-27T09:03:10Z</time>
      </trkpt>
      <trkpt lat="42.417287000" lon="-2.441446000">
        <ele>435.80</ele>
        <time>2013-07-27T09:03:11Z</time>
      </trkpt>
      <trkpt lat="42.417250000" lon="-2.441461000">
        <ele>436.00</ele>
        <time>2013-07-27T09:03:12Z</time>
      </trkpt>
      <trkpt lat="42.417213000" lon="-2.441473000">
        <ele>436.20</ele>
        <time>2013-07-27T09:03:13Z</time>
      </trkpt>
      <trkpt lat="42.417173000" lon="-2.441484000">
        <ele>436.30</ele>
        <time>2013-07-27T09:03:14Z</time>
      </trkpt>
      <trkpt lat="42.417138000" lon="-2.441502000">
        <ele>436.40</ele>
        <time>2013-07-27T09:03:15Z</time>
      </trkpt>
      <trkpt lat="42.417103000" lon="-2.441516000">
        <ele>436.50</ele>
        <time>2013-07-27T09:03:16Z</time>
      </trkpt>
      <trkpt lat="42.417072000" lon="-2.441526000">
        <ele>436.60</ele>
        <time>2013-07-27T09:03:17Z</time>
      </trkpt>
      <trkpt lat="42.417039000" lon="-2.441540000">
        <ele>436.50</ele>
        <time>2013-07-27T09:03:18Z</time>
      </trkpt>
      <trkpt lat="42.417003000" lon="-2.441549000">
        <ele>436.40</ele>
        <time>2013-07-27T09:03:19Z</time>
      </trkpt>
      <trkpt lat="42.416964000" lon="-2.441558000">
        <ele>436.10</ele>
        <time>2013-07-27T09:03:20Z</time>
      </trkpt>
      <trkpt lat="42.416926000" lon="-2.441564000">
        <ele>435.90</ele>
        <time>2013-07-27T09:03:21Z</time>
      </trkpt>
      <trkpt lat="42.416887000" lon="-2.441570000">
        <ele>435.70</ele>
        <time>2013-07-27T09:03:22Z</time>
      </trkpt>
      <trkpt lat="42.416845000" lon="-2.441579000">
        <ele>435.60</ele>
        <time>2013-07-27T09:03:23Z</time>
      </trkpt>
      <trkpt lat="42.416808000" lon="-2.441588000">
        <ele>435.70</ele>
        <time>2013-07-27T09:03:24Z</time>
      </trkpt>
      <trkpt lat="42.416770000" lon="-2.441594000">
        <ele>435.70</ele>
        <time>2013-07-27T09:03:25Z</time>
      </trkpt>
      <trkpt lat="42.416736000" lon="-2.441602000">
        <ele>435.80</ele>
        <time>2013-07-27T09:03:26Z</time>
      </trkpt>
      <trkpt lat="42.416701000" lon="-2.441612000">
        <ele>435.80</ele>
        <time>2013-07-27T09:03:27Z</time>
      </trkpt>
      <trkpt lat="42.416665000" lon="-2.441625000">
        <ele>435.80</ele>
        <time>2013-07-27T09:03:28Z</time>
      </trkpt>
      <trkpt lat="42.416630000" lon="-2.441639000">
        <ele>435.80</ele>
        <time>2013-07-27T09:03:29Z</time>
      </trkpt>
      <trkpt lat="42.416596000" lon="-2.441653000">
        <ele>436.00</ele>
        <time>2013-07-27T09:03:30Z</time>
      </trkpt>
      <trkpt lat="42.416562000" lon="-2.441665000">
        <ele>436.20</ele>
        <time>2013-07-27T09:03:31Z</time>
      </trkpt>
      <trkpt lat="42.416526000" lon="-2.441678000">
        <ele>436.30</ele>
        <time>2013-07-27T09:03:32Z</time>
      </trkpt>
      <trkpt lat="42.416493000" lon="-2.441696000">
        <ele>436.40</ele>
        <time>2013-07-27T09:03:33Z</time>
      </trkpt>
      <trkpt lat="42.416459000" lon="-2.441711000">
        <ele>436.10</ele>
        <time>2013-07-27T09:03:34Z</time>
      </trkpt>
      <trkpt lat="42.416425000" lon="-2.441722000">
        <ele>435.90</ele>
        <time>2013-07-27T09:03:35Z</time>
      </trkpt>
      <trkpt lat="42.416390000" lon="-2.441730000">
        <ele>435.70</ele>
        <time>2013-07-27T09:03:36Z</time>
      </trkpt>
      <trkpt lat="42.416354000" lon="-2.441741000">
        <ele>435.50</ele>
        <time>2013-07-27T09:03:37Z</time>
      </trkpt>
      <trkpt lat="42.416319000" lon="-2.441752000">
        <ele>435.40</ele>
        <time>2013-07-27T09:03:38Z</time>
      </trkpt>
      <trkpt lat="42.416286000" lon="-2.441759000">
        <ele>435.40</ele>
        <time>2013-07-27T09:03:39Z</time>
      </trkpt>
      <trkpt lat="42.416251000" lon="-2.441767000">
        <ele>435.50</ele>
        <time>2013-07-27T09:03:40Z</time>
      </trkpt>
      <trkpt lat="42.416218000" lon="-2.441779000">
        <ele>435.70</ele>
        <time>2013-07-27T09:03:41Z</time>
      </trkpt>
      <trkpt lat="42.416183000" lon="-2.441789000">
        <ele>435.90</ele>
        <time>2013-07-27T09:03:42Z</time>
      </trkpt>
      <trkpt lat="42.416149000" lon="-2.441805000">
        <ele>436.10</ele>
        <time>2013-07-27T09:03:43Z</time>
      </trkpt>
      <trkpt lat="42.416118000" lon="-2.441823000">
        <ele>436.30</ele>
        <time>2013-07-27T09:03:44Z</time>
      </trkpt>
      <trkpt lat="42.416085000" lon="-2.441840000">
        <ele>436.40</ele>
        <time>2013-07-27T09:03:45Z</time>
      </trkpt>
      <trkpt lat="42.416055000" lon="-2.441863000">
        <ele>436.60</ele>
        <time>2013-07-27T09:03:46Z</time>
      </trkpt>
      <trkpt lat="42.416025000" lon="-2.441889000">
        <ele>436.80</ele>
        <time>2013-07-27T09:03:47Z</time>
      </trkpt>
      <trkpt lat="42.415996000" lon="-2.441919000">
        <ele>436.80</ele>
        <time>2013-07-27T09:03:48Z</time>
      </trkpt>
      <trkpt lat="42.415968000" lon="-2.441952000">
        <ele>436.80</ele>
        <time>2013-07-27T09:03:49Z</time>
      </trkpt>
      <trkpt lat="42.415943000" lon="-2.441986000">
        <ele>436.90</ele>
        <time>2013-07-27T09:03:50Z</time>
      </trkpt>
      <trkpt lat="42.415917000" lon="-2.442019000">
        <ele>437.00</ele>
        <time>2013-07-27T09:03:51Z</time>
      </trkpt>
      <trkpt lat="42.415890000" lon="-2.442055000">
        <ele>437.00</ele>
        <time>2013-07-27T09:03:52Z</time>
      </trkpt>
      <trkpt lat="42.415862000" lon="-2.442088000">
        <ele>437.10</ele>
        <time>2013-07-27T09:03:53Z</time>
      </trkpt>
      <trkpt lat="42.415833000" lon="-2.442120000">
        <ele>437.10</ele>
        <time>2013-07-27T09:03:54Z</time>
      </trkpt>
      <trkpt lat="42.415803000" lon="-2.442146000">
        <ele>437.10</ele>
        <time>2013-07-27T09:03:55Z</time>
      </trkpt>
      <trkpt lat="42.415771000" lon="-2.442170000">
        <ele>437.20</ele>
        <time>2013-07-27T09:03:56Z</time>
      </trkpt>
      <trkpt lat="42.415737000" lon="-2.442191000">
        <ele>437.20</ele>
        <time>2013-07-27T09:03:57Z</time>
      </trkpt>
      <trkpt lat="42.415705000" lon="-2.442206000">
        <ele>437.20</ele>
        <time>2013-07-27T09:03:58Z</time>
      </trkpt>
      <trkpt lat="42.415671000" lon="-2.442221000">
        <ele>437.30</ele>
        <time>2013-07-27T09:03:59Z</time>
      </trkpt>
      <trkpt lat="42.415639000" lon="-2.442232000">
        <ele>437.40</ele>
        <time>2013-07-27T09:04:00Z</time>
      </trkpt>
      <trkpt lat="42.415605000" lon="-2.442239000">
        <ele>437.50</ele>
        <time>2013-07-27T09:04:01Z</time>
      </trkpt>
      <trkpt lat="42.415573000" lon="-2.442248000">
        <ele>437.80</ele>
        <time>2013-07-27T09:04:02Z</time>
      </trkpt>
      <trkpt lat="42.415539000" lon="-2.442250000">
        <ele>438.00</ele>
        <time>2013-07-27T09:04:03Z</time>
      </trkpt>
      <trkpt lat="42.415503000" lon="-2.442254000">
        <ele>438.20</ele>
        <time>2013-07-27T09:04:04Z</time>
      </trkpt>
      <trkpt lat="42.415464000" lon="-2.442257000">
        <ele>438.30</ele>
        <time>2013-07-27T09:04:05Z</time>
      </trkpt>
      <trkpt lat="42.415428000" lon="-2.442260000">
        <ele>438.50</ele>
        <time>2013-07-27T09:04:06Z</time>
      </trkpt>
      <trkpt lat="42.415394000" lon="-2.442265000">
        <ele>438.60</ele>
        <time>2013-07-27T09:04:07Z</time>
      </trkpt>
      <trkpt lat="42.415359000" lon="-2.442269000">
        <ele>438.70</ele>
        <time>2013-07-27T09:04:08Z</time>
      </trkpt>
      <trkpt lat="42.415319000" lon="-2.442266000">
        <ele>438.70</ele>
        <time>2013-07-27T09:04:09Z</time>
      </trkpt>
      <trkpt lat="42.415282000" lon="-2.442266000">
        <ele>438.80</ele>
        <time>2013-07-27T09:04:10Z</time>
      </trkpt>
      <trkpt lat="42.415244000" lon="-2.442264000">
        <ele>438.90</ele>
        <time>2013-07-27T09:04:11Z</time>
      </trkpt>
      <trkpt lat="42.415208000" lon="-2.442262000">
        <ele>439.00</ele>
        <time>2013-07-27T09:04:12Z</time>
      </trkpt>
      <trkpt lat="42.415173000" lon="-2.442263000">
        <ele>439.00</ele>
        <time>2013-07-27T09:04:13Z</time>
      </trkpt>
      <trkpt lat="42.415138000" lon="-2.442265000">
        <ele>438.70</ele>
        <time>2013-07-27T09:04:14Z</time>
      </trkpt>
      <trkpt lat="42.415101000" lon="-2.442267000">
        <ele>438.40</ele>
        <time>2013-07-27T09:04:15Z</time>
      </trkpt>
      <trkpt lat="42.415063000" lon="-2.442270000">
        <ele>438.10</ele>
        <time>2013-07-27T09:04:16Z</time>
      </trkpt>
      <trkpt lat="42.415024000" lon="-2.442272000">
        <ele>437.80</ele>
        <time>2013-07-27T09:04:17Z</time>
      </trkpt>
      <trkpt lat="42.414987000" lon="-2.442274000">
        <ele>437.60</ele>
        <time>2013-07-27T09:04:18Z</time>
      </trkpt>
      <trkpt lat="42.414951000" lon="-2.442277000">
        <ele>437.50</ele>
        <time>2013-07-27T09:04:19Z</time>
      </trkpt>
      <trkpt lat="42.414913000" lon="-2.442281000">
        <ele>437.40</ele>
        <time>2013-07-27T09:04:20Z</time>
      </trkpt>
      <trkpt lat="42.414876000" lon="-2.442287000">
        <ele>437.30</ele>
        <time>2013-07-27T09:04:21Z</time>
      </trkpt>
      <trkpt lat="42.414840000" lon="-2.442288000">
        <ele>437.50</ele>
        <time>2013-07-27T09:04:22Z</time>
      </trkpt>
      <trkpt lat="42.414804000" lon="-2.442286000">
        <ele>437.60</ele>
        <time>2013-07-27T09:04:23Z</time>
      </trkpt>
      <trkpt lat="42.414770000" lon="-2.442286000">
        <ele>437.70</ele>
        <time>2013-07-27T09:04:24Z</time>
      </trkpt>
      <trkpt lat="42.414736000" lon="-2.442284000">
        <ele>437.90</ele>
        <time>2013-07-27T09:04:25Z</time>
      </trkpt>
      <trkpt lat="42.414702000" lon="-2.442285000">
        <ele>438.00</ele>
        <time>2013-07-27T09:04:26Z</time>
      </trkpt>
      <trkpt lat="42.414667000" lon="-2.442284000">
        <ele>438.10</ele>
        <time>2013-07-27T09:04:27Z</time>
      </trkpt>
      <trkpt lat="42.414631000" lon="-2.442281000">
        <ele>438.00</ele>
        <time>2013-07-27T09:04:28Z</time>
      </trkpt>
      <trkpt lat="42.414596000" lon="-2.442284000">
        <ele>437.90</ele>
        <time>2013-07-27T09:04:29Z</time>
      </trkpt>
      <trkpt lat="42.414561000" lon="-2.442287000">
        <ele>437.90</ele>
        <time>2013-07-27T09:04:30Z</time>
      </trkpt>
      <trkpt lat="42.414526000" lon="-2.442288000">
        <ele>437.90</ele>
        <time>2013-07-27T09:04:31Z</time>
      </trkpt>
      <trkpt lat="42.414493000" lon="-2.442294000">
        <ele>438.00</ele>
        <time>2013-07-27T09:04:32Z</time>
      </trkpt>
      <trkpt lat="42.414460000" lon="-2.442305000">
        <ele>438.10</ele>
        <time>2013-07-27T09:04:33Z</time>
      </trkpt>
      <trkpt lat="42.414424000" lon="-2.442317000">
        <ele>438.10</ele>
        <time>2013-07-27T09:04:34Z</time>
      </trkpt>
      <trkpt lat="42.414390000" lon="-2.442334000">
        <ele>438.20</ele>
        <time>2013-07-27T09:04:35Z</time>
      </trkpt>
      <trkpt lat="42.414355000" lon="-2.442353000">
        <ele>438.20</ele>
        <time>2013-07-27T09:04:36Z</time>
      </trkpt>
      <trkpt lat="42.414320000" lon="-2.442375000">
        <ele>438.20</ele>
        <time>2013-07-27T09:04:37Z</time>
      </trkpt>
      <trkpt lat="42.414286000" lon="-2.442393000">
        <ele>438.20</ele>
        <time>2013-07-27T09:04:38Z</time>
      </trkpt>
      <trkpt lat="42.414252000" lon="-2.442416000">
        <ele>438.10</ele>
        <time>2013-07-27T09:04:39Z</time>
      </trkpt>
      <trkpt lat="42.414217000" lon="-2.442438000">
        <ele>437.90</ele>
        <time>2013-07-27T09:04:40Z</time>
      </trkpt>
      <trkpt lat="42.414184000" lon="-2.442460000">
        <ele>437.80</ele>
        <time>2013-07-27T09:04:41Z</time>
      </trkpt>
      <trkpt lat="42.414152000" lon="-2.442481000">
        <ele>437.80</ele>
        <time>2013-07-27T09:04:42Z</time>
      </trkpt>
      <trkpt lat="42.414122000" lon="-2.442504000">
        <ele>437.90</ele>
        <time>2013-07-27T09:04:43Z</time>
      </trkpt>
      <trkpt lat="42.414091000" lon="-2.442528000">
        <ele>438.00</ele>
        <time>2013-07-27T09:04:44Z</time>
      </trkpt>
      <trkpt lat="42.414060000" lon="-2.442552000">
        <ele>438.10</ele>
        <time>2013-07-27T09:04:45Z</time>
      </trkpt>
      <trkpt lat="42.414030000" lon="-2.442578000">
        <ele>438.10</ele>
        <time>2013-07-27T09:04:46Z</time>
      </trkpt>
      <trkpt lat="42.414001000" lon="-2.442597000">
        <ele>438.20</ele>
        <time>2013-07-27T09:04:47Z</time>
      </trkpt>
      <trkpt lat="42.413972000" lon="-2.442615000">
        <ele>438.20</ele>
        <time>2013-07-27T09:04:48Z</time>
      </trkpt>
      <trkpt lat="42.413942000" lon="-2.442635000">
        <ele>438.20</ele>
        <time>2013-07-27T09:04:49Z</time>
      </trkpt>
      <trkpt lat="42.413911000" lon="-2.442656000">
        <ele>438.30</ele>
        <time>2013-07-27T09:04:50Z</time>
      </trkpt>
      <trkpt lat="42.413879000" lon="-2.442679000">
        <ele>438.40</ele>
        <time>2013-07-27T09:04:51Z</time>
      </trkpt>
      <trkpt lat="42.413850000" lon="-2.442701000">
        <ele>438.60</ele>
        <time>2013-07-27T09:04:52Z</time>
      </trkpt>
      <trkpt lat="42.413821000" lon="-2.442719000">
        <ele>438.70</ele>
        <time>2013-07-27T09:04:53Z</time>
      </trkpt>
      <trkpt lat="42.413789000" lon="-2.442736000">
        <ele>438.80</ele>
        <time>2013-07-27T09:04:54Z</time>
      </trkpt>
      <trkpt lat="42.413756000" lon="-2.442752000">
        <ele>438.90</ele>
        <time>2013-07-27T09:04:55Z</time>
      </trkpt>
      <trkpt lat="42.413724000" lon="-2.442766000">
        <ele>438.90</ele>
        <time>2013-07-27T09:04:56Z</time>
      </trkpt>
      <trkpt lat="42.413692000" lon="-2.442781000">
        <ele>439.00</ele>
        <time>2013-07-27T09:04:57Z</time>
      </trkpt>
      <trkpt lat="42.413658000" lon="-2.442790000">
        <ele>438.80</ele>
        <time>2013-07-27T09:04:58Z</time>
      </trkpt>
      <trkpt lat="42.413622000" lon="-2.442802000">
        <ele>438.70</ele>
        <time>2013-07-27T09:04:59Z</time>
      </trkpt>
      <trkpt lat="42.413588000" lon="-2.442811000">
        <ele>438.60</ele>
        <time>2013-07-27T09:05:00Z</time>
      </trkpt>
      <trkpt lat="42.413555000" lon="-2.442820000">
        <ele>438.50</ele>
        <time>2013-07-27T09:05:01Z</time>
      </trkpt>
      <trkpt lat="42.413523000" lon="-2.442828000">
        <ele>438.70</ele>
        <time>2013-07-27T09:05:02Z</time>
      </trkpt>
      <trkpt lat="42.413490000" lon="-2.442838000">
        <ele>438.80</ele>
        <time>2013-07-27T09:05:03Z</time>
      </trkpt>
      <trkpt lat="42.413454000" lon="-2.442845000">
        <ele>438.80</ele>
        <time>2013-07-27T09:05:04Z</time>
      </trkpt>
      <trkpt lat="42.413422000" lon="-2.442853000">
        <ele>438.90</ele>
        <time>2013-07-27T09:05:05Z</time>
      </trkpt>
      <trkpt lat="42.413395000" lon="-2.442864000">
        <ele>439.00</ele>
        <time>2013-07-27T09:05:06Z</time>
      </trkpt>
      <trkpt lat="42.413363000" lon="-2.442872000">
        <ele>439.00</ele>
        <time>2013-07-27T09:05:07Z</time>
      </trkpt>
      <trkpt lat="42.413334000" lon="-2.442880000">
        <ele>438.80</ele>
        <time>2013-07-27T09:05:08Z</time>
      </trkpt>
      <trkpt lat="42.413301000" lon="-2.442889000">
        <ele>438.70</ele>
        <time>2013-07-27T09:05:09Z</time>
      </trkpt>
      <trkpt lat="42.413271000" lon="-2.442900000">
        <ele>438.80</ele>
        <time>2013-07-27T09:05:10Z</time>
      </trkpt>
      <trkpt lat="42.413240000" lon="-2.442916000">
        <ele>438.80</ele>
        <time>2013-07-27T09:05:11Z</time>
      </trkpt>
      <trkpt lat="42.413208000" lon="-2.442930000">
        <ele>438.80</ele>
        <time>2013-07-27T09:05:12Z</time>
      </trkpt>
      <trkpt lat="42.413176000" lon="-2.442944000">
        <ele>438.90</ele>
        <time>2013-07-27T09:05:13Z</time>
      </trkpt>
      <trkpt lat="42.413142000" lon="-2.442960000">
        <ele>438.90</ele>
        <time>2013-07-27T09:05:14Z</time>
      </trkpt>
      <trkpt lat="42.413109000" lon="-2.442975000">
        <ele>438.90</ele>
        <time>2013-07-27T09:05:15Z</time>
      </trkpt>
      <trkpt lat="42.413074000" lon="-2.442987000">
        <ele>439.20</ele>
        <time>2013-07-27T09:05:16Z</time>
      </trkpt>
      <trkpt lat="42.413038000" lon="-2.443001000">
        <ele>439.40</ele>
        <time>2013-07-27T09:05:17Z</time>
      </trkpt>
      <trkpt lat="42.413004000" lon="-2.443013000">
        <ele>439.60</ele>
        <time>2013-07-27T09:05:18Z</time>
      </trkpt>
      <trkpt lat="42.412971000" lon="-2.443024000">
        <ele>439.70</ele>
        <time>2013-07-27T09:05:19Z</time>
      </trkpt>
      <trkpt lat="42.412937000" lon="-2.443032000">
        <ele>440.00</ele>
        <time>2013-07-27T09:05:20Z</time>
      </trkpt>
      <trkpt lat="42.412903000" lon="-2.443041000">
        <ele>440.10</ele>
        <time>2013-07-27T09:05:21Z</time>
      </trkpt>
      <trkpt lat="42.412869000" lon="-2.443051000">
        <ele>440.30</ele>
        <time>2013-07-27T09:05:22Z</time>
      </trkpt>
      <trkpt lat="42.412834000" lon="-2.443060000">
        <ele>440.40</ele>
        <time>2013-07-27T09:05:23Z</time>
      </trkpt>
      <trkpt lat="42.412797000" lon="-2.443069000">
        <ele>440.10</ele>
        <time>2013-07-27T09:05:24Z</time>
      </trkpt>
      <trkpt lat="42.412759000" lon="-2.443079000">
        <ele>439.80</ele>
        <time>2013-07-27T09:05:25Z</time>
      </trkpt>
      <trkpt lat="42.412721000" lon="-2.443089000">
        <ele>439.70</ele>
        <time>2013-07-27T09:05:26Z</time>
      </trkpt>
      <trkpt lat="42.412687000" lon="-2.443103000">
        <ele>439.60</ele>
        <time>2013-07-27T09:05:27Z</time>
      </trkpt>
      <trkpt lat="42.412652000" lon="-2.443119000">
        <ele>439.50</ele>
        <time>2013-07-27T09:05:28Z</time>
      </trkpt>
      <trkpt lat="42.412617000" lon="-2.443129000">
        <ele>439.40</ele>
        <time>2013-07-27T09:05:29Z</time>
      </trkpt>
      <trkpt lat="42.412581000" lon="-2.443139000">
        <ele>439.80</ele>
        <time>2013-07-27T09:05:30Z</time>
      </trkpt>
      <trkpt lat="42.412544000" lon="-2.443147000">
        <ele>440.20</ele>
        <time>2013-07-27T09:05:31Z</time>
      </trkpt>
      <trkpt lat="42.412505000" lon="-2.443148000">
        <ele>440.50</ele>
        <time>2013-07-27T09:05:32Z</time>
      </trkpt>
      <trkpt lat="42.412464000" lon="-2.443144000">
        <ele>440.70</ele>
        <time>2013-07-27T09:05:33Z</time>
      </trkpt>
      <trkpt lat="42.412424000" lon="-2.443136000">
        <ele>440.90</ele>
        <time>2013-07-27T09:05:34Z</time>
      </trkpt>
      <trkpt lat="42.412387000" lon="-2.443122000">
        <ele>441.00</ele>
        <time>2013-07-27T09:05:35Z</time>
      </trkpt>
      <trkpt lat="42.412350000" lon="-2.443104000">
        <ele>441.10</ele>
        <time>2013-07-27T09:05:36Z</time>
      </trkpt>
      <trkpt lat="42.412317000" lon="-2.443084000">
        <ele>441.20</ele>
        <time>2013-07-27T09:05:37Z</time>
      </trkpt>
      <trkpt lat="42.412281000" lon="-2.443063000">
        <ele>441.20</ele>
        <time>2013-07-27T09:05:38Z</time>
      </trkpt>
      <trkpt lat="42.412246000" lon="-2.443044000">
        <ele>441.20</ele>
        <time>2013-07-27T09:05:39Z</time>
      </trkpt>
      <trkpt lat="42.412210000" lon="-2.443030000">
        <ele>441.30</ele>
        <time>2013-07-27T09:05:40Z</time>
      </trkpt>
      <trkpt lat="42.412176000" lon="-2.443032000">
        <ele>441.30</ele>
        <time>2013-07-27T09:05:41Z</time>
      </trkpt>
      <trkpt lat="42.412143000" lon="-2.443033000">
        <ele>441.30</ele>
        <time>2013-07-27T09:05:42Z</time>
      </trkpt>
      <trkpt lat="42.412107000" lon="-2.443045000">
        <ele>441.40</ele>
        <time>2013-07-27T09:05:43Z</time>
      </trkpt>
      <trkpt lat="42.412072000" lon="-2.443062000">
        <ele>441.40</ele>
        <time>2013-07-27T09:05:44Z</time>
      </trkpt>
      <trkpt lat="42.412035000" lon="-2.443078000">
        <ele>441.40</ele>
        <time>2013-07-27T09:05:45Z</time>
      </trkpt>
      <trkpt lat="42.412000000" lon="-2.443106000">
        <ele>441.40</ele>
        <time>2013-07-27T09:05:46Z</time>
      </trkpt>
      <trkpt lat="42.411964000" lon="-2.443132000">
        <ele>441.30</ele>
        <time>2013-07-27T09:05:47Z</time>
      </trkpt>
      <trkpt lat="42.411927000" lon="-2.443159000">
        <ele>441.30</ele>
        <time>2013-07-27T09:05:48Z</time>
      </trkpt>
      <trkpt lat="42.411890000" lon="-2.443182000">
        <ele>441.30</ele>
        <time>2013-07-27T09:05:49Z</time>
      </trkpt>
      <trkpt lat="42.411854000" lon="-2.443205000">
        <ele>441.30</ele>
        <time>2013-07-27T09:05:50Z</time>
      </trkpt>
      <trkpt lat="42.411817000" lon="-2.443224000">
        <ele>441.30</ele>
        <time>2013-07-27T09:05:51Z</time>
      </trkpt>
      <trkpt lat="42.411783000" lon="-2.443246000">
        <ele>441.30</ele>
        <time>2013-07-27T09:05:52Z</time>
      </trkpt>
      <trkpt lat="42.411750000" lon="-2.443268000">
        <ele>441.30</ele>
        <time>2013-07-27T09:05:53Z</time>
      </trkpt>
      <trkpt lat="42.411715000" lon="-2.443286000">
        <ele>441.40</ele>
        <time>2013-07-27T09:05:54Z</time>
      </trkpt>
      <trkpt lat="42.411680000" lon="-2.443302000">
        <ele>441.50</ele>
        <time>2013-07-27T09:05:55Z</time>
      </trkpt>
      <trkpt lat="42.411642000" lon="-2.443318000">
        <ele>441.60</ele>
        <time>2013-07-27T09:05:56Z</time>
      </trkpt>
      <trkpt lat="42.411606000" lon="-2.443331000">
        <ele>441.60</ele>
        <time>2013-07-27T09:05:57Z</time>
      </trkpt>
      <trkpt lat="42.411568000" lon="-2.443340000">
        <ele>441.30</ele>
        <time>2013-07-27T09:05:58Z</time>
      </trkpt>
      <trkpt lat="42.411530000" lon="-2.443346000">
        <ele>441.10</ele>
        <time>2013-07-27T09:05:59Z</time>
      </trkpt>
      <trkpt lat="42.411488000" lon="-2.443348000">
        <ele>441.00</ele>
        <time>2013-07-27T09:06:00Z</time>
      </trkpt>
      <trkpt lat="42.411445000" lon="-2.443350000">
        <ele>440.80</ele>
        <time>2013-07-27T09:06:01Z</time>
      </trkpt>
      <trkpt lat="42.411402000" lon="-2.443350000">
        <ele>440.80</ele>
        <time>2013-07-27T09:06:02Z</time>
      </trkpt>
      <trkpt lat="42.411358000" lon="-2.443346000">
        <ele>440.70</ele>
        <time>2013-07-27T09:06:03Z</time>
      </trkpt>
      <trkpt lat="42.411312000" lon="-2.443341000">
        <ele>440.90</ele>
        <time>2013-07-27T09:06:04Z</time>
      </trkpt>
      <trkpt lat="42.411264000" lon="-2.443339000">
        <ele>441.10</ele>
        <time>2013-07-27T09:06:05Z</time>
      </trkpt>
      <trkpt lat="42.411220000" lon="-2.443336000">
        <ele>440.50</ele>
        <time>2013-07-27T09:06:06Z</time>
      </trkpt>
      <trkpt lat="42.411173000" lon="-2.443330000">
        <ele>440.20</ele>
        <time>2013-07-27T09:06:07Z</time>
      </trkpt>
      <trkpt lat="42.411123000" lon="-2.443317000">
        <ele>440.00</ele>
        <time>2013-07-27T09:06:08Z</time>
      </trkpt>
      <trkpt lat="42.411080000" lon="-2.443288000">
        <ele>440.00</ele>
        <time>2013-07-27T09:06:09Z</time>
      </trkpt>
      <trkpt lat="42.411039000" lon="-2.443251000">
        <ele>439.90</ele>
        <time>2013-07-27T09:06:10Z</time>
      </trkpt>
      <trkpt lat="42.411007000" lon="-2.443208000">
        <ele>439.80</ele>
        <time>2013-07-27T09:06:11Z</time>
      </trkpt>
      <trkpt lat="42.410971000" lon="-2.443166000">
        <ele>440.10</ele>
        <time>2013-07-27T09:06:12Z</time>
      </trkpt>
      <trkpt lat="42.410935000" lon="-2.443127000">
        <ele>440.20</ele>
        <time>2013-07-27T09:06:13Z</time>
      </trkpt>
      <trkpt lat="42.410900000" lon="-2.443085000">
        <ele>440.40</ele>
        <time>2013-07-27T09:06:14Z</time>
      </trkpt>
      <trkpt lat="42.410862000" lon="-2.443053000">
        <ele>440.50</ele>
        <time>2013-07-27T09:06:15Z</time>
      </trkpt>
      <trkpt lat="42.410822000" lon="-2.443024000">
        <ele>440.00</ele>
        <time>2013-07-27T09:06:16Z</time>
      </trkpt>
      <trkpt lat="42.410780000" lon="-2.443001000">
        <ele>439.60</ele>
        <time>2013-07-27T09:06:17Z</time>
      </trkpt>
      <trkpt lat="42.410736000" lon="-2.442984000">
        <ele>439.30</ele>
        <time>2013-07-27T09:06:18Z</time>
      </trkpt>
      <trkpt lat="42.410693000" lon="-2.442971000">
        <ele>439.10</ele>
        <time>2013-07-27T09:06:19Z</time>
      </trkpt>
      <trkpt lat="42.410648000" lon="-2.442958000">
        <ele>439.30</ele>
        <time>2013-07-27T09:06:20Z</time>
      </trkpt>
      <trkpt lat="42.410605000" lon="-2.442950000">
        <ele>439.50</ele>
        <time>2013-07-27T09:06:21Z</time>
      </trkpt>
      <trkpt lat="42.410563000" lon="-2.442945000">
        <ele>439.60</ele>
        <time>2013-07-27T09:06:22Z</time>
      </trkpt>
      <trkpt lat="42.410522000" lon="-2.442943000">
        <ele>439.70</ele>
        <time>2013-07-27T09:06:23Z</time>
      </trkpt>
      <trkpt lat="42.410478000" lon="-2.442940000">
        <ele>439.60</ele>
        <time>2013-07-27T09:06:24Z</time>
      </trkpt>
      <trkpt lat="42.410435000" lon="-2.442940000">
        <ele>439.50</ele>
        <time>2013-07-27T09:06:25Z</time>
      </trkpt>
      <trkpt lat="42.410394000" lon="-2.442945000">
        <ele>439.30</ele>
        <time>2013-07-27T09:06:26Z</time>
      </trkpt>
      <trkpt lat="42.410351000" lon="-2.442953000">
        <ele>439.20</ele>
        <time>2013-07-27T09:06:27Z</time>
      </trkpt>
      <trkpt lat="42.410313000" lon="-2.442962000">
        <ele>439.20</ele>
        <time>2013-07-27T09:06:28Z</time>
      </trkpt>
      <trkpt lat="42.410277000" lon="-2.442970000">
        <ele>439.20</ele>
        <time>2013-07-27T09:06:29Z</time>
      </trkpt>
      <trkpt lat="42.410239000" lon="-2.442979000">
        <ele>438.90</ele>
        <time>2013-07-27T09:06:30Z</time>
      </trkpt>
      <trkpt lat="42.410201000" lon="-2.442990000">
        <ele>438.60</ele>
        <time>2013-07-27T09:06:31Z</time>
      </trkpt>
      <trkpt lat="42.410162000" lon="-2.443003000">
        <ele>439.10</ele>
        <time>2013-07-27T09:06:32Z</time>
      </trkpt>
      <trkpt lat="42.410121000" lon="-2.443016000">
        <ele>439.40</ele>
        <time>2013-07-27T09:06:33Z</time>
      </trkpt>
      <trkpt lat="42.410080000" lon="-2.443022000">
        <ele>439.10</ele>
        <time>2013-07-27T09:06:34Z</time>
      </trkpt>
      <trkpt lat="42.410038000" lon="-2.443029000">
        <ele>438.90</ele>
        <time>2013-07-27T09:06:35Z</time>
      </trkpt>
      <trkpt lat="42.410000000" lon="-2.443039000">
        <ele>438.70</ele>
        <time>2013-07-27T09:06:36Z</time>
      </trkpt>
      <trkpt lat="42.409962000" lon="-2.443049000">
        <ele>438.50</ele>
        <time>2013-07-27T09:06:37Z</time>
      </trkpt>
      <trkpt lat="42.409922000" lon="-2.443055000">
        <ele>438.40</ele>
        <time>2013-07-27T09:06:38Z</time>
      </trkpt>
      <trkpt lat="42.409885000" lon="-2.443070000">
        <ele>438.40</ele>
        <time>2013-07-27T09:06:39Z</time>
      </trkpt>
      <trkpt lat="42.409848000" lon="-2.443079000">
        <ele>438.20</ele>
        <time>2013-07-27T09:06:40Z</time>
      </trkpt>
      <trkpt lat="42.409810000" lon="-2.443089000">
        <ele>438.10</ele>
        <time>2013-07-27T09:06:41Z</time>
      </trkpt>
      <trkpt lat="42.409768000" lon="-2.443096000">
        <ele>438.50</ele>
        <time>2013-07-27T09:06:42Z</time>
      </trkpt>
      <trkpt lat="42.409729000" lon="-2.443104000">
        <ele>438.80</ele>
        <time>2013-07-27T09:06:43Z</time>
      </trkpt>
      <trkpt lat="42.409689000" lon="-2.443112000">
        <ele>438.60</ele>
        <time>2013-07-27T09:06:44Z</time>
      </trkpt>
      <trkpt lat="42.409652000" lon="-2.443119000">
        <ele>438.50</ele>
        <time>2013-07-27T09:06:45Z</time>
      </trkpt>
      <trkpt lat="42.409613000" lon="-2.443130000">
        <ele>438.70</ele>
        <time>2013-07-27T09:06:46Z</time>
      </trkpt>
      <trkpt lat="42.409575000" lon="-2.443144000">
        <ele>438.80</ele>
        <time>2013-07-27T09:06:47Z</time>
      </trkpt>
      <trkpt lat="42.409535000" lon="-2.443157000">
        <ele>438.70</ele>
        <time>2013-07-27T09:06:48Z</time>
      </trkpt>
      <trkpt lat="42.409496000" lon="-2.443170000">
        <ele>438.60</ele>
        <time>2013-07-27T09:06:49Z</time>
      </trkpt>
      <trkpt lat="42.409460000" lon="-2.443184000">
        <ele>438.80</ele>
        <time>2013-07-27T09:06:50Z</time>
      </trkpt>
      <trkpt lat="42.409425000" lon="-2.443199000">
        <ele>438.90</ele>
        <time>2013-07-27T09:06:51Z</time>
      </trkpt>
      <trkpt lat="42.409387000" lon="-2.443222000">
        <ele>438.70</ele>
        <time>2013-07-27T09:06:52Z</time>
      </trkpt>
      <trkpt lat="42.409350000" lon="-2.443251000">
        <ele>438.70</ele>
        <time>2013-07-27T09:06:53Z</time>
      </trkpt>
      <trkpt lat="42.409312000" lon="-2.443277000">
        <ele>438.90</ele>
        <time>2013-07-27T09:06:54Z</time>
      </trkpt>
      <trkpt lat="42.409272000" lon="-2.443304000">
        <ele>439.10</ele>
        <time>2013-07-27T09:06:55Z</time>
      </trkpt>
      <trkpt lat="42.409233000" lon="-2.443330000">
        <ele>438.90</ele>
        <time>2013-07-27T09:06:56Z</time>
      </trkpt>
      <trkpt lat="42.409196000" lon="-2.443351000">
        <ele>438.80</ele>
        <time>2013-07-27T09:06:57Z</time>
      </trkpt>
      <trkpt lat="42.409161000" lon="-2.443367000">
        <ele>439.40</ele>
        <time>2013-07-27T09:06:58Z</time>
      </trkpt>
      <trkpt lat="42.409127000" lon="-2.443381000">
        <ele>439.90</ele>
        <time>2013-07-27T09:06:59Z</time>
      </trkpt>
      <trkpt lat="42.409092000" lon="-2.443397000">
        <ele>439.80</ele>
        <time>2013-07-27T09:07:00Z</time>
      </trkpt>
      <trkpt lat="42.409056000" lon="-2.443414000">
        <ele>439.80</ele>
        <time>2013-07-27T09:07:01Z</time>
      </trkpt>
      <trkpt lat="42.409020000" lon="-2.443432000">
        <ele>439.90</ele>
        <time>2013-07-27T09:07:02Z</time>
      </trkpt>
      <trkpt lat="42.408984000" lon="-2.443451000">
        <ele>440.10</ele>
        <time>2013-07-27T09:07:03Z</time>
      </trkpt>
      <trkpt lat="42.408952000" lon="-2.443470000">
        <ele>440.20</ele>
        <time>2013-07-27T09:07:04Z</time>
      </trkpt>
      <trkpt lat="42.408917000" lon="-2.443489000">
        <ele>440.30</ele>
        <time>2013-07-27T09:07:05Z</time>
      </trkpt>
      <trkpt lat="42.408880000" lon="-2.443512000">
        <ele>440.40</ele>
        <time>2013-07-27T09:07:06Z</time>
      </trkpt>
      <trkpt lat="42.408845000" lon="-2.443531000">
        <ele>440.50</ele>
        <time>2013-07-27T09:07:07Z</time>
      </trkpt>
      <trkpt lat="42.408813000" lon="-2.443546000">
        <ele>440.60</ele>
        <time>2013-07-27T09:07:08Z</time>
      </trkpt>
      <trkpt lat="42.408784000" lon="-2.443561000">
        <ele>440.70</ele>
        <time>2013-07-27T09:07:09Z</time>
      </trkpt>
      <trkpt lat="42.408760000" lon="-2.443574000">
        <ele>440.70</ele>
        <time>2013-07-27T09:07:10Z</time>
      </trkpt>
      <trkpt lat="42.408741000" lon="-2.443587000">
        <ele>440.80</ele>
        <time>2013-07-27T09:07:11Z</time>
      </trkpt>
      <trkpt lat="42.408724000" lon="-2.443592000">
        <ele>440.90</ele>
        <time>2013-07-27T09:07:12Z</time>
      </trkpt>
      <trkpt lat="42.408713000" lon="-2.443598000">
        <ele>441.00</ele>
        <time>2013-07-27T09:07:13Z</time>
      </trkpt>
      <trkpt lat="42.408701000" lon="-2.443602000">
        <ele>441.20</ele>
        <time>2013-07-27T09:07:14Z</time>
      </trkpt>
      <trkpt lat="42.408687000" lon="-2.443607000">
        <ele>441.40</ele>
        <time>2013-07-27T09:07:15Z</time>
      </trkpt>
      <trkpt lat="42.408675000" lon="-2.443607000">
        <ele>441.40</ele>
        <time>2013-07-27T09:07:16Z</time>
      </trkpt>
      <trkpt lat="42.408665000" lon="-2.443611000">
        <ele>441.40</ele>
        <time>2013-07-27T09:07:17Z</time>
      </trkpt>
      <trkpt lat="42.408659000" lon="-2.443617000">
        <ele>441.50</ele>
        <time>2013-07-27T09:07:18Z</time>
      </trkpt>
      <trkpt lat="42.408652000" lon="-2.443622000">
        <ele>441.60</ele>
        <time>2013-07-27T09:07:19Z</time>
      </trkpt>
      <trkpt lat="42.408645000" lon="-2.443624000">
        <ele>441.60</ele>
        <time>2013-07-27T09:07:20Z</time>
      </trkpt>
      <trkpt lat="42.408644000" lon="-2.443624000">
        <ele>441.70</ele>
        <time>2013-07-27T09:07:21Z</time>
      </trkpt>
      <trkpt lat="42.408644000" lon="-2.443624000">
        <ele>441.70</ele>
        <time>2013-07-27T09:07:22Z</time>
      </trkpt>
      <trkpt lat="42.408638000" lon="-2.443631000">
        <ele>441.80</ele>
        <time>2013-07-27T09:07:23Z</time>
      </trkpt>
      <trkpt lat="42.408625000" lon="-2.443640000">
        <ele>441.80</ele>
        <time>2013-07-27T09:07:24Z</time>
      </trkpt>
      <trkpt lat="42.408610000" lon="-2.443650000">
        <ele>441.80</ele>
        <time>2013-07-27T09:07:25Z</time>
      </trkpt>
      <trkpt lat="42.408590000" lon="-2.443659000">
        <ele>441.80</ele>
        <time>2013-07-27T09:07:26Z</time>
      </trkpt>
      <trkpt lat="42.408570000" lon="-2.443667000">
        <ele>441.90</ele>
        <time>2013-07-27T09:07:27Z</time>
      </trkpt>
      <trkpt lat="42.408546000" lon="-2.443685000">
        <ele>441.90</ele>
        <time>2013-07-27T09:07:28Z</time>
      </trkpt>
      <trkpt lat="42.408517000" lon="-2.443706000">
        <ele>442.00</ele>
        <time>2013-07-27T09:07:29Z</time>
      </trkpt>
      <trkpt lat="42.408482000" lon="-2.443726000">
        <ele>442.00</ele>
        <time>2013-07-27T09:07:30Z</time>
      </trkpt>
      <trkpt lat="42.408445000" lon="-2.443745000">
        <ele>442.10</ele>
        <time>2013-07-27T09:07:31Z</time>
      </trkpt>
      <trkpt lat="42.408407000" lon="-2.443763000">
        <ele>442.20</ele>
        <time>2013-07-27T09:07:32Z</time>
      </trkpt>
      <trkpt lat="42.408368000" lon="-2.443772000">
        <ele>442.30</ele>
        <time>2013-07-27T09:07:33Z</time>
      </trkpt>
      <trkpt lat="42.408332000" lon="-2.443785000">
        <ele>442.40</ele>
        <time>2013-07-27T09:07:34Z</time>
      </trkpt>
      <trkpt lat="42.408297000" lon="-2.443800000">
        <ele>442.40</ele>
        <time>2013-07-27T09:07:35Z</time>
      </trkpt>
      <trkpt lat="42.408262000" lon="-2.443812000">
        <ele>442.50</ele>
        <time>2013-07-27T09:07:36Z</time>
      </trkpt>
      <trkpt lat="42.408227000" lon="-2.443824000">
        <ele>442.50</ele>
        <time>2013-07-27T09:07:37Z</time>
      </trkpt>
      <trkpt lat="42.408191000" lon="-2.443836000">
        <ele>442.50</ele>
        <time>2013-07-27T09:07:38Z</time>
      </trkpt>
      <trkpt lat="42.408153000" lon="-2.443849000">
        <ele>442.50</ele>
        <time>2013-07-27T09:07:39Z</time>
      </trkpt>
      <trkpt lat="42.408118000" lon="-2.443869000">
        <ele>442.50</ele>
        <time>2013-07-27T09:07:40Z</time>
      </trkpt>
      <trkpt lat="42.408083000" lon="-2.443892000">
        <ele>442.60</ele>
        <time>2013-07-27T09:07:41Z</time>
      </trkpt>
      <trkpt lat="42.408047000" lon="-2.443918000">
        <ele>442.50</ele>
        <time>2013-07-27T09:07:42Z</time>
      </trkpt>
      <trkpt lat="42.408015000" lon="-2.443949000">
        <ele>442.50</ele>
        <time>2013-07-27T09:07:43Z</time>
      </trkpt>
      <trkpt lat="42.407984000" lon="-2.443981000">
        <ele>442.50</ele>
        <time>2013-07-27T09:07:44Z</time>
      </trkpt>
      <trkpt lat="42.407951000" lon="-2.444013000">
        <ele>442.50</ele>
        <time>2013-07-27T09:07:45Z</time>
      </trkpt>
      <trkpt lat="42.407923000" lon="-2.444043000">
        <ele>442.60</ele>
        <time>2013-07-27T09:07:46Z</time>
      </trkpt>
      <trkpt lat="42.407896000" lon="-2.444079000">
        <ele>442.70</ele>
        <time>2013-07-27T09:07:47Z</time>
      </trkpt>
      <trkpt lat="42.407871000" lon="-2.444114000">
        <ele>442.80</ele>
        <time>2013-07-27T09:07:48Z</time>
      </trkpt>
      <trkpt lat="42.407843000" lon="-2.444154000">
        <ele>442.90</ele>
        <time>2013-07-27T09:07:49Z</time>
      </trkpt>
      <trkpt lat="42.407817000" lon="-2.444194000">
        <ele>442.90</ele>
        <time>2013-07-27T09:07:50Z</time>
      </trkpt>
      <trkpt lat="42.407791000" lon="-2.444230000">
        <ele>443.00</ele>
        <time>2013-07-27T09:07:51Z</time>
      </trkpt>
      <trkpt lat="42.407765000" lon="-2.444267000">
        <ele>443.00</ele>
        <time>2013-07-27T09:07:52Z</time>
      </trkpt>
      <trkpt lat="42.407741000" lon="-2.444304000">
        <ele>443.00</ele>
        <time>2013-07-27T09:07:53Z</time>
      </trkpt>
      <trkpt lat="42.407721000" lon="-2.444341000">
        <ele>443.10</ele>
        <time>2013-07-27T09:07:54Z</time>
      </trkpt>
      <trkpt lat="42.407699000" lon="-2.444378000">
        <ele>443.20</ele>
        <time>2013-07-27T09:07:55Z</time>
      </trkpt>
      <trkpt lat="42.407678000" lon="-2.444414000">
        <ele>443.40</ele>
        <time>2013-07-27T09:07:56Z</time>
      </trkpt>
      <trkpt lat="42.407658000" lon="-2.444447000">
        <ele>443.60</ele>
        <time>2013-07-27T09:07:57Z</time>
      </trkpt>
      <trkpt lat="42.407642000" lon="-2.444483000">
        <ele>444.00</ele>
        <time>2013-07-27T09:07:58Z</time>
      </trkpt>
      <trkpt lat="42.407627000" lon="-2.444509000">
        <ele>444.30</ele>
        <time>2013-07-27T09:07:59Z</time>
      </trkpt>
      <trkpt lat="42.407611000" lon="-2.444537000">
        <ele>444.30</ele>
        <time>2013-07-27T09:08:00Z</time>
      </trkpt>
      <trkpt lat="42.407594000" lon="-2.444562000">
        <ele>444.20</ele>
        <time>2013-07-27T09:08:01Z</time>
      </trkpt>
      <trkpt lat="42.407579000" lon="-2.444587000">
        <ele>444.50</ele>
        <time>2013-07-27T09:08:02Z</time>
      </trkpt>
      <trkpt lat="42.407566000" lon="-2.444615000">
        <ele>444.70</ele>
        <time>2013-07-27T09:08:03Z</time>
      </trkpt>
      <trkpt lat="42.407557000" lon="-2.444644000">
        <ele>444.60</ele>
        <time>2013-07-27T09:08:04Z</time>
      </trkpt>
      <trkpt lat="42.407549000" lon="-2.444665000">
        <ele>444.60</ele>
        <time>2013-07-27T09:08:05Z</time>
      </trkpt>
      <trkpt lat="42.407539000" lon="-2.444687000">
        <ele>444.60</ele>
        <time>2013-07-27T09:08:06Z</time>
      </trkpt>
      <trkpt lat="42.407532000" lon="-2.444710000">
        <ele>444.70</ele>
        <time>2013-07-27T09:08:07Z</time>
      </trkpt>
      <trkpt lat="42.407523000" lon="-2.444737000">
        <ele>444.80</ele>
        <time>2013-07-27T09:08:08Z</time>
      </trkpt>
      <trkpt lat="42.407512000" lon="-2.444762000">
        <ele>444.80</ele>
        <time>2013-07-27T09:08:09Z</time>
      </trkpt>
      <trkpt lat="42.407500000" lon="-2.444786000">
        <ele>444.80</ele>
        <time>2013-07-27T09:08:10Z</time>
      </trkpt>
      <trkpt lat="42.407495000" lon="-2.444809000">
        <ele>444.90</ele>
        <time>2013-07-27T09:08:11Z</time>
      </trkpt>
      <trkpt lat="42.407487000" lon="-2.444830000">
        <ele>445.10</ele>
        <time>2013-07-27T09:08:12Z</time>
      </trkpt>
      <trkpt lat="42.407477000" lon="-2.444848000">
        <ele>445.40</ele>
        <time>2013-07-27T09:08:13Z</time>
      </trkpt>
      <trkpt lat="42.407466000" lon="-2.444867000">
        <ele>445.50</ele>
        <time>2013-07-27T09:08:14Z</time>
      </trkpt>
      <trkpt lat="42.407456000" lon="-2.444884000">
        <ele>445.60</ele>
        <time>2013-07-27T09:08:15Z</time>
      </trkpt>
      <trkpt lat="42.407445000" lon="-2.444891000">
        <ele>445.80</ele>
        <time>2013-07-27T09:08:16Z</time>
      </trkpt>
      <trkpt lat="42.407438000" lon="-2.444892000">
        <ele>445.90</ele>
        <time>2013-07-27T09:08:17Z</time>
      </trkpt>
      <trkpt lat="42.407431000" lon="-2.444893000">
        <ele>446.00</ele>
        <time>2013-07-27T09:08:18Z</time>
      </trkpt>
      <trkpt lat="42.407423000" lon="-2.444892000">
        <ele>446.10</ele>
        <time>2013-07-27T09:08:19Z</time>
      </trkpt>
      <trkpt lat="42.407421000" lon="-2.444890000">
        <ele>446.00</ele>
        <time>2013-07-27T09:08:20Z</time>
      </trkpt>
      <trkpt lat="42.407421000" lon="-2.444887000">
        <ele>446.00</ele>
        <time>2013-07-27T09:08:21Z</time>
      </trkpt>
      <trkpt lat="42.407424000" lon="-2.444884000">
        <ele>446.00</ele>
        <time>2013-07-27T09:08:22Z</time>
      </trkpt>
      <trkpt lat="42.407422000" lon="-2.444883000">
        <ele>446.00</ele>
        <time>2013-07-27T09:08:23Z</time>
      </trkpt>
      <trkpt lat="42.407423000" lon="-2.444884000">
        <ele>446.00</ele>
        <time>2013-07-27T09:08:24Z</time>
      </trkpt>
      <trkpt lat="42.407425000" lon="-2.444886000">
        <ele>446.00</ele>
        <time>2013-07-27T09:08:25Z</time>
      </trkpt>
      <trkpt lat="42.407424000" lon="-2.444887000">
        <ele>446.10</ele>
        <time>2013-07-27T09:08:26Z</time>
      </trkpt>
      <trkpt lat="42.407425000" lon="-2.444891000">
        <ele>446.10</ele>
        <time>2013-07-27T09:08:27Z</time>
      </trkpt>
      <trkpt lat="42.407426000" lon="-2.444892000">
        <ele>446.10</ele>
        <time>2013-07-27T09:08:28Z</time>
      </trkpt>
      <trkpt lat="42.407429000" lon="-2.444889000">
        <ele>446.20</ele>
        <time>2013-07-27T09:08:29Z</time>
      </trkpt>
      <trkpt lat="42.407432000" lon="-2.444886000">
        <ele>446.20</ele>
        <time>2013-07-27T09:08:30Z</time>
      </trkpt>
      <trkpt lat="42.407434000" lon="-2.444884000">
        <ele>446.20</ele>
        <time>2013-07-27T09:08:31Z</time>
      </trkpt>
      <trkpt lat="42.407436000" lon="-2.444882000">
        <ele>446.20</ele>
        <time>2013-07-27T09:08:32Z</time>
      </trkpt>
      <trkpt lat="42.407437000" lon="-2.444879000">
        <ele>446.20</ele>
        <time>2013-07-27T09:08:33Z</time>
      </trkpt>
      <trkpt lat="42.407439000" lon="-2.444879000">
        <ele>446.20</ele>
        <time>2013-07-27T09:08:34Z</time>
      </trkpt>
      <trkpt lat="42.407439000" lon="-2.444876000">
        <ele>446.20</ele>
        <time>2013-07-27T09:08:35Z</time>
      </trkpt>
      <trkpt lat="42.407437000" lon="-2.444870000">
        <ele>446.30</ele>
        <time>2013-07-27T09:08:36Z</time>
      </trkpt>
      <trkpt lat="42.407434000" lon="-2.444867000">
        <ele>446.40</ele>
        <time>2013-07-27T09:08:37Z</time>
      </trkpt>
      <trkpt lat="42.407433000" lon="-2.444865000">
        <ele>446.30</ele>
        <time>2013-07-27T09:08:38Z</time>
      </trkpt>
      <trkpt lat="42.407428000" lon="-2.444867000">
        <ele>446.30</ele>
        <time>2013-07-27T09:08:39Z</time>
      </trkpt>
      <trkpt lat="42.407426000" lon="-2.444865000">
        <ele>446.30</ele>
        <time>2013-07-27T09:08:40Z</time>
      </trkpt>
      <trkpt lat="42.407424000" lon="-2.444866000">
        <ele>446.30</ele>
        <time>2013-07-27T09:08:41Z</time>
      </trkpt>
      <trkpt lat="42.407422000" lon="-2.444870000">
        <ele>446.30</ele>
        <time>2013-07-27T09:08:42Z</time>
      </trkpt>
      <trkpt lat="42.407419000" lon="-2.444876000">
        <ele>446.30</ele>
        <time>2013-07-27T09:08:43Z</time>
      </trkpt>
      <trkpt lat="42.407415000" lon="-2.444883000">
        <ele>446.30</ele>
        <time>2013-07-27T09:08:44Z</time>
      </trkpt>
      <trkpt lat="42.407412000" lon="-2.444901000">
        <ele>446.30</ele>
        <time>2013-07-27T09:08:45Z</time>
      </trkpt>
      <trkpt lat="42.407406000" lon="-2.444914000">
        <ele>446.10</ele>
        <time>2013-07-27T09:08:46Z</time>
      </trkpt>
      <trkpt lat="42.407399000" lon="-2.444921000">
        <ele>446.00</ele>
        <time>2013-07-27T09:08:47Z</time>
      </trkpt>
      <trkpt lat="42.407393000" lon="-2.444919000">
        <ele>445.90</ele>
        <time>2013-07-27T09:08:48Z</time>
      </trkpt>
      <trkpt lat="42.407390000" lon="-2.444915000">
        <ele>445.90</ele>
        <time>2013-07-27T09:08:49Z</time>
      </trkpt>
      <trkpt lat="42.407392000" lon="-2.444909000">
        <ele>446.00</ele>
        <time>2013-07-27T09:08:50Z</time>
      </trkpt>
      <trkpt lat="42.407388000" lon="-2.444906000">
        <ele>446.20</ele>
        <time>2013-07-27T09:08:51Z</time>
      </trkpt>
      <trkpt lat="42.407390000" lon="-2.444901000">
        <ele>446.20</ele>
        <time>2013-07-27T09:08:52Z</time>
      </trkpt>
      <trkpt lat="42.407390000" lon="-2.444896000">
        <ele>446.30</ele>
        <time>2013-07-27T09:08:53Z</time>
      </trkpt>
      <trkpt lat="42.407389000" lon="-2.444889000">
        <ele>446.20</ele>
        <time>2013-07-27T09:08:54Z</time>
      </trkpt>
      <trkpt lat="42.407384000" lon="-2.444887000">
        <ele>446.10</ele>
        <time>2013-07-27T09:08:55Z</time>
      </trkpt>
      <trkpt lat="42.407380000" lon="-2.444887000">
        <ele>446.00</ele>
        <time>2013-07-27T09:08:56Z</time>
      </trkpt>
      <trkpt lat="42.407379000" lon="-2.444889000">
        <ele>446.00</ele>
        <time>2013-07-27T09:08:57Z</time>
      </trkpt>
      <trkpt lat="42.407383000" lon="-2.444888000">
        <ele>445.90</ele>
        <time>2013-07-27T09:08:58Z</time>
      </trkpt>
      <trkpt lat="42.407388000" lon="-2.444887000">
        <ele>445.90</ele>
        <time>2013-07-27T09:08:59Z</time>
      </trkpt>
      <trkpt lat="42.407390000" lon="-2.444881000">
        <ele>445.90</ele>
        <time>2013-07-27T09:09:00Z</time>
      </trkpt>
      <trkpt lat="42.407391000" lon="-2.444883000">
        <ele>446.00</ele>
        <time>2013-07-27T09:09:01Z</time>
      </trkpt>
      <trkpt lat="42.407391000" lon="-2.444881000">
        <ele>446.10</ele>
        <time>2013-07-27T09:09:02Z</time>
      </trkpt>
      <trkpt lat="42.407392000" lon="-2.444883000">
        <ele>446.10</ele>
        <time>2013-07-27T09:09:03Z</time>
      </trkpt>
      <trkpt lat="42.407393000" lon="-2.444885000">
        <ele>446.20</ele>
        <time>2013-07-27T09:09:04Z</time>
      </trkpt>
      <trkpt lat="42.407393000" lon="-2.444888000">
        <ele>446.20</ele>
        <time>2013-07-27T09:09:05Z</time>
      </trkpt>
      <trkpt lat="42.407394000" lon="-2.444896000">
        <ele>446.20</ele>
        <time>2013-07-27T09:09:06Z</time>
      </trkpt>
      <trkpt lat="42.407395000" lon="-2.444901000">
        <ele>446.30</ele>
        <time>2013-07-27T09:09:07Z</time>
      </trkpt>
      <trkpt lat="42.407394000" lon="-2.444906000">
        <ele>446.40</ele>
        <time>2013-07-27T09:09:08Z</time>
      </trkpt>
      <trkpt lat="42.407393000" lon="-2.444907000">
        <ele>446.40</ele>
        <time>2013-07-27T09:09:09Z</time>
      </trkpt>
      <trkpt lat="42.407392000" lon="-2.444905000">
        <ele>446.30</ele>
        <time>2013-07-27T09:09:10Z</time>
      </trkpt>
      <trkpt lat="42.407392000" lon="-2.444902000">
        <ele>446.30</ele>
        <time>2013-07-27T09:09:11Z</time>
      </trkpt>
      <trkpt lat="42.407390000" lon="-2.444899000">
        <ele>446.20</ele>
        <time>2013-07-27T09:09:12Z</time>
      </trkpt>
      <trkpt lat="42.407387000" lon="-2.444894000">
        <ele>446.20</ele>
        <time>2013-07-27T09:09:13Z</time>
      </trkpt>
      <trkpt lat="42.407385000" lon="-2.444891000">
        <ele>446.10</ele>
        <time>2013-07-27T09:09:14Z</time>
      </trkpt>
      <trkpt lat="42.407385000" lon="-2.444889000">
        <ele>446.00</ele>
        <time>2013-07-27T09:09:15Z</time>
      </trkpt>
      <trkpt lat="42.407385000" lon="-2.444889000">
        <ele>446.00</ele>
        <time>2013-07-27T09:09:16Z</time>
      </trkpt>
      <trkpt lat="42.407386000" lon="-2.444887000">
        <ele>445.90</ele>
        <time>2013-07-27T09:09:17Z</time>
      </trkpt>
      <trkpt lat="42.407387000" lon="-2.444884000">
        <ele>446.00</ele>
        <time>2013-07-27T09:09:18Z</time>
      </trkpt>
      <trkpt lat="42.407391000" lon="-2.444878000">
        <ele>446.00</ele>
        <time>2013-07-27T09:09:19Z</time>
      </trkpt>
      <trkpt lat="42.407395000" lon="-2.444873000">
        <ele>446.10</ele>
        <time>2013-07-27T09:09:20Z</time>
      </trkpt>
      <trkpt lat="42.407396000" lon="-2.444871000">
        <ele>446.30</ele>
        <time>2013-07-27T09:09:21Z</time>
      </trkpt>
      <trkpt lat="42.407394000" lon="-2.444872000">
        <ele>446.20</ele>
        <time>2013-07-27T09:09:22Z</time>
      </trkpt>
      <trkpt lat="42.407395000" lon="-2.444874000">
        <ele>446.20</ele>
        <time>2013-07-27T09:09:23Z</time>
      </trkpt>
      <trkpt lat="42.407397000" lon="-2.444875000">
        <ele>446.10</ele>
        <time>2013-07-27T09:09:24Z</time>
      </trkpt>
      <trkpt lat="42.407397000" lon="-2.444878000">
        <ele>446.10</ele>
        <time>2013-07-27T09:09:25Z</time>
      </trkpt>
      <trkpt lat="42.407397000" lon="-2.444880000">
        <ele>446.10</ele>
        <time>2013-07-27T09:09:26Z</time>
      </trkpt>
      <trkpt lat="42.407396000" lon="-2.444882000">
        <ele>446.10</ele>
        <time>2013-07-27T09:09:27Z</time>
      </trkpt>
      <trkpt lat="42.407397000" lon="-2.444881000">
        <ele>446.10</ele>
        <time>2013-07-27T09:09:28Z</time>
      </trkpt>
      <trkpt lat="42.407398000" lon="-2.444884000">
        <ele>446.10</ele>
        <time>2013-07-27T09:09:29Z</time>
      </trkpt>
      <trkpt lat="42.407400000" lon="-2.444885000">
        <ele>446.10</ele>
        <time>2013-07-27T09:09:30Z</time>
      </trkpt>
      <trkpt lat="42.407401000" lon="-2.444888000">
        <ele>446.10</ele>
        <time>2013-07-27T09:09:31Z</time>
      </trkpt>
      <trkpt lat="42.407403000" lon="-2.444889000">
        <ele>446.10</ele>
        <time>2013-07-27T09:09:32Z</time>
      </trkpt>
      <trkpt lat="42.407402000" lon="-2.444890000">
        <ele>446.10</ele>
        <time>2013-07-27T09:09:33Z</time>
      </trkpt>
      <trkpt lat="42.407403000" lon="-2.444890000">
        <ele>446.10</ele>
        <time>2013-07-27T09:09:34Z</time>
      </trkpt>
      <trkpt lat="42.407404000" lon="-2.444892000">
        <ele>446.10</ele>
        <time>2013-07-27T09:09:35Z</time>
      </trkpt>
      <trkpt lat="42.407406000" lon="-2.444889000">
        <ele>446.10</ele>
        <time>2013-07-27T09:09:36Z</time>
      </trkpt>
      <trkpt lat="42.407406000" lon="-2.444890000">
        <ele>446.10</ele>
        <time>2013-07-27T09:09:37Z</time>
      </trkpt>
      <trkpt lat="42.407409000" lon="-2.444886000">
        <ele>446.10</ele>
        <time>2013-07-27T09:09:38Z</time>
      </trkpt>
      <trkpt lat="42.407412000" lon="-2.444883000">
        <ele>446.20</ele>
        <time>2013-07-27T09:09:39Z</time>
      </trkpt>
      <trkpt lat="42.407414000" lon="-2.444880000">
        <ele>446.40</ele>
        <time>2013-07-27T09:09:40Z</time>
      </trkpt>
      <trkpt lat="42.407416000" lon="-2.444879000">
        <ele>446.50</ele>
        <time>2013-07-27T09:09:41Z</time>
      </trkpt>
      <trkpt lat="42.407419000" lon="-2.444879000">
        <ele>446.60</ele>
        <time>2013-07-27T09:09:42Z</time>
      </trkpt>
      <trkpt lat="42.407419000" lon="-2.444880000">
        <ele>446.60</ele>
        <time>2013-07-27T09:09:43Z</time>
      </trkpt>
      <trkpt lat="42.407419000" lon="-2.444882000">
        <ele>446.50</ele>
        <time>2013-07-27T09:09:44Z</time>
      </trkpt>
      <trkpt lat="42.407415000" lon="-2.444878000">
        <ele>446.40</ele>
        <time>2013-07-27T09:09:45Z</time>
      </trkpt>
      <trkpt lat="42.407413000" lon="-2.444874000">
        <ele>446.30</ele>
        <time>2013-07-27T09:09:46Z</time>
      </trkpt>
      <trkpt lat="42.407411000" lon="-2.444869000">
        <ele>446.30</ele>
        <time>2013-07-27T09:09:47Z</time>
      </trkpt>
      <trkpt lat="42.407409000" lon="-2.444865000">
        <ele>446.30</ele>
        <time>2013-07-27T09:09:48Z</time>
      </trkpt>
      <trkpt lat="42.407409000" lon="-2.444862000">
        <ele>446.30</ele>
        <time>2013-07-27T09:09:49Z</time>
      </trkpt>
      <trkpt lat="42.407408000" lon="-2.444860000">
        <ele>446.30</ele>
        <time>2013-07-27T09:09:50Z</time>
      </trkpt>
      <trkpt lat="42.407408000" lon="-2.444860000">
        <ele>446.30</ele>
        <time>2013-07-27T09:09:51Z</time>
      </trkpt>
      <trkpt lat="42.407407000" lon="-2.444862000">
        <ele>446.30</ele>
        <time>2013-07-27T09:09:52Z</time>
      </trkpt>
      <trkpt lat="42.407405000" lon="-2.444863000">
        <ele>446.30</ele>
        <time>2013-07-27T09:09:53Z</time>
      </trkpt>
      <trkpt lat="42.407402000" lon="-2.444866000">
        <ele>446.30</ele>
        <time>2013-07-27T09:09:54Z</time>
      </trkpt>
      <trkpt lat="42.407400000" lon="-2.444866000">
        <ele>446.30</ele>
        <time>2013-07-27T09:09:55Z</time>
      </trkpt>
      <trkpt lat="42.407398000" lon="-2.444867000">
        <ele>446.30</ele>
        <time>2013-07-27T09:09:56Z</time>
      </trkpt>
      <trkpt lat="42.407396000" lon="-2.444867000">
        <ele>446.20</ele>
        <time>2013-07-27T09:09:57Z</time>
      </trkpt>
      <trkpt lat="42.407393000" lon="-2.444864000">
        <ele>446.20</ele>
        <time>2013-07-27T09:09:58Z</time>
      </trkpt>
      <trkpt lat="42.407392000" lon="-2.444860000">
        <ele>446.30</ele>
        <time>2013-07-27T09:09:59Z</time>
      </trkpt>
      <trkpt lat="42.407392000" lon="-2.444858000">
        <ele>446.30</ele>
        <time>2013-07-27T09:10:00Z</time>
      </trkpt>
      <trkpt lat="42.407391000" lon="-2.444853000">
        <ele>446.30</ele>
        <time>2013-07-27T09:10:01Z</time>
      </trkpt>
      <trkpt lat="42.407392000" lon="-2.444850000">
        <ele>446.30</ele>
        <time>2013-07-27T09:10:02Z</time>
      </trkpt>
      <trkpt lat="42.407391000" lon="-2.444843000">
        <ele>446.30</ele>
        <time>2013-07-27T09:10:03Z</time>
      </trkpt>
      <trkpt lat="42.407388000" lon="-2.444836000">
        <ele>446.30</ele>
        <time>2013-07-27T09:10:04Z</time>
      </trkpt>
      <trkpt lat="42.407385000" lon="-2.444826000">
        <ele>446.30</ele>
        <time>2013-07-27T09:10:05Z</time>
      </trkpt>
      <trkpt lat="42.407387000" lon="-2.444824000">
        <ele>446.30</ele>
        <time>2013-07-27T09:10:06Z</time>
      </trkpt>
      <trkpt lat="42.407388000" lon="-2.444822000">
        <ele>446.30</ele>
        <time>2013-07-27T09:10:07Z</time>
      </trkpt>
      <trkpt lat="42.407387000" lon="-2.444817000">
        <ele>446.40</ele>
        <time>2013-07-27T09:10:08Z</time>
      </trkpt>
      <trkpt lat="42.407384000" lon="-2.444807000">
        <ele>446.40</ele>
        <time>2013-07-27T09:10:09Z</time>
      </trkpt>
      <trkpt lat="42.407380000" lon="-2.444798000">
        <ele>446.40</ele>
        <time>2013-07-27T09:10:10Z</time>
      </trkpt>
      <trkpt lat="42.407375000" lon="-2.444789000">
        <ele>446.30</ele>
        <time>2013-07-27T09:10:11Z</time>
      </trkpt>
      <trkpt lat="42.407368000" lon="-2.444783000">
        <ele>446.20</ele>
        <time>2013-07-27T09:10:12Z</time>
      </trkpt>
      <trkpt lat="42.407362000" lon="-2.444769000">
        <ele>446.20</ele>
        <time>2013-07-27T09:10:13Z</time>
      </trkpt>
      <trkpt lat="42.407350000" lon="-2.444753000">
        <ele>446.20</ele>
        <time>2013-07-27T09:10:14Z</time>
      </trkpt>
      <trkpt lat="42.407340000" lon="-2.444739000">
        <ele>446.10</ele>
        <time>2013-07-27T09:10:15Z</time>
      </trkpt>
      <trkpt lat="42.407328000" lon="-2.444724000">
        <ele>446.10</ele>
        <time>2013-07-27T09:10:16Z</time>
      </trkpt>
      <trkpt lat="42.407317000" lon="-2.444707000">
        <ele>446.10</ele>
        <time>2013-07-27T09:10:17Z</time>
      </trkpt>
      <trkpt lat="42.407305000" lon="-2.444687000">
        <ele>446.20</ele>
        <time>2013-07-27T09:10:18Z</time>
      </trkpt>
      <trkpt lat="42.407292000" lon="-2.444670000">
        <ele>446.20</ele>
        <time>2013-07-27T09:10:19Z</time>
      </trkpt>
      <trkpt lat="42.407280000" lon="-2.444645000">
        <ele>446.20</ele>
        <time>2013-07-27T09:10:20Z</time>
      </trkpt>
      <trkpt lat="42.407266000" lon="-2.444619000">
        <ele>446.20</ele>
        <time>2013-07-27T09:10:21Z</time>
      </trkpt>
      <trkpt lat="42.407250000" lon="-2.444590000">
        <ele>446.20</ele>
        <time>2013-07-27T09:10:22Z</time>
      </trkpt>
      <trkpt lat="42.407231000" lon="-2.444562000">
        <ele>446.30</ele>
        <time>2013-07-27T09:10:23Z</time>
      </trkpt>
      <trkpt lat="42.407212000" lon="-2.444533000">
        <ele>446.40</ele>
        <time>2013-07-27T09:10:24Z</time>
      </trkpt>
      <trkpt lat="42.407195000" lon="-2.444503000">
        <ele>446.50</ele>
        <time>2013-07-27T09:10:25Z</time>
      </trkpt>
      <trkpt lat="42.407178000" lon="-2.444473000">
        <ele>446.50</ele>
        <time>2013-07-27T09:10:26Z</time>
      </trkpt>
      <trkpt lat="42.407162000" lon="-2.444443000">
        <ele>446.60</ele>
        <time>2013-07-27T09:10:27Z</time>
      </trkpt>
      <trkpt lat="42.407143000" lon="-2.444418000">
        <ele>446.60</ele>
        <time>2013-07-27T09:10:28Z</time>
      </trkpt>
      <trkpt lat="42.407127000" lon="-2.444389000">
        <ele>446.60</ele>
        <time>2013-07-27T09:10:29Z</time>
      </trkpt>
      <trkpt lat="42.407111000" lon="-2.444359000">
        <ele>446.60</ele>
        <time>2013-07-27T09:10:30Z</time>
      </trkpt>
      <trkpt lat="42.407094000" lon="-2.444329000">
        <ele>446.50</ele>
        <time>2013-07-27T09:10:31Z</time>
      </trkpt>
      <trkpt lat="42.407078000" lon="-2.444298000">
        <ele>446.30</ele>
        <time>2013-07-27T09:10:32Z</time>
      </trkpt>
      <trkpt lat="42.407061000" lon="-2.444265000">
        <ele>446.10</ele>
        <time>2013-07-27T09:10:33Z</time>
      </trkpt>
      <trkpt lat="42.407044000" lon="-2.444234000">
        <ele>446.00</ele>
        <time>2013-07-27T09:10:34Z</time>
      </trkpt>
      <trkpt lat="42.407028000" lon="-2.444203000">
        <ele>445.90</ele>
        <time>2013-07-27T09:10:35Z</time>
      </trkpt>
      <trkpt lat="42.407011000" lon="-2.444171000">
        <ele>446.10</ele>
        <time>2013-07-27T09:10:36Z</time>
      </trkpt>
      <trkpt lat="42.406992000" lon="-2.444139000">
        <ele>446.30</ele>
        <time>2013-07-27T09:10:37Z</time>
      </trkpt>
      <trkpt lat="42.406973000" lon="-2.444108000">
        <ele>446.50</ele>
        <time>2013-07-27T09:10:38Z</time>
      </trkpt>
      <trkpt lat="42.406954000" lon="-2.444079000">
        <ele>446.60</ele>
        <time>2013-07-27T09:10:39Z</time>
      </trkpt>
      <trkpt lat="42.406934000" lon="-2.444054000">
        <ele>446.70</ele>
        <time>2013-07-27T09:10:40Z</time>
      </trkpt>
      <trkpt lat="42.406916000" lon="-2.444030000">
        <ele>446.70</ele>
        <time>2013-07-27T09:10:41Z</time>
      </trkpt>
      <trkpt lat="42.406898000" lon="-2.444002000">
        <ele>446.80</ele>
        <time>2013-07-27T09:10:42Z</time>
      </trkpt>
      <trkpt lat="42.406881000" lon="-2.443965000">
        <ele>446.80</ele>
        <time>2013-07-27T09:10:43Z</time>
      </trkpt>
      <trkpt lat="42.406862000" lon="-2.443927000">
        <ele>446.90</ele>
        <time>2013-07-27T09:10:44Z</time>
      </trkpt>
      <trkpt lat="42.406842000" lon="-2.443891000">
        <ele>446.90</ele>
        <time>2013-07-27T09:10:45Z</time>
      </trkpt>
      <trkpt lat="42.406818000" lon="-2.443855000">
        <ele>446.90</ele>
        <time>2013-07-27T09:10:46Z</time>
      </trkpt>
      <trkpt lat="42.406795000" lon="-2.443817000">
        <ele>447.00</ele>
        <time>2013-07-27T09:10:47Z</time>
      </trkpt>
      <trkpt lat="42.406767000" lon="-2.443778000">
        <ele>447.00</ele>
        <time>2013-07-27T09:10:48Z</time>
      </trkpt>
      <trkpt lat="42.406743000" lon="-2.443736000">
        <ele>447.00</ele>
        <time>2013-07-27T09:10:49Z</time>
      </trkpt>
      <trkpt lat="42.406716000" lon="-2.443693000">
        <ele>447.00</ele>
        <time>2013-07-27T09:10:50Z</time>
      </trkpt>
      <trkpt lat="42.406695000" lon="-2.443642000">
        <ele>447.00</ele>
        <time>2013-07-27T09:10:51Z</time>
      </trkpt>
      <trkpt lat="42.406682000" lon="-2.443586000">
        <ele>447.00</ele>
        <time>2013-07-27T09:10:52Z</time>
      </trkpt>
      <trkpt lat="42.406679000" lon="-2.443522000">
        <ele>447.00</ele>
        <time>2013-07-27T09:10:53Z</time>
      </trkpt>
      <trkpt lat="42.406684000" lon="-2.443460000">
        <ele>447.00</ele>
        <time>2013-07-27T09:10:54Z</time>
      </trkpt>
      <trkpt lat="42.406699000" lon="-2.443406000">
        <ele>447.00</ele>
        <time>2013-07-27T09:10:55Z</time>
      </trkpt>
      <trkpt lat="42.406712000" lon="-2.443373000">
        <ele>446.80</ele>
        <time>2013-07-27T09:10:56Z</time>
      </trkpt>
      <trkpt lat="42.406722000" lon="-2.443343000">
        <ele>446.70</ele>
        <time>2013-07-27T09:10:57Z</time>
      </trkpt>
      <trkpt lat="42.406723000" lon="-2.443310000">
        <ele>446.50</ele>
        <time>2013-07-27T09:10:58Z</time>
      </trkpt>
      <trkpt lat="42.406717000" lon="-2.443276000">
        <ele>446.40</ele>
        <time>2013-07-27T09:10:59Z</time>
      </trkpt>
      <trkpt lat="42.406700000" lon="-2.443244000">
        <ele>446.10</ele>
        <time>2013-07-27T09:11:00Z</time>
      </trkpt>
      <trkpt lat="42.406680000" lon="-2.443207000">
        <ele>445.90</ele>
        <time>2013-07-27T09:11:01Z</time>
      </trkpt>
      <trkpt lat="42.406654000" lon="-2.443156000">
        <ele>445.80</ele>
        <time>2013-07-27T09:11:02Z</time>
      </trkpt>
      <trkpt lat="42.406633000" lon="-2.443105000">
        <ele>445.70</ele>
        <time>2013-07-27T09:11:03Z</time>
      </trkpt>
      <trkpt lat="42.406610000" lon="-2.443053000">
        <ele>445.60</ele>
        <time>2013-07-27T09:11:04Z</time>
      </trkpt>
      <trkpt lat="42.406592000" lon="-2.443002000">
        <ele>445.60</ele>
        <time>2013-07-27T09:11:05Z</time>
      </trkpt>
      <trkpt lat="42.406572000" lon="-2.442953000">
        <ele>445.30</ele>
        <time>2013-07-27T09:11:06Z</time>
      </trkpt>
      <trkpt lat="42.406547000" lon="-2.442908000">
        <ele>445.10</ele>
        <time>2013-07-27T09:11:07Z</time>
      </trkpt>
      <trkpt lat="42.406523000" lon="-2.442870000">
        <ele>445.00</ele>
        <time>2013-07-27T09:11:08Z</time>
      </trkpt>
      <trkpt lat="42.406499000" lon="-2.442834000">
        <ele>444.90</ele>
        <time>2013-07-27T09:11:09Z</time>
      </trkpt>
      <trkpt lat="42.406475000" lon="-2.442797000">
        <ele>444.60</ele>
        <time>2013-07-27T09:11:10Z</time>
      </trkpt>
      <trkpt lat="42.406450000" lon="-2.442763000">
        <ele>444.40</ele>
        <time>2013-07-27T09:11:11Z</time>
      </trkpt>
      <trkpt lat="42.406426000" lon="-2.442732000">
        <ele>444.30</ele>
        <time>2013-07-27T09:11:12Z</time>
      </trkpt>
      <trkpt lat="42.406395000" lon="-2.442710000">
        <ele>444.10</ele>
        <time>2013-07-27T09:11:13Z</time>
      </trkpt>
      <trkpt lat="42.406359000" lon="-2.442698000">
        <ele>444.10</ele>
        <time>2013-07-27T09:11:14Z</time>
      </trkpt>
      <trkpt lat="42.406324000" lon="-2.442694000">
        <ele>444.00</ele>
        <time>2013-07-27T09:11:15Z</time>
      </trkpt>
      <trkpt lat="42.406289000" lon="-2.442675000">
        <ele>443.90</ele>
        <time>2013-07-27T09:11:16Z</time>
      </trkpt>
      <trkpt lat="42.406264000" lon="-2.442642000">
        <ele>443.80</ele>
        <time>2013-07-27T09:11:17Z</time>
      </trkpt>
      <trkpt lat="42.406251000" lon="-2.442599000">
        <ele>443.70</ele>
        <time>2013-07-27T09:11:18Z</time>
      </trkpt>
      <trkpt lat="42.406239000" lon="-2.442555000">
        <ele>443.70</ele>
        <time>2013-07-27T09:11:19Z</time>
      </trkpt>
      <trkpt lat="42.406225000" lon="-2.442511000">
        <ele>443.70</ele>
        <time>2013-07-27T09:11:20Z</time>
      </trkpt>
      <trkpt lat="42.406210000" lon="-2.442468000">
        <ele>443.70</ele>
        <time>2013-07-27T09:11:21Z</time>
      </trkpt>
      <trkpt lat="42.406196000" lon="-2.442427000">
        <ele>443.80</ele>
        <time>2013-07-27T09:11:22Z</time>
      </trkpt>
      <trkpt lat="42.406183000" lon="-2.442385000">
        <ele>443.80</ele>
        <time>2013-07-27T09:11:23Z</time>
      </trkpt>
      <trkpt lat="42.406170000" lon="-2.442341000">
        <ele>443.80</ele>
        <time>2013-07-27T09:11:24Z</time>
      </trkpt>
      <trkpt lat="42.406169000" lon="-2.442292000">
        <ele>443.80</ele>
        <time>2013-07-27T09:11:25Z</time>
      </trkpt>
      <trkpt lat="42.406160000" lon="-2.442249000">
        <ele>443.80</ele>
        <time>2013-07-27T09:11:26Z</time>
      </trkpt>
      <trkpt lat="42.406150000" lon="-2.442206000">
        <ele>443.80</ele>
        <time>2013-07-27T09:11:27Z</time>
      </trkpt>
      <trkpt lat="42.406141000" lon="-2.442169000">
        <ele>443.70</ele>
        <time>2013-07-27T09:11:28Z</time>
      </trkpt>
      <trkpt lat="42.406140000" lon="-2.442129000">
        <ele>443.70</ele>
        <time>2013-07-27T09:11:29Z</time>
      </trkpt>
      <trkpt lat="42.406143000" lon="-2.442090000">
        <ele>443.60</ele>
        <time>2013-07-27T09:11:30Z</time>
      </trkpt>
      <trkpt lat="42.406136000" lon="-2.442053000">
        <ele>443.60</ele>
        <time>2013-07-27T09:11:31Z</time>
      </trkpt>
      <trkpt lat="42.406117000" lon="-2.442021000">
        <ele>443.80</ele>
        <time>2013-07-27T09:11:32Z</time>
      </trkpt>
      <trkpt lat="42.406098000" lon="-2.442003000">
        <ele>443.90</ele>
        <time>2013-07-27T09:11:33Z</time>
      </trkpt>
      <trkpt lat="42.406083000" lon="-2.441978000">
        <ele>444.10</ele>
        <time>2013-07-27T09:11:34Z</time>
      </trkpt>
      <trkpt lat="42.406069000" lon="-2.441953000">
        <ele>444.20</ele>
        <time>2013-07-27T09:11:35Z</time>
      </trkpt>
      <trkpt lat="42.406049000" lon="-2.441924000">
        <ele>444.30</ele>
        <time>2013-07-27T09:11:36Z</time>
      </trkpt>
      <trkpt lat="42.406029000" lon="-2.441897000">
        <ele>444.40</ele>
        <time>2013-07-27T09:11:37Z</time>
      </trkpt>
      <trkpt lat="42.406011000" lon="-2.441876000">
        <ele>444.40</ele>
        <time>2013-07-27T09:11:38Z</time>
      </trkpt>
      <trkpt lat="42.405990000" lon="-2.441858000">
        <ele>444.50</ele>
        <time>2013-07-27T09:11:39Z</time>
      </trkpt>
      <trkpt lat="42.405970000" lon="-2.441838000">
        <ele>444.80</ele>
        <time>2013-07-27T09:11:40Z</time>
      </trkpt>
      <trkpt lat="42.405949000" lon="-2.441818000">
        <ele>445.00</ele>
        <time>2013-07-27T09:11:41Z</time>
      </trkpt>
      <trkpt lat="42.405930000" lon="-2.441799000">
        <ele>445.20</ele>
        <time>2013-07-27T09:11:42Z</time>
      </trkpt>
      <trkpt lat="42.405910000" lon="-2.441786000">
        <ele>445.30</ele>
        <time>2013-07-27T09:11:43Z</time>
      </trkpt>
      <trkpt lat="42.405894000" lon="-2.441767000">
        <ele>445.40</ele>
        <time>2013-07-27T09:11:44Z</time>
      </trkpt>
      <trkpt lat="42.405874000" lon="-2.441748000">
        <ele>445.50</ele>
        <time>2013-07-27T09:11:45Z</time>
      </trkpt>
      <trkpt lat="42.405850000" lon="-2.441730000">
        <ele>445.60</ele>
        <time>2013-07-27T09:11:46Z</time>
      </trkpt>
      <trkpt lat="42.405831000" lon="-2.441712000">
        <ele>445.60</ele>
        <time>2013-07-27T09:11:47Z</time>
      </trkpt>
      <trkpt lat="42.405812000" lon="-2.441701000">
        <ele>445.90</ele>
        <time>2013-07-27T09:11:48Z</time>
      </trkpt>
      <trkpt lat="42.405794000" lon="-2.441681000">
        <ele>446.10</ele>
        <time>2013-07-27T09:11:49Z</time>
      </trkpt>
      <trkpt lat="42.405771000" lon="-2.441655000">
        <ele>446.30</ele>
        <time>2013-07-27T09:11:50Z</time>
      </trkpt>
      <trkpt lat="42.405754000" lon="-2.441630000">
        <ele>446.50</ele>
        <time>2013-07-27T09:11:51Z</time>
      </trkpt>
      <trkpt lat="42.405741000" lon="-2.441613000">
        <ele>446.90</ele>
        <time>2013-07-27T09:11:52Z</time>
      </trkpt>
      <trkpt lat="42.405714000" lon="-2.441601000">
        <ele>447.10</ele>
        <time>2013-07-27T09:11:53Z</time>
      </trkpt>
      <trkpt lat="42.405692000" lon="-2.441580000">
        <ele>447.50</ele>
        <time>2013-07-27T09:11:54Z</time>
      </trkpt>
      <trkpt lat="42.405671000" lon="-2.441552000">
        <ele>447.80</ele>
        <time>2013-07-27T09:11:55Z</time>
      </trkpt>
      <trkpt lat="42.405663000" lon="-2.441522000">
        <ele>448.20</ele>
        <time>2013-07-27T09:11:56Z</time>
      </trkpt>
      <trkpt lat="42.405657000" lon="-2.441493000">
        <ele>448.50</ele>
        <time>2013-07-27T09:11:57Z</time>
      </trkpt>
      <trkpt lat="42.405654000" lon="-2.441460000">
        <ele>448.80</ele>
        <time>2013-07-27T09:11:58Z</time>
      </trkpt>
      <trkpt lat="42.405652000" lon="-2.441423000">
        <ele>449.00</ele>
        <time>2013-07-27T09:11:59Z</time>
      </trkpt>
      <trkpt lat="42.405645000" lon="-2.441391000">
        <ele>449.20</ele>
        <time>2013-07-27T09:12:00Z</time>
      </trkpt>
      <trkpt lat="42.405631000" lon="-2.441364000">
        <ele>449.40</ele>
        <time>2013-07-27T09:12:01Z</time>
      </trkpt>
      <trkpt lat="42.405622000" lon="-2.441332000">
        <ele>449.60</ele>
        <time>2013-07-27T09:12:02Z</time>
      </trkpt>
      <trkpt lat="42.405618000" lon="-2.441301000">
        <ele>449.70</ele>
        <time>2013-07-27T09:12:03Z</time>
      </trkpt>
      <trkpt lat="42.405615000" lon="-2.441271000">
        <ele>450.00</ele>
        <time>2013-07-27T09:12:04Z</time>
      </trkpt>
      <trkpt lat="42.405609000" lon="-2.441243000">
        <ele>450.30</ele>
        <time>2013-07-27T09:12:05Z</time>
      </trkpt>
      <trkpt lat="42.405602000" lon="-2.441215000">
        <ele>450.50</ele>
        <time>2013-07-27T09:12:06Z</time>
      </trkpt>
      <trkpt lat="42.405595000" lon="-2.441182000">
        <ele>450.70</ele>
        <time>2013-07-27T09:12:07Z</time>
      </trkpt>
      <trkpt lat="42.405588000" lon="-2.441148000">
        <ele>451.10</ele>
        <time>2013-07-27T09:12:08Z</time>
      </trkpt>
      <trkpt lat="42.405583000" lon="-2.441111000">
        <ele>451.40</ele>
        <time>2013-07-27T09:12:09Z</time>
      </trkpt>
      <trkpt lat="42.405581000" lon="-2.441077000">
        <ele>451.80</ele>
        <time>2013-07-27T09:12:10Z</time>
      </trkpt>
      <trkpt lat="42.405582000" lon="-2.441041000">
        <ele>452.10</ele>
        <time>2013-07-27T09:12:11Z</time>
      </trkpt>
      <trkpt lat="42.405582000" lon="-2.441008000">
        <ele>452.40</ele>
        <time>2013-07-27T09:12:12Z</time>
      </trkpt>
      <trkpt lat="42.405582000" lon="-2.440980000">
        <ele>452.50</ele>
        <time>2013-07-27T09:12:13Z</time>
      </trkpt>
      <trkpt lat="42.405565000" lon="-2.440979000">
        <ele>452.90</ele>
        <time>2013-07-27T09:12:14Z</time>
      </trkpt>
      <trkpt lat="42.405552000" lon="-2.440974000">
        <ele>453.20</ele>
        <time>2013-07-27T09:12:15Z</time>
      </trkpt>
      <trkpt lat="42.405535000" lon="-2.440971000">
        <ele>453.50</ele>
        <time>2013-07-27T09:12:16Z</time>
      </trkpt>
      <trkpt lat="42.405514000" lon="-2.440956000">
        <ele>453.70</ele>
        <time>2013-07-27T09:12:17Z</time>
      </trkpt>
      <trkpt lat="42.405494000" lon="-2.440948000">
        <ele>453.90</ele>
        <time>2013-07-27T09:12:18Z</time>
      </trkpt>
      <trkpt lat="42.405478000" lon="-2.440941000">
        <ele>454.00</ele>
        <time>2013-07-27T09:12:19Z</time>
      </trkpt>
      <trkpt lat="42.405466000" lon="-2.440922000">
        <ele>454.00</ele>
        <time>2013-07-27T09:12:20Z</time>
      </trkpt>
      <trkpt lat="42.405452000" lon="-2.440901000">
        <ele>453.90</ele>
        <time>2013-07-27T09:12:21Z</time>
      </trkpt>
      <trkpt lat="42.405434000" lon="-2.440876000">
        <ele>453.90</ele>
        <time>2013-07-27T09:12:22Z</time>
      </trkpt>
      <trkpt lat="42.405415000" lon="-2.440852000">
        <ele>453.90</ele>
        <time>2013-07-27T09:12:23Z</time>
      </trkpt>
      <trkpt lat="42.405397000" lon="-2.440828000">
        <ele>453.90</ele>
        <time>2013-07-27T09:12:24Z</time>
      </trkpt>
      <trkpt lat="42.405379000" lon="-2.440800000">
        <ele>454.00</ele>
        <time>2013-07-27T09:12:25Z</time>
      </trkpt>
      <trkpt lat="42.405361000" lon="-2.440775000">
        <ele>454.20</ele>
        <time>2013-07-27T09:12:26Z</time>
      </trkpt>
      <trkpt lat="42.405341000" lon="-2.440746000">
        <ele>454.30</ele>
        <time>2013-07-27T09:12:27Z</time>
      </trkpt>
      <trkpt lat="42.405321000" lon="-2.440712000">
        <ele>454.20</ele>
        <time>2013-07-27T09:12:28Z</time>
      </trkpt>
      <trkpt lat="42.405306000" lon="-2.440674000">
        <ele>454.20</ele>
        <time>2013-07-27T09:12:29Z</time>
      </trkpt>
      <trkpt lat="42.405284000" lon="-2.440641000">
        <ele>454.20</ele>
        <time>2013-07-27T09:12:30Z</time>
      </trkpt>
      <trkpt lat="42.405266000" lon="-2.440612000">
        <ele>454.20</ele>
        <time>2013-07-27T09:12:31Z</time>
      </trkpt>
      <trkpt lat="42.405237000" lon="-2.440585000">
        <ele>454.10</ele>
        <time>2013-07-27T09:12:32Z</time>
      </trkpt>
      <trkpt lat="42.405205000" lon="-2.440558000">
        <ele>454.10</ele>
        <time>2013-07-27T09:12:33Z</time>
      </trkpt>
      <trkpt lat="42.405183000" lon="-2.440521000">
        <ele>454.10</ele>
        <time>2013-07-27T09:12:34Z</time>
      </trkpt>
      <trkpt lat="42.405170000" lon="-2.440483000">
        <ele>454.10</ele>
        <time>2013-07-27T09:12:35Z</time>
      </trkpt>
      <trkpt lat="42.405159000" lon="-2.440456000">
        <ele>454.10</ele>
        <time>2013-07-27T09:12:36Z</time>
      </trkpt>
      <trkpt lat="42.405142000" lon="-2.440431000">
        <ele>454.10</ele>
        <time>2013-07-27T09:12:37Z</time>
      </trkpt>
      <trkpt lat="42.405127000" lon="-2.440397000">
        <ele>454.00</ele>
        <time>2013-07-27T09:12:38Z</time>
      </trkpt>
      <trkpt lat="42.405110000" lon="-2.440352000">
        <ele>453.90</ele>
        <time>2013-07-27T09:12:39Z</time>
      </trkpt>
      <trkpt lat="42.405087000" lon="-2.440310000">
        <ele>453.80</ele>
        <time>2013-07-27T09:12:40Z</time>
      </trkpt>
      <trkpt lat="42.405064000" lon="-2.440267000">
        <ele>453.80</ele>
        <time>2013-07-27T09:12:41Z</time>
      </trkpt>
      <trkpt lat="42.405040000" lon="-2.440231000">
        <ele>454.00</ele>
        <time>2013-07-27T09:12:42Z</time>
      </trkpt>
      <trkpt lat="42.405016000" lon="-2.440197000">
        <ele>454.10</ele>
        <time>2013-07-27T09:12:43Z</time>
      </trkpt>
      <trkpt lat="42.404993000" lon="-2.440165000">
        <ele>454.30</ele>
        <time>2013-07-27T09:12:44Z</time>
      </trkpt>
      <trkpt lat="42.404970000" lon="-2.440130000">
        <ele>454.40</ele>
        <time>2013-07-27T09:12:45Z</time>
      </trkpt>
      <trkpt lat="42.404951000" lon="-2.440099000">
        <ele>454.20</ele>
        <time>2013-07-27T09:12:46Z</time>
      </trkpt>
      <trkpt lat="42.404933000" lon="-2.440071000">
        <ele>454.10</ele>
        <time>2013-07-27T09:12:47Z</time>
      </trkpt>
      <trkpt lat="42.404916000" lon="-2.440045000">
        <ele>454.00</ele>
        <time>2013-07-27T09:12:48Z</time>
      </trkpt>
      <trkpt lat="42.404900000" lon="-2.440020000">
        <ele>453.90</ele>
        <time>2013-07-27T09:12:49Z</time>
      </trkpt>
      <trkpt lat="42.404885000" lon="-2.439992000">
        <ele>453.80</ele>
        <time>2013-07-27T09:12:50Z</time>
      </trkpt>
      <trkpt lat="42.404870000" lon="-2.439961000">
        <ele>453.80</ele>
        <time>2013-07-27T09:12:51Z</time>
      </trkpt>
      <trkpt lat="42.404851000" lon="-2.439927000">
        <ele>453.80</ele>
        <time>2013-07-27T09:12:52Z</time>
      </trkpt>
      <trkpt lat="42.404833000" lon="-2.439891000">
        <ele>453.80</ele>
        <time>2013-07-27T09:12:53Z</time>
      </trkpt>
      <trkpt lat="42.404814000" lon="-2.439853000">
        <ele>453.80</ele>
        <time>2013-07-27T09:12:54Z</time>
      </trkpt>
      <trkpt lat="42.404796000" lon="-2.439819000">
        <ele>453.80</ele>
        <time>2013-07-27T09:12:55Z</time>
      </trkpt>
      <trkpt lat="42.404785000" lon="-2.439782000">
        <ele>454.00</ele>
        <time>2013-07-27T09:12:56Z</time>
      </trkpt>
      <trkpt lat="42.404768000" lon="-2.439755000">
        <ele>454.10</ele>
        <time>2013-07-27T09:12:57Z</time>
      </trkpt>
      <trkpt lat="42.404750000" lon="-2.439723000">
        <ele>454.10</ele>
        <time>2013-07-27T09:12:58Z</time>
      </trkpt>
      <trkpt lat="42.404733000" lon="-2.439691000">
        <ele>454.20</ele>
        <time>2013-07-27T09:12:59Z</time>
      </trkpt>
      <trkpt lat="42.404715000" lon="-2.439659000">
        <ele>454.20</ele>
        <time>2013-07-27T09:13:00Z</time>
      </trkpt>
      <trkpt lat="42.404701000" lon="-2.439622000">
        <ele>454.20</ele>
        <time>2013-07-27T09:13:01Z</time>
      </trkpt>
      <trkpt lat="42.404686000" lon="-2.439587000">
        <ele>454.10</ele>
        <time>2013-07-27T09:13:02Z</time>
      </trkpt>
      <trkpt lat="42.404668000" lon="-2.439555000">
        <ele>454.10</ele>
        <time>2013-07-27T09:13:03Z</time>
      </trkpt>
      <trkpt lat="42.404650000" lon="-2.439523000">
        <ele>454.40</ele>
        <time>2013-07-27T09:13:04Z</time>
      </trkpt>
      <trkpt lat="42.404627000" lon="-2.439493000">
        <ele>454.60</ele>
        <time>2013-07-27T09:13:05Z</time>
      </trkpt>
      <trkpt lat="42.404605000" lon="-2.439460000">
        <ele>454.70</ele>
        <time>2013-07-27T09:13:06Z</time>
      </trkpt>
      <trkpt lat="42.404584000" lon="-2.439429000">
        <ele>454.80</ele>
        <time>2013-07-27T09:13:07Z</time>
      </trkpt>
      <trkpt lat="42.404565000" lon="-2.439395000">
        <ele>454.70</ele>
        <time>2013-07-27T09:13:08Z</time>
      </trkpt>
      <trkpt lat="42.404550000" lon="-2.439349000">
        <ele>454.60</ele>
        <time>2013-07-27T09:13:09Z</time>
      </trkpt>
      <trkpt lat="42.404524000" lon="-2.439310000">
        <ele>454.60</ele>
        <time>2013-07-27T09:13:10Z</time>
      </trkpt>
      <trkpt lat="42.404502000" lon="-2.439270000">
        <ele>454.50</ele>
        <time>2013-07-27T09:13:11Z</time>
      </trkpt>
      <trkpt lat="42.404478000" lon="-2.439234000">
        <ele>454.50</ele>
        <time>2013-07-27T09:13:12Z</time>
      </trkpt>
      <trkpt lat="42.404466000" lon="-2.439195000">
        <ele>454.50</ele>
        <time>2013-07-27T09:13:13Z</time>
      </trkpt>
      <trkpt lat="42.404462000" lon="-2.439154000">
        <ele>454.60</ele>
        <time>2013-07-27T09:13:14Z</time>
      </trkpt>
      <trkpt lat="42.404456000" lon="-2.439109000">
        <ele>454.60</ele>
        <time>2013-07-27T09:13:15Z</time>
      </trkpt>
      <trkpt lat="42.404449000" lon="-2.439064000">
        <ele>454.70</ele>
        <time>2013-07-27T09:13:16Z</time>
      </trkpt>
      <trkpt lat="42.404445000" lon="-2.439018000">
        <ele>454.80</ele>
        <time>2013-07-27T09:13:17Z</time>
      </trkpt>
      <trkpt lat="42.404439000" lon="-2.438975000">
        <ele>454.70</ele>
        <time>2013-07-27T09:13:18Z</time>
      </trkpt>
      <trkpt lat="42.404436000" lon="-2.438931000">
        <ele>454.70</ele>
        <time>2013-07-27T09:13:19Z</time>
      </trkpt>
      <trkpt lat="42.404435000" lon="-2.438884000">
        <ele>454.70</ele>
        <time>2013-07-27T09:13:20Z</time>
      </trkpt>
      <trkpt lat="42.404437000" lon="-2.438839000">
        <ele>454.70</ele>
        <time>2013-07-27T09:13:21Z</time>
      </trkpt>
      <trkpt lat="42.404434000" lon="-2.438793000">
        <ele>454.80</ele>
        <time>2013-07-27T09:13:22Z</time>
      </trkpt>
      <trkpt lat="42.404430000" lon="-2.438748000">
        <ele>454.90</ele>
        <time>2013-07-27T09:13:23Z</time>
      </trkpt>
      <trkpt lat="42.404425000" lon="-2.438700000">
        <ele>455.00</ele>
        <time>2013-07-27T09:13:24Z</time>
      </trkpt>
      <trkpt lat="42.404427000" lon="-2.438654000">
        <ele>455.00</ele>
        <time>2013-07-27T09:13:25Z</time>
      </trkpt>
      <trkpt lat="42.404430000" lon="-2.438609000">
        <ele>455.10</ele>
        <time>2013-07-27T09:13:26Z</time>
      </trkpt>
      <trkpt lat="42.404433000" lon="-2.438563000">
        <ele>455.20</ele>
        <time>2013-07-27T09:13:27Z</time>
      </trkpt>
      <trkpt lat="42.404432000" lon="-2.438517000">
        <ele>455.30</ele>
        <time>2013-07-27T09:13:28Z</time>
      </trkpt>
      <trkpt lat="42.404434000" lon="-2.438472000">
        <ele>455.40</ele>
        <time>2013-07-27T09:13:29Z</time>
      </trkpt>
      <trkpt lat="42.404433000" lon="-2.438430000">
        <ele>455.50</ele>
        <time>2013-07-27T09:13:30Z</time>
      </trkpt>
      <trkpt lat="42.404437000" lon="-2.438389000">
        <ele>455.50</ele>
        <time>2013-07-27T09:13:31Z</time>
      </trkpt>
      <trkpt lat="42.404440000" lon="-2.438350000">
        <ele>455.70</ele>
        <time>2013-07-27T09:13:32Z</time>
      </trkpt>
      <trkpt lat="42.404443000" lon="-2.438305000">
        <ele>455.80</ele>
        <time>2013-07-27T09:13:33Z</time>
      </trkpt>
      <trkpt lat="42.404445000" lon="-2.438262000">
        <ele>455.90</ele>
        <time>2013-07-27T09:13:34Z</time>
      </trkpt>
      <trkpt lat="42.404449000" lon="-2.438221000">
        <ele>455.90</ele>
        <time>2013-07-27T09:13:35Z</time>
      </trkpt>
      <trkpt lat="42.404454000" lon="-2.438182000">
        <ele>455.90</ele>
        <time>2013-07-27T09:13:36Z</time>
      </trkpt>
      <trkpt lat="42.404460000" lon="-2.438142000">
        <ele>455.90</ele>
        <time>2013-07-27T09:13:37Z</time>
      </trkpt>
      <trkpt lat="42.404467000" lon="-2.438107000">
        <ele>455.90</ele>
        <time>2013-07-27T09:13:38Z</time>
      </trkpt>
      <trkpt lat="42.404473000" lon="-2.438068000">
        <ele>455.90</ele>
        <time>2013-07-27T09:13:39Z</time>
      </trkpt>
      <trkpt lat="42.404477000" lon="-2.438030000">
        <ele>456.20</ele>
        <time>2013-07-27T09:13:40Z</time>
      </trkpt>
      <trkpt lat="42.404484000" lon="-2.437994000">
        <ele>456.40</ele>
        <time>2013-07-27T09:13:41Z</time>
      </trkpt>
      <trkpt lat="42.404489000" lon="-2.437952000">
        <ele>456.60</ele>
        <time>2013-07-27T09:13:42Z</time>
      </trkpt>
      <trkpt lat="42.404495000" lon="-2.437912000">
        <ele>456.80</ele>
        <time>2013-07-27T09:13:43Z</time>
      </trkpt>
      <trkpt lat="42.404504000" lon="-2.437876000">
        <ele>456.90</ele>
        <time>2013-07-27T09:13:44Z</time>
      </trkpt>
      <trkpt lat="42.404512000" lon="-2.437835000">
        <ele>457.00</ele>
        <time>2013-07-27T09:13:45Z</time>
      </trkpt>
      <trkpt lat="42.404522000" lon="-2.437794000">
        <ele>457.10</ele>
        <time>2013-07-27T09:13:46Z</time>
      </trkpt>
      <trkpt lat="42.404530000" lon="-2.437753000">
        <ele>457.20</ele>
        <time>2013-07-27T09:13:47Z</time>
      </trkpt>
      <trkpt lat="42.404537000" lon="-2.437715000">
        <ele>457.30</ele>
        <time>2013-07-27T09:13:48Z</time>
      </trkpt>
      <trkpt lat="42.404543000" lon="-2.437678000">
        <ele>457.30</ele>
        <time>2013-07-27T09:13:49Z</time>
      </trkpt>
      <trkpt lat="42.404550000" lon="-2.437640000">
        <ele>457.40</ele>
        <time>2013-07-27T09:13:50Z</time>
      </trkpt>
      <trkpt lat="42.404558000" lon="-2.437603000">
        <ele>457.40</ele>
        <time>2013-07-27T09:13:51Z</time>
      </trkpt>
      <trkpt lat="42.404566000" lon="-2.437566000">
        <ele>457.40</ele>
        <time>2013-07-27T09:13:52Z</time>
      </trkpt>
      <trkpt lat="42.404578000" lon="-2.437527000">
        <ele>457.50</ele>
        <time>2013-07-27T09:13:53Z</time>
      </trkpt>
      <trkpt lat="42.404587000" lon="-2.437488000">
        <ele>457.70</ele>
        <time>2013-07-27T09:13:54Z</time>
      </trkpt>
      <trkpt lat="42.404596000" lon="-2.437449000">
        <ele>457.90</ele>
        <time>2013-07-27T09:13:55Z</time>
      </trkpt>
      <trkpt lat="42.404604000" lon="-2.437409000">
        <ele>458.10</ele>
        <time>2013-07-27T09:13:56Z</time>
      </trkpt>
      <trkpt lat="42.404612000" lon="-2.437368000">
        <ele>458.20</ele>
        <time>2013-07-27T09:13:57Z</time>
      </trkpt>
      <trkpt lat="42.404623000" lon="-2.437330000">
        <ele>458.20</ele>
        <time>2013-07-27T09:13:58Z</time>
      </trkpt>
      <trkpt lat="42.404633000" lon="-2.437292000">
        <ele>458.10</ele>
        <time>2013-07-27T09:13:59Z</time>
      </trkpt>
      <trkpt lat="42.404643000" lon="-2.437255000">
        <ele>458.10</ele>
        <time>2013-07-27T09:14:00Z</time>
      </trkpt>
      <trkpt lat="42.404655000" lon="-2.437222000">
        <ele>458.10</ele>
        <time>2013-07-27T09:14:01Z</time>
      </trkpt>
      <trkpt lat="42.404666000" lon="-2.437192000">
        <ele>458.10</ele>
        <time>2013-07-27T09:14:02Z</time>
      </trkpt>
      <trkpt lat="42.404678000" lon="-2.437159000">
        <ele>458.20</ele>
        <time>2013-07-27T09:14:03Z</time>
      </trkpt>
      <trkpt lat="42.404686000" lon="-2.437122000">
        <ele>458.30</ele>
        <time>2013-07-27T09:14:04Z</time>
      </trkpt>
      <trkpt lat="42.404695000" lon="-2.437085000">
        <ele>458.40</ele>
        <time>2013-07-27T09:14:05Z</time>
      </trkpt>
      <trkpt lat="42.404705000" lon="-2.437048000">
        <ele>458.50</ele>
        <time>2013-07-27T09:14:06Z</time>
      </trkpt>
      <trkpt lat="42.404715000" lon="-2.437011000">
        <ele>458.70</ele>
        <time>2013-07-27T09:14:07Z</time>
      </trkpt>
      <trkpt lat="42.404725000" lon="-2.436972000">
        <ele>458.80</ele>
        <time>2013-07-27T09:14:08Z</time>
      </trkpt>
      <trkpt lat="42.404732000" lon="-2.436933000">
        <ele>459.00</ele>
        <time>2013-07-27T09:14:09Z</time>
      </trkpt>
      <trkpt lat="42.404736000" lon="-2.436895000">
        <ele>459.10</ele>
        <time>2013-07-27T09:14:10Z</time>
      </trkpt>
      <trkpt lat="42.404744000" lon="-2.436855000">
        <ele>459.30</ele>
        <time>2013-07-27T09:14:11Z</time>
      </trkpt>
      <trkpt lat="42.404751000" lon="-2.436815000">
        <ele>459.30</ele>
        <time>2013-07-27T09:14:12Z</time>
      </trkpt>
      <trkpt lat="42.404755000" lon="-2.436776000">
        <ele>459.40</ele>
        <time>2013-07-27T09:14:13Z</time>
      </trkpt>
      <trkpt lat="42.404760000" lon="-2.436738000">
        <ele>459.70</ele>
        <time>2013-07-27T09:14:14Z</time>
      </trkpt>
      <trkpt lat="42.404764000" lon="-2.436702000">
        <ele>460.00</ele>
        <time>2013-07-27T09:14:15Z</time>
      </trkpt>
      <trkpt lat="42.404771000" lon="-2.436666000">
        <ele>460.10</ele>
        <time>2013-07-27T09:14:16Z</time>
      </trkpt>
      <trkpt lat="42.404775000" lon="-2.436628000">
        <ele>460.30</ele>
        <time>2013-07-27T09:14:17Z</time>
      </trkpt>
      <trkpt lat="42.404780000" lon="-2.436588000">
        <ele>460.40</ele>
        <time>2013-07-27T09:14:18Z</time>
      </trkpt>
      <trkpt lat="42.404785000" lon="-2.436550000">
        <ele>460.40</ele>
        <time>2013-07-27T09:14:19Z</time>
      </trkpt>
      <trkpt lat="42.404784000" lon="-2.436511000">
        <ele>460.60</ele>
        <time>2013-07-27T09:14:20Z</time>
      </trkpt>
      <trkpt lat="42.404784000" lon="-2.436472000">
        <ele>460.80</ele>
        <time>2013-07-27T09:14:21Z</time>
      </trkpt>
      <trkpt lat="42.404786000" lon="-2.436430000">
        <ele>460.90</ele>
        <time>2013-07-27T09:14:22Z</time>
      </trkpt>
      <trkpt lat="42.404784000" lon="-2.436390000">
        <ele>461.10</ele>
        <time>2013-07-27T09:14:23Z</time>
      </trkpt>
      <trkpt lat="42.404779000" lon="-2.436348000">
        <ele>461.20</ele>
        <time>2013-07-27T09:14:24Z</time>
      </trkpt>
      <trkpt lat="42.404771000" lon="-2.436306000">
        <ele>461.30</ele>
        <time>2013-07-27T09:14:25Z</time>
      </trkpt>
      <trkpt lat="42.404763000" lon="-2.436262000">
        <ele>461.50</ele>
        <time>2013-07-27T09:14:26Z</time>
      </trkpt>
      <trkpt lat="42.404755000" lon="-2.436217000">
        <ele>461.70</ele>
        <time>2013-07-27T09:14:27Z</time>
      </trkpt>
      <trkpt lat="42.404747000" lon="-2.436172000">
        <ele>462.00</ele>
        <time>2013-07-27T09:14:28Z</time>
      </trkpt>
      <trkpt lat="42.404745000" lon="-2.436131000">
        <ele>462.20</ele>
        <time>2013-07-27T09:14:29Z</time>
      </trkpt>
      <trkpt lat="42.404738000" lon="-2.436087000">
        <ele>462.40</ele>
        <time>2013-07-27T09:14:30Z</time>
      </trkpt>
      <trkpt lat="42.404730000" lon="-2.436045000">
        <ele>462.50</ele>
        <time>2013-07-27T09:14:31Z</time>
      </trkpt>
      <trkpt lat="42.404721000" lon="-2.436001000">
        <ele>462.80</ele>
        <time>2013-07-27T09:14:32Z</time>
      </trkpt>
      <trkpt lat="42.404712000" lon="-2.435958000">
        <ele>463.00</ele>
        <time>2013-07-27T09:14:33Z</time>
      </trkpt>
      <trkpt lat="42.404704000" lon="-2.435916000">
        <ele>463.10</ele>
        <time>2013-07-27T09:14:34Z</time>
      </trkpt>
      <trkpt lat="42.404697000" lon="-2.435873000">
        <ele>463.20</ele>
        <time>2013-07-27T09:14:35Z</time>
      </trkpt>
      <trkpt lat="42.404688000" lon="-2.435825000">
        <ele>463.20</ele>
        <time>2013-07-27T09:14:36Z</time>
      </trkpt>
      <trkpt lat="42.404680000" lon="-2.435774000">
        <ele>463.30</ele>
        <time>2013-07-27T09:14:37Z</time>
      </trkpt>
      <trkpt lat="42.404671000" lon="-2.435721000">
        <ele>463.30</ele>
        <time>2013-07-27T09:14:38Z</time>
      </trkpt>
      <trkpt lat="42.404661000" lon="-2.435668000">
        <ele>463.30</ele>
        <time>2013-07-27T09:14:39Z</time>
      </trkpt>
      <trkpt lat="42.404652000" lon="-2.435617000">
        <ele>463.30</ele>
        <time>2013-07-27T09:14:40Z</time>
      </trkpt>
      <trkpt lat="42.404644000" lon="-2.435567000">
        <ele>463.40</ele>
        <time>2013-07-27T09:14:41Z</time>
      </trkpt>
      <trkpt lat="42.404637000" lon="-2.435520000">
        <ele>463.40</ele>
        <time>2013-07-27T09:14:42Z</time>
      </trkpt>
      <trkpt lat="42.404628000" lon="-2.435476000">
        <ele>463.50</ele>
        <time>2013-07-27T09:14:43Z</time>
      </trkpt>
      <trkpt lat="42.404621000" lon="-2.435434000">
        <ele>463.20</ele>
        <time>2013-07-27T09:14:44Z</time>
      </trkpt>
      <trkpt lat="42.404618000" lon="-2.435391000">
        <ele>463.00</ele>
        <time>2013-07-27T09:14:45Z</time>
      </trkpt>
      <trkpt lat="42.404612000" lon="-2.435348000">
        <ele>462.80</ele>
        <time>2013-07-27T09:14:46Z</time>
      </trkpt>
      <trkpt lat="42.404605000" lon="-2.435304000">
        <ele>462.70</ele>
        <time>2013-07-27T09:14:47Z</time>
      </trkpt>
      <trkpt lat="42.404598000" lon="-2.435262000">
        <ele>462.60</ele>
        <time>2013-07-27T09:14:48Z</time>
      </trkpt>
      <trkpt lat="42.404590000" lon="-2.435219000">
        <ele>462.60</ele>
        <time>2013-07-27T09:14:49Z</time>
      </trkpt>
      <trkpt lat="42.404582000" lon="-2.435174000">
        <ele>462.60</ele>
        <time>2013-07-27T09:14:50Z</time>
      </trkpt>
      <trkpt lat="42.404577000" lon="-2.435131000">
        <ele>462.60</ele>
        <time>2013-07-27T09:14:51Z</time>
      </trkpt>
      <trkpt lat="42.404575000" lon="-2.435088000">
        <ele>462.80</ele>
        <time>2013-07-27T09:14:52Z</time>
      </trkpt>
      <trkpt lat="42.404570000" lon="-2.435044000">
        <ele>463.00</ele>
        <time>2013-07-27T09:14:53Z</time>
      </trkpt>
      <trkpt lat="42.404565000" lon="-2.434998000">
        <ele>463.00</ele>
        <time>2013-07-27T09:14:54Z</time>
      </trkpt>
      <trkpt lat="42.404558000" lon="-2.434953000">
        <ele>463.00</ele>
        <time>2013-07-27T09:14:55Z</time>
      </trkpt>
      <trkpt lat="42.404553000" lon="-2.434909000">
        <ele>463.00</ele>
        <time>2013-07-27T09:14:56Z</time>
      </trkpt>
      <trkpt lat="42.404546000" lon="-2.434862000">
        <ele>463.00</ele>
        <time>2013-07-27T09:14:57Z</time>
      </trkpt>
      <trkpt lat="42.404541000" lon="-2.434813000">
        <ele>463.00</ele>
        <time>2013-07-27T09:14:58Z</time>
      </trkpt>
      <trkpt lat="42.404535000" lon="-2.434766000">
        <ele>463.00</ele>
        <time>2013-07-27T09:14:59Z</time>
      </trkpt>
      <trkpt lat="42.404530000" lon="-2.434721000">
        <ele>463.00</ele>
        <time>2013-07-27T09:15:00Z</time>
      </trkpt>
      <trkpt lat="42.404522000" lon="-2.434674000">
        <ele>463.00</ele>
        <time>2013-07-27T09:15:01Z</time>
      </trkpt>
      <trkpt lat="42.404518000" lon="-2.434632000">
        <ele>463.20</ele>
        <time>2013-07-27T09:15:02Z</time>
      </trkpt>
      <trkpt lat="42.404515000" lon="-2.434586000">
        <ele>463.30</ele>
        <time>2013-07-27T09:15:03Z</time>
      </trkpt>
      <trkpt lat="42.404507000" lon="-2.434545000">
        <ele>463.30</ele>
        <time>2013-07-27T09:15:04Z</time>
      </trkpt>
      <trkpt lat="42.404502000" lon="-2.434501000">
        <ele>463.40</ele>
        <time>2013-07-27T09:15:05Z</time>
      </trkpt>
      <trkpt lat="42.404498000" lon="-2.434458000">
        <ele>463.50</ele>
        <time>2013-07-27T09:15:06Z</time>
      </trkpt>
      <trkpt lat="42.404493000" lon="-2.434415000">
        <ele>463.50</ele>
        <time>2013-07-27T09:15:07Z</time>
      </trkpt>
      <trkpt lat="42.404488000" lon="-2.434373000">
        <ele>463.70</ele>
        <time>2013-07-27T09:15:08Z</time>
      </trkpt>
      <trkpt lat="42.404487000" lon="-2.434328000">
        <ele>463.80</ele>
        <time>2013-07-27T09:15:09Z</time>
      </trkpt>
      <trkpt lat="42.404488000" lon="-2.434287000">
        <ele>463.90</ele>
        <time>2013-07-27T09:15:10Z</time>
      </trkpt>
      <trkpt lat="42.404491000" lon="-2.434241000">
        <ele>464.00</ele>
        <time>2013-07-27T09:15:11Z</time>
      </trkpt>
      <trkpt lat="42.404490000" lon="-2.434198000">
        <ele>464.10</ele>
        <time>2013-07-27T09:15:12Z</time>
      </trkpt>
      <trkpt lat="42.404490000" lon="-2.434157000">
        <ele>464.10</ele>
        <time>2013-07-27T09:15:13Z</time>
      </trkpt>
      <trkpt lat="42.404493000" lon="-2.434116000">
        <ele>464.10</ele>
        <time>2013-07-27T09:15:14Z</time>
      </trkpt>
      <trkpt lat="42.404496000" lon="-2.434071000">
        <ele>464.10</ele>
        <time>2013-07-27T09:15:15Z</time>
      </trkpt>
      <trkpt lat="42.404500000" lon="-2.434028000">
        <ele>464.10</ele>
        <time>2013-07-27T09:15:16Z</time>
      </trkpt>
      <trkpt lat="42.404504000" lon="-2.433986000">
        <ele>464.10</ele>
        <time>2013-07-27T09:15:17Z</time>
      </trkpt>
      <trkpt lat="42.404507000" lon="-2.433946000">
        <ele>464.40</ele>
        <time>2013-07-27T09:15:18Z</time>
      </trkpt>
      <trkpt lat="42.404509000" lon="-2.433903000">
        <ele>464.50</ele>
        <time>2013-07-27T09:15:19Z</time>
      </trkpt>
      <trkpt lat="42.404513000" lon="-2.433865000">
        <ele>464.70</ele>
        <time>2013-07-27T09:15:20Z</time>
      </trkpt>
      <trkpt lat="42.404517000" lon="-2.433824000">
        <ele>464.80</ele>
        <time>2013-07-27T09:15:21Z</time>
      </trkpt>
      <trkpt lat="42.404519000" lon="-2.433782000">
        <ele>465.00</ele>
        <time>2013-07-27T09:15:22Z</time>
      </trkpt>
      <trkpt lat="42.404523000" lon="-2.433739000">
        <ele>465.10</ele>
        <time>2013-07-27T09:15:23Z</time>
      </trkpt>
      <trkpt lat="42.404523000" lon="-2.433697000">
        <ele>465.20</ele>
        <time>2013-07-27T09:15:24Z</time>
      </trkpt>
      <trkpt lat="42.404522000" lon="-2.433655000">
        <ele>465.30</ele>
        <time>2013-07-27T09:15:25Z</time>
      </trkpt>
      <trkpt lat="42.404522000" lon="-2.433615000">
        <ele>465.40</ele>
        <time>2013-07-27T09:15:26Z</time>
      </trkpt>
      <trkpt lat="42.404524000" lon="-2.433577000">
        <ele>465.40</ele>
        <time>2013-07-27T09:15:27Z</time>
      </trkpt>
      <trkpt lat="42.404524000" lon="-2.433540000">
        <ele>465.50</ele>
        <time>2013-07-27T09:15:28Z</time>
      </trkpt>
      <trkpt lat="42.404525000" lon="-2.433499000">
        <ele>465.50</ele>
        <time>2013-07-27T09:15:29Z</time>
      </trkpt>
      <trkpt lat="42.404526000" lon="-2.433458000">
        <ele>465.50</ele>
        <time>2013-07-27T09:15:30Z</time>
      </trkpt>
      <trkpt lat="42.404528000" lon="-2.433418000">
        <ele>465.70</ele>
        <time>2013-07-27T09:15:31Z</time>
      </trkpt>
      <trkpt lat="42.404530000" lon="-2.433377000">
        <ele>465.80</ele>
        <time>2013-07-27T09:15:32Z</time>
      </trkpt>
      <trkpt lat="42.404534000" lon="-2.433337000">
        <ele>465.90</ele>
        <time>2013-07-27T09:15:33Z</time>
      </trkpt>
      <trkpt lat="42.404535000" lon="-2.433298000">
        <ele>466.00</ele>
        <time>2013-07-27T09:15:34Z</time>
      </trkpt>
      <trkpt lat="42.404538000" lon="-2.433259000">
        <ele>466.30</ele>
        <time>2013-07-27T09:15:35Z</time>
      </trkpt>
      <trkpt lat="42.404538000" lon="-2.433220000">
        <ele>466.50</ele>
        <time>2013-07-27T09:15:36Z</time>
      </trkpt>
      <trkpt lat="42.404541000" lon="-2.433178000">
        <ele>466.70</ele>
        <time>2013-07-27T09:15:37Z</time>
      </trkpt>
      <trkpt lat="42.404541000" lon="-2.433138000">
        <ele>466.80</ele>
        <time>2013-07-27T09:15:38Z</time>
      </trkpt>
      <trkpt lat="42.404542000" lon="-2.433096000">
        <ele>467.00</ele>
        <time>2013-07-27T09:15:39Z</time>
      </trkpt>
      <trkpt lat="42.404543000" lon="-2.433055000">
        <ele>467.10</ele>
        <time>2013-07-27T09:15:40Z</time>
      </trkpt>
      <trkpt lat="42.404546000" lon="-2.433011000">
        <ele>467.20</ele>
        <time>2013-07-27T09:15:41Z</time>
      </trkpt>
      <trkpt lat="42.404548000" lon="-2.432970000">
        <ele>467.30</ele>
        <time>2013-07-27T09:15:42Z</time>
      </trkpt>
      <trkpt lat="42.404548000" lon="-2.432927000">
        <ele>467.30</ele>
        <time>2013-07-27T09:15:43Z</time>
      </trkpt>
      <trkpt lat="42.404548000" lon="-2.432888000">
        <ele>467.40</ele>
        <time>2013-07-27T09:15:44Z</time>
      </trkpt>
      <trkpt lat="42.404552000" lon="-2.432847000">
        <ele>467.50</ele>
        <time>2013-07-27T09:15:45Z</time>
      </trkpt>
      <trkpt lat="42.404555000" lon="-2.432807000">
        <ele>467.60</ele>
        <time>2013-07-27T09:15:46Z</time>
      </trkpt>
      <trkpt lat="42.404558000" lon="-2.432767000">
        <ele>467.60</ele>
        <time>2013-07-27T09:15:47Z</time>
      </trkpt>
      <trkpt lat="42.404561000" lon="-2.432730000">
        <ele>467.60</ele>
        <time>2013-07-27T09:15:48Z</time>
      </trkpt>
      <trkpt lat="42.404566000" lon="-2.432693000">
        <ele>467.90</ele>
        <time>2013-07-27T09:15:49Z</time>
      </trkpt>
      <trkpt lat="42.404567000" lon="-2.432652000">
        <ele>468.10</ele>
        <time>2013-07-27T09:15:50Z</time>
      </trkpt>
      <trkpt lat="42.404568000" lon="-2.432610000">
        <ele>468.20</ele>
        <time>2013-07-27T09:15:51Z</time>
      </trkpt>
      <trkpt lat="42.404568000" lon="-2.432572000">
        <ele>468.30</ele>
        <time>2013-07-27T09:15:52Z</time>
      </trkpt>
      <trkpt lat="42.404566000" lon="-2.432534000">
        <ele>468.40</ele>
        <time>2013-07-27T09:15:53Z</time>
      </trkpt>
      <trkpt lat="42.404567000" lon="-2.432494000">
        <ele>468.40</ele>
        <time>2013-07-27T09:15:54Z</time>
      </trkpt>
      <trkpt lat="42.404571000" lon="-2.432455000">
        <ele>468.40</ele>
        <time>2013-07-27T09:15:55Z</time>
      </trkpt>
      <trkpt lat="42.404575000" lon="-2.432416000">
        <ele>468.50</ele>
        <time>2013-07-27T09:15:56Z</time>
      </trkpt>
      <trkpt lat="42.404579000" lon="-2.432378000">
        <ele>468.50</ele>
        <time>2013-07-27T09:15:57Z</time>
      </trkpt>
      <trkpt lat="42.404583000" lon="-2.432339000">
        <ele>468.60</ele>
        <time>2013-07-27T09:15:58Z</time>
      </trkpt>
      <trkpt lat="42.404586000" lon="-2.432299000">
        <ele>468.80</ele>
        <time>2013-07-27T09:15:59Z</time>
      </trkpt>
      <trkpt lat="42.404588000" lon="-2.432261000">
        <ele>468.90</ele>
        <time>2013-07-27T09:16:00Z</time>
      </trkpt>
      <trkpt lat="42.404589000" lon="-2.432223000">
        <ele>469.00</ele>
        <time>2013-07-27T09:16:01Z</time>
      </trkpt>
      <trkpt lat="42.404591000" lon="-2.432184000">
        <ele>469.10</ele>
        <time>2013-07-27T09:16:02Z</time>
      </trkpt>
      <trkpt lat="42.404597000" lon="-2.432145000">
        <ele>469.20</ele>
        <time>2013-07-27T09:16:03Z</time>
      </trkpt>
      <trkpt lat="42.404602000" lon="-2.432108000">
        <ele>469.20</ele>
        <time>2013-07-27T09:16:04Z</time>
      </trkpt>
      <trkpt lat="42.404604000" lon="-2.432070000">
        <ele>469.40</ele>
        <time>2013-07-27T09:16:05Z</time>
      </trkpt>
      <trkpt lat="42.404605000" lon="-2.432033000">
        <ele>469.50</ele>
        <time>2013-07-27T09:16:06Z</time>
      </trkpt>
      <trkpt lat="42.404608000" lon="-2.431997000">
        <ele>469.70</ele>
        <time>2013-07-27T09:16:07Z</time>
      </trkpt>
      <trkpt lat="42.404610000" lon="-2.431960000">
        <ele>469.90</ele>
        <time>2013-07-27T09:16:08Z</time>
      </trkpt>
      <trkpt lat="42.404611000" lon="-2.431923000">
        <ele>470.20</ele>
        <time>2013-07-27T09:16:09Z</time>
      </trkpt>
      <trkpt lat="42.404611000" lon="-2.431887000">
        <ele>470.40</ele>
        <time>2013-07-27T09:16:10Z</time>
      </trkpt>
      <trkpt lat="42.404613000" lon="-2.431854000">
        <ele>470.60</ele>
        <time>2013-07-27T09:16:11Z</time>
      </trkpt>
      <trkpt lat="42.404618000" lon="-2.431821000">
        <ele>470.80</ele>
        <time>2013-07-27T09:16:12Z</time>
      </trkpt>
      <trkpt lat="42.404624000" lon="-2.431786000">
        <ele>470.90</ele>
        <time>2013-07-27T09:16:13Z</time>
      </trkpt>
      <trkpt lat="42.404627000" lon="-2.431753000">
        <ele>470.90</ele>
        <time>2013-07-27T09:16:14Z</time>
      </trkpt>
      <trkpt lat="42.404631000" lon="-2.431718000">
        <ele>471.10</ele>
        <time>2013-07-27T09:16:15Z</time>
      </trkpt>
      <trkpt lat="42.404634000" lon="-2.431680000">
        <ele>471.10</ele>
        <time>2013-07-27T09:16:16Z</time>
      </trkpt>
      <trkpt lat="42.404634000" lon="-2.431643000">
        <ele>471.50</ele>
        <time>2013-07-27T09:16:17Z</time>
      </trkpt>
      <trkpt lat="42.404635000" lon="-2.431607000">
        <ele>471.70</ele>
        <time>2013-07-27T09:16:18Z</time>
      </trkpt>
      <trkpt lat="42.404638000" lon="-2.431572000">
        <ele>471.90</ele>
        <time>2013-07-27T09:16:19Z</time>
      </trkpt>
      <trkpt lat="42.404642000" lon="-2.431537000">
        <ele>472.10</ele>
        <time>2013-07-27T09:16:20Z</time>
      </trkpt>
      <trkpt lat="42.404646000" lon="-2.431500000">
        <ele>472.20</ele>
        <time>2013-07-27T09:16:21Z</time>
      </trkpt>
      <trkpt lat="42.404649000" lon="-2.431465000">
        <ele>472.20</ele>
        <time>2013-07-27T09:16:22Z</time>
      </trkpt>
      <trkpt lat="42.404653000" lon="-2.431431000">
        <ele>472.50</ele>
        <time>2013-07-27T09:16:23Z</time>
      </trkpt>
      <trkpt lat="42.404656000" lon="-2.431399000">
        <ele>472.70</ele>
        <time>2013-07-27T09:16:24Z</time>
      </trkpt>
      <trkpt lat="42.404657000" lon="-2.431367000">
        <ele>473.10</ele>
        <time>2013-07-27T09:16:25Z</time>
      </trkpt>
      <trkpt lat="42.404661000" lon="-2.431335000">
        <ele>473.30</ele>
        <time>2013-07-27T09:16:26Z</time>
      </trkpt>
      <trkpt lat="42.404664000" lon="-2.431302000">
        <ele>473.70</ele>
        <time>2013-07-27T09:16:27Z</time>
      </trkpt>
      <trkpt lat="42.404668000" lon="-2.431269000">
        <ele>473.90</ele>
        <time>2013-07-27T09:16:28Z</time>
      </trkpt>
      <trkpt lat="42.404676000" lon="-2.431234000">
        <ele>474.20</ele>
        <time>2013-07-27T09:16:29Z</time>
      </trkpt>
      <trkpt lat="42.404682000" lon="-2.431201000">
        <ele>474.50</ele>
        <time>2013-07-27T09:16:30Z</time>
      </trkpt>
      <trkpt lat="42.404686000" lon="-2.431168000">
        <ele>474.80</ele>
        <time>2013-07-27T09:16:31Z</time>
      </trkpt>
      <trkpt lat="42.404692000" lon="-2.431134000">
        <ele>475.00</ele>
        <time>2013-07-27T09:16:32Z</time>
      </trkpt>
      <trkpt lat="42.404702000" lon="-2.431098000">
        <ele>475.20</ele>
        <time>2013-07-27T09:16:33Z</time>
      </trkpt>
      <trkpt lat="42.404709000" lon="-2.431068000">
        <ele>475.30</ele>
        <time>2013-07-27T09:16:34Z</time>
      </trkpt>
      <trkpt lat="42.404716000" lon="-2.431033000">
        <ele>475.40</ele>
        <time>2013-07-27T09:16:35Z</time>
      </trkpt>
      <trkpt lat="42.404720000" lon="-2.430994000">
        <ele>475.50</ele>
        <time>2013-07-27T09:16:36Z</time>
      </trkpt>
      <trkpt lat="42.404727000" lon="-2.430957000">
        <ele>476.00</ele>
        <time>2013-07-27T09:16:37Z</time>
      </trkpt>
      <trkpt lat="42.404735000" lon="-2.430919000">
        <ele>476.40</ele>
        <time>2013-07-27T09:16:38Z</time>
      </trkpt>
      <trkpt lat="42.404744000" lon="-2.430886000">
        <ele>476.50</ele>
        <time>2013-07-27T09:16:39Z</time>
      </trkpt>
      <trkpt lat="42.404754000" lon="-2.430851000">
        <ele>476.60</ele>
        <time>2013-07-27T09:16:40Z</time>
      </trkpt>
      <trkpt lat="42.404765000" lon="-2.430820000">
        <ele>476.70</ele>
        <time>2013-07-27T09:16:41Z</time>
      </trkpt>
      <trkpt lat="42.404775000" lon="-2.430788000">
        <ele>476.80</ele>
        <time>2013-07-27T09:16:42Z</time>
      </trkpt>
      <trkpt lat="42.404784000" lon="-2.430755000">
        <ele>476.80</ele>
        <time>2013-07-27T09:16:43Z</time>
      </trkpt>
      <trkpt lat="42.404790000" lon="-2.430719000">
        <ele>476.80</ele>
        <time>2013-07-27T09:16:44Z</time>
      </trkpt>
      <trkpt lat="42.404794000" lon="-2.430684000">
        <ele>476.70</ele>
        <time>2013-07-27T09:16:45Z</time>
      </trkpt>
      <trkpt lat="42.404798000" lon="-2.430647000">
        <ele>476.70</ele>
        <time>2013-07-27T09:16:46Z</time>
      </trkpt>
      <trkpt lat="42.404802000" lon="-2.430612000">
        <ele>476.70</ele>
        <time>2013-07-27T09:16:47Z</time>
      </trkpt>
      <trkpt lat="42.404806000" lon="-2.430577000">
        <ele>476.80</ele>
        <time>2013-07-27T09:16:48Z</time>
      </trkpt>
      <trkpt lat="42.404810000" lon="-2.430545000">
        <ele>476.80</ele>
        <time>2013-07-27T09:16:49Z</time>
      </trkpt>
      <trkpt lat="42.404813000" lon="-2.430508000">
        <ele>476.90</ele>
        <time>2013-07-27T09:16:50Z</time>
      </trkpt>
      <trkpt lat="42.404816000" lon="-2.430470000">
        <ele>476.90</ele>
        <time>2013-07-27T09:16:51Z</time>
      </trkpt>
      <trkpt lat="42.404821000" lon="-2.430432000">
        <ele>477.00</ele>
        <time>2013-07-27T09:16:52Z</time>
      </trkpt>
      <trkpt lat="42.404825000" lon="-2.430394000">
        <ele>477.30</ele>
        <time>2013-07-27T09:16:53Z</time>
      </trkpt>
      <trkpt lat="42.404828000" lon="-2.430355000">
        <ele>477.40</ele>
        <time>2013-07-27T09:16:54Z</time>
      </trkpt>
      <trkpt lat="42.404834000" lon="-2.430318000">
        <ele>477.60</ele>
        <time>2013-07-27T09:16:55Z</time>
      </trkpt>
      <trkpt lat="42.404837000" lon="-2.430278000">
        <ele>477.70</ele>
        <time>2013-07-27T09:16:56Z</time>
      </trkpt>
      <trkpt lat="42.404840000" lon="-2.430240000">
        <ele>477.80</ele>
        <time>2013-07-27T09:16:57Z</time>
      </trkpt>
      <trkpt lat="42.404842000" lon="-2.430205000">
        <ele>477.80</ele>
        <time>2013-07-27T09:16:58Z</time>
      </trkpt>
      <trkpt lat="42.404843000" lon="-2.430169000">
        <ele>478.10</ele>
        <time>2013-07-27T09:16:59Z</time>
      </trkpt>
      <trkpt lat="42.404847000" lon="-2.430135000">
        <ele>478.40</ele>
        <time>2013-07-27T09:17:00Z</time>
      </trkpt>
      <trkpt lat="42.404850000" lon="-2.430099000">
        <ele>478.50</ele>
        <time>2013-07-27T09:17:01Z</time>
      </trkpt>
      <trkpt lat="42.404853000" lon="-2.430063000">
        <ele>478.70</ele>
        <time>2013-07-27T09:17:02Z</time>
      </trkpt>
      <trkpt lat="42.404855000" lon="-2.430024000">
        <ele>478.70</ele>
        <time>2013-07-27T09:17:03Z</time>
      </trkpt>
      <trkpt lat="42.404857000" lon="-2.429987000">
        <ele>478.70</ele>
        <time>2013-07-27T09:17:04Z</time>
      </trkpt>
      <trkpt lat="42.404860000" lon="-2.429950000">
        <ele>478.70</ele>
        <time>2013-07-27T09:17:05Z</time>
      </trkpt>
      <trkpt lat="42.404862000" lon="-2.429914000">
        <ele>478.70</ele>
        <time>2013-07-27T09:17:06Z</time>
      </trkpt>
      <trkpt lat="42.404863000" lon="-2.429877000">
        <ele>478.80</ele>
        <time>2013-07-27T09:17:07Z</time>
      </trkpt>
      <trkpt lat="42.404861000" lon="-2.429842000">
        <ele>478.80</ele>
        <time>2013-07-27T09:17:08Z</time>
      </trkpt>
      <trkpt lat="42.404859000" lon="-2.429798000">
        <ele>479.00</ele>
        <time>2013-07-27T09:17:09Z</time>
      </trkpt>
      <trkpt lat="42.404857000" lon="-2.429757000">
        <ele>479.20</ele>
        <time>2013-07-27T09:17:10Z</time>
      </trkpt>
      <trkpt lat="42.404853000" lon="-2.429718000">
        <ele>479.40</ele>
        <time>2013-07-27T09:17:11Z</time>
      </trkpt>
      <trkpt lat="42.404847000" lon="-2.429679000">
        <ele>479.60</ele>
        <time>2013-07-27T09:17:12Z</time>
      </trkpt>
      <trkpt lat="42.404839000" lon="-2.429642000">
        <ele>479.70</ele>
        <time>2013-07-27T09:17:13Z</time>
      </trkpt>
      <trkpt lat="42.404829000" lon="-2.429606000">
        <ele>479.80</ele>
        <time>2013-07-27T09:17:14Z</time>
      </trkpt>
      <trkpt lat="42.404821000" lon="-2.429573000">
        <ele>479.80</ele>
        <time>2013-07-27T09:17:15Z</time>
      </trkpt>
      <trkpt lat="42.404813000" lon="-2.429538000">
        <ele>479.80</ele>
        <time>2013-07-27T09:17:16Z</time>
      </trkpt>
      <trkpt lat="42.404802000" lon="-2.429504000">
        <ele>479.80</ele>
        <time>2013-07-27T09:17:17Z</time>
      </trkpt>
      <trkpt lat="42.404793000" lon="-2.429469000">
        <ele>479.80</ele>
        <time>2013-07-27T09:17:18Z</time>
      </trkpt>
      <trkpt lat="42.404781000" lon="-2.429437000">
        <ele>480.00</ele>
        <time>2013-07-27T09:17:19Z</time>
      </trkpt>
      <trkpt lat="42.404772000" lon="-2.429403000">
        <ele>480.10</ele>
        <time>2013-07-27T09:17:20Z</time>
      </trkpt>
      <trkpt lat="42.404764000" lon="-2.429370000">
        <ele>480.30</ele>
        <time>2013-07-27T09:17:21Z</time>
      </trkpt>
      <trkpt lat="42.404756000" lon="-2.429337000">
        <ele>480.50</ele>
        <time>2013-07-27T09:17:22Z</time>
      </trkpt>
      <trkpt lat="42.404745000" lon="-2.429307000">
        <ele>480.60</ele>
        <time>2013-07-27T09:17:23Z</time>
      </trkpt>
      <trkpt lat="42.404738000" lon="-2.429276000">
        <ele>480.70</ele>
        <time>2013-07-27T09:17:24Z</time>
      </trkpt>
      <trkpt lat="42.404730000" lon="-2.429243000">
        <ele>481.00</ele>
        <time>2013-07-27T09:17:25Z</time>
      </trkpt>
      <trkpt lat="42.404723000" lon="-2.429210000">
        <ele>481.20</ele>
        <time>2013-07-27T09:17:26Z</time>
      </trkpt>
      <trkpt lat="42.404719000" lon="-2.429175000">
        <ele>481.60</ele>
        <time>2013-07-27T09:17:27Z</time>
      </trkpt>
      <trkpt lat="42.404714000" lon="-2.429140000">
        <ele>481.90</ele>
        <time>2013-07-27T09:17:28Z</time>
      </trkpt>
      <trkpt lat="42.404706000" lon="-2.429105000">
        <ele>482.10</ele>
        <time>2013-07-27T09:17:29Z</time>
      </trkpt>
      <trkpt lat="42.404699000" lon="-2.429071000">
        <ele>482.30</ele>
        <time>2013-07-27T09:17:30Z</time>
      </trkpt>
      <trkpt lat="42.404696000" lon="-2.429038000">
        <ele>482.40</ele>
        <time>2013-07-27T09:17:31Z</time>
      </trkpt>
      <trkpt lat="42.404690000" lon="-2.429006000">
        <ele>482.50</ele>
        <time>2013-07-27T09:17:32Z</time>
      </trkpt>
      <trkpt lat="42.404681000" lon="-2.428973000">
        <ele>482.70</ele>
        <time>2013-07-27T09:17:33Z</time>
      </trkpt>
      <trkpt lat="42.404671000" lon="-2.428941000">
        <ele>482.90</ele>
        <time>2013-07-27T09:17:34Z</time>
      </trkpt>
      <trkpt lat="42.404664000" lon="-2.428908000">
        <ele>483.10</ele>
        <time>2013-07-27T09:17:35Z</time>
      </trkpt>
      <trkpt lat="42.404657000" lon="-2.428876000">
        <ele>483.30</ele>
        <time>2013-07-27T09:17:36Z</time>
      </trkpt>
      <trkpt lat="42.404650000" lon="-2.428842000">
        <ele>483.40</ele>
        <time>2013-07-27T09:17:37Z</time>
      </trkpt>
      <trkpt lat="42.404643000" lon="-2.428813000">
        <ele>483.60</ele>
        <time>2013-07-27T09:17:38Z</time>
      </trkpt>
      <trkpt lat="42.404638000" lon="-2.428787000">
        <ele>483.60</ele>
        <time>2013-07-27T09:17:39Z</time>
      </trkpt>
      <trkpt lat="42.404634000" lon="-2.428757000">
        <ele>483.70</ele>
        <time>2013-07-27T09:17:40Z</time>
      </trkpt>
      <trkpt lat="42.404631000" lon="-2.428729000">
        <ele>483.70</ele>
        <time>2013-07-27T09:17:41Z</time>
      </trkpt>
      <trkpt lat="42.404624000" lon="-2.428698000">
        <ele>483.80</ele>
        <time>2013-07-27T09:17:42Z</time>
      </trkpt>
      <trkpt lat="42.404613000" lon="-2.428665000">
        <ele>484.00</ele>
        <time>2013-07-27T09:17:43Z</time>
      </trkpt>
      <trkpt lat="42.404603000" lon="-2.428632000">
        <ele>484.20</ele>
        <time>2013-07-27T09:17:44Z</time>
      </trkpt>
      <trkpt lat="42.404594000" lon="-2.428597000">
        <ele>484.50</ele>
        <time>2013-07-27T09:17:45Z</time>
      </trkpt>
      <trkpt lat="42.404588000" lon="-2.428561000">
        <ele>484.70</ele>
        <time>2013-07-27T09:17:46Z</time>
      </trkpt>
      <trkpt lat="42.404582000" lon="-2.428524000">
        <ele>484.90</ele>
        <time>2013-07-27T09:17:47Z</time>
      </trkpt>
      <trkpt lat="42.404573000" lon="-2.428489000">
        <ele>485.00</ele>
        <time>2013-07-27T09:17:48Z</time>
      </trkpt>
      <trkpt lat="42.404567000" lon="-2.428454000">
        <ele>485.30</ele>
        <time>2013-07-27T09:17:49Z</time>
      </trkpt>
      <trkpt lat="42.404562000" lon="-2.428421000">
        <ele>485.50</ele>
        <time>2013-07-27T09:17:50Z</time>
      </trkpt>
      <trkpt lat="42.404558000" lon="-2.428387000">
        <ele>485.90</ele>
        <time>2013-07-27T09:17:51Z</time>
      </trkpt>
      <trkpt lat="42.404552000" lon="-2.428355000">
        <ele>486.10</ele>
        <time>2013-07-27T09:17:52Z</time>
      </trkpt>
      <trkpt lat="42.404547000" lon="-2.428320000">
        <ele>486.50</ele>
        <time>2013-07-27T09:17:53Z</time>
      </trkpt>
      <trkpt lat="42.404539000" lon="-2.428291000">
        <ele>486.80</ele>
        <time>2013-07-27T09:17:54Z</time>
      </trkpt>
      <trkpt lat="42.404526000" lon="-2.428259000">
        <ele>487.10</ele>
        <time>2013-07-27T09:17:55Z</time>
      </trkpt>
      <trkpt lat="42.404520000" lon="-2.428226000">
        <ele>487.30</ele>
        <time>2013-07-27T09:17:56Z</time>
      </trkpt>
      <trkpt lat="42.404516000" lon="-2.428193000">
        <ele>487.60</ele>
        <time>2013-07-27T09:17:57Z</time>
      </trkpt>
      <trkpt lat="42.404510000" lon="-2.428162000">
        <ele>487.80</ele>
        <time>2013-07-27T09:17:58Z</time>
      </trkpt>
      <trkpt lat="42.404505000" lon="-2.428127000">
        <ele>488.00</ele>
        <time>2013-07-27T09:17:59Z</time>
      </trkpt>
      <trkpt lat="42.404502000" lon="-2.428090000">
        <ele>488.20</ele>
        <time>2013-07-27T09:18:00Z</time>
      </trkpt>
      <trkpt lat="42.404494000" lon="-2.428058000">
        <ele>488.50</ele>
        <time>2013-07-27T09:18:01Z</time>
      </trkpt>
      <trkpt lat="42.404486000" lon="-2.428030000">
        <ele>488.70</ele>
        <time>2013-07-27T09:18:02Z</time>
      </trkpt>
      <trkpt lat="42.404481000" lon="-2.428001000">
        <ele>488.90</ele>
        <time>2013-07-27T09:18:03Z</time>
      </trkpt>
      <trkpt lat="42.404476000" lon="-2.427970000">
        <ele>489.00</ele>
        <time>2013-07-27T09:18:04Z</time>
      </trkpt>
      <trkpt lat="42.404470000" lon="-2.427938000">
        <ele>489.10</ele>
        <time>2013-07-27T09:18:05Z</time>
      </trkpt>
      <trkpt lat="42.404465000" lon="-2.427906000">
        <ele>489.20</ele>
        <time>2013-07-27T09:18:06Z</time>
      </trkpt>
      <trkpt lat="42.404458000" lon="-2.427873000">
        <ele>489.40</ele>
        <time>2013-07-27T09:18:07Z</time>
      </trkpt>
      <trkpt lat="42.404450000" lon="-2.427841000">
        <ele>489.50</ele>
        <time>2013-07-27T09:18:08Z</time>
      </trkpt>
      <trkpt lat="42.404441000" lon="-2.427809000">
        <ele>489.60</ele>
        <time>2013-07-27T09:18:09Z</time>
      </trkpt>
      <trkpt lat="42.404434000" lon="-2.427775000">
        <ele>489.70</ele>
        <time>2013-07-27T09:18:10Z</time>
      </trkpt>
      <trkpt lat="42.404426000" lon="-2.427741000">
        <ele>489.80</ele>
        <time>2013-07-27T09:18:11Z</time>
      </trkpt>
      <trkpt lat="42.404422000" lon="-2.427705000">
        <ele>490.00</ele>
        <time>2013-07-27T09:18:12Z</time>
      </trkpt>
      <trkpt lat="42.404418000" lon="-2.427670000">
        <ele>490.10</ele>
        <time>2013-07-27T09:18:13Z</time>
      </trkpt>
      <trkpt lat="42.404410000" lon="-2.427636000">
        <ele>490.10</ele>
        <time>2013-07-27T09:18:14Z</time>
      </trkpt>
      <trkpt lat="42.404401000" lon="-2.427605000">
        <ele>490.30</ele>
        <time>2013-07-27T09:18:15Z</time>
      </trkpt>
      <trkpt lat="42.404392000" lon="-2.427568000">
        <ele>490.30</ele>
        <time>2013-07-27T09:18:16Z</time>
      </trkpt>
      <trkpt lat="42.404389000" lon="-2.427532000">
        <ele>490.70</ele>
        <time>2013-07-27T09:18:17Z</time>
      </trkpt>
      <trkpt lat="42.404381000" lon="-2.427495000">
        <ele>491.00</ele>
        <time>2013-07-27T09:18:18Z</time>
      </trkpt>
      <trkpt lat="42.404374000" lon="-2.427459000">
        <ele>491.30</ele>
        <time>2013-07-27T09:18:19Z</time>
      </trkpt>
      <trkpt lat="42.404367000" lon="-2.427424000">
        <ele>491.40</ele>
        <time>2013-07-27T09:18:20Z</time>
      </trkpt>
      <trkpt lat="42.404361000" lon="-2.427384000">
        <ele>491.60</ele>
        <time>2013-07-27T09:18:21Z</time>
      </trkpt>
      <trkpt lat="42.404352000" lon="-2.427347000">
        <ele>491.60</ele>
        <time>2013-07-27T09:18:22Z</time>
      </trkpt>
      <trkpt lat="42.404343000" lon="-2.427312000">
        <ele>491.80</ele>
        <time>2013-07-27T09:18:23Z</time>
      </trkpt>
      <trkpt lat="42.404337000" lon="-2.427278000">
        <ele>492.00</ele>
        <time>2013-07-27T09:18:24Z</time>
      </trkpt>
      <trkpt lat="42.404332000" lon="-2.427243000">
        <ele>492.00</ele>
        <time>2013-07-27T09:18:25Z</time>
      </trkpt>
      <trkpt lat="42.404328000" lon="-2.427205000">
        <ele>492.10</ele>
        <time>2013-07-27T09:18:26Z</time>
      </trkpt>
      <trkpt lat="42.404322000" lon="-2.427170000">
        <ele>492.20</ele>
        <time>2013-07-27T09:18:27Z</time>
      </trkpt>
      <trkpt lat="42.404317000" lon="-2.427135000">
        <ele>492.20</ele>
        <time>2013-07-27T09:18:28Z</time>
      </trkpt>
      <trkpt lat="42.404310000" lon="-2.427098000">
        <ele>492.60</ele>
        <time>2013-07-27T09:18:29Z</time>
      </trkpt>
      <trkpt lat="42.404302000" lon="-2.427061000">
        <ele>492.80</ele>
        <time>2013-07-27T09:18:30Z</time>
      </trkpt>
      <trkpt lat="42.404291000" lon="-2.427026000">
        <ele>493.00</ele>
        <time>2013-07-27T09:18:31Z</time>
      </trkpt>
      <trkpt lat="42.404286000" lon="-2.426990000">
        <ele>493.10</ele>
        <time>2013-07-27T09:18:32Z</time>
      </trkpt>
      <trkpt lat="42.404277000" lon="-2.426954000">
        <ele>493.20</ele>
        <time>2013-07-27T09:18:33Z</time>
      </trkpt>
      <trkpt lat="42.404272000" lon="-2.426918000">
        <ele>493.30</ele>
        <time>2013-07-27T09:18:34Z</time>
      </trkpt>
      <trkpt lat="42.404264000" lon="-2.426882000">
        <ele>493.60</ele>
        <time>2013-07-27T09:18:35Z</time>
      </trkpt>
      <trkpt lat="42.404261000" lon="-2.426847000">
        <ele>493.80</ele>
        <time>2013-07-27T09:18:36Z</time>
      </trkpt>
      <trkpt lat="42.404254000" lon="-2.426809000">
        <ele>493.90</ele>
        <time>2013-07-27T09:18:37Z</time>
      </trkpt>
      <trkpt lat="42.404244000" lon="-2.426772000">
        <ele>494.00</ele>
        <time>2013-07-27T09:18:38Z</time>
      </trkpt>
      <trkpt lat="42.404234000" lon="-2.426736000">
        <ele>494.20</ele>
        <time>2013-07-27T09:18:39Z</time>
      </trkpt>
      <trkpt lat="42.404231000" lon="-2.426698000">
        <ele>494.30</ele>
        <time>2013-07-27T09:18:40Z</time>
      </trkpt>
      <trkpt lat="42.404227000" lon="-2.426662000">
        <ele>494.50</ele>
        <time>2013-07-27T09:18:41Z</time>
      </trkpt>
      <trkpt lat="42.404219000" lon="-2.426625000">
        <ele>494.70</ele>
        <time>2013-07-27T09:18:42Z</time>
      </trkpt>
      <trkpt lat="42.404209000" lon="-2.426589000">
        <ele>494.80</ele>
        <time>2013-07-27T09:18:43Z</time>
      </trkpt>
      <trkpt lat="42.404196000" lon="-2.426555000">
        <ele>494.90</ele>
        <time>2013-07-27T09:18:44Z</time>
      </trkpt>
      <trkpt lat="42.404180000" lon="-2.426523000">
        <ele>495.00</ele>
        <time>2013-07-27T09:18:45Z</time>
      </trkpt>
      <trkpt lat="42.404162000" lon="-2.426494000">
        <ele>495.00</ele>
        <time>2013-07-27T09:18:46Z</time>
      </trkpt>
      <trkpt lat="42.404142000" lon="-2.426467000">
        <ele>495.10</ele>
        <time>2013-07-27T09:18:47Z</time>
      </trkpt>
      <trkpt lat="42.404119000" lon="-2.426447000">
        <ele>495.20</ele>
        <time>2013-07-27T09:18:48Z</time>
      </trkpt>
      <trkpt lat="42.404098000" lon="-2.426424000">
        <ele>496.10</ele>
        <time>2013-07-27T09:18:49Z</time>
      </trkpt>
      <trkpt lat="42.404078000" lon="-2.426400000">
        <ele>496.80</ele>
        <time>2013-07-27T09:18:50Z</time>
      </trkpt>
      <trkpt lat="42.404058000" lon="-2.426377000">
        <ele>497.30</ele>
        <time>2013-07-27T09:18:51Z</time>
      </trkpt>
      <trkpt lat="42.404040000" lon="-2.426354000">
        <ele>497.70</ele>
        <time>2013-07-27T09:18:52Z</time>
      </trkpt>
      <trkpt lat="42.404021000" lon="-2.426328000">
        <ele>497.90</ele>
        <time>2013-07-27T09:18:53Z</time>
      </trkpt>
      <trkpt lat="42.404000000" lon="-2.426301000">
        <ele>498.00</ele>
        <time>2013-07-27T09:18:54Z</time>
      </trkpt>
      <trkpt lat="42.403981000" lon="-2.426273000">
        <ele>498.00</ele>
        <time>2013-07-27T09:18:55Z</time>
      </trkpt>
      <trkpt lat="42.403963000" lon="-2.426249000">
        <ele>497.90</ele>
        <time>2013-07-27T09:18:56Z</time>
      </trkpt>
      <trkpt lat="42.403944000" lon="-2.426226000">
        <ele>497.90</ele>
        <time>2013-07-27T09:18:57Z</time>
      </trkpt>
      <trkpt lat="42.403923000" lon="-2.426206000">
        <ele>497.90</ele>
        <time>2013-07-27T09:18:58Z</time>
      </trkpt>
      <trkpt lat="42.403901000" lon="-2.426188000">
        <ele>497.60</ele>
        <time>2013-07-27T09:18:59Z</time>
      </trkpt>
      <trkpt lat="42.403884000" lon="-2.426169000">
        <ele>497.40</ele>
        <time>2013-07-27T09:19:00Z</time>
      </trkpt>
      <trkpt lat="42.403870000" lon="-2.426146000">
        <ele>497.70</ele>
        <time>2013-07-27T09:19:01Z</time>
      </trkpt>
      <trkpt lat="42.403853000" lon="-2.426123000">
        <ele>497.90</ele>
        <time>2013-07-27T09:19:02Z</time>
      </trkpt>
      <trkpt lat="42.403834000" lon="-2.426097000">
        <ele>497.30</ele>
        <time>2013-07-27T09:19:03Z</time>
      </trkpt>
      <trkpt lat="42.403817000" lon="-2.426072000">
        <ele>497.00</ele>
        <time>2013-07-27T09:19:04Z</time>
      </trkpt>
      <trkpt lat="42.403798000" lon="-2.426049000">
        <ele>496.50</ele>
        <time>2013-07-27T09:19:05Z</time>
      </trkpt>
      <trkpt lat="42.403777000" lon="-2.426025000">
        <ele>496.10</ele>
        <time>2013-07-27T09:19:06Z</time>
      </trkpt>
      <trkpt lat="42.403759000" lon="-2.426001000">
        <ele>495.80</ele>
        <time>2013-07-27T09:19:07Z</time>
      </trkpt>
      <trkpt lat="42.403742000" lon="-2.425977000">
        <ele>495.60</ele>
        <time>2013-07-27T09:19:08Z</time>
      </trkpt>
      <trkpt lat="42.403723000" lon="-2.425956000">
        <ele>496.30</ele>
        <time>2013-07-27T09:19:09Z</time>
      </trkpt>
      <trkpt lat="42.403710000" lon="-2.425931000">
        <ele>496.80</ele>
        <time>2013-07-27T09:19:10Z</time>
      </trkpt>
      <trkpt lat="42.403694000" lon="-2.425910000">
        <ele>497.30</ele>
        <time>2013-07-27T09:19:11Z</time>
      </trkpt>
      <trkpt lat="42.403675000" lon="-2.425889000">
        <ele>497.70</ele>
        <time>2013-07-27T09:19:12Z</time>
      </trkpt>
      <trkpt lat="42.403657000" lon="-2.425868000">
        <ele>498.30</ele>
        <time>2013-07-27T09:19:13Z</time>
      </trkpt>
      <trkpt lat="42.403637000" lon="-2.425842000">
        <ele>498.80</ele>
        <time>2013-07-27T09:19:14Z</time>
      </trkpt>
      <trkpt lat="42.403614000" lon="-2.425816000">
        <ele>499.10</ele>
        <time>2013-07-27T09:19:15Z</time>
      </trkpt>
      <trkpt lat="42.403590000" lon="-2.425790000">
        <ele>499.30</ele>
        <time>2013-07-27T09:19:16Z</time>
      </trkpt>
      <trkpt lat="42.403573000" lon="-2.425757000">
        <ele>499.30</ele>
        <time>2013-07-27T09:19:17Z</time>
      </trkpt>
      <trkpt lat="42.403554000" lon="-2.425719000">
        <ele>499.30</ele>
        <time>2013-07-27T09:19:18Z</time>
      </trkpt>
      <trkpt lat="42.403536000" lon="-2.425685000">
        <ele>499.10</ele>
        <time>2013-07-27T09:19:19Z</time>
      </trkpt>
      <trkpt lat="42.403516000" lon="-2.425654000">
        <ele>499.00</ele>
        <time>2013-07-27T09:19:20Z</time>
      </trkpt>
      <trkpt lat="42.403497000" lon="-2.425621000">
        <ele>498.90</ele>
        <time>2013-07-27T09:19:21Z</time>
      </trkpt>
      <trkpt lat="42.403482000" lon="-2.425585000">
        <ele>498.80</ele>
        <time>2013-07-27T09:19:22Z</time>
      </trkpt>
      <trkpt lat="42.403467000" lon="-2.425552000">
        <ele>498.90</ele>
        <time>2013-07-27T09:19:23Z</time>
      </trkpt>
      <trkpt lat="42.403452000" lon="-2.425517000">
        <ele>499.00</ele>
        <time>2013-07-27T09:19:24Z</time>
      </trkpt>
      <trkpt lat="42.403432000" lon="-2.425484000">
        <ele>499.10</ele>
        <time>2013-07-27T09:19:25Z</time>
      </trkpt>
      <trkpt lat="42.403405000" lon="-2.425454000">
        <ele>499.10</ele>
        <time>2013-07-27T09:19:26Z</time>
      </trkpt>
      <trkpt lat="42.403374000" lon="-2.425429000">
        <ele>498.80</ele>
        <time>2013-07-27T09:19:27Z</time>
      </trkpt>
      <trkpt lat="42.403339000" lon="-2.425411000">
        <ele>498.60</ele>
        <time>2013-07-27T09:19:28Z</time>
      </trkpt>
      <trkpt lat="42.403310000" lon="-2.425392000">
        <ele>498.50</ele>
        <time>2013-07-27T09:19:29Z</time>
      </trkpt>
      <trkpt lat="42.403280000" lon="-2.425371000">
        <ele>498.30</ele>
        <time>2013-07-27T09:19:30Z</time>
      </trkpt>
      <trkpt lat="42.403251000" lon="-2.425353000">
        <ele>498.50</ele>
        <time>2013-07-27T09:19:31Z</time>
      </trkpt>
      <trkpt lat="42.403222000" lon="-2.425337000">
        <ele>498.50</ele>
        <time>2013-07-27T09:19:32Z</time>
      </trkpt>
      <trkpt lat="42.403198000" lon="-2.425320000">
        <ele>498.60</ele>
        <time>2013-07-27T09:19:33Z</time>
      </trkpt>
      <trkpt lat="42.403177000" lon="-2.425306000">
        <ele>498.60</ele>
        <time>2013-07-27T09:19:34Z</time>
      </trkpt>
      <trkpt lat="42.403157000" lon="-2.425296000">
        <ele>498.50</ele>
        <time>2013-07-27T09:19:35Z</time>
      </trkpt>
      <trkpt lat="42.403139000" lon="-2.425288000">
        <ele>498.50</ele>
        <time>2013-07-27T09:19:36Z</time>
      </trkpt>
      <trkpt lat="42.403124000" lon="-2.425276000">
        <ele>498.30</ele>
        <time>2013-07-27T09:19:37Z</time>
      </trkpt>
      <trkpt lat="42.403122000" lon="-2.425273000">
        <ele>498.30</ele>
        <time>2013-07-27T09:19:38Z</time>
      </trkpt>
      <trkpt lat="42.403119000" lon="-2.425272000">
        <ele>498.20</ele>
        <time>2013-07-27T09:19:39Z</time>
      </trkpt>
      <trkpt lat="42.403121000" lon="-2.425271000">
        <ele>498.10</ele>
        <time>2013-07-27T09:19:40Z</time>
      </trkpt>
      <trkpt lat="42.403122000" lon="-2.425273000">
        <ele>498.00</ele>
        <time>2013-07-27T09:19:41Z</time>
      </trkpt>
      <trkpt lat="42.403119000" lon="-2.425277000">
        <ele>498.00</ele>
        <time>2013-07-27T09:19:42Z</time>
      </trkpt>
      <trkpt lat="42.403116000" lon="-2.425278000">
        <ele>497.90</ele>
        <time>2013-07-27T09:19:43Z</time>
      </trkpt>
      <trkpt lat="42.403117000" lon="-2.425278000">
        <ele>497.90</ele>
        <time>2013-07-27T09:19:44Z</time>
      </trkpt>
      <trkpt lat="42.403116000" lon="-2.425282000">
        <ele>498.00</ele>
        <time>2013-07-27T09:19:45Z</time>
      </trkpt>
      <trkpt lat="42.403115000" lon="-2.425281000">
        <ele>498.10</ele>
        <time>2013-07-27T09:19:46Z</time>
      </trkpt>
      <trkpt lat="42.403114000" lon="-2.425281000">
        <ele>498.20</ele>
        <time>2013-07-27T09:19:47Z</time>
      </trkpt>
      <trkpt lat="42.403111000" lon="-2.425283000">
        <ele>498.30</ele>
        <time>2013-07-27T09:19:48Z</time>
      </trkpt>
      <trkpt lat="42.403110000" lon="-2.425285000">
        <ele>498.60</ele>
        <time>2013-07-27T09:19:49Z</time>
      </trkpt>
      <trkpt lat="42.403111000" lon="-2.425287000">
        <ele>498.70</ele>
        <time>2013-07-27T09:19:50Z</time>
      </trkpt>
      <trkpt lat="42.403112000" lon="-2.425289000">
        <ele>498.70</ele>
        <time>2013-07-27T09:19:51Z</time>
      </trkpt>
      <trkpt lat="42.403114000" lon="-2.425290000">
        <ele>498.60</ele>
        <time>2013-07-27T09:19:52Z</time>
      </trkpt>
      <trkpt lat="42.403114000" lon="-2.425293000">
        <ele>498.40</ele>
        <time>2013-07-27T09:19:53Z</time>
      </trkpt>
      <trkpt lat="42.403113000" lon="-2.425294000">
        <ele>498.30</ele>
        <time>2013-07-27T09:19:54Z</time>
      </trkpt>
      <trkpt lat="42.403113000" lon="-2.425293000">
        <ele>498.00</ele>
        <time>2013-07-27T09:19:55Z</time>
      </trkpt>
      <trkpt lat="42.403110000" lon="-2.425294000">
        <ele>497.70</ele>
        <time>2013-07-27T09:19:56Z</time>
      </trkpt>
      <trkpt lat="42.403112000" lon="-2.425293000">
        <ele>497.50</ele>
        <time>2013-07-27T09:19:57Z</time>
      </trkpt>
      <trkpt lat="42.403112000" lon="-2.425294000">
        <ele>497.40</ele>
        <time>2013-07-27T09:19:58Z</time>
      </trkpt>
      <trkpt lat="42.403110000" lon="-2.425296000">
        <ele>497.90</ele>
        <time>2013-07-27T09:19:59Z</time>
      </trkpt>
      <trkpt lat="42.403111000" lon="-2.425295000">
        <ele>498.30</ele>
        <time>2013-07-27T09:20:00Z</time>
      </trkpt>
      <trkpt lat="42.403112000" lon="-2.425296000">
        <ele>498.60</ele>
        <time>2013-07-27T09:20:01Z</time>
      </trkpt>
      <trkpt lat="42.403110000" lon="-2.425294000">
        <ele>498.90</ele>
        <time>2013-07-27T09:20:02Z</time>
      </trkpt>
      <trkpt lat="42.403110000" lon="-2.425292000">
        <ele>498.80</ele>
        <time>2013-07-27T09:20:03Z</time>
      </trkpt>
      <trkpt lat="42.403108000" lon="-2.425289000">
        <ele>498.80</ele>
        <time>2013-07-27T09:20:04Z</time>
      </trkpt>
      <trkpt lat="42.403105000" lon="-2.425285000">
        <ele>498.60</ele>
        <time>2013-07-27T09:20:05Z</time>
      </trkpt>
      <trkpt lat="42.403104000" lon="-2.425284000">
        <ele>498.50</ele>
        <time>2013-07-27T09:20:06Z</time>
      </trkpt>
      <trkpt lat="42.403103000" lon="-2.425285000">
        <ele>498.30</ele>
        <time>2013-07-27T09:20:07Z</time>
      </trkpt>
      <trkpt lat="42.403101000" lon="-2.425284000">
        <ele>498.20</ele>
        <time>2013-07-27T09:20:08Z</time>
      </trkpt>
      <trkpt lat="42.403100000" lon="-2.425283000">
        <ele>498.30</ele>
        <time>2013-07-27T09:20:09Z</time>
      </trkpt>
      <trkpt lat="42.403103000" lon="-2.425286000">
        <ele>498.40</ele>
        <time>2013-07-27T09:20:10Z</time>
      </trkpt>
      <trkpt lat="42.403107000" lon="-2.425289000">
        <ele>498.70</ele>
        <time>2013-07-27T09:20:11Z</time>
      </trkpt>
      <trkpt lat="42.403111000" lon="-2.425290000">
        <ele>499.00</ele>
        <time>2013-07-27T09:20:12Z</time>
      </trkpt>
      <trkpt lat="42.403116000" lon="-2.425289000">
        <ele>499.20</ele>
        <time>2013-07-27T09:20:13Z</time>
      </trkpt>
      <trkpt lat="42.403120000" lon="-2.425290000">
        <ele>499.40</ele>
        <time>2013-07-27T09:20:14Z</time>
      </trkpt>
      <trkpt lat="42.403121000" lon="-2.425289000">
        <ele>499.10</ele>
        <time>2013-07-27T09:20:15Z</time>
      </trkpt>
      <trkpt lat="42.403123000" lon="-2.425291000">
        <ele>499.00</ele>
        <time>2013-07-27T09:20:16Z</time>
      </trkpt>
      <trkpt lat="42.403124000" lon="-2.425292000">
        <ele>498.90</ele>
        <time>2013-07-27T09:20:17Z</time>
      </trkpt>
      <trkpt lat="42.403122000" lon="-2.425294000">
        <ele>498.80</ele>
        <time>2013-07-27T09:20:18Z</time>
      </trkpt>
      <trkpt lat="42.403119000" lon="-2.425294000">
        <ele>498.50</ele>
        <time>2013-07-27T09:20:19Z</time>
      </trkpt>
      <trkpt lat="42.403118000" lon="-2.425294000">
        <ele>498.30</ele>
        <time>2013-07-27T09:20:20Z</time>
      </trkpt>
      <trkpt lat="42.403117000" lon="-2.425295000">
        <ele>498.20</ele>
        <time>2013-07-27T09:20:21Z</time>
      </trkpt>
      <trkpt lat="42.403112000" lon="-2.425295000">
        <ele>498.10</ele>
        <time>2013-07-27T09:20:22Z</time>
      </trkpt>
      <trkpt lat="42.403110000" lon="-2.425295000">
        <ele>498.20</ele>
        <time>2013-07-27T09:20:23Z</time>
      </trkpt>
      <trkpt lat="42.403109000" lon="-2.425295000">
        <ele>498.40</ele>
        <time>2013-07-27T09:20:24Z</time>
      </trkpt>
      <trkpt lat="42.403107000" lon="-2.425295000">
        <ele>498.50</ele>
        <time>2013-07-27T09:20:25Z</time>
      </trkpt>
      <trkpt lat="42.403107000" lon="-2.425293000">
        <ele>498.50</ele>
        <time>2013-07-27T09:20:26Z</time>
      </trkpt>
      <trkpt lat="42.403110000" lon="-2.425290000">
        <ele>498.60</ele>
        <time>2013-07-27T09:20:27Z</time>
      </trkpt>
      <trkpt lat="42.403113000" lon="-2.425289000">
        <ele>498.60</ele>
        <time>2013-07-27T09:20:28Z</time>
      </trkpt>
      <trkpt lat="42.403115000" lon="-2.425289000">
        <ele>498.70</ele>
        <time>2013-07-27T09:20:29Z</time>
      </trkpt>
      <trkpt lat="42.403118000" lon="-2.425289000">
        <ele>498.80</ele>
        <time>2013-07-27T09:20:30Z</time>
      </trkpt>
      <trkpt lat="42.403117000" lon="-2.425287000">
        <ele>498.90</ele>
        <time>2013-07-27T09:20:31Z</time>
      </trkpt>
      <trkpt lat="42.403116000" lon="-2.425287000">
        <ele>498.90</ele>
        <time>2013-07-27T09:20:32Z</time>
      </trkpt>
      <trkpt lat="42.403112000" lon="-2.425287000">
        <ele>498.90</ele>
        <time>2013-07-27T09:20:33Z</time>
      </trkpt>
      <trkpt lat="42.403114000" lon="-2.425288000">
        <ele>499.00</ele>
        <time>2013-07-27T09:20:34Z</time>
      </trkpt>
      <trkpt lat="42.403119000" lon="-2.425288000">
        <ele>499.10</ele>
        <time>2013-07-27T09:20:35Z</time>
      </trkpt>
      <trkpt lat="42.403119000" lon="-2.425285000">
        <ele>499.30</ele>
        <time>2013-07-27T09:20:36Z</time>
      </trkpt>
      <trkpt lat="42.403116000" lon="-2.425282000">
        <ele>499.40</ele>
        <time>2013-07-27T09:20:37Z</time>
      </trkpt>
      <trkpt lat="42.403117000" lon="-2.425283000">
        <ele>499.50</ele>
        <time>2013-07-27T09:20:38Z</time>
      </trkpt>
      <trkpt lat="42.403116000" lon="-2.425282000">
        <ele>499.60</ele>
        <time>2013-07-27T09:20:39Z</time>
      </trkpt>
      <trkpt lat="42.403116000" lon="-2.425281000">
        <ele>499.60</ele>
        <time>2013-07-27T09:20:40Z</time>
      </trkpt>
      <trkpt lat="42.403115000" lon="-2.425281000">
        <ele>499.50</ele>
        <time>2013-07-27T09:20:41Z</time>
      </trkpt>
      <trkpt lat="42.403117000" lon="-2.425285000">
        <ele>499.50</ele>
        <time>2013-07-27T09:20:42Z</time>
      </trkpt>
      <trkpt lat="42.403104000" lon="-2.425279000">
        <ele>499.10</ele>
        <time>2013-07-27T09:20:43Z</time>
      </trkpt>
      <trkpt lat="42.403091000" lon="-2.425276000">
        <ele>498.90</ele>
        <time>2013-07-27T09:20:44Z</time>
      </trkpt>
      <trkpt lat="42.403071000" lon="-2.425269000">
        <ele>498.70</ele>
        <time>2013-07-27T09:20:45Z</time>
      </trkpt>
      <trkpt lat="42.403049000" lon="-2.425260000">
        <ele>498.50</ele>
        <time>2013-07-27T09:20:46Z</time>
      </trkpt>
      <trkpt lat="42.403026000" lon="-2.425256000">
        <ele>498.30</ele>
        <time>2013-07-27T09:20:47Z</time>
      </trkpt>
      <trkpt lat="42.403000000" lon="-2.425248000">
        <ele>498.20</ele>
        <time>2013-07-27T09:20:48Z</time>
      </trkpt>
      <trkpt lat="42.402969000" lon="-2.425238000">
        <ele>498.10</ele>
        <time>2013-07-27T09:20:49Z</time>
      </trkpt>
      <trkpt lat="42.402939000" lon="-2.425223000">
        <ele>498.00</ele>
        <time>2013-07-27T09:20:50Z</time>
      </trkpt>
      <trkpt lat="42.402908000" lon="-2.425202000">
        <ele>498.10</ele>
        <time>2013-07-27T09:20:51Z</time>
      </trkpt>
      <trkpt lat="42.402877000" lon="-2.425177000">
        <ele>498.10</ele>
        <time>2013-07-27T09:20:52Z</time>
      </trkpt>
      <trkpt lat="42.402846000" lon="-2.425152000">
        <ele>498.10</ele>
        <time>2013-07-27T09:20:53Z</time>
      </trkpt>
      <trkpt lat="42.402815000" lon="-2.425135000">
        <ele>498.10</ele>
        <time>2013-07-27T09:20:54Z</time>
      </trkpt>
      <trkpt lat="42.402787000" lon="-2.425108000">
        <ele>498.10</ele>
        <time>2013-07-27T09:20:55Z</time>
      </trkpt>
      <trkpt lat="42.402759000" lon="-2.425074000">
        <ele>498.10</ele>
        <time>2013-07-27T09:20:56Z</time>
      </trkpt>
      <trkpt lat="42.402732000" lon="-2.425042000">
        <ele>498.20</ele>
        <time>2013-07-27T09:20:57Z</time>
      </trkpt>
      <trkpt lat="42.402706000" lon="-2.425011000">
        <ele>498.30</ele>
        <time>2013-07-27T09:20:58Z</time>
      </trkpt>
      <trkpt lat="42.402682000" lon="-2.424984000">
        <ele>498.30</ele>
        <time>2013-07-27T09:20:59Z</time>
      </trkpt>
      <trkpt lat="42.402654000" lon="-2.424954000">
        <ele>498.30</ele>
        <time>2013-07-27T09:21:00Z</time>
      </trkpt>
      <trkpt lat="42.402627000" lon="-2.424924000">
        <ele>498.50</ele>
        <time>2013-07-27T09:21:01Z</time>
      </trkpt>
      <trkpt lat="42.402599000" lon="-2.424894000">
        <ele>498.60</ele>
        <time>2013-07-27T09:21:02Z</time>
      </trkpt>
      <trkpt lat="42.402574000" lon="-2.424864000">
        <ele>498.70</ele>
        <time>2013-07-27T09:21:03Z</time>
      </trkpt>
      <trkpt lat="42.402548000" lon="-2.424833000">
        <ele>498.80</ele>
        <time>2013-07-27T09:21:04Z</time>
      </trkpt>
      <trkpt lat="42.402526000" lon="-2.424804000">
        <ele>498.80</ele>
        <time>2013-07-27T09:21:05Z</time>
      </trkpt>
      <trkpt lat="42.402500000" lon="-2.424779000">
        <ele>498.80</ele>
        <time>2013-07-27T09:21:06Z</time>
      </trkpt>
      <trkpt lat="42.402475000" lon="-2.424753000">
        <ele>498.80</ele>
        <time>2013-07-27T09:21:07Z</time>
      </trkpt>
      <trkpt lat="42.402453000" lon="-2.424724000">
        <ele>498.80</ele>
        <time>2013-07-27T09:21:08Z</time>
      </trkpt>
      <trkpt lat="42.402428000" lon="-2.424692000">
        <ele>498.80</ele>
        <time>2013-07-27T09:21:09Z</time>
      </trkpt>
      <trkpt lat="42.402403000" lon="-2.424665000">
        <ele>498.80</ele>
        <time>2013-07-27T09:21:10Z</time>
      </trkpt>
      <trkpt lat="42.402378000" lon="-2.424641000">
        <ele>499.40</ele>
        <time>2013-07-27T09:21:11Z</time>
      </trkpt>
      <trkpt lat="42.402351000" lon="-2.424620000">
        <ele>499.80</ele>
        <time>2013-07-27T09:21:12Z</time>
      </trkpt>
      <trkpt lat="42.402325000" lon="-2.424598000">
        <ele>500.20</ele>
        <time>2013-07-27T09:21:13Z</time>
      </trkpt>
      <trkpt lat="42.402298000" lon="-2.424569000">
        <ele>500.40</ele>
        <time>2013-07-27T09:21:14Z</time>
      </trkpt>
      <trkpt lat="42.402272000" lon="-2.424540000">
        <ele>500.20</ele>
        <time>2013-07-27T09:21:15Z</time>
      </trkpt>
      <trkpt lat="42.402242000" lon="-2.424513000">
        <ele>500.00</ele>
        <time>2013-07-27T09:21:16Z</time>
      </trkpt>
      <trkpt lat="42.402210000" lon="-2.424487000">
        <ele>499.30</ele>
        <time>2013-07-27T09:21:17Z</time>
      </trkpt>
      <trkpt lat="42.402178000" lon="-2.424461000">
        <ele>498.70</ele>
        <time>2013-07-27T09:21:18Z</time>
      </trkpt>
      <trkpt lat="42.402149000" lon="-2.424426000">
        <ele>498.20</ele>
        <time>2013-07-27T09:21:19Z</time>
      </trkpt>
      <trkpt lat="42.402116000" lon="-2.424387000">
        <ele>497.90</ele>
        <time>2013-07-27T09:21:20Z</time>
      </trkpt>
      <trkpt lat="42.402079000" lon="-2.424346000">
        <ele>498.30</ele>
        <time>2013-07-27T09:21:21Z</time>
      </trkpt>
      <trkpt lat="42.402041000" lon="-2.424304000">
        <ele>498.50</ele>
        <time>2013-07-27T09:21:22Z</time>
      </trkpt>
      <trkpt lat="42.401998000" lon="-2.424264000">
        <ele>498.70</ele>
        <time>2013-07-27T09:21:23Z</time>
      </trkpt>
      <trkpt lat="42.401960000" lon="-2.424222000">
        <ele>498.90</ele>
        <time>2013-07-27T09:21:24Z</time>
      </trkpt>
      <trkpt lat="42.401919000" lon="-2.424177000">
        <ele>499.00</ele>
        <time>2013-07-27T09:21:25Z</time>
      </trkpt>
      <trkpt lat="42.401879000" lon="-2.424131000">
        <ele>499.10</ele>
        <time>2013-07-27T09:21:26Z</time>
      </trkpt>
      <trkpt lat="42.401839000" lon="-2.424085000">
        <ele>498.30</ele>
        <time>2013-07-27T09:21:27Z</time>
      </trkpt>
      <trkpt lat="42.401802000" lon="-2.424041000">
        <ele>497.80</ele>
        <time>2013-07-27T09:21:28Z</time>
      </trkpt>
      <trkpt lat="42.401762000" lon="-2.423998000">
        <ele>497.60</ele>
        <time>2013-07-27T09:21:29Z</time>
      </trkpt>
      <trkpt lat="42.401722000" lon="-2.423958000">
        <ele>497.50</ele>
        <time>2013-07-27T09:21:30Z</time>
      </trkpt>
      <trkpt lat="42.401680000" lon="-2.423911000">
        <ele>497.40</ele>
        <time>2013-07-27T09:21:31Z</time>
      </trkpt>
      <trkpt lat="42.401640000" lon="-2.423865000">
        <ele>497.40</ele>
        <time>2013-07-27T09:21:32Z</time>
      </trkpt>
      <trkpt lat="42.401598000" lon="-2.423817000">
        <ele>497.50</ele>
        <time>2013-07-27T09:21:33Z</time>
      </trkpt>
      <trkpt lat="42.401555000" lon="-2.423775000">
        <ele>497.60</ele>
        <time>2013-07-27T09:21:34Z</time>
      </trkpt>
      <trkpt lat="42.401514000" lon="-2.423732000">
        <ele>498.20</ele>
        <time>2013-07-27T09:21:35Z</time>
      </trkpt>
      <trkpt lat="42.401475000" lon="-2.423690000">
        <ele>498.60</ele>
        <time>2013-07-27T09:21:36Z</time>
      </trkpt>
      <trkpt lat="42.401434000" lon="-2.423644000">
        <ele>498.40</ele>
        <time>2013-07-27T09:21:37Z</time>
      </trkpt>
      <trkpt lat="42.401395000" lon="-2.423601000">
        <ele>498.30</ele>
        <time>2013-07-27T09:21:38Z</time>
      </trkpt>
      <trkpt lat="42.401356000" lon="-2.423561000">
        <ele>497.50</ele>
        <time>2013-07-27T09:21:39Z</time>
      </trkpt>
      <trkpt lat="42.401318000" lon="-2.423523000">
        <ele>496.80</ele>
        <time>2013-07-27T09:21:40Z</time>
      </trkpt>
      <trkpt lat="42.401282000" lon="-2.423488000">
        <ele>496.20</ele>
        <time>2013-07-27T09:21:41Z</time>
      </trkpt>
      <trkpt lat="42.401246000" lon="-2.423449000">
        <ele>495.70</ele>
        <time>2013-07-27T09:21:42Z</time>
      </trkpt>
      <trkpt lat="42.401212000" lon="-2.423412000">
        <ele>495.30</ele>
        <time>2013-07-27T09:21:43Z</time>
      </trkpt>
      <trkpt lat="42.401179000" lon="-2.423369000">
        <ele>494.90</ele>
        <time>2013-07-27T09:21:44Z</time>
      </trkpt>
      <trkpt lat="42.401147000" lon="-2.423327000">
        <ele>494.80</ele>
        <time>2013-07-27T09:21:45Z</time>
      </trkpt>
      <trkpt lat="42.401116000" lon="-2.423285000">
        <ele>494.70</ele>
        <time>2013-07-27T09:21:46Z</time>
      </trkpt>
      <trkpt lat="42.401090000" lon="-2.423239000">
        <ele>494.70</ele>
        <time>2013-07-27T09:21:47Z</time>
      </trkpt>
      <trkpt lat="42.401065000" lon="-2.423196000">
        <ele>494.70</ele>
        <time>2013-07-27T09:21:48Z</time>
      </trkpt>
      <trkpt lat="42.401037000" lon="-2.423153000">
        <ele>494.80</ele>
        <time>2013-07-27T09:21:49Z</time>
      </trkpt>
      <trkpt lat="42.401012000" lon="-2.423111000">
        <ele>494.80</ele>
        <time>2013-07-27T09:21:50Z</time>
      </trkpt>
      <trkpt lat="42.400989000" lon="-2.423070000">
        <ele>494.80</ele>
        <time>2013-07-27T09:21:51Z</time>
      </trkpt>
      <trkpt lat="42.400965000" lon="-2.423027000">
        <ele>494.80</ele>
        <time>2013-07-27T09:21:52Z</time>
      </trkpt>
      <trkpt lat="42.400938000" lon="-2.422989000">
        <ele>494.90</ele>
        <time>2013-07-27T09:21:53Z</time>
      </trkpt>
      <trkpt lat="42.400913000" lon="-2.422950000">
        <ele>495.00</ele>
        <time>2013-07-27T09:21:54Z</time>
      </trkpt>
      <trkpt lat="42.400892000" lon="-2.422910000">
        <ele>496.00</ele>
        <time>2013-07-27T09:21:55Z</time>
      </trkpt>
      <trkpt lat="42.400868000" lon="-2.422870000">
        <ele>496.70</ele>
        <time>2013-07-27T09:21:56Z</time>
      </trkpt>
      <trkpt lat="42.400846000" lon="-2.422830000">
        <ele>497.40</ele>
        <time>2013-07-27T09:21:57Z</time>
      </trkpt>
      <trkpt lat="42.400824000" lon="-2.422791000">
        <ele>497.90</ele>
        <time>2013-07-27T09:21:58Z</time>
      </trkpt>
      <trkpt lat="42.400802000" lon="-2.422756000">
        <ele>498.30</ele>
        <time>2013-07-27T09:21:59Z</time>
      </trkpt>
      <trkpt lat="42.400780000" lon="-2.422720000">
        <ele>498.60</ele>
        <time>2013-07-27T09:22:00Z</time>
      </trkpt>
      <trkpt lat="42.400755000" lon="-2.422679000">
        <ele>498.30</ele>
        <time>2013-07-27T09:22:01Z</time>
      </trkpt>
      <trkpt lat="42.400736000" lon="-2.422640000">
        <ele>498.00</ele>
        <time>2013-07-27T09:22:02Z</time>
      </trkpt>
      <trkpt lat="42.400718000" lon="-2.422605000">
        <ele>497.20</ele>
        <time>2013-07-27T09:22:03Z</time>
      </trkpt>
      <trkpt lat="42.400698000" lon="-2.422570000">
        <ele>496.60</ele>
        <time>2013-07-27T09:22:04Z</time>
      </trkpt>
      <trkpt lat="42.400680000" lon="-2.422538000">
        <ele>496.10</ele>
        <time>2013-07-27T09:22:05Z</time>
      </trkpt>
      <trkpt lat="42.400658000" lon="-2.422504000">
        <ele>495.70</ele>
        <time>2013-07-27T09:22:06Z</time>
      </trkpt>
      <trkpt lat="42.400636000" lon="-2.422470000">
        <ele>495.40</ele>
        <time>2013-07-27T09:22:07Z</time>
      </trkpt>
      <trkpt lat="42.400613000" lon="-2.422427000">
        <ele>495.20</ele>
        <time>2013-07-27T09:22:08Z</time>
      </trkpt>
      <trkpt lat="42.400588000" lon="-2.422381000">
        <ele>495.00</ele>
        <time>2013-07-27T09:22:09Z</time>
      </trkpt>
      <trkpt lat="42.400561000" lon="-2.422331000">
        <ele>494.90</ele>
        <time>2013-07-27T09:22:10Z</time>
      </trkpt>
      <trkpt lat="42.400532000" lon="-2.422277000">
        <ele>494.70</ele>
        <time>2013-07-27T09:22:11Z</time>
      </trkpt>
      <trkpt lat="42.400503000" lon="-2.422219000">
        <ele>494.50</ele>
        <time>2013-07-27T09:22:12Z</time>
      </trkpt>
      <trkpt lat="42.400473000" lon="-2.422159000">
        <ele>494.40</ele>
        <time>2013-07-27T09:22:13Z</time>
      </trkpt>
      <trkpt lat="42.400441000" lon="-2.422095000">
        <ele>494.30</ele>
        <time>2013-07-27T09:22:14Z</time>
      </trkpt>
      <trkpt lat="42.400407000" lon="-2.422028000">
        <ele>494.30</ele>
        <time>2013-07-27T09:22:15Z</time>
      </trkpt>
      <trkpt lat="42.400373000" lon="-2.421959000">
        <ele>494.30</ele>
        <time>2013-07-27T09:22:16Z</time>
      </trkpt>
      <trkpt lat="42.400340000" lon="-2.421885000">
        <ele>494.30</ele>
        <time>2013-07-27T09:22:17Z</time>
      </trkpt>
      <trkpt lat="42.400307000" lon="-2.421810000">
        <ele>494.30</ele>
        <time>2013-07-27T09:22:18Z</time>
      </trkpt>
      <trkpt lat="42.400272000" lon="-2.421736000">
        <ele>494.50</ele>
        <time>2013-07-27T09:22:19Z</time>
      </trkpt>
      <trkpt lat="42.400236000" lon="-2.421664000">
        <ele>494.70</ele>
        <time>2013-07-27T09:22:20Z</time>
      </trkpt>
      <trkpt lat="42.400204000" lon="-2.421589000">
        <ele>494.50</ele>
        <time>2013-07-27T09:22:21Z</time>
      </trkpt>
      <trkpt lat="42.400171000" lon="-2.421520000">
        <ele>494.40</ele>
        <time>2013-07-27T09:22:22Z</time>
      </trkpt>
      <trkpt lat="42.400134000" lon="-2.421453000">
        <ele>494.40</ele>
        <time>2013-07-27T09:22:23Z</time>
      </trkpt>
      <trkpt lat="42.400093000" lon="-2.421393000">
        <ele>494.30</ele>
        <time>2013-07-27T09:22:24Z</time>
      </trkpt>
      <trkpt lat="42.400058000" lon="-2.421333000">
        <ele>494.30</ele>
        <time>2013-07-27T09:22:25Z</time>
      </trkpt>
      <trkpt lat="42.400026000" lon="-2.421274000">
        <ele>494.20</ele>
        <time>2013-07-27T09:22:26Z</time>
      </trkpt>
      <trkpt lat="42.399996000" lon="-2.421219000">
        <ele>493.90</ele>
        <time>2013-07-27T09:22:27Z</time>
      </trkpt>
      <trkpt lat="42.399970000" lon="-2.421166000">
        <ele>493.70</ele>
        <time>2013-07-27T09:22:28Z</time>
      </trkpt>
      <trkpt lat="42.399945000" lon="-2.421116000">
        <ele>493.70</ele>
        <time>2013-07-27T09:22:29Z</time>
      </trkpt>
      <trkpt lat="42.399917000" lon="-2.421071000">
        <ele>493.70</ele>
        <time>2013-07-27T09:22:30Z</time>
      </trkpt>
      <trkpt lat="42.399894000" lon="-2.421030000">
        <ele>493.60</ele>
        <time>2013-07-27T09:22:31Z</time>
      </trkpt>
      <trkpt lat="42.399871000" lon="-2.420990000">
        <ele>493.60</ele>
        <time>2013-07-27T09:22:32Z</time>
      </trkpt>
      <trkpt lat="42.399849000" lon="-2.420950000">
        <ele>493.60</ele>
        <time>2013-07-27T09:22:33Z</time>
      </trkpt>
      <trkpt lat="42.399826000" lon="-2.420908000">
        <ele>493.60</ele>
        <time>2013-07-27T09:22:34Z</time>
      </trkpt>
      <trkpt lat="42.399802000" lon="-2.420866000">
        <ele>493.90</ele>
        <time>2013-07-27T09:22:35Z</time>
      </trkpt>
      <trkpt lat="42.399778000" lon="-2.420827000">
        <ele>494.10</ele>
        <time>2013-07-27T09:22:36Z</time>
      </trkpt>
      <trkpt lat="42.399753000" lon="-2.420787000">
        <ele>494.20</ele>
        <time>2013-07-27T09:22:37Z</time>
      </trkpt>
      <trkpt lat="42.399730000" lon="-2.420744000">
        <ele>494.30</ele>
        <time>2013-07-27T09:22:38Z</time>
      </trkpt>
      <trkpt lat="42.399704000" lon="-2.420704000">
        <ele>494.10</ele>
        <time>2013-07-27T09:22:39Z</time>
      </trkpt>
      <trkpt lat="42.399675000" lon="-2.420667000">
        <ele>493.90</ele>
        <time>2013-07-27T09:22:40Z</time>
      </trkpt>
      <trkpt lat="42.399649000" lon="-2.420628000">
        <ele>493.80</ele>
        <time>2013-07-27T09:22:41Z</time>
      </trkpt>
      <trkpt lat="42.399624000" lon="-2.420588000">
        <ele>493.60</ele>
        <time>2013-07-27T09:22:42Z</time>
      </trkpt>
      <trkpt lat="42.399596000" lon="-2.420549000">
        <ele>493.80</ele>
        <time>2013-07-27T09:22:43Z</time>
      </trkpt>
      <trkpt lat="42.399570000" lon="-2.420510000">
        <ele>494.00</ele>
        <time>2013-07-27T09:22:44Z</time>
      </trkpt>
      <trkpt lat="42.399544000" lon="-2.420473000">
        <ele>494.20</ele>
        <time>2013-07-27T09:22:45Z</time>
      </trkpt>
      <trkpt lat="42.399515000" lon="-2.420435000">
        <ele>494.30</ele>
        <time>2013-07-27T09:22:46Z</time>
      </trkpt>
      <trkpt lat="42.399489000" lon="-2.420398000">
        <ele>494.30</ele>
        <time>2013-07-27T09:22:47Z</time>
      </trkpt>
      <trkpt lat="42.399460000" lon="-2.420361000">
        <ele>494.30</ele>
        <time>2013-07-27T09:22:48Z</time>
      </trkpt>
      <trkpt lat="42.399432000" lon="-2.420324000">
        <ele>494.40</ele>
        <time>2013-07-27T09:22:49Z</time>
      </trkpt>
      <trkpt lat="42.399403000" lon="-2.420289000">
        <ele>494.40</ele>
        <time>2013-07-27T09:22:50Z</time>
      </trkpt>
      <trkpt lat="42.399371000" lon="-2.420254000">
        <ele>494.40</ele>
        <time>2013-07-27T09:22:51Z</time>
      </trkpt>
      <trkpt lat="42.399341000" lon="-2.420222000">
        <ele>494.40</ele>
        <time>2013-07-27T09:22:52Z</time>
      </trkpt>
      <trkpt lat="42.399311000" lon="-2.420190000">
        <ele>494.40</ele>
        <time>2013-07-27T09:22:53Z</time>
      </trkpt>
      <trkpt lat="42.399280000" lon="-2.420158000">
        <ele>494.40</ele>
        <time>2013-07-27T09:22:54Z</time>
      </trkpt>
      <trkpt lat="42.399250000" lon="-2.420128000">
        <ele>494.40</ele>
        <time>2013-07-27T09:22:55Z</time>
      </trkpt>
      <trkpt lat="42.399221000" lon="-2.420096000">
        <ele>494.40</ele>
        <time>2013-07-27T09:22:56Z</time>
      </trkpt>
      <trkpt lat="42.399192000" lon="-2.420070000">
        <ele>494.40</ele>
        <time>2013-07-27T09:22:57Z</time>
      </trkpt>
      <trkpt lat="42.399162000" lon="-2.420042000">
        <ele>494.40</ele>
        <time>2013-07-27T09:22:58Z</time>
      </trkpt>
      <trkpt lat="42.399134000" lon="-2.420013000">
        <ele>494.40</ele>
        <time>2013-07-27T09:22:59Z</time>
      </trkpt>
      <trkpt lat="42.399108000" lon="-2.419982000">
        <ele>494.50</ele>
        <time>2013-07-27T09:23:00Z</time>
      </trkpt>
      <trkpt lat="42.399079000" lon="-2.419949000">
        <ele>494.60</ele>
        <time>2013-07-27T09:23:01Z</time>
      </trkpt>
      <trkpt lat="42.399047000" lon="-2.419922000">
        <ele>494.70</ele>
        <time>2013-07-27T09:23:02Z</time>
      </trkpt>
      <trkpt lat="42.399012000" lon="-2.419900000">
        <ele>494.70</ele>
        <time>2013-07-27T09:23:03Z</time>
      </trkpt>
      <trkpt lat="42.398983000" lon="-2.419872000">
        <ele>494.70</ele>
        <time>2013-07-27T09:23:04Z</time>
      </trkpt>
      <trkpt lat="42.398955000" lon="-2.419842000">
        <ele>494.70</ele>
        <time>2013-07-27T09:23:05Z</time>
      </trkpt>
      <trkpt lat="42.398926000" lon="-2.419814000">
        <ele>494.80</ele>
        <time>2013-07-27T09:23:06Z</time>
      </trkpt>
      <trkpt lat="42.398897000" lon="-2.419783000">
        <ele>494.90</ele>
        <time>2013-07-27T09:23:07Z</time>
      </trkpt>
      <trkpt lat="42.398867000" lon="-2.419755000">
        <ele>494.90</ele>
        <time>2013-07-27T09:23:08Z</time>
      </trkpt>
      <trkpt lat="42.398838000" lon="-2.419727000">
        <ele>495.00</ele>
        <time>2013-07-27T09:23:09Z</time>
      </trkpt>
      <trkpt lat="42.398808000" lon="-2.419701000">
        <ele>495.00</ele>
        <time>2013-07-27T09:23:10Z</time>
      </trkpt>
      <trkpt lat="42.398776000" lon="-2.419675000">
        <ele>495.00</ele>
        <time>2013-07-27T09:23:11Z</time>
      </trkpt>
      <trkpt lat="42.398745000" lon="-2.419648000">
        <ele>495.00</ele>
        <time>2013-07-27T09:23:12Z</time>
      </trkpt>
      <trkpt lat="42.398718000" lon="-2.419617000">
        <ele>495.00</ele>
        <time>2013-07-27T09:23:13Z</time>
      </trkpt>
      <trkpt lat="42.398688000" lon="-2.419590000">
        <ele>495.10</ele>
        <time>2013-07-27T09:23:14Z</time>
      </trkpt>
      <trkpt lat="42.398659000" lon="-2.419563000">
        <ele>494.90</ele>
        <time>2013-07-27T09:23:15Z</time>
      </trkpt>
      <trkpt lat="42.398629000" lon="-2.419536000">
        <ele>494.70</ele>
        <time>2013-07-27T09:23:16Z</time>
      </trkpt>
      <trkpt lat="42.398599000" lon="-2.419507000">
        <ele>494.80</ele>
        <time>2013-07-27T09:23:17Z</time>
      </trkpt>
      <trkpt lat="42.398570000" lon="-2.419477000">
        <ele>494.90</ele>
        <time>2013-07-27T09:23:18Z</time>
      </trkpt>
      <trkpt lat="42.398541000" lon="-2.419448000">
        <ele>494.80</ele>
        <time>2013-07-27T09:23:19Z</time>
      </trkpt>
      <trkpt lat="42.398511000" lon="-2.419418000">
        <ele>494.70</ele>
        <time>2013-07-27T09:23:20Z</time>
      </trkpt>
      <trkpt lat="42.398481000" lon="-2.419389000">
        <ele>494.60</ele>
        <time>2013-07-27T09:23:21Z</time>
      </trkpt>
      <trkpt lat="42.398452000" lon="-2.419361000">
        <ele>494.60</ele>
        <time>2013-07-27T09:23:22Z</time>
      </trkpt>
      <trkpt lat="42.398422000" lon="-2.419332000">
        <ele>494.60</ele>
        <time>2013-07-27T09:23:23Z</time>
      </trkpt>
      <trkpt lat="42.398393000" lon="-2.419301000">
        <ele>494.50</ele>
        <time>2013-07-27T09:23:24Z</time>
      </trkpt>
      <trkpt lat="42.398363000" lon="-2.419270000">
        <ele>494.90</ele>
        <time>2013-07-27T09:23:25Z</time>
      </trkpt>
      <trkpt lat="42.398333000" lon="-2.419238000">
        <ele>495.20</ele>
        <time>2013-07-27T09:23:26Z</time>
      </trkpt>
      <trkpt lat="42.398303000" lon="-2.419209000">
        <ele>495.40</ele>
        <time>2013-07-27T09:23:27Z</time>
      </trkpt>
      <trkpt lat="42.398272000" lon="-2.419181000">
        <ele>495.60</ele>
        <time>2013-07-27T09:23:28Z</time>
      </trkpt>
      <trkpt lat="42.398240000" lon="-2.419152000">
        <ele>495.60</ele>
        <time>2013-07-27T09:23:29Z</time>
      </trkpt>
      <trkpt lat="42.398208000" lon="-2.419121000">
        <ele>495.70</ele>
        <time>2013-07-27T09:23:30Z</time>
      </trkpt>
      <trkpt lat="42.398178000" lon="-2.419093000">
        <ele>495.70</ele>
        <time>2013-07-27T09:23:31Z</time>
      </trkpt>
      <trkpt lat="42.398145000" lon="-2.419066000">
        <ele>495.70</ele>
        <time>2013-07-27T09:23:32Z</time>
      </trkpt>
      <trkpt lat="42.398110000" lon="-2.419038000">
        <ele>495.70</ele>
        <time>2013-07-27T09:23:33Z</time>
      </trkpt>
      <trkpt lat="42.398076000" lon="-2.419012000">
        <ele>495.70</ele>
        <time>2013-07-27T09:23:34Z</time>
      </trkpt>
      <trkpt lat="42.398041000" lon="-2.418982000">
        <ele>495.70</ele>
        <time>2013-07-27T09:23:35Z</time>
      </trkpt>
      <trkpt lat="42.398007000" lon="-2.418950000">
        <ele>495.70</ele>
        <time>2013-07-27T09:23:36Z</time>
      </trkpt>
      <trkpt lat="42.397974000" lon="-2.418921000">
        <ele>495.50</ele>
        <time>2013-07-27T09:23:37Z</time>
      </trkpt>
      <trkpt lat="42.397943000" lon="-2.418892000">
        <ele>495.40</ele>
        <time>2013-07-27T09:23:38Z</time>
      </trkpt>
      <trkpt lat="42.397911000" lon="-2.418862000">
        <ele>495.30</ele>
        <time>2013-07-27T09:23:39Z</time>
      </trkpt>
      <trkpt lat="42.397877000" lon="-2.418829000">
        <ele>495.20</ele>
        <time>2013-07-27T09:23:40Z</time>
      </trkpt>
      <trkpt lat="42.397846000" lon="-2.418801000">
        <ele>495.40</ele>
        <time>2013-07-27T09:23:41Z</time>
      </trkpt>
      <trkpt lat="42.397817000" lon="-2.418774000">
        <ele>495.60</ele>
        <time>2013-07-27T09:23:42Z</time>
      </trkpt>
      <trkpt lat="42.397786000" lon="-2.418750000">
        <ele>495.80</ele>
        <time>2013-07-27T09:23:43Z</time>
      </trkpt>
      <trkpt lat="42.397749000" lon="-2.418723000">
        <ele>495.90</ele>
        <time>2013-07-27T09:23:44Z</time>
      </trkpt>
      <trkpt lat="42.397714000" lon="-2.418696000">
        <ele>495.90</ele>
        <time>2013-07-27T09:23:45Z</time>
      </trkpt>
      <trkpt lat="42.397681000" lon="-2.418667000">
        <ele>495.90</ele>
        <time>2013-07-27T09:23:46Z</time>
      </trkpt>
      <trkpt lat="42.397650000" lon="-2.418639000">
        <ele>495.60</ele>
        <time>2013-07-27T09:23:47Z</time>
      </trkpt>
      <trkpt lat="42.397618000" lon="-2.418608000">
        <ele>495.40</ele>
        <time>2013-07-27T09:23:48Z</time>
      </trkpt>
      <trkpt lat="42.397585000" lon="-2.418579000">
        <ele>495.30</ele>
        <time>2013-07-27T09:23:49Z</time>
      </trkpt>
      <trkpt lat="42.397551000" lon="-2.418551000">
        <ele>495.20</ele>
        <time>2013-07-27T09:23:50Z</time>
      </trkpt>
      <trkpt lat="42.397521000" lon="-2.418524000">
        <ele>495.20</ele>
        <time>2013-07-27T09:23:51Z</time>
      </trkpt>
      <trkpt lat="42.397487000" lon="-2.418497000">
        <ele>495.30</ele>
        <time>2013-07-27T09:23:52Z</time>
      </trkpt>
      <trkpt lat="42.397455000" lon="-2.418468000">
        <ele>495.30</ele>
        <time>2013-07-27T09:23:53Z</time>
      </trkpt>
      <trkpt lat="42.397425000" lon="-2.418442000">
        <ele>495.40</ele>
        <time>2013-07-27T09:23:54Z</time>
      </trkpt>
      <trkpt lat="42.397397000" lon="-2.418412000">
        <ele>495.50</ele>
        <time>2013-07-27T09:23:55Z</time>
      </trkpt>
      <trkpt lat="42.397367000" lon="-2.418383000">
        <ele>495.60</ele>
        <time>2013-07-27T09:23:56Z</time>
      </trkpt>
      <trkpt lat="42.397336000" lon="-2.418356000">
        <ele>495.70</ele>
        <time>2013-07-27T09:23:57Z</time>
      </trkpt>
      <trkpt lat="42.397305000" lon="-2.418330000">
        <ele>495.70</ele>
        <time>2013-07-27T09:23:58Z</time>
      </trkpt>
      <trkpt lat="42.397275000" lon="-2.418303000">
        <ele>495.80</ele>
        <time>2013-07-27T09:23:59Z</time>
      </trkpt>
      <trkpt lat="42.397241000" lon="-2.418279000">
        <ele>495.90</ele>
        <time>2013-07-27T09:24:00Z</time>
      </trkpt>
      <trkpt lat="42.397208000" lon="-2.418252000">
        <ele>496.00</ele>
        <time>2013-07-27T09:24:01Z</time>
      </trkpt>
      <trkpt lat="42.397176000" lon="-2.418223000">
        <ele>496.00</ele>
        <time>2013-07-27T09:24:02Z</time>
      </trkpt>
      <trkpt lat="42.397146000" lon="-2.418196000">
        <ele>496.00</ele>
        <time>2013-07-27T09:24:03Z</time>
      </trkpt>
      <trkpt lat="42.397113000" lon="-2.418167000">
        <ele>496.10</ele>
        <time>2013-07-27T09:24:04Z</time>
      </trkpt>
      <trkpt lat="42.397084000" lon="-2.418141000">
        <ele>496.20</ele>
        <time>2013-07-27T09:24:05Z</time>
      </trkpt>
      <trkpt lat="42.397050000" lon="-2.418113000">
        <ele>496.30</ele>
        <time>2013-07-27T09:24:06Z</time>
      </trkpt>
      <trkpt lat="42.397018000" lon="-2.418087000">
        <ele>496.40</ele>
        <time>2013-07-27T09:24:07Z</time>
      </trkpt>
      <trkpt lat="42.396991000" lon="-2.418061000">
        <ele>496.40</ele>
        <time>2013-07-27T09:24:08Z</time>
      </trkpt>
      <trkpt lat="42.396962000" lon="-2.418035000">
        <ele>496.30</ele>
        <time>2013-07-27T09:24:09Z</time>
      </trkpt>
      <trkpt lat="42.396927000" lon="-2.418013000">
        <ele>496.30</ele>
        <time>2013-07-27T09:24:10Z</time>
      </trkpt>
      <trkpt lat="42.396891000" lon="-2.417989000">
        <ele>496.20</ele>
        <time>2013-07-27T09:24:11Z</time>
      </trkpt>
      <trkpt lat="42.396857000" lon="-2.417966000">
        <ele>496.20</ele>
        <time>2013-07-27T09:24:12Z</time>
      </trkpt>
      <trkpt lat="42.396821000" lon="-2.417943000">
        <ele>496.30</ele>
        <time>2013-07-27T09:24:13Z</time>
      </trkpt>
      <trkpt lat="42.396787000" lon="-2.417919000">
        <ele>496.30</ele>
        <time>2013-07-27T09:24:14Z</time>
      </trkpt>
      <trkpt lat="42.396753000" lon="-2.417897000">
        <ele>496.50</ele>
        <time>2013-07-27T09:24:15Z</time>
      </trkpt>
      <trkpt lat="42.396715000" lon="-2.417875000">
        <ele>496.60</ele>
        <time>2013-07-27T09:24:16Z</time>
      </trkpt>
      <trkpt lat="42.396679000" lon="-2.417855000">
        <ele>496.60</ele>
        <time>2013-07-27T09:24:17Z</time>
      </trkpt>
      <trkpt lat="42.396643000" lon="-2.417837000">
        <ele>496.60</ele>
        <time>2013-07-27T09:24:18Z</time>
      </trkpt>
      <trkpt lat="42.396608000" lon="-2.417819000">
        <ele>497.10</ele>
        <time>2013-07-27T09:24:19Z</time>
      </trkpt>
      <trkpt lat="42.396572000" lon="-2.417799000">
        <ele>497.40</ele>
        <time>2013-07-27T09:24:20Z</time>
      </trkpt>
      <trkpt lat="42.396538000" lon="-2.417779000">
        <ele>497.30</ele>
        <time>2013-07-27T09:24:21Z</time>
      </trkpt>
      <trkpt lat="42.396504000" lon="-2.417759000">
        <ele>497.10</ele>
        <time>2013-07-27T09:24:22Z</time>
      </trkpt>
      <trkpt lat="42.396472000" lon="-2.417738000">
        <ele>497.40</ele>
        <time>2013-07-27T09:24:23Z</time>
      </trkpt>
      <trkpt lat="42.396437000" lon="-2.417716000">
        <ele>497.50</ele>
        <time>2013-07-27T09:24:24Z</time>
      </trkpt>
      <trkpt lat="42.396401000" lon="-2.417694000">
        <ele>497.50</ele>
        <time>2013-07-27T09:24:25Z</time>
      </trkpt>
      <trkpt lat="42.396365000" lon="-2.417672000">
        <ele>497.50</ele>
        <time>2013-07-27T09:24:26Z</time>
      </trkpt>
      <trkpt lat="42.396328000" lon="-2.417649000">
        <ele>497.70</ele>
        <time>2013-07-27T09:24:27Z</time>
      </trkpt>
      <trkpt lat="42.396297000" lon="-2.417631000">
        <ele>497.80</ele>
        <time>2013-07-27T09:24:28Z</time>
      </trkpt>
      <trkpt lat="42.396264000" lon="-2.417614000">
        <ele>497.80</ele>
        <time>2013-07-27T09:24:29Z</time>
      </trkpt>
      <trkpt lat="42.396232000" lon="-2.417593000">
        <ele>497.80</ele>
        <time>2013-07-27T09:24:30Z</time>
      </trkpt>
      <trkpt lat="42.396199000" lon="-2.417573000">
        <ele>497.80</ele>
        <time>2013-07-27T09:24:31Z</time>
      </trkpt>
      <trkpt lat="42.396164000" lon="-2.417550000">
        <ele>497.80</ele>
        <time>2013-07-27T09:24:32Z</time>
      </trkpt>
      <trkpt lat="42.396128000" lon="-2.417529000">
        <ele>497.80</ele>
        <time>2013-07-27T09:24:33Z</time>
      </trkpt>
      <trkpt lat="42.396095000" lon="-2.417510000">
        <ele>497.80</ele>
        <time>2013-07-27T09:24:34Z</time>
      </trkpt>
      <trkpt lat="42.396057000" lon="-2.417493000">
        <ele>497.60</ele>
        <time>2013-07-27T09:24:35Z</time>
      </trkpt>
      <trkpt lat="42.396020000" lon="-2.417477000">
        <ele>497.40</ele>
        <time>2013-07-27T09:24:36Z</time>
      </trkpt>
      <trkpt lat="42.395984000" lon="-2.417460000">
        <ele>497.60</ele>
        <time>2013-07-27T09:24:37Z</time>
      </trkpt>
      <trkpt lat="42.395950000" lon="-2.417439000">
        <ele>497.70</ele>
        <time>2013-07-27T09:24:38Z</time>
      </trkpt>
      <trkpt lat="42.395912000" lon="-2.417421000">
        <ele>497.70</ele>
        <time>2013-07-27T09:24:39Z</time>
      </trkpt>
      <trkpt lat="42.395876000" lon="-2.417405000">
        <ele>497.80</ele>
        <time>2013-07-27T09:24:40Z</time>
      </trkpt>
      <trkpt lat="42.395842000" lon="-2.417388000">
        <ele>497.90</ele>
        <time>2013-07-27T09:24:41Z</time>
      </trkpt>
      <trkpt lat="42.395808000" lon="-2.417370000">
        <ele>498.00</ele>
        <time>2013-07-27T09:24:42Z</time>
      </trkpt>
      <trkpt lat="42.395772000" lon="-2.417354000">
        <ele>498.20</ele>
        <time>2013-07-27T09:24:43Z</time>
      </trkpt>
      <trkpt lat="42.395735000" lon="-2.417346000">
        <ele>498.30</ele>
        <time>2013-07-27T09:24:44Z</time>
      </trkpt>
      <trkpt lat="42.395698000" lon="-2.417334000">
        <ele>498.30</ele>
        <time>2013-07-27T09:24:45Z</time>
      </trkpt>
      <trkpt lat="42.395662000" lon="-2.417321000">
        <ele>498.30</ele>
        <time>2013-07-27T09:24:46Z</time>
      </trkpt>
      <trkpt lat="42.395627000" lon="-2.417310000">
        <ele>498.10</ele>
        <time>2013-07-27T09:24:47Z</time>
      </trkpt>
      <trkpt lat="42.395589000" lon="-2.417295000">
        <ele>497.90</ele>
        <time>2013-07-27T09:24:48Z</time>
      </trkpt>
      <trkpt lat="42.395554000" lon="-2.417280000">
        <ele>497.80</ele>
        <time>2013-07-27T09:24:49Z</time>
      </trkpt>
      <trkpt lat="42.395517000" lon="-2.417263000">
        <ele>497.70</ele>
        <time>2013-07-27T09:24:50Z</time>
      </trkpt>
      <trkpt lat="42.395482000" lon="-2.417249000">
        <ele>497.90</ele>
        <time>2013-07-27T09:24:51Z</time>
      </trkpt>
      <trkpt lat="42.395443000" lon="-2.417231000">
        <ele>498.00</ele>
        <time>2013-07-27T09:24:52Z</time>
      </trkpt>
      <trkpt lat="42.395407000" lon="-2.417215000">
        <ele>498.00</ele>
        <time>2013-07-27T09:24:53Z</time>
      </trkpt>
      <trkpt lat="42.395373000" lon="-2.417203000">
        <ele>498.10</ele>
        <time>2013-07-27T09:24:54Z</time>
      </trkpt>
      <trkpt lat="42.395337000" lon="-2.417185000">
        <ele>498.10</ele>
        <time>2013-07-27T09:24:55Z</time>
      </trkpt>
      <trkpt lat="42.395299000" lon="-2.417169000">
        <ele>498.10</ele>
        <time>2013-07-27T09:24:56Z</time>
      </trkpt>
      <trkpt lat="42.395262000" lon="-2.417154000">
        <ele>498.10</ele>
        <time>2013-07-27T09:24:57Z</time>
      </trkpt>
      <trkpt lat="42.395227000" lon="-2.417137000">
        <ele>498.10</ele>
        <time>2013-07-27T09:24:58Z</time>
      </trkpt>
      <trkpt lat="42.395193000" lon="-2.417115000">
        <ele>498.10</ele>
        <time>2013-07-27T09:24:59Z</time>
      </trkpt>
      <trkpt lat="42.395159000" lon="-2.417095000">
        <ele>498.10</ele>
        <time>2013-07-27T09:25:00Z</time>
      </trkpt>
      <trkpt lat="42.395125000" lon="-2.417074000">
        <ele>498.10</ele>
        <time>2013-07-27T09:25:01Z</time>
      </trkpt>
      <trkpt lat="42.395092000" lon="-2.417052000">
        <ele>498.00</ele>
        <time>2013-07-27T09:25:02Z</time>
      </trkpt>
      <trkpt lat="42.395059000" lon="-2.417030000">
        <ele>498.00</ele>
        <time>2013-07-27T09:25:03Z</time>
      </trkpt>
      <trkpt lat="42.395024000" lon="-2.417009000">
        <ele>498.00</ele>
        <time>2013-07-27T09:25:04Z</time>
      </trkpt>
      <trkpt lat="42.394989000" lon="-2.416996000">
        <ele>498.20</ele>
        <time>2013-07-27T09:25:05Z</time>
      </trkpt>
      <trkpt lat="42.394956000" lon="-2.416984000">
        <ele>498.30</ele>
        <time>2013-07-27T09:25:06Z</time>
      </trkpt>
      <trkpt lat="42.394922000" lon="-2.416965000">
        <ele>498.50</ele>
        <time>2013-07-27T09:25:07Z</time>
      </trkpt>
      <trkpt lat="42.394890000" lon="-2.416949000">
        <ele>498.60</ele>
        <time>2013-07-27T09:25:08Z</time>
      </trkpt>
      <trkpt lat="42.394859000" lon="-2.416934000">
        <ele>498.70</ele>
        <time>2013-07-27T09:25:09Z</time>
      </trkpt>
      <trkpt lat="42.394827000" lon="-2.416919000">
        <ele>498.70</ele>
        <time>2013-07-27T09:25:10Z</time>
      </trkpt>
      <trkpt lat="42.394797000" lon="-2.416905000">
        <ele>499.00</ele>
        <time>2013-07-27T09:25:11Z</time>
      </trkpt>
      <trkpt lat="42.394766000" lon="-2.416890000">
        <ele>499.20</ele>
        <time>2013-07-27T09:25:12Z</time>
      </trkpt>
      <trkpt lat="42.394737000" lon="-2.416880000">
        <ele>499.20</ele>
        <time>2013-07-27T09:25:13Z</time>
      </trkpt>
      <trkpt lat="42.394706000" lon="-2.416870000">
        <ele>499.20</ele>
        <time>2013-07-27T09:25:14Z</time>
      </trkpt>
      <trkpt lat="42.394679000" lon="-2.416857000">
        <ele>499.10</ele>
        <time>2013-07-27T09:25:15Z</time>
      </trkpt>
      <trkpt lat="42.394648000" lon="-2.416841000">
        <ele>499.10</ele>
        <time>2013-07-27T09:25:16Z</time>
      </trkpt>
      <trkpt lat="42.394618000" lon="-2.416821000">
        <ele>499.10</ele>
        <time>2013-07-27T09:25:17Z</time>
      </trkpt>
      <trkpt lat="42.394588000" lon="-2.416803000">
        <ele>499.10</ele>
        <time>2013-07-27T09:25:18Z</time>
      </trkpt>
      <trkpt lat="42.394558000" lon="-2.416785000">
        <ele>499.50</ele>
        <time>2013-07-27T09:25:19Z</time>
      </trkpt>
      <trkpt lat="42.394527000" lon="-2.416770000">
        <ele>499.70</ele>
        <time>2013-07-27T09:25:20Z</time>
      </trkpt>
      <trkpt lat="42.394494000" lon="-2.416758000">
        <ele>499.90</ele>
        <time>2013-07-27T09:25:21Z</time>
      </trkpt>
      <trkpt lat="42.394460000" lon="-2.416745000">
        <ele>500.00</ele>
        <time>2013-07-27T09:25:22Z</time>
      </trkpt>
      <trkpt lat="42.394425000" lon="-2.416729000">
        <ele>500.00</ele>
        <time>2013-07-27T09:25:23Z</time>
      </trkpt>
      <trkpt lat="42.394388000" lon="-2.416711000">
        <ele>500.00</ele>
        <time>2013-07-27T09:25:24Z</time>
      </trkpt>
      <trkpt lat="42.394354000" lon="-2.416695000">
        <ele>499.80</ele>
        <time>2013-07-27T09:25:25Z</time>
      </trkpt>
      <trkpt lat="42.394320000" lon="-2.416674000">
        <ele>499.70</ele>
        <time>2013-07-27T09:25:26Z</time>
      </trkpt>
      <trkpt lat="42.394285000" lon="-2.416655000">
        <ele>499.60</ele>
        <time>2013-07-27T09:25:27Z</time>
      </trkpt>
      <trkpt lat="42.394251000" lon="-2.416638000">
        <ele>499.60</ele>
        <time>2013-07-27T09:25:28Z</time>
      </trkpt>
      <trkpt lat="42.394220000" lon="-2.416623000">
        <ele>499.90</ele>
        <time>2013-07-27T09:25:29Z</time>
      </trkpt>
      <trkpt lat="42.394188000" lon="-2.416607000">
        <ele>500.10</ele>
        <time>2013-07-27T09:25:30Z</time>
      </trkpt>
      <trkpt lat="42.394156000" lon="-2.416589000">
        <ele>500.20</ele>
        <time>2013-07-27T09:25:31Z</time>
      </trkpt>
      <trkpt lat="42.394123000" lon="-2.416570000">
        <ele>500.30</ele>
        <time>2013-07-27T09:25:32Z</time>
      </trkpt>
      <trkpt lat="42.394092000" lon="-2.416546000">
        <ele>500.00</ele>
        <time>2013-07-27T09:25:33Z</time>
      </trkpt>
      <trkpt lat="42.394059000" lon="-2.416521000">
        <ele>499.80</ele>
        <time>2013-07-27T09:25:34Z</time>
      </trkpt>
      <trkpt lat="42.394024000" lon="-2.416502000">
        <ele>499.60</ele>
        <time>2013-07-27T09:25:35Z</time>
      </trkpt>
      <trkpt lat="42.393991000" lon="-2.416480000">
        <ele>499.50</ele>
        <time>2013-07-27T09:25:36Z</time>
      </trkpt>
      <trkpt lat="42.393961000" lon="-2.416454000">
        <ele>499.70</ele>
        <time>2013-07-27T09:25:37Z</time>
      </trkpt>
      <trkpt lat="42.393930000" lon="-2.416430000">
        <ele>499.80</ele>
        <time>2013-07-27T09:25:38Z</time>
      </trkpt>
      <trkpt lat="42.393897000" lon="-2.416406000">
        <ele>500.00</ele>
        <time>2013-07-27T09:25:39Z</time>
      </trkpt>
      <trkpt lat="42.393867000" lon="-2.416384000">
        <ele>500.10</ele>
        <time>2013-07-27T09:25:40Z</time>
      </trkpt>
      <trkpt lat="42.393834000" lon="-2.416364000">
        <ele>500.10</ele>
        <time>2013-07-27T09:25:41Z</time>
      </trkpt>
      <trkpt lat="42.393800000" lon="-2.416345000">
        <ele>500.10</ele>
        <time>2013-07-27T09:25:42Z</time>
      </trkpt>
      <trkpt lat="42.393768000" lon="-2.416325000">
        <ele>499.90</ele>
        <time>2013-07-27T09:25:43Z</time>
      </trkpt>
      <trkpt lat="42.393734000" lon="-2.416306000">
        <ele>499.90</ele>
        <time>2013-07-27T09:25:44Z</time>
      </trkpt>
      <trkpt lat="42.393702000" lon="-2.416289000">
        <ele>499.80</ele>
        <time>2013-07-27T09:25:45Z</time>
      </trkpt>
      <trkpt lat="42.393668000" lon="-2.416275000">
        <ele>499.80</ele>
        <time>2013-07-27T09:25:46Z</time>
      </trkpt>
      <trkpt lat="42.393633000" lon="-2.416262000">
        <ele>499.80</ele>
        <time>2013-07-27T09:25:47Z</time>
      </trkpt>
      <trkpt lat="42.393602000" lon="-2.416247000">
        <ele>499.80</ele>
        <time>2013-07-27T09:25:48Z</time>
      </trkpt>
      <trkpt lat="42.393568000" lon="-2.416232000">
        <ele>500.20</ele>
        <time>2013-07-27T09:25:49Z</time>
      </trkpt>
      <trkpt lat="42.393532000" lon="-2.416214000">
        <ele>500.40</ele>
        <time>2013-07-27T09:25:50Z</time>
      </trkpt>
      <trkpt lat="42.393498000" lon="-2.416201000">
        <ele>500.60</ele>
        <time>2013-07-27T09:25:51Z</time>
      </trkpt>
      <trkpt lat="42.393464000" lon="-2.416186000">
        <ele>500.70</ele>
        <time>2013-07-27T09:25:52Z</time>
      </trkpt>
      <trkpt lat="42.393426000" lon="-2.416173000">
        <ele>500.80</ele>
        <time>2013-07-27T09:25:53Z</time>
      </trkpt>
      <trkpt lat="42.393390000" lon="-2.416163000">
        <ele>500.90</ele>
        <time>2013-07-27T09:25:54Z</time>
      </trkpt>
      <trkpt lat="42.393352000" lon="-2.416148000">
        <ele>500.80</ele>
        <time>2013-07-27T09:25:55Z</time>
      </trkpt>
      <trkpt lat="42.393314000" lon="-2.416131000">
        <ele>500.70</ele>
        <time>2013-07-27T09:25:56Z</time>
      </trkpt>
      <trkpt lat="42.393277000" lon="-2.416110000">
        <ele>500.60</ele>
        <time>2013-07-27T09:25:57Z</time>
      </trkpt>
      <trkpt lat="42.393240000" lon="-2.416087000">
        <ele>500.50</ele>
        <time>2013-07-27T09:25:58Z</time>
      </trkpt>
      <trkpt lat="42.393202000" lon="-2.416065000">
        <ele>500.40</ele>
        <time>2013-07-27T09:25:59Z</time>
      </trkpt>
      <trkpt lat="42.393165000" lon="-2.416042000">
        <ele>500.40</ele>
        <time>2013-07-27T09:26:00Z</time>
      </trkpt>
      <trkpt lat="42.393126000" lon="-2.416017000">
        <ele>500.40</ele>
        <time>2013-07-27T09:26:01Z</time>
      </trkpt>
      <trkpt lat="42.393087000" lon="-2.415992000">
        <ele>500.30</ele>
        <time>2013-07-27T09:26:02Z</time>
      </trkpt>
      <trkpt lat="42.393048000" lon="-2.415963000">
        <ele>500.30</ele>
        <time>2013-07-27T09:26:03Z</time>
      </trkpt>
      <trkpt lat="42.393008000" lon="-2.415934000">
        <ele>500.30</ele>
        <time>2013-07-27T09:26:04Z</time>
      </trkpt>
      <trkpt lat="42.392969000" lon="-2.415903000">
        <ele>500.30</ele>
        <time>2013-07-27T09:26:05Z</time>
      </trkpt>
      <trkpt lat="42.392931000" lon="-2.415871000">
        <ele>500.30</ele>
        <time>2013-07-27T09:26:06Z</time>
      </trkpt>
      <trkpt lat="42.392896000" lon="-2.415838000">
        <ele>500.30</ele>
        <time>2013-07-27T09:26:07Z</time>
      </trkpt>
      <trkpt lat="42.392861000" lon="-2.415804000">
        <ele>500.30</ele>
        <time>2013-07-27T09:26:08Z</time>
      </trkpt>
      <trkpt lat="42.392823000" lon="-2.415768000">
        <ele>499.90</ele>
        <time>2013-07-27T09:26:09Z</time>
      </trkpt>
      <trkpt lat="42.392788000" lon="-2.415730000">
        <ele>499.70</ele>
        <time>2013-07-27T09:26:10Z</time>
      </trkpt>
      <trkpt lat="42.392749000" lon="-2.415692000">
        <ele>499.50</ele>
        <time>2013-07-27T09:26:11Z</time>
      </trkpt>
      <trkpt lat="42.392716000" lon="-2.415651000">
        <ele>499.40</ele>
        <time>2013-07-27T09:26:12Z</time>
      </trkpt>
      <trkpt lat="42.392680000" lon="-2.415605000">
        <ele>499.50</ele>
        <time>2013-07-27T09:26:13Z</time>
      </trkpt>
      <trkpt lat="42.392650000" lon="-2.415562000">
        <ele>499.50</ele>
        <time>2013-07-27T09:26:14Z</time>
      </trkpt>
      <trkpt lat="42.392624000" lon="-2.415520000">
        <ele>499.60</ele>
        <time>2013-07-27T09:26:15Z</time>
      </trkpt>
      <trkpt lat="42.392599000" lon="-2.415476000">
        <ele>499.60</ele>
        <time>2013-07-27T09:26:16Z</time>
      </trkpt>
      <trkpt lat="42.392575000" lon="-2.415431000">
        <ele>499.60</ele>
        <time>2013-07-27T09:26:17Z</time>
      </trkpt>
      <trkpt lat="42.392551000" lon="-2.415388000">
        <ele>499.60</ele>
        <time>2013-07-27T09:26:18Z</time>
      </trkpt>
      <trkpt lat="42.392533000" lon="-2.415350000">
        <ele>499.30</ele>
        <time>2013-07-27T09:26:19Z</time>
      </trkpt>
      <trkpt lat="42.392516000" lon="-2.415313000">
        <ele>499.10</ele>
        <time>2013-07-27T09:26:20Z</time>
      </trkpt>
      <trkpt lat="42.392500000" lon="-2.415280000">
        <ele>498.90</ele>
        <time>2013-07-27T09:26:21Z</time>
      </trkpt>
      <trkpt lat="42.392484000" lon="-2.415254000">
        <ele>498.80</ele>
        <time>2013-07-27T09:26:22Z</time>
      </trkpt>
      <trkpt lat="42.392470000" lon="-2.415223000">
        <ele>498.60</ele>
        <time>2013-07-27T09:26:23Z</time>
      </trkpt>
      <trkpt lat="42.392460000" lon="-2.415189000">
        <ele>498.50</ele>
        <time>2013-07-27T09:26:24Z</time>
      </trkpt>
      <trkpt lat="42.392451000" lon="-2.415157000">
        <ele>498.30</ele>
        <time>2013-07-27T09:26:25Z</time>
      </trkpt>
      <trkpt lat="42.392437000" lon="-2.415133000">
        <ele>498.20</ele>
        <time>2013-07-27T09:26:26Z</time>
      </trkpt>
      <trkpt lat="42.392422000" lon="-2.415112000">
        <ele>498.00</ele>
        <time>2013-07-27T09:26:27Z</time>
      </trkpt>
      <trkpt lat="42.392403000" lon="-2.415092000">
        <ele>497.90</ele>
        <time>2013-07-27T09:26:28Z</time>
      </trkpt>
      <trkpt lat="42.392383000" lon="-2.415082000">
        <ele>497.80</ele>
        <time>2013-07-27T09:26:29Z</time>
      </trkpt>
      <trkpt lat="42.392361000" lon="-2.415073000">
        <ele>497.70</ele>
        <time>2013-07-27T09:26:30Z</time>
      </trkpt>
      <trkpt lat="42.392342000" lon="-2.415060000">
        <ele>497.70</ele>
        <time>2013-07-27T09:26:31Z</time>
      </trkpt>
      <trkpt lat="42.392321000" lon="-2.415050000">
        <ele>497.70</ele>
        <time>2013-07-27T09:26:32Z</time>
      </trkpt>
      <trkpt lat="42.392296000" lon="-2.415031000">
        <ele>497.60</ele>
        <time>2013-07-27T09:26:33Z</time>
      </trkpt>
      <trkpt lat="42.392269000" lon="-2.415012000">
        <ele>497.60</ele>
        <time>2013-07-27T09:26:34Z</time>
      </trkpt>
      <trkpt lat="42.392243000" lon="-2.414992000">
        <ele>497.50</ele>
        <time>2013-07-27T09:26:35Z</time>
      </trkpt>
      <trkpt lat="42.392215000" lon="-2.414971000">
        <ele>497.30</ele>
        <time>2013-07-27T09:26:36Z</time>
      </trkpt>
      <trkpt lat="42.392189000" lon="-2.414950000">
        <ele>497.30</ele>
        <time>2013-07-27T09:26:37Z</time>
      </trkpt>
      <trkpt lat="42.392163000" lon="-2.414926000">
        <ele>497.30</ele>
        <time>2013-07-27T09:26:38Z</time>
      </trkpt>
      <trkpt lat="42.392140000" lon="-2.414903000">
        <ele>497.30</ele>
        <time>2013-07-27T09:26:39Z</time>
      </trkpt>
      <trkpt lat="42.392117000" lon="-2.414878000">
        <ele>497.20</ele>
        <time>2013-07-27T09:26:40Z</time>
      </trkpt>
      <trkpt lat="42.392094000" lon="-2.414851000">
        <ele>497.20</ele>
        <time>2013-07-27T09:26:41Z</time>
      </trkpt>
      <trkpt lat="42.392068000" lon="-2.414828000">
        <ele>497.20</ele>
        <time>2013-07-27T09:26:42Z</time>
      </trkpt>
      <trkpt lat="42.392043000" lon="-2.414808000">
        <ele>497.40</ele>
        <time>2013-07-27T09:26:43Z</time>
      </trkpt>
      <trkpt lat="42.392021000" lon="-2.414787000">
        <ele>497.60</ele>
        <time>2013-07-27T09:26:44Z</time>
      </trkpt>
      <trkpt lat="42.391995000" lon="-2.414767000">
        <ele>497.70</ele>
        <time>2013-07-27T09:26:45Z</time>
      </trkpt>
      <trkpt lat="42.391972000" lon="-2.414748000">
        <ele>497.70</ele>
        <time>2013-07-27T09:26:46Z</time>
      </trkpt>
      <trkpt lat="42.391954000" lon="-2.414724000">
        <ele>497.80</ele>
        <time>2013-07-27T09:26:47Z</time>
      </trkpt>
      <trkpt lat="42.391934000" lon="-2.414702000">
        <ele>497.80</ele>
        <time>2013-07-27T09:26:48Z</time>
      </trkpt>
      <trkpt lat="42.391907000" lon="-2.414678000">
        <ele>497.90</ele>
        <time>2013-07-27T09:26:49Z</time>
      </trkpt>
      <trkpt lat="42.391879000" lon="-2.414658000">
        <ele>497.90</ele>
        <time>2013-07-27T09:26:50Z</time>
      </trkpt>
      <trkpt lat="42.391851000" lon="-2.414637000">
        <ele>497.90</ele>
        <time>2013-07-27T09:26:51Z</time>
      </trkpt>
      <trkpt lat="42.391824000" lon="-2.414610000">
        <ele>497.90</ele>
        <time>2013-07-27T09:26:52Z</time>
      </trkpt>
      <trkpt lat="42.391792000" lon="-2.414582000">
        <ele>497.80</ele>
        <time>2013-07-27T09:26:53Z</time>
      </trkpt>
      <trkpt lat="42.391760000" lon="-2.414553000">
        <ele>497.60</ele>
        <time>2013-07-27T09:26:54Z</time>
      </trkpt>
      <trkpt lat="42.391733000" lon="-2.414528000">
        <ele>497.80</ele>
        <time>2013-07-27T09:26:55Z</time>
      </trkpt>
      <trkpt lat="42.391702000" lon="-2.414505000">
        <ele>497.90</ele>
        <time>2013-07-27T09:26:56Z</time>
      </trkpt>
      <trkpt lat="42.391671000" lon="-2.414480000">
        <ele>497.80</ele>
        <time>2013-07-27T09:26:57Z</time>
      </trkpt>
      <trkpt lat="42.391641000" lon="-2.414454000">
        <ele>497.70</ele>
        <time>2013-07-27T09:26:58Z</time>
      </trkpt>
      <trkpt lat="42.391610000" lon="-2.414430000">
        <ele>497.60</ele>
        <time>2013-07-27T09:26:59Z</time>
      </trkpt>
      <trkpt lat="42.391583000" lon="-2.414408000">
        <ele>497.60</ele>
        <time>2013-07-27T09:27:00Z</time>
      </trkpt>
      <trkpt lat="42.391561000" lon="-2.414390000">
        <ele>497.60</ele>
        <time>2013-07-27T09:27:01Z</time>
      </trkpt>
      <trkpt lat="42.391537000" lon="-2.414370000">
        <ele>497.50</ele>
        <time>2013-07-27T09:27:02Z</time>
      </trkpt>
      <trkpt lat="42.391517000" lon="-2.414349000">
        <ele>497.40</ele>
        <time>2013-07-27T09:27:03Z</time>
      </trkpt>
      <trkpt lat="42.391492000" lon="-2.414331000">
        <ele>497.20</ele>
        <time>2013-07-27T09:27:04Z</time>
      </trkpt>
      <trkpt lat="42.391468000" lon="-2.414314000">
        <ele>497.30</ele>
        <time>2013-07-27T09:27:05Z</time>
      </trkpt>
      <trkpt lat="42.391439000" lon="-2.414303000">
        <ele>497.40</ele>
        <time>2013-07-27T09:27:06Z</time>
      </trkpt>
      <trkpt lat="42.391413000" lon="-2.414286000">
        <ele>497.50</ele>
        <time>2013-07-27T09:27:07Z</time>
      </trkpt>
      <trkpt lat="42.391385000" lon="-2.414264000">
        <ele>497.60</ele>
        <time>2013-07-27T09:27:08Z</time>
      </trkpt>
      <trkpt lat="42.391359000" lon="-2.414239000">
        <ele>497.70</ele>
        <time>2013-07-27T09:27:09Z</time>
      </trkpt>
      <trkpt lat="42.391334000" lon="-2.414214000">
        <ele>497.70</ele>
        <time>2013-07-27T09:27:10Z</time>
      </trkpt>
      <trkpt lat="42.391309000" lon="-2.414185000">
        <ele>497.40</ele>
        <time>2013-07-27T09:27:11Z</time>
      </trkpt>
      <trkpt lat="42.391289000" lon="-2.414158000">
        <ele>497.10</ele>
        <time>2013-07-27T09:27:12Z</time>
      </trkpt>
      <trkpt lat="42.391267000" lon="-2.414134000">
        <ele>496.90</ele>
        <time>2013-07-27T09:27:13Z</time>
      </trkpt>
      <trkpt lat="42.391245000" lon="-2.414114000">
        <ele>496.80</ele>
        <time>2013-07-27T09:27:14Z</time>
      </trkpt>
      <trkpt lat="42.391218000" lon="-2.414093000">
        <ele>496.90</ele>
        <time>2013-07-27T09:27:15Z</time>
      </trkpt>
      <trkpt lat="42.391190000" lon="-2.414069000">
        <ele>497.00</ele>
        <time>2013-07-27T09:27:16Z</time>
      </trkpt>
      <trkpt lat="42.391158000" lon="-2.414047000">
        <ele>497.10</ele>
        <time>2013-07-27T09:27:17Z</time>
      </trkpt>
      <trkpt lat="42.391127000" lon="-2.414025000">
        <ele>497.20</ele>
        <time>2013-07-27T09:27:18Z</time>
      </trkpt>
      <trkpt lat="42.391093000" lon="-2.414004000">
        <ele>497.30</ele>
        <time>2013-07-27T09:27:19Z</time>
      </trkpt>
      <trkpt lat="42.391060000" lon="-2.413983000">
        <ele>497.40</ele>
        <time>2013-07-27T09:27:20Z</time>
      </trkpt>
      <trkpt lat="42.391024000" lon="-2.413962000">
        <ele>497.40</ele>
        <time>2013-07-27T09:27:21Z</time>
      </trkpt>
      <trkpt lat="42.390990000" lon="-2.413945000">
        <ele>497.40</ele>
        <time>2013-07-27T09:27:22Z</time>
      </trkpt>
      <trkpt lat="42.390958000" lon="-2.413931000">
        <ele>497.10</ele>
        <time>2013-07-27T09:27:23Z</time>
      </trkpt>
      <trkpt lat="42.390925000" lon="-2.413919000">
        <ele>496.90</ele>
        <time>2013-07-27T09:27:24Z</time>
      </trkpt>
      <trkpt lat="42.390889000" lon="-2.413906000">
        <ele>496.80</ele>
        <time>2013-07-27T09:27:25Z</time>
      </trkpt>
      <trkpt lat="42.390856000" lon="-2.413888000">
        <ele>496.70</ele>
        <time>2013-07-27T09:27:26Z</time>
      </trkpt>
      <trkpt lat="42.390824000" lon="-2.413874000">
        <ele>497.40</ele>
        <time>2013-07-27T09:27:27Z</time>
      </trkpt>
      <trkpt lat="42.390791000" lon="-2.413856000">
        <ele>497.90</ele>
        <time>2013-07-27T09:27:28Z</time>
      </trkpt>
      <trkpt lat="42.390758000" lon="-2.413832000">
        <ele>498.30</ele>
        <time>2013-07-27T09:27:29Z</time>
      </trkpt>
      <trkpt lat="42.390726000" lon="-2.413812000">
        <ele>498.60</ele>
        <time>2013-07-27T09:27:30Z</time>
      </trkpt>
      <trkpt lat="42.390694000" lon="-2.413788000">
        <ele>498.50</ele>
        <time>2013-07-27T09:27:31Z</time>
      </trkpt>
      <trkpt lat="42.390665000" lon="-2.413765000">
        <ele>498.40</ele>
        <time>2013-07-27T09:27:32Z</time>
      </trkpt>
      <trkpt lat="42.390636000" lon="-2.413740000">
        <ele>498.10</ele>
        <time>2013-07-27T09:27:33Z</time>
      </trkpt>
      <trkpt lat="42.390609000" lon="-2.413709000">
        <ele>497.90</ele>
        <time>2013-07-27T09:27:34Z</time>
      </trkpt>
      <trkpt lat="42.390583000" lon="-2.413679000">
        <ele>497.70</ele>
        <time>2013-07-27T09:27:35Z</time>
      </trkpt>
      <trkpt lat="42.390557000" lon="-2.413649000">
        <ele>497.60</ele>
        <time>2013-07-27T09:27:36Z</time>
      </trkpt>
      <trkpt lat="42.390529000" lon="-2.413620000">
        <ele>497.50</ele>
        <time>2013-07-27T09:27:37Z</time>
      </trkpt>
      <trkpt lat="42.390502000" lon="-2.413595000">
        <ele>497.50</ele>
        <time>2013-07-27T09:27:38Z</time>
      </trkpt>
      <trkpt lat="42.390475000" lon="-2.413566000">
        <ele>497.40</ele>
        <time>2013-07-27T09:27:39Z</time>
      </trkpt>
      <trkpt lat="42.390450000" lon="-2.413539000">
        <ele>497.40</ele>
        <time>2013-07-27T09:27:40Z</time>
      </trkpt>
      <trkpt lat="42.390422000" lon="-2.413506000">
        <ele>497.40</ele>
        <time>2013-07-27T09:27:41Z</time>
      </trkpt>
      <trkpt lat="42.390395000" lon="-2.413472000">
        <ele>497.30</ele>
        <time>2013-07-27T09:27:42Z</time>
      </trkpt>
      <trkpt lat="42.390370000" lon="-2.413438000">
        <ele>497.30</ele>
        <time>2013-07-27T09:27:43Z</time>
      </trkpt>
      <trkpt lat="42.390346000" lon="-2.413406000">
        <ele>497.30</ele>
        <time>2013-07-27T09:27:44Z</time>
      </trkpt>
      <trkpt lat="42.390315000" lon="-2.413376000">
        <ele>497.30</ele>
        <time>2013-07-27T09:27:45Z</time>
      </trkpt>
      <trkpt lat="42.390287000" lon="-2.413350000">
        <ele>497.30</ele>
        <time>2013-07-27T09:27:46Z</time>
      </trkpt>
      <trkpt lat="42.390263000" lon="-2.413321000">
        <ele>497.30</ele>
        <time>2013-07-27T09:27:47Z</time>
      </trkpt>
      <trkpt lat="42.390239000" lon="-2.413292000">
        <ele>497.30</ele>
        <time>2013-07-27T09:27:48Z</time>
      </trkpt>
      <trkpt lat="42.390213000" lon="-2.413265000">
        <ele>497.30</ele>
        <time>2013-07-27T09:27:49Z</time>
      </trkpt>
      <trkpt lat="42.390187000" lon="-2.413234000">
        <ele>497.30</ele>
        <time>2013-07-27T09:27:50Z</time>
      </trkpt>
      <trkpt lat="42.390156000" lon="-2.413206000">
        <ele>497.20</ele>
        <time>2013-07-27T09:27:51Z</time>
      </trkpt>
      <trkpt lat="42.390125000" lon="-2.413182000">
        <ele>497.20</ele>
        <time>2013-07-27T09:27:52Z</time>
      </trkpt>
      <trkpt lat="42.390095000" lon="-2.413154000">
        <ele>497.10</ele>
        <time>2013-07-27T09:27:53Z</time>
      </trkpt>
      <trkpt lat="42.390064000" lon="-2.413127000">
        <ele>497.10</ele>
        <time>2013-07-27T09:27:54Z</time>
      </trkpt>
      <trkpt lat="42.390034000" lon="-2.413104000">
        <ele>497.10</ele>
        <time>2013-07-27T09:27:55Z</time>
      </trkpt>
      <trkpt lat="42.390003000" lon="-2.413079000">
        <ele>497.10</ele>
        <time>2013-07-27T09:27:56Z</time>
      </trkpt>
      <trkpt lat="42.389975000" lon="-2.413052000">
        <ele>497.20</ele>
        <time>2013-07-27T09:27:57Z</time>
      </trkpt>
      <trkpt lat="42.389946000" lon="-2.413022000">
        <ele>497.20</ele>
        <time>2013-07-27T09:27:58Z</time>
      </trkpt>
      <trkpt lat="42.389916000" lon="-2.412994000">
        <ele>497.20</ele>
        <time>2013-07-27T09:27:59Z</time>
      </trkpt>
      <trkpt lat="42.389884000" lon="-2.412966000">
        <ele>497.20</ele>
        <time>2013-07-27T09:28:00Z</time>
      </trkpt>
      <trkpt lat="42.389852000" lon="-2.412938000">
        <ele>496.90</ele>
        <time>2013-07-27T09:28:01Z</time>
      </trkpt>
      <trkpt lat="42.389821000" lon="-2.412910000">
        <ele>496.60</ele>
        <time>2013-07-27T09:28:02Z</time>
      </trkpt>
      <trkpt lat="42.389787000" lon="-2.412884000">
        <ele>497.00</ele>
        <time>2013-07-27T09:28:03Z</time>
      </trkpt>
      <trkpt lat="42.389751000" lon="-2.412857000">
        <ele>497.30</ele>
        <time>2013-07-27T09:28:04Z</time>
      </trkpt>
      <trkpt lat="42.389717000" lon="-2.412829000">
        <ele>497.00</ele>
        <time>2013-07-27T09:28:05Z</time>
      </trkpt>
      <trkpt lat="42.389679000" lon="-2.412802000">
        <ele>496.70</ele>
        <time>2013-07-27T09:28:06Z</time>
      </trkpt>
      <trkpt lat="42.389645000" lon="-2.412775000">
        <ele>496.60</ele>
        <time>2013-07-27T09:28:07Z</time>
      </trkpt>
      <trkpt lat="42.389613000" lon="-2.412751000">
        <ele>496.60</ele>
        <time>2013-07-27T09:28:08Z</time>
      </trkpt>
      <trkpt lat="42.389579000" lon="-2.412725000">
        <ele>496.40</ele>
        <time>2013-07-27T09:28:09Z</time>
      </trkpt>
      <trkpt lat="42.389549000" lon="-2.412700000">
        <ele>496.30</ele>
        <time>2013-07-27T09:28:10Z</time>
      </trkpt>
      <trkpt lat="42.389522000" lon="-2.412673000">
        <ele>496.30</ele>
        <time>2013-07-27T09:28:11Z</time>
      </trkpt>
      <trkpt lat="42.389495000" lon="-2.412651000">
        <ele>496.30</ele>
        <time>2013-07-27T09:28:12Z</time>
      </trkpt>
      <trkpt lat="42.389463000" lon="-2.412625000">
        <ele>496.30</ele>
        <time>2013-07-27T09:28:13Z</time>
      </trkpt>
      <trkpt lat="42.389428000" lon="-2.412596000">
        <ele>496.40</ele>
        <time>2013-07-27T09:28:14Z</time>
      </trkpt>
      <trkpt lat="42.389399000" lon="-2.412570000">
        <ele>496.70</ele>
        <time>2013-07-27T09:28:15Z</time>
      </trkpt>
      <trkpt lat="42.389369000" lon="-2.412544000">
        <ele>497.00</ele>
        <time>2013-07-27T09:28:16Z</time>
      </trkpt>
      <trkpt lat="42.389342000" lon="-2.412520000">
        <ele>497.10</ele>
        <time>2013-07-27T09:28:17Z</time>
      </trkpt>
      <trkpt lat="42.389309000" lon="-2.412497000">
        <ele>497.30</ele>
        <time>2013-07-27T09:28:18Z</time>
      </trkpt>
      <trkpt lat="42.389281000" lon="-2.412468000">
        <ele>497.30</ele>
        <time>2013-07-27T09:28:19Z</time>
      </trkpt>
      <trkpt lat="42.389250000" lon="-2.412438000">
        <ele>497.40</ele>
        <time>2013-07-27T09:28:20Z</time>
      </trkpt>
      <trkpt lat="42.389222000" lon="-2.412408000">
        <ele>497.20</ele>
        <time>2013-07-27T09:28:21Z</time>
      </trkpt>
      <trkpt lat="42.389192000" lon="-2.412376000">
        <ele>497.10</ele>
        <time>2013-07-27T09:28:22Z</time>
      </trkpt>
      <trkpt lat="42.389162000" lon="-2.412341000">
        <ele>496.90</ele>
        <time>2013-07-27T09:28:23Z</time>
      </trkpt>
      <trkpt lat="42.389132000" lon="-2.412302000">
        <ele>496.80</ele>
        <time>2013-07-27T09:28:24Z</time>
      </trkpt>
      <trkpt lat="42.389102000" lon="-2.412267000">
        <ele>496.80</ele>
        <time>2013-07-27T09:28:25Z</time>
      </trkpt>
      <trkpt lat="42.389071000" lon="-2.412235000">
        <ele>496.80</ele>
        <time>2013-07-27T09:28:26Z</time>
      </trkpt>
      <trkpt lat="42.389039000" lon="-2.412203000">
        <ele>496.90</ele>
        <time>2013-07-27T09:28:27Z</time>
      </trkpt>
      <trkpt lat="42.389009000" lon="-2.412167000">
        <ele>496.90</ele>
        <time>2013-07-27T09:28:28Z</time>
      </trkpt>
      <trkpt lat="42.388979000" lon="-2.412131000">
        <ele>497.00</ele>
        <time>2013-07-27T09:28:29Z</time>
      </trkpt>
      <trkpt lat="42.388947000" lon="-2.412094000">
        <ele>497.00</ele>
        <time>2013-07-27T09:28:30Z</time>
      </trkpt>
      <trkpt lat="42.388914000" lon="-2.412064000">
        <ele>497.10</ele>
        <time>2013-07-27T09:28:31Z</time>
      </trkpt>
      <trkpt lat="42.388886000" lon="-2.412027000">
        <ele>497.20</ele>
        <time>2013-07-27T09:28:32Z</time>
      </trkpt>
      <trkpt lat="42.388856000" lon="-2.411991000">
        <ele>497.20</ele>
        <time>2013-07-27T09:28:33Z</time>
      </trkpt>
      <trkpt lat="42.388822000" lon="-2.411956000">
        <ele>497.30</ele>
        <time>2013-07-27T09:28:34Z</time>
      </trkpt>
      <trkpt lat="42.388793000" lon="-2.411917000">
        <ele>497.40</ele>
        <time>2013-07-27T09:28:35Z</time>
      </trkpt>
      <trkpt lat="42.388765000" lon="-2.411882000">
        <ele>497.50</ele>
        <time>2013-07-27T09:28:36Z</time>
      </trkpt>
      <trkpt lat="42.388734000" lon="-2.411850000">
        <ele>497.60</ele>
        <time>2013-07-27T09:28:37Z</time>
      </trkpt>
      <trkpt lat="42.388709000" lon="-2.411819000">
        <ele>497.70</ele>
        <time>2013-07-27T09:28:38Z</time>
      </trkpt>
      <trkpt lat="42.388681000" lon="-2.411792000">
        <ele>497.40</ele>
        <time>2013-07-27T09:28:39Z</time>
      </trkpt>
      <trkpt lat="42.388653000" lon="-2.411756000">
        <ele>497.20</ele>
        <time>2013-07-27T09:28:40Z</time>
      </trkpt>
      <trkpt lat="42.388623000" lon="-2.411728000">
        <ele>497.00</ele>
        <time>2013-07-27T09:28:41Z</time>
      </trkpt>
      <trkpt lat="42.388596000" lon="-2.411699000">
        <ele>496.90</ele>
        <time>2013-07-27T09:28:42Z</time>
      </trkpt>
      <trkpt lat="42.388567000" lon="-2.411672000">
        <ele>497.10</ele>
        <time>2013-07-27T09:28:43Z</time>
      </trkpt>
      <trkpt lat="42.388538000" lon="-2.411640000">
        <ele>497.20</ele>
        <time>2013-07-27T09:28:44Z</time>
      </trkpt>
      <trkpt lat="42.388510000" lon="-2.411608000">
        <ele>497.30</ele>
        <time>2013-07-27T09:28:45Z</time>
      </trkpt>
      <trkpt lat="42.388480000" lon="-2.411577000">
        <ele>497.40</ele>
        <time>2013-07-27T09:28:46Z</time>
      </trkpt>
      <trkpt lat="42.388452000" lon="-2.411545000">
        <ele>497.50</ele>
        <time>2013-07-27T09:28:47Z</time>
      </trkpt>
      <trkpt lat="42.388423000" lon="-2.411515000">
        <ele>497.60</ele>
        <time>2013-07-27T09:28:48Z</time>
      </trkpt>
      <trkpt lat="42.388395000" lon="-2.411481000">
        <ele>497.60</ele>
        <time>2013-07-27T09:28:49Z</time>
      </trkpt>
      <trkpt lat="42.388367000" lon="-2.411448000">
        <ele>497.60</ele>
        <time>2013-07-27T09:28:50Z</time>
      </trkpt>
      <trkpt lat="42.388340000" lon="-2.411417000">
        <ele>497.70</ele>
        <time>2013-07-27T09:28:51Z</time>
      </trkpt>
      <trkpt lat="42.388314000" lon="-2.411385000">
        <ele>497.70</ele>
        <time>2013-07-27T09:28:52Z</time>
      </trkpt>
      <trkpt lat="42.388288000" lon="-2.411354000">
        <ele>497.70</ele>
        <time>2013-07-27T09:28:53Z</time>
      </trkpt>
      <trkpt lat="42.388262000" lon="-2.411319000">
        <ele>497.60</ele>
        <time>2013-07-27T09:28:54Z</time>
      </trkpt>
      <trkpt lat="42.388234000" lon="-2.411286000">
        <ele>497.60</ele>
        <time>2013-07-27T09:28:55Z</time>
      </trkpt>
      <trkpt lat="42.388207000" lon="-2.411253000">
        <ele>497.60</ele>
        <time>2013-07-27T09:28:56Z</time>
      </trkpt>
      <trkpt lat="42.388183000" lon="-2.411218000">
        <ele>497.50</ele>
        <time>2013-07-27T09:28:57Z</time>
      </trkpt>
      <trkpt lat="42.388157000" lon="-2.411182000">
        <ele>497.30</ele>
        <time>2013-07-27T09:28:58Z</time>
      </trkpt>
      <trkpt lat="42.388134000" lon="-2.411147000">
        <ele>497.40</ele>
        <time>2013-07-27T09:28:59Z</time>
      </trkpt>
      <trkpt lat="42.388111000" lon="-2.411111000">
        <ele>497.40</ele>
        <time>2013-07-27T09:29:00Z</time>
      </trkpt>
      <trkpt lat="42.388085000" lon="-2.411073000">
        <ele>497.30</ele>
        <time>2013-07-27T09:29:01Z</time>
      </trkpt>
      <trkpt lat="42.388062000" lon="-2.411040000">
        <ele>497.30</ele>
        <time>2013-07-27T09:29:02Z</time>
      </trkpt>
      <trkpt lat="42.388036000" lon="-2.411007000">
        <ele>497.30</ele>
        <time>2013-07-27T09:29:03Z</time>
      </trkpt>
      <trkpt lat="42.388012000" lon="-2.410974000">
        <ele>497.40</ele>
        <time>2013-07-27T09:29:04Z</time>
      </trkpt>
      <trkpt lat="42.387988000" lon="-2.410942000">
        <ele>497.60</ele>
        <time>2013-07-27T09:29:05Z</time>
      </trkpt>
      <trkpt lat="42.387964000" lon="-2.410905000">
        <ele>497.70</ele>
        <time>2013-07-27T09:29:06Z</time>
      </trkpt>
      <trkpt lat="42.387939000" lon="-2.410871000">
        <ele>497.80</ele>
        <time>2013-07-27T09:29:07Z</time>
      </trkpt>
      <trkpt lat="42.387914000" lon="-2.410841000">
        <ele>497.90</ele>
        <time>2013-07-27T09:29:08Z</time>
      </trkpt>
      <trkpt lat="42.387892000" lon="-2.410807000">
        <ele>498.00</ele>
        <time>2013-07-27T09:29:09Z</time>
      </trkpt>
      <trkpt lat="42.387871000" lon="-2.410776000">
        <ele>498.10</ele>
        <time>2013-07-27T09:29:10Z</time>
      </trkpt>
      <trkpt lat="42.387847000" lon="-2.410748000">
        <ele>498.10</ele>
        <time>2013-07-27T09:29:11Z</time>
      </trkpt>
      <trkpt lat="42.387824000" lon="-2.410713000">
        <ele>498.20</ele>
        <time>2013-07-27T09:29:12Z</time>
      </trkpt>
      <trkpt lat="42.387801000" lon="-2.410678000">
        <ele>498.20</ele>
        <time>2013-07-27T09:29:13Z</time>
      </trkpt>
      <trkpt lat="42.387779000" lon="-2.410642000">
        <ele>498.20</ele>
        <time>2013-07-27T09:29:14Z</time>
      </trkpt>
      <trkpt lat="42.387755000" lon="-2.410608000">
        <ele>497.90</ele>
        <time>2013-07-27T09:29:15Z</time>
      </trkpt>
      <trkpt lat="42.387732000" lon="-2.410576000">
        <ele>497.70</ele>
        <time>2013-07-27T09:29:16Z</time>
      </trkpt>
      <trkpt lat="42.387709000" lon="-2.410546000">
        <ele>497.50</ele>
        <time>2013-07-27T09:29:17Z</time>
      </trkpt>
      <trkpt lat="42.387686000" lon="-2.410513000">
        <ele>497.40</ele>
        <time>2013-07-27T09:29:18Z</time>
      </trkpt>
      <trkpt lat="42.387666000" lon="-2.410479000">
        <ele>497.80</ele>
        <time>2013-07-27T09:29:19Z</time>
      </trkpt>
      <trkpt lat="42.387640000" lon="-2.410455000">
        <ele>498.20</ele>
        <time>2013-07-27T09:29:20Z</time>
      </trkpt>
      <trkpt lat="42.387619000" lon="-2.410428000">
        <ele>498.50</ele>
        <time>2013-07-27T09:29:21Z</time>
      </trkpt>
      <trkpt lat="42.387598000" lon="-2.410402000">
        <ele>498.80</ele>
        <time>2013-07-27T09:29:22Z</time>
      </trkpt>
      <trkpt lat="42.387577000" lon="-2.410378000">
        <ele>499.20</ele>
        <time>2013-07-27T09:29:23Z</time>
      </trkpt>
      <trkpt lat="42.387555000" lon="-2.410356000">
        <ele>499.40</ele>
        <time>2013-07-27T09:29:24Z</time>
      </trkpt>
      <trkpt lat="42.387527000" lon="-2.410336000">
        <ele>499.60</ele>
        <time>2013-07-27T09:29:25Z</time>
      </trkpt>
      <trkpt lat="42.387502000" lon="-2.410311000">
        <ele>499.70</ele>
        <time>2013-07-27T09:29:26Z</time>
      </trkpt>
      <trkpt lat="42.387479000" lon="-2.410287000">
        <ele>499.90</ele>
        <time>2013-07-27T09:29:27Z</time>
      </trkpt>
      <trkpt lat="42.387454000" lon="-2.410262000">
        <ele>499.90</ele>
        <time>2013-07-27T09:29:28Z</time>
      </trkpt>
      <trkpt lat="42.387428000" lon="-2.410239000">
        <ele>500.00</ele>
        <time>2013-07-27T09:29:29Z</time>
      </trkpt>
      <trkpt lat="42.387402000" lon="-2.410216000">
        <ele>500.00</ele>
        <time>2013-07-27T09:29:30Z</time>
      </trkpt>
      <trkpt lat="42.387371000" lon="-2.410196000">
        <ele>500.30</ele>
        <time>2013-07-27T09:29:31Z</time>
      </trkpt>
      <trkpt lat="42.387342000" lon="-2.410171000">
        <ele>500.60</ele>
        <time>2013-07-27T09:29:32Z</time>
      </trkpt>
      <trkpt lat="42.387317000" lon="-2.410147000">
        <ele>500.90</ele>
        <time>2013-07-27T09:29:33Z</time>
      </trkpt>
      <trkpt lat="42.387292000" lon="-2.410123000">
        <ele>501.10</ele>
        <time>2013-07-27T09:29:34Z</time>
      </trkpt>
      <trkpt lat="42.387264000" lon="-2.410099000">
        <ele>501.30</ele>
        <time>2013-07-27T09:29:35Z</time>
      </trkpt>
      <trkpt lat="42.387234000" lon="-2.410077000">
        <ele>501.40</ele>
        <time>2013-07-27T09:29:36Z</time>
      </trkpt>
      <trkpt lat="42.387207000" lon="-2.410053000">
        <ele>501.50</ele>
        <time>2013-07-27T09:29:37Z</time>
      </trkpt>
      <trkpt lat="42.387179000" lon="-2.410027000">
        <ele>501.50</ele>
        <time>2013-07-27T09:29:38Z</time>
      </trkpt>
      <trkpt lat="42.387156000" lon="-2.410000000">
        <ele>501.60</ele>
        <time>2013-07-27T09:29:39Z</time>
      </trkpt>
      <trkpt lat="42.387131000" lon="-2.409977000">
        <ele>501.60</ele>
        <time>2013-07-27T09:29:40Z</time>
      </trkpt>
      <trkpt lat="42.387105000" lon="-2.409949000">
        <ele>501.70</ele>
        <time>2013-07-27T09:29:41Z</time>
      </trkpt>
      <trkpt lat="42.387077000" lon="-2.409923000">
        <ele>501.70</ele>
        <time>2013-07-27T09:29:42Z</time>
      </trkpt>
      <trkpt lat="42.387049000" lon="-2.409897000">
        <ele>501.80</ele>
        <time>2013-07-27T09:29:43Z</time>
      </trkpt>
      <trkpt lat="42.387020000" lon="-2.409871000">
        <ele>501.90</ele>
        <time>2013-07-27T09:29:44Z</time>
      </trkpt>
      <trkpt lat="42.386996000" lon="-2.409843000">
        <ele>502.00</ele>
        <time>2013-07-27T09:29:45Z</time>
      </trkpt>
      <trkpt lat="42.386973000" lon="-2.409814000">
        <ele>502.10</ele>
        <time>2013-07-27T09:29:46Z</time>
      </trkpt>
      <trkpt lat="42.386947000" lon="-2.409782000">
        <ele>502.10</ele>
        <time>2013-07-27T09:29:47Z</time>
      </trkpt>
      <trkpt lat="42.386922000" lon="-2.409752000">
        <ele>502.20</ele>
        <time>2013-07-27T09:29:48Z</time>
      </trkpt>
      <trkpt lat="42.386899000" lon="-2.409723000">
        <ele>502.30</ele>
        <time>2013-07-27T09:29:49Z</time>
      </trkpt>
      <trkpt lat="42.386878000" lon="-2.409695000">
        <ele>502.40</ele>
        <time>2013-07-27T09:29:50Z</time>
      </trkpt>
      <trkpt lat="42.386860000" lon="-2.409667000">
        <ele>502.50</ele>
        <time>2013-07-27T09:29:51Z</time>
      </trkpt>
      <trkpt lat="42.386839000" lon="-2.409639000">
        <ele>502.60</ele>
        <time>2013-07-27T09:29:52Z</time>
      </trkpt>
      <trkpt lat="42.386813000" lon="-2.409613000">
        <ele>502.90</ele>
        <time>2013-07-27T09:29:53Z</time>
      </trkpt>
      <trkpt lat="42.386789000" lon="-2.409585000">
        <ele>503.10</ele>
        <time>2013-07-27T09:29:54Z</time>
      </trkpt>
      <trkpt lat="42.386767000" lon="-2.409554000">
        <ele>503.10</ele>
        <time>2013-07-27T09:29:55Z</time>
      </trkpt>
      <trkpt lat="42.386744000" lon="-2.409524000">
        <ele>503.20</ele>
        <time>2013-07-27T09:29:56Z</time>
      </trkpt>
      <trkpt lat="42.386721000" lon="-2.409498000">
        <ele>503.40</ele>
        <time>2013-07-27T09:29:57Z</time>
      </trkpt>
      <trkpt lat="42.386696000" lon="-2.409473000">
        <ele>503.60</ele>
        <time>2013-07-27T09:29:58Z</time>
      </trkpt>
      <trkpt lat="42.386674000" lon="-2.409450000">
        <ele>503.90</ele>
        <time>2013-07-27T09:29:59Z</time>
      </trkpt>
      <trkpt lat="42.386653000" lon="-2.409428000">
        <ele>504.20</ele>
        <time>2013-07-27T09:30:00Z</time>
      </trkpt>
      <trkpt lat="42.386630000" lon="-2.409410000">
        <ele>504.30</ele>
        <time>2013-07-27T09:30:01Z</time>
      </trkpt>
      <trkpt lat="42.386608000" lon="-2.409393000">
        <ele>504.40</ele>
        <time>2013-07-27T09:30:02Z</time>
      </trkpt>
      <trkpt lat="42.386591000" lon="-2.409375000">
        <ele>504.70</ele>
        <time>2013-07-27T09:30:03Z</time>
      </trkpt>
      <trkpt lat="42.386569000" lon="-2.409359000">
        <ele>504.80</ele>
        <time>2013-07-27T09:30:04Z</time>
      </trkpt>
      <trkpt lat="42.386546000" lon="-2.409345000">
        <ele>505.00</ele>
        <time>2013-07-27T09:30:05Z</time>
      </trkpt>
      <trkpt lat="42.386526000" lon="-2.409326000">
        <ele>505.20</ele>
        <time>2013-07-27T09:30:06Z</time>
      </trkpt>
      <trkpt lat="42.386505000" lon="-2.409309000">
        <ele>505.30</ele>
        <time>2013-07-27T09:30:07Z</time>
      </trkpt>
      <trkpt lat="42.386483000" lon="-2.409285000">
        <ele>505.40</ele>
        <time>2013-07-27T09:30:08Z</time>
      </trkpt>
      <trkpt lat="42.386459000" lon="-2.409264000">
        <ele>505.40</ele>
        <time>2013-07-27T09:30:09Z</time>
      </trkpt>
      <trkpt lat="42.386435000" lon="-2.409246000">
        <ele>505.50</ele>
        <time>2013-07-27T09:30:10Z</time>
      </trkpt>
      <trkpt lat="42.386408000" lon="-2.409234000">
        <ele>505.70</ele>
        <time>2013-07-27T09:30:11Z</time>
      </trkpt>
      <trkpt lat="42.386381000" lon="-2.409225000">
        <ele>505.90</ele>
        <time>2013-07-27T09:30:12Z</time>
      </trkpt>
      <trkpt lat="42.386354000" lon="-2.409215000">
        <ele>506.00</ele>
        <time>2013-07-27T09:30:13Z</time>
      </trkpt>
      <trkpt lat="42.386329000" lon="-2.409199000">
        <ele>506.10</ele>
        <time>2013-07-27T09:30:14Z</time>
      </trkpt>
      <trkpt lat="42.386302000" lon="-2.409182000">
        <ele>506.40</ele>
        <time>2013-07-27T09:30:15Z</time>
      </trkpt>
      <trkpt lat="42.386275000" lon="-2.409167000">
        <ele>506.60</ele>
        <time>2013-07-27T09:30:16Z</time>
      </trkpt>
      <trkpt lat="42.386249000" lon="-2.409155000">
        <ele>506.80</ele>
        <time>2013-07-27T09:30:17Z</time>
      </trkpt>
      <trkpt lat="42.386225000" lon="-2.409140000">
        <ele>506.90</ele>
        <time>2013-07-27T09:30:18Z</time>
      </trkpt>
      <trkpt lat="42.386202000" lon="-2.409123000">
        <ele>507.00</ele>
        <time>2013-07-27T09:30:19Z</time>
      </trkpt>
      <trkpt lat="42.386178000" lon="-2.409106000">
        <ele>507.10</ele>
        <time>2013-07-27T09:30:20Z</time>
      </trkpt>
      <trkpt lat="42.386156000" lon="-2.409087000">
        <ele>507.40</ele>
        <time>2013-07-27T09:30:21Z</time>
      </trkpt>
      <trkpt lat="42.386131000" lon="-2.409068000">
        <ele>507.60</ele>
        <time>2013-07-27T09:30:22Z</time>
      </trkpt>
      <trkpt lat="42.386104000" lon="-2.409050000">
        <ele>507.70</ele>
        <time>2013-07-27T09:30:23Z</time>
      </trkpt>
      <trkpt lat="42.386077000" lon="-2.409038000">
        <ele>507.80</ele>
        <time>2013-07-27T09:30:24Z</time>
      </trkpt>
      <trkpt lat="42.386052000" lon="-2.409019000">
        <ele>507.90</ele>
        <time>2013-07-27T09:30:25Z</time>
      </trkpt>
      <trkpt lat="42.386029000" lon="-2.408993000">
        <ele>508.00</ele>
        <time>2013-07-27T09:30:26Z</time>
      </trkpt>
      <trkpt lat="42.386001000" lon="-2.408969000">
        <ele>508.40</ele>
        <time>2013-07-27T09:30:27Z</time>
      </trkpt>
      <trkpt lat="42.385974000" lon="-2.408948000">
        <ele>508.60</ele>
        <time>2013-07-27T09:30:28Z</time>
      </trkpt>
      <trkpt lat="42.385946000" lon="-2.408926000">
        <ele>508.90</ele>
        <time>2013-07-27T09:30:29Z</time>
      </trkpt>
      <trkpt lat="42.385918000" lon="-2.408900000">
        <ele>509.00</ele>
        <time>2013-07-27T09:30:30Z</time>
      </trkpt>
      <trkpt lat="42.385890000" lon="-2.408873000">
        <ele>509.10</ele>
        <time>2013-07-27T09:30:31Z</time>
      </trkpt>
      <trkpt lat="42.385859000" lon="-2.408843000">
        <ele>509.20</ele>
        <time>2013-07-27T09:30:32Z</time>
      </trkpt>
      <trkpt lat="42.385826000" lon="-2.408815000">
        <ele>509.30</ele>
        <time>2013-07-27T09:30:33Z</time>
      </trkpt>
      <trkpt lat="42.385794000" lon="-2.408786000">
        <ele>509.30</ele>
        <time>2013-07-27T09:30:34Z</time>
      </trkpt>
      <trkpt lat="42.385760000" lon="-2.408760000">
        <ele>509.40</ele>
        <time>2013-07-27T09:30:35Z</time>
      </trkpt>
      <trkpt lat="42.385731000" lon="-2.408735000">
        <ele>509.50</ele>
        <time>2013-07-27T09:30:36Z</time>
      </trkpt>
      <trkpt lat="42.385703000" lon="-2.408714000">
        <ele>509.40</ele>
        <time>2013-07-27T09:30:37Z</time>
      </trkpt>
      <trkpt lat="42.385672000" lon="-2.408693000">
        <ele>509.30</ele>
        <time>2013-07-27T09:30:38Z</time>
      </trkpt>
      <trkpt lat="42.385643000" lon="-2.408670000">
        <ele>509.40</ele>
        <time>2013-07-27T09:30:39Z</time>
      </trkpt>
      <trkpt lat="42.385613000" lon="-2.408646000">
        <ele>509.50</ele>
        <time>2013-07-27T09:30:40Z</time>
      </trkpt>
      <trkpt lat="42.385582000" lon="-2.408629000">
        <ele>509.20</ele>
        <time>2013-07-27T09:30:41Z</time>
      </trkpt>
      <trkpt lat="42.385551000" lon="-2.408614000">
        <ele>508.90</ele>
        <time>2013-07-27T09:30:42Z</time>
      </trkpt>
      <trkpt lat="42.385518000" lon="-2.408598000">
        <ele>509.10</ele>
        <time>2013-07-27T09:30:43Z</time>
      </trkpt>
      <trkpt lat="42.385490000" lon="-2.408578000">
        <ele>509.20</ele>
        <time>2013-07-27T09:30:44Z</time>
      </trkpt>
      <trkpt lat="42.385459000" lon="-2.408560000">
        <ele>508.90</ele>
        <time>2013-07-27T09:30:45Z</time>
      </trkpt>
      <trkpt lat="42.385429000" lon="-2.408542000">
        <ele>508.60</ele>
        <time>2013-07-27T09:30:46Z</time>
      </trkpt>
      <trkpt lat="42.385399000" lon="-2.408520000">
        <ele>508.40</ele>
        <time>2013-07-27T09:30:47Z</time>
      </trkpt>
      <trkpt lat="42.385368000" lon="-2.408501000">
        <ele>508.30</ele>
        <time>2013-07-27T09:30:48Z</time>
      </trkpt>
      <trkpt lat="42.385335000" lon="-2.408488000">
        <ele>508.20</ele>
        <time>2013-07-27T09:30:49Z</time>
      </trkpt>
      <trkpt lat="42.385303000" lon="-2.408475000">
        <ele>508.10</ele>
        <time>2013-07-27T09:30:50Z</time>
      </trkpt>
      <trkpt lat="42.385271000" lon="-2.408456000">
        <ele>508.10</ele>
        <time>2013-07-27T09:30:51Z</time>
      </trkpt>
      <trkpt lat="42.385239000" lon="-2.408433000">
        <ele>508.20</ele>
        <time>2013-07-27T09:30:52Z</time>
      </trkpt>
      <trkpt lat="42.385205000" lon="-2.408411000">
        <ele>508.60</ele>
        <time>2013-07-27T09:30:53Z</time>
      </trkpt>
      <trkpt lat="42.385172000" lon="-2.408398000">
        <ele>508.90</ele>
        <time>2013-07-27T09:30:54Z</time>
      </trkpt>
      <trkpt lat="42.385138000" lon="-2.408385000">
        <ele>509.20</ele>
        <time>2013-07-27T09:30:55Z</time>
      </trkpt>
      <trkpt lat="42.385106000" lon="-2.408370000">
        <ele>509.40</ele>
        <time>2013-07-27T09:30:56Z</time>
      </trkpt>
      <trkpt lat="42.385073000" lon="-2.408353000">
        <ele>509.50</ele>
        <time>2013-07-27T09:30:57Z</time>
      </trkpt>
      <trkpt lat="42.385038000" lon="-2.408339000">
        <ele>509.60</ele>
        <time>2013-07-27T09:30:58Z</time>
      </trkpt>
      <trkpt lat="42.385005000" lon="-2.408328000">
        <ele>509.60</ele>
        <time>2013-07-27T09:30:59Z</time>
      </trkpt>
      <trkpt lat="42.384974000" lon="-2.408315000">
        <ele>509.60</ele>
        <time>2013-07-27T09:31:00Z</time>
      </trkpt>
      <trkpt lat="42.384942000" lon="-2.408304000">
        <ele>509.60</ele>
        <time>2013-07-27T09:31:01Z</time>
      </trkpt>
      <trkpt lat="42.384911000" lon="-2.408289000">
        <ele>509.60</ele>
        <time>2013-07-27T09:31:02Z</time>
      </trkpt>
      <trkpt lat="42.384880000" lon="-2.408279000">
        <ele>509.70</ele>
        <time>2013-07-27T09:31:03Z</time>
      </trkpt>
      <trkpt lat="42.384853000" lon="-2.408271000">
        <ele>509.80</ele>
        <time>2013-07-27T09:31:04Z</time>
      </trkpt>
      <trkpt lat="42.384823000" lon="-2.408264000">
        <ele>509.80</ele>
        <time>2013-07-27T09:31:05Z</time>
      </trkpt>
      <trkpt lat="42.384793000" lon="-2.408254000">
        <ele>509.80</ele>
        <time>2013-07-27T09:31:06Z</time>
      </trkpt>
      <trkpt lat="42.384764000" lon="-2.408245000">
        <ele>509.90</ele>
        <time>2013-07-27T09:31:07Z</time>
      </trkpt>
      <trkpt lat="42.384733000" lon="-2.408237000">
        <ele>509.90</ele>
        <time>2013-07-27T09:31:08Z</time>
      </trkpt>
      <trkpt lat="42.384701000" lon="-2.408232000">
        <ele>510.50</ele>
        <time>2013-07-27T09:31:09Z</time>
      </trkpt>
      <trkpt lat="42.384672000" lon="-2.408227000">
        <ele>510.90</ele>
        <time>2013-07-27T09:31:10Z</time>
      </trkpt>
      <trkpt lat="42.384643000" lon="-2.408219000">
        <ele>511.30</ele>
        <time>2013-07-27T09:31:11Z</time>
      </trkpt>
      <trkpt lat="42.384613000" lon="-2.408212000">
        <ele>511.50</ele>
        <time>2013-07-27T09:31:12Z</time>
      </trkpt>
      <trkpt lat="42.384584000" lon="-2.408205000">
        <ele>511.60</ele>
        <time>2013-07-27T09:31:13Z</time>
      </trkpt>
      <trkpt lat="42.384557000" lon="-2.408198000">
        <ele>511.60</ele>
        <time>2013-07-27T09:31:14Z</time>
      </trkpt>
      <trkpt lat="42.384530000" lon="-2.408192000">
        <ele>511.50</ele>
        <time>2013-07-27T09:31:15Z</time>
      </trkpt>
      <trkpt lat="42.384501000" lon="-2.408189000">
        <ele>511.30</ele>
        <time>2013-07-27T09:31:16Z</time>
      </trkpt>
      <trkpt lat="42.384472000" lon="-2.408180000">
        <ele>511.50</ele>
        <time>2013-07-27T09:31:17Z</time>
      </trkpt>
      <trkpt lat="42.384443000" lon="-2.408170000">
        <ele>511.60</ele>
        <time>2013-07-27T09:31:18Z</time>
      </trkpt>
      <trkpt lat="42.384416000" lon="-2.408161000">
        <ele>511.70</ele>
        <time>2013-07-27T09:31:19Z</time>
      </trkpt>
      <trkpt lat="42.384386000" lon="-2.408159000">
        <ele>511.80</ele>
        <time>2013-07-27T09:31:20Z</time>
      </trkpt>
      <trkpt lat="42.384358000" lon="-2.408157000">
        <ele>511.90</ele>
        <time>2013-07-27T09:31:21Z</time>
      </trkpt>
      <trkpt lat="42.384334000" lon="-2.408149000">
        <ele>511.90</ele>
        <time>2013-07-27T09:31:22Z</time>
      </trkpt>
      <trkpt lat="42.384308000" lon="-2.408141000">
        <ele>511.90</ele>
        <time>2013-07-27T09:31:23Z</time>
      </trkpt>
      <trkpt lat="42.384283000" lon="-2.408137000">
        <ele>512.10</ele>
        <time>2013-07-27T09:31:24Z</time>
      </trkpt>
      <trkpt lat="42.384256000" lon="-2.408133000">
        <ele>512.20</ele>
        <time>2013-07-27T09:31:25Z</time>
      </trkpt>
      <trkpt lat="42.384232000" lon="-2.408130000">
        <ele>512.60</ele>
        <time>2013-07-27T09:31:26Z</time>
      </trkpt>
      <trkpt lat="42.384208000" lon="-2.408129000">
        <ele>512.80</ele>
        <time>2013-07-27T09:31:27Z</time>
      </trkpt>
      <trkpt lat="42.384184000" lon="-2.408125000">
        <ele>513.00</ele>
        <time>2013-07-27T09:31:28Z</time>
      </trkpt>
      <trkpt lat="42.384162000" lon="-2.408113000">
        <ele>513.20</ele>
        <time>2013-07-27T09:31:29Z</time>
      </trkpt>
      <trkpt lat="42.384141000" lon="-2.408105000">
        <ele>513.40</ele>
        <time>2013-07-27T09:31:30Z</time>
      </trkpt>
      <trkpt lat="42.384121000" lon="-2.408100000">
        <ele>513.60</ele>
        <time>2013-07-27T09:31:31Z</time>
      </trkpt>
      <trkpt lat="42.384097000" lon="-2.408090000">
        <ele>513.70</ele>
        <time>2013-07-27T09:31:32Z</time>
      </trkpt>
      <trkpt lat="42.384072000" lon="-2.408083000">
        <ele>513.80</ele>
        <time>2013-07-27T09:31:33Z</time>
      </trkpt>
      <trkpt lat="42.384049000" lon="-2.408075000">
        <ele>513.90</ele>
        <time>2013-07-27T09:31:34Z</time>
      </trkpt>
      <trkpt lat="42.384026000" lon="-2.408070000">
        <ele>514.00</ele>
        <time>2013-07-27T09:31:35Z</time>
      </trkpt>
      <trkpt lat="42.384003000" lon="-2.408066000">
        <ele>514.10</ele>
        <time>2013-07-27T09:31:36Z</time>
      </trkpt>
      <trkpt lat="42.383980000" lon="-2.408069000">
        <ele>514.30</ele>
        <time>2013-07-27T09:31:37Z</time>
      </trkpt>
      <trkpt lat="42.383958000" lon="-2.408068000">
        <ele>514.40</ele>
        <time>2013-07-27T09:31:38Z</time>
      </trkpt>
      <trkpt lat="42.383935000" lon="-2.408061000">
        <ele>514.40</ele>
        <time>2013-07-27T09:31:39Z</time>
      </trkpt>
      <trkpt lat="42.383911000" lon="-2.408057000">
        <ele>514.60</ele>
        <time>2013-07-27T09:31:40Z</time>
      </trkpt>
      <trkpt lat="42.383889000" lon="-2.408056000">
        <ele>514.70</ele>
        <time>2013-07-27T09:31:41Z</time>
      </trkpt>
      <trkpt lat="42.383869000" lon="-2.408056000">
        <ele>514.90</ele>
        <time>2013-07-27T09:31:42Z</time>
      </trkpt>
      <trkpt lat="42.383850000" lon="-2.408056000">
        <ele>515.00</ele>
        <time>2013-07-27T09:31:43Z</time>
      </trkpt>
      <trkpt lat="42.383830000" lon="-2.408053000">
        <ele>515.30</ele>
        <time>2013-07-27T09:31:44Z</time>
      </trkpt>
      <trkpt lat="42.383814000" lon="-2.408049000">
        <ele>515.40</ele>
        <time>2013-07-27T09:31:45Z</time>
      </trkpt>
      <trkpt lat="42.383793000" lon="-2.408047000">
        <ele>516.00</ele>
        <time>2013-07-27T09:31:46Z</time>
      </trkpt>
      <trkpt lat="42.383773000" lon="-2.408041000">
        <ele>516.30</ele>
        <time>2013-07-27T09:31:47Z</time>
      </trkpt>
      <trkpt lat="42.383750000" lon="-2.408038000">
        <ele>516.60</ele>
        <time>2013-07-27T09:31:48Z</time>
      </trkpt>
      <trkpt lat="42.383725000" lon="-2.408039000">
        <ele>516.80</ele>
        <time>2013-07-27T09:31:49Z</time>
      </trkpt>
      <trkpt lat="42.383701000" lon="-2.408037000">
        <ele>517.00</ele>
        <time>2013-07-27T09:31:50Z</time>
      </trkpt>
      <trkpt lat="42.383676000" lon="-2.408033000">
        <ele>517.10</ele>
        <time>2013-07-27T09:31:51Z</time>
      </trkpt>
      <trkpt lat="42.383654000" lon="-2.408025000">
        <ele>517.30</ele>
        <time>2013-07-27T09:31:52Z</time>
      </trkpt>
      <trkpt lat="42.383630000" lon="-2.408013000">
        <ele>517.50</ele>
        <time>2013-07-27T09:31:53Z</time>
      </trkpt>
      <trkpt lat="42.383608000" lon="-2.408000000">
        <ele>517.80</ele>
        <time>2013-07-27T09:31:54Z</time>
      </trkpt>
      <trkpt lat="42.383586000" lon="-2.407990000">
        <ele>518.10</ele>
        <time>2013-07-27T09:31:55Z</time>
      </trkpt>
      <trkpt lat="42.383563000" lon="-2.407978000">
        <ele>518.30</ele>
        <time>2013-07-27T09:31:56Z</time>
      </trkpt>
      <trkpt lat="42.383540000" lon="-2.407961000">
        <ele>518.40</ele>
        <time>2013-07-27T09:31:57Z</time>
      </trkpt>
      <trkpt lat="42.383518000" lon="-2.407943000">
        <ele>518.80</ele>
        <time>2013-07-27T09:31:58Z</time>
      </trkpt>
      <trkpt lat="42.383496000" lon="-2.407933000">
        <ele>519.00</ele>
        <time>2013-07-27T09:31:59Z</time>
      </trkpt>
      <trkpt lat="42.383474000" lon="-2.407924000">
        <ele>519.40</ele>
        <time>2013-07-27T09:32:00Z</time>
      </trkpt>
      <trkpt lat="42.383452000" lon="-2.407917000">
        <ele>519.60</ele>
        <time>2013-07-27T09:32:01Z</time>
      </trkpt>
      <trkpt lat="42.383431000" lon="-2.407908000">
        <ele>519.80</ele>
        <time>2013-07-27T09:32:02Z</time>
      </trkpt>
      <trkpt lat="42.383407000" lon="-2.407908000">
        <ele>520.00</ele>
        <time>2013-07-27T09:32:03Z</time>
      </trkpt>
      <trkpt lat="42.383383000" lon="-2.407907000">
        <ele>520.10</ele>
        <time>2013-07-27T09:32:04Z</time>
      </trkpt>
      <trkpt lat="42.383360000" lon="-2.407906000">
        <ele>520.10</ele>
        <time>2013-07-27T09:32:05Z</time>
      </trkpt>
      <trkpt lat="42.383338000" lon="-2.407896000">
        <ele>520.20</ele>
        <time>2013-07-27T09:32:06Z</time>
      </trkpt>
      <trkpt lat="42.383315000" lon="-2.407889000">
        <ele>520.30</ele>
        <time>2013-07-27T09:32:07Z</time>
      </trkpt>
      <trkpt lat="42.383291000" lon="-2.407889000">
        <ele>520.20</ele>
        <time>2013-07-27T09:32:08Z</time>
      </trkpt>
      <trkpt lat="42.383269000" lon="-2.407891000">
        <ele>520.20</ele>
        <time>2013-07-27T09:32:09Z</time>
      </trkpt>
      <trkpt lat="42.383246000" lon="-2.407891000">
        <ele>520.20</ele>
        <time>2013-07-27T09:32:10Z</time>
      </trkpt>
      <trkpt lat="42.383223000" lon="-2.407894000">
        <ele>520.20</ele>
        <time>2013-07-27T09:32:11Z</time>
      </trkpt>
      <trkpt lat="42.383199000" lon="-2.407896000">
        <ele>520.30</ele>
        <time>2013-07-27T09:32:12Z</time>
      </trkpt>
      <trkpt lat="42.383177000" lon="-2.407895000">
        <ele>520.40</ele>
        <time>2013-07-27T09:32:13Z</time>
      </trkpt>
      <trkpt lat="42.383155000" lon="-2.407893000">
        <ele>520.60</ele>
        <time>2013-07-27T09:32:14Z</time>
      </trkpt>
      <trkpt lat="42.383136000" lon="-2.407890000">
        <ele>520.80</ele>
        <time>2013-07-27T09:32:15Z</time>
      </trkpt>
      <trkpt lat="42.383116000" lon="-2.407890000">
        <ele>521.00</ele>
        <time>2013-07-27T09:32:16Z</time>
      </trkpt>
      <trkpt lat="42.383093000" lon="-2.407895000">
        <ele>521.10</ele>
        <time>2013-07-27T09:32:17Z</time>
      </trkpt>
      <trkpt lat="42.383069000" lon="-2.407895000">
        <ele>521.70</ele>
        <time>2013-07-27T09:32:18Z</time>
      </trkpt>
      <trkpt lat="42.383048000" lon="-2.407890000">
        <ele>522.10</ele>
        <time>2013-07-27T09:32:19Z</time>
      </trkpt>
      <trkpt lat="42.383026000" lon="-2.407887000">
        <ele>522.20</ele>
        <time>2013-07-27T09:32:20Z</time>
      </trkpt>
      <trkpt lat="42.383004000" lon="-2.407886000">
        <ele>522.40</ele>
        <time>2013-07-27T09:32:21Z</time>
      </trkpt>
      <trkpt lat="42.382981000" lon="-2.407883000">
        <ele>522.50</ele>
        <time>2013-07-27T09:32:22Z</time>
      </trkpt>
      <trkpt lat="42.382957000" lon="-2.407883000">
        <ele>522.70</ele>
        <time>2013-07-27T09:32:23Z</time>
      </trkpt>
      <trkpt lat="42.382937000" lon="-2.407878000">
        <ele>522.70</ele>
        <time>2013-07-27T09:32:24Z</time>
      </trkpt>
      <trkpt lat="42.382912000" lon="-2.407874000">
        <ele>522.80</ele>
        <time>2013-07-27T09:32:25Z</time>
      </trkpt>
      <trkpt lat="42.382889000" lon="-2.407868000">
        <ele>523.10</ele>
        <time>2013-07-27T09:32:26Z</time>
      </trkpt>
      <trkpt lat="42.382866000" lon="-2.407867000">
        <ele>523.30</ele>
        <time>2013-07-27T09:32:27Z</time>
      </trkpt>
      <trkpt lat="42.382842000" lon="-2.407861000">
        <ele>523.40</ele>
        <time>2013-07-27T09:32:28Z</time>
      </trkpt>
      <trkpt lat="42.382818000" lon="-2.407859000">
        <ele>523.50</ele>
        <time>2013-07-27T09:32:29Z</time>
      </trkpt>
      <trkpt lat="42.382793000" lon="-2.407857000">
        <ele>523.80</ele>
        <time>2013-07-27T09:32:30Z</time>
      </trkpt>
      <trkpt lat="42.382768000" lon="-2.407853000">
        <ele>524.00</ele>
        <time>2013-07-27T09:32:31Z</time>
      </trkpt>
      <trkpt lat="42.382745000" lon="-2.407849000">
        <ele>524.10</ele>
        <time>2013-07-27T09:32:32Z</time>
      </trkpt>
      <trkpt lat="42.382725000" lon="-2.407846000">
        <ele>524.30</ele>
        <time>2013-07-27T09:32:33Z</time>
      </trkpt>
      <trkpt lat="42.382708000" lon="-2.407844000">
        <ele>524.30</ele>
        <time>2013-07-27T09:32:34Z</time>
      </trkpt>
      <trkpt lat="42.382688000" lon="-2.407842000">
        <ele>524.40</ele>
        <time>2013-07-27T09:32:35Z</time>
      </trkpt>
      <trkpt lat="42.382666000" lon="-2.407840000">
        <ele>524.80</ele>
        <time>2013-07-27T09:32:36Z</time>
      </trkpt>
      <trkpt lat="42.382647000" lon="-2.407838000">
        <ele>525.10</ele>
        <time>2013-07-27T09:32:37Z</time>
      </trkpt>
      <trkpt lat="42.382627000" lon="-2.407834000">
        <ele>525.40</ele>
        <time>2013-07-27T09:32:38Z</time>
      </trkpt>
      <trkpt lat="42.382608000" lon="-2.407830000">
        <ele>525.60</ele>
        <time>2013-07-27T09:32:39Z</time>
      </trkpt>
      <trkpt lat="42.382588000" lon="-2.407826000">
        <ele>525.70</ele>
        <time>2013-07-27T09:32:40Z</time>
      </trkpt>
      <trkpt lat="42.382569000" lon="-2.407822000">
        <ele>525.80</ele>
        <time>2013-07-27T09:32:41Z</time>
      </trkpt>
      <trkpt lat="42.382549000" lon="-2.407814000">
        <ele>526.10</ele>
        <time>2013-07-27T09:32:42Z</time>
      </trkpt>
      <trkpt lat="42.382528000" lon="-2.407809000">
        <ele>526.20</ele>
        <time>2013-07-27T09:32:43Z</time>
      </trkpt>
      <trkpt lat="42.382509000" lon="-2.407807000">
        <ele>526.30</ele>
        <time>2013-07-27T09:32:44Z</time>
      </trkpt>
      <trkpt lat="42.382487000" lon="-2.407804000">
        <ele>526.40</ele>
        <time>2013-07-27T09:32:45Z</time>
      </trkpt>
      <trkpt lat="42.382464000" lon="-2.407800000">
        <ele>526.60</ele>
        <time>2013-07-27T09:32:46Z</time>
      </trkpt>
      <trkpt lat="42.382443000" lon="-2.407791000">
        <ele>526.70</ele>
        <time>2013-07-27T09:32:47Z</time>
      </trkpt>
      <trkpt lat="42.382422000" lon="-2.407783000">
        <ele>526.90</ele>
        <time>2013-07-27T09:32:48Z</time>
      </trkpt>
      <trkpt lat="42.382403000" lon="-2.407776000">
        <ele>527.10</ele>
        <time>2013-07-27T09:32:49Z</time>
      </trkpt>
      <trkpt lat="42.382390000" lon="-2.407767000">
        <ele>527.20</ele>
        <time>2013-07-27T09:32:50Z</time>
      </trkpt>
      <trkpt lat="42.382374000" lon="-2.407758000">
        <ele>527.30</ele>
        <time>2013-07-27T09:32:51Z</time>
      </trkpt>
      <trkpt lat="42.382360000" lon="-2.407748000">
        <ele>527.60</ele>
        <time>2013-07-27T09:32:52Z</time>
      </trkpt>
      <trkpt lat="42.382345000" lon="-2.407739000">
        <ele>527.80</ele>
        <time>2013-07-27T09:32:53Z</time>
      </trkpt>
      <trkpt lat="42.382330000" lon="-2.407729000">
        <ele>527.90</ele>
        <time>2013-07-27T09:32:54Z</time>
      </trkpt>
      <trkpt lat="42.382320000" lon="-2.407720000">
        <ele>528.10</ele>
        <time>2013-07-27T09:32:55Z</time>
      </trkpt>
      <trkpt lat="42.382318000" lon="-2.407717000">
        <ele>528.00</ele>
        <time>2013-07-27T09:32:56Z</time>
      </trkpt>
      <trkpt lat="42.382316000" lon="-2.407718000">
        <ele>527.90</ele>
        <time>2013-07-27T09:32:57Z</time>
      </trkpt>
      <trkpt lat="42.382313000" lon="-2.407713000">
        <ele>527.90</ele>
        <time>2013-07-27T09:32:58Z</time>
      </trkpt>
      <trkpt lat="42.382312000" lon="-2.407709000">
        <ele>527.90</ele>
        <time>2013-07-27T09:32:59Z</time>
      </trkpt>
      <trkpt lat="42.382313000" lon="-2.407707000">
        <ele>527.80</ele>
        <time>2013-07-27T09:33:00Z</time>
      </trkpt>
      <trkpt lat="42.382313000" lon="-2.407706000">
        <ele>527.80</ele>
        <time>2013-07-27T09:33:01Z</time>
      </trkpt>
      <trkpt lat="42.382315000" lon="-2.407704000">
        <ele>527.80</ele>
        <time>2013-07-27T09:33:02Z</time>
      </trkpt>
      <trkpt lat="42.382317000" lon="-2.407703000">
        <ele>527.80</ele>
        <time>2013-07-27T09:33:03Z</time>
      </trkpt>
      <trkpt lat="42.382319000" lon="-2.407703000">
        <ele>527.60</ele>
        <time>2013-07-27T09:33:04Z</time>
      </trkpt>
      <trkpt lat="42.382320000" lon="-2.407702000">
        <ele>527.50</ele>
        <time>2013-07-27T09:33:05Z</time>
      </trkpt>
      <trkpt lat="42.382321000" lon="-2.407702000">
        <ele>527.40</ele>
        <time>2013-07-27T09:33:06Z</time>
      </trkpt>
      <trkpt lat="42.382321000" lon="-2.407703000">
        <ele>527.30</ele>
        <time>2013-07-27T09:33:07Z</time>
      </trkpt>
      <trkpt lat="42.382320000" lon="-2.407706000">
        <ele>527.30</ele>
        <time>2013-07-27T09:33:08Z</time>
      </trkpt>
      <trkpt lat="42.382319000" lon="-2.407708000">
        <ele>527.30</ele>
        <time>2013-07-27T09:33:09Z</time>
      </trkpt>
      <trkpt lat="42.382318000" lon="-2.407707000">
        <ele>527.40</ele>
        <time>2013-07-27T09:33:10Z</time>
      </trkpt>
      <trkpt lat="42.382318000" lon="-2.407707000">
        <ele>527.40</ele>
        <time>2013-07-27T09:33:11Z</time>
      </trkpt>
      <trkpt lat="42.382317000" lon="-2.407704000">
        <ele>527.50</ele>
        <time>2013-07-27T09:33:12Z</time>
      </trkpt>
      <trkpt lat="42.382316000" lon="-2.407701000">
        <ele>527.50</ele>
        <time>2013-07-27T09:33:13Z</time>
      </trkpt>
      <trkpt lat="42.382315000" lon="-2.407701000">
        <ele>527.50</ele>
        <time>2013-07-27T09:33:14Z</time>
      </trkpt>
      <trkpt lat="42.382314000" lon="-2.407704000">
        <ele>527.60</ele>
        <time>2013-07-27T09:33:15Z</time>
      </trkpt>
      <trkpt lat="42.382316000" lon="-2.407704000">
        <ele>527.50</ele>
        <time>2013-07-27T09:33:16Z</time>
      </trkpt>
      <trkpt lat="42.382317000" lon="-2.407707000">
        <ele>527.50</ele>
        <time>2013-07-27T09:33:17Z</time>
      </trkpt>
      <trkpt lat="42.382319000" lon="-2.407707000">
        <ele>527.50</ele>
        <time>2013-07-27T09:33:18Z</time>
      </trkpt>
      <trkpt lat="42.382319000" lon="-2.407704000">
        <ele>527.50</ele>
        <time>2013-07-27T09:33:19Z</time>
      </trkpt>
      <trkpt lat="42.382317000" lon="-2.407704000">
        <ele>527.50</ele>
        <time>2013-07-27T09:33:20Z</time>
      </trkpt>
      <trkpt lat="42.382313000" lon="-2.407702000">
        <ele>527.60</ele>
        <time>2013-07-27T09:33:21Z</time>
      </trkpt>
      <trkpt lat="42.382313000" lon="-2.407702000">
        <ele>527.60</ele>
        <time>2013-07-27T09:33:22Z</time>
      </trkpt>
      <trkpt lat="42.382316000" lon="-2.407702000">
        <ele>527.60</ele>
        <time>2013-07-27T09:33:23Z</time>
      </trkpt>
      <trkpt lat="42.382318000" lon="-2.407699000">
        <ele>527.70</ele>
        <time>2013-07-27T09:33:24Z</time>
      </trkpt>
      <trkpt lat="42.382319000" lon="-2.407699000">
        <ele>527.80</ele>
        <time>2013-07-27T09:33:25Z</time>
      </trkpt>
      <trkpt lat="42.382318000" lon="-2.407699000">
        <ele>527.90</ele>
        <time>2013-07-27T09:33:26Z</time>
      </trkpt>
      <trkpt lat="42.382318000" lon="-2.407701000">
        <ele>528.00</ele>
        <time>2013-07-27T09:33:27Z</time>
      </trkpt>
      <trkpt lat="42.382318000" lon="-2.407701000">
        <ele>528.00</ele>
        <time>2013-07-27T09:33:28Z</time>
      </trkpt>
      <trkpt lat="42.382318000" lon="-2.407703000">
        <ele>528.00</ele>
        <time>2013-07-27T09:33:29Z</time>
      </trkpt>
      <trkpt lat="42.382318000" lon="-2.407704000">
        <ele>528.10</ele>
        <time>2013-07-27T09:33:30Z</time>
      </trkpt>
      <trkpt lat="42.382318000" lon="-2.407704000">
        <ele>528.20</ele>
        <time>2013-07-27T09:33:31Z</time>
      </trkpt>
      <trkpt lat="42.382317000" lon="-2.407704000">
        <ele>528.00</ele>
        <time>2013-07-27T09:33:32Z</time>
      </trkpt>
      <trkpt lat="42.382317000" lon="-2.407704000">
        <ele>527.90</ele>
        <time>2013-07-27T09:33:33Z</time>
      </trkpt>
      <trkpt lat="42.382317000" lon="-2.407700000">
        <ele>527.80</ele>
        <time>2013-07-27T09:33:34Z</time>
      </trkpt>
      <trkpt lat="42.382316000" lon="-2.407700000">
        <ele>527.80</ele>
        <time>2013-07-27T09:33:35Z</time>
      </trkpt>
      <trkpt lat="42.382318000" lon="-2.407699000">
        <ele>527.60</ele>
        <time>2013-07-27T09:33:36Z</time>
      </trkpt>
      <trkpt lat="42.382318000" lon="-2.407699000">
        <ele>527.50</ele>
        <time>2013-07-27T09:33:37Z</time>
      </trkpt>
      <trkpt lat="42.382318000" lon="-2.407697000">
        <ele>527.40</ele>
        <time>2013-07-27T09:33:38Z</time>
      </trkpt>
      <trkpt lat="42.382317000" lon="-2.407696000">
        <ele>527.30</ele>
        <time>2013-07-27T09:33:39Z</time>
      </trkpt>
      <trkpt lat="42.382317000" lon="-2.407696000">
        <ele>527.40</ele>
        <time>2013-07-27T09:33:40Z</time>
      </trkpt>
      <trkpt lat="42.382318000" lon="-2.407697000">
        <ele>527.50</ele>
        <time>2013-07-27T09:33:41Z</time>
      </trkpt>
      <trkpt lat="42.382319000" lon="-2.407697000">
        <ele>527.60</ele>
        <time>2013-07-27T09:33:42Z</time>
      </trkpt>
      <trkpt lat="42.382319000" lon="-2.407697000">
        <ele>527.70</ele>
        <time>2013-07-27T09:33:43Z</time>
      </trkpt>
      <trkpt lat="42.382321000" lon="-2.407696000">
        <ele>527.80</ele>
        <time>2013-07-27T09:33:44Z</time>
      </trkpt>
      <trkpt lat="42.382320000" lon="-2.407694000">
        <ele>527.80</ele>
        <time>2013-07-27T09:33:45Z</time>
      </trkpt>
      <trkpt lat="42.382318000" lon="-2.407691000">
        <ele>528.00</ele>
        <time>2013-07-27T09:33:46Z</time>
      </trkpt>
      <trkpt lat="42.382315000" lon="-2.407690000">
        <ele>528.10</ele>
        <time>2013-07-27T09:33:47Z</time>
      </trkpt>
      <trkpt lat="42.382313000" lon="-2.407691000">
        <ele>528.20</ele>
        <time>2013-07-27T09:33:48Z</time>
      </trkpt>
      <trkpt lat="42.382313000" lon="-2.407690000">
        <ele>528.20</ele>
        <time>2013-07-27T09:33:49Z</time>
      </trkpt>
      <trkpt lat="42.382314000" lon="-2.407691000">
        <ele>528.00</ele>
        <time>2013-07-27T09:33:50Z</time>
      </trkpt>
      <trkpt lat="42.382315000" lon="-2.407693000">
        <ele>527.90</ele>
        <time>2013-07-27T09:33:51Z</time>
      </trkpt>
      <trkpt lat="42.382316000" lon="-2.407693000">
        <ele>527.80</ele>
        <time>2013-07-27T09:33:52Z</time>
      </trkpt>
      <trkpt lat="42.382316000" lon="-2.407692000">
        <ele>527.70</ele>
        <time>2013-07-27T09:33:53Z</time>
      </trkpt>
      <trkpt lat="42.382315000" lon="-2.407691000">
        <ele>527.70</ele>
        <time>2013-07-27T09:33:54Z</time>
      </trkpt>
      <trkpt lat="42.382315000" lon="-2.407688000">
        <ele>527.60</ele>
        <time>2013-07-27T09:33:55Z</time>
      </trkpt>
      <trkpt lat="42.382313000" lon="-2.407689000">
        <ele>527.70</ele>
        <time>2013-07-27T09:33:56Z</time>
      </trkpt>
      <trkpt lat="42.382312000" lon="-2.407689000">
        <ele>527.70</ele>
        <time>2013-07-27T09:33:57Z</time>
      </trkpt>
      <trkpt lat="42.382311000" lon="-2.407689000">
        <ele>527.70</ele>
        <time>2013-07-27T09:33:58Z</time>
      </trkpt>
      <trkpt lat="42.382311000" lon="-2.407690000">
        <ele>527.70</ele>
        <time>2013-07-27T09:33:59Z</time>
      </trkpt>
      <trkpt lat="42.382312000" lon="-2.407691000">
        <ele>527.70</ele>
        <time>2013-07-27T09:34:00Z</time>
      </trkpt>
      <trkpt lat="42.382314000" lon="-2.407699000">
        <ele>527.80</ele>
        <time>2013-07-27T09:34:01Z</time>
      </trkpt>
      <trkpt lat="42.382314000" lon="-2.407701000">
        <ele>527.70</ele>
        <time>2013-07-27T09:34:02Z</time>
      </trkpt>
      <trkpt lat="42.382313000" lon="-2.407699000">
        <ele>527.70</ele>
        <time>2013-07-27T09:34:03Z</time>
      </trkpt>
      <trkpt lat="42.382313000" lon="-2.407699000">
        <ele>527.70</ele>
        <time>2013-07-27T09:34:04Z</time>
      </trkpt>
      <trkpt lat="42.382312000" lon="-2.407699000">
        <ele>527.60</ele>
        <time>2013-07-27T09:34:05Z</time>
      </trkpt>
      <trkpt lat="42.382311000" lon="-2.407704000">
        <ele>527.60</ele>
        <time>2013-07-27T09:34:06Z</time>
      </trkpt>
      <trkpt lat="42.382312000" lon="-2.407706000">
        <ele>527.60</ele>
        <time>2013-07-27T09:34:07Z</time>
      </trkpt>
      <trkpt lat="42.382312000" lon="-2.407706000">
        <ele>527.60</ele>
        <time>2013-07-27T09:34:08Z</time>
      </trkpt>
      <trkpt lat="42.382315000" lon="-2.407702000">
        <ele>527.60</ele>
        <time>2013-07-27T09:34:09Z</time>
      </trkpt>
      <trkpt lat="42.382314000" lon="-2.407704000">
        <ele>527.50</ele>
        <time>2013-07-27T09:34:10Z</time>
      </trkpt>
      <trkpt lat="42.382315000" lon="-2.407707000">
        <ele>527.50</ele>
        <time>2013-07-27T09:34:11Z</time>
      </trkpt>
      <trkpt lat="42.382316000" lon="-2.407708000">
        <ele>527.50</ele>
        <time>2013-07-27T09:34:12Z</time>
      </trkpt>
      <trkpt lat="42.382316000" lon="-2.407709000">
        <ele>527.50</ele>
        <time>2013-07-27T09:34:13Z</time>
      </trkpt>
      <trkpt lat="42.382316000" lon="-2.407712000">
        <ele>527.60</ele>
        <time>2013-07-27T09:34:14Z</time>
      </trkpt>
      <trkpt lat="42.382313000" lon="-2.407710000">
        <ele>527.60</ele>
        <time>2013-07-27T09:34:15Z</time>
      </trkpt>
      <trkpt lat="42.382314000" lon="-2.407705000">
        <ele>527.60</ele>
        <time>2013-07-27T09:34:16Z</time>
      </trkpt>
      <trkpt lat="42.382315000" lon="-2.407703000">
        <ele>527.60</ele>
        <time>2013-07-27T09:34:17Z</time>
      </trkpt>
      <trkpt lat="42.382316000" lon="-2.407702000">
        <ele>527.50</ele>
        <time>2013-07-27T09:34:18Z</time>
      </trkpt>
      <trkpt lat="42.382317000" lon="-2.407702000">
        <ele>527.40</ele>
        <time>2013-07-27T09:34:19Z</time>
      </trkpt>
      <trkpt lat="42.382318000" lon="-2.407702000">
        <ele>527.30</ele>
        <time>2013-07-27T09:34:20Z</time>
      </trkpt>
      <trkpt lat="42.382317000" lon="-2.407703000">
        <ele>527.20</ele>
        <time>2013-07-27T09:34:21Z</time>
      </trkpt>
      <trkpt lat="42.382316000" lon="-2.407703000">
        <ele>527.20</ele>
        <time>2013-07-27T09:34:22Z</time>
      </trkpt>
      <trkpt lat="42.382313000" lon="-2.407701000">
        <ele>527.20</ele>
        <time>2013-07-27T09:34:23Z</time>
      </trkpt>
      <trkpt lat="42.382308000" lon="-2.407697000">
        <ele>527.10</ele>
        <time>2013-07-27T09:34:24Z</time>
      </trkpt>
      <trkpt lat="42.382302000" lon="-2.407690000">
        <ele>527.00</ele>
        <time>2013-07-27T09:34:25Z</time>
      </trkpt>
      <trkpt lat="42.382288000" lon="-2.407673000">
        <ele>527.00</ele>
        <time>2013-07-27T09:34:26Z</time>
      </trkpt>
      <trkpt lat="42.382268000" lon="-2.407655000">
        <ele>526.90</ele>
        <time>2013-07-27T09:34:27Z</time>
      </trkpt>
      <trkpt lat="42.382247000" lon="-2.407641000">
        <ele>526.90</ele>
        <time>2013-07-27T09:34:28Z</time>
      </trkpt>
      <trkpt lat="42.382224000" lon="-2.407632000">
        <ele>526.90</ele>
        <time>2013-07-27T09:34:29Z</time>
      </trkpt>
      <trkpt lat="42.382200000" lon="-2.407625000">
        <ele>527.20</ele>
        <time>2013-07-27T09:34:30Z</time>
      </trkpt>
      <trkpt lat="42.382174000" lon="-2.407623000">
        <ele>527.40</ele>
        <time>2013-07-27T09:34:31Z</time>
      </trkpt>
      <trkpt lat="42.382147000" lon="-2.407624000">
        <ele>527.30</ele>
        <time>2013-07-27T09:34:32Z</time>
      </trkpt>
      <trkpt lat="42.382121000" lon="-2.407638000">
        <ele>527.20</ele>
        <time>2013-07-27T09:34:33Z</time>
      </trkpt>
      <trkpt lat="42.382088000" lon="-2.407647000">
        <ele>527.40</ele>
        <time>2013-07-27T09:34:34Z</time>
      </trkpt>
      <trkpt lat="42.382055000" lon="-2.407655000">
        <ele>527.60</ele>
        <time>2013-07-27T09:34:35Z</time>
      </trkpt>
      <trkpt lat="42.382021000" lon="-2.407664000">
        <ele>527.40</ele>
        <time>2013-07-27T09:34:36Z</time>
      </trkpt>
      <trkpt lat="42.381982000" lon="-2.407666000">
        <ele>527.20</ele>
        <time>2013-07-27T09:34:37Z</time>
      </trkpt>
      <trkpt lat="42.381943000" lon="-2.407669000">
        <ele>527.50</ele>
        <time>2013-07-27T09:34:38Z</time>
      </trkpt>
      <trkpt lat="42.381902000" lon="-2.407670000">
        <ele>527.70</ele>
        <time>2013-07-27T09:34:39Z</time>
      </trkpt>
      <trkpt lat="42.381861000" lon="-2.407669000">
        <ele>527.70</ele>
        <time>2013-07-27T09:34:40Z</time>
      </trkpt>
      <trkpt lat="42.381820000" lon="-2.407667000">
        <ele>527.70</ele>
        <time>2013-07-27T09:34:41Z</time>
      </trkpt>
      <trkpt lat="42.381777000" lon="-2.407661000">
        <ele>527.70</ele>
        <time>2013-07-27T09:34:42Z</time>
      </trkpt>
      <trkpt lat="42.381732000" lon="-2.407657000">
        <ele>527.60</ele>
        <time>2013-07-27T09:34:43Z</time>
      </trkpt>
      <trkpt lat="42.381687000" lon="-2.407658000">
        <ele>527.60</ele>
        <time>2013-07-27T09:34:44Z</time>
      </trkpt>
      <trkpt lat="42.381632000" lon="-2.407656000">
        <ele>527.60</ele>
        <time>2013-07-27T09:34:45Z</time>
      </trkpt>
      <trkpt lat="42.381573000" lon="-2.407660000">
        <ele>527.90</ele>
        <time>2013-07-27T09:34:46Z</time>
      </trkpt>
      <trkpt lat="42.381513000" lon="-2.407666000">
        <ele>528.10</ele>
        <time>2013-07-27T09:34:47Z</time>
      </trkpt>
      <trkpt lat="42.381453000" lon="-2.407671000">
        <ele>528.20</ele>
        <time>2013-07-27T09:34:48Z</time>
      </trkpt>
      <trkpt lat="42.381395000" lon="-2.407669000">
        <ele>528.30</ele>
        <time>2013-07-27T09:34:49Z</time>
      </trkpt>
      <trkpt lat="42.381341000" lon="-2.407668000">
        <ele>527.70</ele>
        <time>2013-07-27T09:34:50Z</time>
      </trkpt>
      <trkpt lat="42.381291000" lon="-2.407667000">
        <ele>527.20</ele>
        <time>2013-07-27T09:34:51Z</time>
      </trkpt>
      <trkpt lat="42.381247000" lon="-2.407662000">
        <ele>526.80</ele>
        <time>2013-07-27T09:34:52Z</time>
      </trkpt>
      <trkpt lat="42.381207000" lon="-2.407661000">
        <ele>526.60</ele>
        <time>2013-07-27T09:34:53Z</time>
      </trkpt>
      <trkpt lat="42.381168000" lon="-2.407657000">
        <ele>526.40</ele>
        <time>2013-07-27T09:34:54Z</time>
      </trkpt>
      <trkpt lat="42.381127000" lon="-2.407653000">
        <ele>526.30</ele>
        <time>2013-07-27T09:34:55Z</time>
      </trkpt>
      <trkpt lat="42.381088000" lon="-2.407648000">
        <ele>526.40</ele>
        <time>2013-07-27T09:34:56Z</time>
      </trkpt>
      <trkpt lat="42.381049000" lon="-2.407644000">
        <ele>526.40</ele>
        <time>2013-07-27T09:34:57Z</time>
      </trkpt>
      <trkpt lat="42.381010000" lon="-2.407642000">
        <ele>526.50</ele>
        <time>2013-07-27T09:34:58Z</time>
      </trkpt>
      <trkpt lat="42.380969000" lon="-2.407643000">
        <ele>526.50</ele>
        <time>2013-07-27T09:34:59Z</time>
      </trkpt>
      <trkpt lat="42.380928000" lon="-2.407649000">
        <ele>526.50</ele>
        <time>2013-07-27T09:35:00Z</time>
      </trkpt>
      <trkpt lat="42.380885000" lon="-2.407657000">
        <ele>526.50</ele>
        <time>2013-07-27T09:35:01Z</time>
      </trkpt>
      <trkpt lat="42.380844000" lon="-2.407665000">
        <ele>526.30</ele>
        <time>2013-07-27T09:35:02Z</time>
      </trkpt>
      <trkpt lat="42.380806000" lon="-2.407672000">
        <ele>526.10</ele>
        <time>2013-07-27T09:35:03Z</time>
      </trkpt>
      <trkpt lat="42.380769000" lon="-2.407679000">
        <ele>525.90</ele>
        <time>2013-07-27T09:35:04Z</time>
      </trkpt>
      <trkpt lat="42.380732000" lon="-2.407687000">
        <ele>525.70</ele>
        <time>2013-07-27T09:35:05Z</time>
      </trkpt>
      <trkpt lat="42.380696000" lon="-2.407693000">
        <ele>525.60</ele>
        <time>2013-07-27T09:35:06Z</time>
      </trkpt>
      <trkpt lat="42.380661000" lon="-2.407700000">
        <ele>525.50</ele>
        <time>2013-07-27T09:35:07Z</time>
      </trkpt>
      <trkpt lat="42.380627000" lon="-2.407705000">
        <ele>525.70</ele>
        <time>2013-07-27T09:35:08Z</time>
      </trkpt>
      <trkpt lat="42.380596000" lon="-2.407711000">
        <ele>525.80</ele>
        <time>2013-07-27T09:35:09Z</time>
      </trkpt>
      <trkpt lat="42.380563000" lon="-2.407720000">
        <ele>525.90</ele>
        <time>2013-07-27T09:35:10Z</time>
      </trkpt>
      <trkpt lat="42.380532000" lon="-2.407732000">
        <ele>526.00</ele>
        <time>2013-07-27T09:35:11Z</time>
      </trkpt>
      <trkpt lat="42.380503000" lon="-2.407739000">
        <ele>526.20</ele>
        <time>2013-07-27T09:35:12Z</time>
      </trkpt>
      <trkpt lat="42.380478000" lon="-2.407748000">
        <ele>526.30</ele>
        <time>2013-07-27T09:35:13Z</time>
      </trkpt>
      <trkpt lat="42.380452000" lon="-2.407757000">
        <ele>526.30</ele>
        <time>2013-07-27T09:35:14Z</time>
      </trkpt>
      <trkpt lat="42.380425000" lon="-2.407769000">
        <ele>526.40</ele>
        <time>2013-07-27T09:35:15Z</time>
      </trkpt>
      <trkpt lat="42.380403000" lon="-2.407773000">
        <ele>526.40</ele>
        <time>2013-07-27T09:35:16Z</time>
      </trkpt>
      <trkpt lat="42.380375000" lon="-2.407780000">
        <ele>526.30</ele>
        <time>2013-07-27T09:35:17Z</time>
      </trkpt>
      <trkpt lat="42.380344000" lon="-2.407784000">
        <ele>526.30</ele>
        <time>2013-07-27T09:35:18Z</time>
      </trkpt>
      <trkpt lat="42.380317000" lon="-2.407768000">
        <ele>526.30</ele>
        <time>2013-07-27T09:35:19Z</time>
      </trkpt>
      <trkpt lat="42.380289000" lon="-2.407748000">
        <ele>526.40</ele>
        <time>2013-07-27T09:35:20Z</time>
      </trkpt>
      <trkpt lat="42.380271000" lon="-2.407729000">
        <ele>526.50</ele>
        <time>2013-07-27T09:35:21Z</time>
      </trkpt>
      <trkpt lat="42.380256000" lon="-2.407717000">
        <ele>526.60</ele>
        <time>2013-07-27T09:35:22Z</time>
      </trkpt>
      <trkpt lat="42.380241000" lon="-2.407711000">
        <ele>526.70</ele>
        <time>2013-07-27T09:35:23Z</time>
      </trkpt>
      <trkpt lat="42.380229000" lon="-2.407704000">
        <ele>526.60</ele>
        <time>2013-07-27T09:35:24Z</time>
      </trkpt>
      <trkpt lat="42.380216000" lon="-2.407700000">
        <ele>526.60</ele>
        <time>2013-07-27T09:35:25Z</time>
      </trkpt>
      <trkpt lat="42.380200000" lon="-2.407696000">
        <ele>526.60</ele>
        <time>2013-07-27T09:35:26Z</time>
      </trkpt>
      <trkpt lat="42.380180000" lon="-2.407686000">
        <ele>526.60</ele>
        <time>2013-07-27T09:35:27Z</time>
      </trkpt>
      <trkpt lat="42.380156000" lon="-2.407677000">
        <ele>526.60</ele>
        <time>2013-07-27T09:35:28Z</time>
      </trkpt>
      <trkpt lat="42.380131000" lon="-2.407669000">
        <ele>526.70</ele>
        <time>2013-07-27T09:35:29Z</time>
      </trkpt>
      <trkpt lat="42.380104000" lon="-2.407668000">
        <ele>526.70</ele>
        <time>2013-07-27T09:35:30Z</time>
      </trkpt>
      <trkpt lat="42.380080000" lon="-2.407667000">
        <ele>526.70</ele>
        <time>2013-07-27T09:35:31Z</time>
      </trkpt>
      <trkpt lat="42.380056000" lon="-2.407668000">
        <ele>526.80</ele>
        <time>2013-07-27T09:35:32Z</time>
      </trkpt>
      <trkpt lat="42.380032000" lon="-2.407672000">
        <ele>526.80</ele>
        <time>2013-07-27T09:35:33Z</time>
      </trkpt>
      <trkpt lat="42.380007000" lon="-2.407677000">
        <ele>526.80</ele>
        <time>2013-07-27T09:35:34Z</time>
      </trkpt>
      <trkpt lat="42.379983000" lon="-2.407679000">
        <ele>526.80</ele>
        <time>2013-07-27T09:35:35Z</time>
      </trkpt>
      <trkpt lat="42.379961000" lon="-2.407683000">
        <ele>527.10</ele>
        <time>2013-07-27T09:35:36Z</time>
      </trkpt>
      <trkpt lat="42.379937000" lon="-2.407687000">
        <ele>527.30</ele>
        <time>2013-07-27T09:35:37Z</time>
      </trkpt>
      <trkpt lat="42.379915000" lon="-2.407700000">
        <ele>527.60</ele>
        <time>2013-07-27T09:35:38Z</time>
      </trkpt>
      <trkpt lat="42.379893000" lon="-2.407710000">
        <ele>527.80</ele>
        <time>2013-07-27T09:35:39Z</time>
      </trkpt>
      <trkpt lat="42.379870000" lon="-2.407719000">
        <ele>528.30</ele>
        <time>2013-07-27T09:35:40Z</time>
      </trkpt>
      <trkpt lat="42.379846000" lon="-2.407729000">
        <ele>528.60</ele>
        <time>2013-07-27T09:35:41Z</time>
      </trkpt>
      <trkpt lat="42.379825000" lon="-2.407740000">
        <ele>529.00</ele>
        <time>2013-07-27T09:35:42Z</time>
      </trkpt>
      <trkpt lat="42.379800000" lon="-2.407751000">
        <ele>529.20</ele>
        <time>2013-07-27T09:35:43Z</time>
      </trkpt>
      <trkpt lat="42.379778000" lon="-2.407763000">
        <ele>529.40</ele>
        <time>2013-07-27T09:35:44Z</time>
      </trkpt>
      <trkpt lat="42.379758000" lon="-2.407772000">
        <ele>529.50</ele>
        <time>2013-07-27T09:35:45Z</time>
      </trkpt>
      <trkpt lat="42.379738000" lon="-2.407773000">
        <ele>529.70</ele>
        <time>2013-07-27T09:35:46Z</time>
      </trkpt>
      <trkpt lat="42.379721000" lon="-2.407773000">
        <ele>529.70</ele>
        <time>2013-07-27T09:35:47Z</time>
      </trkpt>
      <trkpt lat="42.379704000" lon="-2.407773000">
        <ele>530.00</ele>
        <time>2013-07-27T09:35:48Z</time>
      </trkpt>
      <trkpt lat="42.379684000" lon="-2.407777000">
        <ele>530.20</ele>
        <time>2013-07-27T09:35:49Z</time>
      </trkpt>
      <trkpt lat="42.379664000" lon="-2.407779000">
        <ele>530.30</ele>
        <time>2013-07-27T09:35:50Z</time>
      </trkpt>
      <trkpt lat="42.379644000" lon="-2.407781000">
        <ele>530.40</ele>
        <time>2013-07-27T09:35:51Z</time>
      </trkpt>
      <trkpt lat="42.379625000" lon="-2.407784000">
        <ele>530.50</ele>
        <time>2013-07-27T09:35:52Z</time>
      </trkpt>
      <trkpt lat="42.379607000" lon="-2.407783000">
        <ele>530.60</ele>
        <time>2013-07-27T09:35:53Z</time>
      </trkpt>
      <trkpt lat="42.379585000" lon="-2.407784000">
        <ele>530.80</ele>
        <time>2013-07-27T09:35:54Z</time>
      </trkpt>
      <trkpt lat="42.379565000" lon="-2.407788000">
        <ele>531.00</ele>
        <time>2013-07-27T09:35:55Z</time>
      </trkpt>
      <trkpt lat="42.379543000" lon="-2.407793000">
        <ele>531.20</ele>
        <time>2013-07-27T09:35:56Z</time>
      </trkpt>
      <trkpt lat="42.379520000" lon="-2.407794000">
        <ele>531.30</ele>
        <time>2013-07-27T09:35:57Z</time>
      </trkpt>
      <trkpt lat="42.379498000" lon="-2.407789000">
        <ele>531.60</ele>
        <time>2013-07-27T09:35:58Z</time>
      </trkpt>
      <trkpt lat="42.379472000" lon="-2.407792000">
        <ele>531.90</ele>
        <time>2013-07-27T09:35:59Z</time>
      </trkpt>
      <trkpt lat="42.379449000" lon="-2.407795000">
        <ele>532.20</ele>
        <time>2013-07-27T09:36:00Z</time>
      </trkpt>
      <trkpt lat="42.379428000" lon="-2.407798000">
        <ele>532.40</ele>
        <time>2013-07-27T09:36:01Z</time>
      </trkpt>
      <trkpt lat="42.379408000" lon="-2.407799000">
        <ele>532.80</ele>
        <time>2013-07-27T09:36:02Z</time>
      </trkpt>
      <trkpt lat="42.379387000" lon="-2.407800000">
        <ele>533.20</ele>
        <time>2013-07-27T09:36:03Z</time>
      </trkpt>
      <trkpt lat="42.379367000" lon="-2.407799000">
        <ele>533.30</ele>
        <time>2013-07-27T09:36:04Z</time>
      </trkpt>
      <trkpt lat="42.379345000" lon="-2.407802000">
        <ele>533.50</ele>
        <time>2013-07-27T09:36:05Z</time>
      </trkpt>
      <trkpt lat="42.379324000" lon="-2.407806000">
        <ele>533.60</ele>
        <time>2013-07-27T09:36:06Z</time>
      </trkpt>
      <trkpt lat="42.379305000" lon="-2.407804000">
        <ele>533.70</ele>
        <time>2013-07-27T09:36:07Z</time>
      </trkpt>
      <trkpt lat="42.379286000" lon="-2.407804000">
        <ele>534.10</ele>
        <time>2013-07-27T09:36:08Z</time>
      </trkpt>
      <trkpt lat="42.379266000" lon="-2.407804000">
        <ele>534.40</ele>
        <time>2013-07-27T09:36:09Z</time>
      </trkpt>
      <trkpt lat="42.379247000" lon="-2.407805000">
        <ele>534.60</ele>
        <time>2013-07-27T09:36:10Z</time>
      </trkpt>
      <trkpt lat="42.379225000" lon="-2.407807000">
        <ele>534.80</ele>
        <time>2013-07-27T09:36:11Z</time>
      </trkpt>
      <trkpt lat="42.379205000" lon="-2.407809000">
        <ele>535.10</ele>
        <time>2013-07-27T09:36:12Z</time>
      </trkpt>
      <trkpt lat="42.379186000" lon="-2.407810000">
        <ele>535.20</ele>
        <time>2013-07-27T09:36:13Z</time>
      </trkpt>
      <trkpt lat="42.379170000" lon="-2.407811000">
        <ele>535.40</ele>
        <time>2013-07-27T09:36:14Z</time>
      </trkpt>
      <trkpt lat="42.379151000" lon="-2.407812000">
        <ele>535.50</ele>
        <time>2013-07-27T09:36:15Z</time>
      </trkpt>
      <trkpt lat="42.379134000" lon="-2.407814000">
        <ele>535.70</ele>
        <time>2013-07-27T09:36:16Z</time>
      </trkpt>
      <trkpt lat="42.379117000" lon="-2.407818000">
        <ele>535.80</ele>
        <time>2013-07-27T09:36:17Z</time>
      </trkpt>
      <trkpt lat="42.379100000" lon="-2.407822000">
        <ele>535.90</ele>
        <time>2013-07-27T09:36:18Z</time>
      </trkpt>
      <trkpt lat="42.379082000" lon="-2.407826000">
        <ele>536.00</ele>
        <time>2013-07-27T09:36:19Z</time>
      </trkpt>
      <trkpt lat="42.379064000" lon="-2.407829000">
        <ele>536.10</ele>
        <time>2013-07-27T09:36:20Z</time>
      </trkpt>
      <trkpt lat="42.379048000" lon="-2.407829000">
        <ele>536.10</ele>
        <time>2013-07-27T09:36:21Z</time>
      </trkpt>
      <trkpt lat="42.379029000" lon="-2.407833000">
        <ele>536.30</ele>
        <time>2013-07-27T09:36:22Z</time>
      </trkpt>
      <trkpt lat="42.379010000" lon="-2.407836000">
        <ele>536.40</ele>
        <time>2013-07-27T09:36:23Z</time>
      </trkpt>
      <trkpt lat="42.378991000" lon="-2.407839000">
        <ele>536.50</ele>
        <time>2013-07-27T09:36:24Z</time>
      </trkpt>
      <trkpt lat="42.378972000" lon="-2.407838000">
        <ele>536.70</ele>
        <time>2013-07-27T09:36:25Z</time>
      </trkpt>
      <trkpt lat="42.378953000" lon="-2.407838000">
        <ele>537.10</ele>
        <time>2013-07-27T09:36:26Z</time>
      </trkpt>
      <trkpt lat="42.378932000" lon="-2.407841000">
        <ele>537.40</ele>
        <time>2013-07-27T09:36:27Z</time>
      </trkpt>
      <trkpt lat="42.378910000" lon="-2.407845000">
        <ele>537.60</ele>
        <time>2013-07-27T09:36:28Z</time>
      </trkpt>
      <trkpt lat="42.378890000" lon="-2.407846000">
        <ele>537.80</ele>
        <time>2013-07-27T09:36:29Z</time>
      </trkpt>
      <trkpt lat="42.378868000" lon="-2.407846000">
        <ele>538.10</ele>
        <time>2013-07-27T09:36:30Z</time>
      </trkpt>
      <trkpt lat="42.378845000" lon="-2.407851000">
        <ele>538.40</ele>
        <time>2013-07-27T09:36:31Z</time>
      </trkpt>
      <trkpt lat="42.378825000" lon="-2.407861000">
        <ele>538.80</ele>
        <time>2013-07-27T09:36:32Z</time>
      </trkpt>
      <trkpt lat="42.378807000" lon="-2.407871000">
        <ele>539.10</ele>
        <time>2013-07-27T09:36:33Z</time>
      </trkpt>
      <trkpt lat="42.378790000" lon="-2.407881000">
        <ele>539.30</ele>
        <time>2013-07-27T09:36:34Z</time>
      </trkpt>
      <trkpt lat="42.378772000" lon="-2.407890000">
        <ele>539.40</ele>
        <time>2013-07-27T09:36:35Z</time>
      </trkpt>
      <trkpt lat="42.378754000" lon="-2.407898000">
        <ele>539.40</ele>
        <time>2013-07-27T09:36:36Z</time>
      </trkpt>
      <trkpt lat="42.378731000" lon="-2.407914000">
        <ele>539.40</ele>
        <time>2013-07-27T09:36:37Z</time>
      </trkpt>
      <trkpt lat="42.378708000" lon="-2.407928000">
        <ele>539.40</ele>
        <time>2013-07-27T09:36:38Z</time>
      </trkpt>
      <trkpt lat="42.378680000" lon="-2.407943000">
        <ele>539.40</ele>
        <time>2013-07-27T09:36:39Z</time>
      </trkpt>
      <trkpt lat="42.378655000" lon="-2.407958000">
        <ele>539.80</ele>
        <time>2013-07-27T09:36:40Z</time>
      </trkpt>
      <trkpt lat="42.378629000" lon="-2.407972000">
        <ele>540.10</ele>
        <time>2013-07-27T09:36:41Z</time>
      </trkpt>
      <trkpt lat="42.378600000" lon="-2.407986000">
        <ele>540.40</ele>
        <time>2013-07-27T09:36:42Z</time>
      </trkpt>
      <trkpt lat="42.378572000" lon="-2.407999000">
        <ele>540.60</ele>
        <time>2013-07-27T09:36:43Z</time>
      </trkpt>
      <trkpt lat="42.378544000" lon="-2.408013000">
        <ele>540.70</ele>
        <time>2013-07-27T09:36:44Z</time>
      </trkpt>
      <trkpt lat="42.378518000" lon="-2.408029000">
        <ele>540.80</ele>
        <time>2013-07-27T09:36:45Z</time>
      </trkpt>
      <trkpt lat="42.378489000" lon="-2.408044000">
        <ele>540.80</ele>
        <time>2013-07-27T09:36:46Z</time>
      </trkpt>
      <trkpt lat="42.378460000" lon="-2.408057000">
        <ele>540.90</ele>
        <time>2013-07-27T09:36:47Z</time>
      </trkpt>
      <trkpt lat="42.378432000" lon="-2.408071000">
        <ele>540.70</ele>
        <time>2013-07-27T09:36:48Z</time>
      </trkpt>
      <trkpt lat="42.378404000" lon="-2.408081000">
        <ele>540.60</ele>
        <time>2013-07-27T09:36:49Z</time>
      </trkpt>
      <trkpt lat="42.378374000" lon="-2.408092000">
        <ele>540.50</ele>
        <time>2013-07-27T09:36:50Z</time>
      </trkpt>
      <trkpt lat="42.378346000" lon="-2.408104000">
        <ele>540.40</ele>
        <time>2013-07-27T09:36:51Z</time>
      </trkpt>
      <trkpt lat="42.378316000" lon="-2.408117000">
        <ele>540.70</ele>
        <time>2013-07-27T09:36:52Z</time>
      </trkpt>
      <trkpt lat="42.378285000" lon="-2.408134000">
        <ele>540.90</ele>
        <time>2013-07-27T09:36:53Z</time>
      </trkpt>
      <trkpt lat="42.378256000" lon="-2.408149000">
        <ele>541.00</ele>
        <time>2013-07-27T09:36:54Z</time>
      </trkpt>
      <trkpt lat="42.378224000" lon="-2.408167000">
        <ele>541.20</ele>
        <time>2013-07-27T09:36:55Z</time>
      </trkpt>
      <trkpt lat="42.378196000" lon="-2.408184000">
        <ele>541.10</ele>
        <time>2013-07-27T09:36:56Z</time>
      </trkpt>
      <trkpt lat="42.378168000" lon="-2.408193000">
        <ele>541.00</ele>
        <time>2013-07-27T09:36:57Z</time>
      </trkpt>
      <trkpt lat="42.378135000" lon="-2.408205000">
        <ele>541.00</ele>
        <time>2013-07-27T09:36:58Z</time>
      </trkpt>
      <trkpt lat="42.378106000" lon="-2.408219000">
        <ele>541.00</ele>
        <time>2013-07-27T09:36:59Z</time>
      </trkpt>
      <trkpt lat="42.378075000" lon="-2.408233000">
        <ele>541.00</ele>
        <time>2013-07-27T09:37:00Z</time>
      </trkpt>
      <trkpt lat="42.378046000" lon="-2.408246000">
        <ele>540.90</ele>
        <time>2013-07-27T09:37:01Z</time>
      </trkpt>
      <trkpt lat="42.378014000" lon="-2.408264000">
        <ele>540.90</ele>
        <time>2013-07-27T09:37:02Z</time>
      </trkpt>
      <trkpt lat="42.377987000" lon="-2.408285000">
        <ele>540.90</ele>
        <time>2013-07-27T09:37:03Z</time>
      </trkpt>
      <trkpt lat="42.377959000" lon="-2.408304000">
        <ele>540.90</ele>
        <time>2013-07-27T09:37:04Z</time>
      </trkpt>
      <trkpt lat="42.377929000" lon="-2.408324000">
        <ele>540.90</ele>
        <time>2013-07-27T09:37:05Z</time>
      </trkpt>
      <trkpt lat="42.377899000" lon="-2.408343000">
        <ele>540.90</ele>
        <time>2013-07-27T09:37:06Z</time>
      </trkpt>
      <trkpt lat="42.377866000" lon="-2.408365000">
        <ele>540.90</ele>
        <time>2013-07-27T09:37:07Z</time>
      </trkpt>
      <trkpt lat="42.377835000" lon="-2.408386000">
        <ele>541.00</ele>
        <time>2013-07-27T09:37:08Z</time>
      </trkpt>
      <trkpt lat="42.377812000" lon="-2.408404000">
        <ele>541.10</ele>
        <time>2013-07-27T09:37:09Z</time>
      </trkpt>
      <trkpt lat="42.377788000" lon="-2.408418000">
        <ele>541.10</ele>
        <time>2013-07-27T09:37:10Z</time>
      </trkpt>
      <trkpt lat="42.377766000" lon="-2.408434000">
        <ele>541.00</ele>
        <time>2013-07-27T09:37:11Z</time>
      </trkpt>
      <trkpt lat="42.377741000" lon="-2.408445000">
        <ele>541.30</ele>
        <time>2013-07-27T09:37:12Z</time>
      </trkpt>
      <trkpt lat="42.377717000" lon="-2.408459000">
        <ele>541.40</ele>
        <time>2013-07-27T09:37:13Z</time>
      </trkpt>
      <trkpt lat="42.377691000" lon="-2.408474000">
        <ele>541.30</ele>
        <time>2013-07-27T09:37:14Z</time>
      </trkpt>
      <trkpt lat="42.377668000" lon="-2.408487000">
        <ele>541.20</ele>
        <time>2013-07-27T09:37:15Z</time>
      </trkpt>
      <trkpt lat="42.377643000" lon="-2.408499000">
        <ele>541.10</ele>
        <time>2013-07-27T09:37:16Z</time>
      </trkpt>
      <trkpt lat="42.377617000" lon="-2.408517000">
        <ele>541.10</ele>
        <time>2013-07-27T09:37:17Z</time>
      </trkpt>
      <trkpt lat="42.377589000" lon="-2.408533000">
        <ele>541.00</ele>
        <time>2013-07-27T09:37:18Z</time>
      </trkpt>
      <trkpt lat="42.377567000" lon="-2.408549000">
        <ele>541.00</ele>
        <time>2013-07-27T09:37:19Z</time>
      </trkpt>
      <trkpt lat="42.377541000" lon="-2.408566000">
        <ele>540.80</ele>
        <time>2013-07-27T09:37:20Z</time>
      </trkpt>
      <trkpt lat="42.377518000" lon="-2.408579000">
        <ele>540.60</ele>
        <time>2013-07-27T09:37:21Z</time>
      </trkpt>
      <trkpt lat="42.377495000" lon="-2.408594000">
        <ele>540.60</ele>
        <time>2013-07-27T09:37:22Z</time>
      </trkpt>
      <trkpt lat="42.377471000" lon="-2.408608000">
        <ele>540.60</ele>
        <time>2013-07-27T09:37:23Z</time>
      </trkpt>
      <trkpt lat="42.377448000" lon="-2.408621000">
        <ele>540.50</ele>
        <time>2013-07-27T09:37:24Z</time>
      </trkpt>
      <trkpt lat="42.377423000" lon="-2.408632000">
        <ele>540.40</ele>
        <time>2013-07-27T09:37:25Z</time>
      </trkpt>
      <trkpt lat="42.377398000" lon="-2.408641000">
        <ele>540.50</ele>
        <time>2013-07-27T09:37:26Z</time>
      </trkpt>
      <trkpt lat="42.377376000" lon="-2.408651000">
        <ele>540.50</ele>
        <time>2013-07-27T09:37:27Z</time>
      </trkpt>
      <trkpt lat="42.377349000" lon="-2.408666000">
        <ele>540.40</ele>
        <time>2013-07-27T09:37:28Z</time>
      </trkpt>
      <trkpt lat="42.377318000" lon="-2.408675000">
        <ele>540.30</ele>
        <time>2013-07-27T09:37:29Z</time>
      </trkpt>
      <trkpt lat="42.377288000" lon="-2.408682000">
        <ele>540.40</ele>
        <time>2013-07-27T09:37:30Z</time>
      </trkpt>
      <trkpt lat="42.377254000" lon="-2.408681000">
        <ele>540.50</ele>
        <time>2013-07-27T09:37:31Z</time>
      </trkpt>
      <trkpt lat="42.377222000" lon="-2.408677000">
        <ele>540.50</ele>
        <time>2013-07-27T09:37:32Z</time>
      </trkpt>
      <trkpt lat="42.377189000" lon="-2.408672000">
        <ele>540.50</ele>
        <time>2013-07-27T09:37:33Z</time>
      </trkpt>
      <trkpt lat="42.377151000" lon="-2.408670000">
        <ele>540.60</ele>
        <time>2013-07-27T09:37:34Z</time>
      </trkpt>
      <trkpt lat="42.377115000" lon="-2.408660000">
        <ele>540.70</ele>
        <time>2013-07-27T09:37:35Z</time>
      </trkpt>
      <trkpt lat="42.377075000" lon="-2.408647000">
        <ele>540.70</ele>
        <time>2013-07-27T09:37:36Z</time>
      </trkpt>
      <trkpt lat="42.377031000" lon="-2.408639000">
        <ele>540.80</ele>
        <time>2013-07-27T09:37:37Z</time>
      </trkpt>
      <trkpt lat="42.376987000" lon="-2.408636000">
        <ele>540.70</ele>
        <time>2013-07-27T09:37:38Z</time>
      </trkpt>
      <trkpt lat="42.376945000" lon="-2.408634000">
        <ele>540.60</ele>
        <time>2013-07-27T09:37:39Z</time>
      </trkpt>
      <trkpt lat="42.376903000" lon="-2.408635000">
        <ele>540.30</ele>
        <time>2013-07-27T09:37:40Z</time>
      </trkpt>
      <trkpt lat="42.376864000" lon="-2.408634000">
        <ele>540.00</ele>
        <time>2013-07-27T09:37:41Z</time>
      </trkpt>
      <trkpt lat="42.376822000" lon="-2.408629000">
        <ele>539.80</ele>
        <time>2013-07-27T09:37:42Z</time>
      </trkpt>
      <trkpt lat="42.376779000" lon="-2.408629000">
        <ele>539.70</ele>
        <time>2013-07-27T09:37:43Z</time>
      </trkpt>
      <trkpt lat="42.376738000" lon="-2.408628000">
        <ele>539.60</ele>
        <time>2013-07-27T09:37:44Z</time>
      </trkpt>
      <trkpt lat="42.376698000" lon="-2.408622000">
        <ele>539.50</ele>
        <time>2013-07-27T09:37:45Z</time>
      </trkpt>
      <trkpt lat="42.376659000" lon="-2.408620000">
        <ele>539.50</ele>
        <time>2013-07-27T09:37:46Z</time>
      </trkpt>
      <trkpt lat="42.376621000" lon="-2.408616000">
        <ele>539.50</ele>
        <time>2013-07-27T09:37:47Z</time>
      </trkpt>
      <trkpt lat="42.376582000" lon="-2.408609000">
        <ele>539.40</ele>
        <time>2013-07-27T09:37:48Z</time>
      </trkpt>
      <trkpt lat="42.376545000" lon="-2.408600000">
        <ele>539.40</ele>
        <time>2013-07-27T09:37:49Z</time>
      </trkpt>
      <trkpt lat="42.376507000" lon="-2.408597000">
        <ele>539.10</ele>
        <time>2013-07-27T09:37:50Z</time>
      </trkpt>
      <trkpt lat="42.376470000" lon="-2.408591000">
        <ele>538.80</ele>
        <time>2013-07-27T09:37:51Z</time>
      </trkpt>
      <trkpt lat="42.376435000" lon="-2.408591000">
        <ele>538.70</ele>
        <time>2013-07-27T09:37:52Z</time>
      </trkpt>
      <trkpt lat="42.376403000" lon="-2.408599000">
        <ele>538.50</ele>
        <time>2013-07-27T09:37:53Z</time>
      </trkpt>
      <trkpt lat="42.376375000" lon="-2.408602000">
        <ele>538.50</ele>
        <time>2013-07-27T09:37:54Z</time>
      </trkpt>
      <trkpt lat="42.376348000" lon="-2.408606000">
        <ele>538.40</ele>
        <time>2013-07-27T09:37:55Z</time>
      </trkpt>
      <trkpt lat="42.376319000" lon="-2.408605000">
        <ele>538.50</ele>
        <time>2013-07-27T09:37:56Z</time>
      </trkpt>
      <trkpt lat="42.376290000" lon="-2.408608000">
        <ele>538.50</ele>
        <time>2013-07-27T09:37:57Z</time>
      </trkpt>
      <trkpt lat="42.376260000" lon="-2.408617000">
        <ele>538.20</ele>
        <time>2013-07-27T09:37:58Z</time>
      </trkpt>
      <trkpt lat="42.376228000" lon="-2.408627000">
        <ele>538.00</ele>
        <time>2013-07-27T09:37:59Z</time>
      </trkpt>
      <trkpt lat="42.376194000" lon="-2.408634000">
        <ele>537.90</ele>
        <time>2013-07-27T09:38:00Z</time>
      </trkpt>
      <trkpt lat="42.376162000" lon="-2.408634000">
        <ele>537.90</ele>
        <time>2013-07-27T09:38:01Z</time>
      </trkpt>
      <trkpt lat="42.376126000" lon="-2.408637000">
        <ele>537.80</ele>
        <time>2013-07-27T09:38:02Z</time>
      </trkpt>
      <trkpt lat="42.376092000" lon="-2.408636000">
        <ele>537.80</ele>
        <time>2013-07-27T09:38:03Z</time>
      </trkpt>
      <trkpt lat="42.376059000" lon="-2.408641000">
        <ele>537.90</ele>
        <time>2013-07-27T09:38:04Z</time>
      </trkpt>
      <trkpt lat="42.376025000" lon="-2.408641000">
        <ele>537.90</ele>
        <time>2013-07-27T09:38:05Z</time>
      </trkpt>
      <trkpt lat="42.375994000" lon="-2.408638000">
        <ele>538.00</ele>
        <time>2013-07-27T09:38:06Z</time>
      </trkpt>
      <trkpt lat="42.375963000" lon="-2.408635000">
        <ele>538.00</ele>
        <time>2013-07-27T09:38:07Z</time>
      </trkpt>
      <trkpt lat="42.375934000" lon="-2.408635000">
        <ele>538.10</ele>
        <time>2013-07-27T09:38:08Z</time>
      </trkpt>
      <trkpt lat="42.375904000" lon="-2.408629000">
        <ele>538.10</ele>
        <time>2013-07-27T09:38:09Z</time>
      </trkpt>
      <trkpt lat="42.375874000" lon="-2.408630000">
        <ele>538.40</ele>
        <time>2013-07-27T09:38:10Z</time>
      </trkpt>
      <trkpt lat="42.375845000" lon="-2.408633000">
        <ele>538.60</ele>
        <time>2013-07-27T09:38:11Z</time>
      </trkpt>
      <trkpt lat="42.375817000" lon="-2.408635000">
        <ele>538.70</ele>
        <time>2013-07-27T09:38:12Z</time>
      </trkpt>
      <trkpt lat="42.375785000" lon="-2.408637000">
        <ele>538.90</ele>
        <time>2013-07-27T09:38:13Z</time>
      </trkpt>
      <trkpt lat="42.375753000" lon="-2.408642000">
        <ele>539.00</ele>
        <time>2013-07-27T09:38:14Z</time>
      </trkpt>
      <trkpt lat="42.375724000" lon="-2.408646000">
        <ele>539.00</ele>
        <time>2013-07-27T09:38:15Z</time>
      </trkpt>
      <trkpt lat="42.375691000" lon="-2.408646000">
        <ele>539.10</ele>
        <time>2013-07-27T09:38:16Z</time>
      </trkpt>
      <trkpt lat="42.375661000" lon="-2.408648000">
        <ele>539.10</ele>
        <time>2013-07-27T09:38:17Z</time>
      </trkpt>
      <trkpt lat="42.375628000" lon="-2.408653000">
        <ele>539.10</ele>
        <time>2013-07-27T09:38:18Z</time>
      </trkpt>
      <trkpt lat="42.375596000" lon="-2.408654000">
        <ele>539.20</ele>
        <time>2013-07-27T09:38:19Z</time>
      </trkpt>
      <trkpt lat="42.375564000" lon="-2.408657000">
        <ele>539.10</ele>
        <time>2013-07-27T09:38:20Z</time>
      </trkpt>
      <trkpt lat="42.375531000" lon="-2.408658000">
        <ele>539.00</ele>
        <time>2013-07-27T09:38:21Z</time>
      </trkpt>
      <trkpt lat="42.375499000" lon="-2.408659000">
        <ele>539.00</ele>
        <time>2013-07-27T09:38:22Z</time>
      </trkpt>
      <trkpt lat="42.375467000" lon="-2.408658000">
        <ele>539.00</ele>
        <time>2013-07-27T09:38:23Z</time>
      </trkpt>
      <trkpt lat="42.375437000" lon="-2.408654000">
        <ele>538.90</ele>
        <time>2013-07-27T09:38:24Z</time>
      </trkpt>
      <trkpt lat="42.375408000" lon="-2.408652000">
        <ele>538.90</ele>
        <time>2013-07-27T09:38:25Z</time>
      </trkpt>
      <trkpt lat="42.375378000" lon="-2.408652000">
        <ele>539.30</ele>
        <time>2013-07-27T09:38:26Z</time>
      </trkpt>
      <trkpt lat="42.375348000" lon="-2.408648000">
        <ele>539.60</ele>
        <time>2013-07-27T09:38:27Z</time>
      </trkpt>
      <trkpt lat="42.375320000" lon="-2.408647000">
        <ele>539.80</ele>
        <time>2013-07-27T09:38:28Z</time>
      </trkpt>
      <trkpt lat="42.375289000" lon="-2.408647000">
        <ele>540.00</ele>
        <time>2013-07-27T09:38:29Z</time>
      </trkpt>
      <trkpt lat="42.375259000" lon="-2.408642000">
        <ele>539.90</ele>
        <time>2013-07-27T09:38:30Z</time>
      </trkpt>
      <trkpt lat="42.375229000" lon="-2.408637000">
        <ele>539.80</ele>
        <time>2013-07-27T09:38:31Z</time>
      </trkpt>
      <trkpt lat="42.375196000" lon="-2.408630000">
        <ele>539.80</ele>
        <time>2013-07-27T09:38:32Z</time>
      </trkpt>
      <trkpt lat="42.375160000" lon="-2.408626000">
        <ele>539.80</ele>
        <time>2013-07-27T09:38:33Z</time>
      </trkpt>
      <trkpt lat="42.375125000" lon="-2.408622000">
        <ele>539.70</ele>
        <time>2013-07-27T09:38:34Z</time>
      </trkpt>
      <trkpt lat="42.375093000" lon="-2.408621000">
        <ele>539.60</ele>
        <time>2013-07-27T09:38:35Z</time>
      </trkpt>
      <trkpt lat="42.375063000" lon="-2.408619000">
        <ele>539.60</ele>
        <time>2013-07-27T09:38:36Z</time>
      </trkpt>
      <trkpt lat="42.375029000" lon="-2.408612000">
        <ele>539.50</ele>
        <time>2013-07-27T09:38:37Z</time>
      </trkpt>
      <trkpt lat="42.374993000" lon="-2.408603000">
        <ele>539.50</ele>
        <time>2013-07-27T09:38:38Z</time>
      </trkpt>
      <trkpt lat="42.374951000" lon="-2.408588000">
        <ele>539.50</ele>
        <time>2013-07-27T09:38:39Z</time>
      </trkpt>
      <trkpt lat="42.374915000" lon="-2.408571000">
        <ele>539.40</ele>
        <time>2013-07-27T09:38:40Z</time>
      </trkpt>
      <trkpt lat="42.374878000" lon="-2.408549000">
        <ele>539.30</ele>
        <time>2013-07-27T09:38:41Z</time>
      </trkpt>
      <trkpt lat="42.374839000" lon="-2.408526000">
        <ele>539.30</ele>
        <time>2013-07-27T09:38:42Z</time>
      </trkpt>
      <trkpt lat="42.374802000" lon="-2.408506000">
        <ele>539.20</ele>
        <time>2013-07-27T09:38:43Z</time>
      </trkpt>
      <trkpt lat="42.374764000" lon="-2.408492000">
        <ele>539.00</ele>
        <time>2013-07-27T09:38:44Z</time>
      </trkpt>
      <trkpt lat="42.374722000" lon="-2.408482000">
        <ele>538.70</ele>
        <time>2013-07-27T09:38:45Z</time>
      </trkpt>
      <trkpt lat="42.374680000" lon="-2.408474000">
        <ele>538.60</ele>
        <time>2013-07-27T09:38:46Z</time>
      </trkpt>
      <trkpt lat="42.374640000" lon="-2.408469000">
        <ele>538.40</ele>
        <time>2013-07-27T09:38:47Z</time>
      </trkpt>
      <trkpt lat="42.374597000" lon="-2.408461000">
        <ele>538.20</ele>
        <time>2013-07-27T09:38:48Z</time>
      </trkpt>
      <trkpt lat="42.374557000" lon="-2.408454000">
        <ele>537.90</ele>
        <time>2013-07-27T09:38:49Z</time>
      </trkpt>
      <trkpt lat="42.374515000" lon="-2.408440000">
        <ele>537.90</ele>
        <time>2013-07-27T09:38:50Z</time>
      </trkpt>
      <trkpt lat="42.374477000" lon="-2.408426000">
        <ele>537.90</ele>
        <time>2013-07-27T09:38:51Z</time>
      </trkpt>
      <trkpt lat="42.374439000" lon="-2.408409000">
        <ele>537.70</ele>
        <time>2013-07-27T09:38:52Z</time>
      </trkpt>
      <trkpt lat="42.374402000" lon="-2.408392000">
        <ele>537.60</ele>
        <time>2013-07-27T09:38:53Z</time>
      </trkpt>
      <trkpt lat="42.374370000" lon="-2.408375000">
        <ele>537.50</ele>
        <time>2013-07-27T09:38:54Z</time>
      </trkpt>
      <trkpt lat="42.374338000" lon="-2.408356000">
        <ele>537.50</ele>
        <time>2013-07-27T09:38:55Z</time>
      </trkpt>
      <trkpt lat="42.374307000" lon="-2.408338000">
        <ele>537.40</ele>
        <time>2013-07-27T09:38:56Z</time>
      </trkpt>
      <trkpt lat="42.374281000" lon="-2.408321000">
        <ele>537.40</ele>
        <time>2013-07-27T09:38:57Z</time>
      </trkpt>
      <trkpt lat="42.374252000" lon="-2.408303000">
        <ele>537.10</ele>
        <time>2013-07-27T09:38:58Z</time>
      </trkpt>
      <trkpt lat="42.374221000" lon="-2.408283000">
        <ele>537.00</ele>
        <time>2013-07-27T09:38:59Z</time>
      </trkpt>
      <trkpt lat="42.374191000" lon="-2.408263000">
        <ele>537.20</ele>
        <time>2013-07-27T09:39:00Z</time>
      </trkpt>
      <trkpt lat="42.374160000" lon="-2.408240000">
        <ele>537.30</ele>
        <time>2013-07-27T09:39:01Z</time>
      </trkpt>
      <trkpt lat="42.374130000" lon="-2.408219000">
        <ele>537.50</ele>
        <time>2013-07-27T09:39:02Z</time>
      </trkpt>
      <trkpt lat="42.374102000" lon="-2.408200000">
        <ele>537.60</ele>
        <time>2013-07-27T09:39:03Z</time>
      </trkpt>
      <trkpt lat="42.374070000" lon="-2.408181000">
        <ele>537.80</ele>
        <time>2013-07-27T09:39:04Z</time>
      </trkpt>
      <trkpt lat="42.374041000" lon="-2.408157000">
        <ele>537.90</ele>
        <time>2013-07-27T09:39:05Z</time>
      </trkpt>
      <trkpt lat="42.374011000" lon="-2.408132000">
        <ele>538.00</ele>
        <time>2013-07-27T09:39:06Z</time>
      </trkpt>
      <trkpt lat="42.373982000" lon="-2.408108000">
        <ele>538.00</ele>
        <time>2013-07-27T09:39:07Z</time>
      </trkpt>
      <trkpt lat="42.373950000" lon="-2.408084000">
        <ele>538.10</ele>
        <time>2013-07-27T09:39:08Z</time>
      </trkpt>
      <trkpt lat="42.373918000" lon="-2.408062000">
        <ele>538.10</ele>
        <time>2013-07-27T09:39:09Z</time>
      </trkpt>
      <trkpt lat="42.373885000" lon="-2.408036000">
        <ele>538.20</ele>
        <time>2013-07-27T09:39:10Z</time>
      </trkpt>
      <trkpt lat="42.373854000" lon="-2.408011000">
        <ele>538.20</ele>
        <time>2013-07-27T09:39:11Z</time>
      </trkpt>
      <trkpt lat="42.373824000" lon="-2.407987000">
        <ele>538.20</ele>
        <time>2013-07-27T09:39:12Z</time>
      </trkpt>
      <trkpt lat="42.373794000" lon="-2.407962000">
        <ele>538.20</ele>
        <time>2013-07-27T09:39:13Z</time>
      </trkpt>
      <trkpt lat="42.373763000" lon="-2.407937000">
        <ele>538.40</ele>
        <time>2013-07-27T09:39:14Z</time>
      </trkpt>
      <trkpt lat="42.373734000" lon="-2.407910000">
        <ele>538.50</ele>
        <time>2013-07-27T09:39:15Z</time>
      </trkpt>
      <trkpt lat="42.373704000" lon="-2.407880000">
        <ele>538.40</ele>
        <time>2013-07-27T09:39:16Z</time>
      </trkpt>
      <trkpt lat="42.373678000" lon="-2.407848000">
        <ele>538.40</ele>
        <time>2013-07-27T09:39:17Z</time>
      </trkpt>
      <trkpt lat="42.373650000" lon="-2.407818000">
        <ele>538.00</ele>
        <time>2013-07-27T09:39:18Z</time>
      </trkpt>
      <trkpt lat="42.373622000" lon="-2.407786000">
        <ele>537.70</ele>
        <time>2013-07-27T09:39:19Z</time>
      </trkpt>
      <trkpt lat="42.373593000" lon="-2.407758000">
        <ele>537.50</ele>
        <time>2013-07-27T09:39:20Z</time>
      </trkpt>
      <trkpt lat="42.373566000" lon="-2.407736000">
        <ele>537.40</ele>
        <time>2013-07-27T09:39:21Z</time>
      </trkpt>
      <trkpt lat="42.373537000" lon="-2.407717000">
        <ele>537.70</ele>
        <time>2013-07-27T09:39:22Z</time>
      </trkpt>
      <trkpt lat="42.373509000" lon="-2.407693000">
        <ele>537.90</ele>
        <time>2013-07-27T09:39:23Z</time>
      </trkpt>
      <trkpt lat="42.373481000" lon="-2.407667000">
        <ele>538.00</ele>
        <time>2013-07-27T09:39:24Z</time>
      </trkpt>
      <trkpt lat="42.373455000" lon="-2.407648000">
        <ele>538.20</ele>
        <time>2013-07-27T09:39:25Z</time>
      </trkpt>
      <trkpt lat="42.373431000" lon="-2.407626000">
        <ele>538.60</ele>
        <time>2013-07-27T09:39:26Z</time>
      </trkpt>
      <trkpt lat="42.373405000" lon="-2.407603000">
        <ele>538.90</ele>
        <time>2013-07-27T09:39:27Z</time>
      </trkpt>
      <trkpt lat="42.373381000" lon="-2.407580000">
        <ele>539.10</ele>
        <time>2013-07-27T09:39:28Z</time>
      </trkpt>
      <trkpt lat="42.373356000" lon="-2.407558000">
        <ele>539.30</ele>
        <time>2013-07-27T09:39:29Z</time>
      </trkpt>
      <trkpt lat="42.373331000" lon="-2.407535000">
        <ele>539.40</ele>
        <time>2013-07-27T09:39:30Z</time>
      </trkpt>
      <trkpt lat="42.373305000" lon="-2.407511000">
        <ele>539.50</ele>
        <time>2013-07-27T09:39:31Z</time>
      </trkpt>
      <trkpt lat="42.373280000" lon="-2.407485000">
        <ele>539.70</ele>
        <time>2013-07-27T09:39:32Z</time>
      </trkpt>
      <trkpt lat="42.373255000" lon="-2.407462000">
        <ele>539.80</ele>
        <time>2013-07-27T09:39:33Z</time>
      </trkpt>
      <trkpt lat="42.373232000" lon="-2.407432000">
        <ele>540.20</ele>
        <time>2013-07-27T09:39:34Z</time>
      </trkpt>
      <trkpt lat="42.373205000" lon="-2.407403000">
        <ele>540.50</ele>
        <time>2013-07-27T09:39:35Z</time>
      </trkpt>
      <trkpt lat="42.373176000" lon="-2.407379000">
        <ele>540.70</ele>
        <time>2013-07-27T09:39:36Z</time>
      </trkpt>
      <trkpt lat="42.373151000" lon="-2.407357000">
        <ele>540.90</ele>
        <time>2013-07-27T09:39:37Z</time>
      </trkpt>
      <trkpt lat="42.373127000" lon="-2.407336000">
        <ele>540.80</ele>
        <time>2013-07-27T09:39:38Z</time>
      </trkpt>
      <trkpt lat="42.373101000" lon="-2.407313000">
        <ele>540.80</ele>
        <time>2013-07-27T09:39:39Z</time>
      </trkpt>
      <trkpt lat="42.373076000" lon="-2.407286000">
        <ele>540.80</ele>
        <time>2013-07-27T09:39:40Z</time>
      </trkpt>
      <trkpt lat="42.373053000" lon="-2.407259000">
        <ele>540.70</ele>
        <time>2013-07-27T09:39:41Z</time>
      </trkpt>
      <trkpt lat="42.373029000" lon="-2.407229000">
        <ele>540.70</ele>
        <time>2013-07-27T09:39:42Z</time>
      </trkpt>
      <trkpt lat="42.373006000" lon="-2.407199000">
        <ele>540.70</ele>
        <time>2013-07-27T09:39:43Z</time>
      </trkpt>
      <trkpt lat="42.372986000" lon="-2.407166000">
        <ele>541.00</ele>
        <time>2013-07-27T09:39:44Z</time>
      </trkpt>
      <trkpt lat="42.372967000" lon="-2.407133000">
        <ele>541.20</ele>
        <time>2013-07-27T09:39:45Z</time>
      </trkpt>
      <trkpt lat="42.372946000" lon="-2.407101000">
        <ele>541.50</ele>
        <time>2013-07-27T09:39:46Z</time>
      </trkpt>
      <trkpt lat="42.372927000" lon="-2.407066000">
        <ele>541.70</ele>
        <time>2013-07-27T09:39:47Z</time>
      </trkpt>
      <trkpt lat="42.372910000" lon="-2.407032000">
        <ele>541.90</ele>
        <time>2013-07-27T09:39:48Z</time>
      </trkpt>
      <trkpt lat="42.372891000" lon="-2.406999000">
        <ele>542.00</ele>
        <time>2013-07-27T09:39:49Z</time>
      </trkpt>
      <trkpt lat="42.372875000" lon="-2.406964000">
        <ele>541.80</ele>
        <time>2013-07-27T09:39:50Z</time>
      </trkpt>
      <trkpt lat="42.372860000" lon="-2.406927000">
        <ele>541.70</ele>
        <time>2013-07-27T09:39:51Z</time>
      </trkpt>
      <trkpt lat="42.372844000" lon="-2.406890000">
        <ele>541.60</ele>
        <time>2013-07-27T09:39:52Z</time>
      </trkpt>
      <trkpt lat="42.372826000" lon="-2.406851000">
        <ele>541.60</ele>
        <time>2013-07-27T09:39:53Z</time>
      </trkpt>
      <trkpt lat="42.372807000" lon="-2.406814000">
        <ele>541.50</ele>
        <time>2013-07-27T09:39:54Z</time>
      </trkpt>
      <trkpt lat="42.372789000" lon="-2.406782000">
        <ele>541.50</ele>
        <time>2013-07-27T09:39:55Z</time>
      </trkpt>
      <trkpt lat="42.372774000" lon="-2.406750000">
        <ele>541.60</ele>
        <time>2013-07-27T09:39:56Z</time>
      </trkpt>
      <trkpt lat="42.372753000" lon="-2.406725000">
        <ele>541.80</ele>
        <time>2013-07-27T09:39:57Z</time>
      </trkpt>
      <trkpt lat="42.372733000" lon="-2.406699000">
        <ele>542.20</ele>
        <time>2013-07-27T09:39:58Z</time>
      </trkpt>
      <trkpt lat="42.372713000" lon="-2.406676000">
        <ele>542.60</ele>
        <time>2013-07-27T09:39:59Z</time>
      </trkpt>
      <trkpt lat="42.372694000" lon="-2.406659000">
        <ele>542.60</ele>
        <time>2013-07-27T09:40:00Z</time>
      </trkpt>
      <trkpt lat="42.372675000" lon="-2.406640000">
        <ele>542.50</ele>
        <time>2013-07-27T09:40:01Z</time>
      </trkpt>
      <trkpt lat="42.372657000" lon="-2.406621000">
        <ele>542.80</ele>
        <time>2013-07-27T09:40:02Z</time>
      </trkpt>
      <trkpt lat="42.372636000" lon="-2.406604000">
        <ele>543.00</ele>
        <time>2013-07-27T09:40:03Z</time>
      </trkpt>
      <trkpt lat="42.372618000" lon="-2.406590000">
        <ele>543.10</ele>
        <time>2013-07-27T09:40:04Z</time>
      </trkpt>
      <trkpt lat="42.372603000" lon="-2.406576000">
        <ele>543.10</ele>
        <time>2013-07-27T09:40:05Z</time>
      </trkpt>
      <trkpt lat="42.372586000" lon="-2.406561000">
        <ele>543.30</ele>
        <time>2013-07-27T09:40:06Z</time>
      </trkpt>
      <trkpt lat="42.372570000" lon="-2.406547000">
        <ele>543.40</ele>
        <time>2013-07-27T09:40:07Z</time>
      </trkpt>
      <trkpt lat="42.372556000" lon="-2.406531000">
        <ele>543.50</ele>
        <time>2013-07-27T09:40:08Z</time>
      </trkpt>
      <trkpt lat="42.372542000" lon="-2.406512000">
        <ele>543.50</ele>
        <time>2013-07-27T09:40:09Z</time>
      </trkpt>
      <trkpt lat="42.372525000" lon="-2.406502000">
        <ele>543.60</ele>
        <time>2013-07-27T09:40:10Z</time>
      </trkpt>
      <trkpt lat="42.372509000" lon="-2.406489000">
        <ele>543.60</ele>
        <time>2013-07-27T09:40:11Z</time>
      </trkpt>
      <trkpt lat="42.372493000" lon="-2.406477000">
        <ele>543.60</ele>
        <time>2013-07-27T09:40:12Z</time>
      </trkpt>
      <trkpt lat="42.372479000" lon="-2.406464000">
        <ele>543.70</ele>
        <time>2013-07-27T09:40:13Z</time>
      </trkpt>
      <trkpt lat="42.372464000" lon="-2.406447000">
        <ele>543.90</ele>
        <time>2013-07-27T09:40:14Z</time>
      </trkpt>
      <trkpt lat="42.372449000" lon="-2.406431000">
        <ele>544.00</ele>
        <time>2013-07-27T09:40:15Z</time>
      </trkpt>
      <trkpt lat="42.372434000" lon="-2.406416000">
        <ele>544.40</ele>
        <time>2013-07-27T09:40:16Z</time>
      </trkpt>
      <trkpt lat="42.372417000" lon="-2.406400000">
        <ele>544.60</ele>
        <time>2013-07-27T09:40:17Z</time>
      </trkpt>
      <trkpt lat="42.372398000" lon="-2.406385000">
        <ele>544.90</ele>
        <time>2013-07-27T09:40:18Z</time>
      </trkpt>
      <trkpt lat="42.372382000" lon="-2.406369000">
        <ele>545.00</ele>
        <time>2013-07-27T09:40:19Z</time>
      </trkpt>
      <trkpt lat="42.372368000" lon="-2.406349000">
        <ele>545.40</ele>
        <time>2013-07-27T09:40:20Z</time>
      </trkpt>
      <trkpt lat="42.372353000" lon="-2.406331000">
        <ele>545.70</ele>
        <time>2013-07-27T09:40:21Z</time>
      </trkpt>
      <trkpt lat="42.372338000" lon="-2.406314000">
        <ele>546.00</ele>
        <time>2013-07-27T09:40:22Z</time>
      </trkpt>
      <trkpt lat="42.372325000" lon="-2.406296000">
        <ele>546.20</ele>
        <time>2013-07-27T09:40:23Z</time>
      </trkpt>
      <trkpt lat="42.372312000" lon="-2.406276000">
        <ele>546.30</ele>
        <time>2013-07-27T09:40:24Z</time>
      </trkpt>
      <trkpt lat="42.372299000" lon="-2.406257000">
        <ele>546.40</ele>
        <time>2013-07-27T09:40:25Z</time>
      </trkpt>
      <trkpt lat="42.372284000" lon="-2.406237000">
        <ele>546.50</ele>
        <time>2013-07-27T09:40:26Z</time>
      </trkpt>
      <trkpt lat="42.372270000" lon="-2.406218000">
        <ele>546.60</ele>
        <time>2013-07-27T09:40:27Z</time>
      </trkpt>
      <trkpt lat="42.372256000" lon="-2.406200000">
        <ele>546.90</ele>
        <time>2013-07-27T09:40:28Z</time>
      </trkpt>
      <trkpt lat="42.372240000" lon="-2.406180000">
        <ele>547.00</ele>
        <time>2013-07-27T09:40:29Z</time>
      </trkpt>
      <trkpt lat="42.372225000" lon="-2.406162000">
        <ele>547.20</ele>
        <time>2013-07-27T09:40:30Z</time>
      </trkpt>
      <trkpt lat="42.372212000" lon="-2.406142000">
        <ele>547.40</ele>
        <time>2013-07-27T09:40:31Z</time>
      </trkpt>
      <trkpt lat="42.372199000" lon="-2.406122000">
        <ele>547.60</ele>
        <time>2013-07-27T09:40:32Z</time>
      </trkpt>
      <trkpt lat="42.372188000" lon="-2.406102000">
        <ele>547.70</ele>
        <time>2013-07-27T09:40:33Z</time>
      </trkpt>
      <trkpt lat="42.372175000" lon="-2.406082000">
        <ele>548.20</ele>
        <time>2013-07-27T09:40:34Z</time>
      </trkpt>
      <trkpt lat="42.372160000" lon="-2.406065000">
        <ele>548.50</ele>
        <time>2013-07-27T09:40:35Z</time>
      </trkpt>
      <trkpt lat="42.372146000" lon="-2.406048000">
        <ele>548.70</ele>
        <time>2013-07-27T09:40:36Z</time>
      </trkpt>
      <trkpt lat="42.372132000" lon="-2.406029000">
        <ele>548.90</ele>
        <time>2013-07-27T09:40:37Z</time>
      </trkpt>
      <trkpt lat="42.372121000" lon="-2.406008000">
        <ele>549.20</ele>
        <time>2013-07-27T09:40:38Z</time>
      </trkpt>
      <trkpt lat="42.372109000" lon="-2.405988000">
        <ele>549.40</ele>
        <time>2013-07-27T09:40:39Z</time>
      </trkpt>
      <trkpt lat="42.372098000" lon="-2.405966000">
        <ele>549.80</ele>
        <time>2013-07-27T09:40:40Z</time>
      </trkpt>
      <trkpt lat="42.372086000" lon="-2.405943000">
        <ele>550.10</ele>
        <time>2013-07-27T09:40:41Z</time>
      </trkpt>
      <trkpt lat="42.372077000" lon="-2.405922000">
        <ele>550.30</ele>
        <time>2013-07-27T09:40:42Z</time>
      </trkpt>
      <trkpt lat="42.372065000" lon="-2.405903000">
        <ele>550.50</ele>
        <time>2013-07-27T09:40:43Z</time>
      </trkpt>
      <trkpt lat="42.372057000" lon="-2.405887000">
        <ele>550.80</ele>
        <time>2013-07-27T09:40:44Z</time>
      </trkpt>
      <trkpt lat="42.372046000" lon="-2.405871000">
        <ele>551.00</ele>
        <time>2013-07-27T09:40:45Z</time>
      </trkpt>
      <trkpt lat="42.372037000" lon="-2.405855000">
        <ele>551.00</ele>
        <time>2013-07-27T09:40:46Z</time>
      </trkpt>
      <trkpt lat="42.372027000" lon="-2.405838000">
        <ele>551.00</ele>
        <time>2013-07-27T09:40:47Z</time>
      </trkpt>
      <trkpt lat="42.372014000" lon="-2.405818000">
        <ele>551.30</ele>
        <time>2013-07-27T09:40:48Z</time>
      </trkpt>
      <trkpt lat="42.372002000" lon="-2.405796000">
        <ele>551.40</ele>
        <time>2013-07-27T09:40:49Z</time>
      </trkpt>
      <trkpt lat="42.371990000" lon="-2.405777000">
        <ele>551.50</ele>
        <time>2013-07-27T09:40:50Z</time>
      </trkpt>
      <trkpt lat="42.371981000" lon="-2.405756000">
        <ele>551.50</ele>
        <time>2013-07-27T09:40:51Z</time>
      </trkpt>
      <trkpt lat="42.371971000" lon="-2.405736000">
        <ele>551.70</ele>
        <time>2013-07-27T09:40:52Z</time>
      </trkpt>
      <trkpt lat="42.371961000" lon="-2.405716000">
        <ele>551.80</ele>
        <time>2013-07-27T09:40:53Z</time>
      </trkpt>
      <trkpt lat="42.371950000" lon="-2.405694000">
        <ele>552.20</ele>
        <time>2013-07-27T09:40:54Z</time>
      </trkpt>
      <trkpt lat="42.371941000" lon="-2.405670000">
        <ele>552.50</ele>
        <time>2013-07-27T09:40:55Z</time>
      </trkpt>
      <trkpt lat="42.371934000" lon="-2.405640000">
        <ele>552.70</ele>
        <time>2013-07-27T09:40:56Z</time>
      </trkpt>
      <trkpt lat="42.371924000" lon="-2.405620000">
        <ele>552.90</ele>
        <time>2013-07-27T09:40:57Z</time>
      </trkpt>
      <trkpt lat="42.371910000" lon="-2.405599000">
        <ele>553.00</ele>
        <time>2013-07-27T09:40:58Z</time>
      </trkpt>
      <trkpt lat="42.371897000" lon="-2.405578000">
        <ele>553.10</ele>
        <time>2013-07-27T09:40:59Z</time>
      </trkpt>
      <trkpt lat="42.371889000" lon="-2.405556000">
        <ele>553.20</ele>
        <time>2013-07-27T09:41:00Z</time>
      </trkpt>
      <trkpt lat="42.371880000" lon="-2.405538000">
        <ele>553.30</ele>
        <time>2013-07-27T09:41:01Z</time>
      </trkpt>
      <trkpt lat="42.371870000" lon="-2.405518000">
        <ele>553.50</ele>
        <time>2013-07-27T09:41:02Z</time>
      </trkpt>
      <trkpt lat="42.371857000" lon="-2.405503000">
        <ele>553.70</ele>
        <time>2013-07-27T09:41:03Z</time>
      </trkpt>
      <trkpt lat="42.371843000" lon="-2.405483000">
        <ele>553.90</ele>
        <time>2013-07-27T09:41:04Z</time>
      </trkpt>
      <trkpt lat="42.371830000" lon="-2.405466000">
        <ele>554.10</ele>
        <time>2013-07-27T09:41:05Z</time>
      </trkpt>
      <trkpt lat="42.371819000" lon="-2.405446000">
        <ele>554.30</ele>
        <time>2013-07-27T09:41:06Z</time>
      </trkpt>
      <trkpt lat="42.371807000" lon="-2.405427000">
        <ele>554.50</ele>
        <time>2013-07-27T09:41:07Z</time>
      </trkpt>
      <trkpt lat="42.371795000" lon="-2.405411000">
        <ele>554.60</ele>
        <time>2013-07-27T09:41:08Z</time>
      </trkpt>
      <trkpt lat="42.371783000" lon="-2.405394000">
        <ele>554.70</ele>
        <time>2013-07-27T09:41:09Z</time>
      </trkpt>
      <trkpt lat="42.371772000" lon="-2.405374000">
        <ele>555.10</ele>
        <time>2013-07-27T09:41:10Z</time>
      </trkpt>
      <trkpt lat="42.371762000" lon="-2.405356000">
        <ele>555.50</ele>
        <time>2013-07-27T09:41:11Z</time>
      </trkpt>
      <trkpt lat="42.371750000" lon="-2.405339000">
        <ele>555.70</ele>
        <time>2013-07-27T09:41:12Z</time>
      </trkpt>
      <trkpt lat="42.371740000" lon="-2.405314000">
        <ele>555.90</ele>
        <time>2013-07-27T09:41:13Z</time>
      </trkpt>
      <trkpt lat="42.371728000" lon="-2.405296000">
        <ele>556.10</ele>
        <time>2013-07-27T09:41:14Z</time>
      </trkpt>
      <trkpt lat="42.371715000" lon="-2.405281000">
        <ele>556.20</ele>
        <time>2013-07-27T09:41:15Z</time>
      </trkpt>
      <trkpt lat="42.371702000" lon="-2.405264000">
        <ele>556.50</ele>
        <time>2013-07-27T09:41:16Z</time>
      </trkpt>
      <trkpt lat="42.371689000" lon="-2.405247000">
        <ele>556.70</ele>
        <time>2013-07-27T09:41:17Z</time>
      </trkpt>
      <trkpt lat="42.371673000" lon="-2.405233000">
        <ele>557.00</ele>
        <time>2013-07-27T09:41:18Z</time>
      </trkpt>
      <trkpt lat="42.371660000" lon="-2.405216000">
        <ele>557.20</ele>
        <time>2013-07-27T09:41:19Z</time>
      </trkpt>
      <trkpt lat="42.371646000" lon="-2.405198000">
        <ele>557.30</ele>
        <time>2013-07-27T09:41:20Z</time>
      </trkpt>
      <trkpt lat="42.371631000" lon="-2.405181000">
        <ele>557.50</ele>
        <time>2013-07-27T09:41:21Z</time>
      </trkpt>
      <trkpt lat="42.371618000" lon="-2.405165000">
        <ele>557.60</ele>
        <time>2013-07-27T09:41:22Z</time>
      </trkpt>
      <trkpt lat="42.371605000" lon="-2.405151000">
        <ele>557.60</ele>
        <time>2013-07-27T09:41:23Z</time>
      </trkpt>
      <trkpt lat="42.371589000" lon="-2.405142000">
        <ele>557.80</ele>
        <time>2013-07-27T09:41:24Z</time>
      </trkpt>
      <trkpt lat="42.371574000" lon="-2.405138000">
        <ele>557.90</ele>
        <time>2013-07-27T09:41:25Z</time>
      </trkpt>
      <trkpt lat="42.371560000" lon="-2.405126000">
        <ele>558.20</ele>
        <time>2013-07-27T09:41:26Z</time>
      </trkpt>
      <trkpt lat="42.371547000" lon="-2.405109000">
        <ele>558.30</ele>
        <time>2013-07-27T09:41:27Z</time>
      </trkpt>
      <trkpt lat="42.371534000" lon="-2.405094000">
        <ele>558.40</ele>
        <time>2013-07-27T09:41:28Z</time>
      </trkpt>
      <trkpt lat="42.371522000" lon="-2.405079000">
        <ele>558.50</ele>
        <time>2013-07-27T09:41:29Z</time>
      </trkpt>
      <trkpt lat="42.371507000" lon="-2.405067000">
        <ele>558.50</ele>
        <time>2013-07-27T09:41:30Z</time>
      </trkpt>
      <trkpt lat="42.371493000" lon="-2.405057000">
        <ele>558.50</ele>
        <time>2013-07-27T09:41:31Z</time>
      </trkpt>
      <trkpt lat="42.371478000" lon="-2.405047000">
        <ele>558.40</ele>
        <time>2013-07-27T09:41:32Z</time>
      </trkpt>
      <trkpt lat="42.371461000" lon="-2.405033000">
        <ele>558.40</ele>
        <time>2013-07-27T09:41:33Z</time>
      </trkpt>
      <trkpt lat="42.371446000" lon="-2.405019000">
        <ele>558.50</ele>
        <time>2013-07-27T09:41:34Z</time>
      </trkpt>
      <trkpt lat="42.371428000" lon="-2.405006000">
        <ele>558.60</ele>
        <time>2013-07-27T09:41:35Z</time>
      </trkpt>
      <trkpt lat="42.371414000" lon="-2.404993000">
        <ele>558.70</ele>
        <time>2013-07-27T09:41:36Z</time>
      </trkpt>
      <trkpt lat="42.371398000" lon="-2.404982000">
        <ele>558.80</ele>
        <time>2013-07-27T09:41:37Z</time>
      </trkpt>
      <trkpt lat="42.371384000" lon="-2.404972000">
        <ele>558.90</ele>
        <time>2013-07-27T09:41:38Z</time>
      </trkpt>
      <trkpt lat="42.371365000" lon="-2.404960000">
        <ele>559.00</ele>
        <time>2013-07-27T09:41:39Z</time>
      </trkpt>
      <trkpt lat="42.371347000" lon="-2.404948000">
        <ele>559.20</ele>
        <time>2013-07-27T09:41:40Z</time>
      </trkpt>
      <trkpt lat="42.371333000" lon="-2.404935000">
        <ele>559.40</ele>
        <time>2013-07-27T09:41:41Z</time>
      </trkpt>
      <trkpt lat="42.371313000" lon="-2.404926000">
        <ele>559.50</ele>
        <time>2013-07-27T09:41:42Z</time>
      </trkpt>
      <trkpt lat="42.371302000" lon="-2.404914000">
        <ele>559.60</ele>
        <time>2013-07-27T09:41:43Z</time>
      </trkpt>
      <trkpt lat="42.371285000" lon="-2.404902000">
        <ele>559.70</ele>
        <time>2013-07-27T09:41:44Z</time>
      </trkpt>
      <trkpt lat="42.371264000" lon="-2.404897000">
        <ele>559.70</ele>
        <time>2013-07-27T09:41:45Z</time>
      </trkpt>
      <trkpt lat="42.371244000" lon="-2.404889000">
        <ele>559.80</ele>
        <time>2013-07-27T09:41:46Z</time>
      </trkpt>
      <trkpt lat="42.371228000" lon="-2.404878000">
        <ele>559.80</ele>
        <time>2013-07-27T09:41:47Z</time>
      </trkpt>
      <trkpt lat="42.371207000" lon="-2.404868000">
        <ele>559.80</ele>
        <time>2013-07-27T09:41:48Z</time>
      </trkpt>
      <trkpt lat="42.371186000" lon="-2.404862000">
        <ele>559.80</ele>
        <time>2013-07-27T09:41:49Z</time>
      </trkpt>
      <trkpt lat="42.371165000" lon="-2.404857000">
        <ele>560.10</ele>
        <time>2013-07-27T09:41:50Z</time>
      </trkpt>
      <trkpt lat="42.371148000" lon="-2.404853000">
        <ele>560.30</ele>
        <time>2013-07-27T09:41:51Z</time>
      </trkpt>
      <trkpt lat="42.371128000" lon="-2.404846000">
        <ele>560.50</ele>
        <time>2013-07-27T09:41:52Z</time>
      </trkpt>
      <trkpt lat="42.371108000" lon="-2.404841000">
        <ele>560.60</ele>
        <time>2013-07-27T09:41:53Z</time>
      </trkpt>
      <trkpt lat="42.371090000" lon="-2.404836000">
        <ele>560.70</ele>
        <time>2013-07-27T09:41:54Z</time>
      </trkpt>
      <trkpt lat="42.371069000" lon="-2.404830000">
        <ele>560.70</ele>
        <time>2013-07-27T09:41:55Z</time>
      </trkpt>
      <trkpt lat="42.371048000" lon="-2.404827000">
        <ele>560.70</ele>
        <time>2013-07-27T09:41:56Z</time>
      </trkpt>
      <trkpt lat="42.371024000" lon="-2.404820000">
        <ele>560.70</ele>
        <time>2013-07-27T09:41:57Z</time>
      </trkpt>
      <trkpt lat="42.371001000" lon="-2.404813000">
        <ele>560.90</ele>
        <time>2013-07-27T09:41:58Z</time>
      </trkpt>
      <trkpt lat="42.370980000" lon="-2.404805000">
        <ele>561.00</ele>
        <time>2013-07-27T09:41:59Z</time>
      </trkpt>
      <trkpt lat="42.370958000" lon="-2.404795000">
        <ele>561.10</ele>
        <time>2013-07-27T09:42:00Z</time>
      </trkpt>
      <trkpt lat="42.370937000" lon="-2.404786000">
        <ele>561.20</ele>
        <time>2013-07-27T09:42:01Z</time>
      </trkpt>
      <trkpt lat="42.370914000" lon="-2.404780000">
        <ele>561.30</ele>
        <time>2013-07-27T09:42:02Z</time>
      </trkpt>
      <trkpt lat="42.370893000" lon="-2.404774000">
        <ele>561.30</ele>
        <time>2013-07-27T09:42:03Z</time>
      </trkpt>
      <trkpt lat="42.370875000" lon="-2.404766000">
        <ele>561.40</ele>
        <time>2013-07-27T09:42:04Z</time>
      </trkpt>
      <trkpt lat="42.370855000" lon="-2.404760000">
        <ele>561.40</ele>
        <time>2013-07-27T09:42:05Z</time>
      </trkpt>
      <trkpt lat="42.370832000" lon="-2.404754000">
        <ele>561.50</ele>
        <time>2013-07-27T09:42:06Z</time>
      </trkpt>
      <trkpt lat="42.370812000" lon="-2.404742000">
        <ele>561.60</ele>
        <time>2013-07-27T09:42:07Z</time>
      </trkpt>
      <trkpt lat="42.370795000" lon="-2.404733000">
        <ele>561.70</ele>
        <time>2013-07-27T09:42:08Z</time>
      </trkpt>
      <trkpt lat="42.370778000" lon="-2.404728000">
        <ele>561.80</ele>
        <time>2013-07-27T09:42:09Z</time>
      </trkpt>
      <trkpt lat="42.370759000" lon="-2.404722000">
        <ele>561.80</ele>
        <time>2013-07-27T09:42:10Z</time>
      </trkpt>
      <trkpt lat="42.370738000" lon="-2.404716000">
        <ele>561.90</ele>
        <time>2013-07-27T09:42:11Z</time>
      </trkpt>
      <trkpt lat="42.370714000" lon="-2.404709000">
        <ele>562.20</ele>
        <time>2013-07-27T09:42:12Z</time>
      </trkpt>
      <trkpt lat="42.370690000" lon="-2.404703000">
        <ele>562.40</ele>
        <time>2013-07-27T09:42:13Z</time>
      </trkpt>
      <trkpt lat="42.370667000" lon="-2.404693000">
        <ele>562.60</ele>
        <time>2013-07-27T09:42:14Z</time>
      </trkpt>
      <trkpt lat="42.370645000" lon="-2.404686000">
        <ele>562.70</ele>
        <time>2013-07-27T09:42:15Z</time>
      </trkpt>
      <trkpt lat="42.370624000" lon="-2.404678000">
        <ele>562.70</ele>
        <time>2013-07-27T09:42:16Z</time>
      </trkpt>
      <trkpt lat="42.370599000" lon="-2.404668000">
        <ele>562.70</ele>
        <time>2013-07-27T09:42:17Z</time>
      </trkpt>
      <trkpt lat="42.370574000" lon="-2.404662000">
        <ele>562.70</ele>
        <time>2013-07-27T09:42:18Z</time>
      </trkpt>
      <trkpt lat="42.370551000" lon="-2.404655000">
        <ele>562.60</ele>
        <time>2013-07-27T09:42:19Z</time>
      </trkpt>
      <trkpt lat="42.370527000" lon="-2.404645000">
        <ele>562.60</ele>
        <time>2013-07-27T09:42:20Z</time>
      </trkpt>
      <trkpt lat="42.370506000" lon="-2.404635000">
        <ele>562.60</ele>
        <time>2013-07-27T09:42:21Z</time>
      </trkpt>
      <trkpt lat="42.370483000" lon="-2.404624000">
        <ele>562.80</ele>
        <time>2013-07-27T09:42:22Z</time>
      </trkpt>
      <trkpt lat="42.370459000" lon="-2.404617000">
        <ele>562.90</ele>
        <time>2013-07-27T09:42:23Z</time>
      </trkpt>
      <trkpt lat="42.370436000" lon="-2.404609000">
        <ele>563.00</ele>
        <time>2013-07-27T09:42:24Z</time>
      </trkpt>
      <trkpt lat="42.370412000" lon="-2.404600000">
        <ele>563.10</ele>
        <time>2013-07-27T09:42:25Z</time>
      </trkpt>
      <trkpt lat="42.370390000" lon="-2.404592000">
        <ele>563.10</ele>
        <time>2013-07-27T09:42:26Z</time>
      </trkpt>
      <trkpt lat="42.370370000" lon="-2.404584000">
        <ele>563.20</ele>
        <time>2013-07-27T09:42:27Z</time>
      </trkpt>
      <trkpt lat="42.370349000" lon="-2.404574000">
        <ele>563.10</ele>
        <time>2013-07-27T09:42:28Z</time>
      </trkpt>
      <trkpt lat="42.370325000" lon="-2.404567000">
        <ele>563.10</ele>
        <time>2013-07-27T09:42:29Z</time>
      </trkpt>
      <trkpt lat="42.370301000" lon="-2.404563000">
        <ele>563.10</ele>
        <time>2013-07-27T09:42:30Z</time>
      </trkpt>
      <trkpt lat="42.370277000" lon="-2.404554000">
        <ele>563.10</ele>
        <time>2013-07-27T09:42:31Z</time>
      </trkpt>
      <trkpt lat="42.370257000" lon="-2.404543000">
        <ele>563.30</ele>
        <time>2013-07-27T09:42:32Z</time>
      </trkpt>
      <trkpt lat="42.370234000" lon="-2.404534000">
        <ele>563.50</ele>
        <time>2013-07-27T09:42:33Z</time>
      </trkpt>
      <trkpt lat="42.370209000" lon="-2.404528000">
        <ele>563.70</ele>
        <time>2013-07-27T09:42:34Z</time>
      </trkpt>
      <trkpt lat="42.370191000" lon="-2.404515000">
        <ele>563.80</ele>
        <time>2013-07-27T09:42:35Z</time>
      </trkpt>
      <trkpt lat="42.370169000" lon="-2.404507000">
        <ele>563.90</ele>
        <time>2013-07-27T09:42:36Z</time>
      </trkpt>
      <trkpt lat="42.370147000" lon="-2.404496000">
        <ele>564.00</ele>
        <time>2013-07-27T09:42:37Z</time>
      </trkpt>
      <trkpt lat="42.370128000" lon="-2.404484000">
        <ele>564.30</ele>
        <time>2013-07-27T09:42:38Z</time>
      </trkpt>
      <trkpt lat="42.370107000" lon="-2.404474000">
        <ele>564.60</ele>
        <time>2013-07-27T09:42:39Z</time>
      </trkpt>
      <trkpt lat="42.370086000" lon="-2.404465000">
        <ele>564.70</ele>
        <time>2013-07-27T09:42:40Z</time>
      </trkpt>
      <trkpt lat="42.370067000" lon="-2.404453000">
        <ele>564.90</ele>
        <time>2013-07-27T09:42:41Z</time>
      </trkpt>
      <trkpt lat="42.370046000" lon="-2.404443000">
        <ele>565.20</ele>
        <time>2013-07-27T09:42:42Z</time>
      </trkpt>
      <trkpt lat="42.370025000" lon="-2.404435000">
        <ele>565.40</ele>
        <time>2013-07-27T09:42:43Z</time>
      </trkpt>
      <trkpt lat="42.370005000" lon="-2.404428000">
        <ele>565.50</ele>
        <time>2013-07-27T09:42:44Z</time>
      </trkpt>
      <trkpt lat="42.369987000" lon="-2.404421000">
        <ele>565.70</ele>
        <time>2013-07-27T09:42:45Z</time>
      </trkpt>
      <trkpt lat="42.369968000" lon="-2.404414000">
        <ele>565.80</ele>
        <time>2013-07-27T09:42:46Z</time>
      </trkpt>
      <trkpt lat="42.369947000" lon="-2.404404000">
        <ele>566.00</ele>
        <time>2013-07-27T09:42:47Z</time>
      </trkpt>
      <trkpt lat="42.369926000" lon="-2.404390000">
        <ele>566.10</ele>
        <time>2013-07-27T09:42:48Z</time>
      </trkpt>
      <trkpt lat="42.369906000" lon="-2.404379000">
        <ele>566.20</ele>
        <time>2013-07-27T09:42:49Z</time>
      </trkpt>
      <trkpt lat="42.369883000" lon="-2.404371000">
        <ele>566.40</ele>
        <time>2013-07-27T09:42:50Z</time>
      </trkpt>
      <trkpt lat="42.369864000" lon="-2.404359000">
        <ele>566.60</ele>
        <time>2013-07-27T09:42:51Z</time>
      </trkpt>
      <trkpt lat="42.369845000" lon="-2.404349000">
        <ele>566.70</ele>
        <time>2013-07-27T09:42:52Z</time>
      </trkpt>
      <trkpt lat="42.369822000" lon="-2.404340000">
        <ele>566.80</ele>
        <time>2013-07-27T09:42:53Z</time>
      </trkpt>
      <trkpt lat="42.369802000" lon="-2.404330000">
        <ele>566.90</ele>
        <time>2013-07-27T09:42:54Z</time>
      </trkpt>
      <trkpt lat="42.369780000" lon="-2.404324000">
        <ele>566.90</ele>
        <time>2013-07-27T09:42:55Z</time>
      </trkpt>
      <trkpt lat="42.369758000" lon="-2.404314000">
        <ele>567.10</ele>
        <time>2013-07-27T09:42:56Z</time>
      </trkpt>
      <trkpt lat="42.369739000" lon="-2.404304000">
        <ele>567.20</ele>
        <time>2013-07-27T09:42:57Z</time>
      </trkpt>
      <trkpt lat="42.369721000" lon="-2.404295000">
        <ele>567.40</ele>
        <time>2013-07-27T09:42:58Z</time>
      </trkpt>
      <trkpt lat="42.369700000" lon="-2.404283000">
        <ele>567.50</ele>
        <time>2013-07-27T09:42:59Z</time>
      </trkpt>
      <trkpt lat="42.369678000" lon="-2.404271000">
        <ele>567.90</ele>
        <time>2013-07-27T09:43:00Z</time>
      </trkpt>
      <trkpt lat="42.369658000" lon="-2.404255000">
        <ele>568.20</ele>
        <time>2013-07-27T09:43:01Z</time>
      </trkpt>
      <trkpt lat="42.369635000" lon="-2.404249000">
        <ele>568.50</ele>
        <time>2013-07-27T09:43:02Z</time>
      </trkpt>
      <trkpt lat="42.369610000" lon="-2.404238000">
        <ele>568.70</ele>
        <time>2013-07-27T09:43:03Z</time>
      </trkpt>
      <trkpt lat="42.369586000" lon="-2.404229000">
        <ele>568.80</ele>
        <time>2013-07-27T09:43:04Z</time>
      </trkpt>
      <trkpt lat="42.369561000" lon="-2.404220000">
        <ele>568.80</ele>
        <time>2013-07-27T09:43:05Z</time>
      </trkpt>
      <trkpt lat="42.369539000" lon="-2.404212000">
        <ele>568.90</ele>
        <time>2013-07-27T09:43:06Z</time>
      </trkpt>
      <trkpt lat="42.369516000" lon="-2.404205000">
        <ele>569.00</ele>
        <time>2013-07-27T09:43:07Z</time>
      </trkpt>
      <trkpt lat="42.369493000" lon="-2.404194000">
        <ele>569.10</ele>
        <time>2013-07-27T09:43:08Z</time>
      </trkpt>
      <trkpt lat="42.369470000" lon="-2.404181000">
        <ele>569.10</ele>
        <time>2013-07-27T09:43:09Z</time>
      </trkpt>
      <trkpt lat="42.369447000" lon="-2.404173000">
        <ele>569.20</ele>
        <time>2013-07-27T09:43:10Z</time>
      </trkpt>
      <trkpt lat="42.369423000" lon="-2.404169000">
        <ele>569.30</ele>
        <time>2013-07-27T09:43:11Z</time>
      </trkpt>
      <trkpt lat="42.369397000" lon="-2.404166000">
        <ele>569.30</ele>
        <time>2013-07-27T09:43:12Z</time>
      </trkpt>
      <trkpt lat="42.369373000" lon="-2.404162000">
        <ele>569.40</ele>
        <time>2013-07-27T09:43:13Z</time>
      </trkpt>
      <trkpt lat="42.369349000" lon="-2.404154000">
        <ele>569.30</ele>
        <time>2013-07-27T09:43:14Z</time>
      </trkpt>
      <trkpt lat="42.369324000" lon="-2.404147000">
        <ele>569.30</ele>
        <time>2013-07-27T09:43:15Z</time>
      </trkpt>
      <trkpt lat="42.369300000" lon="-2.404140000">
        <ele>569.30</ele>
        <time>2013-07-27T09:43:16Z</time>
      </trkpt>
      <trkpt lat="42.369274000" lon="-2.404133000">
        <ele>569.30</ele>
        <time>2013-07-27T09:43:17Z</time>
      </trkpt>
      <trkpt lat="42.369245000" lon="-2.404130000">
        <ele>569.50</ele>
        <time>2013-07-27T09:43:18Z</time>
      </trkpt>
      <trkpt lat="42.369221000" lon="-2.404122000">
        <ele>569.70</ele>
        <time>2013-07-27T09:43:19Z</time>
      </trkpt>
      <trkpt lat="42.369197000" lon="-2.404112000">
        <ele>569.90</ele>
        <time>2013-07-27T09:43:20Z</time>
      </trkpt>
      <trkpt lat="42.369173000" lon="-2.404108000">
        <ele>570.00</ele>
        <time>2013-07-27T09:43:21Z</time>
      </trkpt>
      <trkpt lat="42.369148000" lon="-2.404103000">
        <ele>570.00</ele>
        <time>2013-07-27T09:43:22Z</time>
      </trkpt>
      <trkpt lat="42.369125000" lon="-2.404094000">
        <ele>570.00</ele>
        <time>2013-07-27T09:43:23Z</time>
      </trkpt>
      <trkpt lat="42.369102000" lon="-2.404089000">
        <ele>569.90</ele>
        <time>2013-07-27T09:43:24Z</time>
      </trkpt>
      <trkpt lat="42.369083000" lon="-2.404087000">
        <ele>569.90</ele>
        <time>2013-07-27T09:43:25Z</time>
      </trkpt>
      <trkpt lat="42.369061000" lon="-2.404086000">
        <ele>569.90</ele>
        <time>2013-07-27T09:43:26Z</time>
      </trkpt>
      <trkpt lat="42.369038000" lon="-2.404081000">
        <ele>569.80</ele>
        <time>2013-07-27T09:43:27Z</time>
      </trkpt>
      <trkpt lat="42.369015000" lon="-2.404083000">
        <ele>569.90</ele>
        <time>2013-07-27T09:43:28Z</time>
      </trkpt>
      <trkpt lat="42.368988000" lon="-2.404087000">
        <ele>569.90</ele>
        <time>2013-07-27T09:43:29Z</time>
      </trkpt>
      <trkpt lat="42.368960000" lon="-2.404094000">
        <ele>570.10</ele>
        <time>2013-07-27T09:43:30Z</time>
      </trkpt>
      <trkpt lat="42.368928000" lon="-2.404100000">
        <ele>570.20</ele>
        <time>2013-07-27T09:43:31Z</time>
      </trkpt>
      <trkpt lat="42.368890000" lon="-2.404102000">
        <ele>570.30</ele>
        <time>2013-07-27T09:43:32Z</time>
      </trkpt>
      <trkpt lat="42.368850000" lon="-2.404094000">
        <ele>570.40</ele>
        <time>2013-07-27T09:43:33Z</time>
      </trkpt>
      <trkpt lat="42.368804000" lon="-2.404079000">
        <ele>570.20</ele>
        <time>2013-07-27T09:43:34Z</time>
      </trkpt>
      <trkpt lat="42.368754000" lon="-2.404057000">
        <ele>570.10</ele>
        <time>2013-07-27T09:43:35Z</time>
      </trkpt>
      <trkpt lat="42.368698000" lon="-2.404029000">
        <ele>569.90</ele>
        <time>2013-07-27T09:43:36Z</time>
      </trkpt>
      <trkpt lat="42.368637000" lon="-2.403999000">
        <ele>569.70</ele>
        <time>2013-07-27T09:43:37Z</time>
      </trkpt>
      <trkpt lat="42.368570000" lon="-2.403968000">
        <ele>569.10</ele>
        <time>2013-07-27T09:43:38Z</time>
      </trkpt>
      <trkpt lat="42.368497000" lon="-2.403941000">
        <ele>568.60</ele>
        <time>2013-07-27T09:43:39Z</time>
      </trkpt>
      <trkpt lat="42.368427000" lon="-2.403910000">
        <ele>567.70</ele>
        <time>2013-07-27T09:43:40Z</time>
      </trkpt>
      <trkpt lat="42.368357000" lon="-2.403877000">
        <ele>567.00</ele>
        <time>2013-07-27T09:43:41Z</time>
      </trkpt>
      <trkpt lat="42.368285000" lon="-2.403845000">
        <ele>567.00</ele>
        <time>2013-07-27T09:43:42Z</time>
      </trkpt>
      <trkpt lat="42.368212000" lon="-2.403810000">
        <ele>567.00</ele>
        <time>2013-07-27T09:43:43Z</time>
      </trkpt>
      <trkpt lat="42.368139000" lon="-2.403773000">
        <ele>566.50</ele>
        <time>2013-07-27T09:43:44Z</time>
      </trkpt>
      <trkpt lat="42.368066000" lon="-2.403734000">
        <ele>566.10</ele>
        <time>2013-07-27T09:43:45Z</time>
      </trkpt>
      <trkpt lat="42.367994000" lon="-2.403688000">
        <ele>566.10</ele>
        <time>2013-07-27T09:43:46Z</time>
      </trkpt>
      <trkpt lat="42.367927000" lon="-2.403647000">
        <ele>566.00</ele>
        <time>2013-07-27T09:43:47Z</time>
      </trkpt>
      <trkpt lat="42.367862000" lon="-2.403608000">
        <ele>565.20</ele>
        <time>2013-07-27T09:43:48Z</time>
      </trkpt>
      <trkpt lat="42.367802000" lon="-2.403572000">
        <ele>564.60</ele>
        <time>2013-07-27T09:43:49Z</time>
      </trkpt>
      <trkpt lat="42.367743000" lon="-2.403536000">
        <ele>564.20</ele>
        <time>2013-07-27T09:43:50Z</time>
      </trkpt>
      <trkpt lat="42.367694000" lon="-2.403498000">
        <ele>563.90</ele>
        <time>2013-07-27T09:43:51Z</time>
      </trkpt>
      <trkpt lat="42.367646000" lon="-2.403460000">
        <ele>563.50</ele>
        <time>2013-07-27T09:43:52Z</time>
      </trkpt>
      <trkpt lat="42.367601000" lon="-2.403417000">
        <ele>563.20</ele>
        <time>2013-07-27T09:43:53Z</time>
      </trkpt>
      <trkpt lat="42.367557000" lon="-2.403370000">
        <ele>562.90</ele>
        <time>2013-07-27T09:43:54Z</time>
      </trkpt>
      <trkpt lat="42.367512000" lon="-2.403320000">
        <ele>562.70</ele>
        <time>2013-07-27T09:43:55Z</time>
      </trkpt>
      <trkpt lat="42.367466000" lon="-2.403273000">
        <ele>561.90</ele>
        <time>2013-07-27T09:43:56Z</time>
      </trkpt>
      <trkpt lat="42.367419000" lon="-2.403230000">
        <ele>561.30</ele>
        <time>2013-07-27T09:43:57Z</time>
      </trkpt>
      <trkpt lat="42.367370000" lon="-2.403190000">
        <ele>560.80</ele>
        <time>2013-07-27T09:43:58Z</time>
      </trkpt>
      <trkpt lat="42.367322000" lon="-2.403147000">
        <ele>560.50</ele>
        <time>2013-07-27T09:43:59Z</time>
      </trkpt>
      <trkpt lat="42.367277000" lon="-2.403101000">
        <ele>560.70</ele>
        <time>2013-07-27T09:44:00Z</time>
      </trkpt>
      <trkpt lat="42.367231000" lon="-2.403055000">
        <ele>560.90</ele>
        <time>2013-07-27T09:44:01Z</time>
      </trkpt>
      <trkpt lat="42.367186000" lon="-2.403008000">
        <ele>561.10</ele>
        <time>2013-07-27T09:44:02Z</time>
      </trkpt>
      <trkpt lat="42.367141000" lon="-2.402961000">
        <ele>561.20</ele>
        <time>2013-07-27T09:44:03Z</time>
      </trkpt>
      <trkpt lat="42.367098000" lon="-2.402917000">
        <ele>561.40</ele>
        <time>2013-07-27T09:44:04Z</time>
      </trkpt>
      <trkpt lat="42.367056000" lon="-2.402873000">
        <ele>561.60</ele>
        <time>2013-07-27T09:44:05Z</time>
      </trkpt>
      <trkpt lat="42.367014000" lon="-2.402831000">
        <ele>562.00</ele>
        <time>2013-07-27T09:44:06Z</time>
      </trkpt>
      <trkpt lat="42.366983000" lon="-2.402781000">
        <ele>562.30</ele>
        <time>2013-07-27T09:44:07Z</time>
      </trkpt>
      <trkpt lat="42.366949000" lon="-2.402738000">
        <ele>562.50</ele>
        <time>2013-07-27T09:44:08Z</time>
      </trkpt>
      <trkpt lat="42.366915000" lon="-2.402693000">
        <ele>562.50</ele>
        <time>2013-07-27T09:44:09Z</time>
      </trkpt>
      <trkpt lat="42.366881000" lon="-2.402648000">
        <ele>562.50</ele>
        <time>2013-07-27T09:44:10Z</time>
      </trkpt>
      <trkpt lat="42.366846000" lon="-2.402602000">
        <ele>562.50</ele>
        <time>2013-07-27T09:44:11Z</time>
      </trkpt>
      <trkpt lat="42.366810000" lon="-2.402558000">
        <ele>562.60</ele>
        <time>2013-07-27T09:44:12Z</time>
      </trkpt>
      <trkpt lat="42.366774000" lon="-2.402511000">
        <ele>562.60</ele>
        <time>2013-07-27T09:44:13Z</time>
      </trkpt>
      <trkpt lat="42.366738000" lon="-2.402466000">
        <ele>562.60</ele>
        <time>2013-07-27T09:44:14Z</time>
      </trkpt>
      <trkpt lat="42.366704000" lon="-2.402419000">
        <ele>562.50</ele>
        <time>2013-07-27T09:44:15Z</time>
      </trkpt>
      <trkpt lat="42.366667000" lon="-2.402375000">
        <ele>562.40</ele>
        <time>2013-07-27T09:44:16Z</time>
      </trkpt>
      <trkpt lat="42.366631000" lon="-2.402331000">
        <ele>562.30</ele>
        <time>2013-07-27T09:44:17Z</time>
      </trkpt>
      <trkpt lat="42.366593000" lon="-2.402287000">
        <ele>562.20</ele>
        <time>2013-07-27T09:44:18Z</time>
      </trkpt>
      <trkpt lat="42.366557000" lon="-2.402247000">
        <ele>562.10</ele>
        <time>2013-07-27T09:44:19Z</time>
      </trkpt>
      <trkpt lat="42.366517000" lon="-2.402212000">
        <ele>562.00</ele>
        <time>2013-07-27T09:44:20Z</time>
      </trkpt>
      <trkpt lat="42.366477000" lon="-2.402179000">
        <ele>562.00</ele>
        <time>2013-07-27T09:44:21Z</time>
      </trkpt>
      <trkpt lat="42.366433000" lon="-2.402149000">
        <ele>561.90</ele>
        <time>2013-07-27T09:44:22Z</time>
      </trkpt>
      <trkpt lat="42.366387000" lon="-2.402123000">
        <ele>561.90</ele>
        <time>2013-07-27T09:44:23Z</time>
      </trkpt>
      <trkpt lat="42.366341000" lon="-2.402097000">
        <ele>561.90</ele>
        <time>2013-07-27T09:44:24Z</time>
      </trkpt>
      <trkpt lat="42.366297000" lon="-2.402069000">
        <ele>561.90</ele>
        <time>2013-07-27T09:44:25Z</time>
      </trkpt>
      <trkpt lat="42.366251000" lon="-2.402046000">
        <ele>562.00</ele>
        <time>2013-07-27T09:44:26Z</time>
      </trkpt>
      <trkpt lat="42.366208000" lon="-2.402027000">
        <ele>562.10</ele>
        <time>2013-07-27T09:44:27Z</time>
      </trkpt>
      <trkpt lat="42.366169000" lon="-2.402014000">
        <ele>562.10</ele>
        <time>2013-07-27T09:44:28Z</time>
      </trkpt>
      <trkpt lat="42.366128000" lon="-2.402005000">
        <ele>562.30</ele>
        <time>2013-07-27T09:44:29Z</time>
      </trkpt>
      <trkpt lat="42.366088000" lon="-2.401995000">
        <ele>562.50</ele>
        <time>2013-07-27T09:44:30Z</time>
      </trkpt>
      <trkpt lat="42.366047000" lon="-2.401987000">
        <ele>562.40</ele>
        <time>2013-07-27T09:44:31Z</time>
      </trkpt>
      <trkpt lat="42.366008000" lon="-2.401983000">
        <ele>562.40</ele>
        <time>2013-07-27T09:44:32Z</time>
      </trkpt>
      <trkpt lat="42.365967000" lon="-2.401979000">
        <ele>562.40</ele>
        <time>2013-07-27T09:44:33Z</time>
      </trkpt>
      <trkpt lat="42.365929000" lon="-2.401978000">
        <ele>562.40</ele>
        <time>2013-07-27T09:44:34Z</time>
      </trkpt>
      <trkpt lat="42.365891000" lon="-2.401978000">
        <ele>562.40</ele>
        <time>2013-07-27T09:44:35Z</time>
      </trkpt>
      <trkpt lat="42.365854000" lon="-2.401977000">
        <ele>562.40</ele>
        <time>2013-07-27T09:44:36Z</time>
      </trkpt>
      <trkpt lat="42.365815000" lon="-2.401976000">
        <ele>563.00</ele>
        <time>2013-07-27T09:44:37Z</time>
      </trkpt>
      <trkpt lat="42.365778000" lon="-2.401975000">
        <ele>563.50</ele>
        <time>2013-07-27T09:44:38Z</time>
      </trkpt>
      <trkpt lat="42.365738000" lon="-2.401975000">
        <ele>563.90</ele>
        <time>2013-07-27T09:44:39Z</time>
      </trkpt>
      <trkpt lat="42.365698000" lon="-2.401981000">
        <ele>564.20</ele>
        <time>2013-07-27T09:44:40Z</time>
      </trkpt>
      <trkpt lat="42.365656000" lon="-2.401990000">
        <ele>564.00</ele>
        <time>2013-07-27T09:44:41Z</time>
      </trkpt>
      <trkpt lat="42.365615000" lon="-2.401998000">
        <ele>563.80</ele>
        <time>2013-07-27T09:44:42Z</time>
      </trkpt>
      <trkpt lat="42.365576000" lon="-2.402008000">
        <ele>563.70</ele>
        <time>2013-07-27T09:44:43Z</time>
      </trkpt>
      <trkpt lat="42.365536000" lon="-2.402013000">
        <ele>563.60</ele>
        <time>2013-07-27T09:44:44Z</time>
      </trkpt>
      <trkpt lat="42.365497000" lon="-2.402015000">
        <ele>563.50</ele>
        <time>2013-07-27T09:44:45Z</time>
      </trkpt>
      <trkpt lat="42.365460000" lon="-2.402017000">
        <ele>563.40</ele>
        <time>2013-07-27T09:44:46Z</time>
      </trkpt>
      <trkpt lat="42.365424000" lon="-2.402021000">
        <ele>564.30</ele>
        <time>2013-07-27T09:44:47Z</time>
      </trkpt>
      <trkpt lat="42.365389000" lon="-2.402020000">
        <ele>565.00</ele>
        <time>2013-07-27T09:44:48Z</time>
      </trkpt>
      <trkpt lat="42.365356000" lon="-2.402020000">
        <ele>565.30</ele>
        <time>2013-07-27T09:44:49Z</time>
      </trkpt>
      <trkpt lat="42.365325000" lon="-2.402027000">
        <ele>565.50</ele>
        <time>2013-07-27T09:44:50Z</time>
      </trkpt>
      <trkpt lat="42.365295000" lon="-2.402029000">
        <ele>565.60</ele>
        <time>2013-07-27T09:44:51Z</time>
      </trkpt>
      <trkpt lat="42.365265000" lon="-2.402027000">
        <ele>565.70</ele>
        <time>2013-07-27T09:44:52Z</time>
      </trkpt>
      <trkpt lat="42.365235000" lon="-2.402021000">
        <ele>565.80</ele>
        <time>2013-07-27T09:44:53Z</time>
      </trkpt>
      <trkpt lat="42.365208000" lon="-2.402017000">
        <ele>565.90</ele>
        <time>2013-07-27T09:44:54Z</time>
      </trkpt>
      <trkpt lat="42.365182000" lon="-2.402009000">
        <ele>565.90</ele>
        <time>2013-07-27T09:44:55Z</time>
      </trkpt>
      <trkpt lat="42.365161000" lon="-2.401998000">
        <ele>565.90</ele>
        <time>2013-07-27T09:44:56Z</time>
      </trkpt>
      <trkpt lat="42.365144000" lon="-2.401983000">
        <ele>566.00</ele>
        <time>2013-07-27T09:44:57Z</time>
      </trkpt>
      <trkpt lat="42.365129000" lon="-2.401962000">
        <ele>566.00</ele>
        <time>2013-07-27T09:44:58Z</time>
      </trkpt>
      <trkpt lat="42.365115000" lon="-2.401939000">
        <ele>566.00</ele>
        <time>2013-07-27T09:44:59Z</time>
      </trkpt>
      <trkpt lat="42.365099000" lon="-2.401914000">
        <ele>566.00</ele>
        <time>2013-07-27T09:45:00Z</time>
      </trkpt>
      <trkpt lat="42.365088000" lon="-2.401881000">
        <ele>566.00</ele>
        <time>2013-07-27T09:45:01Z</time>
      </trkpt>
      <trkpt lat="42.365080000" lon="-2.401854000">
        <ele>566.00</ele>
        <time>2013-07-27T09:45:02Z</time>
      </trkpt>
      <trkpt lat="42.365078000" lon="-2.401818000">
        <ele>566.20</ele>
        <time>2013-07-27T09:45:03Z</time>
      </trkpt>
      <trkpt lat="42.365080000" lon="-2.401780000">
        <ele>566.30</ele>
        <time>2013-07-27T09:45:04Z</time>
      </trkpt>
      <trkpt lat="42.365081000" lon="-2.401737000">
        <ele>566.50</ele>
        <time>2013-07-27T09:45:05Z</time>
      </trkpt>
      <trkpt lat="42.365077000" lon="-2.401690000">
        <ele>566.80</ele>
        <time>2013-07-27T09:45:06Z</time>
      </trkpt>
      <trkpt lat="42.365075000" lon="-2.401648000">
        <ele>566.90</ele>
        <time>2013-07-27T09:45:07Z</time>
      </trkpt>
      <trkpt lat="42.365077000" lon="-2.401612000">
        <ele>567.00</ele>
        <time>2013-07-27T09:45:08Z</time>
      </trkpt>
      <trkpt lat="42.365073000" lon="-2.401570000">
        <ele>567.10</ele>
        <time>2013-07-27T09:45:09Z</time>
      </trkpt>
      <trkpt lat="42.365068000" lon="-2.401533000">
        <ele>567.10</ele>
        <time>2013-07-27T09:45:10Z</time>
      </trkpt>
      <trkpt lat="42.365064000" lon="-2.401505000">
        <ele>567.20</ele>
        <time>2013-07-27T09:45:11Z</time>
      </trkpt>
      <trkpt lat="42.365061000" lon="-2.401478000">
        <ele>567.20</ele>
        <time>2013-07-27T09:45:12Z</time>
      </trkpt>
      <trkpt lat="42.365056000" lon="-2.401444000">
        <ele>567.30</ele>
        <time>2013-07-27T09:45:13Z</time>
      </trkpt>
      <trkpt lat="42.365046000" lon="-2.401413000">
        <ele>567.30</ele>
        <time>2013-07-27T09:45:14Z</time>
      </trkpt>
      <trkpt lat="42.365038000" lon="-2.401376000">
        <ele>567.50</ele>
        <time>2013-07-27T09:45:15Z</time>
      </trkpt>
      <trkpt lat="42.365027000" lon="-2.401339000">
        <ele>567.50</ele>
        <time>2013-07-27T09:45:16Z</time>
      </trkpt>
      <trkpt lat="42.365012000" lon="-2.401302000">
        <ele>567.60</ele>
        <time>2013-07-27T09:45:17Z</time>
      </trkpt>
      <trkpt lat="42.365000000" lon="-2.401261000">
        <ele>567.70</ele>
        <time>2013-07-27T09:45:18Z</time>
      </trkpt>
      <trkpt lat="42.364987000" lon="-2.401218000">
        <ele>567.60</ele>
        <time>2013-07-27T09:45:19Z</time>
      </trkpt>
      <trkpt lat="42.364979000" lon="-2.401172000">
        <ele>567.60</ele>
        <time>2013-07-27T09:45:20Z</time>
      </trkpt>
      <trkpt lat="42.364972000" lon="-2.401117000">
        <ele>567.60</ele>
        <time>2013-07-27T09:45:21Z</time>
      </trkpt>
      <trkpt lat="42.364962000" lon="-2.401062000">
        <ele>567.60</ele>
        <time>2013-07-27T09:45:22Z</time>
      </trkpt>
      <trkpt lat="42.364950000" lon="-2.401014000">
        <ele>567.80</ele>
        <time>2013-07-27T09:45:23Z</time>
      </trkpt>
      <trkpt lat="42.364939000" lon="-2.400971000">
        <ele>568.00</ele>
        <time>2013-07-27T09:45:24Z</time>
      </trkpt>
      <trkpt lat="42.364928000" lon="-2.400933000">
        <ele>568.10</ele>
        <time>2013-07-27T09:45:25Z</time>
      </trkpt>
      <trkpt lat="42.364918000" lon="-2.400898000">
        <ele>568.20</ele>
        <time>2013-07-27T09:45:26Z</time>
      </trkpt>
      <trkpt lat="42.364910000" lon="-2.400864000">
        <ele>567.70</ele>
        <time>2013-07-27T09:45:27Z</time>
      </trkpt>
      <trkpt lat="42.364899000" lon="-2.400833000">
        <ele>567.30</ele>
        <time>2013-07-27T09:45:28Z</time>
      </trkpt>
      <trkpt lat="42.364888000" lon="-2.400805000">
        <ele>566.70</ele>
        <time>2013-07-27T09:45:29Z</time>
      </trkpt>
      <trkpt lat="42.364879000" lon="-2.400781000">
        <ele>566.30</ele>
        <time>2013-07-27T09:45:30Z</time>
      </trkpt>
      <trkpt lat="42.364873000" lon="-2.400767000">
        <ele>566.00</ele>
        <time>2013-07-27T09:45:31Z</time>
      </trkpt>
      <trkpt lat="42.364877000" lon="-2.400766000">
        <ele>565.90</ele>
        <time>2013-07-27T09:45:32Z</time>
      </trkpt>
      <trkpt lat="42.364879000" lon="-2.400767000">
        <ele>565.80</ele>
        <time>2013-07-27T09:45:33Z</time>
      </trkpt>
      <trkpt lat="42.364876000" lon="-2.400767000">
        <ele>565.70</ele>
        <time>2013-07-27T09:45:34Z</time>
      </trkpt>
      <trkpt lat="42.364878000" lon="-2.400769000">
        <ele>565.60</ele>
        <time>2013-07-27T09:45:35Z</time>
      </trkpt>
      <trkpt lat="42.364879000" lon="-2.400767000">
        <ele>565.60</ele>
        <time>2013-07-27T09:45:36Z</time>
      </trkpt>
      <trkpt lat="42.364879000" lon="-2.400762000">
        <ele>565.30</ele>
        <time>2013-07-27T09:45:37Z</time>
      </trkpt>
      <trkpt lat="42.364885000" lon="-2.400761000">
        <ele>565.20</ele>
        <time>2013-07-27T09:45:38Z</time>
      </trkpt>
      <trkpt lat="42.364884000" lon="-2.400760000">
        <ele>565.00</ele>
        <time>2013-07-27T09:45:39Z</time>
      </trkpt>
      <trkpt lat="42.364887000" lon="-2.400763000">
        <ele>564.90</ele>
        <time>2013-07-27T09:45:40Z</time>
      </trkpt>
      <trkpt lat="42.364884000" lon="-2.400762000">
        <ele>564.90</ele>
        <time>2013-07-27T09:45:41Z</time>
      </trkpt>
      <trkpt lat="42.364880000" lon="-2.400765000">
        <ele>564.80</ele>
        <time>2013-07-27T09:45:42Z</time>
      </trkpt>
      <trkpt lat="42.364878000" lon="-2.400764000">
        <ele>564.70</ele>
        <time>2013-07-27T09:45:43Z</time>
      </trkpt>
      <trkpt lat="42.364877000" lon="-2.400763000">
        <ele>564.60</ele>
        <time>2013-07-27T09:45:44Z</time>
      </trkpt>
      <trkpt lat="42.364877000" lon="-2.400766000">
        <ele>564.60</ele>
        <time>2013-07-27T09:45:45Z</time>
      </trkpt>
      <trkpt lat="42.364874000" lon="-2.400766000">
        <ele>564.50</ele>
        <time>2013-07-27T09:45:46Z</time>
      </trkpt>
      <trkpt lat="42.364872000" lon="-2.400761000">
        <ele>564.40</ele>
        <time>2013-07-27T09:45:47Z</time>
      </trkpt>
      <trkpt lat="42.364872000" lon="-2.400756000">
        <ele>564.30</ele>
        <time>2013-07-27T09:45:48Z</time>
      </trkpt>
      <trkpt lat="42.364867000" lon="-2.400754000">
        <ele>564.20</ele>
        <time>2013-07-27T09:45:49Z</time>
      </trkpt>
      <trkpt lat="42.364868000" lon="-2.400754000">
        <ele>564.10</ele>
        <time>2013-07-27T09:45:50Z</time>
      </trkpt>
      <trkpt lat="42.364868000" lon="-2.400755000">
        <ele>564.10</ele>
        <time>2013-07-27T09:45:51Z</time>
      </trkpt>
      <trkpt lat="42.364867000" lon="-2.400754000">
        <ele>564.00</ele>
        <time>2013-07-27T09:45:52Z</time>
      </trkpt>
      <trkpt lat="42.364868000" lon="-2.400753000">
        <ele>564.10</ele>
        <time>2013-07-27T09:45:53Z</time>
      </trkpt>
      <trkpt lat="42.364871000" lon="-2.400751000">
        <ele>564.10</ele>
        <time>2013-07-27T09:45:54Z</time>
      </trkpt>
      <trkpt lat="42.364876000" lon="-2.400752000">
        <ele>564.10</ele>
        <time>2013-07-27T09:45:55Z</time>
      </trkpt>
      <trkpt lat="42.364881000" lon="-2.400750000">
        <ele>564.10</ele>
        <time>2013-07-27T09:45:56Z</time>
      </trkpt>
      <trkpt lat="42.364880000" lon="-2.400749000">
        <ele>564.20</ele>
        <time>2013-07-27T09:45:57Z</time>
      </trkpt>
      <trkpt lat="42.364878000" lon="-2.400749000">
        <ele>564.30</ele>
        <time>2013-07-27T09:45:58Z</time>
      </trkpt>
      <trkpt lat="42.364879000" lon="-2.400747000">
        <ele>564.30</ele>
        <time>2013-07-27T09:45:59Z</time>
      </trkpt>
      <trkpt lat="42.364877000" lon="-2.400747000">
        <ele>564.20</ele>
        <time>2013-07-27T09:46:00Z</time>
      </trkpt>
      <trkpt lat="42.364878000" lon="-2.400748000">
        <ele>564.20</ele>
        <time>2013-07-27T09:46:01Z</time>
      </trkpt>
      <trkpt lat="42.364875000" lon="-2.400751000">
        <ele>564.20</ele>
        <time>2013-07-27T09:46:02Z</time>
      </trkpt>
      <trkpt lat="42.364871000" lon="-2.400752000">
        <ele>564.10</ele>
        <time>2013-07-27T09:46:03Z</time>
      </trkpt>
      <trkpt lat="42.364871000" lon="-2.400754000">
        <ele>564.10</ele>
        <time>2013-07-27T09:46:04Z</time>
      </trkpt>
      <trkpt lat="42.364874000" lon="-2.400756000">
        <ele>564.00</ele>
        <time>2013-07-27T09:46:05Z</time>
      </trkpt>
      <trkpt lat="42.364877000" lon="-2.400757000">
        <ele>564.00</ele>
        <time>2013-07-27T09:46:06Z</time>
      </trkpt>
      <trkpt lat="42.364882000" lon="-2.400756000">
        <ele>564.00</ele>
        <time>2013-07-27T09:46:07Z</time>
      </trkpt>
      <trkpt lat="42.364880000" lon="-2.400757000">
        <ele>564.00</ele>
        <time>2013-07-27T09:46:08Z</time>
      </trkpt>
      <trkpt lat="42.364881000" lon="-2.400753000">
        <ele>564.10</ele>
        <time>2013-07-27T09:46:09Z</time>
      </trkpt>
      <trkpt lat="42.364881000" lon="-2.400752000">
        <ele>564.20</ele>
        <time>2013-07-27T09:46:10Z</time>
      </trkpt>
      <trkpt lat="42.364878000" lon="-2.400749000">
        <ele>564.20</ele>
        <time>2013-07-27T09:46:11Z</time>
      </trkpt>
      <trkpt lat="42.364877000" lon="-2.400744000">
        <ele>564.30</ele>
        <time>2013-07-27T09:46:12Z</time>
      </trkpt>
      <trkpt lat="42.364873000" lon="-2.400743000">
        <ele>564.30</ele>
        <time>2013-07-27T09:46:13Z</time>
      </trkpt>
      <trkpt lat="42.364870000" lon="-2.400745000">
        <ele>564.30</ele>
        <time>2013-07-27T09:46:14Z</time>
      </trkpt>
      <trkpt lat="42.364869000" lon="-2.400740000">
        <ele>564.40</ele>
        <time>2013-07-27T09:46:15Z</time>
      </trkpt>
      <trkpt lat="42.364866000" lon="-2.400735000">
        <ele>564.40</ele>
        <time>2013-07-27T09:46:16Z</time>
      </trkpt>
      <trkpt lat="42.364866000" lon="-2.400739000">
        <ele>564.30</ele>
        <time>2013-07-27T09:46:17Z</time>
      </trkpt>
      <trkpt lat="42.364871000" lon="-2.400741000">
        <ele>564.30</ele>
        <time>2013-07-27T09:46:18Z</time>
      </trkpt>
      <trkpt lat="42.364872000" lon="-2.400742000">
        <ele>564.30</ele>
        <time>2013-07-27T09:46:19Z</time>
      </trkpt>
      <trkpt lat="42.364877000" lon="-2.400744000">
        <ele>564.20</ele>
        <time>2013-07-27T09:46:20Z</time>
      </trkpt>
      <trkpt lat="42.364880000" lon="-2.400745000">
        <ele>564.20</ele>
        <time>2013-07-27T09:46:21Z</time>
      </trkpt>
      <trkpt lat="42.364882000" lon="-2.400745000">
        <ele>564.20</ele>
        <time>2013-07-27T09:46:22Z</time>
      </trkpt>
      <trkpt lat="42.364883000" lon="-2.400745000">
        <ele>564.20</ele>
        <time>2013-07-27T09:46:23Z</time>
      </trkpt>
      <trkpt lat="42.364882000" lon="-2.400746000">
        <ele>564.10</ele>
        <time>2013-07-27T09:46:24Z</time>
      </trkpt>
      <trkpt lat="42.364882000" lon="-2.400747000">
        <ele>564.10</ele>
        <time>2013-07-27T09:46:25Z</time>
      </trkpt>
      <trkpt lat="42.364880000" lon="-2.400748000">
        <ele>564.10</ele>
        <time>2013-07-27T09:46:26Z</time>
      </trkpt>
      <trkpt lat="42.364879000" lon="-2.400746000">
        <ele>564.10</ele>
        <time>2013-07-27T09:46:27Z</time>
      </trkpt>
      <trkpt lat="42.364880000" lon="-2.400748000">
        <ele>564.00</ele>
        <time>2013-07-27T09:46:28Z</time>
      </trkpt>
      <trkpt lat="42.364878000" lon="-2.400746000">
        <ele>564.10</ele>
        <time>2013-07-27T09:46:29Z</time>
      </trkpt>
      <trkpt lat="42.364875000" lon="-2.400744000">
        <ele>564.20</ele>
        <time>2013-07-27T09:46:30Z</time>
      </trkpt>
      <trkpt lat="42.364875000" lon="-2.400743000">
        <ele>564.20</ele>
        <time>2013-07-27T09:46:31Z</time>
      </trkpt>
      <trkpt lat="42.364872000" lon="-2.400743000">
        <ele>564.30</ele>
        <time>2013-07-27T09:46:32Z</time>
      </trkpt>
      <trkpt lat="42.364870000" lon="-2.400744000">
        <ele>564.30</ele>
        <time>2013-07-27T09:46:33Z</time>
      </trkpt>
      <trkpt lat="42.364867000" lon="-2.400745000">
        <ele>564.30</ele>
        <time>2013-07-27T09:46:34Z</time>
      </trkpt>
      <trkpt lat="42.364873000" lon="-2.400745000">
        <ele>564.30</ele>
        <time>2013-07-27T09:46:35Z</time>
      </trkpt>
      <trkpt lat="42.364877000" lon="-2.400741000">
        <ele>564.30</ele>
        <time>2013-07-27T09:46:36Z</time>
      </trkpt>
      <trkpt lat="42.364881000" lon="-2.400734000">
        <ele>564.20</ele>
        <time>2013-07-27T09:46:37Z</time>
      </trkpt>
      <trkpt lat="42.364884000" lon="-2.400734000">
        <ele>564.10</ele>
        <time>2013-07-27T09:46:38Z</time>
      </trkpt>
      <trkpt lat="42.364885000" lon="-2.400740000">
        <ele>564.10</ele>
        <time>2013-07-27T09:46:39Z</time>
      </trkpt>
      <trkpt lat="42.364880000" lon="-2.400740000">
        <ele>564.00</ele>
        <time>2013-07-27T09:46:40Z</time>
      </trkpt>
      <trkpt lat="42.364876000" lon="-2.400742000">
        <ele>564.00</ele>
        <time>2013-07-27T09:46:41Z</time>
      </trkpt>
      <trkpt lat="42.364873000" lon="-2.400743000">
        <ele>564.00</ele>
        <time>2013-07-27T09:46:42Z</time>
      </trkpt>
      <trkpt lat="42.364873000" lon="-2.400743000">
        <ele>564.00</ele>
        <time>2013-07-27T09:46:43Z</time>
      </trkpt>
      <trkpt lat="42.364870000" lon="-2.400738000">
        <ele>564.00</ele>
        <time>2013-07-27T09:46:44Z</time>
      </trkpt>
      <trkpt lat="42.364868000" lon="-2.400737000">
        <ele>564.00</ele>
        <time>2013-07-27T09:46:45Z</time>
      </trkpt>
      <trkpt lat="42.364869000" lon="-2.400737000">
        <ele>564.10</ele>
        <time>2013-07-27T09:46:46Z</time>
      </trkpt>
      <trkpt lat="42.364871000" lon="-2.400740000">
        <ele>564.20</ele>
        <time>2013-07-27T09:46:47Z</time>
      </trkpt>
      <trkpt lat="42.364873000" lon="-2.400742000">
        <ele>564.20</ele>
        <time>2013-07-27T09:46:48Z</time>
      </trkpt>
      <trkpt lat="42.364873000" lon="-2.400742000">
        <ele>564.30</ele>
        <time>2013-07-27T09:46:49Z</time>
      </trkpt>
      <trkpt lat="42.364872000" lon="-2.400744000">
        <ele>564.30</ele>
        <time>2013-07-27T09:46:50Z</time>
      </trkpt>
      <trkpt lat="42.364870000" lon="-2.400748000">
        <ele>564.20</ele>
        <time>2013-07-27T09:46:51Z</time>
      </trkpt>
      <trkpt lat="42.364869000" lon="-2.400745000">
        <ele>564.00</ele>
        <time>2013-07-27T09:46:52Z</time>
      </trkpt>
      <trkpt lat="42.364869000" lon="-2.400745000">
        <ele>563.90</ele>
        <time>2013-07-27T09:46:53Z</time>
      </trkpt>
      <trkpt lat="42.364871000" lon="-2.400745000">
        <ele>563.90</ele>
        <time>2013-07-27T09:46:54Z</time>
      </trkpt>
      <trkpt lat="42.364872000" lon="-2.400747000">
        <ele>564.10</ele>
        <time>2013-07-27T09:46:55Z</time>
      </trkpt>
      <trkpt lat="42.364871000" lon="-2.400749000">
        <ele>564.20</ele>
        <time>2013-07-27T09:46:56Z</time>
      </trkpt>
      <trkpt lat="42.364871000" lon="-2.400748000">
        <ele>564.40</ele>
        <time>2013-07-27T09:46:57Z</time>
      </trkpt>
      <trkpt lat="42.364871000" lon="-2.400748000">
        <ele>564.50</ele>
        <time>2013-07-27T09:46:58Z</time>
      </trkpt>
      <trkpt lat="42.364873000" lon="-2.400748000">
        <ele>564.50</ele>
        <time>2013-07-27T09:46:59Z</time>
      </trkpt>
      <trkpt lat="42.364872000" lon="-2.400751000">
        <ele>564.60</ele>
        <time>2013-07-27T09:47:00Z</time>
      </trkpt>
      <trkpt lat="42.364875000" lon="-2.400753000">
        <ele>564.40</ele>
        <time>2013-07-27T09:47:01Z</time>
      </trkpt>
      <trkpt lat="42.364877000" lon="-2.400747000">
        <ele>564.30</ele>
        <time>2013-07-27T09:47:02Z</time>
      </trkpt>
      <trkpt lat="42.364873000" lon="-2.400750000">
        <ele>564.20</ele>
        <time>2013-07-27T09:47:03Z</time>
      </trkpt>
      <trkpt lat="42.364868000" lon="-2.400752000">
        <ele>564.10</ele>
        <time>2013-07-27T09:47:04Z</time>
      </trkpt>
      <trkpt lat="42.364869000" lon="-2.400749000">
        <ele>564.00</ele>
        <time>2013-07-27T09:47:05Z</time>
      </trkpt>
      <trkpt lat="42.364874000" lon="-2.400750000">
        <ele>563.90</ele>
        <time>2013-07-27T09:47:06Z</time>
      </trkpt>
      <trkpt lat="42.364878000" lon="-2.400751000">
        <ele>563.90</ele>
        <time>2013-07-27T09:47:07Z</time>
      </trkpt>
      <trkpt lat="42.364881000" lon="-2.400748000">
        <ele>563.80</ele>
        <time>2013-07-27T09:47:08Z</time>
      </trkpt>
      <trkpt lat="42.364882000" lon="-2.400746000">
        <ele>563.80</ele>
        <time>2013-07-27T09:47:09Z</time>
      </trkpt>
      <trkpt lat="42.364879000" lon="-2.400747000">
        <ele>563.70</ele>
        <time>2013-07-27T09:47:10Z</time>
      </trkpt>
      <trkpt lat="42.364876000" lon="-2.400751000">
        <ele>563.90</ele>
        <time>2013-07-27T09:47:11Z</time>
      </trkpt>
      <trkpt lat="42.364876000" lon="-2.400750000">
        <ele>563.90</ele>
        <time>2013-07-27T09:47:12Z</time>
      </trkpt>
      <trkpt lat="42.364877000" lon="-2.400748000">
        <ele>563.90</ele>
        <time>2013-07-27T09:47:13Z</time>
      </trkpt>
      <trkpt lat="42.364876000" lon="-2.400748000">
        <ele>563.90</ele>
        <time>2013-07-27T09:47:14Z</time>
      </trkpt>
      <trkpt lat="42.364877000" lon="-2.400746000">
        <ele>563.90</ele>
        <time>2013-07-27T09:47:15Z</time>
      </trkpt>
      <trkpt lat="42.364876000" lon="-2.400745000">
        <ele>563.90</ele>
        <time>2013-07-27T09:47:16Z</time>
      </trkpt>
      <trkpt lat="42.364873000" lon="-2.400744000">
        <ele>563.90</ele>
        <time>2013-07-27T09:47:17Z</time>
      </trkpt>
      <trkpt lat="42.364869000" lon="-2.400747000">
        <ele>563.80</ele>
        <time>2013-07-27T09:47:18Z</time>
      </trkpt>
      <trkpt lat="42.364865000" lon="-2.400746000">
        <ele>563.80</ele>
        <time>2013-07-27T09:47:19Z</time>
      </trkpt>
      <trkpt lat="42.364865000" lon="-2.400745000">
        <ele>563.70</ele>
        <time>2013-07-27T09:47:20Z</time>
      </trkpt>
      <trkpt lat="42.364865000" lon="-2.400745000">
        <ele>563.70</ele>
        <time>2013-07-27T09:47:21Z</time>
      </trkpt>
      <trkpt lat="42.364867000" lon="-2.400743000">
        <ele>563.70</ele>
        <time>2013-07-27T09:47:22Z</time>
      </trkpt>
      <trkpt lat="42.364869000" lon="-2.400741000">
        <ele>563.80</ele>
        <time>2013-07-27T09:47:23Z</time>
      </trkpt>
      <trkpt lat="42.364871000" lon="-2.400741000">
        <ele>563.90</ele>
        <time>2013-07-27T09:47:24Z</time>
      </trkpt>
      <trkpt lat="42.364874000" lon="-2.400741000">
        <ele>564.00</ele>
        <time>2013-07-27T09:47:25Z</time>
      </trkpt>
      <trkpt lat="42.364873000" lon="-2.400740000">
        <ele>564.00</ele>
        <time>2013-07-27T09:47:26Z</time>
      </trkpt>
      <trkpt lat="42.364872000" lon="-2.400739000">
        <ele>564.00</ele>
        <time>2013-07-27T09:47:27Z</time>
      </trkpt>
      <trkpt lat="42.364871000" lon="-2.400742000">
        <ele>564.00</ele>
        <time>2013-07-27T09:47:28Z</time>
      </trkpt>
      <trkpt lat="42.364872000" lon="-2.400742000">
        <ele>563.90</ele>
        <time>2013-07-27T09:47:29Z</time>
      </trkpt>
      <trkpt lat="42.364875000" lon="-2.400743000">
        <ele>563.90</ele>
        <time>2013-07-27T09:47:30Z</time>
      </trkpt>
      <trkpt lat="42.364877000" lon="-2.400738000">
        <ele>563.70</ele>
        <time>2013-07-27T09:47:31Z</time>
      </trkpt>
      <trkpt lat="42.364876000" lon="-2.400738000">
        <ele>563.50</ele>
        <time>2013-07-27T09:47:32Z</time>
      </trkpt>
      <trkpt lat="42.364874000" lon="-2.400736000">
        <ele>563.40</ele>
        <time>2013-07-27T09:47:33Z</time>
      </trkpt>
      <trkpt lat="42.364869000" lon="-2.400737000">
        <ele>563.40</ele>
        <time>2013-07-27T09:47:34Z</time>
      </trkpt>
      <trkpt lat="42.364868000" lon="-2.400742000">
        <ele>563.40</ele>
        <time>2013-07-27T09:47:35Z</time>
      </trkpt>
      <trkpt lat="42.364873000" lon="-2.400741000">
        <ele>563.40</ele>
        <time>2013-07-27T09:47:36Z</time>
      </trkpt>
      <trkpt lat="42.364878000" lon="-2.400740000">
        <ele>563.50</ele>
        <time>2013-07-27T09:47:37Z</time>
      </trkpt>
      <trkpt lat="42.364880000" lon="-2.400739000">
        <ele>563.70</ele>
        <time>2013-07-27T09:47:38Z</time>
      </trkpt>
      <trkpt lat="42.364880000" lon="-2.400736000">
        <ele>563.80</ele>
        <time>2013-07-27T09:47:39Z</time>
      </trkpt>
      <trkpt lat="42.364881000" lon="-2.400737000">
        <ele>563.90</ele>
        <time>2013-07-27T09:47:40Z</time>
      </trkpt>
      <trkpt lat="42.364881000" lon="-2.400739000">
        <ele>564.00</ele>
        <time>2013-07-27T09:47:41Z</time>
      </trkpt>
      <trkpt lat="42.364878000" lon="-2.400739000">
        <ele>564.10</ele>
        <time>2013-07-27T09:47:42Z</time>
      </trkpt>
      <trkpt lat="42.364878000" lon="-2.400741000">
        <ele>564.10</ele>
        <time>2013-07-27T09:47:43Z</time>
      </trkpt>
      <trkpt lat="42.364874000" lon="-2.400742000">
        <ele>564.20</ele>
        <time>2013-07-27T09:47:44Z</time>
      </trkpt>
      <trkpt lat="42.364869000" lon="-2.400744000">
        <ele>564.10</ele>
        <time>2013-07-27T09:47:45Z</time>
      </trkpt>
      <trkpt lat="42.364869000" lon="-2.400740000">
        <ele>564.10</ele>
        <time>2013-07-27T09:47:46Z</time>
      </trkpt>
      <trkpt lat="42.364868000" lon="-2.400737000">
        <ele>564.10</ele>
        <time>2013-07-27T09:47:47Z</time>
      </trkpt>
      <trkpt lat="42.364866000" lon="-2.400738000">
        <ele>564.10</ele>
        <time>2013-07-27T09:47:48Z</time>
      </trkpt>
      <trkpt lat="42.364869000" lon="-2.400738000">
        <ele>564.10</ele>
        <time>2013-07-27T09:47:49Z</time>
      </trkpt>
      <trkpt lat="42.364869000" lon="-2.400739000">
        <ele>564.20</ele>
        <time>2013-07-27T09:47:50Z</time>
      </trkpt>
      <trkpt lat="42.364868000" lon="-2.400742000">
        <ele>564.20</ele>
        <time>2013-07-27T09:47:51Z</time>
      </trkpt>
      <trkpt lat="42.364875000" lon="-2.400742000">
        <ele>564.20</ele>
        <time>2013-07-27T09:47:52Z</time>
      </trkpt>
      <trkpt lat="42.364874000" lon="-2.400747000">
        <ele>564.20</ele>
        <time>2013-07-27T09:47:53Z</time>
      </trkpt>
      <trkpt lat="42.364880000" lon="-2.400747000">
        <ele>564.20</ele>
        <time>2013-07-27T09:47:54Z</time>
      </trkpt>
      <trkpt lat="42.364882000" lon="-2.400747000">
        <ele>564.30</ele>
        <time>2013-07-27T09:47:55Z</time>
      </trkpt>
      <trkpt lat="42.364882000" lon="-2.400749000">
        <ele>564.30</ele>
        <time>2013-07-27T09:47:56Z</time>
      </trkpt>
      <trkpt lat="42.364880000" lon="-2.400746000">
        <ele>564.30</ele>
        <time>2013-07-27T09:47:57Z</time>
      </trkpt>
      <trkpt lat="42.364877000" lon="-2.400746000">
        <ele>564.30</ele>
        <time>2013-07-27T09:47:58Z</time>
      </trkpt>
      <trkpt lat="42.364877000" lon="-2.400743000">
        <ele>564.10</ele>
        <time>2013-07-27T09:47:59Z</time>
      </trkpt>
      <trkpt lat="42.364875000" lon="-2.400742000">
        <ele>563.90</ele>
        <time>2013-07-27T09:48:00Z</time>
      </trkpt>
      <trkpt lat="42.364874000" lon="-2.400742000">
        <ele>563.80</ele>
        <time>2013-07-27T09:48:01Z</time>
      </trkpt>
      <trkpt lat="42.364873000" lon="-2.400742000">
        <ele>563.70</ele>
        <time>2013-07-27T09:48:02Z</time>
      </trkpt>
      <trkpt lat="42.364870000" lon="-2.400743000">
        <ele>563.90</ele>
        <time>2013-07-27T09:48:03Z</time>
      </trkpt>
      <trkpt lat="42.364869000" lon="-2.400742000">
        <ele>564.00</ele>
        <time>2013-07-27T09:48:04Z</time>
      </trkpt>
      <trkpt lat="42.364870000" lon="-2.400744000">
        <ele>564.00</ele>
        <time>2013-07-27T09:48:05Z</time>
      </trkpt>
      <trkpt lat="42.364870000" lon="-2.400742000">
        <ele>564.10</ele>
        <time>2013-07-27T09:48:06Z</time>
      </trkpt>
      <trkpt lat="42.364871000" lon="-2.400742000">
        <ele>564.00</ele>
        <time>2013-07-27T09:48:07Z</time>
      </trkpt>
      <trkpt lat="42.364873000" lon="-2.400744000">
        <ele>564.00</ele>
        <time>2013-07-27T09:48:08Z</time>
      </trkpt>
      <trkpt lat="42.364874000" lon="-2.400743000">
        <ele>563.90</ele>
        <time>2013-07-27T09:48:09Z</time>
      </trkpt>
      <trkpt lat="42.364874000" lon="-2.400738000">
        <ele>563.80</ele>
        <time>2013-07-27T09:48:10Z</time>
      </trkpt>
      <trkpt lat="42.364876000" lon="-2.400735000">
        <ele>563.70</ele>
        <time>2013-07-27T09:48:11Z</time>
      </trkpt>
      <trkpt lat="42.364878000" lon="-2.400738000">
        <ele>563.70</ele>
        <time>2013-07-27T09:48:12Z</time>
      </trkpt>
      <trkpt lat="42.364880000" lon="-2.400740000">
        <ele>563.70</ele>
        <time>2013-07-27T09:48:13Z</time>
      </trkpt>
      <trkpt lat="42.364878000" lon="-2.400742000">
        <ele>563.60</ele>
        <time>2013-07-27T09:48:14Z</time>
      </trkpt>
      <trkpt lat="42.364879000" lon="-2.400744000">
        <ele>563.60</ele>
        <time>2013-07-27T09:48:15Z</time>
      </trkpt>
      <trkpt lat="42.364873000" lon="-2.400742000">
        <ele>563.60</ele>
        <time>2013-07-27T09:48:16Z</time>
      </trkpt>
      <trkpt lat="42.364871000" lon="-2.400739000">
        <ele>563.70</ele>
        <time>2013-07-27T09:48:17Z</time>
      </trkpt>
      <trkpt lat="42.364871000" lon="-2.400738000">
        <ele>563.70</ele>
        <time>2013-07-27T09:48:18Z</time>
      </trkpt>
      <trkpt lat="42.364869000" lon="-2.400738000">
        <ele>563.70</ele>
        <time>2013-07-27T09:48:19Z</time>
      </trkpt>
      <trkpt lat="42.364869000" lon="-2.400740000">
        <ele>563.80</ele>
        <time>2013-07-27T09:48:20Z</time>
      </trkpt>
      <trkpt lat="42.364870000" lon="-2.400745000">
        <ele>563.80</ele>
        <time>2013-07-27T09:48:21Z</time>
      </trkpt>
      <trkpt lat="42.364873000" lon="-2.400745000">
        <ele>563.80</ele>
        <time>2013-07-27T09:48:22Z</time>
      </trkpt>
      <trkpt lat="42.364875000" lon="-2.400744000">
        <ele>563.70</ele>
        <time>2013-07-27T09:48:23Z</time>
      </trkpt>
      <trkpt lat="42.364876000" lon="-2.400744000">
        <ele>563.70</ele>
        <time>2013-07-27T09:48:24Z</time>
      </trkpt>
      <trkpt lat="42.364878000" lon="-2.400744000">
        <ele>563.80</ele>
        <time>2013-07-27T09:48:25Z</time>
      </trkpt>
      <trkpt lat="42.364878000" lon="-2.400747000">
        <ele>563.90</ele>
        <time>2013-07-27T09:48:26Z</time>
      </trkpt>
      <trkpt lat="42.364883000" lon="-2.400746000">
        <ele>563.80</ele>
        <time>2013-07-27T09:48:27Z</time>
      </trkpt>
      <trkpt lat="42.364883000" lon="-2.400747000">
        <ele>563.70</ele>
        <time>2013-07-27T09:48:28Z</time>
      </trkpt>
      <trkpt lat="42.364883000" lon="-2.400747000">
        <ele>563.80</ele>
        <time>2013-07-27T09:48:29Z</time>
      </trkpt>
      <trkpt lat="42.364881000" lon="-2.400746000">
        <ele>563.90</ele>
        <time>2013-07-27T09:48:30Z</time>
      </trkpt>
      <trkpt lat="42.364880000" lon="-2.400745000">
        <ele>563.80</ele>
        <time>2013-07-27T09:48:31Z</time>
      </trkpt>
      <trkpt lat="42.364879000" lon="-2.400745000">
        <ele>563.80</ele>
        <time>2013-07-27T09:48:32Z</time>
      </trkpt>
      <trkpt lat="42.364880000" lon="-2.400745000">
        <ele>563.80</ele>
        <time>2013-07-27T09:48:33Z</time>
      </trkpt>
      <trkpt lat="42.364879000" lon="-2.400745000">
        <ele>563.90</ele>
        <time>2013-07-27T09:48:34Z</time>
      </trkpt>
      <trkpt lat="42.364880000" lon="-2.400743000">
        <ele>564.00</ele>
        <time>2013-07-27T09:48:35Z</time>
      </trkpt>
      <trkpt lat="42.364881000" lon="-2.400744000">
        <ele>564.10</ele>
        <time>2013-07-27T09:48:36Z</time>
      </trkpt>
      <trkpt lat="42.364880000" lon="-2.400742000">
        <ele>564.20</ele>
        <time>2013-07-27T09:48:37Z</time>
      </trkpt>
      <trkpt lat="42.364879000" lon="-2.400739000">
        <ele>564.20</ele>
        <time>2013-07-27T09:48:38Z</time>
      </trkpt>
      <trkpt lat="42.364878000" lon="-2.400741000">
        <ele>564.30</ele>
        <time>2013-07-27T09:48:39Z</time>
      </trkpt>
      <trkpt lat="42.364877000" lon="-2.400743000">
        <ele>564.30</ele>
        <time>2013-07-27T09:48:40Z</time>
      </trkpt>
      <trkpt lat="42.364876000" lon="-2.400742000">
        <ele>564.00</ele>
        <time>2013-07-27T09:48:41Z</time>
      </trkpt>
      <trkpt lat="42.364873000" lon="-2.400739000">
        <ele>563.90</ele>
        <time>2013-07-27T09:48:42Z</time>
      </trkpt>
      <trkpt lat="42.364875000" lon="-2.400738000">
        <ele>563.70</ele>
        <time>2013-07-27T09:48:43Z</time>
      </trkpt>
      <trkpt lat="42.364874000" lon="-2.400735000">
        <ele>563.60</ele>
        <time>2013-07-27T09:48:44Z</time>
      </trkpt>
      <trkpt lat="42.364872000" lon="-2.400733000">
        <ele>563.50</ele>
        <time>2013-07-27T09:48:45Z</time>
      </trkpt>
      <trkpt lat="42.364869000" lon="-2.400734000">
        <ele>563.50</ele>
        <time>2013-07-27T09:48:46Z</time>
      </trkpt>
      <trkpt lat="42.364869000" lon="-2.400734000">
        <ele>563.60</ele>
        <time>2013-07-27T09:48:47Z</time>
      </trkpt>
      <trkpt lat="42.364868000" lon="-2.400734000">
        <ele>563.60</ele>
        <time>2013-07-27T09:48:48Z</time>
      </trkpt>
      <trkpt lat="42.364869000" lon="-2.400736000">
        <ele>563.70</ele>
        <time>2013-07-27T09:48:49Z</time>
      </trkpt>
      <trkpt lat="42.364869000" lon="-2.400734000">
        <ele>563.70</ele>
        <time>2013-07-27T09:48:50Z</time>
      </trkpt>
      <trkpt lat="42.364870000" lon="-2.400733000">
        <ele>563.80</ele>
        <time>2013-07-27T09:48:51Z</time>
      </trkpt>
      <trkpt lat="42.364869000" lon="-2.400736000">
        <ele>563.80</ele>
        <time>2013-07-27T09:48:52Z</time>
      </trkpt>
      <trkpt lat="42.364868000" lon="-2.400736000">
        <ele>564.00</ele>
        <time>2013-07-27T09:48:53Z</time>
      </trkpt>
      <trkpt lat="42.364870000" lon="-2.400737000">
        <ele>564.10</ele>
        <time>2013-07-27T09:48:54Z</time>
      </trkpt>
      <trkpt lat="42.364873000" lon="-2.400738000">
        <ele>564.20</ele>
        <time>2013-07-27T09:48:55Z</time>
      </trkpt>
      <trkpt lat="42.364874000" lon="-2.400735000">
        <ele>564.30</ele>
        <time>2013-07-27T09:48:56Z</time>
      </trkpt>
      <trkpt lat="42.364875000" lon="-2.400736000">
        <ele>564.20</ele>
        <time>2013-07-27T09:48:57Z</time>
      </trkpt>
      <trkpt lat="42.364873000" lon="-2.400733000">
        <ele>564.20</ele>
        <time>2013-07-27T09:48:58Z</time>
      </trkpt>
      <trkpt lat="42.364869000" lon="-2.400736000">
        <ele>564.20</ele>
        <time>2013-07-27T09:48:59Z</time>
      </trkpt>
      <trkpt lat="42.364864000" lon="-2.400738000">
        <ele>564.10</ele>
        <time>2013-07-27T09:49:00Z</time>
      </trkpt>
      <trkpt lat="42.364863000" lon="-2.400739000">
        <ele>564.10</ele>
        <time>2013-07-27T09:49:01Z</time>
      </trkpt>
      <trkpt lat="42.364861000" lon="-2.400737000">
        <ele>564.00</ele>
        <time>2013-07-27T09:49:02Z</time>
      </trkpt>
      <trkpt lat="42.364861000" lon="-2.400736000">
        <ele>564.00</ele>
        <time>2013-07-27T09:49:03Z</time>
      </trkpt>
      <trkpt lat="42.364864000" lon="-2.400736000">
        <ele>564.00</ele>
        <time>2013-07-27T09:49:04Z</time>
      </trkpt>
      <trkpt lat="42.364871000" lon="-2.400734000">
        <ele>564.00</ele>
        <time>2013-07-27T09:49:05Z</time>
      </trkpt>
      <trkpt lat="42.364870000" lon="-2.400735000">
        <ele>564.00</ele>
        <time>2013-07-27T09:49:06Z</time>
      </trkpt>
      <trkpt lat="42.364871000" lon="-2.400736000">
        <ele>563.90</ele>
        <time>2013-07-27T09:49:07Z</time>
      </trkpt>
      <trkpt lat="42.364871000" lon="-2.400736000">
        <ele>563.90</ele>
        <time>2013-07-27T09:49:08Z</time>
      </trkpt>
      <trkpt lat="42.364866000" lon="-2.400736000">
        <ele>564.00</ele>
        <time>2013-07-27T09:49:09Z</time>
      </trkpt>
      <trkpt lat="42.364866000" lon="-2.400737000">
        <ele>564.10</ele>
        <time>2013-07-27T09:49:10Z</time>
      </trkpt>
      <trkpt lat="42.364867000" lon="-2.400737000">
        <ele>564.00</ele>
        <time>2013-07-27T09:49:11Z</time>
      </trkpt>
      <trkpt lat="42.364866000" lon="-2.400738000">
        <ele>563.90</ele>
        <time>2013-07-27T09:49:12Z</time>
      </trkpt>
      <trkpt lat="42.364865000" lon="-2.400738000">
        <ele>563.90</ele>
        <time>2013-07-27T09:49:13Z</time>
      </trkpt>
      <trkpt lat="42.364867000" lon="-2.400738000">
        <ele>563.90</ele>
        <time>2013-07-27T09:49:14Z</time>
      </trkpt>
      <trkpt lat="42.364866000" lon="-2.400739000">
        <ele>563.90</ele>
        <time>2013-07-27T09:49:15Z</time>
      </trkpt>
      <trkpt lat="42.364866000" lon="-2.400737000">
        <ele>563.90</ele>
        <time>2013-07-27T09:49:16Z</time>
      </trkpt>
      <trkpt lat="42.364866000" lon="-2.400738000">
        <ele>563.90</ele>
        <time>2013-07-27T09:49:17Z</time>
      </trkpt>
      <trkpt lat="42.364866000" lon="-2.400739000">
        <ele>563.90</ele>
        <time>2013-07-27T09:49:18Z</time>
      </trkpt>
      <trkpt lat="42.364868000" lon="-2.400736000">
        <ele>563.90</ele>
        <time>2013-07-27T09:49:19Z</time>
      </trkpt>
      <trkpt lat="42.364870000" lon="-2.400736000">
        <ele>563.80</ele>
        <time>2013-07-27T09:49:20Z</time>
      </trkpt>
      <trkpt lat="42.364869000" lon="-2.400736000">
        <ele>563.80</ele>
        <time>2013-07-27T09:49:21Z</time>
      </trkpt>
      <trkpt lat="42.364868000" lon="-2.400738000">
        <ele>563.80</ele>
        <time>2013-07-27T09:49:22Z</time>
      </trkpt>
      <trkpt lat="42.364867000" lon="-2.400740000">
        <ele>563.90</ele>
        <time>2013-07-27T09:49:23Z</time>
      </trkpt>
      <trkpt lat="42.364868000" lon="-2.400741000">
        <ele>563.90</ele>
        <time>2013-07-27T09:49:24Z</time>
      </trkpt>
      <trkpt lat="42.364867000" lon="-2.400741000">
        <ele>563.90</ele>
        <time>2013-07-27T09:49:25Z</time>
      </trkpt>
      <trkpt lat="42.364868000" lon="-2.400742000">
        <ele>563.90</ele>
        <time>2013-07-27T09:49:26Z</time>
      </trkpt>
      <trkpt lat="42.364869000" lon="-2.400741000">
        <ele>563.90</ele>
        <time>2013-07-27T09:49:27Z</time>
      </trkpt>
      <trkpt lat="42.364871000" lon="-2.400740000">
        <ele>563.90</ele>
        <time>2013-07-27T09:49:28Z</time>
      </trkpt>
      <trkpt lat="42.364871000" lon="-2.400741000">
        <ele>563.80</ele>
        <time>2013-07-27T09:49:29Z</time>
      </trkpt>
      <trkpt lat="42.364872000" lon="-2.400738000">
        <ele>563.80</ele>
        <time>2013-07-27T09:49:30Z</time>
      </trkpt>
      <trkpt lat="42.364872000" lon="-2.400740000">
        <ele>563.90</ele>
        <time>2013-07-27T09:49:31Z</time>
      </trkpt>
      <trkpt lat="42.364874000" lon="-2.400736000">
        <ele>563.90</ele>
        <time>2013-07-27T09:49:32Z</time>
      </trkpt>
      <trkpt lat="42.364879000" lon="-2.400736000">
        <ele>563.90</ele>
        <time>2013-07-27T09:49:33Z</time>
      </trkpt>
      <trkpt lat="42.364880000" lon="-2.400739000">
        <ele>564.00</ele>
        <time>2013-07-27T09:49:34Z</time>
      </trkpt>
      <trkpt lat="42.364880000" lon="-2.400741000">
        <ele>563.90</ele>
        <time>2013-07-27T09:49:35Z</time>
      </trkpt>
      <trkpt lat="42.364878000" lon="-2.400742000">
        <ele>563.90</ele>
        <time>2013-07-27T09:49:36Z</time>
      </trkpt>
      <trkpt lat="42.364875000" lon="-2.400749000">
        <ele>563.80</ele>
        <time>2013-07-27T09:49:37Z</time>
      </trkpt>
      <trkpt lat="42.364873000" lon="-2.400750000">
        <ele>563.80</ele>
        <time>2013-07-27T09:49:38Z</time>
      </trkpt>
      <trkpt lat="42.364871000" lon="-2.400745000">
        <ele>563.70</ele>
        <time>2013-07-27T09:49:39Z</time>
      </trkpt>
      <trkpt lat="42.364871000" lon="-2.400743000">
        <ele>563.70</ele>
        <time>2013-07-27T09:49:40Z</time>
      </trkpt>
      <trkpt lat="42.364873000" lon="-2.400741000">
        <ele>563.60</ele>
        <time>2013-07-27T09:49:41Z</time>
      </trkpt>
      <trkpt lat="42.364874000" lon="-2.400742000">
        <ele>563.60</ele>
        <time>2013-07-27T09:49:42Z</time>
      </trkpt>
      <trkpt lat="42.364876000" lon="-2.400744000">
        <ele>563.60</ele>
        <time>2013-07-27T09:49:43Z</time>
      </trkpt>
      <trkpt lat="42.364874000" lon="-2.400748000">
        <ele>563.50</ele>
        <time>2013-07-27T09:49:44Z</time>
      </trkpt>
      <trkpt lat="42.364874000" lon="-2.400748000">
        <ele>563.60</ele>
        <time>2013-07-27T09:49:45Z</time>
      </trkpt>
      <trkpt lat="42.364876000" lon="-2.400747000">
        <ele>563.70</ele>
        <time>2013-07-27T09:49:46Z</time>
      </trkpt>
      <trkpt lat="42.364876000" lon="-2.400746000">
        <ele>563.80</ele>
        <time>2013-07-27T09:49:47Z</time>
      </trkpt>
      <trkpt lat="42.364878000" lon="-2.400745000">
        <ele>563.90</ele>
        <time>2013-07-27T09:49:48Z</time>
      </trkpt>
      <trkpt lat="42.364877000" lon="-2.400745000">
        <ele>563.90</ele>
        <time>2013-07-27T09:49:49Z</time>
      </trkpt>
      <trkpt lat="42.364878000" lon="-2.400747000">
        <ele>564.00</ele>
        <time>2013-07-27T09:49:50Z</time>
      </trkpt>
      <trkpt lat="42.364877000" lon="-2.400749000">
        <ele>564.00</ele>
        <time>2013-07-27T09:49:51Z</time>
      </trkpt>
      <trkpt lat="42.364876000" lon="-2.400750000">
        <ele>564.00</ele>
        <time>2013-07-27T09:49:52Z</time>
      </trkpt>
      <trkpt lat="42.364878000" lon="-2.400749000">
        <ele>564.00</ele>
        <time>2013-07-27T09:49:53Z</time>
      </trkpt>
      <trkpt lat="42.364878000" lon="-2.400748000">
        <ele>564.10</ele>
        <time>2013-07-27T09:49:54Z</time>
      </trkpt>
      <trkpt lat="42.364876000" lon="-2.400746000">
        <ele>564.10</ele>
        <time>2013-07-27T09:49:55Z</time>
      </trkpt>
      <trkpt lat="42.364876000" lon="-2.400746000">
        <ele>564.10</ele>
        <time>2013-07-27T09:49:56Z</time>
      </trkpt>
      <trkpt lat="42.364876000" lon="-2.400747000">
        <ele>564.10</ele>
        <time>2013-07-27T09:49:57Z</time>
      </trkpt>
      <trkpt lat="42.364878000" lon="-2.400745000">
        <ele>564.10</ele>
        <time>2013-07-27T09:49:58Z</time>
      </trkpt>
      <trkpt lat="42.364877000" lon="-2.400744000">
        <ele>564.00</ele>
        <time>2013-07-27T09:49:59Z</time>
      </trkpt>
      <trkpt lat="42.364874000" lon="-2.400742000">
        <ele>563.90</ele>
        <time>2013-07-27T09:50:00Z</time>
      </trkpt>
      <trkpt lat="42.364875000" lon="-2.400743000">
        <ele>563.80</ele>
        <time>2013-07-27T09:50:01Z</time>
      </trkpt>
      <trkpt lat="42.364876000" lon="-2.400745000">
        <ele>563.70</ele>
        <time>2013-07-27T09:50:02Z</time>
      </trkpt>
      <trkpt lat="42.364877000" lon="-2.400745000">
        <ele>563.70</ele>
        <time>2013-07-27T09:50:03Z</time>
      </trkpt>
      <trkpt lat="42.364876000" lon="-2.400745000">
        <ele>563.70</ele>
        <time>2013-07-27T09:50:04Z</time>
      </trkpt>
      <trkpt lat="42.364878000" lon="-2.400743000">
        <ele>563.70</ele>
        <time>2013-07-27T09:50:05Z</time>
      </trkpt>
      <trkpt lat="42.364878000" lon="-2.400744000">
        <ele>563.70</ele>
        <time>2013-07-27T09:50:06Z</time>
      </trkpt>
      <trkpt lat="42.364879000" lon="-2.400744000">
        <ele>563.90</ele>
        <time>2013-07-27T09:50:07Z</time>
      </trkpt>
      <trkpt lat="42.364879000" lon="-2.400743000">
        <ele>563.90</ele>
        <time>2013-07-27T09:50:08Z</time>
      </trkpt>
      <trkpt lat="42.364877000" lon="-2.400741000">
        <ele>564.10</ele>
        <time>2013-07-27T09:50:09Z</time>
      </trkpt>
      <trkpt lat="42.364878000" lon="-2.400742000">
        <ele>564.20</ele>
        <time>2013-07-27T09:50:10Z</time>
      </trkpt>
      <trkpt lat="42.364877000" lon="-2.400744000">
        <ele>564.20</ele>
        <time>2013-07-27T09:50:11Z</time>
      </trkpt>
      <trkpt lat="42.364875000" lon="-2.400746000">
        <ele>564.20</ele>
        <time>2013-07-27T09:50:12Z</time>
      </trkpt>
      <trkpt lat="42.364875000" lon="-2.400746000">
        <ele>564.20</ele>
        <time>2013-07-27T09:50:13Z</time>
      </trkpt>
      <trkpt lat="42.364874000" lon="-2.400746000">
        <ele>564.30</ele>
        <time>2013-07-27T09:50:14Z</time>
      </trkpt>
      <trkpt lat="42.364875000" lon="-2.400745000">
        <ele>564.30</ele>
        <time>2013-07-27T09:50:15Z</time>
      </trkpt>
      <trkpt lat="42.364876000" lon="-2.400742000">
        <ele>564.30</ele>
        <time>2013-07-27T09:50:16Z</time>
      </trkpt>
      <trkpt lat="42.364878000" lon="-2.400741000">
        <ele>564.20</ele>
        <time>2013-07-27T09:50:17Z</time>
      </trkpt>
      <trkpt lat="42.364878000" lon="-2.400741000">
        <ele>564.10</ele>
        <time>2013-07-27T09:50:18Z</time>
      </trkpt>
      <trkpt lat="42.364880000" lon="-2.400741000">
        <ele>564.10</ele>
        <time>2013-07-27T09:50:19Z</time>
      </trkpt>
      <trkpt lat="42.364883000" lon="-2.400740000">
        <ele>564.00</ele>
        <time>2013-07-27T09:50:20Z</time>
      </trkpt>
      <trkpt lat="42.364884000" lon="-2.400741000">
        <ele>564.00</ele>
        <time>2013-07-27T09:50:21Z</time>
      </trkpt>
      <trkpt lat="42.364883000" lon="-2.400741000">
        <ele>564.00</ele>
        <time>2013-07-27T09:50:22Z</time>
      </trkpt>
      <trkpt lat="42.364884000" lon="-2.400738000">
        <ele>564.00</ele>
        <time>2013-07-27T09:50:23Z</time>
      </trkpt>
      <trkpt lat="42.364883000" lon="-2.400742000">
        <ele>564.00</ele>
        <time>2013-07-27T09:50:24Z</time>
      </trkpt>
      <trkpt lat="42.364883000" lon="-2.400746000">
        <ele>564.00</ele>
        <time>2013-07-27T09:50:25Z</time>
      </trkpt>
      <trkpt lat="42.364879000" lon="-2.400746000">
        <ele>563.90</ele>
        <time>2013-07-27T09:50:26Z</time>
      </trkpt>
      <trkpt lat="42.364877000" lon="-2.400745000">
        <ele>563.90</ele>
        <time>2013-07-27T09:50:27Z</time>
      </trkpt>
      <trkpt lat="42.364877000" lon="-2.400744000">
        <ele>563.80</ele>
        <time>2013-07-27T09:50:28Z</time>
      </trkpt>
      <trkpt lat="42.364877000" lon="-2.400742000">
        <ele>563.80</ele>
        <time>2013-07-27T09:50:29Z</time>
      </trkpt>
      <trkpt lat="42.364879000" lon="-2.400740000">
        <ele>563.80</ele>
        <time>2013-07-27T09:50:30Z</time>
      </trkpt>
      <trkpt lat="42.364880000" lon="-2.400740000">
        <ele>563.70</ele>
        <time>2013-07-27T09:50:31Z</time>
      </trkpt>
      <trkpt lat="42.364880000" lon="-2.400740000">
        <ele>563.60</ele>
        <time>2013-07-27T09:50:32Z</time>
      </trkpt>
      <trkpt lat="42.364881000" lon="-2.400741000">
        <ele>563.70</ele>
        <time>2013-07-27T09:50:33Z</time>
      </trkpt>
      <trkpt lat="42.364880000" lon="-2.400742000">
        <ele>563.80</ele>
        <time>2013-07-27T09:50:34Z</time>
      </trkpt>
      <trkpt lat="42.364881000" lon="-2.400742000">
        <ele>563.90</ele>
        <time>2013-07-27T09:50:35Z</time>
      </trkpt>
      <trkpt lat="42.364883000" lon="-2.400740000">
        <ele>564.00</ele>
        <time>2013-07-27T09:50:36Z</time>
      </trkpt>
      <trkpt lat="42.364886000" lon="-2.400737000">
        <ele>564.10</ele>
        <time>2013-07-27T09:50:37Z</time>
      </trkpt>
      <trkpt lat="42.364886000" lon="-2.400738000">
        <ele>564.20</ele>
        <time>2013-07-27T09:50:38Z</time>
      </trkpt>
      <trkpt lat="42.364884000" lon="-2.400739000">
        <ele>564.20</ele>
        <time>2013-07-27T09:50:39Z</time>
      </trkpt>
      <trkpt lat="42.364881000" lon="-2.400740000">
        <ele>564.30</ele>
        <time>2013-07-27T09:50:40Z</time>
      </trkpt>
      <trkpt lat="42.364880000" lon="-2.400740000">
        <ele>564.30</ele>
        <time>2013-07-27T09:50:41Z</time>
      </trkpt>
      <trkpt lat="42.364879000" lon="-2.400741000">
        <ele>564.40</ele>
        <time>2013-07-27T09:50:42Z</time>
      </trkpt>
      <trkpt lat="42.364879000" lon="-2.400740000">
        <ele>564.30</ele>
        <time>2013-07-27T09:50:43Z</time>
      </trkpt>
      <trkpt lat="42.364880000" lon="-2.400741000">
        <ele>564.20</ele>
        <time>2013-07-27T09:50:44Z</time>
      </trkpt>
      <trkpt lat="42.364880000" lon="-2.400741000">
        <ele>564.20</ele>
        <time>2013-07-27T09:50:45Z</time>
      </trkpt>
      <trkpt lat="42.364881000" lon="-2.400742000">
        <ele>564.10</ele>
        <time>2013-07-27T09:50:46Z</time>
      </trkpt>
      <trkpt lat="42.364880000" lon="-2.400742000">
        <ele>564.10</ele>
        <time>2013-07-27T09:50:47Z</time>
      </trkpt>
      <trkpt lat="42.364881000" lon="-2.400741000">
        <ele>564.10</ele>
        <time>2013-07-27T09:50:48Z</time>
      </trkpt>
      <trkpt lat="42.364882000" lon="-2.400742000">
        <ele>564.10</ele>
        <time>2013-07-27T09:50:49Z</time>
      </trkpt>
      <trkpt lat="42.364884000" lon="-2.400743000">
        <ele>564.10</ele>
        <time>2013-07-27T09:50:50Z</time>
      </trkpt>
      <trkpt lat="42.364883000" lon="-2.400744000">
        <ele>564.20</ele>
        <time>2013-07-27T09:50:51Z</time>
      </trkpt>
      <trkpt lat="42.364884000" lon="-2.400744000">
        <ele>564.30</ele>
        <time>2013-07-27T09:50:52Z</time>
      </trkpt>
      <trkpt lat="42.364883000" lon="-2.400742000">
        <ele>564.10</ele>
        <time>2013-07-27T09:50:53Z</time>
      </trkpt>
      <trkpt lat="42.364881000" lon="-2.400742000">
        <ele>564.00</ele>
        <time>2013-07-27T09:50:54Z</time>
      </trkpt>
      <trkpt lat="42.364882000" lon="-2.400739000">
        <ele>563.90</ele>
        <time>2013-07-27T09:50:55Z</time>
      </trkpt>
      <trkpt lat="42.364880000" lon="-2.400736000">
        <ele>563.80</ele>
        <time>2013-07-27T09:50:56Z</time>
      </trkpt>
      <trkpt lat="42.364878000" lon="-2.400738000">
        <ele>563.80</ele>
        <time>2013-07-27T09:50:57Z</time>
      </trkpt>
      <trkpt lat="42.364875000" lon="-2.400741000">
        <ele>563.70</ele>
        <time>2013-07-27T09:50:58Z</time>
      </trkpt>
      <trkpt lat="42.364876000" lon="-2.400742000">
        <ele>563.70</ele>
        <time>2013-07-27T09:50:59Z</time>
      </trkpt>
      <trkpt lat="42.364877000" lon="-2.400742000">
        <ele>563.80</ele>
        <time>2013-07-27T09:51:00Z</time>
      </trkpt>
      <trkpt lat="42.364877000" lon="-2.400742000">
        <ele>563.80</ele>
        <time>2013-07-27T09:51:01Z</time>
      </trkpt>
      <trkpt lat="42.364878000" lon="-2.400743000">
        <ele>563.80</ele>
        <time>2013-07-27T09:51:02Z</time>
      </trkpt>
      <trkpt lat="42.364878000" lon="-2.400742000">
        <ele>563.90</ele>
        <time>2013-07-27T09:51:03Z</time>
      </trkpt>
      <trkpt lat="42.364879000" lon="-2.400742000">
        <ele>563.90</ele>
        <time>2013-07-27T09:51:04Z</time>
      </trkpt>
      <trkpt lat="42.364880000" lon="-2.400742000">
        <ele>563.80</ele>
        <time>2013-07-27T09:51:05Z</time>
      </trkpt>
      <trkpt lat="42.364882000" lon="-2.400742000">
        <ele>563.80</ele>
        <time>2013-07-27T09:51:06Z</time>
      </trkpt>
      <trkpt lat="42.364884000" lon="-2.400742000">
        <ele>563.90</ele>
        <time>2013-07-27T09:51:07Z</time>
      </trkpt>
      <trkpt lat="42.364885000" lon="-2.400743000">
        <ele>563.90</ele>
        <time>2013-07-27T09:51:08Z</time>
      </trkpt>
      <trkpt lat="42.364886000" lon="-2.400745000">
        <ele>564.00</ele>
        <time>2013-07-27T09:51:09Z</time>
      </trkpt>
      <trkpt lat="42.364885000" lon="-2.400748000">
        <ele>564.00</ele>
        <time>2013-07-27T09:51:10Z</time>
      </trkpt>
      <trkpt lat="42.364885000" lon="-2.400746000">
        <ele>564.00</ele>
        <time>2013-07-27T09:51:11Z</time>
      </trkpt>
      <trkpt lat="42.364883000" lon="-2.400744000">
        <ele>564.00</ele>
        <time>2013-07-27T09:51:12Z</time>
      </trkpt>
      <trkpt lat="42.364878000" lon="-2.400742000">
        <ele>564.10</ele>
        <time>2013-07-27T09:51:13Z</time>
      </trkpt>
      <trkpt lat="42.364877000" lon="-2.400741000">
        <ele>564.10</ele>
        <time>2013-07-27T09:51:14Z</time>
      </trkpt>
      <trkpt lat="42.364878000" lon="-2.400740000">
        <ele>564.10</ele>
        <time>2013-07-27T09:51:15Z</time>
      </trkpt>
      <trkpt lat="42.364879000" lon="-2.400738000">
        <ele>564.10</ele>
        <time>2013-07-27T09:51:16Z</time>
      </trkpt>
      <trkpt lat="42.364880000" lon="-2.400740000">
        <ele>564.10</ele>
        <time>2013-07-27T09:51:17Z</time>
      </trkpt>
      <trkpt lat="42.364880000" lon="-2.400741000">
        <ele>564.10</ele>
        <time>2013-07-27T09:51:18Z</time>
      </trkpt>
      <trkpt lat="42.364880000" lon="-2.400742000">
        <ele>564.10</ele>
        <time>2013-07-27T09:51:19Z</time>
      </trkpt>
      <trkpt lat="42.364879000" lon="-2.400743000">
        <ele>564.00</ele>
        <time>2013-07-27T09:51:20Z</time>
      </trkpt>
      <trkpt lat="42.364878000" lon="-2.400740000">
        <ele>564.00</ele>
        <time>2013-07-27T09:51:21Z</time>
      </trkpt>
      <trkpt lat="42.364880000" lon="-2.400740000">
        <ele>564.00</ele>
        <time>2013-07-27T09:51:22Z</time>
      </trkpt>
      <trkpt lat="42.364882000" lon="-2.400740000">
        <ele>564.00</ele>
        <time>2013-07-27T09:51:23Z</time>
      </trkpt>
      <trkpt lat="42.364883000" lon="-2.400741000">
        <ele>564.00</ele>
        <time>2013-07-27T09:51:24Z</time>
      </trkpt>
      <trkpt lat="42.364881000" lon="-2.400742000">
        <ele>564.00</ele>
        <time>2013-07-27T09:51:25Z</time>
      </trkpt>
      <trkpt lat="42.364879000" lon="-2.400742000">
        <ele>564.10</ele>
        <time>2013-07-27T09:51:26Z</time>
      </trkpt>
      <trkpt lat="42.364875000" lon="-2.400743000">
        <ele>564.00</ele>
        <time>2013-07-27T09:51:27Z</time>
      </trkpt>
      <trkpt lat="42.364872000" lon="-2.400745000">
        <ele>564.00</ele>
        <time>2013-07-27T09:51:28Z</time>
      </trkpt>
      <trkpt lat="42.364871000" lon="-2.400745000">
        <ele>564.00</ele>
        <time>2013-07-27T09:51:29Z</time>
      </trkpt>
      <trkpt lat="42.364871000" lon="-2.400745000">
        <ele>564.10</ele>
        <time>2013-07-27T09:51:30Z</time>
      </trkpt>
      <trkpt lat="42.364875000" lon="-2.400742000">
        <ele>564.10</ele>
        <time>2013-07-27T09:51:31Z</time>
      </trkpt>
      <trkpt lat="42.364875000" lon="-2.400742000">
        <ele>564.10</ele>
        <time>2013-07-27T09:51:32Z</time>
      </trkpt>
      <trkpt lat="42.364877000" lon="-2.400742000">
        <ele>564.10</ele>
        <time>2013-07-27T09:51:33Z</time>
      </trkpt>
      <trkpt lat="42.364877000" lon="-2.400743000">
        <ele>564.20</ele>
        <time>2013-07-27T09:51:34Z</time>
      </trkpt>
      <trkpt lat="42.364878000" lon="-2.400748000">
        <ele>564.20</ele>
        <time>2013-07-27T09:51:35Z</time>
      </trkpt>
      <trkpt lat="42.364877000" lon="-2.400751000">
        <ele>564.20</ele>
        <time>2013-07-27T09:51:36Z</time>
      </trkpt>
      <trkpt lat="42.364877000" lon="-2.400752000">
        <ele>564.10</ele>
        <time>2013-07-27T09:51:37Z</time>
      </trkpt>
      <trkpt lat="42.364879000" lon="-2.400751000">
        <ele>564.10</ele>
        <time>2013-07-27T09:51:38Z</time>
      </trkpt>
      <trkpt lat="42.364881000" lon="-2.400752000">
        <ele>564.10</ele>
        <time>2013-07-27T09:51:39Z</time>
      </trkpt>
      <trkpt lat="42.364884000" lon="-2.400751000">
        <ele>564.10</ele>
        <time>2013-07-27T09:51:40Z</time>
      </trkpt>
      <trkpt lat="42.364885000" lon="-2.400752000">
        <ele>564.10</ele>
        <time>2013-07-27T09:51:41Z</time>
      </trkpt>
      <trkpt lat="42.364884000" lon="-2.400755000">
        <ele>564.20</ele>
        <time>2013-07-27T09:51:42Z</time>
      </trkpt>
      <trkpt lat="42.364882000" lon="-2.400755000">
        <ele>564.20</ele>
        <time>2013-07-27T09:51:43Z</time>
      </trkpt>
      <trkpt lat="42.364879000" lon="-2.400755000">
        <ele>564.20</ele>
        <time>2013-07-27T09:51:44Z</time>
      </trkpt>
      <trkpt lat="42.364876000" lon="-2.400755000">
        <ele>564.30</ele>
        <time>2013-07-27T09:51:45Z</time>
      </trkpt>
      <trkpt lat="42.364874000" lon="-2.400754000">
        <ele>564.40</ele>
        <time>2013-07-27T09:51:46Z</time>
      </trkpt>
      <trkpt lat="42.364875000" lon="-2.400752000">
        <ele>564.50</ele>
        <time>2013-07-27T09:51:47Z</time>
      </trkpt>
      <trkpt lat="42.364873000" lon="-2.400752000">
        <ele>564.60</ele>
        <time>2013-07-27T09:51:48Z</time>
      </trkpt>
      <trkpt lat="42.364875000" lon="-2.400751000">
        <ele>564.60</ele>
        <time>2013-07-27T09:51:49Z</time>
      </trkpt>
      <trkpt lat="42.364877000" lon="-2.400752000">
        <ele>564.70</ele>
        <time>2013-07-27T09:51:50Z</time>
      </trkpt>
      <trkpt lat="42.364878000" lon="-2.400753000">
        <ele>564.70</ele>
        <time>2013-07-27T09:51:51Z</time>
      </trkpt>
      <trkpt lat="42.364883000" lon="-2.400753000">
        <ele>564.70</ele>
        <time>2013-07-27T09:51:52Z</time>
      </trkpt>
      <trkpt lat="42.364886000" lon="-2.400754000">
        <ele>564.70</ele>
        <time>2013-07-27T09:51:53Z</time>
      </trkpt>
      <trkpt lat="42.364887000" lon="-2.400754000">
        <ele>564.70</ele>
        <time>2013-07-27T09:51:54Z</time>
      </trkpt>
      <trkpt lat="42.364887000" lon="-2.400757000">
        <ele>564.60</ele>
        <time>2013-07-27T09:51:55Z</time>
      </trkpt>
      <trkpt lat="42.364886000" lon="-2.400756000">
        <ele>564.50</ele>
        <time>2013-07-27T09:51:56Z</time>
      </trkpt>
      <trkpt lat="42.364885000" lon="-2.400754000">
        <ele>564.40</ele>
        <time>2013-07-27T09:51:57Z</time>
      </trkpt>
      <trkpt lat="42.364884000" lon="-2.400752000">
        <ele>564.40</ele>
        <time>2013-07-27T09:51:58Z</time>
      </trkpt>
      <trkpt lat="42.364882000" lon="-2.400753000">
        <ele>564.40</ele>
        <time>2013-07-27T09:51:59Z</time>
      </trkpt>
      <trkpt lat="42.364882000" lon="-2.400752000">
        <ele>564.30</ele>
        <time>2013-07-27T09:52:00Z</time>
      </trkpt>
      <trkpt lat="42.364884000" lon="-2.400754000">
        <ele>564.40</ele>
        <time>2013-07-27T09:52:01Z</time>
      </trkpt>
      <trkpt lat="42.364885000" lon="-2.400754000">
        <ele>564.40</ele>
        <time>2013-07-27T09:52:02Z</time>
      </trkpt>
      <trkpt lat="42.364886000" lon="-2.400754000">
        <ele>564.50</ele>
        <time>2013-07-27T09:52:03Z</time>
      </trkpt>
      <trkpt lat="42.364888000" lon="-2.400753000">
        <ele>564.50</ele>
        <time>2013-07-27T09:52:04Z</time>
      </trkpt>
      <trkpt lat="42.364888000" lon="-2.400753000">
        <ele>564.50</ele>
        <time>2013-07-27T09:52:05Z</time>
      </trkpt>
      <trkpt lat="42.364887000" lon="-2.400755000">
        <ele>564.50</ele>
        <time>2013-07-27T09:52:06Z</time>
      </trkpt>
      <trkpt lat="42.364886000" lon="-2.400756000">
        <ele>564.50</ele>
        <time>2013-07-27T09:52:07Z</time>
      </trkpt>
      <trkpt lat="42.364886000" lon="-2.400755000">
        <ele>564.50</ele>
        <time>2013-07-27T09:52:08Z</time>
      </trkpt>
      <trkpt lat="42.364887000" lon="-2.400755000">
        <ele>564.40</ele>
        <time>2013-07-27T09:52:09Z</time>
      </trkpt>
      <trkpt lat="42.364886000" lon="-2.400758000">
        <ele>564.30</ele>
        <time>2013-07-27T09:52:10Z</time>
      </trkpt>
      <trkpt lat="42.364884000" lon="-2.400759000">
        <ele>564.20</ele>
        <time>2013-07-27T09:52:11Z</time>
      </trkpt>
      <trkpt lat="42.364882000" lon="-2.400759000">
        <ele>564.20</ele>
        <time>2013-07-27T09:52:12Z</time>
      </trkpt>
      <trkpt lat="42.364881000" lon="-2.400758000">
        <ele>564.30</ele>
        <time>2013-07-27T09:52:13Z</time>
      </trkpt>
      <trkpt lat="42.364882000" lon="-2.400757000">
        <ele>564.30</ele>
        <time>2013-07-27T09:52:14Z</time>
      </trkpt>
      <trkpt lat="42.364883000" lon="-2.400756000">
        <ele>564.40</ele>
        <time>2013-07-27T09:52:15Z</time>
      </trkpt>
      <trkpt lat="42.364880000" lon="-2.400757000">
        <ele>564.40</ele>
        <time>2013-07-27T09:52:16Z</time>
      </trkpt>
      <trkpt lat="42.364879000" lon="-2.400756000">
        <ele>564.50</ele>
        <time>2013-07-27T09:52:17Z</time>
      </trkpt>
      <trkpt lat="42.364878000" lon="-2.400755000">
        <ele>564.60</ele>
        <time>2013-07-27T09:52:18Z</time>
      </trkpt>
      <trkpt lat="42.364877000" lon="-2.400756000">
        <ele>564.60</ele>
        <time>2013-07-27T09:52:19Z</time>
      </trkpt>
      <trkpt lat="42.364876000" lon="-2.400756000">
        <ele>564.70</ele>
        <time>2013-07-27T09:52:20Z</time>
      </trkpt>
      <trkpt lat="42.364878000" lon="-2.400757000">
        <ele>564.70</ele>
        <time>2013-07-27T09:52:21Z</time>
      </trkpt>
      <trkpt lat="42.364880000" lon="-2.400759000">
        <ele>564.70</ele>
        <time>2013-07-27T09:52:22Z</time>
      </trkpt>
      <trkpt lat="42.364881000" lon="-2.400761000">
        <ele>564.80</ele>
        <time>2013-07-27T09:52:23Z</time>
      </trkpt>
      <trkpt lat="42.364883000" lon="-2.400762000">
        <ele>564.80</ele>
        <time>2013-07-27T09:52:24Z</time>
      </trkpt>
      <trkpt lat="42.364882000" lon="-2.400759000">
        <ele>564.70</ele>
        <time>2013-07-27T09:52:25Z</time>
      </trkpt>
      <trkpt lat="42.364880000" lon="-2.400763000">
        <ele>564.70</ele>
        <time>2013-07-27T09:52:26Z</time>
      </trkpt>
      <trkpt lat="42.364879000" lon="-2.400763000">
        <ele>564.80</ele>
        <time>2013-07-27T09:52:27Z</time>
      </trkpt>
      <trkpt lat="42.364880000" lon="-2.400763000">
        <ele>564.80</ele>
        <time>2013-07-27T09:52:28Z</time>
      </trkpt>
      <trkpt lat="42.364880000" lon="-2.400761000">
        <ele>564.80</ele>
        <time>2013-07-27T09:52:29Z</time>
      </trkpt>
      <trkpt lat="42.364882000" lon="-2.400763000">
        <ele>564.70</ele>
        <time>2013-07-27T09:52:30Z</time>
      </trkpt>
      <trkpt lat="42.364880000" lon="-2.400764000">
        <ele>564.80</ele>
        <time>2013-07-27T09:52:31Z</time>
      </trkpt>
      <trkpt lat="42.364873000" lon="-2.400768000">
        <ele>564.80</ele>
        <time>2013-07-27T09:52:32Z</time>
      </trkpt>
      <trkpt lat="42.364871000" lon="-2.400767000">
        <ele>564.80</ele>
        <time>2013-07-27T09:52:33Z</time>
      </trkpt>
      <trkpt lat="42.364873000" lon="-2.400765000">
        <ele>564.80</ele>
        <time>2013-07-27T09:52:34Z</time>
      </trkpt>
      <trkpt lat="42.364875000" lon="-2.400761000">
        <ele>564.90</ele>
        <time>2013-07-27T09:52:35Z</time>
      </trkpt>
      <trkpt lat="42.364876000" lon="-2.400759000">
        <ele>564.90</ele>
        <time>2013-07-27T09:52:36Z</time>
      </trkpt>
      <trkpt lat="42.364881000" lon="-2.400754000">
        <ele>564.70</ele>
        <time>2013-07-27T09:52:37Z</time>
      </trkpt>
      <trkpt lat="42.364880000" lon="-2.400756000">
        <ele>564.60</ele>
        <time>2013-07-27T09:52:38Z</time>
      </trkpt>
      <trkpt lat="42.364880000" lon="-2.400755000">
        <ele>564.60</ele>
        <time>2013-07-27T09:52:39Z</time>
      </trkpt>
      <trkpt lat="42.364880000" lon="-2.400754000">
        <ele>564.50</ele>
        <time>2013-07-27T09:52:40Z</time>
      </trkpt>
      <trkpt lat="42.364879000" lon="-2.400750000">
        <ele>564.60</ele>
        <time>2013-07-27T09:52:41Z</time>
      </trkpt>
      <trkpt lat="42.364879000" lon="-2.400749000">
        <ele>564.70</ele>
        <time>2013-07-27T09:52:42Z</time>
      </trkpt>
      <trkpt lat="42.364879000" lon="-2.400748000">
        <ele>564.70</ele>
        <time>2013-07-27T09:52:43Z</time>
      </trkpt>
      <trkpt lat="42.364879000" lon="-2.400750000">
        <ele>564.80</ele>
        <time>2013-07-27T09:52:44Z</time>
      </trkpt>
      <trkpt lat="42.364880000" lon="-2.400750000">
        <ele>564.80</ele>
        <time>2013-07-27T09:52:45Z</time>
      </trkpt>
      <trkpt lat="42.364883000" lon="-2.400748000">
        <ele>564.80</ele>
        <time>2013-07-27T09:52:46Z</time>
      </trkpt>
      <trkpt lat="42.364880000" lon="-2.400748000">
        <ele>564.80</ele>
        <time>2013-07-27T09:52:47Z</time>
      </trkpt>
      <trkpt lat="42.364878000" lon="-2.400749000">
        <ele>564.70</ele>
        <time>2013-07-27T09:52:48Z</time>
      </trkpt>
      <trkpt lat="42.364876000" lon="-2.400750000">
        <ele>564.70</ele>
        <time>2013-07-27T09:52:49Z</time>
      </trkpt>
      <trkpt lat="42.364875000" lon="-2.400749000">
        <ele>564.60</ele>
        <time>2013-07-27T09:52:50Z</time>
      </trkpt>
      <trkpt lat="42.364874000" lon="-2.400747000">
        <ele>564.50</ele>
        <time>2013-07-27T09:52:51Z</time>
      </trkpt>
      <trkpt lat="42.364875000" lon="-2.400745000">
        <ele>564.50</ele>
        <time>2013-07-27T09:52:52Z</time>
      </trkpt>
      <trkpt lat="42.364873000" lon="-2.400745000">
        <ele>564.50</ele>
        <time>2013-07-27T09:52:53Z</time>
      </trkpt>
      <trkpt lat="42.364872000" lon="-2.400746000">
        <ele>564.40</ele>
        <time>2013-07-27T09:52:54Z</time>
      </trkpt>
      <trkpt lat="42.364872000" lon="-2.400747000">
        <ele>564.50</ele>
        <time>2013-07-27T09:52:55Z</time>
      </trkpt>
      <trkpt lat="42.364872000" lon="-2.400751000">
        <ele>564.50</ele>
        <time>2013-07-27T09:52:56Z</time>
      </trkpt>
      <trkpt lat="42.364871000" lon="-2.400753000">
        <ele>564.60</ele>
        <time>2013-07-27T09:52:57Z</time>
      </trkpt>
      <trkpt lat="42.364873000" lon="-2.400754000">
        <ele>564.70</ele>
        <time>2013-07-27T09:52:58Z</time>
      </trkpt>
      <trkpt lat="42.364878000" lon="-2.400755000">
        <ele>564.70</ele>
        <time>2013-07-27T09:52:59Z</time>
      </trkpt>
      <trkpt lat="42.364880000" lon="-2.400752000">
        <ele>564.80</ele>
        <time>2013-07-27T09:53:00Z</time>
      </trkpt>
      <trkpt lat="42.364875000" lon="-2.400751000">
        <ele>564.90</ele>
        <time>2013-07-27T09:53:01Z</time>
      </trkpt>
      <trkpt lat="42.364874000" lon="-2.400751000">
        <ele>564.90</ele>
        <time>2013-07-27T09:53:02Z</time>
      </trkpt>
      <trkpt lat="42.364873000" lon="-2.400748000">
        <ele>564.80</ele>
        <time>2013-07-27T09:53:03Z</time>
      </trkpt>
      <trkpt lat="42.364872000" lon="-2.400747000">
        <ele>564.70</ele>
        <time>2013-07-27T09:53:04Z</time>
      </trkpt>
      <trkpt lat="42.364869000" lon="-2.400745000">
        <ele>564.60</ele>
        <time>2013-07-27T09:53:05Z</time>
      </trkpt>
      <trkpt lat="42.364870000" lon="-2.400746000">
        <ele>564.50</ele>
        <time>2013-07-27T09:53:06Z</time>
      </trkpt>
      <trkpt lat="42.364872000" lon="-2.400747000">
        <ele>564.30</ele>
        <time>2013-07-27T09:53:07Z</time>
      </trkpt>
      <trkpt lat="42.364869000" lon="-2.400746000">
        <ele>564.10</ele>
        <time>2013-07-27T09:53:08Z</time>
      </trkpt>
      <trkpt lat="42.364871000" lon="-2.400745000">
        <ele>564.10</ele>
        <time>2013-07-27T09:53:09Z</time>
      </trkpt>
      <trkpt lat="42.364875000" lon="-2.400744000">
        <ele>564.10</ele>
        <time>2013-07-27T09:53:10Z</time>
      </trkpt>
      <trkpt lat="42.364876000" lon="-2.400744000">
        <ele>564.30</ele>
        <time>2013-07-27T09:53:11Z</time>
      </trkpt>
      <trkpt lat="42.364880000" lon="-2.400741000">
        <ele>564.40</ele>
        <time>2013-07-27T09:53:12Z</time>
      </trkpt>
      <trkpt lat="42.364880000" lon="-2.400743000">
        <ele>564.50</ele>
        <time>2013-07-27T09:53:13Z</time>
      </trkpt>
      <trkpt lat="42.364879000" lon="-2.400743000">
        <ele>564.50</ele>
        <time>2013-07-27T09:53:14Z</time>
      </trkpt>
      <trkpt lat="42.364880000" lon="-2.400744000">
        <ele>564.50</ele>
        <time>2013-07-27T09:53:15Z</time>
      </trkpt>
      <trkpt lat="42.364883000" lon="-2.400745000">
        <ele>564.40</ele>
        <time>2013-07-27T09:53:16Z</time>
      </trkpt>
      <trkpt lat="42.364882000" lon="-2.400748000">
        <ele>564.30</ele>
        <time>2013-07-27T09:53:17Z</time>
      </trkpt>
      <trkpt lat="42.364878000" lon="-2.400749000">
        <ele>564.30</ele>
        <time>2013-07-27T09:53:18Z</time>
      </trkpt>
      <trkpt lat="42.364876000" lon="-2.400749000">
        <ele>564.30</ele>
        <time>2013-07-27T09:53:19Z</time>
      </trkpt>
      <trkpt lat="42.364874000" lon="-2.400749000">
        <ele>564.40</ele>
        <time>2013-07-27T09:53:20Z</time>
      </trkpt>
      <trkpt lat="42.364872000" lon="-2.400750000">
        <ele>564.40</ele>
        <time>2013-07-27T09:53:21Z</time>
      </trkpt>
      <trkpt lat="42.364872000" lon="-2.400749000">
        <ele>564.40</ele>
        <time>2013-07-27T09:53:22Z</time>
      </trkpt>
      <trkpt lat="42.364872000" lon="-2.400751000">
        <ele>564.40</ele>
        <time>2013-07-27T09:53:23Z</time>
      </trkpt>
      <trkpt lat="42.364872000" lon="-2.400749000">
        <ele>564.40</ele>
        <time>2013-07-27T09:53:24Z</time>
      </trkpt>
      <trkpt lat="42.364875000" lon="-2.400749000">
        <ele>564.40</ele>
        <time>2013-07-27T09:53:25Z</time>
      </trkpt>
      <trkpt lat="42.364874000" lon="-2.400748000">
        <ele>564.30</ele>
        <time>2013-07-27T09:53:26Z</time>
      </trkpt>
      <trkpt lat="42.364878000" lon="-2.400747000">
        <ele>564.30</ele>
        <time>2013-07-27T09:53:27Z</time>
      </trkpt>
      <trkpt lat="42.364877000" lon="-2.400749000">
        <ele>564.30</ele>
        <time>2013-07-27T09:53:28Z</time>
      </trkpt>
      <trkpt lat="42.364876000" lon="-2.400747000">
        <ele>564.40</ele>
        <time>2013-07-27T09:53:29Z</time>
      </trkpt>
      <trkpt lat="42.364877000" lon="-2.400749000">
        <ele>564.50</ele>
        <time>2013-07-27T09:53:30Z</time>
      </trkpt>
      <trkpt lat="42.364878000" lon="-2.400751000">
        <ele>564.50</ele>
        <time>2013-07-27T09:53:31Z</time>
      </trkpt>
      <trkpt lat="42.364880000" lon="-2.400750000">
        <ele>564.60</ele>
        <time>2013-07-27T09:53:32Z</time>
      </trkpt>
      <trkpt lat="42.364879000" lon="-2.400750000">
        <ele>564.40</ele>
        <time>2013-07-27T09:53:33Z</time>
      </trkpt>
      <trkpt lat="42.364883000" lon="-2.400750000">
        <ele>564.30</ele>
        <time>2013-07-27T09:53:34Z</time>
      </trkpt>
      <trkpt lat="42.364880000" lon="-2.400753000">
        <ele>564.20</ele>
        <time>2013-07-27T09:53:35Z</time>
      </trkpt>
      <trkpt lat="42.364876000" lon="-2.400755000">
        <ele>564.10</ele>
        <time>2013-07-27T09:53:36Z</time>
      </trkpt>
      <trkpt lat="42.364875000" lon="-2.400756000">
        <ele>564.10</ele>
        <time>2013-07-27T09:53:37Z</time>
      </trkpt>
      <trkpt lat="42.364875000" lon="-2.400756000">
        <ele>564.00</ele>
        <time>2013-07-27T09:53:38Z</time>
      </trkpt>
      <trkpt lat="42.364873000" lon="-2.400759000">
        <ele>564.00</ele>
        <time>2013-07-27T09:53:39Z</time>
      </trkpt>
      <trkpt lat="42.364873000" lon="-2.400757000">
        <ele>564.00</ele>
        <time>2013-07-27T09:53:40Z</time>
      </trkpt>
      <trkpt lat="42.364872000" lon="-2.400758000">
        <ele>564.00</ele>
        <time>2013-07-27T09:53:41Z</time>
      </trkpt>
      <trkpt lat="42.364871000" lon="-2.400761000">
        <ele>564.00</ele>
        <time>2013-07-27T09:53:42Z</time>
      </trkpt>
      <trkpt lat="42.364871000" lon="-2.400762000">
        <ele>564.10</ele>
        <time>2013-07-27T09:53:43Z</time>
      </trkpt>
      <trkpt lat="42.364872000" lon="-2.400762000">
        <ele>564.20</ele>
        <time>2013-07-27T09:53:44Z</time>
      </trkpt>
      <trkpt lat="42.364872000" lon="-2.400761000">
        <ele>564.30</ele>
        <time>2013-07-27T09:53:45Z</time>
      </trkpt>
      <trkpt lat="42.364873000" lon="-2.400761000">
        <ele>564.40</ele>
        <time>2013-07-27T09:53:46Z</time>
      </trkpt>
      <trkpt lat="42.364873000" lon="-2.400758000">
        <ele>564.40</ele>
        <time>2013-07-27T09:53:47Z</time>
      </trkpt>
      <trkpt lat="42.364872000" lon="-2.400756000">
        <ele>564.40</ele>
        <time>2013-07-27T09:53:48Z</time>
      </trkpt>
      <trkpt lat="42.364869000" lon="-2.400756000">
        <ele>564.50</ele>
        <time>2013-07-27T09:53:49Z</time>
      </trkpt>
      <trkpt lat="42.364867000" lon="-2.400755000">
        <ele>564.50</ele>
        <time>2013-07-27T09:53:50Z</time>
      </trkpt>
      <trkpt lat="42.364865000" lon="-2.400757000">
        <ele>564.60</ele>
        <time>2013-07-27T09:53:51Z</time>
      </trkpt>
      <trkpt lat="42.364869000" lon="-2.400757000">
        <ele>564.60</ele>
        <time>2013-07-27T09:53:52Z</time>
      </trkpt>
      <trkpt lat="42.364870000" lon="-2.400755000">
        <ele>564.70</ele>
        <time>2013-07-27T09:53:53Z</time>
      </trkpt>
      <trkpt lat="42.364868000" lon="-2.400755000">
        <ele>564.70</ele>
        <time>2013-07-27T09:53:54Z</time>
      </trkpt>
      <trkpt lat="42.364869000" lon="-2.400754000">
        <ele>564.70</ele>
        <time>2013-07-27T09:53:55Z</time>
      </trkpt>
      <trkpt lat="42.364874000" lon="-2.400751000">
        <ele>564.80</ele>
        <time>2013-07-27T09:53:56Z</time>
      </trkpt>
      <trkpt lat="42.364873000" lon="-2.400754000">
        <ele>564.80</ele>
        <time>2013-07-27T09:53:57Z</time>
      </trkpt>
      <trkpt lat="42.364874000" lon="-2.400756000">
        <ele>564.80</ele>
        <time>2013-07-27T09:53:58Z</time>
      </trkpt>
      <trkpt lat="42.364875000" lon="-2.400757000">
        <ele>564.70</ele>
        <time>2013-07-27T09:53:59Z</time>
      </trkpt>
      <trkpt lat="42.364875000" lon="-2.400759000">
        <ele>564.70</ele>
        <time>2013-07-27T09:54:00Z</time>
      </trkpt>
      <trkpt lat="42.364877000" lon="-2.400760000">
        <ele>564.60</ele>
        <time>2013-07-27T09:54:01Z</time>
      </trkpt>
      <trkpt lat="42.364876000" lon="-2.400759000">
        <ele>564.60</ele>
        <time>2013-07-27T09:54:02Z</time>
      </trkpt>
      <trkpt lat="42.364874000" lon="-2.400761000">
        <ele>564.60</ele>
        <time>2013-07-27T09:54:03Z</time>
      </trkpt>
      <trkpt lat="42.364872000" lon="-2.400761000">
        <ele>564.60</ele>
        <time>2013-07-27T09:54:04Z</time>
      </trkpt>
      <trkpt lat="42.364873000" lon="-2.400760000">
        <ele>564.40</ele>
        <time>2013-07-27T09:54:05Z</time>
      </trkpt>
      <trkpt lat="42.364875000" lon="-2.400756000">
        <ele>564.30</ele>
        <time>2013-07-27T09:54:06Z</time>
      </trkpt>
      <trkpt lat="42.364876000" lon="-2.400754000">
        <ele>564.30</ele>
        <time>2013-07-27T09:54:07Z</time>
      </trkpt>
      <trkpt lat="42.364876000" lon="-2.400751000">
        <ele>564.30</ele>
        <time>2013-07-27T09:54:08Z</time>
      </trkpt>
      <trkpt lat="42.364875000" lon="-2.400750000">
        <ele>564.30</ele>
        <time>2013-07-27T09:54:09Z</time>
      </trkpt>
      <trkpt lat="42.364879000" lon="-2.400748000">
        <ele>564.30</ele>
        <time>2013-07-27T09:54:10Z</time>
      </trkpt>
      <trkpt lat="42.364883000" lon="-2.400747000">
        <ele>564.50</ele>
        <time>2013-07-27T09:54:11Z</time>
      </trkpt>
      <trkpt lat="42.364885000" lon="-2.400748000">
        <ele>564.60</ele>
        <time>2013-07-27T09:54:12Z</time>
      </trkpt>
      <trkpt lat="42.364887000" lon="-2.400748000">
        <ele>564.70</ele>
        <time>2013-07-27T09:54:13Z</time>
      </trkpt>
      <trkpt lat="42.364889000" lon="-2.400746000">
        <ele>564.80</ele>
        <time>2013-07-27T09:54:14Z</time>
      </trkpt>
      <trkpt lat="42.364888000" lon="-2.400745000">
        <ele>564.80</ele>
        <time>2013-07-27T09:54:15Z</time>
      </trkpt>
      <trkpt lat="42.364886000" lon="-2.400748000">
        <ele>564.70</ele>
        <time>2013-07-27T09:54:16Z</time>
      </trkpt>
      <trkpt lat="42.364885000" lon="-2.400748000">
        <ele>564.70</ele>
        <time>2013-07-27T09:54:17Z</time>
      </trkpt>
      <trkpt lat="42.364882000" lon="-2.400752000">
        <ele>564.60</ele>
        <time>2013-07-27T09:54:18Z</time>
      </trkpt>
      <trkpt lat="42.364882000" lon="-2.400751000">
        <ele>564.60</ele>
        <time>2013-07-27T09:54:19Z</time>
      </trkpt>
      <trkpt lat="42.364883000" lon="-2.400747000">
        <ele>564.60</ele>
        <time>2013-07-27T09:54:20Z</time>
      </trkpt>
      <trkpt lat="42.364884000" lon="-2.400745000">
        <ele>564.60</ele>
        <time>2013-07-27T09:54:21Z</time>
      </trkpt>
      <trkpt lat="42.364886000" lon="-2.400744000">
        <ele>564.60</ele>
        <time>2013-07-27T09:54:22Z</time>
      </trkpt>
      <trkpt lat="42.364886000" lon="-2.400744000">
        <ele>564.60</ele>
        <time>2013-07-27T09:54:23Z</time>
      </trkpt>
      <trkpt lat="42.364885000" lon="-2.400742000">
        <ele>564.60</ele>
        <time>2013-07-27T09:54:24Z</time>
      </trkpt>
      <trkpt lat="42.364885000" lon="-2.400744000">
        <ele>564.60</ele>
        <time>2013-07-27T09:54:25Z</time>
      </trkpt>
      <trkpt lat="42.364884000" lon="-2.400744000">
        <ele>564.60</ele>
        <time>2013-07-27T09:54:26Z</time>
      </trkpt>
      <trkpt lat="42.364882000" lon="-2.400746000">
        <ele>564.60</ele>
        <time>2013-07-27T09:54:27Z</time>
      </trkpt>
      <trkpt lat="42.364880000" lon="-2.400749000">
        <ele>564.50</ele>
        <time>2013-07-27T09:54:28Z</time>
      </trkpt>
      <trkpt lat="42.364878000" lon="-2.400750000">
        <ele>564.50</ele>
        <time>2013-07-27T09:54:29Z</time>
      </trkpt>
      <trkpt lat="42.364878000" lon="-2.400751000">
        <ele>564.50</ele>
        <time>2013-07-27T09:54:30Z</time>
      </trkpt>
      <trkpt lat="42.364879000" lon="-2.400751000">
        <ele>564.40</ele>
        <time>2013-07-27T09:54:31Z</time>
      </trkpt>
      <trkpt lat="42.364878000" lon="-2.400749000">
        <ele>564.40</ele>
        <time>2013-07-27T09:54:32Z</time>
      </trkpt>
      <trkpt lat="42.364879000" lon="-2.400748000">
        <ele>564.40</ele>
        <time>2013-07-27T09:54:33Z</time>
      </trkpt>
      <trkpt lat="42.364881000" lon="-2.400749000">
        <ele>564.40</ele>
        <time>2013-07-27T09:54:34Z</time>
      </trkpt>
      <trkpt lat="42.364881000" lon="-2.400753000">
        <ele>564.30</ele>
        <time>2013-07-27T09:54:35Z</time>
      </trkpt>
      <trkpt lat="42.364880000" lon="-2.400752000">
        <ele>564.30</ele>
        <time>2013-07-27T09:54:36Z</time>
      </trkpt>
      <trkpt lat="42.364880000" lon="-2.400751000">
        <ele>564.20</ele>
        <time>2013-07-27T09:54:37Z</time>
      </trkpt>
      <trkpt lat="42.364879000" lon="-2.400752000">
        <ele>564.20</ele>
        <time>2013-07-27T09:54:38Z</time>
      </trkpt>
      <trkpt lat="42.364878000" lon="-2.400752000">
        <ele>564.20</ele>
        <time>2013-07-27T09:54:39Z</time>
      </trkpt>
      <trkpt lat="42.364877000" lon="-2.400751000">
        <ele>564.20</ele>
        <time>2013-07-27T09:54:40Z</time>
      </trkpt>
      <trkpt lat="42.364877000" lon="-2.400752000">
        <ele>564.20</ele>
        <time>2013-07-27T09:54:41Z</time>
      </trkpt>
      <trkpt lat="42.364878000" lon="-2.400752000">
        <ele>564.20</ele>
        <time>2013-07-27T09:54:42Z</time>
      </trkpt>
      <trkpt lat="42.364878000" lon="-2.400751000">
        <ele>564.40</ele>
        <time>2013-07-27T09:54:43Z</time>
      </trkpt>
      <trkpt lat="42.364878000" lon="-2.400751000">
        <ele>564.50</ele>
        <time>2013-07-27T09:54:44Z</time>
      </trkpt>
      <trkpt lat="42.364879000" lon="-2.400752000">
        <ele>564.60</ele>
        <time>2013-07-27T09:54:45Z</time>
      </trkpt>
      <trkpt lat="42.364877000" lon="-2.400753000">
        <ele>564.60</ele>
        <time>2013-07-27T09:54:46Z</time>
      </trkpt>
      <trkpt lat="42.364877000" lon="-2.400753000">
        <ele>564.60</ele>
        <time>2013-07-27T09:54:47Z</time>
      </trkpt>
      <trkpt lat="42.364874000" lon="-2.400752000">
        <ele>564.60</ele>
        <time>2013-07-27T09:54:48Z</time>
      </trkpt>
      <trkpt lat="42.364874000" lon="-2.400753000">
        <ele>564.60</ele>
        <time>2013-07-27T09:54:49Z</time>
      </trkpt>
      <trkpt lat="42.364875000" lon="-2.400753000">
        <ele>564.60</ele>
        <time>2013-07-27T09:54:50Z</time>
      </trkpt>
      <trkpt lat="42.364876000" lon="-2.400754000">
        <ele>564.70</ele>
        <time>2013-07-27T09:54:51Z</time>
      </trkpt>
      <trkpt lat="42.364880000" lon="-2.400751000">
        <ele>564.70</ele>
        <time>2013-07-27T09:54:52Z</time>
      </trkpt>
      <trkpt lat="42.364883000" lon="-2.400750000">
        <ele>564.80</ele>
        <time>2013-07-27T09:54:53Z</time>
      </trkpt>
      <trkpt lat="42.364883000" lon="-2.400747000">
        <ele>564.80</ele>
        <time>2013-07-27T09:54:54Z</time>
      </trkpt>
      <trkpt lat="42.364884000" lon="-2.400747000">
        <ele>564.70</ele>
        <time>2013-07-27T09:54:55Z</time>
      </trkpt>
      <trkpt lat="42.364883000" lon="-2.400749000">
        <ele>564.60</ele>
        <time>2013-07-27T09:54:56Z</time>
      </trkpt>
      <trkpt lat="42.364884000" lon="-2.400749000">
        <ele>564.60</ele>
        <time>2013-07-27T09:54:57Z</time>
      </trkpt>
      <trkpt lat="42.364883000" lon="-2.400748000">
        <ele>564.50</ele>
        <time>2013-07-27T09:54:58Z</time>
      </trkpt>
      <trkpt lat="42.364884000" lon="-2.400746000">
        <ele>564.50</ele>
        <time>2013-07-27T09:54:59Z</time>
      </trkpt>
      <trkpt lat="42.364882000" lon="-2.400745000">
        <ele>564.60</ele>
        <time>2013-07-27T09:55:00Z</time>
      </trkpt>
      <trkpt lat="42.364882000" lon="-2.400748000">
        <ele>564.60</ele>
        <time>2013-07-27T09:55:01Z</time>
      </trkpt>
      <trkpt lat="42.364879000" lon="-2.400751000">
        <ele>564.60</ele>
        <time>2013-07-27T09:55:02Z</time>
      </trkpt>
      <trkpt lat="42.364877000" lon="-2.400752000">
        <ele>564.50</ele>
        <time>2013-07-27T09:55:03Z</time>
      </trkpt>
      <trkpt lat="42.364879000" lon="-2.400748000">
        <ele>564.50</ele>
        <time>2013-07-27T09:55:04Z</time>
      </trkpt>
      <trkpt lat="42.364880000" lon="-2.400747000">
        <ele>564.50</ele>
        <time>2013-07-27T09:55:05Z</time>
      </trkpt>
      <trkpt lat="42.364879000" lon="-2.400747000">
        <ele>564.40</ele>
        <time>2013-07-27T09:55:06Z</time>
      </trkpt>
      <trkpt lat="42.364878000" lon="-2.400751000">
        <ele>564.50</ele>
        <time>2013-07-27T09:55:07Z</time>
      </trkpt>
      <trkpt lat="42.364875000" lon="-2.400752000">
        <ele>564.50</ele>
        <time>2013-07-27T09:55:08Z</time>
      </trkpt>
      <trkpt lat="42.364874000" lon="-2.400754000">
        <ele>564.60</ele>
        <time>2013-07-27T09:55:09Z</time>
      </trkpt>
      <trkpt lat="42.364874000" lon="-2.400754000">
        <ele>564.60</ele>
        <time>2013-07-27T09:55:10Z</time>
      </trkpt>
      <trkpt lat="42.364876000" lon="-2.400754000">
        <ele>564.50</ele>
        <time>2013-07-27T09:55:11Z</time>
      </trkpt>
      <trkpt lat="42.364876000" lon="-2.400750000">
        <ele>564.50</ele>
        <time>2013-07-27T09:55:12Z</time>
      </trkpt>
      <trkpt lat="42.364877000" lon="-2.400751000">
        <ele>564.50</ele>
        <time>2013-07-27T09:55:13Z</time>
      </trkpt>
      <trkpt lat="42.364876000" lon="-2.400752000">
        <ele>564.40</ele>
        <time>2013-07-27T09:55:14Z</time>
      </trkpt>
      <trkpt lat="42.364875000" lon="-2.400750000">
        <ele>564.40</ele>
        <time>2013-07-27T09:55:15Z</time>
      </trkpt>
      <trkpt lat="42.364873000" lon="-2.400749000">
        <ele>564.40</ele>
        <time>2013-07-27T09:55:16Z</time>
      </trkpt>
      <trkpt lat="42.364874000" lon="-2.400753000">
        <ele>564.40</ele>
        <time>2013-07-27T09:55:17Z</time>
      </trkpt>
      <trkpt lat="42.364872000" lon="-2.400753000">
        <ele>564.40</ele>
        <time>2013-07-27T09:55:18Z</time>
      </trkpt>
      <trkpt lat="42.364875000" lon="-2.400756000">
        <ele>564.30</ele>
        <time>2013-07-27T09:55:19Z</time>
      </trkpt>
      <trkpt lat="42.364879000" lon="-2.400757000">
        <ele>564.30</ele>
        <time>2013-07-27T09:55:20Z</time>
      </trkpt>
      <trkpt lat="42.364878000" lon="-2.400759000">
        <ele>564.30</ele>
        <time>2013-07-27T09:55:21Z</time>
      </trkpt>
      <trkpt lat="42.364879000" lon="-2.400757000">
        <ele>564.30</ele>
        <time>2013-07-27T09:55:22Z</time>
      </trkpt>
      <trkpt lat="42.364881000" lon="-2.400754000">
        <ele>564.40</ele>
        <time>2013-07-27T09:55:23Z</time>
      </trkpt>
      <trkpt lat="42.364881000" lon="-2.400754000">
        <ele>564.50</ele>
        <time>2013-07-27T09:55:24Z</time>
      </trkpt>
      <trkpt lat="42.364886000" lon="-2.400753000">
        <ele>564.50</ele>
        <time>2013-07-27T09:55:25Z</time>
      </trkpt>
      <trkpt lat="42.364884000" lon="-2.400757000">
        <ele>564.50</ele>
        <time>2013-07-27T09:55:26Z</time>
      </trkpt>
      <trkpt lat="42.364882000" lon="-2.400757000">
        <ele>564.60</ele>
        <time>2013-07-27T09:55:27Z</time>
      </trkpt>
      <trkpt lat="42.364884000" lon="-2.400754000">
        <ele>564.60</ele>
        <time>2013-07-27T09:55:28Z</time>
      </trkpt>
      <trkpt lat="42.364887000" lon="-2.400754000">
        <ele>564.70</ele>
        <time>2013-07-27T09:55:29Z</time>
      </trkpt>
      <trkpt lat="42.364887000" lon="-2.400753000">
        <ele>564.70</ele>
        <time>2013-07-27T09:55:30Z</time>
      </trkpt>
      <trkpt lat="42.364887000" lon="-2.400751000">
        <ele>564.90</ele>
        <time>2013-07-27T09:55:31Z</time>
      </trkpt>
      <trkpt lat="42.364885000" lon="-2.400748000">
        <ele>565.00</ele>
        <time>2013-07-27T09:55:32Z</time>
      </trkpt>
      <trkpt lat="42.364884000" lon="-2.400750000">
        <ele>565.10</ele>
        <time>2013-07-27T09:55:33Z</time>
      </trkpt>
      <trkpt lat="42.364882000" lon="-2.400743000">
        <ele>565.20</ele>
        <time>2013-07-27T09:55:34Z</time>
      </trkpt>
      <trkpt lat="42.364885000" lon="-2.400742000">
        <ele>565.30</ele>
        <time>2013-07-27T09:55:35Z</time>
      </trkpt>
      <trkpt lat="42.364884000" lon="-2.400743000">
        <ele>565.30</ele>
        <time>2013-07-27T09:55:36Z</time>
      </trkpt>
      <trkpt lat="42.364887000" lon="-2.400743000">
        <ele>565.50</ele>
        <time>2013-07-27T09:55:37Z</time>
      </trkpt>
      <trkpt lat="42.364885000" lon="-2.400738000">
        <ele>565.50</ele>
        <time>2013-07-27T09:55:38Z</time>
      </trkpt>
      <trkpt lat="42.364883000" lon="-2.400732000">
        <ele>565.50</ele>
        <time>2013-07-27T09:55:39Z</time>
      </trkpt>
      <trkpt lat="42.364885000" lon="-2.400721000">
        <ele>565.50</ele>
        <time>2013-07-27T09:55:40Z</time>
      </trkpt>
      <trkpt lat="42.364884000" lon="-2.400721000">
        <ele>565.60</ele>
        <time>2013-07-27T09:55:41Z</time>
      </trkpt>
      <trkpt lat="42.364883000" lon="-2.400720000">
        <ele>565.60</ele>
        <time>2013-07-27T09:55:42Z</time>
      </trkpt>
      <trkpt lat="42.364881000" lon="-2.400720000">
        <ele>565.50</ele>
        <time>2013-07-27T09:55:43Z</time>
      </trkpt>
      <trkpt lat="42.364881000" lon="-2.400717000">
        <ele>565.40</ele>
        <time>2013-07-27T09:55:44Z</time>
      </trkpt>
      <trkpt lat="42.364879000" lon="-2.400715000">
        <ele>565.30</ele>
        <time>2013-07-27T09:55:45Z</time>
      </trkpt>
      <trkpt lat="42.364877000" lon="-2.400715000">
        <ele>565.20</ele>
        <time>2013-07-27T09:55:46Z</time>
      </trkpt>
      <trkpt lat="42.364875000" lon="-2.400715000">
        <ele>565.10</ele>
        <time>2013-07-27T09:55:47Z</time>
      </trkpt>
      <trkpt lat="42.364876000" lon="-2.400716000">
        <ele>565.10</ele>
        <time>2013-07-27T09:55:48Z</time>
      </trkpt>
      <trkpt lat="42.364877000" lon="-2.400717000">
        <ele>565.10</ele>
        <time>2013-07-27T09:55:49Z</time>
      </trkpt>
      <trkpt lat="42.364878000" lon="-2.400718000">
        <ele>565.20</ele>
        <time>2013-07-27T09:55:50Z</time>
      </trkpt>
      <trkpt lat="42.364880000" lon="-2.400722000">
        <ele>565.20</ele>
        <time>2013-07-27T09:55:51Z</time>
      </trkpt>
      <trkpt lat="42.364880000" lon="-2.400725000">
        <ele>565.20</ele>
        <time>2013-07-27T09:55:52Z</time>
      </trkpt>
      <trkpt lat="42.364881000" lon="-2.400725000">
        <ele>565.20</ele>
        <time>2013-07-27T09:55:53Z</time>
      </trkpt>
      <trkpt lat="42.364883000" lon="-2.400725000">
        <ele>565.20</ele>
        <time>2013-07-27T09:55:54Z</time>
      </trkpt>
      <trkpt lat="42.364882000" lon="-2.400726000">
        <ele>565.20</ele>
        <time>2013-07-27T09:55:55Z</time>
      </trkpt>
      <trkpt lat="42.364886000" lon="-2.400724000">
        <ele>565.20</ele>
        <time>2013-07-27T09:55:56Z</time>
      </trkpt>
      <trkpt lat="42.364888000" lon="-2.400725000">
        <ele>565.20</ele>
        <time>2013-07-27T09:55:57Z</time>
      </trkpt>
      <trkpt lat="42.364890000" lon="-2.400726000">
        <ele>565.20</ele>
        <time>2013-07-27T09:55:58Z</time>
      </trkpt>
      <trkpt lat="42.364889000" lon="-2.400726000">
        <ele>565.20</ele>
        <time>2013-07-27T09:55:59Z</time>
      </trkpt>
      <trkpt lat="42.364888000" lon="-2.400728000">
        <ele>565.10</ele>
        <time>2013-07-27T09:56:00Z</time>
      </trkpt>
      <trkpt lat="42.364887000" lon="-2.400730000">
        <ele>565.10</ele>
        <time>2013-07-27T09:56:01Z</time>
      </trkpt>
      <trkpt lat="42.364887000" lon="-2.400733000">
        <ele>565.10</ele>
        <time>2013-07-27T09:56:02Z</time>
      </trkpt>
      <trkpt lat="42.364885000" lon="-2.400737000">
        <ele>565.00</ele>
        <time>2013-07-27T09:56:03Z</time>
      </trkpt>
      <trkpt lat="42.364882000" lon="-2.400738000">
        <ele>565.00</ele>
        <time>2013-07-27T09:56:04Z</time>
      </trkpt>
      <trkpt lat="42.364880000" lon="-2.400735000">
        <ele>565.10</ele>
        <time>2013-07-27T09:56:05Z</time>
      </trkpt>
      <trkpt lat="42.364880000" lon="-2.400730000">
        <ele>565.10</ele>
        <time>2013-07-27T09:56:06Z</time>
      </trkpt>
      <trkpt lat="42.364881000" lon="-2.400728000">
        <ele>565.20</ele>
        <time>2013-07-27T09:56:07Z</time>
      </trkpt>
      <trkpt lat="42.364883000" lon="-2.400730000">
        <ele>565.20</ele>
        <time>2013-07-27T09:56:08Z</time>
      </trkpt>
      <trkpt lat="42.364886000" lon="-2.400730000">
        <ele>565.10</ele>
        <time>2013-07-27T09:56:09Z</time>
      </trkpt>
      <trkpt lat="42.364888000" lon="-2.400731000">
        <ele>565.10</ele>
        <time>2013-07-27T09:56:10Z</time>
      </trkpt>
      <trkpt lat="42.364889000" lon="-2.400731000">
        <ele>565.10</ele>
        <time>2013-07-27T09:56:11Z</time>
      </trkpt>
      <trkpt lat="42.364890000" lon="-2.400731000">
        <ele>565.00</ele>
        <time>2013-07-27T09:56:12Z</time>
      </trkpt>
      <trkpt lat="42.364888000" lon="-2.400732000">
        <ele>565.00</ele>
        <time>2013-07-27T09:56:13Z</time>
      </trkpt>
      <trkpt lat="42.364888000" lon="-2.400731000">
        <ele>565.00</ele>
        <time>2013-07-27T09:56:14Z</time>
      </trkpt>
      <trkpt lat="42.364889000" lon="-2.400731000">
        <ele>565.00</ele>
        <time>2013-07-27T09:56:15Z</time>
      </trkpt>
      <trkpt lat="42.364888000" lon="-2.400730000">
        <ele>565.00</ele>
        <time>2013-07-27T09:56:16Z</time>
      </trkpt>
      <trkpt lat="42.364890000" lon="-2.400727000">
        <ele>565.00</ele>
        <time>2013-07-27T09:56:17Z</time>
      </trkpt>
      <trkpt lat="42.364890000" lon="-2.400725000">
        <ele>565.00</ele>
        <time>2013-07-27T09:56:18Z</time>
      </trkpt>
      <trkpt lat="42.364891000" lon="-2.400726000">
        <ele>565.00</ele>
        <time>2013-07-27T09:56:19Z</time>
      </trkpt>
      <trkpt lat="42.364890000" lon="-2.400730000">
        <ele>565.00</ele>
        <time>2013-07-27T09:56:20Z</time>
      </trkpt>
      <trkpt lat="42.364891000" lon="-2.400731000">
        <ele>564.90</ele>
        <time>2013-07-27T09:56:21Z</time>
      </trkpt>
      <trkpt lat="42.364889000" lon="-2.400732000">
        <ele>564.90</ele>
        <time>2013-07-27T09:56:22Z</time>
      </trkpt>
      <trkpt lat="42.364888000" lon="-2.400730000">
        <ele>564.80</ele>
        <time>2013-07-27T09:56:23Z</time>
      </trkpt>
      <trkpt lat="42.364886000" lon="-2.400730000">
        <ele>564.80</ele>
        <time>2013-07-27T09:56:24Z</time>
      </trkpt>
      <trkpt lat="42.364884000" lon="-2.400731000">
        <ele>564.90</ele>
        <time>2013-07-27T09:56:25Z</time>
      </trkpt>
      <trkpt lat="42.364882000" lon="-2.400731000">
        <ele>564.90</ele>
        <time>2013-07-27T09:56:26Z</time>
      </trkpt>
      <trkpt lat="42.364881000" lon="-2.400734000">
        <ele>565.00</ele>
        <time>2013-07-27T09:56:27Z</time>
      </trkpt>
      <trkpt lat="42.364881000" lon="-2.400733000">
        <ele>565.00</ele>
        <time>2013-07-27T09:56:28Z</time>
      </trkpt>
      <trkpt lat="42.364882000" lon="-2.400731000">
        <ele>565.10</ele>
        <time>2013-07-27T09:56:29Z</time>
      </trkpt>
      <trkpt lat="42.364882000" lon="-2.400733000">
        <ele>565.10</ele>
        <time>2013-07-27T09:56:30Z</time>
      </trkpt>
      <trkpt lat="42.364880000" lon="-2.400732000">
        <ele>565.20</ele>
        <time>2013-07-27T09:56:31Z</time>
      </trkpt>
      <trkpt lat="42.364875000" lon="-2.400709000">
        <ele>565.20</ele>
        <time>2013-07-27T09:56:32Z</time>
      </trkpt>
      <trkpt lat="42.364868000" lon="-2.400683000">
        <ele>565.10</ele>
        <time>2013-07-27T09:56:33Z</time>
      </trkpt>
      <trkpt lat="42.364860000" lon="-2.400652000">
        <ele>565.10</ele>
        <time>2013-07-27T09:56:34Z</time>
      </trkpt>
      <trkpt lat="42.364847000" lon="-2.400614000">
        <ele>565.10</ele>
        <time>2013-07-27T09:56:35Z</time>
      </trkpt>
      <trkpt lat="42.364831000" lon="-2.400574000">
        <ele>565.00</ele>
        <time>2013-07-27T09:56:36Z</time>
      </trkpt>
      <trkpt lat="42.364817000" lon="-2.400526000">
        <ele>565.00</ele>
        <time>2013-07-27T09:56:37Z</time>
      </trkpt>
      <trkpt lat="42.364800000" lon="-2.400472000">
        <ele>565.00</ele>
        <time>2013-07-27T09:56:38Z</time>
      </trkpt>
      <trkpt lat="42.364785000" lon="-2.400413000">
        <ele>565.00</ele>
        <time>2013-07-27T09:56:39Z</time>
      </trkpt>
      <trkpt lat="42.364769000" lon="-2.400352000">
        <ele>565.00</ele>
        <time>2013-07-27T09:56:40Z</time>
      </trkpt>
      <trkpt lat="42.364752000" lon="-2.400282000">
        <ele>565.10</ele>
        <time>2013-07-27T09:56:41Z</time>
      </trkpt>
      <trkpt lat="42.364739000" lon="-2.400205000">
        <ele>565.10</ele>
        <time>2013-07-27T09:56:42Z</time>
      </trkpt>
      <trkpt lat="42.364727000" lon="-2.400119000">
        <ele>564.20</ele>
        <time>2013-07-27T09:56:43Z</time>
      </trkpt>
      <trkpt lat="42.364713000" lon="-2.400030000">
        <ele>563.60</ele>
        <time>2013-07-27T09:56:44Z</time>
      </trkpt>
      <trkpt lat="42.364700000" lon="-2.399940000">
        <ele>563.10</ele>
        <time>2013-07-27T09:56:45Z</time>
      </trkpt>
      <trkpt lat="42.364683000" lon="-2.399849000">
        <ele>562.70</ele>
        <time>2013-07-27T09:56:46Z</time>
      </trkpt>
      <trkpt lat="42.364666000" lon="-2.399751000">
        <ele>562.40</ele>
        <time>2013-07-27T09:56:47Z</time>
      </trkpt>
      <trkpt lat="42.364651000" lon="-2.399655000">
        <ele>562.20</ele>
        <time>2013-07-27T09:56:48Z</time>
      </trkpt>
      <trkpt lat="42.364639000" lon="-2.399566000">
        <ele>562.00</ele>
        <time>2013-07-27T09:56:49Z</time>
      </trkpt>
      <trkpt lat="42.364627000" lon="-2.399478000">
        <ele>561.80</ele>
        <time>2013-07-27T09:56:50Z</time>
      </trkpt>
      <trkpt lat="42.364612000" lon="-2.399392000">
        <ele>561.70</ele>
        <time>2013-07-27T09:56:51Z</time>
      </trkpt>
      <trkpt lat="42.364602000" lon="-2.399306000">
        <ele>561.70</ele>
        <time>2013-07-27T09:56:52Z</time>
      </trkpt>
      <trkpt lat="42.364599000" lon="-2.399219000">
        <ele>561.10</ele>
        <time>2013-07-27T09:56:53Z</time>
      </trkpt>
      <trkpt lat="42.364601000" lon="-2.399134000">
        <ele>560.70</ele>
        <time>2013-07-27T09:56:54Z</time>
      </trkpt>
      <trkpt lat="42.364601000" lon="-2.399046000">
        <ele>560.60</ele>
        <time>2013-07-27T09:56:55Z</time>
      </trkpt>
      <trkpt lat="42.364605000" lon="-2.398962000">
        <ele>560.50</ele>
        <time>2013-07-27T09:56:56Z</time>
      </trkpt>
      <trkpt lat="42.364609000" lon="-2.398879000">
        <ele>560.40</ele>
        <time>2013-07-27T09:56:57Z</time>
      </trkpt>
      <trkpt lat="42.364613000" lon="-2.398795000">
        <ele>560.40</ele>
        <time>2013-07-27T09:56:58Z</time>
      </trkpt>
      <trkpt lat="42.364616000" lon="-2.398707000">
        <ele>560.30</ele>
        <time>2013-07-27T09:56:59Z</time>
      </trkpt>
      <trkpt lat="42.364619000" lon="-2.398616000">
        <ele>560.30</ele>
        <time>2013-07-27T09:57:00Z</time>
      </trkpt>
      <trkpt lat="42.364622000" lon="-2.398521000">
        <ele>559.50</ele>
        <time>2013-07-27T09:57:01Z</time>
      </trkpt>
      <trkpt lat="42.364621000" lon="-2.398424000">
        <ele>558.90</ele>
        <time>2013-07-27T09:57:02Z</time>
      </trkpt>
      <trkpt lat="42.364621000" lon="-2.398325000">
        <ele>557.30</ele>
        <time>2013-07-27T09:57:03Z</time>
      </trkpt>
      <trkpt lat="42.364621000" lon="-2.398234000">
        <ele>556.00</ele>
        <time>2013-07-27T09:57:04Z</time>
      </trkpt>
      <trkpt lat="42.364619000" lon="-2.398139000">
        <ele>554.90</ele>
        <time>2013-07-27T09:57:05Z</time>
      </trkpt>
      <trkpt lat="42.364614000" lon="-2.398045000">
        <ele>554.10</ele>
        <time>2013-07-27T09:57:06Z</time>
      </trkpt>
      <trkpt lat="42.364612000" lon="-2.397944000">
        <ele>553.40</ele>
        <time>2013-07-27T09:57:07Z</time>
      </trkpt>
      <trkpt lat="42.364613000" lon="-2.397846000">
        <ele>553.00</ele>
        <time>2013-07-27T09:57:08Z</time>
      </trkpt>
      <trkpt lat="42.364624000" lon="-2.397751000">
        <ele>551.50</ele>
        <time>2013-07-27T09:57:09Z</time>
      </trkpt>
      <trkpt lat="42.364641000" lon="-2.397661000">
        <ele>550.40</ele>
        <time>2013-07-27T09:57:10Z</time>
      </trkpt>
      <trkpt lat="42.364660000" lon="-2.397565000">
        <ele>550.30</ele>
        <time>2013-07-27T09:57:11Z</time>
      </trkpt>
      <trkpt lat="42.364682000" lon="-2.397469000">
        <ele>550.20</ele>
        <time>2013-07-27T09:57:12Z</time>
      </trkpt>
      <trkpt lat="42.364704000" lon="-2.397369000">
        <ele>549.00</ele>
        <time>2013-07-27T09:57:13Z</time>
      </trkpt>
      <trkpt lat="42.364727000" lon="-2.397267000">
        <ele>548.00</ele>
        <time>2013-07-27T09:57:14Z</time>
      </trkpt>
      <trkpt lat="42.364748000" lon="-2.397161000">
        <ele>548.10</ele>
        <time>2013-07-27T09:57:15Z</time>
      </trkpt>
      <trkpt lat="42.364766000" lon="-2.397050000">
        <ele>548.10</ele>
        <time>2013-07-27T09:57:16Z</time>
      </trkpt>
      <trkpt lat="42.364782000" lon="-2.396938000">
        <ele>547.20</ele>
        <time>2013-07-27T09:57:17Z</time>
      </trkpt>
      <trkpt lat="42.364795000" lon="-2.396824000">
        <ele>546.60</ele>
        <time>2013-07-27T09:57:18Z</time>
      </trkpt>
      <trkpt lat="42.364804000" lon="-2.396707000">
        <ele>546.30</ele>
        <time>2013-07-27T09:57:19Z</time>
      </trkpt>
      <trkpt lat="42.364808000" lon="-2.396593000">
        <ele>546.10</ele>
        <time>2013-07-27T09:57:20Z</time>
      </trkpt>
      <trkpt lat="42.364807000" lon="-2.396476000">
        <ele>545.60</ele>
        <time>2013-07-27T09:57:21Z</time>
      </trkpt>
      <trkpt lat="42.364802000" lon="-2.396362000">
        <ele>545.30</ele>
        <time>2013-07-27T09:57:22Z</time>
      </trkpt>
      <trkpt lat="42.364791000" lon="-2.396247000">
        <ele>544.20</ele>
        <time>2013-07-27T09:57:23Z</time>
      </trkpt>
      <trkpt lat="42.364769000" lon="-2.396137000">
        <ele>543.40</ele>
        <time>2013-07-27T09:57:24Z</time>
      </trkpt>
      <trkpt lat="42.364744000" lon="-2.396032000">
        <ele>542.60</ele>
        <time>2013-07-27T09:57:25Z</time>
      </trkpt>
      <trkpt lat="42.364721000" lon="-2.395925000">
        <ele>542.00</ele>
        <time>2013-07-27T09:57:26Z</time>
      </trkpt>
      <trkpt lat="42.364700000" lon="-2.395815000">
        <ele>541.60</ele>
        <time>2013-07-27T09:57:27Z</time>
      </trkpt>
      <trkpt lat="42.364678000" lon="-2.395706000">
        <ele>541.20</ele>
        <time>2013-07-27T09:57:28Z</time>
      </trkpt>
      <trkpt lat="42.364657000" lon="-2.395597000">
        <ele>541.00</ele>
        <time>2013-07-27T09:57:29Z</time>
      </trkpt>
      <trkpt lat="42.364638000" lon="-2.395488000">
        <ele>540.80</ele>
        <time>2013-07-27T09:57:30Z</time>
      </trkpt>
      <trkpt lat="42.364617000" lon="-2.395371000">
        <ele>540.50</ele>
        <time>2013-07-27T09:57:31Z</time>
      </trkpt>
      <trkpt lat="42.364593000" lon="-2.395258000">
        <ele>540.30</ele>
        <time>2013-07-27T09:57:32Z</time>
      </trkpt>
      <trkpt lat="42.364572000" lon="-2.395146000">
        <ele>538.80</ele>
        <time>2013-07-27T09:57:33Z</time>
      </trkpt>
      <trkpt lat="42.364549000" lon="-2.395032000">
        <ele>537.70</ele>
        <time>2013-07-27T09:57:34Z</time>
      </trkpt>
      <trkpt lat="42.364531000" lon="-2.394916000">
        <ele>537.00</ele>
        <time>2013-07-27T09:57:35Z</time>
      </trkpt>
      <trkpt lat="42.364515000" lon="-2.394800000">
        <ele>536.50</ele>
        <time>2013-07-27T09:57:36Z</time>
      </trkpt>
      <trkpt lat="42.364496000" lon="-2.394686000">
        <ele>535.90</ele>
        <time>2013-07-27T09:57:37Z</time>
      </trkpt>
      <trkpt lat="42.364475000" lon="-2.394575000">
        <ele>535.40</ele>
        <time>2013-07-27T09:57:38Z</time>
      </trkpt>
      <trkpt lat="42.364451000" lon="-2.394465000">
        <ele>535.10</ele>
        <time>2013-07-27T09:57:39Z</time>
      </trkpt>
      <trkpt lat="42.364426000" lon="-2.394356000">
        <ele>534.80</ele>
        <time>2013-07-27T09:57:40Z</time>
      </trkpt>
      <trkpt lat="42.364399000" lon="-2.394248000">
        <ele>534.60</ele>
        <time>2013-07-27T09:57:41Z</time>
      </trkpt>
      <trkpt lat="42.364368000" lon="-2.394142000">
        <ele>534.50</ele>
        <time>2013-07-27T09:57:42Z</time>
      </trkpt>
      <trkpt lat="42.364340000" lon="-2.394037000">
        <ele>534.30</ele>
        <time>2013-07-27T09:57:43Z</time>
      </trkpt>
      <trkpt lat="42.364309000" lon="-2.393932000">
        <ele>534.20</ele>
        <time>2013-07-27T09:57:44Z</time>
      </trkpt>
      <trkpt lat="42.364277000" lon="-2.393828000">
        <ele>534.10</ele>
        <time>2013-07-27T09:57:45Z</time>
      </trkpt>
      <trkpt lat="42.364243000" lon="-2.393725000">
        <ele>534.10</ele>
        <time>2013-07-27T09:57:46Z</time>
      </trkpt>
      <trkpt lat="42.364207000" lon="-2.393623000">
        <ele>533.70</ele>
        <time>2013-07-27T09:57:47Z</time>
      </trkpt>
      <trkpt lat="42.364169000" lon="-2.393527000">
        <ele>533.40</ele>
        <time>2013-07-27T09:57:48Z</time>
      </trkpt>
      <trkpt lat="42.364131000" lon="-2.393432000">
        <ele>533.60</ele>
        <time>2013-07-27T09:57:49Z</time>
      </trkpt>
      <trkpt lat="42.364091000" lon="-2.393337000">
        <ele>533.70</ele>
        <time>2013-07-27T09:57:50Z</time>
      </trkpt>
      <trkpt lat="42.364051000" lon="-2.393240000">
        <ele>533.40</ele>
        <time>2013-07-27T09:57:51Z</time>
      </trkpt>
      <trkpt lat="42.364012000" lon="-2.393141000">
        <ele>533.20</ele>
        <time>2013-07-27T09:57:52Z</time>
      </trkpt>
      <trkpt lat="42.363974000" lon="-2.393043000">
        <ele>532.50</ele>
        <time>2013-07-27T09:57:53Z</time>
      </trkpt>
      <trkpt lat="42.363934000" lon="-2.392946000">
        <ele>532.10</ele>
        <time>2013-07-27T09:57:54Z</time>
      </trkpt>
      <trkpt lat="42.363893000" lon="-2.392853000">
        <ele>531.40</ele>
        <time>2013-07-27T09:57:55Z</time>
      </trkpt>
      <trkpt lat="42.363852000" lon="-2.392763000">
        <ele>531.00</ele>
        <time>2013-07-27T09:57:56Z</time>
      </trkpt>
      <trkpt lat="42.363804000" lon="-2.392681000">
        <ele>530.10</ele>
        <time>2013-07-27T09:57:57Z</time>
      </trkpt>
      <trkpt lat="42.363756000" lon="-2.392601000">
        <ele>529.40</ele>
        <time>2013-07-27T09:57:58Z</time>
      </trkpt>
      <trkpt lat="42.363713000" lon="-2.392519000">
        <ele>528.90</ele>
        <time>2013-07-27T09:57:59Z</time>
      </trkpt>
      <trkpt lat="42.363677000" lon="-2.392430000">
        <ele>528.50</ele>
        <time>2013-07-27T09:58:00Z</time>
      </trkpt>
      <trkpt lat="42.363649000" lon="-2.392334000">
        <ele>528.60</ele>
        <time>2013-07-27T09:58:01Z</time>
      </trkpt>
      <trkpt lat="42.363628000" lon="-2.392233000">
        <ele>528.60</ele>
        <time>2013-07-27T09:58:02Z</time>
      </trkpt>
      <trkpt lat="42.363613000" lon="-2.392129000">
        <ele>528.70</ele>
        <time>2013-07-27T09:58:03Z</time>
      </trkpt>
      <trkpt lat="42.363600000" lon="-2.392024000">
        <ele>528.70</ele>
        <time>2013-07-27T09:58:04Z</time>
      </trkpt>
      <trkpt lat="42.363588000" lon="-2.391917000">
        <ele>527.90</ele>
        <time>2013-07-27T09:58:05Z</time>
      </trkpt>
      <trkpt lat="42.363579000" lon="-2.391812000">
        <ele>527.30</ele>
        <time>2013-07-27T09:58:06Z</time>
      </trkpt>
      <trkpt lat="42.363576000" lon="-2.391704000">
        <ele>526.90</ele>
        <time>2013-07-27T09:58:07Z</time>
      </trkpt>
      <trkpt lat="42.363572000" lon="-2.391596000">
        <ele>526.60</ele>
        <time>2013-07-27T09:58:08Z</time>
      </trkpt>
      <trkpt lat="42.363560000" lon="-2.391493000">
        <ele>525.80</ele>
        <time>2013-07-27T09:58:09Z</time>
      </trkpt>
      <trkpt lat="42.363541000" lon="-2.391394000">
        <ele>525.30</ele>
        <time>2013-07-27T09:58:10Z</time>
      </trkpt>
      <trkpt lat="42.363515000" lon="-2.391299000">
        <ele>524.90</ele>
        <time>2013-07-27T09:58:11Z</time>
      </trkpt>
      <trkpt lat="42.363481000" lon="-2.391214000">
        <ele>524.60</ele>
        <time>2013-07-27T09:58:12Z</time>
      </trkpt>
      <trkpt lat="42.363438000" lon="-2.391145000">
        <ele>524.30</ele>
        <time>2013-07-27T09:58:13Z</time>
      </trkpt>
      <trkpt lat="42.363398000" lon="-2.391082000">
        <ele>524.20</ele>
        <time>2013-07-27T09:58:14Z</time>
      </trkpt>
      <trkpt lat="42.363359000" lon="-2.391014000">
        <ele>524.40</ele>
        <time>2013-07-27T09:58:15Z</time>
      </trkpt>
      <trkpt lat="42.363334000" lon="-2.390936000">
        <ele>524.60</ele>
        <time>2013-07-27T09:58:16Z</time>
      </trkpt>
      <trkpt lat="42.363320000" lon="-2.390844000">
        <ele>524.80</ele>
        <time>2013-07-27T09:58:17Z</time>
      </trkpt>
      <trkpt lat="42.363311000" lon="-2.390745000">
        <ele>524.90</ele>
        <time>2013-07-27T09:58:18Z</time>
      </trkpt>
      <trkpt lat="42.363306000" lon="-2.390650000">
        <ele>524.80</ele>
        <time>2013-07-27T09:58:19Z</time>
      </trkpt>
      <trkpt lat="42.363292000" lon="-2.390558000">
        <ele>524.80</ele>
        <time>2013-07-27T09:58:20Z</time>
      </trkpt>
      <trkpt lat="42.363265000" lon="-2.390474000">
        <ele>524.40</ele>
        <time>2013-07-27T09:58:21Z</time>
      </trkpt>
      <trkpt lat="42.363224000" lon="-2.390403000">
        <ele>524.20</ele>
        <time>2013-07-27T09:58:22Z</time>
      </trkpt>
      <trkpt lat="42.363175000" lon="-2.390338000">
        <ele>523.40</ele>
        <time>2013-07-27T09:58:23Z</time>
      </trkpt>
      <trkpt lat="42.363121000" lon="-2.390283000">
        <ele>522.90</ele>
        <time>2013-07-27T09:58:24Z</time>
      </trkpt>
      <trkpt lat="42.363068000" lon="-2.390231000">
        <ele>522.30</ele>
        <time>2013-07-27T09:58:25Z</time>
      </trkpt>
      <trkpt lat="42.363021000" lon="-2.390173000">
        <ele>521.90</ele>
        <time>2013-07-27T09:58:26Z</time>
      </trkpt>
      <trkpt lat="42.362975000" lon="-2.390110000">
        <ele>521.50</ele>
        <time>2013-07-27T09:58:27Z</time>
      </trkpt>
      <trkpt lat="42.362931000" lon="-2.390048000">
        <ele>521.20</ele>
        <time>2013-07-27T09:58:28Z</time>
      </trkpt>
      <trkpt lat="42.362885000" lon="-2.389991000">
        <ele>521.00</ele>
        <time>2013-07-27T09:58:29Z</time>
      </trkpt>
      <trkpt lat="42.362837000" lon="-2.389935000">
        <ele>520.70</ele>
        <time>2013-07-27T09:58:30Z</time>
      </trkpt>
      <trkpt lat="42.362790000" lon="-2.389883000">
        <ele>519.80</ele>
        <time>2013-07-27T09:58:31Z</time>
      </trkpt>
      <trkpt lat="42.362743000" lon="-2.389831000">
        <ele>519.20</ele>
        <time>2013-07-27T09:58:32Z</time>
      </trkpt>
      <trkpt lat="42.362697000" lon="-2.389782000">
        <ele>518.70</ele>
        <time>2013-07-27T09:58:33Z</time>
      </trkpt>
      <trkpt lat="42.362653000" lon="-2.389737000">
        <ele>518.30</ele>
        <time>2013-07-27T09:58:34Z</time>
      </trkpt>
      <trkpt lat="42.362610000" lon="-2.389690000">
        <ele>518.50</ele>
        <time>2013-07-27T09:58:35Z</time>
      </trkpt>
      <trkpt lat="42.362569000" lon="-2.389642000">
        <ele>518.60</ele>
        <time>2013-07-27T09:58:36Z</time>
      </trkpt>
      <trkpt lat="42.362527000" lon="-2.389597000">
        <ele>518.70</ele>
        <time>2013-07-27T09:58:37Z</time>
      </trkpt>
      <trkpt lat="42.362487000" lon="-2.389550000">
        <ele>518.80</ele>
        <time>2013-07-27T09:58:38Z</time>
      </trkpt>
      <trkpt lat="42.362447000" lon="-2.389505000">
        <ele>518.60</ele>
        <time>2013-07-27T09:58:39Z</time>
      </trkpt>
      <trkpt lat="42.362406000" lon="-2.389460000">
        <ele>518.50</ele>
        <time>2013-07-27T09:58:40Z</time>
      </trkpt>
      <trkpt lat="42.362366000" lon="-2.389420000">
        <ele>518.40</ele>
        <time>2013-07-27T09:58:41Z</time>
      </trkpt>
      <trkpt lat="42.362329000" lon="-2.389380000">
        <ele>518.40</ele>
        <time>2013-07-27T09:58:42Z</time>
      </trkpt>
      <trkpt lat="42.362291000" lon="-2.389345000">
        <ele>518.40</ele>
        <time>2013-07-27T09:58:43Z</time>
      </trkpt>
      <trkpt lat="42.362255000" lon="-2.389313000">
        <ele>518.40</ele>
        <time>2013-07-27T09:58:44Z</time>
      </trkpt>
      <trkpt lat="42.362221000" lon="-2.389283000">
        <ele>518.40</ele>
        <time>2013-07-27T09:58:45Z</time>
      </trkpt>
      <trkpt lat="42.362189000" lon="-2.389259000">
        <ele>518.40</ele>
        <time>2013-07-27T09:58:46Z</time>
      </trkpt>
      <trkpt lat="42.362153000" lon="-2.389238000">
        <ele>518.30</ele>
        <time>2013-07-27T09:58:47Z</time>
      </trkpt>
      <trkpt lat="42.362116000" lon="-2.389220000">
        <ele>518.20</ele>
        <time>2013-07-27T09:58:48Z</time>
      </trkpt>
      <trkpt lat="42.362082000" lon="-2.389200000">
        <ele>518.10</ele>
        <time>2013-07-27T09:58:49Z</time>
      </trkpt>
      <trkpt lat="42.362045000" lon="-2.389181000">
        <ele>518.00</ele>
        <time>2013-07-27T09:58:50Z</time>
      </trkpt>
      <trkpt lat="42.362005000" lon="-2.389164000">
        <ele>517.90</ele>
        <time>2013-07-27T09:58:51Z</time>
      </trkpt>
      <trkpt lat="42.361965000" lon="-2.389147000">
        <ele>517.80</ele>
        <time>2013-07-27T09:58:52Z</time>
      </trkpt>
      <trkpt lat="42.361923000" lon="-2.389133000">
        <ele>517.70</ele>
        <time>2013-07-27T09:58:53Z</time>
      </trkpt>
      <trkpt lat="42.361877000" lon="-2.389121000">
        <ele>517.60</ele>
        <time>2013-07-27T09:58:54Z</time>
      </trkpt>
      <trkpt lat="42.361827000" lon="-2.389110000">
        <ele>517.50</ele>
        <time>2013-07-27T09:58:55Z</time>
      </trkpt>
      <trkpt lat="42.361776000" lon="-2.389101000">
        <ele>517.50</ele>
        <time>2013-07-27T09:58:56Z</time>
      </trkpt>
      <trkpt lat="42.361721000" lon="-2.389085000">
        <ele>517.40</ele>
        <time>2013-07-27T09:58:57Z</time>
      </trkpt>
      <trkpt lat="42.361670000" lon="-2.389060000">
        <ele>517.40</ele>
        <time>2013-07-27T09:58:58Z</time>
      </trkpt>
      <trkpt lat="42.361621000" lon="-2.389036000">
        <ele>517.50</ele>
        <time>2013-07-27T09:58:59Z</time>
      </trkpt>
      <trkpt lat="42.361578000" lon="-2.389004000">
        <ele>517.60</ele>
        <time>2013-07-27T09:59:00Z</time>
      </trkpt>
      <trkpt lat="42.361531000" lon="-2.388972000">
        <ele>517.60</ele>
        <time>2013-07-27T09:59:01Z</time>
      </trkpt>
      <trkpt lat="42.361484000" lon="-2.388941000">
        <ele>517.60</ele>
        <time>2013-07-27T09:59:02Z</time>
      </trkpt>
      <trkpt lat="42.361437000" lon="-2.388911000">
        <ele>517.00</ele>
        <time>2013-07-27T09:59:03Z</time>
      </trkpt>
      <trkpt lat="42.361394000" lon="-2.388885000">
        <ele>516.60</ele>
        <time>2013-07-27T09:59:04Z</time>
      </trkpt>
      <trkpt lat="42.361354000" lon="-2.388866000">
        <ele>516.00</ele>
        <time>2013-07-27T09:59:05Z</time>
      </trkpt>
      <trkpt lat="42.361321000" lon="-2.388848000">
        <ele>515.50</ele>
        <time>2013-07-27T09:59:06Z</time>
      </trkpt>
      <trkpt lat="42.361294000" lon="-2.388834000">
        <ele>515.20</ele>
        <time>2013-07-27T09:59:07Z</time>
      </trkpt>
      <trkpt lat="42.361271000" lon="-2.388831000">
        <ele>514.90</ele>
        <time>2013-07-27T09:59:08Z</time>
      </trkpt>
      <trkpt lat="42.361254000" lon="-2.388826000">
        <ele>514.70</ele>
        <time>2013-07-27T09:59:09Z</time>
      </trkpt>
      <trkpt lat="42.361238000" lon="-2.388823000">
        <ele>514.60</ele>
        <time>2013-07-27T09:59:10Z</time>
      </trkpt>
      <trkpt lat="42.361234000" lon="-2.388820000">
        <ele>514.40</ele>
        <time>2013-07-27T09:59:11Z</time>
      </trkpt>
      <trkpt lat="42.361232000" lon="-2.388811000">
        <ele>514.20</ele>
        <time>2013-07-27T09:59:12Z</time>
      </trkpt>
      <trkpt lat="42.361234000" lon="-2.388806000">
        <ele>514.10</ele>
        <time>2013-07-27T09:59:13Z</time>
      </trkpt>
      <trkpt lat="42.361234000" lon="-2.388809000">
        <ele>514.00</ele>
        <time>2013-07-27T09:59:14Z</time>
      </trkpt>
      <trkpt lat="42.361234000" lon="-2.388811000">
        <ele>513.80</ele>
        <time>2013-07-27T09:59:15Z</time>
      </trkpt>
      <trkpt lat="42.361234000" lon="-2.388811000">
        <ele>513.60</ele>
        <time>2013-07-27T09:59:16Z</time>
      </trkpt>
      <trkpt lat="42.361234000" lon="-2.388811000">
        <ele>513.40</ele>
        <time>2013-07-27T09:59:17Z</time>
      </trkpt>
      <trkpt lat="42.361233000" lon="-2.388809000">
        <ele>513.30</ele>
        <time>2013-07-27T09:59:18Z</time>
      </trkpt>
      <trkpt lat="42.361232000" lon="-2.388805000">
        <ele>513.40</ele>
        <time>2013-07-27T09:59:19Z</time>
      </trkpt>
      <trkpt lat="42.361231000" lon="-2.388804000">
        <ele>513.40</ele>
        <time>2013-07-27T09:59:20Z</time>
      </trkpt>
      <trkpt lat="42.361231000" lon="-2.388803000">
        <ele>513.40</ele>
        <time>2013-07-27T09:59:21Z</time>
      </trkpt>
      <trkpt lat="42.361231000" lon="-2.388801000">
        <ele>513.50</ele>
        <time>2013-07-27T09:59:22Z</time>
      </trkpt>
      <trkpt lat="42.361231000" lon="-2.388801000">
        <ele>513.30</ele>
        <time>2013-07-27T09:59:23Z</time>
      </trkpt>
      <trkpt lat="42.361232000" lon="-2.388800000">
        <ele>513.10</ele>
        <time>2013-07-27T09:59:24Z</time>
      </trkpt>
      <trkpt lat="42.361232000" lon="-2.388801000">
        <ele>513.00</ele>
        <time>2013-07-27T09:59:25Z</time>
      </trkpt>
      <trkpt lat="42.361233000" lon="-2.388801000">
        <ele>513.00</ele>
        <time>2013-07-27T09:59:26Z</time>
      </trkpt>
      <trkpt lat="42.361234000" lon="-2.388801000">
        <ele>512.90</ele>
        <time>2013-07-27T09:59:27Z</time>
      </trkpt>
      <trkpt lat="42.361234000" lon="-2.388800000">
        <ele>512.90</ele>
        <time>2013-07-27T09:59:28Z</time>
      </trkpt>
      <trkpt lat="42.361234000" lon="-2.388799000">
        <ele>512.80</ele>
        <time>2013-07-27T09:59:29Z</time>
      </trkpt>
      <trkpt lat="42.361235000" lon="-2.388799000">
        <ele>512.80</ele>
        <time>2013-07-27T09:59:30Z</time>
      </trkpt>
      <trkpt lat="42.361235000" lon="-2.388799000">
        <ele>512.80</ele>
        <time>2013-07-27T09:59:31Z</time>
      </trkpt>
      <trkpt lat="42.361236000" lon="-2.388799000">
        <ele>512.80</ele>
        <time>2013-07-27T09:59:32Z</time>
      </trkpt>
      <trkpt lat="42.361237000" lon="-2.388799000">
        <ele>512.60</ele>
        <time>2013-07-27T09:59:33Z</time>
      </trkpt>
      <trkpt lat="42.361237000" lon="-2.388799000">
        <ele>512.50</ele>
        <time>2013-07-27T09:59:34Z</time>
      </trkpt>
      <trkpt lat="42.361237000" lon="-2.388798000">
        <ele>512.60</ele>
        <time>2013-07-27T09:59:35Z</time>
      </trkpt>
      <trkpt lat="42.361237000" lon="-2.388798000">
        <ele>512.60</ele>
        <time>2013-07-27T09:59:36Z</time>
      </trkpt>
      <trkpt lat="42.361238000" lon="-2.388797000">
        <ele>512.50</ele>
        <time>2013-07-27T09:59:37Z</time>
      </trkpt>
      <trkpt lat="42.361238000" lon="-2.388796000">
        <ele>512.40</ele>
        <time>2013-07-27T09:59:38Z</time>
      </trkpt>
      <trkpt lat="42.361238000" lon="-2.388796000">
        <ele>512.40</ele>
        <time>2013-07-27T09:59:39Z</time>
      </trkpt>
      <trkpt lat="42.361239000" lon="-2.388796000">
        <ele>512.30</ele>
        <time>2013-07-27T09:59:40Z</time>
      </trkpt>
      <trkpt lat="42.361239000" lon="-2.388795000">
        <ele>512.30</ele>
        <time>2013-07-27T09:59:41Z</time>
      </trkpt>
      <trkpt lat="42.361239000" lon="-2.388796000">
        <ele>512.30</ele>
        <time>2013-07-27T09:59:42Z</time>
      </trkpt>
      <trkpt lat="42.361239000" lon="-2.388796000">
        <ele>512.30</ele>
        <time>2013-07-27T09:59:43Z</time>
      </trkpt>
      <trkpt lat="42.361239000" lon="-2.388796000">
        <ele>512.30</ele>
        <time>2013-07-27T09:59:44Z</time>
      </trkpt>
      <trkpt lat="42.361239000" lon="-2.388795000">
        <ele>512.30</ele>
        <time>2013-07-27T09:59:45Z</time>
      </trkpt>
      <trkpt lat="42.361237000" lon="-2.388799000">
        <ele>512.30</ele>
        <time>2013-07-27T09:59:46Z</time>
      </trkpt>
      <trkpt lat="42.361232000" lon="-2.388806000">
        <ele>512.50</ele>
        <time>2013-07-27T09:59:47Z</time>
      </trkpt>
      <trkpt lat="42.361227000" lon="-2.388810000">
        <ele>512.60</ele>
        <time>2013-07-27T09:59:48Z</time>
      </trkpt>
      <trkpt lat="42.361222000" lon="-2.388812000">
        <ele>512.70</ele>
        <time>2013-07-27T09:59:49Z</time>
      </trkpt>
      <trkpt lat="42.361220000" lon="-2.388813000">
        <ele>512.80</ele>
        <time>2013-07-27T09:59:50Z</time>
      </trkpt>
      <trkpt lat="42.361223000" lon="-2.388820000">
        <ele>512.80</ele>
        <time>2013-07-27T09:59:51Z</time>
      </trkpt>
      <trkpt lat="42.361224000" lon="-2.388821000">
        <ele>512.90</ele>
        <time>2013-07-27T09:59:52Z</time>
      </trkpt>
      <trkpt lat="42.361221000" lon="-2.388821000">
        <ele>513.00</ele>
        <time>2013-07-27T09:59:53Z</time>
      </trkpt>
      <trkpt lat="42.361218000" lon="-2.388822000">
        <ele>513.20</ele>
        <time>2013-07-27T09:59:54Z</time>
      </trkpt>
      <trkpt lat="42.361211000" lon="-2.388824000">
        <ele>513.10</ele>
        <time>2013-07-27T09:59:55Z</time>
      </trkpt>
      <trkpt lat="42.361204000" lon="-2.388829000">
        <ele>513.00</ele>
        <time>2013-07-27T09:59:56Z</time>
      </trkpt>
      <trkpt lat="42.361191000" lon="-2.388835000">
        <ele>513.20</ele>
        <time>2013-07-27T09:59:57Z</time>
      </trkpt>
      <trkpt lat="42.361177000" lon="-2.388836000">
        <ele>513.30</ele>
        <time>2013-07-27T09:59:58Z</time>
      </trkpt>
      <trkpt lat="42.361164000" lon="-2.388833000">
        <ele>513.20</ele>
        <time>2013-07-27T09:59:59Z</time>
      </trkpt>
      <trkpt lat="42.361151000" lon="-2.388836000">
        <ele>513.10</ele>
        <time>2013-07-27T10:00:00Z</time>
      </trkpt>
      <trkpt lat="42.361142000" lon="-2.388834000">
        <ele>513.20</ele>
        <time>2013-07-27T10:00:01Z</time>
      </trkpt>
      <trkpt lat="42.361133000" lon="-2.388829000">
        <ele>513.30</ele>
        <time>2013-07-27T10:00:02Z</time>
      </trkpt>
      <trkpt lat="42.361125000" lon="-2.388824000">
        <ele>513.30</ele>
        <time>2013-07-27T10:00:03Z</time>
      </trkpt>
      <trkpt lat="42.361121000" lon="-2.388819000">
        <ele>513.20</ele>
        <time>2013-07-27T10:00:04Z</time>
      </trkpt>
      <trkpt lat="42.361121000" lon="-2.388820000">
        <ele>513.20</ele>
        <time>2013-07-27T10:00:05Z</time>
      </trkpt>
      <trkpt lat="42.361124000" lon="-2.388821000">
        <ele>513.30</ele>
        <time>2013-07-27T10:00:06Z</time>
      </trkpt>
      <trkpt lat="42.361125000" lon="-2.388818000">
        <ele>513.30</ele>
        <time>2013-07-27T10:00:07Z</time>
      </trkpt>
      <trkpt lat="42.361126000" lon="-2.388814000">
        <ele>513.30</ele>
        <time>2013-07-27T10:00:08Z</time>
      </trkpt>
      <trkpt lat="42.361129000" lon="-2.388814000">
        <ele>513.30</ele>
        <time>2013-07-27T10:00:09Z</time>
      </trkpt>
      <trkpt lat="42.361130000" lon="-2.388813000">
        <ele>513.30</ele>
        <time>2013-07-27T10:00:10Z</time>
      </trkpt>
      <trkpt lat="42.361133000" lon="-2.388816000">
        <ele>513.30</ele>
        <time>2013-07-27T10:00:11Z</time>
      </trkpt>
      <trkpt lat="42.361135000" lon="-2.388819000">
        <ele>513.30</ele>
        <time>2013-07-27T10:00:12Z</time>
      </trkpt>
      <trkpt lat="42.361138000" lon="-2.388818000">
        <ele>513.30</ele>
        <time>2013-07-27T10:00:13Z</time>
      </trkpt>
      <trkpt lat="42.361140000" lon="-2.388817000">
        <ele>513.30</ele>
        <time>2013-07-27T10:00:14Z</time>
      </trkpt>
      <trkpt lat="42.361140000" lon="-2.388815000">
        <ele>513.50</ele>
        <time>2013-07-27T10:00:15Z</time>
      </trkpt>
      <trkpt lat="42.361141000" lon="-2.388816000">
        <ele>513.70</ele>
        <time>2013-07-27T10:00:16Z</time>
      </trkpt>
      <trkpt lat="42.361139000" lon="-2.388816000">
        <ele>513.80</ele>
        <time>2013-07-27T10:00:17Z</time>
      </trkpt>
      <trkpt lat="42.361136000" lon="-2.388816000">
        <ele>513.90</ele>
        <time>2013-07-27T10:00:18Z</time>
      </trkpt>
      <trkpt lat="42.361135000" lon="-2.388816000">
        <ele>513.90</ele>
        <time>2013-07-27T10:00:19Z</time>
      </trkpt>
      <trkpt lat="42.361135000" lon="-2.388815000">
        <ele>513.90</ele>
        <time>2013-07-27T10:00:20Z</time>
      </trkpt>
      <trkpt lat="42.361133000" lon="-2.388815000">
        <ele>513.80</ele>
        <time>2013-07-27T10:00:21Z</time>
      </trkpt>
      <trkpt lat="42.361133000" lon="-2.388813000">
        <ele>513.80</ele>
        <time>2013-07-27T10:00:22Z</time>
      </trkpt>
      <trkpt lat="42.361133000" lon="-2.388813000">
        <ele>513.70</ele>
        <time>2013-07-27T10:00:23Z</time>
      </trkpt>
      <trkpt lat="42.361129000" lon="-2.388816000">
        <ele>513.70</ele>
        <time>2013-07-27T10:00:24Z</time>
      </trkpt>
      <trkpt lat="42.361132000" lon="-2.388825000">
        <ele>513.60</ele>
        <time>2013-07-27T10:00:25Z</time>
      </trkpt>
      <trkpt lat="42.361137000" lon="-2.388835000">
        <ele>513.50</ele>
        <time>2013-07-27T10:00:26Z</time>
      </trkpt>
      <trkpt lat="42.361140000" lon="-2.388843000">
        <ele>513.60</ele>
        <time>2013-07-27T10:00:27Z</time>
      </trkpt>
      <trkpt lat="42.361143000" lon="-2.388848000">
        <ele>513.60</ele>
        <time>2013-07-27T10:00:28Z</time>
      </trkpt>
      <trkpt lat="42.361145000" lon="-2.388847000">
        <ele>513.60</ele>
        <time>2013-07-27T10:00:29Z</time>
      </trkpt>
      <trkpt lat="42.361146000" lon="-2.388850000">
        <ele>513.60</ele>
        <time>2013-07-27T10:00:30Z</time>
      </trkpt>
      <trkpt lat="42.361146000" lon="-2.388848000">
        <ele>513.60</ele>
        <time>2013-07-27T10:00:31Z</time>
      </trkpt>
      <trkpt lat="42.361148000" lon="-2.388839000">
        <ele>513.60</ele>
        <time>2013-07-27T10:00:32Z</time>
      </trkpt>
      <trkpt lat="42.361154000" lon="-2.388834000">
        <ele>513.40</ele>
        <time>2013-07-27T10:00:33Z</time>
      </trkpt>
      <trkpt lat="42.361164000" lon="-2.388838000">
        <ele>513.30</ele>
        <time>2013-07-27T10:00:34Z</time>
      </trkpt>
      <trkpt lat="42.361177000" lon="-2.388846000">
        <ele>513.20</ele>
        <time>2013-07-27T10:00:35Z</time>
      </trkpt>
      <trkpt lat="42.361188000" lon="-2.388848000">
        <ele>513.10</ele>
        <time>2013-07-27T10:00:36Z</time>
      </trkpt>
      <trkpt lat="42.361198000" lon="-2.388850000">
        <ele>513.00</ele>
        <time>2013-07-27T10:00:37Z</time>
      </trkpt>
      <trkpt lat="42.361206000" lon="-2.388847000">
        <ele>513.00</ele>
        <time>2013-07-27T10:00:38Z</time>
      </trkpt>
      <trkpt lat="42.361213000" lon="-2.388845000">
        <ele>513.10</ele>
        <time>2013-07-27T10:00:39Z</time>
      </trkpt>
      <trkpt lat="42.361211000" lon="-2.388847000">
        <ele>513.10</ele>
        <time>2013-07-27T10:00:40Z</time>
      </trkpt>
      <trkpt lat="42.361211000" lon="-2.388845000">
        <ele>513.20</ele>
        <time>2013-07-27T10:00:41Z</time>
      </trkpt>
      <trkpt lat="42.361210000" lon="-2.388843000">
        <ele>513.20</ele>
        <time>2013-07-27T10:00:42Z</time>
      </trkpt>
      <trkpt lat="42.361210000" lon="-2.388843000">
        <ele>513.30</ele>
        <time>2013-07-27T10:00:43Z</time>
      </trkpt>
      <trkpt lat="42.361212000" lon="-2.388842000">
        <ele>513.30</ele>
        <time>2013-07-27T10:00:44Z</time>
      </trkpt>
      <trkpt lat="42.361213000" lon="-2.388841000">
        <ele>513.20</ele>
        <time>2013-07-27T10:00:45Z</time>
      </trkpt>
      <trkpt lat="42.361215000" lon="-2.388840000">
        <ele>513.10</ele>
        <time>2013-07-27T10:00:46Z</time>
      </trkpt>
      <trkpt lat="42.361218000" lon="-2.388839000">
        <ele>513.10</ele>
        <time>2013-07-27T10:00:47Z</time>
      </trkpt>
      <trkpt lat="42.361220000" lon="-2.388838000">
        <ele>513.00</ele>
        <time>2013-07-27T10:00:48Z</time>
      </trkpt>
      <trkpt lat="42.361222000" lon="-2.388837000">
        <ele>512.90</ele>
        <time>2013-07-27T10:00:49Z</time>
      </trkpt>
      <trkpt lat="42.361222000" lon="-2.388836000">
        <ele>512.70</ele>
        <time>2013-07-27T10:00:50Z</time>
      </trkpt>
      <trkpt lat="42.361223000" lon="-2.388835000">
        <ele>512.70</ele>
        <time>2013-07-27T10:00:51Z</time>
      </trkpt>
      <trkpt lat="42.361225000" lon="-2.388835000">
        <ele>512.70</ele>
        <time>2013-07-27T10:00:52Z</time>
      </trkpt>
      <trkpt lat="42.361226000" lon="-2.388835000">
        <ele>512.70</ele>
        <time>2013-07-27T10:00:53Z</time>
      </trkpt>
      <trkpt lat="42.361228000" lon="-2.388834000">
        <ele>512.70</ele>
        <time>2013-07-27T10:00:54Z</time>
      </trkpt>
      <trkpt lat="42.361228000" lon="-2.388833000">
        <ele>512.80</ele>
        <time>2013-07-27T10:00:55Z</time>
      </trkpt>
      <trkpt lat="42.361228000" lon="-2.388832000">
        <ele>512.90</ele>
        <time>2013-07-27T10:00:56Z</time>
      </trkpt>
      <trkpt lat="42.361229000" lon="-2.388831000">
        <ele>512.90</ele>
        <time>2013-07-27T10:00:57Z</time>
      </trkpt>
      <trkpt lat="42.361230000" lon="-2.388831000">
        <ele>513.00</ele>
        <time>2013-07-27T10:00:58Z</time>
      </trkpt>
      <trkpt lat="42.361230000" lon="-2.388830000">
        <ele>512.90</ele>
        <time>2013-07-27T10:00:59Z</time>
      </trkpt>
      <trkpt lat="42.361230000" lon="-2.388829000">
        <ele>512.90</ele>
        <time>2013-07-27T10:01:00Z</time>
      </trkpt>
      <trkpt lat="42.361230000" lon="-2.388828000">
        <ele>512.80</ele>
        <time>2013-07-27T10:01:01Z</time>
      </trkpt>
      <trkpt lat="42.361230000" lon="-2.388827000">
        <ele>512.80</ele>
        <time>2013-07-27T10:01:02Z</time>
      </trkpt>
      <trkpt lat="42.361231000" lon="-2.388826000">
        <ele>512.70</ele>
        <time>2013-07-27T10:01:03Z</time>
      </trkpt>
      <trkpt lat="42.361232000" lon="-2.388825000">
        <ele>512.60</ele>
        <time>2013-07-27T10:01:04Z</time>
      </trkpt>
      <trkpt lat="42.361232000" lon="-2.388825000">
        <ele>512.50</ele>
        <time>2013-07-27T10:01:05Z</time>
      </trkpt>
      <trkpt lat="42.361232000" lon="-2.388824000">
        <ele>512.40</ele>
        <time>2013-07-27T10:01:06Z</time>
      </trkpt>
      <trkpt lat="42.361232000" lon="-2.388824000">
        <ele>512.40</ele>
        <time>2013-07-27T10:01:07Z</time>
      </trkpt>
      <trkpt lat="42.361233000" lon="-2.388824000">
        <ele>512.40</ele>
        <time>2013-07-27T10:01:08Z</time>
      </trkpt>
      <trkpt lat="42.361233000" lon="-2.388823000">
        <ele>512.40</ele>
        <time>2013-07-27T10:01:09Z</time>
      </trkpt>
      <trkpt lat="42.361233000" lon="-2.388823000">
        <ele>512.50</ele>
        <time>2013-07-27T10:01:10Z</time>
      </trkpt>
      <trkpt lat="42.361234000" lon="-2.388822000">
        <ele>512.60</ele>
        <time>2013-07-27T10:01:11Z</time>
      </trkpt>
      <trkpt lat="42.361234000" lon="-2.388821000">
        <ele>512.60</ele>
        <time>2013-07-27T10:01:12Z</time>
      </trkpt>
      <trkpt lat="42.361234000" lon="-2.388821000">
        <ele>512.60</ele>
        <time>2013-07-27T10:01:13Z</time>
      </trkpt>
      <trkpt lat="42.361233000" lon="-2.388820000">
        <ele>512.60</ele>
        <time>2013-07-27T10:01:14Z</time>
      </trkpt>
      <trkpt lat="42.361233000" lon="-2.388820000">
        <ele>512.70</ele>
        <time>2013-07-27T10:01:15Z</time>
      </trkpt>
      <trkpt lat="42.361232000" lon="-2.388820000">
        <ele>512.70</ele>
        <time>2013-07-27T10:01:16Z</time>
      </trkpt>
      <trkpt lat="42.361232000" lon="-2.388820000">
        <ele>512.80</ele>
        <time>2013-07-27T10:01:17Z</time>
      </trkpt>
      <trkpt lat="42.361231000" lon="-2.388819000">
        <ele>512.90</ele>
        <time>2013-07-27T10:01:18Z</time>
      </trkpt>
      <trkpt lat="42.361231000" lon="-2.388819000">
        <ele>512.90</ele>
        <time>2013-07-27T10:01:19Z</time>
      </trkpt>
      <trkpt lat="42.361230000" lon="-2.388819000">
        <ele>513.00</ele>
        <time>2013-07-27T10:01:20Z</time>
      </trkpt>
      <trkpt lat="42.361230000" lon="-2.388819000">
        <ele>513.00</ele>
        <time>2013-07-27T10:01:21Z</time>
      </trkpt>
      <trkpt lat="42.361230000" lon="-2.388819000">
        <ele>513.00</ele>
        <time>2013-07-27T10:01:22Z</time>
      </trkpt>
      <trkpt lat="42.361229000" lon="-2.388818000">
        <ele>512.90</ele>
        <time>2013-07-27T10:01:23Z</time>
      </trkpt>
      <trkpt lat="42.361228000" lon="-2.388818000">
        <ele>512.80</ele>
        <time>2013-07-27T10:01:24Z</time>
      </trkpt>
      <trkpt lat="42.361227000" lon="-2.388817000">
        <ele>512.80</ele>
        <time>2013-07-27T10:01:25Z</time>
      </trkpt>
      <trkpt lat="42.361227000" lon="-2.388816000">
        <ele>512.70</ele>
        <time>2013-07-27T10:01:26Z</time>
      </trkpt>
      <trkpt lat="42.361227000" lon="-2.388815000">
        <ele>512.70</ele>
        <time>2013-07-27T10:01:27Z</time>
      </trkpt>
      <trkpt lat="42.361227000" lon="-2.388814000">
        <ele>512.60</ele>
        <time>2013-07-27T10:01:28Z</time>
      </trkpt>
      <trkpt lat="42.361227000" lon="-2.388813000">
        <ele>512.70</ele>
        <time>2013-07-27T10:01:29Z</time>
      </trkpt>
      <trkpt lat="42.361227000" lon="-2.388812000">
        <ele>512.70</ele>
        <time>2013-07-27T10:01:30Z</time>
      </trkpt>
      <trkpt lat="42.361227000" lon="-2.388812000">
        <ele>512.70</ele>
        <time>2013-07-27T10:01:31Z</time>
      </trkpt>
      <trkpt lat="42.361227000" lon="-2.388812000">
        <ele>512.80</ele>
        <time>2013-07-27T10:01:32Z</time>
      </trkpt>
      <trkpt lat="42.361227000" lon="-2.388812000">
        <ele>512.80</ele>
        <time>2013-07-27T10:01:33Z</time>
      </trkpt>
      <trkpt lat="42.361227000" lon="-2.388813000">
        <ele>512.80</ele>
        <time>2013-07-27T10:01:34Z</time>
      </trkpt>
      <trkpt lat="42.361227000" lon="-2.388813000">
        <ele>512.80</ele>
        <time>2013-07-27T10:01:35Z</time>
      </trkpt>
      <trkpt lat="42.361227000" lon="-2.388813000">
        <ele>512.80</ele>
        <time>2013-07-27T10:01:36Z</time>
      </trkpt>
      <trkpt lat="42.361227000" lon="-2.388813000">
        <ele>512.70</ele>
        <time>2013-07-27T10:01:37Z</time>
      </trkpt>
      <trkpt lat="42.361228000" lon="-2.388813000">
        <ele>512.70</ele>
        <time>2013-07-27T10:01:38Z</time>
      </trkpt>
      <trkpt lat="42.361228000" lon="-2.388813000">
        <ele>512.60</ele>
        <time>2013-07-27T10:01:39Z</time>
      </trkpt>
      <trkpt lat="42.361228000" lon="-2.388813000">
        <ele>512.50</ele>
        <time>2013-07-27T10:01:40Z</time>
      </trkpt>
      <trkpt lat="42.361228000" lon="-2.388813000">
        <ele>512.30</ele>
        <time>2013-07-27T10:01:41Z</time>
      </trkpt>
      <trkpt lat="42.361229000" lon="-2.388813000">
        <ele>512.20</ele>
        <time>2013-07-27T10:01:42Z</time>
      </trkpt>
      <trkpt lat="42.361229000" lon="-2.388813000">
        <ele>512.10</ele>
        <time>2013-07-27T10:01:43Z</time>
      </trkpt>
      <trkpt lat="42.361229000" lon="-2.388813000">
        <ele>512.00</ele>
        <time>2013-07-27T10:01:44Z</time>
      </trkpt>
      <trkpt lat="42.361229000" lon="-2.388813000">
        <ele>511.90</ele>
        <time>2013-07-27T10:01:45Z</time>
      </trkpt>
      <trkpt lat="42.361230000" lon="-2.388813000">
        <ele>511.90</ele>
        <time>2013-07-27T10:01:46Z</time>
      </trkpt>
      <trkpt lat="42.361230000" lon="-2.388813000">
        <ele>511.90</ele>
        <time>2013-07-27T10:01:47Z</time>
      </trkpt>
      <trkpt lat="42.361231000" lon="-2.388814000">
        <ele>512.00</ele>
        <time>2013-07-27T10:01:48Z</time>
      </trkpt>
      <trkpt lat="42.361231000" lon="-2.388813000">
        <ele>512.10</ele>
        <time>2013-07-27T10:01:49Z</time>
      </trkpt>
      <trkpt lat="42.361231000" lon="-2.388813000">
        <ele>512.20</ele>
        <time>2013-07-27T10:01:50Z</time>
      </trkpt>
      <trkpt lat="42.361232000" lon="-2.388813000">
        <ele>512.30</ele>
        <time>2013-07-27T10:01:51Z</time>
      </trkpt>
      <trkpt lat="42.361233000" lon="-2.388813000">
        <ele>512.40</ele>
        <time>2013-07-27T10:01:52Z</time>
      </trkpt>
      <trkpt lat="42.361233000" lon="-2.388812000">
        <ele>512.40</ele>
        <time>2013-07-27T10:01:53Z</time>
      </trkpt>
      <trkpt lat="42.361234000" lon="-2.388812000">
        <ele>512.50</ele>
        <time>2013-07-27T10:01:54Z</time>
      </trkpt>
      <trkpt lat="42.361234000" lon="-2.388812000">
        <ele>512.50</ele>
        <time>2013-07-27T10:01:55Z</time>
      </trkpt>
      <trkpt lat="42.361234000" lon="-2.388811000">
        <ele>512.50</ele>
        <time>2013-07-27T10:01:56Z</time>
      </trkpt>
      <trkpt lat="42.361235000" lon="-2.388811000">
        <ele>512.50</ele>
        <time>2013-07-27T10:01:57Z</time>
      </trkpt>
      <trkpt lat="42.361235000" lon="-2.388810000">
        <ele>512.50</ele>
        <time>2013-07-27T10:01:58Z</time>
      </trkpt>
      <trkpt lat="42.361236000" lon="-2.388810000">
        <ele>512.40</ele>
        <time>2013-07-27T10:01:59Z</time>
      </trkpt>
      <trkpt lat="42.361237000" lon="-2.388809000">
        <ele>512.30</ele>
        <time>2013-07-27T10:02:00Z</time>
      </trkpt>
      <trkpt lat="42.361237000" lon="-2.388808000">
        <ele>512.10</ele>
        <time>2013-07-27T10:02:01Z</time>
      </trkpt>
      <trkpt lat="42.361238000" lon="-2.388808000">
        <ele>512.00</ele>
        <time>2013-07-27T10:02:02Z</time>
      </trkpt>
      <trkpt lat="42.361238000" lon="-2.388808000">
        <ele>511.80</ele>
        <time>2013-07-27T10:02:03Z</time>
      </trkpt>
      <trkpt lat="42.361238000" lon="-2.388808000">
        <ele>511.80</ele>
        <time>2013-07-27T10:02:04Z</time>
      </trkpt>
      <trkpt lat="42.361238000" lon="-2.388808000">
        <ele>512.00</ele>
        <time>2013-07-27T10:02:05Z</time>
      </trkpt>
      <trkpt lat="42.361238000" lon="-2.388809000">
        <ele>512.10</ele>
        <time>2013-07-27T10:02:06Z</time>
      </trkpt>
      <trkpt lat="42.361238000" lon="-2.388809000">
        <ele>512.20</ele>
        <time>2013-07-27T10:02:07Z</time>
      </trkpt>
      <trkpt lat="42.361238000" lon="-2.388809000">
        <ele>512.30</ele>
        <time>2013-07-27T10:02:08Z</time>
      </trkpt>
      <trkpt lat="42.361238000" lon="-2.388809000">
        <ele>512.40</ele>
        <time>2013-07-27T10:02:09Z</time>
      </trkpt>
      <trkpt lat="42.361238000" lon="-2.388810000">
        <ele>512.40</ele>
        <time>2013-07-27T10:02:10Z</time>
      </trkpt>
      <trkpt lat="42.361238000" lon="-2.388810000">
        <ele>512.30</ele>
        <time>2013-07-27T10:02:11Z</time>
      </trkpt>
      <trkpt lat="42.361238000" lon="-2.388810000">
        <ele>512.30</ele>
        <time>2013-07-27T10:02:12Z</time>
      </trkpt>
      <trkpt lat="42.361238000" lon="-2.388811000">
        <ele>512.20</ele>
        <time>2013-07-27T10:02:13Z</time>
      </trkpt>
      <trkpt lat="42.361238000" lon="-2.388811000">
        <ele>512.20</ele>
        <time>2013-07-27T10:02:14Z</time>
      </trkpt>
      <trkpt lat="42.361238000" lon="-2.388811000">
        <ele>512.10</ele>
        <time>2013-07-27T10:02:15Z</time>
      </trkpt>
      <trkpt lat="42.361237000" lon="-2.388811000">
        <ele>512.10</ele>
        <time>2013-07-27T10:02:16Z</time>
      </trkpt>
      <trkpt lat="42.361237000" lon="-2.388812000">
        <ele>512.20</ele>
        <time>2013-07-27T10:02:17Z</time>
      </trkpt>
      <trkpt lat="42.361237000" lon="-2.388811000">
        <ele>512.20</ele>
        <time>2013-07-27T10:02:18Z</time>
      </trkpt>
      <trkpt lat="42.361236000" lon="-2.388812000">
        <ele>512.10</ele>
        <time>2013-07-27T10:02:19Z</time>
      </trkpt>
      <trkpt lat="42.361237000" lon="-2.388811000">
        <ele>512.10</ele>
        <time>2013-07-27T10:02:20Z</time>
      </trkpt>
      <trkpt lat="42.361236000" lon="-2.388811000">
        <ele>512.10</ele>
        <time>2013-07-27T10:02:21Z</time>
      </trkpt>
      <trkpt lat="42.361236000" lon="-2.388812000">
        <ele>512.10</ele>
        <time>2013-07-27T10:02:22Z</time>
      </trkpt>
      <trkpt lat="42.361235000" lon="-2.388812000">
        <ele>512.10</ele>
        <time>2013-07-27T10:02:23Z</time>
      </trkpt>
      <trkpt lat="42.361235000" lon="-2.388814000">
        <ele>512.10</ele>
        <time>2013-07-27T10:02:24Z</time>
      </trkpt>
      <trkpt lat="42.361234000" lon="-2.388814000">
        <ele>512.10</ele>
        <time>2013-07-27T10:02:25Z</time>
      </trkpt>
      <trkpt lat="42.361234000" lon="-2.388815000">
        <ele>512.00</ele>
        <time>2013-07-27T10:02:26Z</time>
      </trkpt>
      <trkpt lat="42.361233000" lon="-2.388816000">
        <ele>512.10</ele>
        <time>2013-07-27T10:02:27Z</time>
      </trkpt>
      <trkpt lat="42.361233000" lon="-2.388817000">
        <ele>512.20</ele>
        <time>2013-07-27T10:02:28Z</time>
      </trkpt>
      <trkpt lat="42.361232000" lon="-2.388818000">
        <ele>512.20</ele>
        <time>2013-07-27T10:02:29Z</time>
      </trkpt>
      <trkpt lat="42.361232000" lon="-2.388820000">
        <ele>512.20</ele>
        <time>2013-07-27T10:02:30Z</time>
      </trkpt>
      <trkpt lat="42.361231000" lon="-2.388821000">
        <ele>512.20</ele>
        <time>2013-07-27T10:02:31Z</time>
      </trkpt>
      <trkpt lat="42.361231000" lon="-2.388823000">
        <ele>512.30</ele>
        <time>2013-07-27T10:02:32Z</time>
      </trkpt>
      <trkpt lat="42.361231000" lon="-2.388824000">
        <ele>512.30</ele>
        <time>2013-07-27T10:02:33Z</time>
      </trkpt>
      <trkpt lat="42.361230000" lon="-2.388825000">
        <ele>512.30</ele>
        <time>2013-07-27T10:02:34Z</time>
      </trkpt>
      <trkpt lat="42.361230000" lon="-2.388825000">
        <ele>512.30</ele>
        <time>2013-07-27T10:02:35Z</time>
      </trkpt>
      <trkpt lat="42.361229000" lon="-2.388826000">
        <ele>512.30</ele>
        <time>2013-07-27T10:02:36Z</time>
      </trkpt>
      <trkpt lat="42.361229000" lon="-2.388827000">
        <ele>512.30</ele>
        <time>2013-07-27T10:02:37Z</time>
      </trkpt>
      <trkpt lat="42.361228000" lon="-2.388828000">
        <ele>512.30</ele>
        <time>2013-07-27T10:02:38Z</time>
      </trkpt>
      <trkpt lat="42.361228000" lon="-2.388828000">
        <ele>512.30</ele>
        <time>2013-07-27T10:02:39Z</time>
      </trkpt>
      <trkpt lat="42.361228000" lon="-2.388829000">
        <ele>512.30</ele>
        <time>2013-07-27T10:02:40Z</time>
      </trkpt>
      <trkpt lat="42.361228000" lon="-2.388829000">
        <ele>512.30</ele>
        <time>2013-07-27T10:02:41Z</time>
      </trkpt>
      <trkpt lat="42.361228000" lon="-2.388829000">
        <ele>512.30</ele>
        <time>2013-07-27T10:02:42Z</time>
      </trkpt>
      <trkpt lat="42.361228000" lon="-2.388829000">
        <ele>512.30</ele>
        <time>2013-07-27T10:02:43Z</time>
      </trkpt>
      <trkpt lat="42.361227000" lon="-2.388829000">
        <ele>512.30</ele>
        <time>2013-07-27T10:02:44Z</time>
      </trkpt>
      <trkpt lat="42.361227000" lon="-2.388829000">
        <ele>512.30</ele>
        <time>2013-07-27T10:02:45Z</time>
      </trkpt>
      <trkpt lat="42.361226000" lon="-2.388829000">
        <ele>512.30</ele>
        <time>2013-07-27T10:02:46Z</time>
      </trkpt>
      <trkpt lat="42.361226000" lon="-2.388830000">
        <ele>512.30</ele>
        <time>2013-07-27T10:02:47Z</time>
      </trkpt>
      <trkpt lat="42.361226000" lon="-2.388830000">
        <ele>512.30</ele>
        <time>2013-07-27T10:02:48Z</time>
      </trkpt>
      <trkpt lat="42.361226000" lon="-2.388830000">
        <ele>512.30</ele>
        <time>2013-07-27T10:02:49Z</time>
      </trkpt>
      <trkpt lat="42.361226000" lon="-2.388830000">
        <ele>512.30</ele>
        <time>2013-07-27T10:02:50Z</time>
      </trkpt>
      <trkpt lat="42.361226000" lon="-2.388830000">
        <ele>512.30</ele>
        <time>2013-07-27T10:02:51Z</time>
      </trkpt>
      <trkpt lat="42.361226000" lon="-2.388829000">
        <ele>512.40</ele>
        <time>2013-07-27T10:02:52Z</time>
      </trkpt>
      <trkpt lat="42.361227000" lon="-2.388830000">
        <ele>512.40</ele>
        <time>2013-07-27T10:02:53Z</time>
      </trkpt>
      <trkpt lat="42.361227000" lon="-2.388830000">
        <ele>512.50</ele>
        <time>2013-07-27T10:02:54Z</time>
      </trkpt>
      <trkpt lat="42.361227000" lon="-2.388829000">
        <ele>512.50</ele>
        <time>2013-07-27T10:02:55Z</time>
      </trkpt>
      <trkpt lat="42.361227000" lon="-2.388829000">
        <ele>512.40</ele>
        <time>2013-07-27T10:02:56Z</time>
      </trkpt>
      <trkpt lat="42.361227000" lon="-2.388829000">
        <ele>512.40</ele>
        <time>2013-07-27T10:02:57Z</time>
      </trkpt>
      <trkpt lat="42.361227000" lon="-2.388829000">
        <ele>512.40</ele>
        <time>2013-07-27T10:02:58Z</time>
      </trkpt>
      <trkpt lat="42.361227000" lon="-2.388828000">
        <ele>512.40</ele>
        <time>2013-07-27T10:02:59Z</time>
      </trkpt>
      <trkpt lat="42.361227000" lon="-2.388828000">
        <ele>512.40</ele>
        <time>2013-07-27T10:03:00Z</time>
      </trkpt>
      <trkpt lat="42.361227000" lon="-2.388828000">
        <ele>512.40</ele>
        <time>2013-07-27T10:03:01Z</time>
      </trkpt>
      <trkpt lat="42.361227000" lon="-2.388828000">
        <ele>512.40</ele>
        <time>2013-07-27T10:03:02Z</time>
      </trkpt>
      <trkpt lat="42.361227000" lon="-2.388828000">
        <ele>512.40</ele>
        <time>2013-07-27T10:03:03Z</time>
      </trkpt>
      <trkpt lat="42.361223000" lon="-2.388826000">
        <ele>512.40</ele>
        <time>2013-07-27T10:03:04Z</time>
      </trkpt>
      <trkpt lat="42.361215000" lon="-2.388820000">
        <ele>512.30</ele>
        <time>2013-07-27T10:03:05Z</time>
      </trkpt>
      <trkpt lat="42.361210000" lon="-2.388818000">
        <ele>512.30</ele>
        <time>2013-07-27T10:03:06Z</time>
      </trkpt>
      <trkpt lat="42.361204000" lon="-2.388815000">
        <ele>512.20</ele>
        <time>2013-07-27T10:03:07Z</time>
      </trkpt>
      <trkpt lat="42.361195000" lon="-2.388823000">
        <ele>512.20</ele>
        <time>2013-07-27T10:03:08Z</time>
      </trkpt>
      <trkpt lat="42.361184000" lon="-2.388826000">
        <ele>512.20</ele>
        <time>2013-07-27T10:03:09Z</time>
      </trkpt>
      <trkpt lat="42.361175000" lon="-2.388827000">
        <ele>512.20</ele>
        <time>2013-07-27T10:03:10Z</time>
      </trkpt>
      <trkpt lat="42.361167000" lon="-2.388830000">
        <ele>512.20</ele>
        <time>2013-07-27T10:03:11Z</time>
      </trkpt>
      <trkpt lat="42.361163000" lon="-2.388822000">
        <ele>512.30</ele>
        <time>2013-07-27T10:03:12Z</time>
      </trkpt>
      <trkpt lat="42.361162000" lon="-2.388814000">
        <ele>512.40</ele>
        <time>2013-07-27T10:03:13Z</time>
      </trkpt>
      <trkpt lat="42.361161000" lon="-2.388812000">
        <ele>512.50</ele>
        <time>2013-07-27T10:03:14Z</time>
      </trkpt>
      <trkpt lat="42.361158000" lon="-2.388811000">
        <ele>512.50</ele>
        <time>2013-07-27T10:03:15Z</time>
      </trkpt>
      <trkpt lat="42.361155000" lon="-2.388808000">
        <ele>512.50</ele>
        <time>2013-07-27T10:03:16Z</time>
      </trkpt>
      <trkpt lat="42.361156000" lon="-2.388809000">
        <ele>512.50</ele>
        <time>2013-07-27T10:03:17Z</time>
      </trkpt>
      <trkpt lat="42.361153000" lon="-2.388814000">
        <ele>512.50</ele>
        <time>2013-07-27T10:03:18Z</time>
      </trkpt>
      <trkpt lat="42.361144000" lon="-2.388816000">
        <ele>512.50</ele>
        <time>2013-07-27T10:03:19Z</time>
      </trkpt>
      <trkpt lat="42.361139000" lon="-2.388816000">
        <ele>512.50</ele>
        <time>2013-07-27T10:03:20Z</time>
      </trkpt>
      <trkpt lat="42.361138000" lon="-2.388814000">
        <ele>512.40</ele>
        <time>2013-07-27T10:03:21Z</time>
      </trkpt>
      <trkpt lat="42.361137000" lon="-2.388814000">
        <ele>512.40</ele>
        <time>2013-07-27T10:03:22Z</time>
      </trkpt>
      <trkpt lat="42.361136000" lon="-2.388814000">
        <ele>512.30</ele>
        <time>2013-07-27T10:03:23Z</time>
      </trkpt>
      <trkpt lat="42.361135000" lon="-2.388812000">
        <ele>512.30</ele>
        <time>2013-07-27T10:03:24Z</time>
      </trkpt>
      <trkpt lat="42.361134000" lon="-2.388810000">
        <ele>512.30</ele>
        <time>2013-07-27T10:03:25Z</time>
      </trkpt>
      <trkpt lat="42.361133000" lon="-2.388810000">
        <ele>512.30</ele>
        <time>2013-07-27T10:03:26Z</time>
      </trkpt>
      <trkpt lat="42.361133000" lon="-2.388811000">
        <ele>512.20</ele>
        <time>2013-07-27T10:03:27Z</time>
      </trkpt>
      <trkpt lat="42.361132000" lon="-2.388811000">
        <ele>512.20</ele>
        <time>2013-07-27T10:03:28Z</time>
      </trkpt>
      <trkpt lat="42.361131000" lon="-2.388811000">
        <ele>512.30</ele>
        <time>2013-07-27T10:03:29Z</time>
      </trkpt>
      <trkpt lat="42.361130000" lon="-2.388811000">
        <ele>512.30</ele>
        <time>2013-07-27T10:03:30Z</time>
      </trkpt>
      <trkpt lat="42.361130000" lon="-2.388811000">
        <ele>512.40</ele>
        <time>2013-07-27T10:03:31Z</time>
      </trkpt>
      <trkpt lat="42.361127000" lon="-2.388809000">
        <ele>512.50</ele>
        <time>2013-07-27T10:03:32Z</time>
      </trkpt>
      <trkpt lat="42.361123000" lon="-2.388802000">
        <ele>512.50</ele>
        <time>2013-07-27T10:03:33Z</time>
      </trkpt>
      <trkpt lat="42.361121000" lon="-2.388792000">
        <ele>512.50</ele>
        <time>2013-07-27T10:03:34Z</time>
      </trkpt>
      <trkpt lat="42.361119000" lon="-2.388791000">
        <ele>512.40</ele>
        <time>2013-07-27T10:03:35Z</time>
      </trkpt>
      <trkpt lat="42.361119000" lon="-2.388789000">
        <ele>512.40</ele>
        <time>2013-07-27T10:03:36Z</time>
      </trkpt>
      <trkpt lat="42.361115000" lon="-2.388783000">
        <ele>512.30</ele>
        <time>2013-07-27T10:03:37Z</time>
      </trkpt>
      <trkpt lat="42.361111000" lon="-2.388777000">
        <ele>512.30</ele>
        <time>2013-07-27T10:03:38Z</time>
      </trkpt>
      <trkpt lat="42.361108000" lon="-2.388768000">
        <ele>512.30</ele>
        <time>2013-07-27T10:03:39Z</time>
      </trkpt>
      <trkpt lat="42.361106000" lon="-2.388763000">
        <ele>512.40</ele>
        <time>2013-07-27T10:03:40Z</time>
      </trkpt>
      <trkpt lat="42.361107000" lon="-2.388761000">
        <ele>512.40</ele>
        <time>2013-07-27T10:03:41Z</time>
      </trkpt>
      <trkpt lat="42.361108000" lon="-2.388760000">
        <ele>512.40</ele>
        <time>2013-07-27T10:03:42Z</time>
      </trkpt>
      <trkpt lat="42.361106000" lon="-2.388760000">
        <ele>512.40</ele>
        <time>2013-07-27T10:03:43Z</time>
      </trkpt>
      <trkpt lat="42.361105000" lon="-2.388760000">
        <ele>512.30</ele>
        <time>2013-07-27T10:03:44Z</time>
      </trkpt>
      <trkpt lat="42.361107000" lon="-2.388759000">
        <ele>512.20</ele>
        <time>2013-07-27T10:03:45Z</time>
      </trkpt>
      <trkpt lat="42.361107000" lon="-2.388757000">
        <ele>512.20</ele>
        <time>2013-07-27T10:03:46Z</time>
      </trkpt>
      <trkpt lat="42.361108000" lon="-2.388755000">
        <ele>512.10</ele>
        <time>2013-07-27T10:03:47Z</time>
      </trkpt>
      <trkpt lat="42.361109000" lon="-2.388753000">
        <ele>512.10</ele>
        <time>2013-07-27T10:03:48Z</time>
      </trkpt>
      <trkpt lat="42.361109000" lon="-2.388753000">
        <ele>512.00</ele>
        <time>2013-07-27T10:03:49Z</time>
      </trkpt>
      <trkpt lat="42.361109000" lon="-2.388753000">
        <ele>511.90</ele>
        <time>2013-07-27T10:03:50Z</time>
      </trkpt>
      <trkpt lat="42.361109000" lon="-2.388753000">
        <ele>511.90</ele>
        <time>2013-07-27T10:03:51Z</time>
      </trkpt>
      <trkpt lat="42.361110000" lon="-2.388752000">
        <ele>511.90</ele>
        <time>2013-07-27T10:03:52Z</time>
      </trkpt>
      <trkpt lat="42.361110000" lon="-2.388752000">
        <ele>512.00</ele>
        <time>2013-07-27T10:03:53Z</time>
      </trkpt>
      <trkpt lat="42.361110000" lon="-2.388751000">
        <ele>512.10</ele>
        <time>2013-07-27T10:03:54Z</time>
      </trkpt>
      <trkpt lat="42.361110000" lon="-2.388750000">
        <ele>512.30</ele>
        <time>2013-07-27T10:03:55Z</time>
      </trkpt>
      <trkpt lat="42.361111000" lon="-2.388749000">
        <ele>512.40</ele>
        <time>2013-07-27T10:03:56Z</time>
      </trkpt>
      <trkpt lat="42.361111000" lon="-2.388748000">
        <ele>512.50</ele>
        <time>2013-07-27T10:03:57Z</time>
      </trkpt>
      <trkpt lat="42.361112000" lon="-2.388747000">
        <ele>512.60</ele>
        <time>2013-07-27T10:03:58Z</time>
      </trkpt>
      <trkpt lat="42.361113000" lon="-2.388745000">
        <ele>512.60</ele>
        <time>2013-07-27T10:03:59Z</time>
      </trkpt>
      <trkpt lat="42.361114000" lon="-2.388744000">
        <ele>512.60</ele>
        <time>2013-07-27T10:04:00Z</time>
      </trkpt>
      <trkpt lat="42.361114000" lon="-2.388743000">
        <ele>512.50</ele>
        <time>2013-07-27T10:04:01Z</time>
      </trkpt>
      <trkpt lat="42.361114000" lon="-2.388742000">
        <ele>512.50</ele>
        <time>2013-07-27T10:04:02Z</time>
      </trkpt>
      <trkpt lat="42.361110000" lon="-2.388737000">
        <ele>512.40</ele>
        <time>2013-07-27T10:04:03Z</time>
      </trkpt>
      <trkpt lat="42.361105000" lon="-2.388732000">
        <ele>512.40</ele>
        <time>2013-07-27T10:04:04Z</time>
      </trkpt>
      <trkpt lat="42.361104000" lon="-2.388728000">
        <ele>512.40</ele>
        <time>2013-07-27T10:04:05Z</time>
      </trkpt>
      <trkpt lat="42.361101000" lon="-2.388727000">
        <ele>512.30</ele>
        <time>2013-07-27T10:04:06Z</time>
      </trkpt>
      <trkpt lat="42.361101000" lon="-2.388726000">
        <ele>512.20</ele>
        <time>2013-07-27T10:04:07Z</time>
      </trkpt>
      <trkpt lat="42.361103000" lon="-2.388725000">
        <ele>512.10</ele>
        <time>2013-07-27T10:04:08Z</time>
      </trkpt>
      <trkpt lat="42.361105000" lon="-2.388726000">
        <ele>512.00</ele>
        <time>2013-07-27T10:04:09Z</time>
      </trkpt>
      <trkpt lat="42.361105000" lon="-2.388725000">
        <ele>512.00</ele>
        <time>2013-07-27T10:04:10Z</time>
      </trkpt>
      <trkpt lat="42.361104000" lon="-2.388726000">
        <ele>511.90</ele>
        <time>2013-07-27T10:04:11Z</time>
      </trkpt>
      <trkpt lat="42.361104000" lon="-2.388727000">
        <ele>511.90</ele>
        <time>2013-07-27T10:04:12Z</time>
      </trkpt>
      <trkpt lat="42.361103000" lon="-2.388727000">
        <ele>512.00</ele>
        <time>2013-07-27T10:04:13Z</time>
      </trkpt>
      <trkpt lat="42.361103000" lon="-2.388728000">
        <ele>512.10</ele>
        <time>2013-07-27T10:04:14Z</time>
      </trkpt>
      <trkpt lat="42.361103000" lon="-2.388728000">
        <ele>512.10</ele>
        <time>2013-07-27T10:04:15Z</time>
      </trkpt>
      <trkpt lat="42.361102000" lon="-2.388728000">
        <ele>512.20</ele>
        <time>2013-07-27T10:04:16Z</time>
      </trkpt>
      <trkpt lat="42.361102000" lon="-2.388728000">
        <ele>512.30</ele>
        <time>2013-07-27T10:04:17Z</time>
      </trkpt>
      <trkpt lat="42.361103000" lon="-2.388729000">
        <ele>512.30</ele>
        <time>2013-07-27T10:04:18Z</time>
      </trkpt>
      <trkpt lat="42.361103000" lon="-2.388729000">
        <ele>512.40</ele>
        <time>2013-07-27T10:04:19Z</time>
      </trkpt>
      <trkpt lat="42.361103000" lon="-2.388730000">
        <ele>512.40</ele>
        <time>2013-07-27T10:04:20Z</time>
      </trkpt>
      <trkpt lat="42.361103000" lon="-2.388730000">
        <ele>512.50</ele>
        <time>2013-07-27T10:04:21Z</time>
      </trkpt>
      <trkpt lat="42.361103000" lon="-2.388730000">
        <ele>512.50</ele>
        <time>2013-07-27T10:04:22Z</time>
      </trkpt>
      <trkpt lat="42.361102000" lon="-2.388730000">
        <ele>512.40</ele>
        <time>2013-07-27T10:04:23Z</time>
      </trkpt>
      <trkpt lat="42.361101000" lon="-2.388730000">
        <ele>512.40</ele>
        <time>2013-07-27T10:04:24Z</time>
      </trkpt>
      <trkpt lat="42.361100000" lon="-2.388730000">
        <ele>512.40</ele>
        <time>2013-07-27T10:04:25Z</time>
      </trkpt>
      <trkpt lat="42.361099000" lon="-2.388729000">
        <ele>512.40</ele>
        <time>2013-07-27T10:04:26Z</time>
      </trkpt>
      <trkpt lat="42.361099000" lon="-2.388729000">
        <ele>512.30</ele>
        <time>2013-07-27T10:04:27Z</time>
      </trkpt>
      <trkpt lat="42.361098000" lon="-2.388729000">
        <ele>512.30</ele>
        <time>2013-07-27T10:04:28Z</time>
      </trkpt>
      <trkpt lat="42.361097000" lon="-2.388728000">
        <ele>512.50</ele>
        <time>2013-07-27T10:04:29Z</time>
      </trkpt>
      <trkpt lat="42.361096000" lon="-2.388728000">
        <ele>512.50</ele>
        <time>2013-07-27T10:04:30Z</time>
      </trkpt>
      <trkpt lat="42.361095000" lon="-2.388728000">
        <ele>512.70</ele>
        <time>2013-07-27T10:04:31Z</time>
      </trkpt>
      <trkpt lat="42.361095000" lon="-2.388728000">
        <ele>512.80</ele>
        <time>2013-07-27T10:04:32Z</time>
      </trkpt>
      <trkpt lat="42.361095000" lon="-2.388728000">
        <ele>512.90</ele>
        <time>2013-07-27T10:04:33Z</time>
      </trkpt>
      <trkpt lat="42.361094000" lon="-2.388728000">
        <ele>512.90</ele>
        <time>2013-07-27T10:04:34Z</time>
      </trkpt>
      <trkpt lat="42.361093000" lon="-2.388728000">
        <ele>512.90</ele>
        <time>2013-07-27T10:04:35Z</time>
      </trkpt>
      <trkpt lat="42.361093000" lon="-2.388728000">
        <ele>512.90</ele>
        <time>2013-07-27T10:04:36Z</time>
      </trkpt>
      <trkpt lat="42.361092000" lon="-2.388729000">
        <ele>512.80</ele>
        <time>2013-07-27T10:04:37Z</time>
      </trkpt>
      <trkpt lat="42.361092000" lon="-2.388728000">
        <ele>512.70</ele>
        <time>2013-07-27T10:04:38Z</time>
      </trkpt>
      <trkpt lat="42.361092000" lon="-2.388728000">
        <ele>512.60</ele>
        <time>2013-07-27T10:04:39Z</time>
      </trkpt>
      <trkpt lat="42.361091000" lon="-2.388728000">
        <ele>512.50</ele>
        <time>2013-07-27T10:04:40Z</time>
      </trkpt>
      <trkpt lat="42.361091000" lon="-2.388727000">
        <ele>512.50</ele>
        <time>2013-07-27T10:04:41Z</time>
      </trkpt>
      <trkpt lat="42.361091000" lon="-2.388727000">
        <ele>512.50</ele>
        <time>2013-07-27T10:04:42Z</time>
      </trkpt>
      <trkpt lat="42.361090000" lon="-2.388727000">
        <ele>512.40</ele>
        <time>2013-07-27T10:04:43Z</time>
      </trkpt>
      <trkpt lat="42.361089000" lon="-2.388728000">
        <ele>512.30</ele>
        <time>2013-07-27T10:04:44Z</time>
      </trkpt>
      <trkpt lat="42.361089000" lon="-2.388728000">
        <ele>512.30</ele>
        <time>2013-07-27T10:04:45Z</time>
      </trkpt>
      <trkpt lat="42.361088000" lon="-2.388728000">
        <ele>512.20</ele>
        <time>2013-07-27T10:04:46Z</time>
      </trkpt>
      <trkpt lat="42.361088000" lon="-2.388728000">
        <ele>512.20</ele>
        <time>2013-07-27T10:04:47Z</time>
      </trkpt>
      <trkpt lat="42.361088000" lon="-2.388728000">
        <ele>512.20</ele>
        <time>2013-07-27T10:04:48Z</time>
      </trkpt>
      <trkpt lat="42.361087000" lon="-2.388729000">
        <ele>512.30</ele>
        <time>2013-07-27T10:04:49Z</time>
      </trkpt>
      <trkpt lat="42.361088000" lon="-2.388730000">
        <ele>512.40</ele>
        <time>2013-07-27T10:04:50Z</time>
      </trkpt>
      <trkpt lat="42.361088000" lon="-2.388731000">
        <ele>512.30</ele>
        <time>2013-07-27T10:04:51Z</time>
      </trkpt>
      <trkpt lat="42.361088000" lon="-2.388730000">
        <ele>512.30</ele>
        <time>2013-07-27T10:04:52Z</time>
      </trkpt>
      <trkpt lat="42.361090000" lon="-2.388714000">
        <ele>512.20</ele>
        <time>2013-07-27T10:04:53Z</time>
      </trkpt>
      <trkpt lat="42.361091000" lon="-2.388702000">
        <ele>512.20</ele>
        <time>2013-07-27T10:04:54Z</time>
      </trkpt>
      <trkpt lat="42.361081000" lon="-2.388679000">
        <ele>512.20</ele>
        <time>2013-07-27T10:04:55Z</time>
      </trkpt>
      <trkpt lat="42.361067000" lon="-2.388661000">
        <ele>512.20</ele>
        <time>2013-07-27T10:04:56Z</time>
      </trkpt>
      <trkpt lat="42.361046000" lon="-2.388645000">
        <ele>512.20</ele>
        <time>2013-07-27T10:04:57Z</time>
      </trkpt>
      <trkpt lat="42.361025000" lon="-2.388630000">
        <ele>512.30</ele>
        <time>2013-07-27T10:04:58Z</time>
      </trkpt>
      <trkpt lat="42.361003000" lon="-2.388614000">
        <ele>512.40</ele>
        <time>2013-07-27T10:04:59Z</time>
      </trkpt>
      <trkpt lat="42.360981000" lon="-2.388595000">
        <ele>512.50</ele>
        <time>2013-07-27T10:05:00Z</time>
      </trkpt>
      <trkpt lat="42.360954000" lon="-2.388578000">
        <ele>512.60</ele>
        <time>2013-07-27T10:05:01Z</time>
      </trkpt>
      <trkpt lat="42.360928000" lon="-2.388557000">
        <ele>512.70</ele>
        <time>2013-07-27T10:05:02Z</time>
      </trkpt>
      <trkpt lat="42.360900000" lon="-2.388537000">
        <ele>512.40</ele>
        <time>2013-07-27T10:05:03Z</time>
      </trkpt>
      <trkpt lat="42.360871000" lon="-2.388514000">
        <ele>512.10</ele>
        <time>2013-07-27T10:05:04Z</time>
      </trkpt>
      <trkpt lat="42.360842000" lon="-2.388488000">
        <ele>511.90</ele>
        <time>2013-07-27T10:05:05Z</time>
      </trkpt>
      <trkpt lat="42.360811000" lon="-2.388462000">
        <ele>511.80</ele>
        <time>2013-07-27T10:05:06Z</time>
      </trkpt>
      <trkpt lat="42.360779000" lon="-2.388433000">
        <ele>511.60</ele>
        <time>2013-07-27T10:05:07Z</time>
      </trkpt>
      <trkpt lat="42.360744000" lon="-2.388406000">
        <ele>511.50</ele>
        <time>2013-07-27T10:05:08Z</time>
      </trkpt>
      <trkpt lat="42.360712000" lon="-2.388375000">
        <ele>511.40</ele>
        <time>2013-07-27T10:05:09Z</time>
      </trkpt>
      <trkpt lat="42.360679000" lon="-2.388346000">
        <ele>511.30</ele>
        <time>2013-07-27T10:05:10Z</time>
      </trkpt>
      <trkpt lat="42.360647000" lon="-2.388312000">
        <ele>511.20</ele>
        <time>2013-07-27T10:05:11Z</time>
      </trkpt>
      <trkpt lat="42.360613000" lon="-2.388280000">
        <ele>511.10</ele>
        <time>2013-07-27T10:05:12Z</time>
      </trkpt>
      <trkpt lat="42.360577000" lon="-2.388248000">
        <ele>511.20</ele>
        <time>2013-07-27T10:05:13Z</time>
      </trkpt>
      <trkpt lat="42.360541000" lon="-2.388218000">
        <ele>511.30</ele>
        <time>2013-07-27T10:05:14Z</time>
      </trkpt>
      <trkpt lat="42.360504000" lon="-2.388189000">
        <ele>511.20</ele>
        <time>2013-07-27T10:05:15Z</time>
      </trkpt>
      <trkpt lat="42.360469000" lon="-2.388158000">
        <ele>511.20</ele>
        <time>2013-07-27T10:05:16Z</time>
      </trkpt>
      <trkpt lat="42.360432000" lon="-2.388129000">
        <ele>511.20</ele>
        <time>2013-07-27T10:05:17Z</time>
      </trkpt>
      <trkpt lat="42.360397000" lon="-2.388095000">
        <ele>511.10</ele>
        <time>2013-07-27T10:05:18Z</time>
      </trkpt>
      <trkpt lat="42.360367000" lon="-2.388066000">
        <ele>511.00</ele>
        <time>2013-07-27T10:05:19Z</time>
      </trkpt>
      <trkpt lat="42.360336000" lon="-2.388033000">
        <ele>510.90</ele>
        <time>2013-07-27T10:05:20Z</time>
      </trkpt>
      <trkpt lat="42.360313000" lon="-2.388001000">
        <ele>510.80</ele>
        <time>2013-07-27T10:05:21Z</time>
      </trkpt>
      <trkpt lat="42.360296000" lon="-2.387967000">
        <ele>510.70</ele>
        <time>2013-07-27T10:05:22Z</time>
      </trkpt>
      <trkpt lat="42.360279000" lon="-2.387937000">
        <ele>510.70</ele>
        <time>2013-07-27T10:05:23Z</time>
      </trkpt>
      <trkpt lat="42.360264000" lon="-2.387906000">
        <ele>510.60</ele>
        <time>2013-07-27T10:05:24Z</time>
      </trkpt>
      <trkpt lat="42.360253000" lon="-2.387874000">
        <ele>510.80</ele>
        <time>2013-07-27T10:05:25Z</time>
      </trkpt>
      <trkpt lat="42.360248000" lon="-2.387838000">
        <ele>510.80</ele>
        <time>2013-07-27T10:05:26Z</time>
      </trkpt>
      <trkpt lat="42.360252000" lon="-2.387800000">
        <ele>510.90</ele>
        <time>2013-07-27T10:05:27Z</time>
      </trkpt>
      <trkpt lat="42.360256000" lon="-2.387767000">
        <ele>510.90</ele>
        <time>2013-07-27T10:05:28Z</time>
      </trkpt>
      <trkpt lat="42.360256000" lon="-2.387730000">
        <ele>510.90</ele>
        <time>2013-07-27T10:05:29Z</time>
      </trkpt>
      <trkpt lat="42.360253000" lon="-2.387693000">
        <ele>510.80</ele>
        <time>2013-07-27T10:05:30Z</time>
      </trkpt>
      <trkpt lat="42.360250000" lon="-2.387659000">
        <ele>510.70</ele>
        <time>2013-07-27T10:05:31Z</time>
      </trkpt>
      <trkpt lat="42.360249000" lon="-2.387626000">
        <ele>510.60</ele>
        <time>2013-07-27T10:05:32Z</time>
      </trkpt>
      <trkpt lat="42.360242000" lon="-2.387595000">
        <ele>510.40</ele>
        <time>2013-07-27T10:05:33Z</time>
      </trkpt>
      <trkpt lat="42.360237000" lon="-2.387563000">
        <ele>510.30</ele>
        <time>2013-07-27T10:05:34Z</time>
      </trkpt>
      <trkpt lat="42.360230000" lon="-2.387531000">
        <ele>510.10</ele>
        <time>2013-07-27T10:05:35Z</time>
      </trkpt>
      <trkpt lat="42.360222000" lon="-2.387497000">
        <ele>510.10</ele>
        <time>2013-07-27T10:05:36Z</time>
      </trkpt>
      <trkpt lat="42.360213000" lon="-2.387460000">
        <ele>509.90</ele>
        <time>2013-07-27T10:05:37Z</time>
      </trkpt>
      <trkpt lat="42.360205000" lon="-2.387419000">
        <ele>509.70</ele>
        <time>2013-07-27T10:05:38Z</time>
      </trkpt>
      <trkpt lat="42.360196000" lon="-2.387375000">
        <ele>509.50</ele>
        <time>2013-07-27T10:05:39Z</time>
      </trkpt>
      <trkpt lat="42.360188000" lon="-2.387327000">
        <ele>509.30</ele>
        <time>2013-07-27T10:05:40Z</time>
      </trkpt>
      <trkpt lat="42.360178000" lon="-2.387280000">
        <ele>509.10</ele>
        <time>2013-07-27T10:05:41Z</time>
      </trkpt>
      <trkpt lat="42.360167000" lon="-2.387230000">
        <ele>508.90</ele>
        <time>2013-07-27T10:05:42Z</time>
      </trkpt>
      <trkpt lat="42.360153000" lon="-2.387180000">
        <ele>508.70</ele>
        <time>2013-07-27T10:05:43Z</time>
      </trkpt>
      <trkpt lat="42.360141000" lon="-2.387130000">
        <ele>508.50</ele>
        <time>2013-07-27T10:05:44Z</time>
      </trkpt>
      <trkpt lat="42.360129000" lon="-2.387076000">
        <ele>508.30</ele>
        <time>2013-07-27T10:05:45Z</time>
      </trkpt>
      <trkpt lat="42.360116000" lon="-2.387020000">
        <ele>508.10</ele>
        <time>2013-07-27T10:05:46Z</time>
      </trkpt>
      <trkpt lat="42.360103000" lon="-2.386961000">
        <ele>508.00</ele>
        <time>2013-07-27T10:05:47Z</time>
      </trkpt>
      <trkpt lat="42.360091000" lon="-2.386899000">
        <ele>507.90</ele>
        <time>2013-07-27T10:05:48Z</time>
      </trkpt>
      <trkpt lat="42.360076000" lon="-2.386837000">
        <ele>507.70</ele>
        <time>2013-07-27T10:05:49Z</time>
      </trkpt>
      <trkpt lat="42.360064000" lon="-2.386773000">
        <ele>507.60</ele>
        <time>2013-07-27T10:05:50Z</time>
      </trkpt>
      <trkpt lat="42.360050000" lon="-2.386706000">
        <ele>507.20</ele>
        <time>2013-07-27T10:05:51Z</time>
      </trkpt>
      <trkpt lat="42.360037000" lon="-2.386636000">
        <ele>506.90</ele>
        <time>2013-07-27T10:05:52Z</time>
      </trkpt>
      <trkpt lat="42.360025000" lon="-2.386567000">
        <ele>506.70</ele>
        <time>2013-07-27T10:05:53Z</time>
      </trkpt>
      <trkpt lat="42.360008000" lon="-2.386493000">
        <ele>506.60</ele>
        <time>2013-07-27T10:05:54Z</time>
      </trkpt>
      <trkpt lat="42.359992000" lon="-2.386418000">
        <ele>506.50</ele>
        <time>2013-07-27T10:05:55Z</time>
      </trkpt>
      <trkpt lat="42.359977000" lon="-2.386346000">
        <ele>506.50</ele>
        <time>2013-07-27T10:05:56Z</time>
      </trkpt>
      <trkpt lat="42.359962000" lon="-2.386274000">
        <ele>506.50</ele>
        <time>2013-07-27T10:05:57Z</time>
      </trkpt>
      <trkpt lat="42.359946000" lon="-2.386202000">
        <ele>506.50</ele>
        <time>2013-07-27T10:05:58Z</time>
      </trkpt>
      <trkpt lat="42.359929000" lon="-2.386129000">
        <ele>506.30</ele>
        <time>2013-07-27T10:05:59Z</time>
      </trkpt>
      <trkpt lat="42.359911000" lon="-2.386057000">
        <ele>506.10</ele>
        <time>2013-07-27T10:06:00Z</time>
      </trkpt>
      <trkpt lat="42.359893000" lon="-2.385986000">
        <ele>505.90</ele>
        <time>2013-07-27T10:06:01Z</time>
      </trkpt>
      <trkpt lat="42.359878000" lon="-2.385911000">
        <ele>505.80</ele>
        <time>2013-07-27T10:06:02Z</time>
      </trkpt>
      <trkpt lat="42.359863000" lon="-2.385835000">
        <ele>505.00</ele>
        <time>2013-07-27T10:06:03Z</time>
      </trkpt>
      <trkpt lat="42.359845000" lon="-2.385759000">
        <ele>504.40</ele>
        <time>2013-07-27T10:06:04Z</time>
      </trkpt>
      <trkpt lat="42.359827000" lon="-2.385681000">
        <ele>504.00</ele>
        <time>2013-07-27T10:06:05Z</time>
      </trkpt>
      <trkpt lat="42.359810000" lon="-2.385602000">
        <ele>503.70</ele>
        <time>2013-07-27T10:06:06Z</time>
      </trkpt>
      <trkpt lat="42.359792000" lon="-2.385519000">
        <ele>503.40</ele>
        <time>2013-07-27T10:06:07Z</time>
      </trkpt>
      <trkpt lat="42.359777000" lon="-2.385433000">
        <ele>503.30</ele>
        <time>2013-07-27T10:06:08Z</time>
      </trkpt>
      <trkpt lat="42.359761000" lon="-2.385346000">
        <ele>503.00</ele>
        <time>2013-07-27T10:06:09Z</time>
      </trkpt>
      <trkpt lat="42.359746000" lon="-2.385255000">
        <ele>502.80</ele>
        <time>2013-07-27T10:06:10Z</time>
      </trkpt>
      <trkpt lat="42.359730000" lon="-2.385161000">
        <ele>502.70</ele>
        <time>2013-07-27T10:06:11Z</time>
      </trkpt>
      <trkpt lat="42.359715000" lon="-2.385063000">
        <ele>502.60</ele>
        <time>2013-07-27T10:06:12Z</time>
      </trkpt>
      <trkpt lat="42.359701000" lon="-2.384962000">
        <ele>502.30</ele>
        <time>2013-07-27T10:06:13Z</time>
      </trkpt>
      <trkpt lat="42.359690000" lon="-2.384858000">
        <ele>502.10</ele>
        <time>2013-07-27T10:06:14Z</time>
      </trkpt>
      <trkpt lat="42.359684000" lon="-2.384750000">
        <ele>501.70</ele>
        <time>2013-07-27T10:06:15Z</time>
      </trkpt>
      <trkpt lat="42.359678000" lon="-2.384640000">
        <ele>501.30</ele>
        <time>2013-07-27T10:06:16Z</time>
      </trkpt>
      <trkpt lat="42.359672000" lon="-2.384528000">
        <ele>500.80</ele>
        <time>2013-07-27T10:06:17Z</time>
      </trkpt>
      <trkpt lat="42.359667000" lon="-2.384414000">
        <ele>500.40</ele>
        <time>2013-07-27T10:06:18Z</time>
      </trkpt>
      <trkpt lat="42.359663000" lon="-2.384296000">
        <ele>500.00</ele>
        <time>2013-07-27T10:06:19Z</time>
      </trkpt>
      <trkpt lat="42.359658000" lon="-2.384177000">
        <ele>499.70</ele>
        <time>2013-07-27T10:06:20Z</time>
      </trkpt>
      <trkpt lat="42.359655000" lon="-2.384058000">
        <ele>499.00</ele>
        <time>2013-07-27T10:06:21Z</time>
      </trkpt>
      <trkpt lat="42.359654000" lon="-2.383936000">
        <ele>498.50</ele>
        <time>2013-07-27T10:06:22Z</time>
      </trkpt>
      <trkpt lat="42.359654000" lon="-2.383811000">
        <ele>497.80</ele>
        <time>2013-07-27T10:06:23Z</time>
      </trkpt>
      <trkpt lat="42.359652000" lon="-2.383680000">
        <ele>497.40</ele>
        <time>2013-07-27T10:06:24Z</time>
      </trkpt>
      <trkpt lat="42.359651000" lon="-2.383552000">
        <ele>496.70</ele>
        <time>2013-07-27T10:06:25Z</time>
      </trkpt>
      <trkpt lat="42.359648000" lon="-2.383420000">
        <ele>496.10</ele>
        <time>2013-07-27T10:06:26Z</time>
      </trkpt>
      <trkpt lat="42.359647000" lon="-2.383289000">
        <ele>495.70</ele>
        <time>2013-07-27T10:06:27Z</time>
      </trkpt>
      <trkpt lat="42.359647000" lon="-2.383158000">
        <ele>495.40</ele>
        <time>2013-07-27T10:06:28Z</time>
      </trkpt>
      <trkpt lat="42.359643000" lon="-2.383025000">
        <ele>495.00</ele>
        <time>2013-07-27T10:06:29Z</time>
      </trkpt>
      <trkpt lat="42.359634000" lon="-2.382892000">
        <ele>494.60</ele>
        <time>2013-07-27T10:06:30Z</time>
      </trkpt>
      <trkpt lat="42.359625000" lon="-2.382756000">
        <ele>494.30</ele>
        <time>2013-07-27T10:06:31Z</time>
      </trkpt>
      <trkpt lat="42.359610000" lon="-2.382624000">
        <ele>494.10</ele>
        <time>2013-07-27T10:06:32Z</time>
      </trkpt>
      <trkpt lat="42.359592000" lon="-2.382487000">
        <ele>493.30</ele>
        <time>2013-07-27T10:06:33Z</time>
      </trkpt>
      <trkpt lat="42.359570000" lon="-2.382351000">
        <ele>492.70</ele>
        <time>2013-07-27T10:06:34Z</time>
      </trkpt>
      <trkpt lat="42.359540000" lon="-2.382218000">
        <ele>492.20</ele>
        <time>2013-07-27T10:06:35Z</time>
      </trkpt>
      <trkpt lat="42.359498000" lon="-2.382089000">
        <ele>491.80</ele>
        <time>2013-07-27T10:06:36Z</time>
      </trkpt>
      <trkpt lat="42.359450000" lon="-2.381962000">
        <ele>491.30</ele>
        <time>2013-07-27T10:06:37Z</time>
      </trkpt>
      <trkpt lat="42.359396000" lon="-2.381838000">
        <ele>490.80</ele>
        <time>2013-07-27T10:06:38Z</time>
      </trkpt>
      <trkpt lat="42.359336000" lon="-2.381719000">
        <ele>489.90</ele>
        <time>2013-07-27T10:06:39Z</time>
      </trkpt>
      <trkpt lat="42.359266000" lon="-2.381607000">
        <ele>489.20</ele>
        <time>2013-07-27T10:06:40Z</time>
      </trkpt>
      <trkpt lat="42.359188000" lon="-2.381507000">
        <ele>488.70</ele>
        <time>2013-07-27T10:06:41Z</time>
      </trkpt>
      <trkpt lat="42.359100000" lon="-2.381420000">
        <ele>488.30</ele>
        <time>2013-07-27T10:06:42Z</time>
      </trkpt>
      <trkpt lat="42.359005000" lon="-2.381343000">
        <ele>487.30</ele>
        <time>2013-07-27T10:06:43Z</time>
      </trkpt>
      <trkpt lat="42.358905000" lon="-2.381281000">
        <ele>486.50</ele>
        <time>2013-07-27T10:06:44Z</time>
      </trkpt>
      <trkpt lat="42.358800000" lon="-2.381238000">
        <ele>485.70</ele>
        <time>2013-07-27T10:06:45Z</time>
      </trkpt>
      <trkpt lat="42.358690000" lon="-2.381218000">
        <ele>485.10</ele>
        <time>2013-07-27T10:06:46Z</time>
      </trkpt>
      <trkpt lat="42.358580000" lon="-2.381217000">
        <ele>484.50</ele>
        <time>2013-07-27T10:06:47Z</time>
      </trkpt>
      <trkpt lat="42.358473000" lon="-2.381233000">
        <ele>484.10</ele>
        <time>2013-07-27T10:06:48Z</time>
      </trkpt>
      <trkpt lat="42.358374000" lon="-2.381267000">
        <ele>483.60</ele>
        <time>2013-07-27T10:06:49Z</time>
      </trkpt>
      <trkpt lat="42.358274000" lon="-2.381314000">
        <ele>483.20</ele>
        <time>2013-07-27T10:06:50Z</time>
      </trkpt>
      <trkpt lat="42.358180000" lon="-2.381371000">
        <ele>482.50</ele>
        <time>2013-07-27T10:06:51Z</time>
      </trkpt>
      <trkpt lat="42.358091000" lon="-2.381442000">
        <ele>482.00</ele>
        <time>2013-07-27T10:06:52Z</time>
      </trkpt>
      <trkpt lat="42.358011000" lon="-2.381521000">
        <ele>481.50</ele>
        <time>2013-07-27T10:06:53Z</time>
      </trkpt>
      <trkpt lat="42.357934000" lon="-2.381607000">
        <ele>481.20</ele>
        <time>2013-07-27T10:06:54Z</time>
      </trkpt>
      <trkpt lat="42.357858000" lon="-2.381693000">
        <ele>480.70</ele>
        <time>2013-07-27T10:06:55Z</time>
      </trkpt>
      <trkpt lat="42.357787000" lon="-2.381784000">
        <ele>480.30</ele>
        <time>2013-07-27T10:06:56Z</time>
      </trkpt>
      <trkpt lat="42.357720000" lon="-2.381874000">
        <ele>479.70</ele>
        <time>2013-07-27T10:06:57Z</time>
      </trkpt>
      <trkpt lat="42.357657000" lon="-2.381968000">
        <ele>479.20</ele>
        <time>2013-07-27T10:06:58Z</time>
      </trkpt>
      <trkpt lat="42.357595000" lon="-2.382062000">
        <ele>478.90</ele>
        <time>2013-07-27T10:06:59Z</time>
      </trkpt>
      <trkpt lat="42.357535000" lon="-2.382153000">
        <ele>478.60</ele>
        <time>2013-07-27T10:07:00Z</time>
      </trkpt>
      <trkpt lat="42.357474000" lon="-2.382243000">
        <ele>478.40</ele>
        <time>2013-07-27T10:07:01Z</time>
      </trkpt>
      <trkpt lat="42.357416000" lon="-2.382326000">
        <ele>478.30</ele>
        <time>2013-07-27T10:07:02Z</time>
      </trkpt>
      <trkpt lat="42.357357000" lon="-2.382407000">
        <ele>477.70</ele>
        <time>2013-07-27T10:07:03Z</time>
      </trkpt>
      <trkpt lat="42.357300000" lon="-2.382486000">
        <ele>477.30</ele>
        <time>2013-07-27T10:07:04Z</time>
      </trkpt>
      <trkpt lat="42.357244000" lon="-2.382566000">
        <ele>477.00</ele>
        <time>2013-07-27T10:07:05Z</time>
      </trkpt>
      <trkpt lat="42.357189000" lon="-2.382642000">
        <ele>476.80</ele>
        <time>2013-07-27T10:07:06Z</time>
      </trkpt>
      <trkpt lat="42.357138000" lon="-2.382715000">
        <ele>476.50</ele>
        <time>2013-07-27T10:07:07Z</time>
      </trkpt>
      <trkpt lat="42.357086000" lon="-2.382789000">
        <ele>476.30</ele>
        <time>2013-07-27T10:07:08Z</time>
      </trkpt>
      <trkpt lat="42.357036000" lon="-2.382860000">
        <ele>476.20</ele>
        <time>2013-07-27T10:07:09Z</time>
      </trkpt>
      <trkpt lat="42.356988000" lon="-2.382926000">
        <ele>476.10</ele>
        <time>2013-07-27T10:07:10Z</time>
      </trkpt>
      <trkpt lat="42.356942000" lon="-2.382993000">
        <ele>476.00</ele>
        <time>2013-07-27T10:07:11Z</time>
      </trkpt>
      <trkpt lat="42.356896000" lon="-2.383059000">
        <ele>476.00</ele>
        <time>2013-07-27T10:07:12Z</time>
      </trkpt>
      <trkpt lat="42.356849000" lon="-2.383122000">
        <ele>476.00</ele>
        <time>2013-07-27T10:07:13Z</time>
      </trkpt>
      <trkpt lat="42.356803000" lon="-2.383184000">
        <ele>476.00</ele>
        <time>2013-07-27T10:07:14Z</time>
      </trkpt>
      <trkpt lat="42.356758000" lon="-2.383245000">
        <ele>476.00</ele>
        <time>2013-07-27T10:07:15Z</time>
      </trkpt>
      <trkpt lat="42.356719000" lon="-2.383310000">
        <ele>476.10</ele>
        <time>2013-07-27T10:07:16Z</time>
      </trkpt>
      <trkpt lat="42.356675000" lon="-2.383378000">
        <ele>476.10</ele>
        <time>2013-07-27T10:07:17Z</time>
      </trkpt>
      <trkpt lat="42.356635000" lon="-2.383440000">
        <ele>476.10</ele>
        <time>2013-07-27T10:07:18Z</time>
      </trkpt>
      <trkpt lat="42.356594000" lon="-2.383500000">
        <ele>475.90</ele>
        <time>2013-07-27T10:07:19Z</time>
      </trkpt>
      <trkpt lat="42.356546000" lon="-2.383551000">
        <ele>475.70</ele>
        <time>2013-07-27T10:07:20Z</time>
      </trkpt>
      <trkpt lat="42.356496000" lon="-2.383592000">
        <ele>475.60</ele>
        <time>2013-07-27T10:07:21Z</time>
      </trkpt>
      <trkpt lat="42.356443000" lon="-2.383619000">
        <ele>475.50</ele>
        <time>2013-07-27T10:07:22Z</time>
      </trkpt>
      <trkpt lat="42.356386000" lon="-2.383639000">
        <ele>475.40</ele>
        <time>2013-07-27T10:07:23Z</time>
      </trkpt>
      <trkpt lat="42.356326000" lon="-2.383658000">
        <ele>475.40</ele>
        <time>2013-07-27T10:07:24Z</time>
      </trkpt>
      <trkpt lat="42.356269000" lon="-2.383675000">
        <ele>475.30</ele>
        <time>2013-07-27T10:07:25Z</time>
      </trkpt>
      <trkpt lat="42.356209000" lon="-2.383689000">
        <ele>475.30</ele>
        <time>2013-07-27T10:07:26Z</time>
      </trkpt>
      <trkpt lat="42.356152000" lon="-2.383703000">
        <ele>475.20</ele>
        <time>2013-07-27T10:07:27Z</time>
      </trkpt>
      <trkpt lat="42.356096000" lon="-2.383718000">
        <ele>475.20</ele>
        <time>2013-07-27T10:07:28Z</time>
      </trkpt>
      <trkpt lat="42.356044000" lon="-2.383730000">
        <ele>475.10</ele>
        <time>2013-07-27T10:07:29Z</time>
      </trkpt>
      <trkpt lat="42.355991000" lon="-2.383743000">
        <ele>475.00</ele>
        <time>2013-07-27T10:07:30Z</time>
      </trkpt>
      <trkpt lat="42.355938000" lon="-2.383756000">
        <ele>475.10</ele>
        <time>2013-07-27T10:07:31Z</time>
      </trkpt>
      <trkpt lat="42.355886000" lon="-2.383770000">
        <ele>475.10</ele>
        <time>2013-07-27T10:07:32Z</time>
      </trkpt>
      <trkpt lat="42.355836000" lon="-2.383784000">
        <ele>474.90</ele>
        <time>2013-07-27T10:07:33Z</time>
      </trkpt>
      <trkpt lat="42.355785000" lon="-2.383797000">
        <ele>474.90</ele>
        <time>2013-07-27T10:07:34Z</time>
      </trkpt>
      <trkpt lat="42.355733000" lon="-2.383805000">
        <ele>474.70</ele>
        <time>2013-07-27T10:07:35Z</time>
      </trkpt>
      <trkpt lat="42.355682000" lon="-2.383816000">
        <ele>474.50</ele>
        <time>2013-07-27T10:07:36Z</time>
      </trkpt>
      <trkpt lat="42.355631000" lon="-2.383826000">
        <ele>474.10</ele>
        <time>2013-07-27T10:07:37Z</time>
      </trkpt>
      <trkpt lat="42.355581000" lon="-2.383837000">
        <ele>473.80</ele>
        <time>2013-07-27T10:07:38Z</time>
      </trkpt>
      <trkpt lat="42.355531000" lon="-2.383847000">
        <ele>473.60</ele>
        <time>2013-07-27T10:07:39Z</time>
      </trkpt>
      <trkpt lat="42.355483000" lon="-2.383859000">
        <ele>473.40</ele>
        <time>2013-07-27T10:07:40Z</time>
      </trkpt>
      <trkpt lat="42.355436000" lon="-2.383872000">
        <ele>473.40</ele>
        <time>2013-07-27T10:07:41Z</time>
      </trkpt>
      <trkpt lat="42.355387000" lon="-2.383884000">
        <ele>473.30</ele>
        <time>2013-07-27T10:07:42Z</time>
      </trkpt>
      <trkpt lat="42.355339000" lon="-2.383895000">
        <ele>473.50</ele>
        <time>2013-07-27T10:07:43Z</time>
      </trkpt>
      <trkpt lat="42.355290000" lon="-2.383906000">
        <ele>473.70</ele>
        <time>2013-07-27T10:07:44Z</time>
      </trkpt>
      <trkpt lat="42.355243000" lon="-2.383915000">
        <ele>473.80</ele>
        <time>2013-07-27T10:07:45Z</time>
      </trkpt>
      <trkpt lat="42.355196000" lon="-2.383925000">
        <ele>473.80</ele>
        <time>2013-07-27T10:07:46Z</time>
      </trkpt>
      <trkpt lat="42.355151000" lon="-2.383934000">
        <ele>474.10</ele>
        <time>2013-07-27T10:07:47Z</time>
      </trkpt>
      <trkpt lat="42.355106000" lon="-2.383944000">
        <ele>474.20</ele>
        <time>2013-07-27T10:07:48Z</time>
      </trkpt>
      <trkpt lat="42.355061000" lon="-2.383953000">
        <ele>474.40</ele>
        <time>2013-07-27T10:07:49Z</time>
      </trkpt>
      <trkpt lat="42.355018000" lon="-2.383963000">
        <ele>474.50</ele>
        <time>2013-07-27T10:07:50Z</time>
      </trkpt>
      <trkpt lat="42.354977000" lon="-2.383973000">
        <ele>474.50</ele>
        <time>2013-07-27T10:07:51Z</time>
      </trkpt>
      <trkpt lat="42.354938000" lon="-2.383984000">
        <ele>474.60</ele>
        <time>2013-07-27T10:07:52Z</time>
      </trkpt>
      <trkpt lat="42.354898000" lon="-2.383993000">
        <ele>474.60</ele>
        <time>2013-07-27T10:07:53Z</time>
      </trkpt>
      <trkpt lat="42.354859000" lon="-2.384004000">
        <ele>474.60</ele>
        <time>2013-07-27T10:07:54Z</time>
      </trkpt>
      <trkpt lat="42.354818000" lon="-2.384014000">
        <ele>474.60</ele>
        <time>2013-07-27T10:07:55Z</time>
      </trkpt>
      <trkpt lat="42.354776000" lon="-2.384020000">
        <ele>474.60</ele>
        <time>2013-07-27T10:07:56Z</time>
      </trkpt>
      <trkpt lat="42.354735000" lon="-2.384031000">
        <ele>474.60</ele>
        <time>2013-07-27T10:07:57Z</time>
      </trkpt>
      <trkpt lat="42.354694000" lon="-2.384036000">
        <ele>474.60</ele>
        <time>2013-07-27T10:07:58Z</time>
      </trkpt>
      <trkpt lat="42.354654000" lon="-2.384039000">
        <ele>474.70</ele>
        <time>2013-07-27T10:07:59Z</time>
      </trkpt>
      <trkpt lat="42.354615000" lon="-2.384038000">
        <ele>474.70</ele>
        <time>2013-07-27T10:08:00Z</time>
      </trkpt>
      <trkpt lat="42.354573000" lon="-2.384039000">
        <ele>474.80</ele>
        <time>2013-07-27T10:08:01Z</time>
      </trkpt>
      <trkpt lat="42.354534000" lon="-2.384036000">
        <ele>474.80</ele>
        <time>2013-07-27T10:08:02Z</time>
      </trkpt>
      <trkpt lat="42.354489000" lon="-2.384031000">
        <ele>475.00</ele>
        <time>2013-07-27T10:08:03Z</time>
      </trkpt>
      <trkpt lat="42.354446000" lon="-2.384021000">
        <ele>475.20</ele>
        <time>2013-07-27T10:08:04Z</time>
      </trkpt>
      <trkpt lat="42.354410000" lon="-2.384003000">
        <ele>475.30</ele>
        <time>2013-07-27T10:08:05Z</time>
      </trkpt>
      <trkpt lat="42.354375000" lon="-2.383985000">
        <ele>475.40</ele>
        <time>2013-07-27T10:08:06Z</time>
      </trkpt>
      <trkpt lat="42.354339000" lon="-2.383965000">
        <ele>475.70</ele>
        <time>2013-07-27T10:08:07Z</time>
      </trkpt>
      <trkpt lat="42.354305000" lon="-2.383941000">
        <ele>475.90</ele>
        <time>2013-07-27T10:08:08Z</time>
      </trkpt>
      <trkpt lat="42.354271000" lon="-2.383916000">
        <ele>476.00</ele>
        <time>2013-07-27T10:08:09Z</time>
      </trkpt>
      <trkpt lat="42.354237000" lon="-2.383891000">
        <ele>476.10</ele>
        <time>2013-07-27T10:08:10Z</time>
      </trkpt>
      <trkpt lat="42.354207000" lon="-2.383861000">
        <ele>476.20</ele>
        <time>2013-07-27T10:08:11Z</time>
      </trkpt>
      <trkpt lat="42.354178000" lon="-2.383829000">
        <ele>476.20</ele>
        <time>2013-07-27T10:08:12Z</time>
      </trkpt>
      <trkpt lat="42.354150000" lon="-2.383796000">
        <ele>476.30</ele>
        <time>2013-07-27T10:08:13Z</time>
      </trkpt>
      <trkpt lat="42.354124000" lon="-2.383759000">
        <ele>476.30</ele>
        <time>2013-07-27T10:08:14Z</time>
      </trkpt>
      <trkpt lat="42.354095000" lon="-2.383723000">
        <ele>476.40</ele>
        <time>2013-07-27T10:08:15Z</time>
      </trkpt>
      <trkpt lat="42.354067000" lon="-2.383684000">
        <ele>476.50</ele>
        <time>2013-07-27T10:08:16Z</time>
      </trkpt>
      <trkpt lat="42.354041000" lon="-2.383645000">
        <ele>476.60</ele>
        <time>2013-07-27T10:08:17Z</time>
      </trkpt>
      <trkpt lat="42.354013000" lon="-2.383605000">
        <ele>476.60</ele>
        <time>2013-07-27T10:08:18Z</time>
      </trkpt>
      <trkpt lat="42.353987000" lon="-2.383563000">
        <ele>476.70</ele>
        <time>2013-07-27T10:08:19Z</time>
      </trkpt>
      <trkpt lat="42.353964000" lon="-2.383521000">
        <ele>476.70</ele>
        <time>2013-07-27T10:08:20Z</time>
      </trkpt>
      <trkpt lat="42.353936000" lon="-2.383484000">
        <ele>476.80</ele>
        <time>2013-07-27T10:08:21Z</time>
      </trkpt>
      <trkpt lat="42.353908000" lon="-2.383443000">
        <ele>476.80</ele>
        <time>2013-07-27T10:08:22Z</time>
      </trkpt>
      <trkpt lat="42.353883000" lon="-2.383405000">
        <ele>476.60</ele>
        <time>2013-07-27T10:08:23Z</time>
      </trkpt>
      <trkpt lat="42.353858000" lon="-2.383367000">
        <ele>476.50</ele>
        <time>2013-07-27T10:08:24Z</time>
      </trkpt>
      <trkpt lat="42.353832000" lon="-2.383329000">
        <ele>476.40</ele>
        <time>2013-07-27T10:08:25Z</time>
      </trkpt>
      <trkpt lat="42.353805000" lon="-2.383291000">
        <ele>476.30</ele>
        <time>2013-07-27T10:08:26Z</time>
      </trkpt>
      <trkpt lat="42.353777000" lon="-2.383254000">
        <ele>476.20</ele>
        <time>2013-07-27T10:08:27Z</time>
      </trkpt>
      <trkpt lat="42.353752000" lon="-2.383217000">
        <ele>476.20</ele>
        <time>2013-07-27T10:08:28Z</time>
      </trkpt>
      <trkpt lat="42.353726000" lon="-2.383178000">
        <ele>476.20</ele>
        <time>2013-07-27T10:08:29Z</time>
      </trkpt>
      <trkpt lat="42.353699000" lon="-2.383139000">
        <ele>476.30</ele>
        <time>2013-07-27T10:08:30Z</time>
      </trkpt>
      <trkpt lat="42.353672000" lon="-2.383098000">
        <ele>476.20</ele>
        <time>2013-07-27T10:08:31Z</time>
      </trkpt>
      <trkpt lat="42.353645000" lon="-2.383059000">
        <ele>476.10</ele>
        <time>2013-07-27T10:08:32Z</time>
      </trkpt>
      <trkpt lat="42.353618000" lon="-2.383020000">
        <ele>476.00</ele>
        <time>2013-07-27T10:08:33Z</time>
      </trkpt>
      <trkpt lat="42.353590000" lon="-2.382980000">
        <ele>476.00</ele>
        <time>2013-07-27T10:08:34Z</time>
      </trkpt>
      <trkpt lat="42.353561000" lon="-2.382937000">
        <ele>476.00</ele>
        <time>2013-07-27T10:08:35Z</time>
      </trkpt>
      <trkpt lat="42.353533000" lon="-2.382893000">
        <ele>476.00</ele>
        <time>2013-07-27T10:08:36Z</time>
      </trkpt>
      <trkpt lat="42.353504000" lon="-2.382852000">
        <ele>475.90</ele>
        <time>2013-07-27T10:08:37Z</time>
      </trkpt>
      <trkpt lat="42.353479000" lon="-2.382810000">
        <ele>475.90</ele>
        <time>2013-07-27T10:08:38Z</time>
      </trkpt>
      <trkpt lat="42.353455000" lon="-2.382770000">
        <ele>476.10</ele>
        <time>2013-07-27T10:08:39Z</time>
      </trkpt>
      <trkpt lat="42.353433000" lon="-2.382727000">
        <ele>476.20</ele>
        <time>2013-07-27T10:08:40Z</time>
      </trkpt>
      <trkpt lat="42.353410000" lon="-2.382682000">
        <ele>476.20</ele>
        <time>2013-07-27T10:08:41Z</time>
      </trkpt>
      <trkpt lat="42.353387000" lon="-2.382636000">
        <ele>476.10</ele>
        <time>2013-07-27T10:08:42Z</time>
      </trkpt>
      <trkpt lat="42.353369000" lon="-2.382595000">
        <ele>476.20</ele>
        <time>2013-07-27T10:08:43Z</time>
      </trkpt>
      <trkpt lat="42.353352000" lon="-2.382554000">
        <ele>476.20</ele>
        <time>2013-07-27T10:08:44Z</time>
      </trkpt>
      <trkpt lat="42.353338000" lon="-2.382512000">
        <ele>476.20</ele>
        <time>2013-07-27T10:08:45Z</time>
      </trkpt>
      <trkpt lat="42.353326000" lon="-2.382471000">
        <ele>476.20</ele>
        <time>2013-07-27T10:08:46Z</time>
      </trkpt>
      <trkpt lat="42.353315000" lon="-2.382427000">
        <ele>476.20</ele>
        <time>2013-07-27T10:08:47Z</time>
      </trkpt>
      <trkpt lat="42.353309000" lon="-2.382383000">
        <ele>476.20</ele>
        <time>2013-07-27T10:08:48Z</time>
      </trkpt>
      <trkpt lat="42.353306000" lon="-2.382339000">
        <ele>476.40</ele>
        <time>2013-07-27T10:08:49Z</time>
      </trkpt>
      <trkpt lat="42.353303000" lon="-2.382296000">
        <ele>476.50</ele>
        <time>2013-07-27T10:08:50Z</time>
      </trkpt>
      <trkpt lat="42.353304000" lon="-2.382252000">
        <ele>476.90</ele>
        <time>2013-07-27T10:08:51Z</time>
      </trkpt>
      <trkpt lat="42.353305000" lon="-2.382208000">
        <ele>477.20</ele>
        <time>2013-07-27T10:08:52Z</time>
      </trkpt>
      <trkpt lat="42.353310000" lon="-2.382164000">
        <ele>477.50</ele>
        <time>2013-07-27T10:08:53Z</time>
      </trkpt>
      <trkpt lat="42.353317000" lon="-2.382120000">
        <ele>477.80</ele>
        <time>2013-07-27T10:08:54Z</time>
      </trkpt>
      <trkpt lat="42.353326000" lon="-2.382077000">
        <ele>478.00</ele>
        <time>2013-07-27T10:08:55Z</time>
      </trkpt>
      <trkpt lat="42.353342000" lon="-2.382033000">
        <ele>478.20</ele>
        <time>2013-07-27T10:08:56Z</time>
      </trkpt>
      <trkpt lat="42.353360000" lon="-2.381990000">
        <ele>478.30</ele>
        <time>2013-07-27T10:08:57Z</time>
      </trkpt>
      <trkpt lat="42.353379000" lon="-2.381948000">
        <ele>478.50</ele>
        <time>2013-07-27T10:08:58Z</time>
      </trkpt>
      <trkpt lat="42.353399000" lon="-2.381907000">
        <ele>478.50</ele>
        <time>2013-07-27T10:08:59Z</time>
      </trkpt>
      <trkpt lat="42.353419000" lon="-2.381866000">
        <ele>478.50</ele>
        <time>2013-07-27T10:09:00Z</time>
      </trkpt>
      <trkpt lat="42.353442000" lon="-2.381825000">
        <ele>478.90</ele>
        <time>2013-07-27T10:09:01Z</time>
      </trkpt>
      <trkpt lat="42.353467000" lon="-2.381785000">
        <ele>479.10</ele>
        <time>2013-07-27T10:09:02Z</time>
      </trkpt>
      <trkpt lat="42.353488000" lon="-2.381742000">
        <ele>479.50</ele>
        <time>2013-07-27T10:09:03Z</time>
      </trkpt>
      <trkpt lat="42.353510000" lon="-2.381704000">
        <ele>479.70</ele>
        <time>2013-07-27T10:09:04Z</time>
      </trkpt>
      <trkpt lat="42.353532000" lon="-2.381666000">
        <ele>479.90</ele>
        <time>2013-07-27T10:09:05Z</time>
      </trkpt>
      <trkpt lat="42.353553000" lon="-2.381630000">
        <ele>480.00</ele>
        <time>2013-07-27T10:09:06Z</time>
      </trkpt>
      <trkpt lat="42.353573000" lon="-2.381598000">
        <ele>480.10</ele>
        <time>2013-07-27T10:09:07Z</time>
      </trkpt>
      <trkpt lat="42.353591000" lon="-2.381561000">
        <ele>480.20</ele>
        <time>2013-07-27T10:09:08Z</time>
      </trkpt>
      <trkpt lat="42.353611000" lon="-2.381524000">
        <ele>480.30</ele>
        <time>2013-07-27T10:09:09Z</time>
      </trkpt>
      <trkpt lat="42.353629000" lon="-2.381487000">
        <ele>480.40</ele>
        <time>2013-07-27T10:09:10Z</time>
      </trkpt>
      <trkpt lat="42.353646000" lon="-2.381451000">
        <ele>480.40</ele>
        <time>2013-07-27T10:09:11Z</time>
      </trkpt>
      <trkpt lat="42.353665000" lon="-2.381414000">
        <ele>480.40</ele>
        <time>2013-07-27T10:09:12Z</time>
      </trkpt>
      <trkpt lat="42.353682000" lon="-2.381380000">
        <ele>480.40</ele>
        <time>2013-07-27T10:09:13Z</time>
      </trkpt>
      <trkpt lat="42.353697000" lon="-2.381345000">
        <ele>480.40</ele>
        <time>2013-07-27T10:09:14Z</time>
      </trkpt>
      <trkpt lat="42.353711000" lon="-2.381310000">
        <ele>480.40</ele>
        <time>2013-07-27T10:09:15Z</time>
      </trkpt>
      <trkpt lat="42.353726000" lon="-2.381276000">
        <ele>480.40</ele>
        <time>2013-07-27T10:09:16Z</time>
      </trkpt>
      <trkpt lat="42.353742000" lon="-2.381244000">
        <ele>480.40</ele>
        <time>2013-07-27T10:09:17Z</time>
      </trkpt>
      <trkpt lat="42.353756000" lon="-2.381210000">
        <ele>480.40</ele>
        <time>2013-07-27T10:09:18Z</time>
      </trkpt>
      <trkpt lat="42.353770000" lon="-2.381174000">
        <ele>480.70</ele>
        <time>2013-07-27T10:09:19Z</time>
      </trkpt>
      <trkpt lat="42.353785000" lon="-2.381142000">
        <ele>480.90</ele>
        <time>2013-07-27T10:09:20Z</time>
      </trkpt>
      <trkpt lat="42.353797000" lon="-2.381106000">
        <ele>481.10</ele>
        <time>2013-07-27T10:09:21Z</time>
      </trkpt>
      <trkpt lat="42.353811000" lon="-2.381070000">
        <ele>481.30</ele>
        <time>2013-07-27T10:09:22Z</time>
      </trkpt>
      <trkpt lat="42.353827000" lon="-2.381034000">
        <ele>481.70</ele>
        <time>2013-07-27T10:09:23Z</time>
      </trkpt>
      <trkpt lat="42.353839000" lon="-2.380999000">
        <ele>482.00</ele>
        <time>2013-07-27T10:09:24Z</time>
      </trkpt>
      <trkpt lat="42.353853000" lon="-2.380961000">
        <ele>482.40</ele>
        <time>2013-07-27T10:09:25Z</time>
      </trkpt>
      <trkpt lat="42.353864000" lon="-2.380925000">
        <ele>482.60</ele>
        <time>2013-07-27T10:09:26Z</time>
      </trkpt>
      <trkpt lat="42.353878000" lon="-2.380892000">
        <ele>482.80</ele>
        <time>2013-07-27T10:09:27Z</time>
      </trkpt>
      <trkpt lat="42.353894000" lon="-2.380857000">
        <ele>482.90</ele>
        <time>2013-07-27T10:09:28Z</time>
      </trkpt>
      <trkpt lat="42.353912000" lon="-2.380816000">
        <ele>483.00</ele>
        <time>2013-07-27T10:09:29Z</time>
      </trkpt>
      <trkpt lat="42.353926000" lon="-2.380780000">
        <ele>483.10</ele>
        <time>2013-07-27T10:09:30Z</time>
      </trkpt>
      <trkpt lat="42.353939000" lon="-2.380744000">
        <ele>483.20</ele>
        <time>2013-07-27T10:09:31Z</time>
      </trkpt>
      <trkpt lat="42.353953000" lon="-2.380709000">
        <ele>483.30</ele>
        <time>2013-07-27T10:09:32Z</time>
      </trkpt>
      <trkpt lat="42.353969000" lon="-2.380676000">
        <ele>483.40</ele>
        <time>2013-07-27T10:09:33Z</time>
      </trkpt>
      <trkpt lat="42.353983000" lon="-2.380644000">
        <ele>483.40</ele>
        <time>2013-07-27T10:09:34Z</time>
      </trkpt>
      <trkpt lat="42.353999000" lon="-2.380614000">
        <ele>483.80</ele>
        <time>2013-07-27T10:09:35Z</time>
      </trkpt>
      <trkpt lat="42.354014000" lon="-2.380583000">
        <ele>484.00</ele>
        <time>2013-07-27T10:09:36Z</time>
      </trkpt>
      <trkpt lat="42.354028000" lon="-2.380550000">
        <ele>484.30</ele>
        <time>2013-07-27T10:09:37Z</time>
      </trkpt>
      <trkpt lat="42.354040000" lon="-2.380515000">
        <ele>484.50</ele>
        <time>2013-07-27T10:09:38Z</time>
      </trkpt>
      <trkpt lat="42.354056000" lon="-2.380480000">
        <ele>484.60</ele>
        <time>2013-07-27T10:09:39Z</time>
      </trkpt>
      <trkpt lat="42.354071000" lon="-2.380446000">
        <ele>484.70</ele>
        <time>2013-07-27T10:09:40Z</time>
      </trkpt>
      <trkpt lat="42.354083000" lon="-2.380410000">
        <ele>485.00</ele>
        <time>2013-07-27T10:09:41Z</time>
      </trkpt>
      <trkpt lat="42.354099000" lon="-2.380376000">
        <ele>485.20</ele>
        <time>2013-07-27T10:09:42Z</time>
      </trkpt>
      <trkpt lat="42.354111000" lon="-2.380341000">
        <ele>485.40</ele>
        <time>2013-07-27T10:09:43Z</time>
      </trkpt>
      <trkpt lat="42.354124000" lon="-2.380303000">
        <ele>485.50</ele>
        <time>2013-07-27T10:09:44Z</time>
      </trkpt>
      <trkpt lat="42.354140000" lon="-2.380270000">
        <ele>485.70</ele>
        <time>2013-07-27T10:09:45Z</time>
      </trkpt>
      <trkpt lat="42.354148000" lon="-2.380232000">
        <ele>485.80</ele>
        <time>2013-07-27T10:09:46Z</time>
      </trkpt>
      <trkpt lat="42.354146000" lon="-2.380194000">
        <ele>485.80</ele>
        <time>2013-07-27T10:09:47Z</time>
      </trkpt>
      <trkpt lat="42.354142000" lon="-2.380160000">
        <ele>485.90</ele>
        <time>2013-07-27T10:09:48Z</time>
      </trkpt>
      <trkpt lat="42.354121000" lon="-2.380137000">
        <ele>486.10</ele>
        <time>2013-07-27T10:09:49Z</time>
      </trkpt>
      <trkpt lat="42.354086000" lon="-2.380132000">
        <ele>486.20</ele>
        <time>2013-07-27T10:09:50Z</time>
      </trkpt>
      <trkpt lat="42.354054000" lon="-2.380136000">
        <ele>486.40</ele>
        <time>2013-07-27T10:09:51Z</time>
      </trkpt>
      <trkpt lat="42.354029000" lon="-2.380151000">
        <ele>486.50</ele>
        <time>2013-07-27T10:09:52Z</time>
      </trkpt>
      <trkpt lat="42.354011000" lon="-2.380177000">
        <ele>486.60</ele>
        <time>2013-07-27T10:09:53Z</time>
      </trkpt>
      <trkpt lat="42.353992000" lon="-2.380204000">
        <ele>486.60</ele>
        <time>2013-07-27T10:09:54Z</time>
      </trkpt>
      <trkpt lat="42.353975000" lon="-2.380234000">
        <ele>486.70</ele>
        <time>2013-07-27T10:09:55Z</time>
      </trkpt>
      <trkpt lat="42.353959000" lon="-2.380266000">
        <ele>486.70</ele>
        <time>2013-07-27T10:09:56Z</time>
      </trkpt>
      <trkpt lat="42.353936000" lon="-2.380295000">
        <ele>487.20</ele>
        <time>2013-07-27T10:09:57Z</time>
      </trkpt>
      <trkpt lat="42.353917000" lon="-2.380322000">
        <ele>487.50</ele>
        <time>2013-07-27T10:09:58Z</time>
      </trkpt>
      <trkpt lat="42.353897000" lon="-2.380351000">
        <ele>487.80</ele>
        <time>2013-07-27T10:09:59Z</time>
      </trkpt>
      <trkpt lat="42.353876000" lon="-2.380379000">
        <ele>488.10</ele>
        <time>2013-07-27T10:10:00Z</time>
      </trkpt>
      <trkpt lat="42.353855000" lon="-2.380408000">
        <ele>488.20</ele>
        <time>2013-07-27T10:10:01Z</time>
      </trkpt>
      <trkpt lat="42.353836000" lon="-2.380434000">
        <ele>488.40</ele>
        <time>2013-07-27T10:10:02Z</time>
      </trkpt>
      <trkpt lat="42.353817000" lon="-2.380461000">
        <ele>488.70</ele>
        <time>2013-07-27T10:10:03Z</time>
      </trkpt>
      <trkpt lat="42.353802000" lon="-2.380485000">
        <ele>489.00</ele>
        <time>2013-07-27T10:10:04Z</time>
      </trkpt>
      <trkpt lat="42.353786000" lon="-2.380513000">
        <ele>489.30</ele>
        <time>2013-07-27T10:10:05Z</time>
      </trkpt>
      <trkpt lat="42.353768000" lon="-2.380536000">
        <ele>489.60</ele>
        <time>2013-07-27T10:10:06Z</time>
      </trkpt>
      <trkpt lat="42.353752000" lon="-2.380561000">
        <ele>489.60</ele>
        <time>2013-07-27T10:10:07Z</time>
      </trkpt>
      <trkpt lat="42.353734000" lon="-2.380588000">
        <ele>489.70</ele>
        <time>2013-07-27T10:10:08Z</time>
      </trkpt>
      <trkpt lat="42.353717000" lon="-2.380616000">
        <ele>489.80</ele>
        <time>2013-07-27T10:10:09Z</time>
      </trkpt>
      <trkpt lat="42.353700000" lon="-2.380644000">
        <ele>489.90</ele>
        <time>2013-07-27T10:10:10Z</time>
      </trkpt>
      <trkpt lat="42.353683000" lon="-2.380670000">
        <ele>489.80</ele>
        <time>2013-07-27T10:10:11Z</time>
      </trkpt>
      <trkpt lat="42.353666000" lon="-2.380700000">
        <ele>489.80</ele>
        <time>2013-07-27T10:10:12Z</time>
      </trkpt>
      <trkpt lat="42.353646000" lon="-2.380729000">
        <ele>489.90</ele>
        <time>2013-07-27T10:10:13Z</time>
      </trkpt>
      <trkpt lat="42.353625000" lon="-2.380755000">
        <ele>489.90</ele>
        <time>2013-07-27T10:10:14Z</time>
      </trkpt>
      <trkpt lat="42.353608000" lon="-2.380782000">
        <ele>490.10</ele>
        <time>2013-07-27T10:10:15Z</time>
      </trkpt>
      <trkpt lat="42.353592000" lon="-2.380810000">
        <ele>490.20</ele>
        <time>2013-07-27T10:10:16Z</time>
      </trkpt>
      <trkpt lat="42.353573000" lon="-2.380839000">
        <ele>490.50</ele>
        <time>2013-07-27T10:10:17Z</time>
      </trkpt>
      <trkpt lat="42.353558000" lon="-2.380870000">
        <ele>490.70</ele>
        <time>2013-07-27T10:10:18Z</time>
      </trkpt>
      <trkpt lat="42.353539000" lon="-2.380894000">
        <ele>490.80</ele>
        <time>2013-07-27T10:10:19Z</time>
      </trkpt>
      <trkpt lat="42.353522000" lon="-2.380921000">
        <ele>491.00</ele>
        <time>2013-07-27T10:10:20Z</time>
      </trkpt>
      <trkpt lat="42.353506000" lon="-2.380947000">
        <ele>491.10</ele>
        <time>2013-07-27T10:10:21Z</time>
      </trkpt>
      <trkpt lat="42.353487000" lon="-2.380973000">
        <ele>491.10</ele>
        <time>2013-07-27T10:10:22Z</time>
      </trkpt>
      <trkpt lat="42.353469000" lon="-2.381000000">
        <ele>491.10</ele>
        <time>2013-07-27T10:10:23Z</time>
      </trkpt>
      <trkpt lat="42.353449000" lon="-2.381025000">
        <ele>491.20</ele>
        <time>2013-07-27T10:10:24Z</time>
      </trkpt>
      <trkpt lat="42.353429000" lon="-2.381054000">
        <ele>491.50</ele>
        <time>2013-07-27T10:10:25Z</time>
      </trkpt>
      <trkpt lat="42.353409000" lon="-2.381082000">
        <ele>491.70</ele>
        <time>2013-07-27T10:10:26Z</time>
      </trkpt>
      <trkpt lat="42.353390000" lon="-2.381114000">
        <ele>491.80</ele>
        <time>2013-07-27T10:10:27Z</time>
      </trkpt>
      <trkpt lat="42.353372000" lon="-2.381144000">
        <ele>491.80</ele>
        <time>2013-07-27T10:10:28Z</time>
      </trkpt>
      <trkpt lat="42.353352000" lon="-2.381178000">
        <ele>491.90</ele>
        <time>2013-07-27T10:10:29Z</time>
      </trkpt>
      <trkpt lat="42.353330000" lon="-2.381207000">
        <ele>491.90</ele>
        <time>2013-07-27T10:10:30Z</time>
      </trkpt>
      <trkpt lat="42.353313000" lon="-2.381241000">
        <ele>491.90</ele>
        <time>2013-07-27T10:10:31Z</time>
      </trkpt>
      <trkpt lat="42.353294000" lon="-2.381272000">
        <ele>492.00</ele>
        <time>2013-07-27T10:10:32Z</time>
      </trkpt>
      <trkpt lat="42.353276000" lon="-2.381300000">
        <ele>492.10</ele>
        <time>2013-07-27T10:10:33Z</time>
      </trkpt>
      <trkpt lat="42.353257000" lon="-2.381327000">
        <ele>492.20</ele>
        <time>2013-07-27T10:10:34Z</time>
      </trkpt>
      <trkpt lat="42.353242000" lon="-2.381356000">
        <ele>492.40</ele>
        <time>2013-07-27T10:10:35Z</time>
      </trkpt>
      <trkpt lat="42.353223000" lon="-2.381382000">
        <ele>492.60</ele>
        <time>2013-07-27T10:10:36Z</time>
      </trkpt>
      <trkpt lat="42.353206000" lon="-2.381414000">
        <ele>492.70</ele>
        <time>2013-07-27T10:10:37Z</time>
      </trkpt>
      <trkpt lat="42.353189000" lon="-2.381443000">
        <ele>492.80</ele>
        <time>2013-07-27T10:10:38Z</time>
      </trkpt>
      <trkpt lat="42.353172000" lon="-2.381474000">
        <ele>493.10</ele>
        <time>2013-07-27T10:10:39Z</time>
      </trkpt>
      <trkpt lat="42.353152000" lon="-2.381505000">
        <ele>493.40</ele>
        <time>2013-07-27T10:10:40Z</time>
      </trkpt>
      <trkpt lat="42.353133000" lon="-2.381530000">
        <ele>493.60</ele>
        <time>2013-07-27T10:10:41Z</time>
      </trkpt>
      <trkpt lat="42.353119000" lon="-2.381559000">
        <ele>493.70</ele>
        <time>2013-07-27T10:10:42Z</time>
      </trkpt>
      <trkpt lat="42.353103000" lon="-2.381587000">
        <ele>493.80</ele>
        <time>2013-07-27T10:10:43Z</time>
      </trkpt>
      <trkpt lat="42.353085000" lon="-2.381615000">
        <ele>493.90</ele>
        <time>2013-07-27T10:10:44Z</time>
      </trkpt>
      <trkpt lat="42.353064000" lon="-2.381640000">
        <ele>493.90</ele>
        <time>2013-07-27T10:10:45Z</time>
      </trkpt>
      <trkpt lat="42.353045000" lon="-2.381667000">
        <ele>494.00</ele>
        <time>2013-07-27T10:10:46Z</time>
      </trkpt>
      <trkpt lat="42.353025000" lon="-2.381699000">
        <ele>494.10</ele>
        <time>2013-07-27T10:10:47Z</time>
      </trkpt>
      <trkpt lat="42.353006000" lon="-2.381727000">
        <ele>494.20</ele>
        <time>2013-07-27T10:10:48Z</time>
      </trkpt>
      <trkpt lat="42.352986000" lon="-2.381756000">
        <ele>494.40</ele>
        <time>2013-07-27T10:10:49Z</time>
      </trkpt>
      <trkpt lat="42.352965000" lon="-2.381785000">
        <ele>494.50</ele>
        <time>2013-07-27T10:10:50Z</time>
      </trkpt>
      <trkpt lat="42.352947000" lon="-2.381816000">
        <ele>494.60</ele>
        <time>2013-07-27T10:10:51Z</time>
      </trkpt>
      <trkpt lat="42.352927000" lon="-2.381844000">
        <ele>494.70</ele>
        <time>2013-07-27T10:10:52Z</time>
      </trkpt>
      <trkpt lat="42.352908000" lon="-2.381874000">
        <ele>494.80</ele>
        <time>2013-07-27T10:10:53Z</time>
      </trkpt>
      <trkpt lat="42.352887000" lon="-2.381904000">
        <ele>494.90</ele>
        <time>2013-07-27T10:10:54Z</time>
      </trkpt>
      <trkpt lat="42.352869000" lon="-2.381935000">
        <ele>495.00</ele>
        <time>2013-07-27T10:10:55Z</time>
      </trkpt>
      <trkpt lat="42.352852000" lon="-2.381962000">
        <ele>495.10</ele>
        <time>2013-07-27T10:10:56Z</time>
      </trkpt>
      <trkpt lat="42.352833000" lon="-2.381989000">
        <ele>495.30</ele>
        <time>2013-07-27T10:10:57Z</time>
      </trkpt>
      <trkpt lat="42.352813000" lon="-2.382015000">
        <ele>495.40</ele>
        <time>2013-07-27T10:10:58Z</time>
      </trkpt>
      <trkpt lat="42.352794000" lon="-2.382043000">
        <ele>495.50</ele>
        <time>2013-07-27T10:10:59Z</time>
      </trkpt>
      <trkpt lat="42.352772000" lon="-2.382070000">
        <ele>495.60</ele>
        <time>2013-07-27T10:11:00Z</time>
      </trkpt>
      <trkpt lat="42.352745000" lon="-2.382085000">
        <ele>495.70</ele>
        <time>2013-07-27T10:11:01Z</time>
      </trkpt>
      <trkpt lat="42.352717000" lon="-2.382093000">
        <ele>495.80</ele>
        <time>2013-07-27T10:11:02Z</time>
      </trkpt>
      <trkpt lat="42.352688000" lon="-2.382090000">
        <ele>496.00</ele>
        <time>2013-07-27T10:11:03Z</time>
      </trkpt>
      <trkpt lat="42.352660000" lon="-2.382076000">
        <ele>496.20</ele>
        <time>2013-07-27T10:11:04Z</time>
      </trkpt>
      <trkpt lat="42.352633000" lon="-2.382058000">
        <ele>496.30</ele>
        <time>2013-07-27T10:11:05Z</time>
      </trkpt>
      <trkpt lat="42.352607000" lon="-2.382028000">
        <ele>496.30</ele>
        <time>2013-07-27T10:11:06Z</time>
      </trkpt>
      <trkpt lat="42.352592000" lon="-2.381990000">
        <ele>496.40</ele>
        <time>2013-07-27T10:11:07Z</time>
      </trkpt>
      <trkpt lat="42.352587000" lon="-2.381945000">
        <ele>496.50</ele>
        <time>2013-07-27T10:11:08Z</time>
      </trkpt>
      <trkpt lat="42.352595000" lon="-2.381897000">
        <ele>496.60</ele>
        <time>2013-07-27T10:11:09Z</time>
      </trkpt>
      <trkpt lat="42.352609000" lon="-2.381850000">
        <ele>496.70</ele>
        <time>2013-07-27T10:11:10Z</time>
      </trkpt>
      <trkpt lat="42.352629000" lon="-2.381809000">
        <ele>497.00</ele>
        <time>2013-07-27T10:11:11Z</time>
      </trkpt>
      <trkpt lat="42.352656000" lon="-2.381776000">
        <ele>497.20</ele>
        <time>2013-07-27T10:11:12Z</time>
      </trkpt>
      <trkpt lat="42.352686000" lon="-2.381751000">
        <ele>497.50</ele>
        <time>2013-07-27T10:11:13Z</time>
      </trkpt>
      <trkpt lat="42.352717000" lon="-2.381726000">
        <ele>497.70</ele>
        <time>2013-07-27T10:11:14Z</time>
      </trkpt>
      <trkpt lat="42.352749000" lon="-2.381693000">
        <ele>498.00</ele>
        <time>2013-07-27T10:11:15Z</time>
      </trkpt>
      <trkpt lat="42.352776000" lon="-2.381671000">
        <ele>498.10</ele>
        <time>2013-07-27T10:11:16Z</time>
      </trkpt>
      <trkpt lat="42.352801000" lon="-2.381646000">
        <ele>498.50</ele>
        <time>2013-07-27T10:11:17Z</time>
      </trkpt>
      <trkpt lat="42.352826000" lon="-2.381623000">
        <ele>498.70</ele>
        <time>2013-07-27T10:11:18Z</time>
      </trkpt>
      <trkpt lat="42.352846000" lon="-2.381597000">
        <ele>498.90</ele>
        <time>2013-07-27T10:11:19Z</time>
      </trkpt>
      <trkpt lat="42.352864000" lon="-2.381568000">
        <ele>499.00</ele>
        <time>2013-07-27T10:11:20Z</time>
      </trkpt>
      <trkpt lat="42.352877000" lon="-2.381535000">
        <ele>499.20</ele>
        <time>2013-07-27T10:11:21Z</time>
      </trkpt>
      <trkpt lat="42.352888000" lon="-2.381507000">
        <ele>499.20</ele>
        <time>2013-07-27T10:11:22Z</time>
      </trkpt>
      <trkpt lat="42.352895000" lon="-2.381472000">
        <ele>499.60</ele>
        <time>2013-07-27T10:11:23Z</time>
      </trkpt>
      <trkpt lat="42.352905000" lon="-2.381434000">
        <ele>499.80</ele>
        <time>2013-07-27T10:11:24Z</time>
      </trkpt>
      <trkpt lat="42.352911000" lon="-2.381394000">
        <ele>500.00</ele>
        <time>2013-07-27T10:11:25Z</time>
      </trkpt>
      <trkpt lat="42.352917000" lon="-2.381357000">
        <ele>500.20</ele>
        <time>2013-07-27T10:11:26Z</time>
      </trkpt>
      <trkpt lat="42.352921000" lon="-2.381314000">
        <ele>500.40</ele>
        <time>2013-07-27T10:11:27Z</time>
      </trkpt>
      <trkpt lat="42.352927000" lon="-2.381271000">
        <ele>500.60</ele>
        <time>2013-07-27T10:11:28Z</time>
      </trkpt>
      <trkpt lat="42.352935000" lon="-2.381231000">
        <ele>500.90</ele>
        <time>2013-07-27T10:11:29Z</time>
      </trkpt>
      <trkpt lat="42.352940000" lon="-2.381189000">
        <ele>501.10</ele>
        <time>2013-07-27T10:11:30Z</time>
      </trkpt>
      <trkpt lat="42.352945000" lon="-2.381149000">
        <ele>501.40</ele>
        <time>2013-07-27T10:11:31Z</time>
      </trkpt>
      <trkpt lat="42.352950000" lon="-2.381108000">
        <ele>501.60</ele>
        <time>2013-07-27T10:11:32Z</time>
      </trkpt>
      <trkpt lat="42.352957000" lon="-2.381065000">
        <ele>501.70</ele>
        <time>2013-07-27T10:11:33Z</time>
      </trkpt>
      <trkpt lat="42.352964000" lon="-2.381026000">
        <ele>501.80</ele>
        <time>2013-07-27T10:11:34Z</time>
      </trkpt>
      <trkpt lat="42.352969000" lon="-2.380985000">
        <ele>501.90</ele>
        <time>2013-07-27T10:11:35Z</time>
      </trkpt>
      <trkpt lat="42.352973000" lon="-2.380947000">
        <ele>502.10</ele>
        <time>2013-07-27T10:11:36Z</time>
      </trkpt>
      <trkpt lat="42.352980000" lon="-2.380909000">
        <ele>502.20</ele>
        <time>2013-07-27T10:11:37Z</time>
      </trkpt>
      <trkpt lat="42.352989000" lon="-2.380870000">
        <ele>502.40</ele>
        <time>2013-07-27T10:11:38Z</time>
      </trkpt>
      <trkpt lat="42.353001000" lon="-2.380832000">
        <ele>502.60</ele>
        <time>2013-07-27T10:11:39Z</time>
      </trkpt>
      <trkpt lat="42.353014000" lon="-2.380793000">
        <ele>502.70</ele>
        <time>2013-07-27T10:11:40Z</time>
      </trkpt>
      <trkpt lat="42.353030000" lon="-2.380755000">
        <ele>502.90</ele>
        <time>2013-07-27T10:11:41Z</time>
      </trkpt>
      <trkpt lat="42.353050000" lon="-2.380720000">
        <ele>503.10</ele>
        <time>2013-07-27T10:11:42Z</time>
      </trkpt>
      <trkpt lat="42.353072000" lon="-2.380686000">
        <ele>503.30</ele>
        <time>2013-07-27T10:11:43Z</time>
      </trkpt>
      <trkpt lat="42.353092000" lon="-2.380654000">
        <ele>503.40</ele>
        <time>2013-07-27T10:11:44Z</time>
      </trkpt>
      <trkpt lat="42.353116000" lon="-2.380623000">
        <ele>503.50</ele>
        <time>2013-07-27T10:11:45Z</time>
      </trkpt>
      <trkpt lat="42.353142000" lon="-2.380593000">
        <ele>503.60</ele>
        <time>2013-07-27T10:11:46Z</time>
      </trkpt>
      <trkpt lat="42.353168000" lon="-2.380561000">
        <ele>503.70</ele>
        <time>2013-07-27T10:11:47Z</time>
      </trkpt>
      <trkpt lat="42.353195000" lon="-2.380530000">
        <ele>503.70</ele>
        <time>2013-07-27T10:11:48Z</time>
      </trkpt>
      <trkpt lat="42.353218000" lon="-2.380504000">
        <ele>503.80</ele>
        <time>2013-07-27T10:11:49Z</time>
      </trkpt>
      <trkpt lat="42.353245000" lon="-2.380474000">
        <ele>503.80</ele>
        <time>2013-07-27T10:11:50Z</time>
      </trkpt>
      <trkpt lat="42.353268000" lon="-2.380446000">
        <ele>504.00</ele>
        <time>2013-07-27T10:11:51Z</time>
      </trkpt>
      <trkpt lat="42.353292000" lon="-2.380419000">
        <ele>504.20</ele>
        <time>2013-07-27T10:11:52Z</time>
      </trkpt>
      <trkpt lat="42.353314000" lon="-2.380397000">
        <ele>504.40</ele>
        <time>2013-07-27T10:11:53Z</time>
      </trkpt>
      <trkpt lat="42.353336000" lon="-2.380376000">
        <ele>504.50</ele>
        <time>2013-07-27T10:11:54Z</time>
      </trkpt>
      <trkpt lat="42.353358000" lon="-2.380357000">
        <ele>504.60</ele>
        <time>2013-07-27T10:11:55Z</time>
      </trkpt>
      <trkpt lat="42.353380000" lon="-2.380333000">
        <ele>504.70</ele>
        <time>2013-07-27T10:11:56Z</time>
      </trkpt>
      <trkpt lat="42.353404000" lon="-2.380304000">
        <ele>504.80</ele>
        <time>2013-07-27T10:11:57Z</time>
      </trkpt>
      <trkpt lat="42.353427000" lon="-2.380281000">
        <ele>504.90</ele>
        <time>2013-07-27T10:11:58Z</time>
      </trkpt>
      <trkpt lat="42.353450000" lon="-2.380254000">
        <ele>505.00</ele>
        <time>2013-07-27T10:11:59Z</time>
      </trkpt>
      <trkpt lat="42.353473000" lon="-2.380231000">
        <ele>505.10</ele>
        <time>2013-07-27T10:12:00Z</time>
      </trkpt>
      <trkpt lat="42.353494000" lon="-2.380211000">
        <ele>505.20</ele>
        <time>2013-07-27T10:12:01Z</time>
      </trkpt>
      <trkpt lat="42.353518000" lon="-2.380185000">
        <ele>505.30</ele>
        <time>2013-07-27T10:12:02Z</time>
      </trkpt>
      <trkpt lat="42.353543000" lon="-2.380161000">
        <ele>505.30</ele>
        <time>2013-07-27T10:12:03Z</time>
      </trkpt>
      <trkpt lat="42.353567000" lon="-2.380137000">
        <ele>505.30</ele>
        <time>2013-07-27T10:12:04Z</time>
      </trkpt>
      <trkpt lat="42.353589000" lon="-2.380108000">
        <ele>505.60</ele>
        <time>2013-07-27T10:12:05Z</time>
      </trkpt>
      <trkpt lat="42.353613000" lon="-2.380080000">
        <ele>505.70</ele>
        <time>2013-07-27T10:12:06Z</time>
      </trkpt>
      <trkpt lat="42.353635000" lon="-2.380053000">
        <ele>505.90</ele>
        <time>2013-07-27T10:12:07Z</time>
      </trkpt>
      <trkpt lat="42.353658000" lon="-2.380027000">
        <ele>506.10</ele>
        <time>2013-07-27T10:12:08Z</time>
      </trkpt>
      <trkpt lat="42.353680000" lon="-2.380001000">
        <ele>506.40</ele>
        <time>2013-07-27T10:12:09Z</time>
      </trkpt>
      <trkpt lat="42.353704000" lon="-2.379971000">
        <ele>506.60</ele>
        <time>2013-07-27T10:12:10Z</time>
      </trkpt>
      <trkpt lat="42.353724000" lon="-2.379944000">
        <ele>506.70</ele>
        <time>2013-07-27T10:12:11Z</time>
      </trkpt>
      <trkpt lat="42.353745000" lon="-2.379910000">
        <ele>506.80</ele>
        <time>2013-07-27T10:12:12Z</time>
      </trkpt>
      <trkpt lat="42.353763000" lon="-2.379876000">
        <ele>507.10</ele>
        <time>2013-07-27T10:12:13Z</time>
      </trkpt>
      <trkpt lat="42.353778000" lon="-2.379839000">
        <ele>507.20</ele>
        <time>2013-07-27T10:12:14Z</time>
      </trkpt>
      <trkpt lat="42.353788000" lon="-2.379798000">
        <ele>507.40</ele>
        <time>2013-07-27T10:12:15Z</time>
      </trkpt>
      <trkpt lat="42.353796000" lon="-2.379757000">
        <ele>507.40</ele>
        <time>2013-07-27T10:12:16Z</time>
      </trkpt>
      <trkpt lat="42.353803000" lon="-2.379715000">
        <ele>507.80</ele>
        <time>2013-07-27T10:12:17Z</time>
      </trkpt>
      <trkpt lat="42.353805000" lon="-2.379671000">
        <ele>508.10</ele>
        <time>2013-07-27T10:12:18Z</time>
      </trkpt>
      <trkpt lat="42.353803000" lon="-2.379630000">
        <ele>508.40</ele>
        <time>2013-07-27T10:12:19Z</time>
      </trkpt>
      <trkpt lat="42.353804000" lon="-2.379589000">
        <ele>508.50</ele>
        <time>2013-07-27T10:12:20Z</time>
      </trkpt>
      <trkpt lat="42.353804000" lon="-2.379549000">
        <ele>508.70</ele>
        <time>2013-07-27T10:12:21Z</time>
      </trkpt>
      <trkpt lat="42.353804000" lon="-2.379507000">
        <ele>508.90</ele>
        <time>2013-07-27T10:12:22Z</time>
      </trkpt>
      <trkpt lat="42.353802000" lon="-2.379471000">
        <ele>509.00</ele>
        <time>2013-07-27T10:12:23Z</time>
      </trkpt>
      <trkpt lat="42.353800000" lon="-2.379433000">
        <ele>509.10</ele>
        <time>2013-07-27T10:12:24Z</time>
      </trkpt>
      <trkpt lat="42.353799000" lon="-2.379393000">
        <ele>509.20</ele>
        <time>2013-07-27T10:12:25Z</time>
      </trkpt>
      <trkpt lat="42.353798000" lon="-2.379354000">
        <ele>509.30</ele>
        <time>2013-07-27T10:12:26Z</time>
      </trkpt>
      <trkpt lat="42.353796000" lon="-2.379316000">
        <ele>509.60</ele>
        <time>2013-07-27T10:12:27Z</time>
      </trkpt>
      <trkpt lat="42.353797000" lon="-2.379277000">
        <ele>509.90</ele>
        <time>2013-07-27T10:12:28Z</time>
      </trkpt>
      <trkpt lat="42.353793000" lon="-2.379241000">
        <ele>510.30</ele>
        <time>2013-07-27T10:12:29Z</time>
      </trkpt>
      <trkpt lat="42.353796000" lon="-2.379203000">
        <ele>510.60</ele>
        <time>2013-07-27T10:12:30Z</time>
      </trkpt>
      <trkpt lat="42.353798000" lon="-2.379162000">
        <ele>510.80</ele>
        <time>2013-07-27T10:12:31Z</time>
      </trkpt>
      <trkpt lat="42.353800000" lon="-2.379122000">
        <ele>510.90</ele>
        <time>2013-07-27T10:12:32Z</time>
      </trkpt>
      <trkpt lat="42.353806000" lon="-2.379083000">
        <ele>511.10</ele>
        <time>2013-07-27T10:12:33Z</time>
      </trkpt>
      <trkpt lat="42.353812000" lon="-2.379044000">
        <ele>511.10</ele>
        <time>2013-07-27T10:12:34Z</time>
      </trkpt>
      <trkpt lat="42.353819000" lon="-2.379003000">
        <ele>511.20</ele>
        <time>2013-07-27T10:12:35Z</time>
      </trkpt>
      <trkpt lat="42.353827000" lon="-2.378963000">
        <ele>511.30</ele>
        <time>2013-07-27T10:12:36Z</time>
      </trkpt>
      <trkpt lat="42.353833000" lon="-2.378924000">
        <ele>511.30</ele>
        <time>2013-07-27T10:12:37Z</time>
      </trkpt>
      <trkpt lat="42.353836000" lon="-2.378884000">
        <ele>511.30</ele>
        <time>2013-07-27T10:12:38Z</time>
      </trkpt>
      <trkpt lat="42.353846000" lon="-2.378844000">
        <ele>511.40</ele>
        <time>2013-07-27T10:12:39Z</time>
      </trkpt>
      <trkpt lat="42.353854000" lon="-2.378806000">
        <ele>511.40</ele>
        <time>2013-07-27T10:12:40Z</time>
      </trkpt>
      <trkpt lat="42.353861000" lon="-2.378768000">
        <ele>511.50</ele>
        <time>2013-07-27T10:12:41Z</time>
      </trkpt>
      <trkpt lat="42.353870000" lon="-2.378726000">
        <ele>511.60</ele>
        <time>2013-07-27T10:12:42Z</time>
      </trkpt>
      <trkpt lat="42.353878000" lon="-2.378690000">
        <ele>511.70</ele>
        <time>2013-07-27T10:12:43Z</time>
      </trkpt>
      <trkpt lat="42.353881000" lon="-2.378648000">
        <ele>511.80</ele>
        <time>2013-07-27T10:12:44Z</time>
      </trkpt>
      <trkpt lat="42.353887000" lon="-2.378609000">
        <ele>511.90</ele>
        <time>2013-07-27T10:12:45Z</time>
      </trkpt>
      <trkpt lat="42.353895000" lon="-2.378570000">
        <ele>512.00</ele>
        <time>2013-07-27T10:12:46Z</time>
      </trkpt>
      <trkpt lat="42.353904000" lon="-2.378532000">
        <ele>512.00</ele>
        <time>2013-07-27T10:12:47Z</time>
      </trkpt>
      <trkpt lat="42.353913000" lon="-2.378491000">
        <ele>512.10</ele>
        <time>2013-07-27T10:12:48Z</time>
      </trkpt>
      <trkpt lat="42.353926000" lon="-2.378454000">
        <ele>512.20</ele>
        <time>2013-07-27T10:12:49Z</time>
      </trkpt>
      <trkpt lat="42.353933000" lon="-2.378415000">
        <ele>512.40</ele>
        <time>2013-07-27T10:12:50Z</time>
      </trkpt>
      <trkpt lat="42.353945000" lon="-2.378380000">
        <ele>512.50</ele>
        <time>2013-07-27T10:12:51Z</time>
      </trkpt>
      <trkpt lat="42.353953000" lon="-2.378345000">
        <ele>512.60</ele>
        <time>2013-07-27T10:12:52Z</time>
      </trkpt>
      <trkpt lat="42.353958000" lon="-2.378312000">
        <ele>512.70</ele>
        <time>2013-07-27T10:12:53Z</time>
      </trkpt>
      <trkpt lat="42.353962000" lon="-2.378283000">
        <ele>512.70</ele>
        <time>2013-07-27T10:12:54Z</time>
      </trkpt>
      <trkpt lat="42.353970000" lon="-2.378250000">
        <ele>512.80</ele>
        <time>2013-07-27T10:12:55Z</time>
      </trkpt>
      <trkpt lat="42.353979000" lon="-2.378217000">
        <ele>512.80</ele>
        <time>2013-07-27T10:12:56Z</time>
      </trkpt>
      <trkpt lat="42.353985000" lon="-2.378186000">
        <ele>513.00</ele>
        <time>2013-07-27T10:12:57Z</time>
      </trkpt>
      <trkpt lat="42.353989000" lon="-2.378152000">
        <ele>513.10</ele>
        <time>2013-07-27T10:12:58Z</time>
      </trkpt>
      <trkpt lat="42.353995000" lon="-2.378117000">
        <ele>513.40</ele>
        <time>2013-07-27T10:12:59Z</time>
      </trkpt>
      <trkpt lat="42.354003000" lon="-2.378085000">
        <ele>513.50</ele>
        <time>2013-07-27T10:13:00Z</time>
      </trkpt>
      <trkpt lat="42.354011000" lon="-2.378048000">
        <ele>513.70</ele>
        <time>2013-07-27T10:13:01Z</time>
      </trkpt>
      <trkpt lat="42.354021000" lon="-2.378011000">
        <ele>513.80</ele>
        <time>2013-07-27T10:13:02Z</time>
      </trkpt>
      <trkpt lat="42.354033000" lon="-2.377974000">
        <ele>514.00</ele>
        <time>2013-07-27T10:13:03Z</time>
      </trkpt>
      <trkpt lat="42.354041000" lon="-2.377939000">
        <ele>514.10</ele>
        <time>2013-07-27T10:13:04Z</time>
      </trkpt>
      <trkpt lat="42.354055000" lon="-2.377903000">
        <ele>514.20</ele>
        <time>2013-07-27T10:13:05Z</time>
      </trkpt>
      <trkpt lat="42.354064000" lon="-2.377875000">
        <ele>514.30</ele>
        <time>2013-07-27T10:13:06Z</time>
      </trkpt>
      <trkpt lat="42.354073000" lon="-2.377843000">
        <ele>514.40</ele>
        <time>2013-07-27T10:13:07Z</time>
      </trkpt>
      <trkpt lat="42.354084000" lon="-2.377818000">
        <ele>514.40</ele>
        <time>2013-07-27T10:13:08Z</time>
      </trkpt>
      <trkpt lat="42.354096000" lon="-2.377785000">
        <ele>514.30</ele>
        <time>2013-07-27T10:13:09Z</time>
      </trkpt>
      <trkpt lat="42.354110000" lon="-2.377749000">
        <ele>514.30</ele>
        <time>2013-07-27T10:13:10Z</time>
      </trkpt>
      <trkpt lat="42.354122000" lon="-2.377716000">
        <ele>514.40</ele>
        <time>2013-07-27T10:13:11Z</time>
      </trkpt>
      <trkpt lat="42.354131000" lon="-2.377683000">
        <ele>514.50</ele>
        <time>2013-07-27T10:13:12Z</time>
      </trkpt>
      <trkpt lat="42.354142000" lon="-2.377649000">
        <ele>514.60</ele>
        <time>2013-07-27T10:13:13Z</time>
      </trkpt>
      <trkpt lat="42.354154000" lon="-2.377616000">
        <ele>514.70</ele>
        <time>2013-07-27T10:13:14Z</time>
      </trkpt>
      <trkpt lat="42.354165000" lon="-2.377583000">
        <ele>514.80</ele>
        <time>2013-07-27T10:13:15Z</time>
      </trkpt>
      <trkpt lat="42.354174000" lon="-2.377552000">
        <ele>514.90</ele>
        <time>2013-07-27T10:13:16Z</time>
      </trkpt>
      <trkpt lat="42.354183000" lon="-2.377523000">
        <ele>514.90</ele>
        <time>2013-07-27T10:13:17Z</time>
      </trkpt>
      <trkpt lat="42.354193000" lon="-2.377492000">
        <ele>515.00</ele>
        <time>2013-07-27T10:13:18Z</time>
      </trkpt>
      <trkpt lat="42.354207000" lon="-2.377457000">
        <ele>514.90</ele>
        <time>2013-07-27T10:13:19Z</time>
      </trkpt>
      <trkpt lat="42.354217000" lon="-2.377426000">
        <ele>514.90</ele>
        <time>2013-07-27T10:13:20Z</time>
      </trkpt>
      <trkpt lat="42.354228000" lon="-2.377392000">
        <ele>514.90</ele>
        <time>2013-07-27T10:13:21Z</time>
      </trkpt>
      <trkpt lat="42.354241000" lon="-2.377361000">
        <ele>514.90</ele>
        <time>2013-07-27T10:13:22Z</time>
      </trkpt>
      <trkpt lat="42.354255000" lon="-2.377331000">
        <ele>514.90</ele>
        <time>2013-07-27T10:13:23Z</time>
      </trkpt>
      <trkpt lat="42.354270000" lon="-2.377301000">
        <ele>514.90</ele>
        <time>2013-07-27T10:13:24Z</time>
      </trkpt>
      <trkpt lat="42.354283000" lon="-2.377272000">
        <ele>515.10</ele>
        <time>2013-07-27T10:13:25Z</time>
      </trkpt>
      <trkpt lat="42.354296000" lon="-2.377241000">
        <ele>515.30</ele>
        <time>2013-07-27T10:13:26Z</time>
      </trkpt>
      <trkpt lat="42.354309000" lon="-2.377208000">
        <ele>515.50</ele>
        <time>2013-07-27T10:13:27Z</time>
      </trkpt>
      <trkpt lat="42.354317000" lon="-2.377173000">
        <ele>515.60</ele>
        <time>2013-07-27T10:13:28Z</time>
      </trkpt>
      <trkpt lat="42.354325000" lon="-2.377143000">
        <ele>515.70</ele>
        <time>2013-07-27T10:13:29Z</time>
      </trkpt>
      <trkpt lat="42.354337000" lon="-2.377110000">
        <ele>515.70</ele>
        <time>2013-07-27T10:13:30Z</time>
      </trkpt>
      <trkpt lat="42.354353000" lon="-2.377080000">
        <ele>515.80</ele>
        <time>2013-07-27T10:13:31Z</time>
      </trkpt>
      <trkpt lat="42.354369000" lon="-2.377050000">
        <ele>515.80</ele>
        <time>2013-07-27T10:13:32Z</time>
      </trkpt>
      <trkpt lat="42.354383000" lon="-2.377016000">
        <ele>515.60</ele>
        <time>2013-07-27T10:13:33Z</time>
      </trkpt>
      <trkpt lat="42.354398000" lon="-2.376985000">
        <ele>515.50</ele>
        <time>2013-07-27T10:13:34Z</time>
      </trkpt>
      <trkpt lat="42.354410000" lon="-2.376955000">
        <ele>515.60</ele>
        <time>2013-07-27T10:13:35Z</time>
      </trkpt>
      <trkpt lat="42.354421000" lon="-2.376926000">
        <ele>515.70</ele>
        <time>2013-07-27T10:13:36Z</time>
      </trkpt>
      <trkpt lat="42.354428000" lon="-2.376896000">
        <ele>515.60</ele>
        <time>2013-07-27T10:13:37Z</time>
      </trkpt>
      <trkpt lat="42.354438000" lon="-2.376866000">
        <ele>515.50</ele>
        <time>2013-07-27T10:13:38Z</time>
      </trkpt>
      <trkpt lat="42.354449000" lon="-2.376838000">
        <ele>515.60</ele>
        <time>2013-07-27T10:13:39Z</time>
      </trkpt>
      <trkpt lat="42.354462000" lon="-2.376807000">
        <ele>515.70</ele>
        <time>2013-07-27T10:13:40Z</time>
      </trkpt>
      <trkpt lat="42.354476000" lon="-2.376778000">
        <ele>515.80</ele>
        <time>2013-07-27T10:13:41Z</time>
      </trkpt>
      <trkpt lat="42.354488000" lon="-2.376743000">
        <ele>515.80</ele>
        <time>2013-07-27T10:13:42Z</time>
      </trkpt>
      <trkpt lat="42.354501000" lon="-2.376711000">
        <ele>515.90</ele>
        <time>2013-07-27T10:13:43Z</time>
      </trkpt>
      <trkpt lat="42.354512000" lon="-2.376677000">
        <ele>516.10</ele>
        <time>2013-07-27T10:13:44Z</time>
      </trkpt>
      <trkpt lat="42.354524000" lon="-2.376644000">
        <ele>516.30</ele>
        <time>2013-07-27T10:13:45Z</time>
      </trkpt>
      <trkpt lat="42.354536000" lon="-2.376613000">
        <ele>516.40</ele>
        <time>2013-07-27T10:13:46Z</time>
      </trkpt>
      <trkpt lat="42.354550000" lon="-2.376582000">
        <ele>516.60</ele>
        <time>2013-07-27T10:13:47Z</time>
      </trkpt>
      <trkpt lat="42.354566000" lon="-2.376551000">
        <ele>516.70</ele>
        <time>2013-07-27T10:13:48Z</time>
      </trkpt>
      <trkpt lat="42.354579000" lon="-2.376520000">
        <ele>516.80</ele>
        <time>2013-07-27T10:13:49Z</time>
      </trkpt>
      <trkpt lat="42.354592000" lon="-2.376484000">
        <ele>516.90</ele>
        <time>2013-07-27T10:13:50Z</time>
      </trkpt>
      <trkpt lat="42.354603000" lon="-2.376451000">
        <ele>516.80</ele>
        <time>2013-07-27T10:13:51Z</time>
      </trkpt>
      <trkpt lat="42.354614000" lon="-2.376422000">
        <ele>516.70</ele>
        <time>2013-07-27T10:13:52Z</time>
      </trkpt>
      <trkpt lat="42.354624000" lon="-2.376394000">
        <ele>516.60</ele>
        <time>2013-07-27T10:13:53Z</time>
      </trkpt>
      <trkpt lat="42.354635000" lon="-2.376368000">
        <ele>516.60</ele>
        <time>2013-07-27T10:13:54Z</time>
      </trkpt>
      <trkpt lat="42.354645000" lon="-2.376341000">
        <ele>516.70</ele>
        <time>2013-07-27T10:13:55Z</time>
      </trkpt>
      <trkpt lat="42.354656000" lon="-2.376309000">
        <ele>516.70</ele>
        <time>2013-07-27T10:13:56Z</time>
      </trkpt>
      <trkpt lat="42.354663000" lon="-2.376268000">
        <ele>516.90</ele>
        <time>2013-07-27T10:13:57Z</time>
      </trkpt>
      <trkpt lat="42.354667000" lon="-2.376216000">
        <ele>517.00</ele>
        <time>2013-07-27T10:13:58Z</time>
      </trkpt>
      <trkpt lat="42.354679000" lon="-2.376170000">
        <ele>517.00</ele>
        <time>2013-07-27T10:13:59Z</time>
      </trkpt>
      <trkpt lat="42.354698000" lon="-2.376129000">
        <ele>516.90</ele>
        <time>2013-07-27T10:14:00Z</time>
      </trkpt>
      <trkpt lat="42.354716000" lon="-2.376092000">
        <ele>517.10</ele>
        <time>2013-07-27T10:14:01Z</time>
      </trkpt>
      <trkpt lat="42.354728000" lon="-2.376054000">
        <ele>517.10</ele>
        <time>2013-07-27T10:14:02Z</time>
      </trkpt>
      <trkpt lat="42.354741000" lon="-2.376020000">
        <ele>517.20</ele>
        <time>2013-07-27T10:14:03Z</time>
      </trkpt>
      <trkpt lat="42.354757000" lon="-2.375985000">
        <ele>517.30</ele>
        <time>2013-07-27T10:14:04Z</time>
      </trkpt>
      <trkpt lat="42.354773000" lon="-2.375950000">
        <ele>517.30</ele>
        <time>2013-07-27T10:14:05Z</time>
      </trkpt>
      <trkpt lat="42.354786000" lon="-2.375918000">
        <ele>517.30</ele>
        <time>2013-07-27T10:14:06Z</time>
      </trkpt>
      <trkpt lat="42.354800000" lon="-2.375886000">
        <ele>517.30</ele>
        <time>2013-07-27T10:14:07Z</time>
      </trkpt>
      <trkpt lat="42.354816000" lon="-2.375858000">
        <ele>517.40</ele>
        <time>2013-07-27T10:14:08Z</time>
      </trkpt>
      <trkpt lat="42.354831000" lon="-2.375828000">
        <ele>517.40</ele>
        <time>2013-07-27T10:14:09Z</time>
      </trkpt>
      <trkpt lat="42.354844000" lon="-2.375795000">
        <ele>517.40</ele>
        <time>2013-07-27T10:14:10Z</time>
      </trkpt>
      <trkpt lat="42.354850000" lon="-2.375760000">
        <ele>517.40</ele>
        <time>2013-07-27T10:14:11Z</time>
      </trkpt>
      <trkpt lat="42.354863000" lon="-2.375725000">
        <ele>517.40</ele>
        <time>2013-07-27T10:14:12Z</time>
      </trkpt>
      <trkpt lat="42.354879000" lon="-2.375691000">
        <ele>517.50</ele>
        <time>2013-07-27T10:14:13Z</time>
      </trkpt>
      <trkpt lat="42.354893000" lon="-2.375656000">
        <ele>517.50</ele>
        <time>2013-07-27T10:14:14Z</time>
      </trkpt>
      <trkpt lat="42.354905000" lon="-2.375620000">
        <ele>517.50</ele>
        <time>2013-07-27T10:14:15Z</time>
      </trkpt>
      <trkpt lat="42.354911000" lon="-2.375580000">
        <ele>517.60</ele>
        <time>2013-07-27T10:14:16Z</time>
      </trkpt>
      <trkpt lat="42.354917000" lon="-2.375533000">
        <ele>517.60</ele>
        <time>2013-07-27T10:14:17Z</time>
      </trkpt>
      <trkpt lat="42.354923000" lon="-2.375488000">
        <ele>517.60</ele>
        <time>2013-07-27T10:14:18Z</time>
      </trkpt>
      <trkpt lat="42.354919000" lon="-2.375442000">
        <ele>517.80</ele>
        <time>2013-07-27T10:14:19Z</time>
      </trkpt>
      <trkpt lat="42.354911000" lon="-2.375395000">
        <ele>517.90</ele>
        <time>2013-07-27T10:14:20Z</time>
      </trkpt>
      <trkpt lat="42.354901000" lon="-2.375352000">
        <ele>517.90</ele>
        <time>2013-07-27T10:14:21Z</time>
      </trkpt>
      <trkpt lat="42.354887000" lon="-2.375310000">
        <ele>518.00</ele>
        <time>2013-07-27T10:14:22Z</time>
      </trkpt>
      <trkpt lat="42.354866000" lon="-2.375275000">
        <ele>518.10</ele>
        <time>2013-07-27T10:14:23Z</time>
      </trkpt>
      <trkpt lat="42.354845000" lon="-2.375246000">
        <ele>518.10</ele>
        <time>2013-07-27T10:14:24Z</time>
      </trkpt>
      <trkpt lat="42.354825000" lon="-2.375215000">
        <ele>518.00</ele>
        <time>2013-07-27T10:14:25Z</time>
      </trkpt>
      <trkpt lat="42.354803000" lon="-2.375186000">
        <ele>517.90</ele>
        <time>2013-07-27T10:14:26Z</time>
      </trkpt>
      <trkpt lat="42.354782000" lon="-2.375156000">
        <ele>517.70</ele>
        <time>2013-07-27T10:14:27Z</time>
      </trkpt>
      <trkpt lat="42.354761000" lon="-2.375126000">
        <ele>517.60</ele>
        <time>2013-07-27T10:14:28Z</time>
      </trkpt>
      <trkpt lat="42.354739000" lon="-2.375097000">
        <ele>517.60</ele>
        <time>2013-07-27T10:14:29Z</time>
      </trkpt>
      <trkpt lat="42.354719000" lon="-2.375072000">
        <ele>517.60</ele>
        <time>2013-07-27T10:14:30Z</time>
      </trkpt>
      <trkpt lat="42.354698000" lon="-2.375048000">
        <ele>517.70</ele>
        <time>2013-07-27T10:14:31Z</time>
      </trkpt>
      <trkpt lat="42.354681000" lon="-2.375020000">
        <ele>517.70</ele>
        <time>2013-07-27T10:14:32Z</time>
      </trkpt>
      <trkpt lat="42.354664000" lon="-2.374991000">
        <ele>517.70</ele>
        <time>2013-07-27T10:14:33Z</time>
      </trkpt>
      <trkpt lat="42.354649000" lon="-2.374964000">
        <ele>517.80</ele>
        <time>2013-07-27T10:14:34Z</time>
      </trkpt>
      <trkpt lat="42.354632000" lon="-2.374945000">
        <ele>517.90</ele>
        <time>2013-07-27T10:14:35Z</time>
      </trkpt>
      <trkpt lat="42.354622000" lon="-2.374920000">
        <ele>517.90</ele>
        <time>2013-07-27T10:14:36Z</time>
      </trkpt>
      <trkpt lat="42.354606000" lon="-2.374897000">
        <ele>518.00</ele>
        <time>2013-07-27T10:14:37Z</time>
      </trkpt>
      <trkpt lat="42.354589000" lon="-2.374874000">
        <ele>518.10</ele>
        <time>2013-07-27T10:14:38Z</time>
      </trkpt>
      <trkpt lat="42.354572000" lon="-2.374850000">
        <ele>517.90</ele>
        <time>2013-07-27T10:14:39Z</time>
      </trkpt>
      <trkpt lat="42.354555000" lon="-2.374827000">
        <ele>517.80</ele>
        <time>2013-07-27T10:14:40Z</time>
      </trkpt>
      <trkpt lat="42.354536000" lon="-2.374800000">
        <ele>517.80</ele>
        <time>2013-07-27T10:14:41Z</time>
      </trkpt>
      <trkpt lat="42.354519000" lon="-2.374774000">
        <ele>517.70</ele>
        <time>2013-07-27T10:14:42Z</time>
      </trkpt>
      <trkpt lat="42.354500000" lon="-2.374752000">
        <ele>517.70</ele>
        <time>2013-07-27T10:14:43Z</time>
      </trkpt>
      <trkpt lat="42.354480000" lon="-2.374728000">
        <ele>517.70</ele>
        <time>2013-07-27T10:14:44Z</time>
      </trkpt>
      <trkpt lat="42.354460000" lon="-2.374704000">
        <ele>517.60</ele>
        <time>2013-07-27T10:14:45Z</time>
      </trkpt>
      <trkpt lat="42.354443000" lon="-2.374680000">
        <ele>517.50</ele>
        <time>2013-07-27T10:14:46Z</time>
      </trkpt>
      <trkpt lat="42.354425000" lon="-2.374655000">
        <ele>517.50</ele>
        <time>2013-07-27T10:14:47Z</time>
      </trkpt>
      <trkpt lat="42.354407000" lon="-2.374628000">
        <ele>517.40</ele>
        <time>2013-07-27T10:14:48Z</time>
      </trkpt>
      <trkpt lat="42.354387000" lon="-2.374601000">
        <ele>517.50</ele>
        <time>2013-07-27T10:14:49Z</time>
      </trkpt>
      <trkpt lat="42.354368000" lon="-2.374572000">
        <ele>517.60</ele>
        <time>2013-07-27T10:14:50Z</time>
      </trkpt>
      <trkpt lat="42.354348000" lon="-2.374544000">
        <ele>517.70</ele>
        <time>2013-07-27T10:14:51Z</time>
      </trkpt>
      <trkpt lat="42.354328000" lon="-2.374518000">
        <ele>517.90</ele>
        <time>2013-07-27T10:14:52Z</time>
      </trkpt>
      <trkpt lat="42.354308000" lon="-2.374491000">
        <ele>518.10</ele>
        <time>2013-07-27T10:14:53Z</time>
      </trkpt>
      <trkpt lat="42.354290000" lon="-2.374463000">
        <ele>518.20</ele>
        <time>2013-07-27T10:14:54Z</time>
      </trkpt>
      <trkpt lat="42.354272000" lon="-2.374431000">
        <ele>518.40</ele>
        <time>2013-07-27T10:14:55Z</time>
      </trkpt>
      <trkpt lat="42.354263000" lon="-2.374398000">
        <ele>518.40</ele>
        <time>2013-07-27T10:14:56Z</time>
      </trkpt>
      <trkpt lat="42.354253000" lon="-2.374365000">
        <ele>518.40</ele>
        <time>2013-07-27T10:14:57Z</time>
      </trkpt>
      <trkpt lat="42.354240000" lon="-2.374332000">
        <ele>518.40</ele>
        <time>2013-07-27T10:14:58Z</time>
      </trkpt>
      <trkpt lat="42.354225000" lon="-2.374299000">
        <ele>518.40</ele>
        <time>2013-07-27T10:14:59Z</time>
      </trkpt>
      <trkpt lat="42.354208000" lon="-2.374267000">
        <ele>518.40</ele>
        <time>2013-07-27T10:15:00Z</time>
      </trkpt>
      <trkpt lat="42.354194000" lon="-2.374234000">
        <ele>518.30</ele>
        <time>2013-07-27T10:15:01Z</time>
      </trkpt>
      <trkpt lat="42.354182000" lon="-2.374199000">
        <ele>518.20</ele>
        <time>2013-07-27T10:15:02Z</time>
      </trkpt>
      <trkpt lat="42.354171000" lon="-2.374164000">
        <ele>518.10</ele>
        <time>2013-07-27T10:15:03Z</time>
      </trkpt>
      <trkpt lat="42.354165000" lon="-2.374127000">
        <ele>518.10</ele>
        <time>2013-07-27T10:15:04Z</time>
      </trkpt>
      <trkpt lat="42.354165000" lon="-2.374088000">
        <ele>518.00</ele>
        <time>2013-07-27T10:15:05Z</time>
      </trkpt>
      <trkpt lat="42.354167000" lon="-2.374052000">
        <ele>518.00</ele>
        <time>2013-07-27T10:15:06Z</time>
      </trkpt>
      <trkpt lat="42.354163000" lon="-2.374016000">
        <ele>518.20</ele>
        <time>2013-07-27T10:15:07Z</time>
      </trkpt>
      <trkpt lat="42.354153000" lon="-2.373980000">
        <ele>518.30</ele>
        <time>2013-07-27T10:15:08Z</time>
      </trkpt>
      <trkpt lat="42.354142000" lon="-2.373943000">
        <ele>518.40</ele>
        <time>2013-07-27T10:15:09Z</time>
      </trkpt>
      <trkpt lat="42.354132000" lon="-2.373906000">
        <ele>518.50</ele>
        <time>2013-07-27T10:15:10Z</time>
      </trkpt>
      <trkpt lat="42.354122000" lon="-2.373870000">
        <ele>518.60</ele>
        <time>2013-07-27T10:15:11Z</time>
      </trkpt>
      <trkpt lat="42.354110000" lon="-2.373834000">
        <ele>518.70</ele>
        <time>2013-07-27T10:15:12Z</time>
      </trkpt>
      <trkpt lat="42.354096000" lon="-2.373796000">
        <ele>518.80</ele>
        <time>2013-07-27T10:15:13Z</time>
      </trkpt>
      <trkpt lat="42.354080000" lon="-2.373761000">
        <ele>518.80</ele>
        <time>2013-07-27T10:15:14Z</time>
      </trkpt>
      <trkpt lat="42.354061000" lon="-2.373728000">
        <ele>518.70</ele>
        <time>2013-07-27T10:15:15Z</time>
      </trkpt>
      <trkpt lat="42.354043000" lon="-2.373694000">
        <ele>518.70</ele>
        <time>2013-07-27T10:15:16Z</time>
      </trkpt>
      <trkpt lat="42.354022000" lon="-2.373666000">
        <ele>518.60</ele>
        <time>2013-07-27T10:15:17Z</time>
      </trkpt>
      <trkpt lat="42.354000000" lon="-2.373642000">
        <ele>518.60</ele>
        <time>2013-07-27T10:15:18Z</time>
      </trkpt>
      <trkpt lat="42.353977000" lon="-2.373623000">
        <ele>518.50</ele>
        <time>2013-07-27T10:15:19Z</time>
      </trkpt>
      <trkpt lat="42.353955000" lon="-2.373605000">
        <ele>518.50</ele>
        <time>2013-07-27T10:15:20Z</time>
      </trkpt>
      <trkpt lat="42.353929000" lon="-2.373585000">
        <ele>518.60</ele>
        <time>2013-07-27T10:15:21Z</time>
      </trkpt>
      <trkpt lat="42.353904000" lon="-2.373566000">
        <ele>518.60</ele>
        <time>2013-07-27T10:15:22Z</time>
      </trkpt>
      <trkpt lat="42.353878000" lon="-2.373546000">
        <ele>518.90</ele>
        <time>2013-07-27T10:15:23Z</time>
      </trkpt>
      <trkpt lat="42.353852000" lon="-2.373527000">
        <ele>519.10</ele>
        <time>2013-07-27T10:15:24Z</time>
      </trkpt>
      <trkpt lat="42.353827000" lon="-2.373515000">
        <ele>519.30</ele>
        <time>2013-07-27T10:15:25Z</time>
      </trkpt>
      <trkpt lat="42.353802000" lon="-2.373501000">
        <ele>519.40</ele>
        <time>2013-07-27T10:15:26Z</time>
      </trkpt>
      <trkpt lat="42.353773000" lon="-2.373488000">
        <ele>519.50</ele>
        <time>2013-07-27T10:15:27Z</time>
      </trkpt>
      <trkpt lat="42.353747000" lon="-2.373480000">
        <ele>519.60</ele>
        <time>2013-07-27T10:15:28Z</time>
      </trkpt>
      <trkpt lat="42.353720000" lon="-2.373463000">
        <ele>519.50</ele>
        <time>2013-07-27T10:15:29Z</time>
      </trkpt>
      <trkpt lat="42.353695000" lon="-2.373453000">
        <ele>519.40</ele>
        <time>2013-07-27T10:15:30Z</time>
      </trkpt>
      <trkpt lat="42.353668000" lon="-2.373447000">
        <ele>519.50</ele>
        <time>2013-07-27T10:15:31Z</time>
      </trkpt>
      <trkpt lat="42.353642000" lon="-2.373441000">
        <ele>519.60</ele>
        <time>2013-07-27T10:15:32Z</time>
      </trkpt>
      <trkpt lat="42.353614000" lon="-2.373432000">
        <ele>519.60</ele>
        <time>2013-07-27T10:15:33Z</time>
      </trkpt>
      <trkpt lat="42.353587000" lon="-2.373427000">
        <ele>519.70</ele>
        <time>2013-07-27T10:15:34Z</time>
      </trkpt>
      <trkpt lat="42.353558000" lon="-2.373422000">
        <ele>519.80</ele>
        <time>2013-07-27T10:15:35Z</time>
      </trkpt>
      <trkpt lat="42.353530000" lon="-2.373417000">
        <ele>519.80</ele>
        <time>2013-07-27T10:15:36Z</time>
      </trkpt>
      <trkpt lat="42.353504000" lon="-2.373409000">
        <ele>519.90</ele>
        <time>2013-07-27T10:15:37Z</time>
      </trkpt>
      <trkpt lat="42.353474000" lon="-2.373400000">
        <ele>519.90</ele>
        <time>2013-07-27T10:15:38Z</time>
      </trkpt>
      <trkpt lat="42.353448000" lon="-2.373390000">
        <ele>520.10</ele>
        <time>2013-07-27T10:15:39Z</time>
      </trkpt>
      <trkpt lat="42.353419000" lon="-2.373378000">
        <ele>520.30</ele>
        <time>2013-07-27T10:15:40Z</time>
      </trkpt>
      <trkpt lat="42.353388000" lon="-2.373369000">
        <ele>520.40</ele>
        <time>2013-07-27T10:15:41Z</time>
      </trkpt>
      <trkpt lat="42.353360000" lon="-2.373357000">
        <ele>520.40</ele>
        <time>2013-07-27T10:15:42Z</time>
      </trkpt>
      <trkpt lat="42.353337000" lon="-2.373342000">
        <ele>520.50</ele>
        <time>2013-07-27T10:15:43Z</time>
      </trkpt>
      <trkpt lat="42.353315000" lon="-2.373318000">
        <ele>520.60</ele>
        <time>2013-07-27T10:15:44Z</time>
      </trkpt>
      <trkpt lat="42.353293000" lon="-2.373284000">
        <ele>520.60</ele>
        <time>2013-07-27T10:15:45Z</time>
      </trkpt>
      <trkpt lat="42.353279000" lon="-2.373242000">
        <ele>520.60</ele>
        <time>2013-07-27T10:15:46Z</time>
      </trkpt>
      <trkpt lat="42.353273000" lon="-2.373192000">
        <ele>520.60</ele>
        <time>2013-07-27T10:15:47Z</time>
      </trkpt>
      <trkpt lat="42.353275000" lon="-2.373140000">
        <ele>520.60</ele>
        <time>2013-07-27T10:15:48Z</time>
      </trkpt>
      <trkpt lat="42.353283000" lon="-2.373084000">
        <ele>520.40</ele>
        <time>2013-07-27T10:15:49Z</time>
      </trkpt>
      <trkpt lat="42.353293000" lon="-2.373025000">
        <ele>520.30</ele>
        <time>2013-07-27T10:15:50Z</time>
      </trkpt>
      <trkpt lat="42.353306000" lon="-2.372962000">
        <ele>520.30</ele>
        <time>2013-07-27T10:15:51Z</time>
      </trkpt>
      <trkpt lat="42.353317000" lon="-2.372899000">
        <ele>520.20</ele>
        <time>2013-07-27T10:15:52Z</time>
      </trkpt>
      <trkpt lat="42.353333000" lon="-2.372838000">
        <ele>520.20</ele>
        <time>2013-07-27T10:15:53Z</time>
      </trkpt>
      <trkpt lat="42.353352000" lon="-2.372777000">
        <ele>520.20</ele>
        <time>2013-07-27T10:15:54Z</time>
      </trkpt>
      <trkpt lat="42.353375000" lon="-2.372720000">
        <ele>520.30</ele>
        <time>2013-07-27T10:15:55Z</time>
      </trkpt>
      <trkpt lat="42.353400000" lon="-2.372663000">
        <ele>520.30</ele>
        <time>2013-07-27T10:15:56Z</time>
      </trkpt>
      <trkpt lat="42.353430000" lon="-2.372613000">
        <ele>520.20</ele>
        <time>2013-07-27T10:15:57Z</time>
      </trkpt>
      <trkpt lat="42.353462000" lon="-2.372571000">
        <ele>520.20</ele>
        <time>2013-07-27T10:15:58Z</time>
      </trkpt>
      <trkpt lat="42.353499000" lon="-2.372532000">
        <ele>520.10</ele>
        <time>2013-07-27T10:15:59Z</time>
      </trkpt>
      <trkpt lat="42.353529000" lon="-2.372492000">
        <ele>520.10</ele>
        <time>2013-07-27T10:16:00Z</time>
      </trkpt>
      <trkpt lat="42.353560000" lon="-2.372451000">
        <ele>520.10</ele>
        <time>2013-07-27T10:16:01Z</time>
      </trkpt>
      <trkpt lat="42.353600000" lon="-2.372411000">
        <ele>520.10</ele>
        <time>2013-07-27T10:16:02Z</time>
      </trkpt>
      <trkpt lat="42.353647000" lon="-2.372370000">
        <ele>520.10</ele>
        <time>2013-07-27T10:16:03Z</time>
      </trkpt>
      <trkpt lat="42.353692000" lon="-2.372332000">
        <ele>520.20</ele>
        <time>2013-07-27T10:16:04Z</time>
      </trkpt>
      <trkpt lat="42.353736000" lon="-2.372289000">
        <ele>520.00</ele>
        <time>2013-07-27T10:16:05Z</time>
      </trkpt>
      <trkpt lat="42.353777000" lon="-2.372251000">
        <ele>519.90</ele>
        <time>2013-07-27T10:16:06Z</time>
      </trkpt>
      <trkpt lat="42.353814000" lon="-2.372213000">
        <ele>520.00</ele>
        <time>2013-07-27T10:16:07Z</time>
      </trkpt>
      <trkpt lat="42.353849000" lon="-2.372177000">
        <ele>520.10</ele>
        <time>2013-07-27T10:16:08Z</time>
      </trkpt>
      <trkpt lat="42.353880000" lon="-2.372146000">
        <ele>520.20</ele>
        <time>2013-07-27T10:16:09Z</time>
      </trkpt>
      <trkpt lat="42.353912000" lon="-2.372116000">
        <ele>520.30</ele>
        <time>2013-07-27T10:16:10Z</time>
      </trkpt>
      <trkpt lat="42.353944000" lon="-2.372089000">
        <ele>520.40</ele>
        <time>2013-07-27T10:16:11Z</time>
      </trkpt>
      <trkpt lat="42.353974000" lon="-2.372064000">
        <ele>520.40</ele>
        <time>2013-07-27T10:16:12Z</time>
      </trkpt>
      <trkpt lat="42.354004000" lon="-2.372034000">
        <ele>520.40</ele>
        <time>2013-07-27T10:16:13Z</time>
      </trkpt>
      <trkpt lat="42.354034000" lon="-2.372002000">
        <ele>520.40</ele>
        <time>2013-07-27T10:16:14Z</time>
      </trkpt>
      <trkpt lat="42.354068000" lon="-2.371973000">
        <ele>520.30</ele>
        <time>2013-07-27T10:16:15Z</time>
      </trkpt>
      <trkpt lat="42.354098000" lon="-2.371943000">
        <ele>520.30</ele>
        <time>2013-07-27T10:16:16Z</time>
      </trkpt>
      <trkpt lat="42.354129000" lon="-2.371910000">
        <ele>520.60</ele>
        <time>2013-07-27T10:16:17Z</time>
      </trkpt>
      <trkpt lat="42.354163000" lon="-2.371878000">
        <ele>520.80</ele>
        <time>2013-07-27T10:16:18Z</time>
      </trkpt>
      <trkpt lat="42.354196000" lon="-2.371842000">
        <ele>520.90</ele>
        <time>2013-07-27T10:16:19Z</time>
      </trkpt>
      <trkpt lat="42.354230000" lon="-2.371807000">
        <ele>521.00</ele>
        <time>2013-07-27T10:16:20Z</time>
      </trkpt>
      <trkpt lat="42.354263000" lon="-2.371772000">
        <ele>521.20</ele>
        <time>2013-07-27T10:16:21Z</time>
      </trkpt>
      <trkpt lat="42.354297000" lon="-2.371744000">
        <ele>521.30</ele>
        <time>2013-07-27T10:16:22Z</time>
      </trkpt>
      <trkpt lat="42.354330000" lon="-2.371715000">
        <ele>521.20</ele>
        <time>2013-07-27T10:16:23Z</time>
      </trkpt>
      <trkpt lat="42.354359000" lon="-2.371687000">
        <ele>521.10</ele>
        <time>2013-07-27T10:16:24Z</time>
      </trkpt>
      <trkpt lat="42.354388000" lon="-2.371656000">
        <ele>521.00</ele>
        <time>2013-07-27T10:16:25Z</time>
      </trkpt>
      <trkpt lat="42.354417000" lon="-2.371626000">
        <ele>521.00</ele>
        <time>2013-07-27T10:16:26Z</time>
      </trkpt>
      <trkpt lat="42.354447000" lon="-2.371600000">
        <ele>520.90</ele>
        <time>2013-07-27T10:16:27Z</time>
      </trkpt>
      <trkpt lat="42.354476000" lon="-2.371569000">
        <ele>520.90</ele>
        <time>2013-07-27T10:16:28Z</time>
      </trkpt>
      <trkpt lat="42.354505000" lon="-2.371540000">
        <ele>520.90</ele>
        <time>2013-07-27T10:16:29Z</time>
      </trkpt>
      <trkpt lat="42.354532000" lon="-2.371511000">
        <ele>520.90</ele>
        <time>2013-07-27T10:16:30Z</time>
      </trkpt>
      <trkpt lat="42.354562000" lon="-2.371481000">
        <ele>520.90</ele>
        <time>2013-07-27T10:16:31Z</time>
      </trkpt>
      <trkpt lat="42.354592000" lon="-2.371451000">
        <ele>521.00</ele>
        <time>2013-07-27T10:16:32Z</time>
      </trkpt>
      <trkpt lat="42.354622000" lon="-2.371423000">
        <ele>520.90</ele>
        <time>2013-07-27T10:16:33Z</time>
      </trkpt>
      <trkpt lat="42.354651000" lon="-2.371398000">
        <ele>520.90</ele>
        <time>2013-07-27T10:16:34Z</time>
      </trkpt>
      <trkpt lat="42.354681000" lon="-2.371370000">
        <ele>520.90</ele>
        <time>2013-07-27T10:16:35Z</time>
      </trkpt>
      <trkpt lat="42.354711000" lon="-2.371346000">
        <ele>520.90</ele>
        <time>2013-07-27T10:16:36Z</time>
      </trkpt>
      <trkpt lat="42.354738000" lon="-2.371327000">
        <ele>520.90</ele>
        <time>2013-07-27T10:16:37Z</time>
      </trkpt>
      <trkpt lat="42.354768000" lon="-2.371305000">
        <ele>520.90</ele>
        <time>2013-07-27T10:16:38Z</time>
      </trkpt>
      <trkpt lat="42.354797000" lon="-2.371283000">
        <ele>520.80</ele>
        <time>2013-07-27T10:16:39Z</time>
      </trkpt>
      <trkpt lat="42.354829000" lon="-2.371260000">
        <ele>520.80</ele>
        <time>2013-07-27T10:16:40Z</time>
      </trkpt>
      <trkpt lat="42.354858000" lon="-2.371240000">
        <ele>520.80</ele>
        <time>2013-07-27T10:16:41Z</time>
      </trkpt>
      <trkpt lat="42.354889000" lon="-2.371223000">
        <ele>520.80</ele>
        <time>2013-07-27T10:16:42Z</time>
      </trkpt>
      <trkpt lat="42.354921000" lon="-2.371209000">
        <ele>521.00</ele>
        <time>2013-07-27T10:16:43Z</time>
      </trkpt>
      <trkpt lat="42.354952000" lon="-2.371195000">
        <ele>521.10</ele>
        <time>2013-07-27T10:16:44Z</time>
      </trkpt>
      <trkpt lat="42.354982000" lon="-2.371179000">
        <ele>521.10</ele>
        <time>2013-07-27T10:16:45Z</time>
      </trkpt>
      <trkpt lat="42.355012000" lon="-2.371162000">
        <ele>521.10</ele>
        <time>2013-07-27T10:16:46Z</time>
      </trkpt>
      <trkpt lat="42.355044000" lon="-2.371149000">
        <ele>521.10</ele>
        <time>2013-07-27T10:16:47Z</time>
      </trkpt>
      <trkpt lat="42.355077000" lon="-2.371136000">
        <ele>521.10</ele>
        <time>2013-07-27T10:16:48Z</time>
      </trkpt>
      <trkpt lat="42.355112000" lon="-2.371124000">
        <ele>521.10</ele>
        <time>2013-07-27T10:16:49Z</time>
      </trkpt>
      <trkpt lat="42.355147000" lon="-2.371116000">
        <ele>521.10</ele>
        <time>2013-07-27T10:16:50Z</time>
      </trkpt>
      <trkpt lat="42.355182000" lon="-2.371107000">
        <ele>521.30</ele>
        <time>2013-07-27T10:16:51Z</time>
      </trkpt>
      <trkpt lat="42.355215000" lon="-2.371102000">
        <ele>521.40</ele>
        <time>2013-07-27T10:16:52Z</time>
      </trkpt>
      <trkpt lat="42.355249000" lon="-2.371094000">
        <ele>521.50</ele>
        <time>2013-07-27T10:16:53Z</time>
      </trkpt>
      <trkpt lat="42.355280000" lon="-2.371090000">
        <ele>521.60</ele>
        <time>2013-07-27T10:16:54Z</time>
      </trkpt>
      <trkpt lat="42.355310000" lon="-2.371087000">
        <ele>521.70</ele>
        <time>2013-07-27T10:16:55Z</time>
      </trkpt>
      <trkpt lat="42.355339000" lon="-2.371087000">
        <ele>521.70</ele>
        <time>2013-07-27T10:16:56Z</time>
      </trkpt>
      <trkpt lat="42.355369000" lon="-2.371084000">
        <ele>521.80</ele>
        <time>2013-07-27T10:16:57Z</time>
      </trkpt>
      <trkpt lat="42.355403000" lon="-2.371077000">
        <ele>521.90</ele>
        <time>2013-07-27T10:16:58Z</time>
      </trkpt>
      <trkpt lat="42.355437000" lon="-2.371070000">
        <ele>522.10</ele>
        <time>2013-07-27T10:16:59Z</time>
      </trkpt>
      <trkpt lat="42.355471000" lon="-2.371066000">
        <ele>522.20</ele>
        <time>2013-07-27T10:17:00Z</time>
      </trkpt>
      <trkpt lat="42.355504000" lon="-2.371063000">
        <ele>522.20</ele>
        <time>2013-07-27T10:17:01Z</time>
      </trkpt>
      <trkpt lat="42.355533000" lon="-2.371059000">
        <ele>522.20</ele>
        <time>2013-07-27T10:17:02Z</time>
      </trkpt>
      <trkpt lat="42.355565000" lon="-2.371058000">
        <ele>522.30</ele>
        <time>2013-07-27T10:17:03Z</time>
      </trkpt>
      <trkpt lat="42.355596000" lon="-2.371056000">
        <ele>522.40</ele>
        <time>2013-07-27T10:17:04Z</time>
      </trkpt>
      <trkpt lat="42.355629000" lon="-2.371055000">
        <ele>522.50</ele>
        <time>2013-07-27T10:17:05Z</time>
      </trkpt>
      <trkpt lat="42.355662000" lon="-2.371055000">
        <ele>522.50</ele>
        <time>2013-07-27T10:17:06Z</time>
      </trkpt>
      <trkpt lat="42.355694000" lon="-2.371051000">
        <ele>522.60</ele>
        <time>2013-07-27T10:17:07Z</time>
      </trkpt>
      <trkpt lat="42.355725000" lon="-2.371051000">
        <ele>522.60</ele>
        <time>2013-07-27T10:17:08Z</time>
      </trkpt>
      <trkpt lat="42.355760000" lon="-2.371049000">
        <ele>522.70</ele>
        <time>2013-07-27T10:17:09Z</time>
      </trkpt>
      <trkpt lat="42.355792000" lon="-2.371050000">
        <ele>522.90</ele>
        <time>2013-07-27T10:17:10Z</time>
      </trkpt>
      <trkpt lat="42.355827000" lon="-2.371047000">
        <ele>522.90</ele>
        <time>2013-07-27T10:17:11Z</time>
      </trkpt>
      <trkpt lat="42.355862000" lon="-2.371045000">
        <ele>523.00</ele>
        <time>2013-07-27T10:17:12Z</time>
      </trkpt>
      <trkpt lat="42.355894000" lon="-2.371040000">
        <ele>523.10</ele>
        <time>2013-07-27T10:17:13Z</time>
      </trkpt>
      <trkpt lat="42.355929000" lon="-2.371033000">
        <ele>523.10</ele>
        <time>2013-07-27T10:17:14Z</time>
      </trkpt>
      <trkpt lat="42.355963000" lon="-2.371028000">
        <ele>523.30</ele>
        <time>2013-07-27T10:17:15Z</time>
      </trkpt>
      <trkpt lat="42.355998000" lon="-2.371024000">
        <ele>523.40</ele>
        <time>2013-07-27T10:17:16Z</time>
      </trkpt>
      <trkpt lat="42.356032000" lon="-2.371023000">
        <ele>523.50</ele>
        <time>2013-07-27T10:17:17Z</time>
      </trkpt>
      <trkpt lat="42.356065000" lon="-2.371019000">
        <ele>523.50</ele>
        <time>2013-07-27T10:17:18Z</time>
      </trkpt>
      <trkpt lat="42.356100000" lon="-2.371017000">
        <ele>523.60</ele>
        <time>2013-07-27T10:17:19Z</time>
      </trkpt>
      <trkpt lat="42.356134000" lon="-2.371010000">
        <ele>523.60</ele>
        <time>2013-07-27T10:17:20Z</time>
      </trkpt>
      <trkpt lat="42.356168000" lon="-2.371007000">
        <ele>523.70</ele>
        <time>2013-07-27T10:17:21Z</time>
      </trkpt>
      <trkpt lat="42.356201000" lon="-2.371003000">
        <ele>523.80</ele>
        <time>2013-07-27T10:17:22Z</time>
      </trkpt>
      <trkpt lat="42.356236000" lon="-2.370998000">
        <ele>523.80</ele>
        <time>2013-07-27T10:17:23Z</time>
      </trkpt>
      <trkpt lat="42.356272000" lon="-2.370993000">
        <ele>523.90</ele>
        <time>2013-07-27T10:17:24Z</time>
      </trkpt>
      <trkpt lat="42.356306000" lon="-2.370985000">
        <ele>524.00</ele>
        <time>2013-07-27T10:17:25Z</time>
      </trkpt>
      <trkpt lat="42.356341000" lon="-2.370977000">
        <ele>524.00</ele>
        <time>2013-07-27T10:17:26Z</time>
      </trkpt>
      <trkpt lat="42.356374000" lon="-2.370973000">
        <ele>524.00</ele>
        <time>2013-07-27T10:17:27Z</time>
      </trkpt>
      <trkpt lat="42.356409000" lon="-2.370963000">
        <ele>523.90</ele>
        <time>2013-07-27T10:17:28Z</time>
      </trkpt>
      <trkpt lat="42.356445000" lon="-2.370953000">
        <ele>524.10</ele>
        <time>2013-07-27T10:17:29Z</time>
      </trkpt>
      <trkpt lat="42.356478000" lon="-2.370939000">
        <ele>524.20</ele>
        <time>2013-07-27T10:17:30Z</time>
      </trkpt>
      <trkpt lat="42.356509000" lon="-2.370923000">
        <ele>524.30</ele>
        <time>2013-07-27T10:17:31Z</time>
      </trkpt>
      <trkpt lat="42.356540000" lon="-2.370906000">
        <ele>524.30</ele>
        <time>2013-07-27T10:17:32Z</time>
      </trkpt>
      <trkpt lat="42.356568000" lon="-2.370881000">
        <ele>524.40</ele>
        <time>2013-07-27T10:17:33Z</time>
      </trkpt>
      <trkpt lat="42.356596000" lon="-2.370852000">
        <ele>524.50</ele>
        <time>2013-07-27T10:17:34Z</time>
      </trkpt>
      <trkpt lat="42.356625000" lon="-2.370820000">
        <ele>524.70</ele>
        <time>2013-07-27T10:17:35Z</time>
      </trkpt>
      <trkpt lat="42.356650000" lon="-2.370790000">
        <ele>524.90</ele>
        <time>2013-07-27T10:17:36Z</time>
      </trkpt>
      <trkpt lat="42.356671000" lon="-2.370751000">
        <ele>525.10</ele>
        <time>2013-07-27T10:17:37Z</time>
      </trkpt>
      <trkpt lat="42.356688000" lon="-2.370708000">
        <ele>525.30</ele>
        <time>2013-07-27T10:17:38Z</time>
      </trkpt>
      <trkpt lat="42.356704000" lon="-2.370668000">
        <ele>525.40</ele>
        <time>2013-07-27T10:17:39Z</time>
      </trkpt>
      <trkpt lat="42.356718000" lon="-2.370629000">
        <ele>525.50</ele>
        <time>2013-07-27T10:17:40Z</time>
      </trkpt>
      <trkpt lat="42.356732000" lon="-2.370585000">
        <ele>525.50</ele>
        <time>2013-07-27T10:17:41Z</time>
      </trkpt>
      <trkpt lat="42.356743000" lon="-2.370541000">
        <ele>525.40</ele>
        <time>2013-07-27T10:17:42Z</time>
      </trkpt>
      <trkpt lat="42.356755000" lon="-2.370498000">
        <ele>525.40</ele>
        <time>2013-07-27T10:17:43Z</time>
      </trkpt>
      <trkpt lat="42.356766000" lon="-2.370454000">
        <ele>525.40</ele>
        <time>2013-07-27T10:17:44Z</time>
      </trkpt>
      <trkpt lat="42.356777000" lon="-2.370415000">
        <ele>525.40</ele>
        <time>2013-07-27T10:17:45Z</time>
      </trkpt>
      <trkpt lat="42.356787000" lon="-2.370373000">
        <ele>525.50</ele>
        <time>2013-07-27T10:17:46Z</time>
      </trkpt>
      <trkpt lat="42.356797000" lon="-2.370329000">
        <ele>525.60</ele>
        <time>2013-07-27T10:17:47Z</time>
      </trkpt>
      <trkpt lat="42.356811000" lon="-2.370286000">
        <ele>525.60</ele>
        <time>2013-07-27T10:17:48Z</time>
      </trkpt>
      <trkpt lat="42.356823000" lon="-2.370241000">
        <ele>525.70</ele>
        <time>2013-07-27T10:17:49Z</time>
      </trkpt>
      <trkpt lat="42.356836000" lon="-2.370198000">
        <ele>525.70</ele>
        <time>2013-07-27T10:17:50Z</time>
      </trkpt>
      <trkpt lat="42.356851000" lon="-2.370154000">
        <ele>525.60</ele>
        <time>2013-07-27T10:17:51Z</time>
      </trkpt>
      <trkpt lat="42.356864000" lon="-2.370110000">
        <ele>525.50</ele>
        <time>2013-07-27T10:17:52Z</time>
      </trkpt>
      <trkpt lat="42.356877000" lon="-2.370065000">
        <ele>525.50</ele>
        <time>2013-07-27T10:17:53Z</time>
      </trkpt>
      <trkpt lat="42.356888000" lon="-2.370020000">
        <ele>525.40</ele>
        <time>2013-07-27T10:17:54Z</time>
      </trkpt>
      <trkpt lat="42.356900000" lon="-2.369977000">
        <ele>525.90</ele>
        <time>2013-07-27T10:17:55Z</time>
      </trkpt>
      <trkpt lat="42.356914000" lon="-2.369932000">
        <ele>526.20</ele>
        <time>2013-07-27T10:17:56Z</time>
      </trkpt>
      <trkpt lat="42.356925000" lon="-2.369890000">
        <ele>526.40</ele>
        <time>2013-07-27T10:17:57Z</time>
      </trkpt>
      <trkpt lat="42.356939000" lon="-2.369846000">
        <ele>526.60</ele>
        <time>2013-07-27T10:17:58Z</time>
      </trkpt>
      <trkpt lat="42.356952000" lon="-2.369803000">
        <ele>526.60</ele>
        <time>2013-07-27T10:17:59Z</time>
      </trkpt>
      <trkpt lat="42.356962000" lon="-2.369762000">
        <ele>526.60</ele>
        <time>2013-07-27T10:18:00Z</time>
      </trkpt>
      <trkpt lat="42.356974000" lon="-2.369718000">
        <ele>526.50</ele>
        <time>2013-07-27T10:18:01Z</time>
      </trkpt>
      <trkpt lat="42.356987000" lon="-2.369675000">
        <ele>526.40</ele>
        <time>2013-07-27T10:18:02Z</time>
      </trkpt>
      <trkpt lat="42.356995000" lon="-2.369631000">
        <ele>526.50</ele>
        <time>2013-07-27T10:18:03Z</time>
      </trkpt>
      <trkpt lat="42.357004000" lon="-2.369591000">
        <ele>526.50</ele>
        <time>2013-07-27T10:18:04Z</time>
      </trkpt>
      <trkpt lat="42.357016000" lon="-2.369547000">
        <ele>526.50</ele>
        <time>2013-07-27T10:18:05Z</time>
      </trkpt>
      <trkpt lat="42.357024000" lon="-2.369508000">
        <ele>526.60</ele>
        <time>2013-07-27T10:18:06Z</time>
      </trkpt>
      <trkpt lat="42.357037000" lon="-2.369467000">
        <ele>526.60</ele>
        <time>2013-07-27T10:18:07Z</time>
      </trkpt>
      <trkpt lat="42.357047000" lon="-2.369426000">
        <ele>526.60</ele>
        <time>2013-07-27T10:18:08Z</time>
      </trkpt>
      <trkpt lat="42.357057000" lon="-2.369382000">
        <ele>526.70</ele>
        <time>2013-07-27T10:18:09Z</time>
      </trkpt>
      <trkpt lat="42.357067000" lon="-2.369343000">
        <ele>526.70</ele>
        <time>2013-07-27T10:18:10Z</time>
      </trkpt>
      <trkpt lat="42.357077000" lon="-2.369301000">
        <ele>526.90</ele>
        <time>2013-07-27T10:18:11Z</time>
      </trkpt>
      <trkpt lat="42.357090000" lon="-2.369258000">
        <ele>527.00</ele>
        <time>2013-07-27T10:18:12Z</time>
      </trkpt>
      <trkpt lat="42.357099000" lon="-2.369213000">
        <ele>527.10</ele>
        <time>2013-07-27T10:18:13Z</time>
      </trkpt>
      <trkpt lat="42.357110000" lon="-2.369167000">
        <ele>527.20</ele>
        <time>2013-07-27T10:18:14Z</time>
      </trkpt>
      <trkpt lat="42.357122000" lon="-2.369121000">
        <ele>527.30</ele>
        <time>2013-07-27T10:18:15Z</time>
      </trkpt>
      <trkpt lat="42.357136000" lon="-2.369077000">
        <ele>527.30</ele>
        <time>2013-07-27T10:18:16Z</time>
      </trkpt>
      <trkpt lat="42.357148000" lon="-2.369031000">
        <ele>527.60</ele>
        <time>2013-07-27T10:18:17Z</time>
      </trkpt>
      <trkpt lat="42.357160000" lon="-2.368985000">
        <ele>527.80</ele>
        <time>2013-07-27T10:18:18Z</time>
      </trkpt>
      <trkpt lat="42.357175000" lon="-2.368939000">
        <ele>528.00</ele>
        <time>2013-07-27T10:18:19Z</time>
      </trkpt>
      <trkpt lat="42.357187000" lon="-2.368892000">
        <ele>528.20</ele>
        <time>2013-07-27T10:18:20Z</time>
      </trkpt>
      <trkpt lat="42.357197000" lon="-2.368842000">
        <ele>528.40</ele>
        <time>2013-07-27T10:18:21Z</time>
      </trkpt>
      <trkpt lat="42.357209000" lon="-2.368796000">
        <ele>528.50</ele>
        <time>2013-07-27T10:18:22Z</time>
      </trkpt>
      <trkpt lat="42.357218000" lon="-2.368748000">
        <ele>528.40</ele>
        <time>2013-07-27T10:18:23Z</time>
      </trkpt>
      <trkpt lat="42.357228000" lon="-2.368704000">
        <ele>528.30</ele>
        <time>2013-07-27T10:18:24Z</time>
      </trkpt>
      <trkpt lat="42.357237000" lon="-2.368661000">
        <ele>528.30</ele>
        <time>2013-07-27T10:18:25Z</time>
      </trkpt>
      <trkpt lat="42.357246000" lon="-2.368620000">
        <ele>528.30</ele>
        <time>2013-07-27T10:18:26Z</time>
      </trkpt>
      <trkpt lat="42.357257000" lon="-2.368583000">
        <ele>528.10</ele>
        <time>2013-07-27T10:18:27Z</time>
      </trkpt>
      <trkpt lat="42.357270000" lon="-2.368541000">
        <ele>528.00</ele>
        <time>2013-07-27T10:18:28Z</time>
      </trkpt>
      <trkpt lat="42.357281000" lon="-2.368501000">
        <ele>527.90</ele>
        <time>2013-07-27T10:18:29Z</time>
      </trkpt>
      <trkpt lat="42.357294000" lon="-2.368459000">
        <ele>527.90</ele>
        <time>2013-07-27T10:18:30Z</time>
      </trkpt>
      <trkpt lat="42.357311000" lon="-2.368416000">
        <ele>527.80</ele>
        <time>2013-07-27T10:18:31Z</time>
      </trkpt>
      <trkpt lat="42.357328000" lon="-2.368371000">
        <ele>527.80</ele>
        <time>2013-07-27T10:18:32Z</time>
      </trkpt>
      <trkpt lat="42.357342000" lon="-2.368327000">
        <ele>527.80</ele>
        <time>2013-07-27T10:18:33Z</time>
      </trkpt>
      <trkpt lat="42.357358000" lon="-2.368283000">
        <ele>527.70</ele>
        <time>2013-07-27T10:18:34Z</time>
      </trkpt>
      <trkpt lat="42.357376000" lon="-2.368237000">
        <ele>527.70</ele>
        <time>2013-07-27T10:18:35Z</time>
      </trkpt>
      <trkpt lat="42.357394000" lon="-2.368192000">
        <ele>527.70</ele>
        <time>2013-07-27T10:18:36Z</time>
      </trkpt>
      <trkpt lat="42.357413000" lon="-2.368149000">
        <ele>527.80</ele>
        <time>2013-07-27T10:18:37Z</time>
      </trkpt>
      <trkpt lat="42.357435000" lon="-2.368106000">
        <ele>527.90</ele>
        <time>2013-07-27T10:18:38Z</time>
      </trkpt>
      <trkpt lat="42.357457000" lon="-2.368065000">
        <ele>528.00</ele>
        <time>2013-07-27T10:18:39Z</time>
      </trkpt>
      <trkpt lat="42.357479000" lon="-2.368018000">
        <ele>528.10</ele>
        <time>2013-07-27T10:18:40Z</time>
      </trkpt>
      <trkpt lat="42.357504000" lon="-2.367976000">
        <ele>528.00</ele>
        <time>2013-07-27T10:18:41Z</time>
      </trkpt>
      <trkpt lat="42.357529000" lon="-2.367931000">
        <ele>528.00</ele>
        <time>2013-07-27T10:18:42Z</time>
      </trkpt>
      <trkpt lat="42.357559000" lon="-2.367889000">
        <ele>528.00</ele>
        <time>2013-07-27T10:18:43Z</time>
      </trkpt>
      <trkpt lat="42.357588000" lon="-2.367844000">
        <ele>528.00</ele>
        <time>2013-07-27T10:18:44Z</time>
      </trkpt>
      <trkpt lat="42.357615000" lon="-2.367804000">
        <ele>528.10</ele>
        <time>2013-07-27T10:18:45Z</time>
      </trkpt>
      <trkpt lat="42.357640000" lon="-2.367761000">
        <ele>528.20</ele>
        <time>2013-07-27T10:18:46Z</time>
      </trkpt>
      <trkpt lat="42.357667000" lon="-2.367718000">
        <ele>528.20</ele>
        <time>2013-07-27T10:18:47Z</time>
      </trkpt>
      <trkpt lat="42.357693000" lon="-2.367674000">
        <ele>528.30</ele>
        <time>2013-07-27T10:18:48Z</time>
      </trkpt>
      <trkpt lat="42.357723000" lon="-2.367630000">
        <ele>528.30</ele>
        <time>2013-07-27T10:18:49Z</time>
      </trkpt>
      <trkpt lat="42.357751000" lon="-2.367587000">
        <ele>528.30</ele>
        <time>2013-07-27T10:18:50Z</time>
      </trkpt>
      <trkpt lat="42.357781000" lon="-2.367545000">
        <ele>528.20</ele>
        <time>2013-07-27T10:18:51Z</time>
      </trkpt>
      <trkpt lat="42.357809000" lon="-2.367506000">
        <ele>528.10</ele>
        <time>2013-07-27T10:18:52Z</time>
      </trkpt>
      <trkpt lat="42.357838000" lon="-2.367468000">
        <ele>528.20</ele>
        <time>2013-07-27T10:18:53Z</time>
      </trkpt>
      <trkpt lat="42.357866000" lon="-2.367429000">
        <ele>528.20</ele>
        <time>2013-07-27T10:18:54Z</time>
      </trkpt>
      <trkpt lat="42.357890000" lon="-2.367388000">
        <ele>528.30</ele>
        <time>2013-07-27T10:18:55Z</time>
      </trkpt>
      <trkpt lat="42.357917000" lon="-2.367347000">
        <ele>528.30</ele>
        <time>2013-07-27T10:18:56Z</time>
      </trkpt>
      <trkpt lat="42.357943000" lon="-2.367305000">
        <ele>528.30</ele>
        <time>2013-07-27T10:18:57Z</time>
      </trkpt>
      <trkpt lat="42.357971000" lon="-2.367267000">
        <ele>528.30</ele>
        <time>2013-07-27T10:18:58Z</time>
      </trkpt>
      <trkpt lat="42.357997000" lon="-2.367228000">
        <ele>528.40</ele>
        <time>2013-07-27T10:18:59Z</time>
      </trkpt>
      <trkpt lat="42.358022000" lon="-2.367188000">
        <ele>528.50</ele>
        <time>2013-07-27T10:19:00Z</time>
      </trkpt>
      <trkpt lat="42.358045000" lon="-2.367144000">
        <ele>528.50</ele>
        <time>2013-07-27T10:19:01Z</time>
      </trkpt>
      <trkpt lat="42.358067000" lon="-2.367099000">
        <ele>528.60</ele>
        <time>2013-07-27T10:19:02Z</time>
      </trkpt>
      <trkpt lat="42.358085000" lon="-2.367051000">
        <ele>528.60</ele>
        <time>2013-07-27T10:19:03Z</time>
      </trkpt>
      <trkpt lat="42.358099000" lon="-2.366997000">
        <ele>528.60</ele>
        <time>2013-07-27T10:19:04Z</time>
      </trkpt>
      <trkpt lat="42.358109000" lon="-2.366943000">
        <ele>528.60</ele>
        <time>2013-07-27T10:19:05Z</time>
      </trkpt>
      <trkpt lat="42.358118000" lon="-2.366887000">
        <ele>528.60</ele>
        <time>2013-07-27T10:19:06Z</time>
      </trkpt>
      <trkpt lat="42.358126000" lon="-2.366834000">
        <ele>528.80</ele>
        <time>2013-07-27T10:19:07Z</time>
      </trkpt>
      <trkpt lat="42.358132000" lon="-2.366779000">
        <ele>528.90</ele>
        <time>2013-07-27T10:19:08Z</time>
      </trkpt>
      <trkpt lat="42.358138000" lon="-2.366725000">
        <ele>528.80</ele>
        <time>2013-07-27T10:19:09Z</time>
      </trkpt>
      <trkpt lat="42.358144000" lon="-2.366667000">
        <ele>528.80</ele>
        <time>2013-07-27T10:19:10Z</time>
      </trkpt>
      <trkpt lat="42.358151000" lon="-2.366615000">
        <ele>528.90</ele>
        <time>2013-07-27T10:19:11Z</time>
      </trkpt>
      <trkpt lat="42.358159000" lon="-2.366563000">
        <ele>529.00</ele>
        <time>2013-07-27T10:19:12Z</time>
      </trkpt>
      <trkpt lat="42.358166000" lon="-2.366511000">
        <ele>528.90</ele>
        <time>2013-07-27T10:19:13Z</time>
      </trkpt>
      <trkpt lat="42.358175000" lon="-2.366456000">
        <ele>528.80</ele>
        <time>2013-07-27T10:19:14Z</time>
      </trkpt>
      <trkpt lat="42.358184000" lon="-2.366404000">
        <ele>528.70</ele>
        <time>2013-07-27T10:19:15Z</time>
      </trkpt>
      <trkpt lat="42.358190000" lon="-2.366349000">
        <ele>528.50</ele>
        <time>2013-07-27T10:19:16Z</time>
      </trkpt>
      <trkpt lat="42.358196000" lon="-2.366295000">
        <ele>528.40</ele>
        <time>2013-07-27T10:19:17Z</time>
      </trkpt>
      <trkpt lat="42.358204000" lon="-2.366242000">
        <ele>528.30</ele>
        <time>2013-07-27T10:19:18Z</time>
      </trkpt>
      <trkpt lat="42.358211000" lon="-2.366189000">
        <ele>528.30</ele>
        <time>2013-07-27T10:19:19Z</time>
      </trkpt>
      <trkpt lat="42.358214000" lon="-2.366135000">
        <ele>528.30</ele>
        <time>2013-07-27T10:19:20Z</time>
      </trkpt>
      <trkpt lat="42.358217000" lon="-2.366083000">
        <ele>528.30</ele>
        <time>2013-07-27T10:19:21Z</time>
      </trkpt>
      <trkpt lat="42.358220000" lon="-2.366029000">
        <ele>528.30</ele>
        <time>2013-07-27T10:19:22Z</time>
      </trkpt>
      <trkpt lat="42.358226000" lon="-2.365975000">
        <ele>528.50</ele>
        <time>2013-07-27T10:19:23Z</time>
      </trkpt>
      <trkpt lat="42.358231000" lon="-2.365926000">
        <ele>528.60</ele>
        <time>2013-07-27T10:19:24Z</time>
      </trkpt>
      <trkpt lat="42.358236000" lon="-2.365875000">
        <ele>528.50</ele>
        <time>2013-07-27T10:19:25Z</time>
      </trkpt>
      <trkpt lat="42.358242000" lon="-2.365824000">
        <ele>528.50</ele>
        <time>2013-07-27T10:19:26Z</time>
      </trkpt>
      <trkpt lat="42.358246000" lon="-2.365770000">
        <ele>528.50</ele>
        <time>2013-07-27T10:19:27Z</time>
      </trkpt>
      <trkpt lat="42.358254000" lon="-2.365716000">
        <ele>528.60</ele>
        <time>2013-07-27T10:19:28Z</time>
      </trkpt>
      <trkpt lat="42.358260000" lon="-2.365661000">
        <ele>528.60</ele>
        <time>2013-07-27T10:19:29Z</time>
      </trkpt>
      <trkpt lat="42.358268000" lon="-2.365605000">
        <ele>528.60</ele>
        <time>2013-07-27T10:19:30Z</time>
      </trkpt>
      <trkpt lat="42.358272000" lon="-2.365543000">
        <ele>528.60</ele>
        <time>2013-07-27T10:19:31Z</time>
      </trkpt>
      <trkpt lat="42.358279000" lon="-2.365489000">
        <ele>528.60</ele>
        <time>2013-07-27T10:19:32Z</time>
      </trkpt>
      <trkpt lat="42.358285000" lon="-2.365436000">
        <ele>528.60</ele>
        <time>2013-07-27T10:19:33Z</time>
      </trkpt>
      <trkpt lat="42.358293000" lon="-2.365385000">
        <ele>528.50</ele>
        <time>2013-07-27T10:19:34Z</time>
      </trkpt>
      <trkpt lat="42.358295000" lon="-2.365334000">
        <ele>528.50</ele>
        <time>2013-07-27T10:19:35Z</time>
      </trkpt>
      <trkpt lat="42.358302000" lon="-2.365285000">
        <ele>528.50</ele>
        <time>2013-07-27T10:19:36Z</time>
      </trkpt>
      <trkpt lat="42.358306000" lon="-2.365236000">
        <ele>528.50</ele>
        <time>2013-07-27T10:19:37Z</time>
      </trkpt>
      <trkpt lat="42.358310000" lon="-2.365189000">
        <ele>528.60</ele>
        <time>2013-07-27T10:19:38Z</time>
      </trkpt>
      <trkpt lat="42.358314000" lon="-2.365136000">
        <ele>528.60</ele>
        <time>2013-07-27T10:19:39Z</time>
      </trkpt>
      <trkpt lat="42.358318000" lon="-2.365080000">
        <ele>528.60</ele>
        <time>2013-07-27T10:19:40Z</time>
      </trkpt>
      <trkpt lat="42.358322000" lon="-2.365027000">
        <ele>528.60</ele>
        <time>2013-07-27T10:19:41Z</time>
      </trkpt>
      <trkpt lat="42.358326000" lon="-2.364976000">
        <ele>528.60</ele>
        <time>2013-07-27T10:19:42Z</time>
      </trkpt>
      <trkpt lat="42.358330000" lon="-2.364924000">
        <ele>528.60</ele>
        <time>2013-07-27T10:19:43Z</time>
      </trkpt>
      <trkpt lat="42.358337000" lon="-2.364874000">
        <ele>528.60</ele>
        <time>2013-07-27T10:19:44Z</time>
      </trkpt>
      <trkpt lat="42.358341000" lon="-2.364820000">
        <ele>528.70</ele>
        <time>2013-07-27T10:19:45Z</time>
      </trkpt>
      <trkpt lat="42.358346000" lon="-2.364768000">
        <ele>528.80</ele>
        <time>2013-07-27T10:19:46Z</time>
      </trkpt>
      <trkpt lat="42.358349000" lon="-2.364711000">
        <ele>528.80</ele>
        <time>2013-07-27T10:19:47Z</time>
      </trkpt>
      <trkpt lat="42.358352000" lon="-2.364651000">
        <ele>528.80</ele>
        <time>2013-07-27T10:19:48Z</time>
      </trkpt>
      <trkpt lat="42.358357000" lon="-2.364595000">
        <ele>528.90</ele>
        <time>2013-07-27T10:19:49Z</time>
      </trkpt>
      <trkpt lat="42.358362000" lon="-2.364542000">
        <ele>529.00</ele>
        <time>2013-07-27T10:19:50Z</time>
      </trkpt>
      <trkpt lat="42.358369000" lon="-2.364492000">
        <ele>529.00</ele>
        <time>2013-07-27T10:19:51Z</time>
      </trkpt>
      <trkpt lat="42.358375000" lon="-2.364439000">
        <ele>529.10</ele>
        <time>2013-07-27T10:19:52Z</time>
      </trkpt>
      <trkpt lat="42.358377000" lon="-2.364381000">
        <ele>529.10</ele>
        <time>2013-07-27T10:19:53Z</time>
      </trkpt>
      <trkpt lat="42.358379000" lon="-2.364322000">
        <ele>529.10</ele>
        <time>2013-07-27T10:19:54Z</time>
      </trkpt>
      <trkpt lat="42.358383000" lon="-2.364262000">
        <ele>529.00</ele>
        <time>2013-07-27T10:19:55Z</time>
      </trkpt>
      <trkpt lat="42.358390000" lon="-2.364203000">
        <ele>528.90</ele>
        <time>2013-07-27T10:19:56Z</time>
      </trkpt>
      <trkpt lat="42.358394000" lon="-2.364144000">
        <ele>528.90</ele>
        <time>2013-07-27T10:19:57Z</time>
      </trkpt>
      <trkpt lat="42.358396000" lon="-2.364086000">
        <ele>528.80</ele>
        <time>2013-07-27T10:19:58Z</time>
      </trkpt>
      <trkpt lat="42.358396000" lon="-2.364029000">
        <ele>528.80</ele>
        <time>2013-07-27T10:19:59Z</time>
      </trkpt>
      <trkpt lat="42.358400000" lon="-2.363975000">
        <ele>528.70</ele>
        <time>2013-07-27T10:20:00Z</time>
      </trkpt>
      <trkpt lat="42.358404000" lon="-2.363919000">
        <ele>528.70</ele>
        <time>2013-07-27T10:20:01Z</time>
      </trkpt>
      <trkpt lat="42.358407000" lon="-2.363855000">
        <ele>528.60</ele>
        <time>2013-07-27T10:20:02Z</time>
      </trkpt>
      <trkpt lat="42.358412000" lon="-2.363800000">
        <ele>528.50</ele>
        <time>2013-07-27T10:20:03Z</time>
      </trkpt>
      <trkpt lat="42.358415000" lon="-2.363747000">
        <ele>528.50</ele>
        <time>2013-07-27T10:20:04Z</time>
      </trkpt>
      <trkpt lat="42.358415000" lon="-2.363691000">
        <ele>528.40</ele>
        <time>2013-07-27T10:20:05Z</time>
      </trkpt>
      <trkpt lat="42.358418000" lon="-2.363635000">
        <ele>528.30</ele>
        <time>2013-07-27T10:20:06Z</time>
      </trkpt>
      <trkpt lat="42.358422000" lon="-2.363576000">
        <ele>528.30</ele>
        <time>2013-07-27T10:20:07Z</time>
      </trkpt>
      <trkpt lat="42.358426000" lon="-2.363519000">
        <ele>528.20</ele>
        <time>2013-07-27T10:20:08Z</time>
      </trkpt>
      <trkpt lat="42.358429000" lon="-2.363464000">
        <ele>528.20</ele>
        <time>2013-07-27T10:20:09Z</time>
      </trkpt>
      <trkpt lat="42.358432000" lon="-2.363407000">
        <ele>528.20</ele>
        <time>2013-07-27T10:20:10Z</time>
      </trkpt>
      <trkpt lat="42.358435000" lon="-2.363349000">
        <ele>528.20</ele>
        <time>2013-07-27T10:20:11Z</time>
      </trkpt>
      <trkpt lat="42.358438000" lon="-2.363287000">
        <ele>528.30</ele>
        <time>2013-07-27T10:20:12Z</time>
      </trkpt>
      <trkpt lat="42.358441000" lon="-2.363228000">
        <ele>528.60</ele>
        <time>2013-07-27T10:20:13Z</time>
      </trkpt>
      <trkpt lat="42.358445000" lon="-2.363168000">
        <ele>528.90</ele>
        <time>2013-07-27T10:20:14Z</time>
      </trkpt>
      <trkpt lat="42.358445000" lon="-2.363109000">
        <ele>529.10</ele>
        <time>2013-07-27T10:20:15Z</time>
      </trkpt>
      <trkpt lat="42.358451000" lon="-2.363056000">
        <ele>529.30</ele>
        <time>2013-07-27T10:20:16Z</time>
      </trkpt>
      <trkpt lat="42.358454000" lon="-2.362996000">
        <ele>529.40</ele>
        <time>2013-07-27T10:20:17Z</time>
      </trkpt>
      <trkpt lat="42.358458000" lon="-2.362938000">
        <ele>529.50</ele>
        <time>2013-07-27T10:20:18Z</time>
      </trkpt>
      <trkpt lat="42.358458000" lon="-2.362877000">
        <ele>529.10</ele>
        <time>2013-07-27T10:20:19Z</time>
      </trkpt>
      <trkpt lat="42.358460000" lon="-2.362820000">
        <ele>528.90</ele>
        <time>2013-07-27T10:20:20Z</time>
      </trkpt>
      <trkpt lat="42.358463000" lon="-2.362758000">
        <ele>528.70</ele>
        <time>2013-07-27T10:20:21Z</time>
      </trkpt>
      <trkpt lat="42.358469000" lon="-2.362697000">
        <ele>528.50</ele>
        <time>2013-07-27T10:20:22Z</time>
      </trkpt>
      <trkpt lat="42.358470000" lon="-2.362641000">
        <ele>528.40</ele>
        <time>2013-07-27T10:20:23Z</time>
      </trkpt>
      <trkpt lat="42.358468000" lon="-2.362582000">
        <ele>528.40</ele>
        <time>2013-07-27T10:20:24Z</time>
      </trkpt>
      <trkpt lat="42.358467000" lon="-2.362519000">
        <ele>528.70</ele>
        <time>2013-07-27T10:20:25Z</time>
      </trkpt>
      <trkpt lat="42.358466000" lon="-2.362462000">
        <ele>528.90</ele>
        <time>2013-07-27T10:20:26Z</time>
      </trkpt>
      <trkpt lat="42.358465000" lon="-2.362403000">
        <ele>529.10</ele>
        <time>2013-07-27T10:20:27Z</time>
      </trkpt>
      <trkpt lat="42.358462000" lon="-2.362348000">
        <ele>529.20</ele>
        <time>2013-07-27T10:20:28Z</time>
      </trkpt>
      <trkpt lat="42.358455000" lon="-2.362288000">
        <ele>529.30</ele>
        <time>2013-07-27T10:20:29Z</time>
      </trkpt>
      <trkpt lat="42.358453000" lon="-2.362231000">
        <ele>529.40</ele>
        <time>2013-07-27T10:20:30Z</time>
      </trkpt>
      <trkpt lat="42.358450000" lon="-2.362173000">
        <ele>529.30</ele>
        <time>2013-07-27T10:20:31Z</time>
      </trkpt>
      <trkpt lat="42.358446000" lon="-2.362118000">
        <ele>529.20</ele>
        <time>2013-07-27T10:20:32Z</time>
      </trkpt>
      <trkpt lat="42.358441000" lon="-2.362063000">
        <ele>528.80</ele>
        <time>2013-07-27T10:20:33Z</time>
      </trkpt>
      <trkpt lat="42.358438000" lon="-2.362011000">
        <ele>528.50</ele>
        <time>2013-07-27T10:20:34Z</time>
      </trkpt>
      <trkpt lat="42.358433000" lon="-2.361954000">
        <ele>528.30</ele>
        <time>2013-07-27T10:20:35Z</time>
      </trkpt>
      <trkpt lat="42.358429000" lon="-2.361897000">
        <ele>528.10</ele>
        <time>2013-07-27T10:20:36Z</time>
      </trkpt>
      <trkpt lat="42.358424000" lon="-2.361841000">
        <ele>528.50</ele>
        <time>2013-07-27T10:20:37Z</time>
      </trkpt>
      <trkpt lat="42.358420000" lon="-2.361786000">
        <ele>528.90</ele>
        <time>2013-07-27T10:20:38Z</time>
      </trkpt>
      <trkpt lat="42.358415000" lon="-2.361732000">
        <ele>529.30</ele>
        <time>2013-07-27T10:20:39Z</time>
      </trkpt>
      <trkpt lat="42.358412000" lon="-2.361679000">
        <ele>529.60</ele>
        <time>2013-07-27T10:20:40Z</time>
      </trkpt>
      <trkpt lat="42.358408000" lon="-2.361625000">
        <ele>529.80</ele>
        <time>2013-07-27T10:20:41Z</time>
      </trkpt>
      <trkpt lat="42.358404000" lon="-2.361569000">
        <ele>529.90</ele>
        <time>2013-07-27T10:20:42Z</time>
      </trkpt>
      <trkpt lat="42.358403000" lon="-2.361515000">
        <ele>530.10</ele>
        <time>2013-07-27T10:20:43Z</time>
      </trkpt>
      <trkpt lat="42.358400000" lon="-2.361461000">
        <ele>530.10</ele>
        <time>2013-07-27T10:20:44Z</time>
      </trkpt>
      <trkpt lat="42.358399000" lon="-2.361407000">
        <ele>530.10</ele>
        <time>2013-07-27T10:20:45Z</time>
      </trkpt>
      <trkpt lat="42.358396000" lon="-2.361351000">
        <ele>530.10</ele>
        <time>2013-07-27T10:20:46Z</time>
      </trkpt>
      <trkpt lat="42.358395000" lon="-2.361296000">
        <ele>530.10</ele>
        <time>2013-07-27T10:20:47Z</time>
      </trkpt>
      <trkpt lat="42.358392000" lon="-2.361240000">
        <ele>530.20</ele>
        <time>2013-07-27T10:20:48Z</time>
      </trkpt>
      <trkpt lat="42.358384000" lon="-2.361188000">
        <ele>530.10</ele>
        <time>2013-07-27T10:20:49Z</time>
      </trkpt>
      <trkpt lat="42.358377000" lon="-2.361133000">
        <ele>530.00</ele>
        <time>2013-07-27T10:20:50Z</time>
      </trkpt>
      <trkpt lat="42.358373000" lon="-2.361079000">
        <ele>529.90</ele>
        <time>2013-07-27T10:20:51Z</time>
      </trkpt>
      <trkpt lat="42.358369000" lon="-2.361025000">
        <ele>529.90</ele>
        <time>2013-07-27T10:20:52Z</time>
      </trkpt>
      <trkpt lat="42.358366000" lon="-2.360973000">
        <ele>529.80</ele>
        <time>2013-07-27T10:20:53Z</time>
      </trkpt>
      <trkpt lat="42.358359000" lon="-2.360921000">
        <ele>529.80</ele>
        <time>2013-07-27T10:20:54Z</time>
      </trkpt>
      <trkpt lat="42.358347000" lon="-2.360868000">
        <ele>529.70</ele>
        <time>2013-07-27T10:20:55Z</time>
      </trkpt>
      <trkpt lat="42.358339000" lon="-2.360815000">
        <ele>529.70</ele>
        <time>2013-07-27T10:20:56Z</time>
      </trkpt>
      <trkpt lat="42.358333000" lon="-2.360763000">
        <ele>529.70</ele>
        <time>2013-07-27T10:20:57Z</time>
      </trkpt>
      <trkpt lat="42.358323000" lon="-2.360708000">
        <ele>529.60</ele>
        <time>2013-07-27T10:20:58Z</time>
      </trkpt>
      <trkpt lat="42.358315000" lon="-2.360655000">
        <ele>529.70</ele>
        <time>2013-07-27T10:20:59Z</time>
      </trkpt>
      <trkpt lat="42.358307000" lon="-2.360603000">
        <ele>529.80</ele>
        <time>2013-07-27T10:21:00Z</time>
      </trkpt>
      <trkpt lat="42.358296000" lon="-2.360548000">
        <ele>530.10</ele>
        <time>2013-07-27T10:21:01Z</time>
      </trkpt>
      <trkpt lat="42.358286000" lon="-2.360498000">
        <ele>530.30</ele>
        <time>2013-07-27T10:21:02Z</time>
      </trkpt>
      <trkpt lat="42.358276000" lon="-2.360449000">
        <ele>530.60</ele>
        <time>2013-07-27T10:21:03Z</time>
      </trkpt>
      <trkpt lat="42.358264000" lon="-2.360398000">
        <ele>530.80</ele>
        <time>2013-07-27T10:21:04Z</time>
      </trkpt>
      <trkpt lat="42.358254000" lon="-2.360347000">
        <ele>530.80</ele>
        <time>2013-07-27T10:21:05Z</time>
      </trkpt>
      <trkpt lat="42.358242000" lon="-2.360295000">
        <ele>530.80</ele>
        <time>2013-07-27T10:21:06Z</time>
      </trkpt>
      <trkpt lat="42.358232000" lon="-2.360243000">
        <ele>530.80</ele>
        <time>2013-07-27T10:21:07Z</time>
      </trkpt>
      <trkpt lat="42.358226000" lon="-2.360189000">
        <ele>530.80</ele>
        <time>2013-07-27T10:21:08Z</time>
      </trkpt>
      <trkpt lat="42.358215000" lon="-2.360141000">
        <ele>530.80</ele>
        <time>2013-07-27T10:21:09Z</time>
      </trkpt>
      <trkpt lat="42.358202000" lon="-2.360088000">
        <ele>530.80</ele>
        <time>2013-07-27T10:21:10Z</time>
      </trkpt>
      <trkpt lat="42.358192000" lon="-2.360036000">
        <ele>531.20</ele>
        <time>2013-07-27T10:21:11Z</time>
      </trkpt>
      <trkpt lat="42.358182000" lon="-2.359987000">
        <ele>531.50</ele>
        <time>2013-07-27T10:21:12Z</time>
      </trkpt>
      <trkpt lat="42.358170000" lon="-2.359937000">
        <ele>531.70</ele>
        <time>2013-07-27T10:21:13Z</time>
      </trkpt>
      <trkpt lat="42.358159000" lon="-2.359888000">
        <ele>531.90</ele>
        <time>2013-07-27T10:21:14Z</time>
      </trkpt>
      <trkpt lat="42.358150000" lon="-2.359841000">
        <ele>531.80</ele>
        <time>2013-07-27T10:21:15Z</time>
      </trkpt>
      <trkpt lat="42.358140000" lon="-2.359793000">
        <ele>531.80</ele>
        <time>2013-07-27T10:21:16Z</time>
      </trkpt>
      <trkpt lat="42.358134000" lon="-2.359742000">
        <ele>531.70</ele>
        <time>2013-07-27T10:21:17Z</time>
      </trkpt>
      <trkpt lat="42.358123000" lon="-2.359696000">
        <ele>531.60</ele>
        <time>2013-07-27T10:21:18Z</time>
      </trkpt>
      <trkpt lat="42.358115000" lon="-2.359649000">
        <ele>531.60</ele>
        <time>2013-07-27T10:21:19Z</time>
      </trkpt>
      <trkpt lat="42.358103000" lon="-2.359602000">
        <ele>531.50</ele>
        <time>2013-07-27T10:21:20Z</time>
      </trkpt>
      <trkpt lat="42.358090000" lon="-2.359556000">
        <ele>531.50</ele>
        <time>2013-07-27T10:21:21Z</time>
      </trkpt>
      <trkpt lat="42.358080000" lon="-2.359507000">
        <ele>531.50</ele>
        <time>2013-07-27T10:21:22Z</time>
      </trkpt>
      <trkpt lat="42.358069000" lon="-2.359457000">
        <ele>531.60</ele>
        <time>2013-07-27T10:21:23Z</time>
      </trkpt>
      <trkpt lat="42.358058000" lon="-2.359411000">
        <ele>531.60</ele>
        <time>2013-07-27T10:21:24Z</time>
      </trkpt>
      <trkpt lat="42.358051000" lon="-2.359363000">
        <ele>531.70</ele>
        <time>2013-07-27T10:21:25Z</time>
      </trkpt>
      <trkpt lat="42.358046000" lon="-2.359312000">
        <ele>531.80</ele>
        <time>2013-07-27T10:21:26Z</time>
      </trkpt>
      <trkpt lat="42.358039000" lon="-2.359264000">
        <ele>532.00</ele>
        <time>2013-07-27T10:21:27Z</time>
      </trkpt>
      <trkpt lat="42.358032000" lon="-2.359214000">
        <ele>532.10</ele>
        <time>2013-07-27T10:21:28Z</time>
      </trkpt>
      <trkpt lat="42.358023000" lon="-2.359164000">
        <ele>532.30</ele>
        <time>2013-07-27T10:21:29Z</time>
      </trkpt>
      <trkpt lat="42.358014000" lon="-2.359114000">
        <ele>532.40</ele>
        <time>2013-07-27T10:21:30Z</time>
      </trkpt>
      <trkpt lat="42.358004000" lon="-2.359061000">
        <ele>532.50</ele>
        <time>2013-07-27T10:21:31Z</time>
      </trkpt>
      <trkpt lat="42.357999000" lon="-2.359012000">
        <ele>532.60</ele>
        <time>2013-07-27T10:21:32Z</time>
      </trkpt>
      <trkpt lat="42.357992000" lon="-2.358962000">
        <ele>532.70</ele>
        <time>2013-07-27T10:21:33Z</time>
      </trkpt>
      <trkpt lat="42.357985000" lon="-2.358912000">
        <ele>532.70</ele>
        <time>2013-07-27T10:21:34Z</time>
      </trkpt>
      <trkpt lat="42.357981000" lon="-2.358861000">
        <ele>532.80</ele>
        <time>2013-07-27T10:21:35Z</time>
      </trkpt>
      <trkpt lat="42.357976000" lon="-2.358811000">
        <ele>532.70</ele>
        <time>2013-07-27T10:21:36Z</time>
      </trkpt>
      <trkpt lat="42.357972000" lon="-2.358760000">
        <ele>532.70</ele>
        <time>2013-07-27T10:21:37Z</time>
      </trkpt>
      <trkpt lat="42.357965000" lon="-2.358710000">
        <ele>532.70</ele>
        <time>2013-07-27T10:21:38Z</time>
      </trkpt>
      <trkpt lat="42.357961000" lon="-2.358655000">
        <ele>532.70</ele>
        <time>2013-07-27T10:21:39Z</time>
      </trkpt>
      <trkpt lat="42.357963000" lon="-2.358601000">
        <ele>532.70</ele>
        <time>2013-07-27T10:21:40Z</time>
      </trkpt>
      <trkpt lat="42.357961000" lon="-2.358545000">
        <ele>532.60</ele>
        <time>2013-07-27T10:21:41Z</time>
      </trkpt>
      <trkpt lat="42.357959000" lon="-2.358490000">
        <ele>532.60</ele>
        <time>2013-07-27T10:21:42Z</time>
      </trkpt>
      <trkpt lat="42.357954000" lon="-2.358436000">
        <ele>532.60</ele>
        <time>2013-07-27T10:21:43Z</time>
      </trkpt>
      <trkpt lat="42.357950000" lon="-2.358380000">
        <ele>533.00</ele>
        <time>2013-07-27T10:21:44Z</time>
      </trkpt>
      <trkpt lat="42.357944000" lon="-2.358325000">
        <ele>533.30</ele>
        <time>2013-07-27T10:21:45Z</time>
      </trkpt>
      <trkpt lat="42.357939000" lon="-2.358269000">
        <ele>533.30</ele>
        <time>2013-07-27T10:21:46Z</time>
      </trkpt>
      <trkpt lat="42.357936000" lon="-2.358214000">
        <ele>533.20</ele>
        <time>2013-07-27T10:21:47Z</time>
      </trkpt>
      <trkpt lat="42.357930000" lon="-2.358159000">
        <ele>533.50</ele>
        <time>2013-07-27T10:21:48Z</time>
      </trkpt>
      <trkpt lat="42.357926000" lon="-2.358105000">
        <ele>533.70</ele>
        <time>2013-07-27T10:21:49Z</time>
      </trkpt>
      <trkpt lat="42.357921000" lon="-2.358046000">
        <ele>533.80</ele>
        <time>2013-07-27T10:21:50Z</time>
      </trkpt>
      <trkpt lat="42.357917000" lon="-2.357990000">
        <ele>533.90</ele>
        <time>2013-07-27T10:21:51Z</time>
      </trkpt>
      <trkpt lat="42.357913000" lon="-2.357932000">
        <ele>534.00</ele>
        <time>2013-07-27T10:21:52Z</time>
      </trkpt>
      <trkpt lat="42.357912000" lon="-2.357876000">
        <ele>534.00</ele>
        <time>2013-07-27T10:21:53Z</time>
      </trkpt>
      <trkpt lat="42.357910000" lon="-2.357817000">
        <ele>534.20</ele>
        <time>2013-07-27T10:21:54Z</time>
      </trkpt>
      <trkpt lat="42.357907000" lon="-2.357759000">
        <ele>534.30</ele>
        <time>2013-07-27T10:21:55Z</time>
      </trkpt>
      <trkpt lat="42.357904000" lon="-2.357702000">
        <ele>534.50</ele>
        <time>2013-07-27T10:21:56Z</time>
      </trkpt>
      <trkpt lat="42.357901000" lon="-2.357646000">
        <ele>534.60</ele>
        <time>2013-07-27T10:21:57Z</time>
      </trkpt>
      <trkpt lat="42.357897000" lon="-2.357589000">
        <ele>534.70</ele>
        <time>2013-07-27T10:21:58Z</time>
      </trkpt>
      <trkpt lat="42.357893000" lon="-2.357532000">
        <ele>534.80</ele>
        <time>2013-07-27T10:21:59Z</time>
      </trkpt>
      <trkpt lat="42.357888000" lon="-2.357473000">
        <ele>534.80</ele>
        <time>2013-07-27T10:22:00Z</time>
      </trkpt>
      <trkpt lat="42.357885000" lon="-2.357415000">
        <ele>534.80</ele>
        <time>2013-07-27T10:22:01Z</time>
      </trkpt>
      <trkpt lat="42.357883000" lon="-2.357356000">
        <ele>534.80</ele>
        <time>2013-07-27T10:22:02Z</time>
      </trkpt>
      <trkpt lat="42.357879000" lon="-2.357296000">
        <ele>534.70</ele>
        <time>2013-07-27T10:22:03Z</time>
      </trkpt>
      <trkpt lat="42.357874000" lon="-2.357238000">
        <ele>534.70</ele>
        <time>2013-07-27T10:22:04Z</time>
      </trkpt>
      <trkpt lat="42.357871000" lon="-2.357178000">
        <ele>534.70</ele>
        <time>2013-07-27T10:22:05Z</time>
      </trkpt>
      <trkpt lat="42.357866000" lon="-2.357117000">
        <ele>534.70</ele>
        <time>2013-07-27T10:22:06Z</time>
      </trkpt>
      <trkpt lat="42.357862000" lon="-2.357058000">
        <ele>534.70</ele>
        <time>2013-07-27T10:22:07Z</time>
      </trkpt>
      <trkpt lat="42.357859000" lon="-2.357001000">
        <ele>534.80</ele>
        <time>2013-07-27T10:22:08Z</time>
      </trkpt>
      <trkpt lat="42.357859000" lon="-2.356945000">
        <ele>534.90</ele>
        <time>2013-07-27T10:22:09Z</time>
      </trkpt>
      <trkpt lat="42.357856000" lon="-2.356884000">
        <ele>534.90</ele>
        <time>2013-07-27T10:22:10Z</time>
      </trkpt>
      <trkpt lat="42.357852000" lon="-2.356823000">
        <ele>534.90</ele>
        <time>2013-07-27T10:22:11Z</time>
      </trkpt>
      <trkpt lat="42.357849000" lon="-2.356763000">
        <ele>535.20</ele>
        <time>2013-07-27T10:22:12Z</time>
      </trkpt>
      <trkpt lat="42.357846000" lon="-2.356704000">
        <ele>535.40</ele>
        <time>2013-07-27T10:22:13Z</time>
      </trkpt>
      <trkpt lat="42.357842000" lon="-2.356646000">
        <ele>535.60</ele>
        <time>2013-07-27T10:22:14Z</time>
      </trkpt>
      <trkpt lat="42.357838000" lon="-2.356587000">
        <ele>535.70</ele>
        <time>2013-07-27T10:22:15Z</time>
      </trkpt>
      <trkpt lat="42.357834000" lon="-2.356529000">
        <ele>535.70</ele>
        <time>2013-07-27T10:22:16Z</time>
      </trkpt>
      <trkpt lat="42.357831000" lon="-2.356471000">
        <ele>535.70</ele>
        <time>2013-07-27T10:22:17Z</time>
      </trkpt>
      <trkpt lat="42.357827000" lon="-2.356413000">
        <ele>535.60</ele>
        <time>2013-07-27T10:22:18Z</time>
      </trkpt>
      <trkpt lat="42.357822000" lon="-2.356358000">
        <ele>535.50</ele>
        <time>2013-07-27T10:22:19Z</time>
      </trkpt>
      <trkpt lat="42.357819000" lon="-2.356302000">
        <ele>535.50</ele>
        <time>2013-07-27T10:22:20Z</time>
      </trkpt>
      <trkpt lat="42.357816000" lon="-2.356244000">
        <ele>535.40</ele>
        <time>2013-07-27T10:22:21Z</time>
      </trkpt>
      <trkpt lat="42.357815000" lon="-2.356185000">
        <ele>535.40</ele>
        <time>2013-07-27T10:22:22Z</time>
      </trkpt>
      <trkpt lat="42.357814000" lon="-2.356132000">
        <ele>535.30</ele>
        <time>2013-07-27T10:22:23Z</time>
      </trkpt>
      <trkpt lat="42.357811000" lon="-2.356074000">
        <ele>535.30</ele>
        <time>2013-07-27T10:22:24Z</time>
      </trkpt>
      <trkpt lat="42.357808000" lon="-2.356013000">
        <ele>535.40</ele>
        <time>2013-07-27T10:22:25Z</time>
      </trkpt>
      <trkpt lat="42.357806000" lon="-2.355952000">
        <ele>535.40</ele>
        <time>2013-07-27T10:22:26Z</time>
      </trkpt>
      <trkpt lat="42.357803000" lon="-2.355895000">
        <ele>535.40</ele>
        <time>2013-07-27T10:22:27Z</time>
      </trkpt>
      <trkpt lat="42.357799000" lon="-2.355836000">
        <ele>535.50</ele>
        <time>2013-07-27T10:22:28Z</time>
      </trkpt>
      <trkpt lat="42.357793000" lon="-2.355776000">
        <ele>535.50</ele>
        <time>2013-07-27T10:22:29Z</time>
      </trkpt>
      <trkpt lat="42.357783000" lon="-2.355716000">
        <ele>535.50</ele>
        <time>2013-07-27T10:22:30Z</time>
      </trkpt>
      <trkpt lat="42.357777000" lon="-2.355655000">
        <ele>535.50</ele>
        <time>2013-07-27T10:22:31Z</time>
      </trkpt>
      <trkpt lat="42.357774000" lon="-2.355590000">
        <ele>535.50</ele>
        <time>2013-07-27T10:22:32Z</time>
      </trkpt>
      <trkpt lat="42.357771000" lon="-2.355531000">
        <ele>535.50</ele>
        <time>2013-07-27T10:22:33Z</time>
      </trkpt>
      <trkpt lat="42.357769000" lon="-2.355469000">
        <ele>535.50</ele>
        <time>2013-07-27T10:22:34Z</time>
      </trkpt>
      <trkpt lat="42.357767000" lon="-2.355406000">
        <ele>535.50</ele>
        <time>2013-07-27T10:22:35Z</time>
      </trkpt>
      <trkpt lat="42.357764000" lon="-2.355342000">
        <ele>535.60</ele>
        <time>2013-07-27T10:22:36Z</time>
      </trkpt>
      <trkpt lat="42.357761000" lon="-2.355279000">
        <ele>535.60</ele>
        <time>2013-07-27T10:22:37Z</time>
      </trkpt>
      <trkpt lat="42.357758000" lon="-2.355213000">
        <ele>535.60</ele>
        <time>2013-07-27T10:22:38Z</time>
      </trkpt>
      <trkpt lat="42.357754000" lon="-2.355146000">
        <ele>535.60</ele>
        <time>2013-07-27T10:22:39Z</time>
      </trkpt>
      <trkpt lat="42.357752000" lon="-2.355079000">
        <ele>535.70</ele>
        <time>2013-07-27T10:22:40Z</time>
      </trkpt>
      <trkpt lat="42.357750000" lon="-2.355011000">
        <ele>535.70</ele>
        <time>2013-07-27T10:22:41Z</time>
      </trkpt>
      <trkpt lat="42.357747000" lon="-2.354940000">
        <ele>535.70</ele>
        <time>2013-07-27T10:22:42Z</time>
      </trkpt>
      <trkpt lat="42.357743000" lon="-2.354868000">
        <ele>535.70</ele>
        <time>2013-07-27T10:22:43Z</time>
      </trkpt>
      <trkpt lat="42.357740000" lon="-2.354793000">
        <ele>535.80</ele>
        <time>2013-07-27T10:22:44Z</time>
      </trkpt>
      <trkpt lat="42.357733000" lon="-2.354719000">
        <ele>535.80</ele>
        <time>2013-07-27T10:22:45Z</time>
      </trkpt>
      <trkpt lat="42.357724000" lon="-2.354645000">
        <ele>535.90</ele>
        <time>2013-07-27T10:22:46Z</time>
      </trkpt>
      <trkpt lat="42.357720000" lon="-2.354567000">
        <ele>535.70</ele>
        <time>2013-07-27T10:22:47Z</time>
      </trkpt>
      <trkpt lat="42.357714000" lon="-2.354490000">
        <ele>535.60</ele>
        <time>2013-07-27T10:22:48Z</time>
      </trkpt>
      <trkpt lat="42.357708000" lon="-2.354413000">
        <ele>535.50</ele>
        <time>2013-07-27T10:22:49Z</time>
      </trkpt>
      <trkpt lat="42.357704000" lon="-2.354336000">
        <ele>535.40</ele>
        <time>2013-07-27T10:22:50Z</time>
      </trkpt>
      <trkpt lat="42.357700000" lon="-2.354260000">
        <ele>535.60</ele>
        <time>2013-07-27T10:22:51Z</time>
      </trkpt>
      <trkpt lat="42.357694000" lon="-2.354187000">
        <ele>535.80</ele>
        <time>2013-07-27T10:22:52Z</time>
      </trkpt>
      <trkpt lat="42.357688000" lon="-2.354114000">
        <ele>535.90</ele>
        <time>2013-07-27T10:22:53Z</time>
      </trkpt>
      <trkpt lat="42.357683000" lon="-2.354042000">
        <ele>536.00</ele>
        <time>2013-07-27T10:22:54Z</time>
      </trkpt>
      <trkpt lat="42.357678000" lon="-2.353971000">
        <ele>536.00</ele>
        <time>2013-07-27T10:22:55Z</time>
      </trkpt>
      <trkpt lat="42.357673000" lon="-2.353901000">
        <ele>536.10</ele>
        <time>2013-07-27T10:22:56Z</time>
      </trkpt>
      <trkpt lat="42.357666000" lon="-2.353828000">
        <ele>535.90</ele>
        <time>2013-07-27T10:22:57Z</time>
      </trkpt>
      <trkpt lat="42.357663000" lon="-2.353750000">
        <ele>535.80</ele>
        <time>2013-07-27T10:22:58Z</time>
      </trkpt>
      <trkpt lat="42.357662000" lon="-2.353665000">
        <ele>535.60</ele>
        <time>2013-07-27T10:22:59Z</time>
      </trkpt>
      <trkpt lat="42.357660000" lon="-2.353578000">
        <ele>535.50</ele>
        <time>2013-07-27T10:23:00Z</time>
      </trkpt>
      <trkpt lat="42.357656000" lon="-2.353490000">
        <ele>535.20</ele>
        <time>2013-07-27T10:23:01Z</time>
      </trkpt>
      <trkpt lat="42.357652000" lon="-2.353402000">
        <ele>535.00</ele>
        <time>2013-07-27T10:23:02Z</time>
      </trkpt>
      <trkpt lat="42.357646000" lon="-2.353316000">
        <ele>534.90</ele>
        <time>2013-07-27T10:23:03Z</time>
      </trkpt>
      <trkpt lat="42.357641000" lon="-2.353228000">
        <ele>534.70</ele>
        <time>2013-07-27T10:23:04Z</time>
      </trkpt>
      <trkpt lat="42.357635000" lon="-2.353142000">
        <ele>534.40</ele>
        <time>2013-07-27T10:23:05Z</time>
      </trkpt>
      <trkpt lat="42.357630000" lon="-2.353055000">
        <ele>534.10</ele>
        <time>2013-07-27T10:23:06Z</time>
      </trkpt>
      <trkpt lat="42.357625000" lon="-2.352967000">
        <ele>533.90</ele>
        <time>2013-07-27T10:23:07Z</time>
      </trkpt>
      <trkpt lat="42.357620000" lon="-2.352881000">
        <ele>533.80</ele>
        <time>2013-07-27T10:23:08Z</time>
      </trkpt>
      <trkpt lat="42.357615000" lon="-2.352793000">
        <ele>533.70</ele>
        <time>2013-07-27T10:23:09Z</time>
      </trkpt>
      <trkpt lat="42.357611000" lon="-2.352707000">
        <ele>533.60</ele>
        <time>2013-07-27T10:23:10Z</time>
      </trkpt>
      <trkpt lat="42.357607000" lon="-2.352623000">
        <ele>533.60</ele>
        <time>2013-07-27T10:23:11Z</time>
      </trkpt>
      <trkpt lat="42.357605000" lon="-2.352536000">
        <ele>533.60</ele>
        <time>2013-07-27T10:23:12Z</time>
      </trkpt>
      <trkpt lat="42.357598000" lon="-2.352451000">
        <ele>533.60</ele>
        <time>2013-07-27T10:23:13Z</time>
      </trkpt>
      <trkpt lat="42.357593000" lon="-2.352366000">
        <ele>533.60</ele>
        <time>2013-07-27T10:23:14Z</time>
      </trkpt>
      <trkpt lat="42.357586000" lon="-2.352280000">
        <ele>533.60</ele>
        <time>2013-07-27T10:23:15Z</time>
      </trkpt>
      <trkpt lat="42.357581000" lon="-2.352195000">
        <ele>533.60</ele>
        <time>2013-07-27T10:23:16Z</time>
      </trkpt>
      <trkpt lat="42.357577000" lon="-2.352110000">
        <ele>533.30</ele>
        <time>2013-07-27T10:23:17Z</time>
      </trkpt>
      <trkpt lat="42.357572000" lon="-2.352023000">
        <ele>533.10</ele>
        <time>2013-07-27T10:23:18Z</time>
      </trkpt>
      <trkpt lat="42.357568000" lon="-2.351936000">
        <ele>533.00</ele>
        <time>2013-07-27T10:23:19Z</time>
      </trkpt>
      <trkpt lat="42.357564000" lon="-2.351849000">
        <ele>532.80</ele>
        <time>2013-07-27T10:23:20Z</time>
      </trkpt>
      <trkpt lat="42.357562000" lon="-2.351760000">
        <ele>532.50</ele>
        <time>2013-07-27T10:23:21Z</time>
      </trkpt>
      <trkpt lat="42.357558000" lon="-2.351673000">
        <ele>532.20</ele>
        <time>2013-07-27T10:23:22Z</time>
      </trkpt>
      <trkpt lat="42.357553000" lon="-2.351584000">
        <ele>532.00</ele>
        <time>2013-07-27T10:23:23Z</time>
      </trkpt>
      <trkpt lat="42.357548000" lon="-2.351496000">
        <ele>531.90</ele>
        <time>2013-07-27T10:23:24Z</time>
      </trkpt>
      <trkpt lat="42.357544000" lon="-2.351405000">
        <ele>531.90</ele>
        <time>2013-07-27T10:23:25Z</time>
      </trkpt>
      <trkpt lat="42.357538000" lon="-2.351318000">
        <ele>531.80</ele>
        <time>2013-07-27T10:23:26Z</time>
      </trkpt>
      <trkpt lat="42.357536000" lon="-2.351230000">
        <ele>531.80</ele>
        <time>2013-07-27T10:23:27Z</time>
      </trkpt>
      <trkpt lat="42.357531000" lon="-2.351140000">
        <ele>531.80</ele>
        <time>2013-07-27T10:23:28Z</time>
      </trkpt>
      <trkpt lat="42.357525000" lon="-2.351051000">
        <ele>531.60</ele>
        <time>2013-07-27T10:23:29Z</time>
      </trkpt>
      <trkpt lat="42.357520000" lon="-2.350960000">
        <ele>531.50</ele>
        <time>2013-07-27T10:23:30Z</time>
      </trkpt>
      <trkpt lat="42.357515000" lon="-2.350868000">
        <ele>531.50</ele>
        <time>2013-07-27T10:23:31Z</time>
      </trkpt>
      <trkpt lat="42.357510000" lon="-2.350777000">
        <ele>531.40</ele>
        <time>2013-07-27T10:23:32Z</time>
      </trkpt>
      <trkpt lat="42.357506000" lon="-2.350687000">
        <ele>531.30</ele>
        <time>2013-07-27T10:23:33Z</time>
      </trkpt>
      <trkpt lat="42.357499000" lon="-2.350596000">
        <ele>531.20</ele>
        <time>2013-07-27T10:23:34Z</time>
      </trkpt>
      <trkpt lat="42.357492000" lon="-2.350506000">
        <ele>531.10</ele>
        <time>2013-07-27T10:23:35Z</time>
      </trkpt>
      <trkpt lat="42.357486000" lon="-2.350416000">
        <ele>531.10</ele>
        <time>2013-07-27T10:23:36Z</time>
      </trkpt>
      <trkpt lat="42.357481000" lon="-2.350326000">
        <ele>530.90</ele>
        <time>2013-07-27T10:23:37Z</time>
      </trkpt>
      <trkpt lat="42.357476000" lon="-2.350238000">
        <ele>530.70</ele>
        <time>2013-07-27T10:23:38Z</time>
      </trkpt>
      <trkpt lat="42.357470000" lon="-2.350147000">
        <ele>530.50</ele>
        <time>2013-07-27T10:23:39Z</time>
      </trkpt>
      <trkpt lat="42.357464000" lon="-2.350058000">
        <ele>530.40</ele>
        <time>2013-07-27T10:23:40Z</time>
      </trkpt>
      <trkpt lat="42.357460000" lon="-2.349967000">
        <ele>530.20</ele>
        <time>2013-07-27T10:23:41Z</time>
      </trkpt>
      <trkpt lat="42.357453000" lon="-2.349879000">
        <ele>530.10</ele>
        <time>2013-07-27T10:23:42Z</time>
      </trkpt>
      <trkpt lat="42.357448000" lon="-2.349790000">
        <ele>529.60</ele>
        <time>2013-07-27T10:23:43Z</time>
      </trkpt>
      <trkpt lat="42.357443000" lon="-2.349701000">
        <ele>529.20</ele>
        <time>2013-07-27T10:23:44Z</time>
      </trkpt>
      <trkpt lat="42.357438000" lon="-2.349613000">
        <ele>529.00</ele>
        <time>2013-07-27T10:23:45Z</time>
      </trkpt>
      <trkpt lat="42.357436000" lon="-2.349526000">
        <ele>528.70</ele>
        <time>2013-07-27T10:23:46Z</time>
      </trkpt>
      <trkpt lat="42.357430000" lon="-2.349434000">
        <ele>528.60</ele>
        <time>2013-07-27T10:23:47Z</time>
      </trkpt>
      <trkpt lat="42.357423000" lon="-2.349344000">
        <ele>528.50</ele>
        <time>2013-07-27T10:23:48Z</time>
      </trkpt>
      <trkpt lat="42.357418000" lon="-2.349259000">
        <ele>528.50</ele>
        <time>2013-07-27T10:23:49Z</time>
      </trkpt>
      <trkpt lat="42.357412000" lon="-2.349169000">
        <ele>528.40</ele>
        <time>2013-07-27T10:23:50Z</time>
      </trkpt>
      <trkpt lat="42.357407000" lon="-2.349080000">
        <ele>528.20</ele>
        <time>2013-07-27T10:23:51Z</time>
      </trkpt>
      <trkpt lat="42.357402000" lon="-2.348992000">
        <ele>528.10</ele>
        <time>2013-07-27T10:23:52Z</time>
      </trkpt>
      <trkpt lat="42.357398000" lon="-2.348906000">
        <ele>528.00</ele>
        <time>2013-07-27T10:23:53Z</time>
      </trkpt>
      <trkpt lat="42.357393000" lon="-2.348821000">
        <ele>527.90</ele>
        <time>2013-07-27T10:23:54Z</time>
      </trkpt>
      <trkpt lat="42.357388000" lon="-2.348736000">
        <ele>527.80</ele>
        <time>2013-07-27T10:23:55Z</time>
      </trkpt>
      <trkpt lat="42.357382000" lon="-2.348657000">
        <ele>527.70</ele>
        <time>2013-07-27T10:23:56Z</time>
      </trkpt>
      <trkpt lat="42.357378000" lon="-2.348583000">
        <ele>527.80</ele>
        <time>2013-07-27T10:23:57Z</time>
      </trkpt>
      <trkpt lat="42.357375000" lon="-2.348510000">
        <ele>527.80</ele>
        <time>2013-07-27T10:23:58Z</time>
      </trkpt>
      <trkpt lat="42.357371000" lon="-2.348439000">
        <ele>527.80</ele>
        <time>2013-07-27T10:23:59Z</time>
      </trkpt>
      <trkpt lat="42.357367000" lon="-2.348368000">
        <ele>527.80</ele>
        <time>2013-07-27T10:24:00Z</time>
      </trkpt>
      <trkpt lat="42.357362000" lon="-2.348300000">
        <ele>527.80</ele>
        <time>2013-07-27T10:24:01Z</time>
      </trkpt>
      <trkpt lat="42.357357000" lon="-2.348233000">
        <ele>527.80</ele>
        <time>2013-07-27T10:24:02Z</time>
      </trkpt>
      <trkpt lat="42.357354000" lon="-2.348166000">
        <ele>527.60</ele>
        <time>2013-07-27T10:24:03Z</time>
      </trkpt>
      <trkpt lat="42.357349000" lon="-2.348098000">
        <ele>527.50</ele>
        <time>2013-07-27T10:24:04Z</time>
      </trkpt>
      <trkpt lat="42.357346000" lon="-2.348029000">
        <ele>527.50</ele>
        <time>2013-07-27T10:24:05Z</time>
      </trkpt>
      <trkpt lat="42.357343000" lon="-2.347961000">
        <ele>527.40</ele>
        <time>2013-07-27T10:24:06Z</time>
      </trkpt>
      <trkpt lat="42.357339000" lon="-2.347886000">
        <ele>527.50</ele>
        <time>2013-07-27T10:24:07Z</time>
      </trkpt>
      <trkpt lat="42.357334000" lon="-2.347805000">
        <ele>527.60</ele>
        <time>2013-07-27T10:24:08Z</time>
      </trkpt>
      <trkpt lat="42.357331000" lon="-2.347731000">
        <ele>527.80</ele>
        <time>2013-07-27T10:24:09Z</time>
      </trkpt>
      <trkpt lat="42.357327000" lon="-2.347661000">
        <ele>528.00</ele>
        <time>2013-07-27T10:24:10Z</time>
      </trkpt>
      <trkpt lat="42.357326000" lon="-2.347592000">
        <ele>528.20</ele>
        <time>2013-07-27T10:24:11Z</time>
      </trkpt>
      <trkpt lat="42.357320000" lon="-2.347526000">
        <ele>528.30</ele>
        <time>2013-07-27T10:24:12Z</time>
      </trkpt>
      <trkpt lat="42.357315000" lon="-2.347462000">
        <ele>528.40</ele>
        <time>2013-07-27T10:24:13Z</time>
      </trkpt>
      <trkpt lat="42.357312000" lon="-2.347400000">
        <ele>528.40</ele>
        <time>2013-07-27T10:24:14Z</time>
      </trkpt>
      <trkpt lat="42.357309000" lon="-2.347336000">
        <ele>528.50</ele>
        <time>2013-07-27T10:24:15Z</time>
      </trkpt>
      <trkpt lat="42.357308000" lon="-2.347273000">
        <ele>528.50</ele>
        <time>2013-07-27T10:24:16Z</time>
      </trkpt>
      <trkpt lat="42.357308000" lon="-2.347209000">
        <ele>528.50</ele>
        <time>2013-07-27T10:24:17Z</time>
      </trkpt>
      <trkpt lat="42.357308000" lon="-2.347148000">
        <ele>528.50</ele>
        <time>2013-07-27T10:24:18Z</time>
      </trkpt>
      <trkpt lat="42.357308000" lon="-2.347085000">
        <ele>528.80</ele>
        <time>2013-07-27T10:24:19Z</time>
      </trkpt>
      <trkpt lat="42.357305000" lon="-2.347025000">
        <ele>529.00</ele>
        <time>2013-07-27T10:24:20Z</time>
      </trkpt>
      <trkpt lat="42.357299000" lon="-2.346966000">
        <ele>529.10</ele>
        <time>2013-07-27T10:24:21Z</time>
      </trkpt>
      <trkpt lat="42.357293000" lon="-2.346907000">
        <ele>529.20</ele>
        <time>2013-07-27T10:24:22Z</time>
      </trkpt>
      <trkpt lat="42.357288000" lon="-2.346847000">
        <ele>529.40</ele>
        <time>2013-07-27T10:24:23Z</time>
      </trkpt>
      <trkpt lat="42.357282000" lon="-2.346788000">
        <ele>529.50</ele>
        <time>2013-07-27T10:24:24Z</time>
      </trkpt>
      <trkpt lat="42.357277000" lon="-2.346729000">
        <ele>529.60</ele>
        <time>2013-07-27T10:24:25Z</time>
      </trkpt>
      <trkpt lat="42.357273000" lon="-2.346670000">
        <ele>529.60</ele>
        <time>2013-07-27T10:24:26Z</time>
      </trkpt>
      <trkpt lat="42.357272000" lon="-2.346614000">
        <ele>529.80</ele>
        <time>2013-07-27T10:24:27Z</time>
      </trkpt>
      <trkpt lat="42.357269000" lon="-2.346558000">
        <ele>529.90</ele>
        <time>2013-07-27T10:24:28Z</time>
      </trkpt>
      <trkpt lat="42.357267000" lon="-2.346504000">
        <ele>530.00</ele>
        <time>2013-07-27T10:24:29Z</time>
      </trkpt>
      <trkpt lat="42.357265000" lon="-2.346450000">
        <ele>530.30</ele>
        <time>2013-07-27T10:24:30Z</time>
      </trkpt>
      <trkpt lat="42.357263000" lon="-2.346393000">
        <ele>530.50</ele>
        <time>2013-07-27T10:24:31Z</time>
      </trkpt>
      <trkpt lat="42.357261000" lon="-2.346337000">
        <ele>530.50</ele>
        <time>2013-07-27T10:24:32Z</time>
      </trkpt>
      <trkpt lat="42.357257000" lon="-2.346280000">
        <ele>530.50</ele>
        <time>2013-07-27T10:24:33Z</time>
      </trkpt>
      <trkpt lat="42.357254000" lon="-2.346227000">
        <ele>530.70</ele>
        <time>2013-07-27T10:24:34Z</time>
      </trkpt>
      <trkpt lat="42.357249000" lon="-2.346173000">
        <ele>530.80</ele>
        <time>2013-07-27T10:24:35Z</time>
      </trkpt>
      <trkpt lat="42.357243000" lon="-2.346121000">
        <ele>530.90</ele>
        <time>2013-07-27T10:24:36Z</time>
      </trkpt>
      <trkpt lat="42.357238000" lon="-2.346069000">
        <ele>530.90</ele>
        <time>2013-07-27T10:24:37Z</time>
      </trkpt>
      <trkpt lat="42.357237000" lon="-2.346018000">
        <ele>531.10</ele>
        <time>2013-07-27T10:24:38Z</time>
      </trkpt>
      <trkpt lat="42.357235000" lon="-2.345966000">
        <ele>531.30</ele>
        <time>2013-07-27T10:24:39Z</time>
      </trkpt>
      <trkpt lat="42.357234000" lon="-2.345913000">
        <ele>531.40</ele>
        <time>2013-07-27T10:24:40Z</time>
      </trkpt>
      <trkpt lat="42.357231000" lon="-2.345862000">
        <ele>531.40</ele>
        <time>2013-07-27T10:24:41Z</time>
      </trkpt>
      <trkpt lat="42.357228000" lon="-2.345813000">
        <ele>531.50</ele>
        <time>2013-07-27T10:24:42Z</time>
      </trkpt>
      <trkpt lat="42.357227000" lon="-2.345764000">
        <ele>531.50</ele>
        <time>2013-07-27T10:24:43Z</time>
      </trkpt>
      <trkpt lat="42.357220000" lon="-2.345715000">
        <ele>531.60</ele>
        <time>2013-07-27T10:24:44Z</time>
      </trkpt>
      <trkpt lat="42.357219000" lon="-2.345665000">
        <ele>531.60</ele>
        <time>2013-07-27T10:24:45Z</time>
      </trkpt>
      <trkpt lat="42.357216000" lon="-2.345616000">
        <ele>531.60</ele>
        <time>2013-07-27T10:24:46Z</time>
      </trkpt>
      <trkpt lat="42.357213000" lon="-2.345566000">
        <ele>531.60</ele>
        <time>2013-07-27T10:24:47Z</time>
      </trkpt>
      <trkpt lat="42.357212000" lon="-2.345517000">
        <ele>531.60</ele>
        <time>2013-07-27T10:24:48Z</time>
      </trkpt>
      <trkpt lat="42.357210000" lon="-2.345466000">
        <ele>531.60</ele>
        <time>2013-07-27T10:24:49Z</time>
      </trkpt>
      <trkpt lat="42.357207000" lon="-2.345417000">
        <ele>531.70</ele>
        <time>2013-07-27T10:24:50Z</time>
      </trkpt>
      <trkpt lat="42.357204000" lon="-2.345366000">
        <ele>531.70</ele>
        <time>2013-07-27T10:24:51Z</time>
      </trkpt>
      <trkpt lat="42.357201000" lon="-2.345316000">
        <ele>531.70</ele>
        <time>2013-07-27T10:24:52Z</time>
      </trkpt>
      <trkpt lat="42.357198000" lon="-2.345267000">
        <ele>531.80</ele>
        <time>2013-07-27T10:24:53Z</time>
      </trkpt>
      <trkpt lat="42.357198000" lon="-2.345217000">
        <ele>531.90</ele>
        <time>2013-07-27T10:24:54Z</time>
      </trkpt>
      <trkpt lat="42.357197000" lon="-2.345172000">
        <ele>532.00</ele>
        <time>2013-07-27T10:24:55Z</time>
      </trkpt>
      <trkpt lat="42.357194000" lon="-2.345124000">
        <ele>532.20</ele>
        <time>2013-07-27T10:24:56Z</time>
      </trkpt>
      <trkpt lat="42.357191000" lon="-2.345077000">
        <ele>532.30</ele>
        <time>2013-07-27T10:24:57Z</time>
      </trkpt>
      <trkpt lat="42.357188000" lon="-2.345028000">
        <ele>532.40</ele>
        <time>2013-07-27T10:24:58Z</time>
      </trkpt>
      <trkpt lat="42.357185000" lon="-2.344982000">
        <ele>532.40</ele>
        <time>2013-07-27T10:24:59Z</time>
      </trkpt>
      <trkpt lat="42.357181000" lon="-2.344934000">
        <ele>532.50</ele>
        <time>2013-07-27T10:25:00Z</time>
      </trkpt>
      <trkpt lat="42.357179000" lon="-2.344888000">
        <ele>532.50</ele>
        <time>2013-07-27T10:25:01Z</time>
      </trkpt>
      <trkpt lat="42.357177000" lon="-2.344841000">
        <ele>532.50</ele>
        <time>2013-07-27T10:25:02Z</time>
      </trkpt>
      <trkpt lat="42.357175000" lon="-2.344795000">
        <ele>532.40</ele>
        <time>2013-07-27T10:25:03Z</time>
      </trkpt>
      <trkpt lat="42.357172000" lon="-2.344749000">
        <ele>532.40</ele>
        <time>2013-07-27T10:25:04Z</time>
      </trkpt>
      <trkpt lat="42.357172000" lon="-2.344700000">
        <ele>532.40</ele>
        <time>2013-07-27T10:25:05Z</time>
      </trkpt>
      <trkpt lat="42.357169000" lon="-2.344654000">
        <ele>532.70</ele>
        <time>2013-07-27T10:25:06Z</time>
      </trkpt>
      <trkpt lat="42.357167000" lon="-2.344604000">
        <ele>532.80</ele>
        <time>2013-07-27T10:25:07Z</time>
      </trkpt>
      <trkpt lat="42.357164000" lon="-2.344557000">
        <ele>533.00</ele>
        <time>2013-07-27T10:25:08Z</time>
      </trkpt>
      <trkpt lat="42.357162000" lon="-2.344512000">
        <ele>533.10</ele>
        <time>2013-07-27T10:25:09Z</time>
      </trkpt>
      <trkpt lat="42.357156000" lon="-2.344468000">
        <ele>533.20</ele>
        <time>2013-07-27T10:25:10Z</time>
      </trkpt>
      <trkpt lat="42.357153000" lon="-2.344425000">
        <ele>533.20</ele>
        <time>2013-07-27T10:25:11Z</time>
      </trkpt>
      <trkpt lat="42.357148000" lon="-2.344384000">
        <ele>533.30</ele>
        <time>2013-07-27T10:25:12Z</time>
      </trkpt>
      <trkpt lat="42.357143000" lon="-2.344343000">
        <ele>533.30</ele>
        <time>2013-07-27T10:25:13Z</time>
      </trkpt>
      <trkpt lat="42.357141000" lon="-2.344301000">
        <ele>533.50</ele>
        <time>2013-07-27T10:25:14Z</time>
      </trkpt>
      <trkpt lat="42.357137000" lon="-2.344258000">
        <ele>533.70</ele>
        <time>2013-07-27T10:25:15Z</time>
      </trkpt>
      <trkpt lat="42.357134000" lon="-2.344212000">
        <ele>533.90</ele>
        <time>2013-07-27T10:25:16Z</time>
      </trkpt>
      <trkpt lat="42.357131000" lon="-2.344165000">
        <ele>534.20</ele>
        <time>2013-07-27T10:25:17Z</time>
      </trkpt>
      <trkpt lat="42.357128000" lon="-2.344119000">
        <ele>534.40</ele>
        <time>2013-07-27T10:25:18Z</time>
      </trkpt>
      <trkpt lat="42.357125000" lon="-2.344072000">
        <ele>534.50</ele>
        <time>2013-07-27T10:25:19Z</time>
      </trkpt>
      <trkpt lat="42.357121000" lon="-2.344026000">
        <ele>534.60</ele>
        <time>2013-07-27T10:25:20Z</time>
      </trkpt>
      <trkpt lat="42.357119000" lon="-2.343980000">
        <ele>534.70</ele>
        <time>2013-07-27T10:25:21Z</time>
      </trkpt>
      <trkpt lat="42.357117000" lon="-2.343936000">
        <ele>534.80</ele>
        <time>2013-07-27T10:25:22Z</time>
      </trkpt>
      <trkpt lat="42.357113000" lon="-2.343883000">
        <ele>534.90</ele>
        <time>2013-07-27T10:25:23Z</time>
      </trkpt>
      <trkpt lat="42.357111000" lon="-2.343838000">
        <ele>535.00</ele>
        <time>2013-07-27T10:25:24Z</time>
      </trkpt>
      <trkpt lat="42.357107000" lon="-2.343792000">
        <ele>535.30</ele>
        <time>2013-07-27T10:25:25Z</time>
      </trkpt>
      <trkpt lat="42.357104000" lon="-2.343748000">
        <ele>535.50</ele>
        <time>2013-07-27T10:25:26Z</time>
      </trkpt>
      <trkpt lat="42.357104000" lon="-2.343701000">
        <ele>535.50</ele>
        <time>2013-07-27T10:25:27Z</time>
      </trkpt>
      <trkpt lat="42.357102000" lon="-2.343655000">
        <ele>535.60</ele>
        <time>2013-07-27T10:25:28Z</time>
      </trkpt>
      <trkpt lat="42.357099000" lon="-2.343611000">
        <ele>535.70</ele>
        <time>2013-07-27T10:25:29Z</time>
      </trkpt>
      <trkpt lat="42.357095000" lon="-2.343564000">
        <ele>535.70</ele>
        <time>2013-07-27T10:25:30Z</time>
      </trkpt>
      <trkpt lat="42.357092000" lon="-2.343520000">
        <ele>535.70</ele>
        <time>2013-07-27T10:25:31Z</time>
      </trkpt>
      <trkpt lat="42.357089000" lon="-2.343473000">
        <ele>535.70</ele>
        <time>2013-07-27T10:25:32Z</time>
      </trkpt>
      <trkpt lat="42.357088000" lon="-2.343425000">
        <ele>535.90</ele>
        <time>2013-07-27T10:25:33Z</time>
      </trkpt>
      <trkpt lat="42.357086000" lon="-2.343380000">
        <ele>536.10</ele>
        <time>2013-07-27T10:25:34Z</time>
      </trkpt>
      <trkpt lat="42.357082000" lon="-2.343333000">
        <ele>536.40</ele>
        <time>2013-07-27T10:25:35Z</time>
      </trkpt>
      <trkpt lat="42.357079000" lon="-2.343286000">
        <ele>536.50</ele>
        <time>2013-07-27T10:25:36Z</time>
      </trkpt>
      <trkpt lat="42.357075000" lon="-2.343240000">
        <ele>536.70</ele>
        <time>2013-07-27T10:25:37Z</time>
      </trkpt>
      <trkpt lat="42.357072000" lon="-2.343198000">
        <ele>536.80</ele>
        <time>2013-07-27T10:25:38Z</time>
      </trkpt>
      <trkpt lat="42.357068000" lon="-2.343155000">
        <ele>536.90</ele>
        <time>2013-07-27T10:25:39Z</time>
      </trkpt>
      <trkpt lat="42.357063000" lon="-2.343112000">
        <ele>536.90</ele>
        <time>2013-07-27T10:25:40Z</time>
      </trkpt>
      <trkpt lat="42.357059000" lon="-2.343071000">
        <ele>536.80</ele>
        <time>2013-07-27T10:25:41Z</time>
      </trkpt>
      <trkpt lat="42.357056000" lon="-2.343030000">
        <ele>536.80</ele>
        <time>2013-07-27T10:25:42Z</time>
      </trkpt>
      <trkpt lat="42.357053000" lon="-2.342989000">
        <ele>537.10</ele>
        <time>2013-07-27T10:25:43Z</time>
      </trkpt>
      <trkpt lat="42.357047000" lon="-2.342950000">
        <ele>537.30</ele>
        <time>2013-07-27T10:25:44Z</time>
      </trkpt>
      <trkpt lat="42.357042000" lon="-2.342911000">
        <ele>537.40</ele>
        <time>2013-07-27T10:25:45Z</time>
      </trkpt>
      <trkpt lat="42.357038000" lon="-2.342871000">
        <ele>537.40</ele>
        <time>2013-07-27T10:25:46Z</time>
      </trkpt>
      <trkpt lat="42.357034000" lon="-2.342828000">
        <ele>537.50</ele>
        <time>2013-07-27T10:25:47Z</time>
      </trkpt>
      <trkpt lat="42.357030000" lon="-2.342786000">
        <ele>537.50</ele>
        <time>2013-07-27T10:25:48Z</time>
      </trkpt>
      <trkpt lat="42.357024000" lon="-2.342741000">
        <ele>537.60</ele>
        <time>2013-07-27T10:25:49Z</time>
      </trkpt>
      <trkpt lat="42.357019000" lon="-2.342696000">
        <ele>537.60</ele>
        <time>2013-07-27T10:25:50Z</time>
      </trkpt>
      <trkpt lat="42.357015000" lon="-2.342654000">
        <ele>537.70</ele>
        <time>2013-07-27T10:25:51Z</time>
      </trkpt>
      <trkpt lat="42.357012000" lon="-2.342610000">
        <ele>537.70</ele>
        <time>2013-07-27T10:25:52Z</time>
      </trkpt>
      <trkpt lat="42.357009000" lon="-2.342566000">
        <ele>537.80</ele>
        <time>2013-07-27T10:25:53Z</time>
      </trkpt>
      <trkpt lat="42.357007000" lon="-2.342518000">
        <ele>537.80</ele>
        <time>2013-07-27T10:25:54Z</time>
      </trkpt>
      <trkpt lat="42.357004000" lon="-2.342463000">
        <ele>537.60</ele>
        <time>2013-07-27T10:25:55Z</time>
      </trkpt>
      <trkpt lat="42.357005000" lon="-2.342409000">
        <ele>537.40</ele>
        <time>2013-07-27T10:25:56Z</time>
      </trkpt>
      <trkpt lat="42.357010000" lon="-2.342354000">
        <ele>537.20</ele>
        <time>2013-07-27T10:25:57Z</time>
      </trkpt>
      <trkpt lat="42.357009000" lon="-2.342295000">
        <ele>537.10</ele>
        <time>2013-07-27T10:25:58Z</time>
      </trkpt>
      <trkpt lat="42.357007000" lon="-2.342240000">
        <ele>537.50</ele>
        <time>2013-07-27T10:25:59Z</time>
      </trkpt>
      <trkpt lat="42.357003000" lon="-2.342185000">
        <ele>537.70</ele>
        <time>2013-07-27T10:26:00Z</time>
      </trkpt>
      <trkpt lat="42.356998000" lon="-2.342130000">
        <ele>538.00</ele>
        <time>2013-07-27T10:26:01Z</time>
      </trkpt>
      <trkpt lat="42.356994000" lon="-2.342075000">
        <ele>538.30</ele>
        <time>2013-07-27T10:26:02Z</time>
      </trkpt>
      <trkpt lat="42.356989000" lon="-2.342022000">
        <ele>538.30</ele>
        <time>2013-07-27T10:26:03Z</time>
      </trkpt>
      <trkpt lat="42.356988000" lon="-2.341968000">
        <ele>538.30</ele>
        <time>2013-07-27T10:26:04Z</time>
      </trkpt>
      <trkpt lat="42.356986000" lon="-2.341915000">
        <ele>538.00</ele>
        <time>2013-07-27T10:26:05Z</time>
      </trkpt>
      <trkpt lat="42.356987000" lon="-2.341861000">
        <ele>537.80</ele>
        <time>2013-07-27T10:26:06Z</time>
      </trkpt>
      <trkpt lat="42.356989000" lon="-2.341807000">
        <ele>537.60</ele>
        <time>2013-07-27T10:26:07Z</time>
      </trkpt>
      <trkpt lat="42.356986000" lon="-2.341756000">
        <ele>537.50</ele>
        <time>2013-07-27T10:26:08Z</time>
      </trkpt>
      <trkpt lat="42.356981000" lon="-2.341703000">
        <ele>537.60</ele>
        <time>2013-07-27T10:26:09Z</time>
      </trkpt>
      <trkpt lat="42.356978000" lon="-2.341654000">
        <ele>537.70</ele>
        <time>2013-07-27T10:26:10Z</time>
      </trkpt>
      <trkpt lat="42.356977000" lon="-2.341607000">
        <ele>537.70</ele>
        <time>2013-07-27T10:26:11Z</time>
      </trkpt>
      <trkpt lat="42.356975000" lon="-2.341561000">
        <ele>537.80</ele>
        <time>2013-07-27T10:26:12Z</time>
      </trkpt>
      <trkpt lat="42.356975000" lon="-2.341520000">
        <ele>537.80</ele>
        <time>2013-07-27T10:26:13Z</time>
      </trkpt>
      <trkpt lat="42.356970000" lon="-2.341481000">
        <ele>537.80</ele>
        <time>2013-07-27T10:26:14Z</time>
      </trkpt>
      <trkpt lat="42.356970000" lon="-2.341443000">
        <ele>537.80</ele>
        <time>2013-07-27T10:26:15Z</time>
      </trkpt>
      <trkpt lat="42.356966000" lon="-2.341406000">
        <ele>537.90</ele>
        <time>2013-07-27T10:26:16Z</time>
      </trkpt>
      <trkpt lat="42.356966000" lon="-2.341373000">
        <ele>537.90</ele>
        <time>2013-07-27T10:26:17Z</time>
      </trkpt>
      <trkpt lat="42.356962000" lon="-2.341347000">
        <ele>538.00</ele>
        <time>2013-07-27T10:26:18Z</time>
      </trkpt>
      <trkpt lat="42.356947000" lon="-2.341332000">
        <ele>538.00</ele>
        <time>2013-07-27T10:26:19Z</time>
      </trkpt>
      <trkpt lat="42.356927000" lon="-2.341325000">
        <ele>538.10</ele>
        <time>2013-07-27T10:26:20Z</time>
      </trkpt>
      <trkpt lat="42.356906000" lon="-2.341322000">
        <ele>538.30</ele>
        <time>2013-07-27T10:26:21Z</time>
      </trkpt>
      <trkpt lat="42.356887000" lon="-2.341321000">
        <ele>538.50</ele>
        <time>2013-07-27T10:26:22Z</time>
      </trkpt>
      <trkpt lat="42.356881000" lon="-2.341320000">
        <ele>538.60</ele>
        <time>2013-07-27T10:26:23Z</time>
      </trkpt>
      <trkpt lat="42.356879000" lon="-2.341316000">
        <ele>538.70</ele>
        <time>2013-07-27T10:26:24Z</time>
      </trkpt>
      <trkpt lat="42.356877000" lon="-2.341310000">
        <ele>538.70</ele>
        <time>2013-07-27T10:26:25Z</time>
      </trkpt>
      <trkpt lat="42.356873000" lon="-2.341305000">
        <ele>538.80</ele>
        <time>2013-07-27T10:26:26Z</time>
      </trkpt>
      <trkpt lat="42.356874000" lon="-2.341305000">
        <ele>538.70</ele>
        <time>2013-07-27T10:26:27Z</time>
      </trkpt>
      <trkpt lat="42.356871000" lon="-2.341310000">
        <ele>538.60</ele>
        <time>2013-07-27T10:26:28Z</time>
      </trkpt>
      <trkpt lat="42.356865000" lon="-2.341314000">
        <ele>538.60</ele>
        <time>2013-07-27T10:26:29Z</time>
      </trkpt>
      <trkpt lat="42.356863000" lon="-2.341315000">
        <ele>538.50</ele>
        <time>2013-07-27T10:26:30Z</time>
      </trkpt>
      <trkpt lat="42.356861000" lon="-2.341317000">
        <ele>538.50</ele>
        <time>2013-07-27T10:26:31Z</time>
      </trkpt>
      <trkpt lat="42.356861000" lon="-2.341315000">
        <ele>538.50</ele>
        <time>2013-07-27T10:26:32Z</time>
      </trkpt>
      <trkpt lat="42.356861000" lon="-2.341314000">
        <ele>538.50</ele>
        <time>2013-07-27T10:26:33Z</time>
      </trkpt>
      <trkpt lat="42.356861000" lon="-2.341312000">
        <ele>538.60</ele>
        <time>2013-07-27T10:26:34Z</time>
      </trkpt>
      <trkpt lat="42.356861000" lon="-2.341310000">
        <ele>538.50</ele>
        <time>2013-07-27T10:26:35Z</time>
      </trkpt>
      <trkpt lat="42.356864000" lon="-2.341311000">
        <ele>538.40</ele>
        <time>2013-07-27T10:26:36Z</time>
      </trkpt>
      <trkpt lat="42.356865000" lon="-2.341313000">
        <ele>538.30</ele>
        <time>2013-07-27T10:26:37Z</time>
      </trkpt>
      <trkpt lat="42.356866000" lon="-2.341315000">
        <ele>538.20</ele>
        <time>2013-07-27T10:26:38Z</time>
      </trkpt>
      <trkpt lat="42.356868000" lon="-2.341313000">
        <ele>538.10</ele>
        <time>2013-07-27T10:26:39Z</time>
      </trkpt>
      <trkpt lat="42.356869000" lon="-2.341311000">
        <ele>538.10</ele>
        <time>2013-07-27T10:26:40Z</time>
      </trkpt>
      <trkpt lat="42.356870000" lon="-2.341312000">
        <ele>538.00</ele>
        <time>2013-07-27T10:26:41Z</time>
      </trkpt>
      <trkpt lat="42.356870000" lon="-2.341310000">
        <ele>538.00</ele>
        <time>2013-07-27T10:26:42Z</time>
      </trkpt>
      <trkpt lat="42.356870000" lon="-2.341313000">
        <ele>538.10</ele>
        <time>2013-07-27T10:26:43Z</time>
      </trkpt>
      <trkpt lat="42.356868000" lon="-2.341313000">
        <ele>538.20</ele>
        <time>2013-07-27T10:26:44Z</time>
      </trkpt>
      <trkpt lat="42.356867000" lon="-2.341313000">
        <ele>538.20</ele>
        <time>2013-07-27T10:26:45Z</time>
      </trkpt>
      <trkpt lat="42.356868000" lon="-2.341314000">
        <ele>538.30</ele>
        <time>2013-07-27T10:26:46Z</time>
      </trkpt>
      <trkpt lat="42.356865000" lon="-2.341314000">
        <ele>538.30</ele>
        <time>2013-07-27T10:26:47Z</time>
      </trkpt>
      <trkpt lat="42.356866000" lon="-2.341317000">
        <ele>538.40</ele>
        <time>2013-07-27T10:26:48Z</time>
      </trkpt>
      <trkpt lat="42.356864000" lon="-2.341318000">
        <ele>538.40</ele>
        <time>2013-07-27T10:26:49Z</time>
      </trkpt>
      <trkpt lat="42.356864000" lon="-2.341317000">
        <ele>538.40</ele>
        <time>2013-07-27T10:26:50Z</time>
      </trkpt>
      <trkpt lat="42.356864000" lon="-2.341317000">
        <ele>538.30</ele>
        <time>2013-07-27T10:26:51Z</time>
      </trkpt>
      <trkpt lat="42.356864000" lon="-2.341317000">
        <ele>538.30</ele>
        <time>2013-07-27T10:26:52Z</time>
      </trkpt>
      <trkpt lat="42.356865000" lon="-2.341318000">
        <ele>538.20</ele>
        <time>2013-07-27T10:26:53Z</time>
      </trkpt>
      <trkpt lat="42.356863000" lon="-2.341319000">
        <ele>538.10</ele>
        <time>2013-07-27T10:26:54Z</time>
      </trkpt>
      <trkpt lat="42.356862000" lon="-2.341321000">
        <ele>538.10</ele>
        <time>2013-07-27T10:26:55Z</time>
      </trkpt>
      <trkpt lat="42.356862000" lon="-2.341324000">
        <ele>538.00</ele>
        <time>2013-07-27T10:26:56Z</time>
      </trkpt>
      <trkpt lat="42.356858000" lon="-2.341324000">
        <ele>538.10</ele>
        <time>2013-07-27T10:26:57Z</time>
      </trkpt>
      <trkpt lat="42.356858000" lon="-2.341328000">
        <ele>538.20</ele>
        <time>2013-07-27T10:26:58Z</time>
      </trkpt>
      <trkpt lat="42.356858000" lon="-2.341327000">
        <ele>538.30</ele>
        <time>2013-07-27T10:26:59Z</time>
      </trkpt>
      <trkpt lat="42.356855000" lon="-2.341327000">
        <ele>538.30</ele>
        <time>2013-07-27T10:27:00Z</time>
      </trkpt>
      <trkpt lat="42.356854000" lon="-2.341326000">
        <ele>538.20</ele>
        <time>2013-07-27T10:27:01Z</time>
      </trkpt>
      <trkpt lat="42.356853000" lon="-2.341328000">
        <ele>538.10</ele>
        <time>2013-07-27T10:27:02Z</time>
      </trkpt>
      <trkpt lat="42.356854000" lon="-2.341328000">
        <ele>538.10</ele>
        <time>2013-07-27T10:27:03Z</time>
      </trkpt>
      <trkpt lat="42.356855000" lon="-2.341327000">
        <ele>538.00</ele>
        <time>2013-07-27T10:27:04Z</time>
      </trkpt>
      <trkpt lat="42.356855000" lon="-2.341328000">
        <ele>538.00</ele>
        <time>2013-07-27T10:27:05Z</time>
      </trkpt>
      <trkpt lat="42.356853000" lon="-2.341327000">
        <ele>538.00</ele>
        <time>2013-07-27T10:27:06Z</time>
      </trkpt>
      <trkpt lat="42.356854000" lon="-2.341327000">
        <ele>538.00</ele>
        <time>2013-07-27T10:27:07Z</time>
      </trkpt>
      <trkpt lat="42.356855000" lon="-2.341323000">
        <ele>537.90</ele>
        <time>2013-07-27T10:27:08Z</time>
      </trkpt>
      <trkpt lat="42.356855000" lon="-2.341320000">
        <ele>537.90</ele>
        <time>2013-07-27T10:27:09Z</time>
      </trkpt>
      <trkpt lat="42.356855000" lon="-2.341319000">
        <ele>537.90</ele>
        <time>2013-07-27T10:27:10Z</time>
      </trkpt>
      <trkpt lat="42.356849000" lon="-2.341323000">
        <ele>537.90</ele>
        <time>2013-07-27T10:27:11Z</time>
      </trkpt>
      <trkpt lat="42.356843000" lon="-2.341325000">
        <ele>537.90</ele>
        <time>2013-07-27T10:27:12Z</time>
      </trkpt>
      <trkpt lat="42.356830000" lon="-2.341325000">
        <ele>537.90</ele>
        <time>2013-07-27T10:27:13Z</time>
      </trkpt>
      <trkpt lat="42.356823000" lon="-2.341321000">
        <ele>537.80</ele>
        <time>2013-07-27T10:27:14Z</time>
      </trkpt>
      <trkpt lat="42.356822000" lon="-2.341319000">
        <ele>537.80</ele>
        <time>2013-07-27T10:27:15Z</time>
      </trkpt>
      <trkpt lat="42.356811000" lon="-2.341321000">
        <ele>537.80</ele>
        <time>2013-07-27T10:27:16Z</time>
      </trkpt>
      <trkpt lat="42.356802000" lon="-2.341317000">
        <ele>537.80</ele>
        <time>2013-07-27T10:27:17Z</time>
      </trkpt>
      <trkpt lat="42.356791000" lon="-2.341317000">
        <ele>537.90</ele>
        <time>2013-07-27T10:27:18Z</time>
      </trkpt>
      <trkpt lat="42.356780000" lon="-2.341320000">
        <ele>537.90</ele>
        <time>2013-07-27T10:27:19Z</time>
      </trkpt>
      <trkpt lat="42.356766000" lon="-2.341319000">
        <ele>537.90</ele>
        <time>2013-07-27T10:27:20Z</time>
      </trkpt>
      <trkpt lat="42.356757000" lon="-2.341316000">
        <ele>537.90</ele>
        <time>2013-07-27T10:27:21Z</time>
      </trkpt>
      <trkpt lat="42.356746000" lon="-2.341312000">
        <ele>538.00</ele>
        <time>2013-07-27T10:27:22Z</time>
      </trkpt>
      <trkpt lat="42.356734000" lon="-2.341309000">
        <ele>538.10</ele>
        <time>2013-07-27T10:27:23Z</time>
      </trkpt>
      <trkpt lat="42.356723000" lon="-2.341305000">
        <ele>538.20</ele>
        <time>2013-07-27T10:27:24Z</time>
      </trkpt>
      <trkpt lat="42.356709000" lon="-2.341304000">
        <ele>538.20</ele>
        <time>2013-07-27T10:27:25Z</time>
      </trkpt>
      <trkpt lat="42.356695000" lon="-2.341299000">
        <ele>538.30</ele>
        <time>2013-07-27T10:27:26Z</time>
      </trkpt>
      <trkpt lat="42.356679000" lon="-2.341290000">
        <ele>538.30</ele>
        <time>2013-07-27T10:27:27Z</time>
      </trkpt>
      <trkpt lat="42.356662000" lon="-2.341282000">
        <ele>538.30</ele>
        <time>2013-07-27T10:27:28Z</time>
      </trkpt>
      <trkpt lat="42.356644000" lon="-2.341274000">
        <ele>538.30</ele>
        <time>2013-07-27T10:27:29Z</time>
      </trkpt>
      <trkpt lat="42.356627000" lon="-2.341267000">
        <ele>538.50</ele>
        <time>2013-07-27T10:27:30Z</time>
      </trkpt>
      <trkpt lat="42.356609000" lon="-2.341252000">
        <ele>538.60</ele>
        <time>2013-07-27T10:27:31Z</time>
      </trkpt>
      <trkpt lat="42.356591000" lon="-2.341239000">
        <ele>538.60</ele>
        <time>2013-07-27T10:27:32Z</time>
      </trkpt>
      <trkpt lat="42.356570000" lon="-2.341227000">
        <ele>538.70</ele>
        <time>2013-07-27T10:27:33Z</time>
      </trkpt>
      <trkpt lat="42.356549000" lon="-2.341216000">
        <ele>538.90</ele>
        <time>2013-07-27T10:27:34Z</time>
      </trkpt>
      <trkpt lat="42.356530000" lon="-2.341203000">
        <ele>539.00</ele>
        <time>2013-07-27T10:27:35Z</time>
      </trkpt>
      <trkpt lat="42.356510000" lon="-2.341190000">
        <ele>539.20</ele>
        <time>2013-07-27T10:27:36Z</time>
      </trkpt>
      <trkpt lat="42.356491000" lon="-2.341181000">
        <ele>539.30</ele>
        <time>2013-07-27T10:27:37Z</time>
      </trkpt>
      <trkpt lat="42.356471000" lon="-2.341169000">
        <ele>539.50</ele>
        <time>2013-07-27T10:27:38Z</time>
      </trkpt>
      <trkpt lat="42.356453000" lon="-2.341155000">
        <ele>539.60</ele>
        <time>2013-07-27T10:27:39Z</time>
      </trkpt>
      <trkpt lat="42.356435000" lon="-2.341141000">
        <ele>539.70</ele>
        <time>2013-07-27T10:27:40Z</time>
      </trkpt>
      <trkpt lat="42.356417000" lon="-2.341127000">
        <ele>539.70</ele>
        <time>2013-07-27T10:27:41Z</time>
      </trkpt>
      <trkpt lat="42.356398000" lon="-2.341120000">
        <ele>539.80</ele>
        <time>2013-07-27T10:27:42Z</time>
      </trkpt>
      <trkpt lat="42.356379000" lon="-2.341111000">
        <ele>539.80</ele>
        <time>2013-07-27T10:27:43Z</time>
      </trkpt>
      <trkpt lat="42.356361000" lon="-2.341101000">
        <ele>540.00</ele>
        <time>2013-07-27T10:27:44Z</time>
      </trkpt>
      <trkpt lat="42.356343000" lon="-2.341090000">
        <ele>540.10</ele>
        <time>2013-07-27T10:27:45Z</time>
      </trkpt>
      <trkpt lat="42.356325000" lon="-2.341075000">
        <ele>540.50</ele>
        <time>2013-07-27T10:27:46Z</time>
      </trkpt>
      <trkpt lat="42.356308000" lon="-2.341064000">
        <ele>540.70</ele>
        <time>2013-07-27T10:27:47Z</time>
      </trkpt>
      <trkpt lat="42.356292000" lon="-2.341051000">
        <ele>540.90</ele>
        <time>2013-07-27T10:27:48Z</time>
      </trkpt>
      <trkpt lat="42.356273000" lon="-2.341040000">
        <ele>541.10</ele>
        <time>2013-07-27T10:27:49Z</time>
      </trkpt>
      <trkpt lat="42.356255000" lon="-2.341030000">
        <ele>541.10</ele>
        <time>2013-07-27T10:27:50Z</time>
      </trkpt>
      <trkpt lat="42.356236000" lon="-2.341020000">
        <ele>541.10</ele>
        <time>2013-07-27T10:27:51Z</time>
      </trkpt>
      <trkpt lat="42.356218000" lon="-2.341008000">
        <ele>541.20</ele>
        <time>2013-07-27T10:27:52Z</time>
      </trkpt>
      <trkpt lat="42.356201000" lon="-2.340998000">
        <ele>541.20</ele>
        <time>2013-07-27T10:27:53Z</time>
      </trkpt>
      <trkpt lat="42.356177000" lon="-2.340989000">
        <ele>541.40</ele>
        <time>2013-07-27T10:27:54Z</time>
      </trkpt>
      <trkpt lat="42.356157000" lon="-2.340979000">
        <ele>541.50</ele>
        <time>2013-07-27T10:27:55Z</time>
      </trkpt>
      <trkpt lat="42.356140000" lon="-2.340969000">
        <ele>541.70</ele>
        <time>2013-07-27T10:27:56Z</time>
      </trkpt>
      <trkpt lat="42.356121000" lon="-2.340956000">
        <ele>541.90</ele>
        <time>2013-07-27T10:27:57Z</time>
      </trkpt>
      <trkpt lat="42.356101000" lon="-2.340945000">
        <ele>542.10</ele>
        <time>2013-07-27T10:27:58Z</time>
      </trkpt>
      <trkpt lat="42.356083000" lon="-2.340933000">
        <ele>542.30</ele>
        <time>2013-07-27T10:27:59Z</time>
      </trkpt>
      <trkpt lat="42.356067000" lon="-2.340922000">
        <ele>542.80</ele>
        <time>2013-07-27T10:28:00Z</time>
      </trkpt>
      <trkpt lat="42.356048000" lon="-2.340913000">
        <ele>543.20</ele>
        <time>2013-07-27T10:28:01Z</time>
      </trkpt>
      <trkpt lat="42.356030000" lon="-2.340906000">
        <ele>543.40</ele>
        <time>2013-07-27T10:28:02Z</time>
      </trkpt>
      <trkpt lat="42.356012000" lon="-2.340896000">
        <ele>543.60</ele>
        <time>2013-07-27T10:28:03Z</time>
      </trkpt>
      <trkpt lat="42.355995000" lon="-2.340883000">
        <ele>543.80</ele>
        <time>2013-07-27T10:28:04Z</time>
      </trkpt>
      <trkpt lat="42.355978000" lon="-2.340872000">
        <ele>543.90</ele>
        <time>2013-07-27T10:28:05Z</time>
      </trkpt>
      <trkpt lat="42.355958000" lon="-2.340862000">
        <ele>544.00</ele>
        <time>2013-07-27T10:28:06Z</time>
      </trkpt>
      <trkpt lat="42.355938000" lon="-2.340852000">
        <ele>544.10</ele>
        <time>2013-07-27T10:28:07Z</time>
      </trkpt>
      <trkpt lat="42.355919000" lon="-2.340842000">
        <ele>544.10</ele>
        <time>2013-07-27T10:28:08Z</time>
      </trkpt>
      <trkpt lat="42.355901000" lon="-2.340834000">
        <ele>544.10</ele>
        <time>2013-07-27T10:28:09Z</time>
      </trkpt>
      <trkpt lat="42.355883000" lon="-2.340825000">
        <ele>544.20</ele>
        <time>2013-07-27T10:28:10Z</time>
      </trkpt>
      <trkpt lat="42.355867000" lon="-2.340811000">
        <ele>544.30</ele>
        <time>2013-07-27T10:28:11Z</time>
      </trkpt>
      <trkpt lat="42.355850000" lon="-2.340796000">
        <ele>544.30</ele>
        <time>2013-07-27T10:28:12Z</time>
      </trkpt>
      <trkpt lat="42.355831000" lon="-2.340785000">
        <ele>544.30</ele>
        <time>2013-07-27T10:28:13Z</time>
      </trkpt>
      <trkpt lat="42.355812000" lon="-2.340778000">
        <ele>544.60</ele>
        <time>2013-07-27T10:28:14Z</time>
      </trkpt>
      <trkpt lat="42.355797000" lon="-2.340767000">
        <ele>544.80</ele>
        <time>2013-07-27T10:28:15Z</time>
      </trkpt>
      <trkpt lat="42.355780000" lon="-2.340761000">
        <ele>545.20</ele>
        <time>2013-07-27T10:28:16Z</time>
      </trkpt>
      <trkpt lat="42.355764000" lon="-2.340755000">
        <ele>545.50</ele>
        <time>2013-07-27T10:28:17Z</time>
      </trkpt>
      <trkpt lat="42.355748000" lon="-2.340745000">
        <ele>545.70</ele>
        <time>2013-07-27T10:28:18Z</time>
      </trkpt>
      <trkpt lat="42.355733000" lon="-2.340736000">
        <ele>545.80</ele>
        <time>2013-07-27T10:28:19Z</time>
      </trkpt>
      <trkpt lat="42.355718000" lon="-2.340722000">
        <ele>546.00</ele>
        <time>2013-07-27T10:28:20Z</time>
      </trkpt>
      <trkpt lat="42.355700000" lon="-2.340708000">
        <ele>546.10</ele>
        <time>2013-07-27T10:28:21Z</time>
      </trkpt>
      <trkpt lat="42.355679000" lon="-2.340697000">
        <ele>546.00</ele>
        <time>2013-07-27T10:28:22Z</time>
      </trkpt>
      <trkpt lat="42.355661000" lon="-2.340688000">
        <ele>546.00</ele>
        <time>2013-07-27T10:28:23Z</time>
      </trkpt>
      <trkpt lat="42.355644000" lon="-2.340681000">
        <ele>546.10</ele>
        <time>2013-07-27T10:28:24Z</time>
      </trkpt>
      <trkpt lat="42.355629000" lon="-2.340667000">
        <ele>546.30</ele>
        <time>2013-07-27T10:28:25Z</time>
      </trkpt>
      <trkpt lat="42.355613000" lon="-2.340655000">
        <ele>546.10</ele>
        <time>2013-07-27T10:28:26Z</time>
      </trkpt>
      <trkpt lat="42.355599000" lon="-2.340643000">
        <ele>546.10</ele>
        <time>2013-07-27T10:28:27Z</time>
      </trkpt>
      <trkpt lat="42.355583000" lon="-2.340634000">
        <ele>546.00</ele>
        <time>2013-07-27T10:28:28Z</time>
      </trkpt>
      <trkpt lat="42.355567000" lon="-2.340624000">
        <ele>546.00</ele>
        <time>2013-07-27T10:28:29Z</time>
      </trkpt>
      <trkpt lat="42.355555000" lon="-2.340609000">
        <ele>545.90</ele>
        <time>2013-07-27T10:28:30Z</time>
      </trkpt>
      <trkpt lat="42.355541000" lon="-2.340595000">
        <ele>545.90</ele>
        <time>2013-07-27T10:28:31Z</time>
      </trkpt>
      <trkpt lat="42.355527000" lon="-2.340581000">
        <ele>546.20</ele>
        <time>2013-07-27T10:28:32Z</time>
      </trkpt>
      <trkpt lat="42.355511000" lon="-2.340573000">
        <ele>546.30</ele>
        <time>2013-07-27T10:28:33Z</time>
      </trkpt>
      <trkpt lat="42.355498000" lon="-2.340563000">
        <ele>546.50</ele>
        <time>2013-07-27T10:28:34Z</time>
      </trkpt>
      <trkpt lat="42.355487000" lon="-2.340546000">
        <ele>546.60</ele>
        <time>2013-07-27T10:28:35Z</time>
      </trkpt>
      <trkpt lat="42.355472000" lon="-2.340531000">
        <ele>546.70</ele>
        <time>2013-07-27T10:28:36Z</time>
      </trkpt>
      <trkpt lat="42.355456000" lon="-2.340520000">
        <ele>546.70</ele>
        <time>2013-07-27T10:28:37Z</time>
      </trkpt>
      <trkpt lat="42.355439000" lon="-2.340509000">
        <ele>546.70</ele>
        <time>2013-07-27T10:28:38Z</time>
      </trkpt>
      <trkpt lat="42.355425000" lon="-2.340499000">
        <ele>546.70</ele>
        <time>2013-07-27T10:28:39Z</time>
      </trkpt>
      <trkpt lat="42.355411000" lon="-2.340488000">
        <ele>546.80</ele>
        <time>2013-07-27T10:28:40Z</time>
      </trkpt>
      <trkpt lat="42.355394000" lon="-2.340469000">
        <ele>546.80</ele>
        <time>2013-07-27T10:28:41Z</time>
      </trkpt>
      <trkpt lat="42.355380000" lon="-2.340452000">
        <ele>546.90</ele>
        <time>2013-07-27T10:28:42Z</time>
      </trkpt>
      <trkpt lat="42.355366000" lon="-2.340439000">
        <ele>546.90</ele>
        <time>2013-07-27T10:28:43Z</time>
      </trkpt>
      <trkpt lat="42.355351000" lon="-2.340426000">
        <ele>546.90</ele>
        <time>2013-07-27T10:28:44Z</time>
      </trkpt>
      <trkpt lat="42.355338000" lon="-2.340416000">
        <ele>546.90</ele>
        <time>2013-07-27T10:28:45Z</time>
      </trkpt>
      <trkpt lat="42.355324000" lon="-2.340406000">
        <ele>546.90</ele>
        <time>2013-07-27T10:28:46Z</time>
      </trkpt>
      <trkpt lat="42.355309000" lon="-2.340394000">
        <ele>547.00</ele>
        <time>2013-07-27T10:28:47Z</time>
      </trkpt>
      <trkpt lat="42.355295000" lon="-2.340379000">
        <ele>546.90</ele>
        <time>2013-07-27T10:28:48Z</time>
      </trkpt>
      <trkpt lat="42.355283000" lon="-2.340359000">
        <ele>546.80</ele>
        <time>2013-07-27T10:28:49Z</time>
      </trkpt>
      <trkpt lat="42.355268000" lon="-2.340338000">
        <ele>546.80</ele>
        <time>2013-07-27T10:28:50Z</time>
      </trkpt>
      <trkpt lat="42.355249000" lon="-2.340321000">
        <ele>546.80</ele>
        <time>2013-07-27T10:28:51Z</time>
      </trkpt>
      <trkpt lat="42.355234000" lon="-2.340301000">
        <ele>546.80</ele>
        <time>2013-07-27T10:28:52Z</time>
      </trkpt>
      <trkpt lat="42.355217000" lon="-2.340282000">
        <ele>546.80</ele>
        <time>2013-07-27T10:28:53Z</time>
      </trkpt>
      <trkpt lat="42.355195000" lon="-2.340269000">
        <ele>546.90</ele>
        <time>2013-07-27T10:28:54Z</time>
      </trkpt>
      <trkpt lat="42.355169000" lon="-2.340257000">
        <ele>547.10</ele>
        <time>2013-07-27T10:28:55Z</time>
      </trkpt>
      <trkpt lat="42.355141000" lon="-2.340251000">
        <ele>547.20</ele>
        <time>2013-07-27T10:28:56Z</time>
      </trkpt>
      <trkpt lat="42.355114000" lon="-2.340249000">
        <ele>547.30</ele>
        <time>2013-07-27T10:28:57Z</time>
      </trkpt>
      <trkpt lat="42.355090000" lon="-2.340253000">
        <ele>547.10</ele>
        <time>2013-07-27T10:28:58Z</time>
      </trkpt>
      <trkpt lat="42.355066000" lon="-2.340260000">
        <ele>547.00</ele>
        <time>2013-07-27T10:28:59Z</time>
      </trkpt>
      <trkpt lat="42.355045000" lon="-2.340267000">
        <ele>547.00</ele>
        <time>2013-07-27T10:29:00Z</time>
      </trkpt>
      <trkpt lat="42.355022000" lon="-2.340267000">
        <ele>546.90</ele>
        <time>2013-07-27T10:29:01Z</time>
      </trkpt>
      <trkpt lat="42.355002000" lon="-2.340270000">
        <ele>547.10</ele>
        <time>2013-07-27T10:29:02Z</time>
      </trkpt>
      <trkpt lat="42.354982000" lon="-2.340271000">
        <ele>547.30</ele>
        <time>2013-07-27T10:29:03Z</time>
      </trkpt>
      <trkpt lat="42.354963000" lon="-2.340274000">
        <ele>547.50</ele>
        <time>2013-07-27T10:29:04Z</time>
      </trkpt>
      <trkpt lat="42.354944000" lon="-2.340277000">
        <ele>547.70</ele>
        <time>2013-07-27T10:29:05Z</time>
      </trkpt>
      <trkpt lat="42.354923000" lon="-2.340281000">
        <ele>547.90</ele>
        <time>2013-07-27T10:29:06Z</time>
      </trkpt>
      <trkpt lat="42.354901000" lon="-2.340285000">
        <ele>548.00</ele>
        <time>2013-07-27T10:29:07Z</time>
      </trkpt>
      <trkpt lat="42.354881000" lon="-2.340288000">
        <ele>548.10</ele>
        <time>2013-07-27T10:29:08Z</time>
      </trkpt>
      <trkpt lat="42.354860000" lon="-2.340281000">
        <ele>548.20</ele>
        <time>2013-07-27T10:29:09Z</time>
      </trkpt>
      <trkpt lat="42.354836000" lon="-2.340283000">
        <ele>548.20</ele>
        <time>2013-07-27T10:29:10Z</time>
      </trkpt>
      <trkpt lat="42.354817000" lon="-2.340290000">
        <ele>548.30</ele>
        <time>2013-07-27T10:29:11Z</time>
      </trkpt>
      <trkpt lat="42.354797000" lon="-2.340295000">
        <ele>548.30</ele>
        <time>2013-07-27T10:29:12Z</time>
      </trkpt>
      <trkpt lat="42.354779000" lon="-2.340297000">
        <ele>548.30</ele>
        <time>2013-07-27T10:29:13Z</time>
      </trkpt>
      <trkpt lat="42.354759000" lon="-2.340299000">
        <ele>548.50</ele>
        <time>2013-07-27T10:29:14Z</time>
      </trkpt>
      <trkpt lat="42.354739000" lon="-2.340297000">
        <ele>548.60</ele>
        <time>2013-07-27T10:29:15Z</time>
      </trkpt>
      <trkpt lat="42.354723000" lon="-2.340295000">
        <ele>548.50</ele>
        <time>2013-07-27T10:29:16Z</time>
      </trkpt>
      <trkpt lat="42.354702000" lon="-2.340286000">
        <ele>548.50</ele>
        <time>2013-07-27T10:29:17Z</time>
      </trkpt>
      <trkpt lat="42.354684000" lon="-2.340283000">
        <ele>548.60</ele>
        <time>2013-07-27T10:29:18Z</time>
      </trkpt>
      <trkpt lat="42.354669000" lon="-2.340284000">
        <ele>548.70</ele>
        <time>2013-07-27T10:29:19Z</time>
      </trkpt>
      <trkpt lat="42.354651000" lon="-2.340288000">
        <ele>548.80</ele>
        <time>2013-07-27T10:29:20Z</time>
      </trkpt>
      <trkpt lat="42.354632000" lon="-2.340291000">
        <ele>548.90</ele>
        <time>2013-07-27T10:29:21Z</time>
      </trkpt>
      <trkpt lat="42.354614000" lon="-2.340295000">
        <ele>549.20</ele>
        <time>2013-07-27T10:29:22Z</time>
      </trkpt>
      <trkpt lat="42.354595000" lon="-2.340294000">
        <ele>549.40</ele>
        <time>2013-07-27T10:29:23Z</time>
      </trkpt>
      <trkpt lat="42.354577000" lon="-2.340299000">
        <ele>549.60</ele>
        <time>2013-07-27T10:29:24Z</time>
      </trkpt>
      <trkpt lat="42.354557000" lon="-2.340303000">
        <ele>549.70</ele>
        <time>2013-07-27T10:29:25Z</time>
      </trkpt>
      <trkpt lat="42.354536000" lon="-2.340301000">
        <ele>549.80</ele>
        <time>2013-07-27T10:29:26Z</time>
      </trkpt>
      <trkpt lat="42.354517000" lon="-2.340301000">
        <ele>549.90</ele>
        <time>2013-07-27T10:29:27Z</time>
      </trkpt>
      <trkpt lat="42.354498000" lon="-2.340306000">
        <ele>549.90</ele>
        <time>2013-07-27T10:29:28Z</time>
      </trkpt>
      <trkpt lat="42.354479000" lon="-2.340307000">
        <ele>550.00</ele>
        <time>2013-07-27T10:29:29Z</time>
      </trkpt>
      <trkpt lat="42.354459000" lon="-2.340305000">
        <ele>550.00</ele>
        <time>2013-07-27T10:29:30Z</time>
      </trkpt>
      <trkpt lat="42.354439000" lon="-2.340308000">
        <ele>550.00</ele>
        <time>2013-07-27T10:29:31Z</time>
      </trkpt>
      <trkpt lat="42.354418000" lon="-2.340310000">
        <ele>550.20</ele>
        <time>2013-07-27T10:29:32Z</time>
      </trkpt>
      <trkpt lat="42.354398000" lon="-2.340312000">
        <ele>550.30</ele>
        <time>2013-07-27T10:29:33Z</time>
      </trkpt>
      <trkpt lat="42.354379000" lon="-2.340309000">
        <ele>550.30</ele>
        <time>2013-07-27T10:29:34Z</time>
      </trkpt>
      <trkpt lat="42.354361000" lon="-2.340310000">
        <ele>550.40</ele>
        <time>2013-07-27T10:29:35Z</time>
      </trkpt>
      <trkpt lat="42.354344000" lon="-2.340314000">
        <ele>550.50</ele>
        <time>2013-07-27T10:29:36Z</time>
      </trkpt>
      <trkpt lat="42.354327000" lon="-2.340316000">
        <ele>550.50</ele>
        <time>2013-07-27T10:29:37Z</time>
      </trkpt>
      <trkpt lat="42.354308000" lon="-2.340316000">
        <ele>550.60</ele>
        <time>2013-07-27T10:29:38Z</time>
      </trkpt>
      <trkpt lat="42.354291000" lon="-2.340314000">
        <ele>550.60</ele>
        <time>2013-07-27T10:29:39Z</time>
      </trkpt>
      <trkpt lat="42.354276000" lon="-2.340317000">
        <ele>550.60</ele>
        <time>2013-07-27T10:29:40Z</time>
      </trkpt>
      <trkpt lat="42.354261000" lon="-2.340316000">
        <ele>550.60</ele>
        <time>2013-07-27T10:29:41Z</time>
      </trkpt>
      <trkpt lat="42.354245000" lon="-2.340317000">
        <ele>550.60</ele>
        <time>2013-07-27T10:29:42Z</time>
      </trkpt>
      <trkpt lat="42.354230000" lon="-2.340320000">
        <ele>550.90</ele>
        <time>2013-07-27T10:29:43Z</time>
      </trkpt>
      <trkpt lat="42.354215000" lon="-2.340325000">
        <ele>551.10</ele>
        <time>2013-07-27T10:29:44Z</time>
      </trkpt>
      <trkpt lat="42.354199000" lon="-2.340327000">
        <ele>551.30</ele>
        <time>2013-07-27T10:29:45Z</time>
      </trkpt>
      <trkpt lat="42.354182000" lon="-2.340331000">
        <ele>551.40</ele>
        <time>2013-07-27T10:29:46Z</time>
      </trkpt>
      <trkpt lat="42.354167000" lon="-2.340334000">
        <ele>551.50</ele>
        <time>2013-07-27T10:29:47Z</time>
      </trkpt>
      <trkpt lat="42.354151000" lon="-2.340336000">
        <ele>551.50</ele>
        <time>2013-07-27T10:29:48Z</time>
      </trkpt>
      <trkpt lat="42.354135000" lon="-2.340339000">
        <ele>551.70</ele>
        <time>2013-07-27T10:29:49Z</time>
      </trkpt>
      <trkpt lat="42.354119000" lon="-2.340340000">
        <ele>551.90</ele>
        <time>2013-07-27T10:29:50Z</time>
      </trkpt>
      <trkpt lat="42.354106000" lon="-2.340339000">
        <ele>552.00</ele>
        <time>2013-07-27T10:29:51Z</time>
      </trkpt>
      <trkpt lat="42.354091000" lon="-2.340343000">
        <ele>552.00</ele>
        <time>2013-07-27T10:29:52Z</time>
      </trkpt>
      <trkpt lat="42.354077000" lon="-2.340346000">
        <ele>552.20</ele>
        <time>2013-07-27T10:29:53Z</time>
      </trkpt>
      <trkpt lat="42.354062000" lon="-2.340346000">
        <ele>552.30</ele>
        <time>2013-07-27T10:29:54Z</time>
      </trkpt>
      <trkpt lat="42.354046000" lon="-2.340350000">
        <ele>552.40</ele>
        <time>2013-07-27T10:29:55Z</time>
      </trkpt>
      <trkpt lat="42.354027000" lon="-2.340355000">
        <ele>552.50</ele>
        <time>2013-07-27T10:29:56Z</time>
      </trkpt>
      <trkpt lat="42.354007000" lon="-2.340358000">
        <ele>552.50</ele>
        <time>2013-07-27T10:29:57Z</time>
      </trkpt>
      <trkpt lat="42.353987000" lon="-2.340358000">
        <ele>552.50</ele>
        <time>2013-07-27T10:29:58Z</time>
      </trkpt>
      <trkpt lat="42.353969000" lon="-2.340365000">
        <ele>552.70</ele>
        <time>2013-07-27T10:29:59Z</time>
      </trkpt>
      <trkpt lat="42.353951000" lon="-2.340371000">
        <ele>552.80</ele>
        <time>2013-07-27T10:30:00Z</time>
      </trkpt>
      <trkpt lat="42.353932000" lon="-2.340375000">
        <ele>552.90</ele>
        <time>2013-07-27T10:30:01Z</time>
      </trkpt>
      <trkpt lat="42.353914000" lon="-2.340378000">
        <ele>553.00</ele>
        <time>2013-07-27T10:30:02Z</time>
      </trkpt>
      <trkpt lat="42.353897000" lon="-2.340384000">
        <ele>553.20</ele>
        <time>2013-07-27T10:30:03Z</time>
      </trkpt>
      <trkpt lat="42.353881000" lon="-2.340391000">
        <ele>553.30</ele>
        <time>2013-07-27T10:30:04Z</time>
      </trkpt>
      <trkpt lat="42.353865000" lon="-2.340398000">
        <ele>553.50</ele>
        <time>2013-07-27T10:30:05Z</time>
      </trkpt>
      <trkpt lat="42.353848000" lon="-2.340404000">
        <ele>553.60</ele>
        <time>2013-07-27T10:30:06Z</time>
      </trkpt>
      <trkpt lat="42.353829000" lon="-2.340408000">
        <ele>553.70</ele>
        <time>2013-07-27T10:30:07Z</time>
      </trkpt>
      <trkpt lat="42.353809000" lon="-2.340413000">
        <ele>553.70</ele>
        <time>2013-07-27T10:30:08Z</time>
      </trkpt>
      <trkpt lat="42.353792000" lon="-2.340416000">
        <ele>554.00</ele>
        <time>2013-07-27T10:30:09Z</time>
      </trkpt>
      <trkpt lat="42.353773000" lon="-2.340421000">
        <ele>554.20</ele>
        <time>2013-07-27T10:30:10Z</time>
      </trkpt>
      <trkpt lat="42.353755000" lon="-2.340427000">
        <ele>554.30</ele>
        <time>2013-07-27T10:30:11Z</time>
      </trkpt>
      <trkpt lat="42.353736000" lon="-2.340433000">
        <ele>554.40</ele>
        <time>2013-07-27T10:30:12Z</time>
      </trkpt>
      <trkpt lat="42.353718000" lon="-2.340440000">
        <ele>554.60</ele>
        <time>2013-07-27T10:30:13Z</time>
      </trkpt>
      <trkpt lat="42.353700000" lon="-2.340447000">
        <ele>554.70</ele>
        <time>2013-07-27T10:30:14Z</time>
      </trkpt>
      <trkpt lat="42.353684000" lon="-2.340454000">
        <ele>554.90</ele>
        <time>2013-07-27T10:30:15Z</time>
      </trkpt>
      <trkpt lat="42.353667000" lon="-2.340464000">
        <ele>555.10</ele>
        <time>2013-07-27T10:30:16Z</time>
      </trkpt>
      <trkpt lat="42.353649000" lon="-2.340471000">
        <ele>555.20</ele>
        <time>2013-07-27T10:30:17Z</time>
      </trkpt>
      <trkpt lat="42.353632000" lon="-2.340477000">
        <ele>555.30</ele>
        <time>2013-07-27T10:30:18Z</time>
      </trkpt>
      <trkpt lat="42.353617000" lon="-2.340485000">
        <ele>555.30</ele>
        <time>2013-07-27T10:30:19Z</time>
      </trkpt>
      <trkpt lat="42.353599000" lon="-2.340496000">
        <ele>555.30</ele>
        <time>2013-07-27T10:30:20Z</time>
      </trkpt>
      <trkpt lat="42.353581000" lon="-2.340504000">
        <ele>555.40</ele>
        <time>2013-07-27T10:30:21Z</time>
      </trkpt>
      <trkpt lat="42.353564000" lon="-2.340514000">
        <ele>555.40</ele>
        <time>2013-07-27T10:30:22Z</time>
      </trkpt>
      <trkpt lat="42.353546000" lon="-2.340522000">
        <ele>555.40</ele>
        <time>2013-07-27T10:30:23Z</time>
      </trkpt>
      <trkpt lat="42.353529000" lon="-2.340531000">
        <ele>555.50</ele>
        <time>2013-07-27T10:30:24Z</time>
      </trkpt>
      <trkpt lat="42.353510000" lon="-2.340536000">
        <ele>555.80</ele>
        <time>2013-07-27T10:30:25Z</time>
      </trkpt>
      <trkpt lat="42.353492000" lon="-2.340548000">
        <ele>556.00</ele>
        <time>2013-07-27T10:30:26Z</time>
      </trkpt>
      <trkpt lat="42.353474000" lon="-2.340563000">
        <ele>556.30</ele>
        <time>2013-07-27T10:30:27Z</time>
      </trkpt>
      <trkpt lat="42.353454000" lon="-2.340570000">
        <ele>556.50</ele>
        <time>2013-07-27T10:30:28Z</time>
      </trkpt>
      <trkpt lat="42.353437000" lon="-2.340578000">
        <ele>556.60</ele>
        <time>2013-07-27T10:30:29Z</time>
      </trkpt>
      <trkpt lat="42.353419000" lon="-2.340583000">
        <ele>556.70</ele>
        <time>2013-07-27T10:30:30Z</time>
      </trkpt>
      <trkpt lat="42.353401000" lon="-2.340597000">
        <ele>556.70</ele>
        <time>2013-07-27T10:30:31Z</time>
      </trkpt>
      <trkpt lat="42.353384000" lon="-2.340605000">
        <ele>556.70</ele>
        <time>2013-07-27T10:30:32Z</time>
      </trkpt>
      <trkpt lat="42.353363000" lon="-2.340612000">
        <ele>556.70</ele>
        <time>2013-07-27T10:30:33Z</time>
      </trkpt>
      <trkpt lat="42.353350000" lon="-2.340623000">
        <ele>556.80</ele>
        <time>2013-07-27T10:30:34Z</time>
      </trkpt>
      <trkpt lat="42.353330000" lon="-2.340630000">
        <ele>557.20</ele>
        <time>2013-07-27T10:30:35Z</time>
      </trkpt>
      <trkpt lat="42.353311000" lon="-2.340638000">
        <ele>557.60</ele>
        <time>2013-07-27T10:30:36Z</time>
      </trkpt>
      <trkpt lat="42.353295000" lon="-2.340647000">
        <ele>557.90</ele>
        <time>2013-07-27T10:30:37Z</time>
      </trkpt>
      <trkpt lat="42.353279000" lon="-2.340651000">
        <ele>558.20</ele>
        <time>2013-07-27T10:30:38Z</time>
      </trkpt>
      <trkpt lat="42.353260000" lon="-2.340658000">
        <ele>558.50</ele>
        <time>2013-07-27T10:30:39Z</time>
      </trkpt>
      <trkpt lat="42.353241000" lon="-2.340661000">
        <ele>558.70</ele>
        <time>2013-07-27T10:30:40Z</time>
      </trkpt>
      <trkpt lat="42.353222000" lon="-2.340670000">
        <ele>558.90</ele>
        <time>2013-07-27T10:30:41Z</time>
      </trkpt>
      <trkpt lat="42.353204000" lon="-2.340678000">
        <ele>559.00</ele>
        <time>2013-07-27T10:30:42Z</time>
      </trkpt>
      <trkpt lat="42.353185000" lon="-2.340685000">
        <ele>559.30</ele>
        <time>2013-07-27T10:30:43Z</time>
      </trkpt>
      <trkpt lat="42.353166000" lon="-2.340691000">
        <ele>559.50</ele>
        <time>2013-07-27T10:30:44Z</time>
      </trkpt>
      <trkpt lat="42.353147000" lon="-2.340700000">
        <ele>559.60</ele>
        <time>2013-07-27T10:30:45Z</time>
      </trkpt>
      <trkpt lat="42.353127000" lon="-2.340710000">
        <ele>559.70</ele>
        <time>2013-07-27T10:30:46Z</time>
      </trkpt>
      <trkpt lat="42.353107000" lon="-2.340717000">
        <ele>559.80</ele>
        <time>2013-07-27T10:30:47Z</time>
      </trkpt>
      <trkpt lat="42.353089000" lon="-2.340722000">
        <ele>559.90</ele>
        <time>2013-07-27T10:30:48Z</time>
      </trkpt>
      <trkpt lat="42.353070000" lon="-2.340729000">
        <ele>560.20</ele>
        <time>2013-07-27T10:30:49Z</time>
      </trkpt>
      <trkpt lat="42.353053000" lon="-2.340736000">
        <ele>560.40</ele>
        <time>2013-07-27T10:30:50Z</time>
      </trkpt>
      <trkpt lat="42.353038000" lon="-2.340743000">
        <ele>560.70</ele>
        <time>2013-07-27T10:30:51Z</time>
      </trkpt>
      <trkpt lat="42.353019000" lon="-2.340757000">
        <ele>560.90</ele>
        <time>2013-07-27T10:30:52Z</time>
      </trkpt>
      <trkpt lat="42.353000000" lon="-2.340759000">
        <ele>561.10</ele>
        <time>2013-07-27T10:30:53Z</time>
      </trkpt>
      <trkpt lat="42.352982000" lon="-2.340766000">
        <ele>561.40</ele>
        <time>2013-07-27T10:30:54Z</time>
      </trkpt>
      <trkpt lat="42.352960000" lon="-2.340777000">
        <ele>561.50</ele>
        <time>2013-07-27T10:30:55Z</time>
      </trkpt>
      <trkpt lat="42.352939000" lon="-2.340787000">
        <ele>561.60</ele>
        <time>2013-07-27T10:30:56Z</time>
      </trkpt>
      <trkpt lat="42.352926000" lon="-2.340787000">
        <ele>561.40</ele>
        <time>2013-07-27T10:30:57Z</time>
      </trkpt>
      <trkpt lat="42.352910000" lon="-2.340794000">
        <ele>561.20</ele>
        <time>2013-07-27T10:30:58Z</time>
      </trkpt>
      <trkpt lat="42.352894000" lon="-2.340804000">
        <ele>561.10</ele>
        <time>2013-07-27T10:30:59Z</time>
      </trkpt>
      <trkpt lat="42.352878000" lon="-2.340811000">
        <ele>561.00</ele>
        <time>2013-07-27T10:31:00Z</time>
      </trkpt>
      <trkpt lat="42.352862000" lon="-2.340822000">
        <ele>561.30</ele>
        <time>2013-07-27T10:31:01Z</time>
      </trkpt>
      <trkpt lat="42.352846000" lon="-2.340830000">
        <ele>561.50</ele>
        <time>2013-07-27T10:31:02Z</time>
      </trkpt>
      <trkpt lat="42.352832000" lon="-2.340835000">
        <ele>561.90</ele>
        <time>2013-07-27T10:31:03Z</time>
      </trkpt>
      <trkpt lat="42.352814000" lon="-2.340841000">
        <ele>562.10</ele>
        <time>2013-07-27T10:31:04Z</time>
      </trkpt>
      <trkpt lat="42.352798000" lon="-2.340846000">
        <ele>562.70</ele>
        <time>2013-07-27T10:31:05Z</time>
      </trkpt>
      <trkpt lat="42.352782000" lon="-2.340855000">
        <ele>563.20</ele>
        <time>2013-07-27T10:31:06Z</time>
      </trkpt>
      <trkpt lat="42.352763000" lon="-2.340862000">
        <ele>563.40</ele>
        <time>2013-07-27T10:31:07Z</time>
      </trkpt>
      <trkpt lat="42.352744000" lon="-2.340865000">
        <ele>563.50</ele>
        <time>2013-07-27T10:31:08Z</time>
      </trkpt>
      <trkpt lat="42.352728000" lon="-2.340869000">
        <ele>563.90</ele>
        <time>2013-07-27T10:31:09Z</time>
      </trkpt>
      <trkpt lat="42.352712000" lon="-2.340873000">
        <ele>564.20</ele>
        <time>2013-07-27T10:31:10Z</time>
      </trkpt>
      <trkpt lat="42.352691000" lon="-2.340878000">
        <ele>564.50</ele>
        <time>2013-07-27T10:31:11Z</time>
      </trkpt>
      <trkpt lat="42.352670000" lon="-2.340882000">
        <ele>564.70</ele>
        <time>2013-07-27T10:31:12Z</time>
      </trkpt>
      <trkpt lat="42.352651000" lon="-2.340888000">
        <ele>565.00</ele>
        <time>2013-07-27T10:31:13Z</time>
      </trkpt>
      <trkpt lat="42.352634000" lon="-2.340895000">
        <ele>565.20</ele>
        <time>2013-07-27T10:31:14Z</time>
      </trkpt>
      <trkpt lat="42.352617000" lon="-2.340898000">
        <ele>565.20</ele>
        <time>2013-07-27T10:31:15Z</time>
      </trkpt>
      <trkpt lat="42.352601000" lon="-2.340902000">
        <ele>565.30</ele>
        <time>2013-07-27T10:31:16Z</time>
      </trkpt>
      <trkpt lat="42.352584000" lon="-2.340910000">
        <ele>565.30</ele>
        <time>2013-07-27T10:31:17Z</time>
      </trkpt>
      <trkpt lat="42.352566000" lon="-2.340916000">
        <ele>565.40</ele>
        <time>2013-07-27T10:31:18Z</time>
      </trkpt>
      <trkpt lat="42.352548000" lon="-2.340919000">
        <ele>565.40</ele>
        <time>2013-07-27T10:31:19Z</time>
      </trkpt>
      <trkpt lat="42.352531000" lon="-2.340932000">
        <ele>565.40</ele>
        <time>2013-07-27T10:31:20Z</time>
      </trkpt>
      <trkpt lat="42.352514000" lon="-2.340935000">
        <ele>565.70</ele>
        <time>2013-07-27T10:31:21Z</time>
      </trkpt>
      <trkpt lat="42.352498000" lon="-2.340935000">
        <ele>565.90</ele>
        <time>2013-07-27T10:31:22Z</time>
      </trkpt>
      <trkpt lat="42.352479000" lon="-2.340938000">
        <ele>566.30</ele>
        <time>2013-07-27T10:31:23Z</time>
      </trkpt>
      <trkpt lat="42.352463000" lon="-2.340942000">
        <ele>566.50</ele>
        <time>2013-07-27T10:31:24Z</time>
      </trkpt>
      <trkpt lat="42.352448000" lon="-2.340947000">
        <ele>566.70</ele>
        <time>2013-07-27T10:31:25Z</time>
      </trkpt>
      <trkpt lat="42.352432000" lon="-2.340954000">
        <ele>566.90</ele>
        <time>2013-07-27T10:31:26Z</time>
      </trkpt>
      <trkpt lat="42.352418000" lon="-2.340964000">
        <ele>567.10</ele>
        <time>2013-07-27T10:31:27Z</time>
      </trkpt>
      <trkpt lat="42.352401000" lon="-2.340967000">
        <ele>567.20</ele>
        <time>2013-07-27T10:31:28Z</time>
      </trkpt>
      <trkpt lat="42.352382000" lon="-2.340972000">
        <ele>567.40</ele>
        <time>2013-07-27T10:31:29Z</time>
      </trkpt>
      <trkpt lat="42.352362000" lon="-2.340971000">
        <ele>567.50</ele>
        <time>2013-07-27T10:31:30Z</time>
      </trkpt>
      <trkpt lat="42.352344000" lon="-2.340976000">
        <ele>567.50</ele>
        <time>2013-07-27T10:31:31Z</time>
      </trkpt>
      <trkpt lat="42.352325000" lon="-2.340987000">
        <ele>567.60</ele>
        <time>2013-07-27T10:31:32Z</time>
      </trkpt>
      <trkpt lat="42.352308000" lon="-2.340992000">
        <ele>567.70</ele>
        <time>2013-07-27T10:31:33Z</time>
      </trkpt>
      <trkpt lat="42.352291000" lon="-2.340992000">
        <ele>567.80</ele>
        <time>2013-07-27T10:31:34Z</time>
      </trkpt>
      <trkpt lat="42.352275000" lon="-2.340996000">
        <ele>567.90</ele>
        <time>2013-07-27T10:31:35Z</time>
      </trkpt>
      <trkpt lat="42.352257000" lon="-2.341000000">
        <ele>567.90</ele>
        <time>2013-07-27T10:31:36Z</time>
      </trkpt>
      <trkpt lat="42.352240000" lon="-2.341006000">
        <ele>568.00</ele>
        <time>2013-07-27T10:31:37Z</time>
      </trkpt>
      <trkpt lat="42.352222000" lon="-2.341012000">
        <ele>568.00</ele>
        <time>2013-07-27T10:31:38Z</time>
      </trkpt>
      <trkpt lat="42.352204000" lon="-2.341014000">
        <ele>568.00</ele>
        <time>2013-07-27T10:31:39Z</time>
      </trkpt>
      <trkpt lat="42.352186000" lon="-2.341019000">
        <ele>568.00</ele>
        <time>2013-07-27T10:31:40Z</time>
      </trkpt>
      <trkpt lat="42.352169000" lon="-2.341024000">
        <ele>568.20</ele>
        <time>2013-07-27T10:31:41Z</time>
      </trkpt>
      <trkpt lat="42.352153000" lon="-2.341024000">
        <ele>568.30</ele>
        <time>2013-07-27T10:31:42Z</time>
      </trkpt>
      <trkpt lat="42.352134000" lon="-2.341027000">
        <ele>568.60</ele>
        <time>2013-07-27T10:31:43Z</time>
      </trkpt>
      <trkpt lat="42.352117000" lon="-2.341029000">
        <ele>568.80</ele>
        <time>2013-07-27T10:31:44Z</time>
      </trkpt>
      <trkpt lat="42.352101000" lon="-2.341032000">
        <ele>569.00</ele>
        <time>2013-07-27T10:31:45Z</time>
      </trkpt>
      <trkpt lat="42.352082000" lon="-2.341033000">
        <ele>569.10</ele>
        <time>2013-07-27T10:31:46Z</time>
      </trkpt>
      <trkpt lat="42.352065000" lon="-2.341035000">
        <ele>569.20</ele>
        <time>2013-07-27T10:31:47Z</time>
      </trkpt>
      <trkpt lat="42.352047000" lon="-2.341038000">
        <ele>569.30</ele>
        <time>2013-07-27T10:31:48Z</time>
      </trkpt>
      <trkpt lat="42.352030000" lon="-2.341038000">
        <ele>569.30</ele>
        <time>2013-07-27T10:31:49Z</time>
      </trkpt>
      <trkpt lat="42.352013000" lon="-2.341037000">
        <ele>569.40</ele>
        <time>2013-07-27T10:31:50Z</time>
      </trkpt>
      <trkpt lat="42.351996000" lon="-2.341037000">
        <ele>569.70</ele>
        <time>2013-07-27T10:31:51Z</time>
      </trkpt>
      <trkpt lat="42.351978000" lon="-2.341036000">
        <ele>569.90</ele>
        <time>2013-07-27T10:31:52Z</time>
      </trkpt>
      <trkpt lat="42.351959000" lon="-2.341033000">
        <ele>570.10</ele>
        <time>2013-07-27T10:31:53Z</time>
      </trkpt>
      <trkpt lat="42.351941000" lon="-2.341032000">
        <ele>570.20</ele>
        <time>2013-07-27T10:31:54Z</time>
      </trkpt>
      <trkpt lat="42.351924000" lon="-2.341030000">
        <ele>570.50</ele>
        <time>2013-07-27T10:31:55Z</time>
      </trkpt>
      <trkpt lat="42.351907000" lon="-2.341030000">
        <ele>570.70</ele>
        <time>2013-07-27T10:31:56Z</time>
      </trkpt>
      <trkpt lat="42.351892000" lon="-2.341027000">
        <ele>570.80</ele>
        <time>2013-07-27T10:31:57Z</time>
      </trkpt>
      <trkpt lat="42.351875000" lon="-2.341023000">
        <ele>570.90</ele>
        <time>2013-07-27T10:31:58Z</time>
      </trkpt>
      <trkpt lat="42.351859000" lon="-2.341019000">
        <ele>571.10</ele>
        <time>2013-07-27T10:31:59Z</time>
      </trkpt>
      <trkpt lat="42.351842000" lon="-2.341015000">
        <ele>571.20</ele>
        <time>2013-07-27T10:32:00Z</time>
      </trkpt>
      <trkpt lat="42.351827000" lon="-2.341010000">
        <ele>571.40</ele>
        <time>2013-07-27T10:32:01Z</time>
      </trkpt>
      <trkpt lat="42.351810000" lon="-2.341007000">
        <ele>571.50</ele>
        <time>2013-07-27T10:32:02Z</time>
      </trkpt>
      <trkpt lat="42.351795000" lon="-2.341003000">
        <ele>571.60</ele>
        <time>2013-07-27T10:32:03Z</time>
      </trkpt>
      <trkpt lat="42.351777000" lon="-2.341001000">
        <ele>571.70</ele>
        <time>2013-07-27T10:32:04Z</time>
      </trkpt>
      <trkpt lat="42.351759000" lon="-2.340998000">
        <ele>571.80</ele>
        <time>2013-07-27T10:32:05Z</time>
      </trkpt>
      <trkpt lat="42.351741000" lon="-2.340994000">
        <ele>571.80</ele>
        <time>2013-07-27T10:32:06Z</time>
      </trkpt>
      <trkpt lat="42.351728000" lon="-2.340990000">
        <ele>572.00</ele>
        <time>2013-07-27T10:32:07Z</time>
      </trkpt>
      <trkpt lat="42.351709000" lon="-2.340986000">
        <ele>572.00</ele>
        <time>2013-07-27T10:32:08Z</time>
      </trkpt>
      <trkpt lat="42.351693000" lon="-2.340983000">
        <ele>572.10</ele>
        <time>2013-07-27T10:32:09Z</time>
      </trkpt>
      <trkpt lat="42.351675000" lon="-2.340980000">
        <ele>572.20</ele>
        <time>2013-07-27T10:32:10Z</time>
      </trkpt>
      <trkpt lat="42.351659000" lon="-2.340974000">
        <ele>572.20</ele>
        <time>2013-07-27T10:32:11Z</time>
      </trkpt>
      <trkpt lat="42.351640000" lon="-2.340971000">
        <ele>572.20</ele>
        <time>2013-07-27T10:32:12Z</time>
      </trkpt>
      <trkpt lat="42.351622000" lon="-2.340968000">
        <ele>572.50</ele>
        <time>2013-07-27T10:32:13Z</time>
      </trkpt>
      <trkpt lat="42.351606000" lon="-2.340964000">
        <ele>572.70</ele>
        <time>2013-07-27T10:32:14Z</time>
      </trkpt>
      <trkpt lat="42.351590000" lon="-2.340959000">
        <ele>572.90</ele>
        <time>2013-07-27T10:32:15Z</time>
      </trkpt>
      <trkpt lat="42.351573000" lon="-2.340957000">
        <ele>573.00</ele>
        <time>2013-07-27T10:32:16Z</time>
      </trkpt>
      <trkpt lat="42.351557000" lon="-2.340955000">
        <ele>573.10</ele>
        <time>2013-07-27T10:32:17Z</time>
      </trkpt>
      <trkpt lat="42.351542000" lon="-2.340953000">
        <ele>573.20</ele>
        <time>2013-07-27T10:32:18Z</time>
      </trkpt>
      <trkpt lat="42.351526000" lon="-2.340949000">
        <ele>573.30</ele>
        <time>2013-07-27T10:32:19Z</time>
      </trkpt>
      <trkpt lat="42.351508000" lon="-2.340946000">
        <ele>573.40</ele>
        <time>2013-07-27T10:32:20Z</time>
      </trkpt>
      <trkpt lat="42.351491000" lon="-2.340943000">
        <ele>573.50</ele>
        <time>2013-07-27T10:32:21Z</time>
      </trkpt>
      <trkpt lat="42.351474000" lon="-2.340940000">
        <ele>573.60</ele>
        <time>2013-07-27T10:32:22Z</time>
      </trkpt>
      <trkpt lat="42.351456000" lon="-2.340936000">
        <ele>573.50</ele>
        <time>2013-07-27T10:32:23Z</time>
      </trkpt>
      <trkpt lat="42.351435000" lon="-2.340931000">
        <ele>573.50</ele>
        <time>2013-07-27T10:32:24Z</time>
      </trkpt>
      <trkpt lat="42.351417000" lon="-2.340927000">
        <ele>573.50</ele>
        <time>2013-07-27T10:32:25Z</time>
      </trkpt>
      <trkpt lat="42.351398000" lon="-2.340926000">
        <ele>573.50</ele>
        <time>2013-07-27T10:32:26Z</time>
      </trkpt>
      <trkpt lat="42.351377000" lon="-2.340921000">
        <ele>573.60</ele>
        <time>2013-07-27T10:32:27Z</time>
      </trkpt>
      <trkpt lat="42.351356000" lon="-2.340917000">
        <ele>573.80</ele>
        <time>2013-07-27T10:32:28Z</time>
      </trkpt>
      <trkpt lat="42.351337000" lon="-2.340915000">
        <ele>573.80</ele>
        <time>2013-07-27T10:32:29Z</time>
      </trkpt>
      <trkpt lat="42.351318000" lon="-2.340917000">
        <ele>573.90</ele>
        <time>2013-07-27T10:32:30Z</time>
      </trkpt>
      <trkpt lat="42.351301000" lon="-2.340914000">
        <ele>573.90</ele>
        <time>2013-07-27T10:32:31Z</time>
      </trkpt>
      <trkpt lat="42.351284000" lon="-2.340906000">
        <ele>574.00</ele>
        <time>2013-07-27T10:32:32Z</time>
      </trkpt>
      <trkpt lat="42.351267000" lon="-2.340899000">
        <ele>574.10</ele>
        <time>2013-07-27T10:32:33Z</time>
      </trkpt>
      <trkpt lat="42.351251000" lon="-2.340895000">
        <ele>574.30</ele>
        <time>2013-07-27T10:32:34Z</time>
      </trkpt>
      <trkpt lat="42.351232000" lon="-2.340888000">
        <ele>574.50</ele>
        <time>2013-07-27T10:32:35Z</time>
      </trkpt>
      <trkpt lat="42.351216000" lon="-2.340881000">
        <ele>574.80</ele>
        <time>2013-07-27T10:32:36Z</time>
      </trkpt>
      <trkpt lat="42.351197000" lon="-2.340879000">
        <ele>575.00</ele>
        <time>2013-07-27T10:32:37Z</time>
      </trkpt>
      <trkpt lat="42.351178000" lon="-2.340873000">
        <ele>575.20</ele>
        <time>2013-07-27T10:32:38Z</time>
      </trkpt>
      <trkpt lat="42.351161000" lon="-2.340867000">
        <ele>575.40</ele>
        <time>2013-07-27T10:32:39Z</time>
      </trkpt>
      <trkpt lat="42.351142000" lon="-2.340864000">
        <ele>575.50</ele>
        <time>2013-07-27T10:32:40Z</time>
      </trkpt>
      <trkpt lat="42.351124000" lon="-2.340861000">
        <ele>575.60</ele>
        <time>2013-07-27T10:32:41Z</time>
      </trkpt>
      <trkpt lat="42.351107000" lon="-2.340855000">
        <ele>575.70</ele>
        <time>2013-07-27T10:32:42Z</time>
      </trkpt>
      <trkpt lat="42.351089000" lon="-2.340850000">
        <ele>575.80</ele>
        <time>2013-07-27T10:32:43Z</time>
      </trkpt>
      <trkpt lat="42.351073000" lon="-2.340847000">
        <ele>575.80</ele>
        <time>2013-07-27T10:32:44Z</time>
      </trkpt>
      <trkpt lat="42.351055000" lon="-2.340842000">
        <ele>576.00</ele>
        <time>2013-07-27T10:32:45Z</time>
      </trkpt>
      <trkpt lat="42.351036000" lon="-2.340833000">
        <ele>576.00</ele>
        <time>2013-07-27T10:32:46Z</time>
      </trkpt>
      <trkpt lat="42.351019000" lon="-2.340828000">
        <ele>576.10</ele>
        <time>2013-07-27T10:32:47Z</time>
      </trkpt>
      <trkpt lat="42.351001000" lon="-2.340825000">
        <ele>576.20</ele>
        <time>2013-07-27T10:32:48Z</time>
      </trkpt>
      <trkpt lat="42.350985000" lon="-2.340821000">
        <ele>576.20</ele>
        <time>2013-07-27T10:32:49Z</time>
      </trkpt>
      <trkpt lat="42.350965000" lon="-2.340816000">
        <ele>576.20</ele>
        <time>2013-07-27T10:32:50Z</time>
      </trkpt>
      <trkpt lat="42.350945000" lon="-2.340812000">
        <ele>576.20</ele>
        <time>2013-07-27T10:32:51Z</time>
      </trkpt>
      <trkpt lat="42.350925000" lon="-2.340810000">
        <ele>576.30</ele>
        <time>2013-07-27T10:32:52Z</time>
      </trkpt>
      <trkpt lat="42.350905000" lon="-2.340805000">
        <ele>576.40</ele>
        <time>2013-07-27T10:32:53Z</time>
      </trkpt>
      <trkpt lat="42.350887000" lon="-2.340802000">
        <ele>576.50</ele>
        <time>2013-07-27T10:32:54Z</time>
      </trkpt>
      <trkpt lat="42.350870000" lon="-2.340799000">
        <ele>576.70</ele>
        <time>2013-07-27T10:32:55Z</time>
      </trkpt>
      <trkpt lat="42.350853000" lon="-2.340792000">
        <ele>576.80</ele>
        <time>2013-07-27T10:32:56Z</time>
      </trkpt>
      <trkpt lat="42.350836000" lon="-2.340792000">
        <ele>576.90</ele>
        <time>2013-07-27T10:32:57Z</time>
      </trkpt>
      <trkpt lat="42.350820000" lon="-2.340787000">
        <ele>577.00</ele>
        <time>2013-07-27T10:32:58Z</time>
      </trkpt>
      <trkpt lat="42.350804000" lon="-2.340785000">
        <ele>577.20</ele>
        <time>2013-07-27T10:32:59Z</time>
      </trkpt>
      <trkpt lat="42.350787000" lon="-2.340782000">
        <ele>577.40</ele>
        <time>2013-07-27T10:33:00Z</time>
      </trkpt>
      <trkpt lat="42.350770000" lon="-2.340778000">
        <ele>577.70</ele>
        <time>2013-07-27T10:33:01Z</time>
      </trkpt>
      <trkpt lat="42.350753000" lon="-2.340771000">
        <ele>577.90</ele>
        <time>2013-07-27T10:33:02Z</time>
      </trkpt>
      <trkpt lat="42.350735000" lon="-2.340769000">
        <ele>578.10</ele>
        <time>2013-07-27T10:33:03Z</time>
      </trkpt>
      <trkpt lat="42.350718000" lon="-2.340765000">
        <ele>578.20</ele>
        <time>2013-07-27T10:33:04Z</time>
      </trkpt>
      <trkpt lat="42.350699000" lon="-2.340761000">
        <ele>578.30</ele>
        <time>2013-07-27T10:33:05Z</time>
      </trkpt>
      <trkpt lat="42.350680000" lon="-2.340757000">
        <ele>578.40</ele>
        <time>2013-07-27T10:33:06Z</time>
      </trkpt>
      <trkpt lat="42.350663000" lon="-2.340749000">
        <ele>578.40</ele>
        <time>2013-07-27T10:33:07Z</time>
      </trkpt>
      <trkpt lat="42.350646000" lon="-2.340741000">
        <ele>578.50</ele>
        <time>2013-07-27T10:33:08Z</time>
      </trkpt>
      <trkpt lat="42.350629000" lon="-2.340737000">
        <ele>578.80</ele>
        <time>2013-07-27T10:33:09Z</time>
      </trkpt>
      <trkpt lat="42.350610000" lon="-2.340735000">
        <ele>579.00</ele>
        <time>2013-07-27T10:33:10Z</time>
      </trkpt>
      <trkpt lat="42.350593000" lon="-2.340732000">
        <ele>579.40</ele>
        <time>2013-07-27T10:33:11Z</time>
      </trkpt>
      <trkpt lat="42.350573000" lon="-2.340727000">
        <ele>579.70</ele>
        <time>2013-07-27T10:33:12Z</time>
      </trkpt>
      <trkpt lat="42.350555000" lon="-2.340722000">
        <ele>579.90</ele>
        <time>2013-07-27T10:33:13Z</time>
      </trkpt>
      <trkpt lat="42.350538000" lon="-2.340716000">
        <ele>580.10</ele>
        <time>2013-07-27T10:33:14Z</time>
      </trkpt>
      <trkpt lat="42.350522000" lon="-2.340709000">
        <ele>580.10</ele>
        <time>2013-07-27T10:33:15Z</time>
      </trkpt>
      <trkpt lat="42.350500000" lon="-2.340703000">
        <ele>580.20</ele>
        <time>2013-07-27T10:33:16Z</time>
      </trkpt>
      <trkpt lat="42.350482000" lon="-2.340696000">
        <ele>580.20</ele>
        <time>2013-07-27T10:33:17Z</time>
      </trkpt>
      <trkpt lat="42.350465000" lon="-2.340687000">
        <ele>580.20</ele>
        <time>2013-07-27T10:33:18Z</time>
      </trkpt>
      <trkpt lat="42.350448000" lon="-2.340678000">
        <ele>580.20</ele>
        <time>2013-07-27T10:33:19Z</time>
      </trkpt>
      <trkpt lat="42.350428000" lon="-2.340672000">
        <ele>580.20</ele>
        <time>2013-07-27T10:33:20Z</time>
      </trkpt>
      <trkpt lat="42.350409000" lon="-2.340666000">
        <ele>580.30</ele>
        <time>2013-07-27T10:33:21Z</time>
      </trkpt>
      <trkpt lat="42.350392000" lon="-2.340658000">
        <ele>580.40</ele>
        <time>2013-07-27T10:33:22Z</time>
      </trkpt>
      <trkpt lat="42.350371000" lon="-2.340651000">
        <ele>580.50</ele>
        <time>2013-07-27T10:33:23Z</time>
      </trkpt>
      <trkpt lat="42.350354000" lon="-2.340645000">
        <ele>580.50</ele>
        <time>2013-07-27T10:33:24Z</time>
      </trkpt>
      <trkpt lat="42.350338000" lon="-2.340641000">
        <ele>580.50</ele>
        <time>2013-07-27T10:33:25Z</time>
      </trkpt>
      <trkpt lat="42.350316000" lon="-2.340636000">
        <ele>580.60</ele>
        <time>2013-07-27T10:33:26Z</time>
      </trkpt>
      <trkpt lat="42.350297000" lon="-2.340629000">
        <ele>580.60</ele>
        <time>2013-07-27T10:33:27Z</time>
      </trkpt>
      <trkpt lat="42.350280000" lon="-2.340621000">
        <ele>580.60</ele>
        <time>2013-07-27T10:33:28Z</time>
      </trkpt>
      <trkpt lat="42.350259000" lon="-2.340614000">
        <ele>580.80</ele>
        <time>2013-07-27T10:33:29Z</time>
      </trkpt>
      <trkpt lat="42.350239000" lon="-2.340608000">
        <ele>581.00</ele>
        <time>2013-07-27T10:33:30Z</time>
      </trkpt>
      <trkpt lat="42.350218000" lon="-2.340603000">
        <ele>581.10</ele>
        <time>2013-07-27T10:33:31Z</time>
      </trkpt>
      <trkpt lat="42.350199000" lon="-2.340598000">
        <ele>581.20</ele>
        <time>2013-07-27T10:33:32Z</time>
      </trkpt>
      <trkpt lat="42.350181000" lon="-2.340591000">
        <ele>581.30</ele>
        <time>2013-07-27T10:33:33Z</time>
      </trkpt>
      <trkpt lat="42.350161000" lon="-2.340586000">
        <ele>581.30</ele>
        <time>2013-07-27T10:33:34Z</time>
      </trkpt>
      <trkpt lat="42.350140000" lon="-2.340579000">
        <ele>581.40</ele>
        <time>2013-07-27T10:33:35Z</time>
      </trkpt>
      <trkpt lat="42.350122000" lon="-2.340576000">
        <ele>581.40</ele>
        <time>2013-07-27T10:33:36Z</time>
      </trkpt>
      <trkpt lat="42.350102000" lon="-2.340574000">
        <ele>581.40</ele>
        <time>2013-07-27T10:33:37Z</time>
      </trkpt>
      <trkpt lat="42.350084000" lon="-2.340573000">
        <ele>581.50</ele>
        <time>2013-07-27T10:33:38Z</time>
      </trkpt>
      <trkpt lat="42.350064000" lon="-2.340569000">
        <ele>581.50</ele>
        <time>2013-07-27T10:33:39Z</time>
      </trkpt>
      <trkpt lat="42.350045000" lon="-2.340566000">
        <ele>581.50</ele>
        <time>2013-07-27T10:33:40Z</time>
      </trkpt>
      <trkpt lat="42.350026000" lon="-2.340562000">
        <ele>581.80</ele>
        <time>2013-07-27T10:33:41Z</time>
      </trkpt>
      <trkpt lat="42.350008000" lon="-2.340557000">
        <ele>582.00</ele>
        <time>2013-07-27T10:33:42Z</time>
      </trkpt>
      <trkpt lat="42.349989000" lon="-2.340552000">
        <ele>582.20</ele>
        <time>2013-07-27T10:33:43Z</time>
      </trkpt>
      <trkpt lat="42.349970000" lon="-2.340547000">
        <ele>582.50</ele>
        <time>2013-07-27T10:33:44Z</time>
      </trkpt>
      <trkpt lat="42.349952000" lon="-2.340543000">
        <ele>582.80</ele>
        <time>2013-07-27T10:33:45Z</time>
      </trkpt>
      <trkpt lat="42.349933000" lon="-2.340540000">
        <ele>583.00</ele>
        <time>2013-07-27T10:33:46Z</time>
      </trkpt>
      <trkpt lat="42.349914000" lon="-2.340538000">
        <ele>583.10</ele>
        <time>2013-07-27T10:33:47Z</time>
      </trkpt>
      <trkpt lat="42.349896000" lon="-2.340532000">
        <ele>583.30</ele>
        <time>2013-07-27T10:33:48Z</time>
      </trkpt>
      <trkpt lat="42.349877000" lon="-2.340524000">
        <ele>583.40</ele>
        <time>2013-07-27T10:33:49Z</time>
      </trkpt>
      <trkpt lat="42.349859000" lon="-2.340520000">
        <ele>583.50</ele>
        <time>2013-07-27T10:33:50Z</time>
      </trkpt>
      <trkpt lat="42.349842000" lon="-2.340518000">
        <ele>583.60</ele>
        <time>2013-07-27T10:33:51Z</time>
      </trkpt>
      <trkpt lat="42.349824000" lon="-2.340519000">
        <ele>583.70</ele>
        <time>2013-07-27T10:33:52Z</time>
      </trkpt>
      <trkpt lat="42.349808000" lon="-2.340515000">
        <ele>584.00</ele>
        <time>2013-07-27T10:33:53Z</time>
      </trkpt>
      <trkpt lat="42.349791000" lon="-2.340511000">
        <ele>584.20</ele>
        <time>2013-07-27T10:33:54Z</time>
      </trkpt>
      <trkpt lat="42.349773000" lon="-2.340505000">
        <ele>584.30</ele>
        <time>2013-07-27T10:33:55Z</time>
      </trkpt>
      <trkpt lat="42.349753000" lon="-2.340497000">
        <ele>584.40</ele>
        <time>2013-07-27T10:33:56Z</time>
      </trkpt>
      <trkpt lat="42.349736000" lon="-2.340489000">
        <ele>584.50</ele>
        <time>2013-07-27T10:33:57Z</time>
      </trkpt>
      <trkpt lat="42.349717000" lon="-2.340484000">
        <ele>584.60</ele>
        <time>2013-07-27T10:33:58Z</time>
      </trkpt>
      <trkpt lat="42.349698000" lon="-2.340482000">
        <ele>584.70</ele>
        <time>2013-07-27T10:33:59Z</time>
      </trkpt>
      <trkpt lat="42.349678000" lon="-2.340476000">
        <ele>584.80</ele>
        <time>2013-07-27T10:34:00Z</time>
      </trkpt>
      <trkpt lat="42.349661000" lon="-2.340467000">
        <ele>584.90</ele>
        <time>2013-07-27T10:34:01Z</time>
      </trkpt>
      <trkpt lat="42.349640000" lon="-2.340461000">
        <ele>584.90</ele>
        <time>2013-07-27T10:34:02Z</time>
      </trkpt>
      <trkpt lat="42.349623000" lon="-2.340453000">
        <ele>584.90</ele>
        <time>2013-07-27T10:34:03Z</time>
      </trkpt>
      <trkpt lat="42.349604000" lon="-2.340446000">
        <ele>585.00</ele>
        <time>2013-07-27T10:34:04Z</time>
      </trkpt>
      <trkpt lat="42.349583000" lon="-2.340441000">
        <ele>585.00</ele>
        <time>2013-07-27T10:34:05Z</time>
      </trkpt>
      <trkpt lat="42.349564000" lon="-2.340436000">
        <ele>585.00</ele>
        <time>2013-07-27T10:34:06Z</time>
      </trkpt>
      <trkpt lat="42.349546000" lon="-2.340429000">
        <ele>585.00</ele>
        <time>2013-07-27T10:34:07Z</time>
      </trkpt>
      <trkpt lat="42.349528000" lon="-2.340426000">
        <ele>585.10</ele>
        <time>2013-07-27T10:34:08Z</time>
      </trkpt>
      <trkpt lat="42.349509000" lon="-2.340420000">
        <ele>585.20</ele>
        <time>2013-07-27T10:34:09Z</time>
      </trkpt>
      <trkpt lat="42.349490000" lon="-2.340413000">
        <ele>585.30</ele>
        <time>2013-07-27T10:34:10Z</time>
      </trkpt>
      <trkpt lat="42.349471000" lon="-2.340405000">
        <ele>585.30</ele>
        <time>2013-07-27T10:34:11Z</time>
      </trkpt>
      <trkpt lat="42.349451000" lon="-2.340400000">
        <ele>585.70</ele>
        <time>2013-07-27T10:34:12Z</time>
      </trkpt>
      <trkpt lat="42.349431000" lon="-2.340394000">
        <ele>586.00</ele>
        <time>2013-07-27T10:34:13Z</time>
      </trkpt>
      <trkpt lat="42.349411000" lon="-2.340391000">
        <ele>586.30</ele>
        <time>2013-07-27T10:34:14Z</time>
      </trkpt>
      <trkpt lat="42.349393000" lon="-2.340383000">
        <ele>586.50</ele>
        <time>2013-07-27T10:34:15Z</time>
      </trkpt>
      <trkpt lat="42.349374000" lon="-2.340375000">
        <ele>586.60</ele>
        <time>2013-07-27T10:34:16Z</time>
      </trkpt>
      <trkpt lat="42.349354000" lon="-2.340372000">
        <ele>586.70</ele>
        <time>2013-07-27T10:34:17Z</time>
      </trkpt>
      <trkpt lat="42.349336000" lon="-2.340368000">
        <ele>586.80</ele>
        <time>2013-07-27T10:34:18Z</time>
      </trkpt>
      <trkpt lat="42.349318000" lon="-2.340365000">
        <ele>586.90</ele>
        <time>2013-07-27T10:34:19Z</time>
      </trkpt>
      <trkpt lat="42.349302000" lon="-2.340360000">
        <ele>586.90</ele>
        <time>2013-07-27T10:34:20Z</time>
      </trkpt>
      <trkpt lat="42.349285000" lon="-2.340358000">
        <ele>586.90</ele>
        <time>2013-07-27T10:34:21Z</time>
      </trkpt>
      <trkpt lat="42.349269000" lon="-2.340355000">
        <ele>587.00</ele>
        <time>2013-07-27T10:34:22Z</time>
      </trkpt>
      <trkpt lat="42.349251000" lon="-2.340350000">
        <ele>587.10</ele>
        <time>2013-07-27T10:34:23Z</time>
      </trkpt>
      <trkpt lat="42.349234000" lon="-2.340347000">
        <ele>587.20</ele>
        <time>2013-07-27T10:34:24Z</time>
      </trkpt>
      <trkpt lat="42.349219000" lon="-2.340345000">
        <ele>587.30</ele>
        <time>2013-07-27T10:34:25Z</time>
      </trkpt>
      <trkpt lat="42.349203000" lon="-2.340341000">
        <ele>587.40</ele>
        <time>2013-07-27T10:34:26Z</time>
      </trkpt>
      <trkpt lat="42.349183000" lon="-2.340337000">
        <ele>587.50</ele>
        <time>2013-07-27T10:34:27Z</time>
      </trkpt>
      <trkpt lat="42.349163000" lon="-2.340331000">
        <ele>587.50</ele>
        <time>2013-07-27T10:34:28Z</time>
      </trkpt>
      <trkpt lat="42.349146000" lon="-2.340324000">
        <ele>587.60</ele>
        <time>2013-07-27T10:34:29Z</time>
      </trkpt>
      <trkpt lat="42.349129000" lon="-2.340320000">
        <ele>587.60</ele>
        <time>2013-07-27T10:34:30Z</time>
      </trkpt>
      <trkpt lat="42.349109000" lon="-2.340316000">
        <ele>587.60</ele>
        <time>2013-07-27T10:34:31Z</time>
      </trkpt>
      <trkpt lat="42.349090000" lon="-2.340311000">
        <ele>587.90</ele>
        <time>2013-07-27T10:34:32Z</time>
      </trkpt>
      <trkpt lat="42.349068000" lon="-2.340306000">
        <ele>588.00</ele>
        <time>2013-07-27T10:34:33Z</time>
      </trkpt>
      <trkpt lat="42.349049000" lon="-2.340302000">
        <ele>588.10</ele>
        <time>2013-07-27T10:34:34Z</time>
      </trkpt>
      <trkpt lat="42.349033000" lon="-2.340297000">
        <ele>588.20</ele>
        <time>2013-07-27T10:34:35Z</time>
      </trkpt>
      <trkpt lat="42.349018000" lon="-2.340293000">
        <ele>588.40</ele>
        <time>2013-07-27T10:34:36Z</time>
      </trkpt>
      <trkpt lat="42.349002000" lon="-2.340289000">
        <ele>588.50</ele>
        <time>2013-07-27T10:34:37Z</time>
      </trkpt>
      <trkpt lat="42.348985000" lon="-2.340283000">
        <ele>588.60</ele>
        <time>2013-07-27T10:34:38Z</time>
      </trkpt>
      <trkpt lat="42.348967000" lon="-2.340281000">
        <ele>588.60</ele>
        <time>2013-07-27T10:34:39Z</time>
      </trkpt>
      <trkpt lat="42.348948000" lon="-2.340279000">
        <ele>588.70</ele>
        <time>2013-07-27T10:34:40Z</time>
      </trkpt>
      <trkpt lat="42.348931000" lon="-2.340277000">
        <ele>588.80</ele>
        <time>2013-07-27T10:34:41Z</time>
      </trkpt>
      <trkpt lat="42.348914000" lon="-2.340276000">
        <ele>588.90</ele>
        <time>2013-07-27T10:34:42Z</time>
      </trkpt>
      <trkpt lat="42.348898000" lon="-2.340273000">
        <ele>589.00</ele>
        <time>2013-07-27T10:34:43Z</time>
      </trkpt>
      <trkpt lat="42.348882000" lon="-2.340268000">
        <ele>589.10</ele>
        <time>2013-07-27T10:34:44Z</time>
      </trkpt>
      <trkpt lat="42.348866000" lon="-2.340263000">
        <ele>589.50</ele>
        <time>2013-07-27T10:34:45Z</time>
      </trkpt>
      <trkpt lat="42.348848000" lon="-2.340260000">
        <ele>589.80</ele>
        <time>2013-07-27T10:34:46Z</time>
      </trkpt>
      <trkpt lat="42.348831000" lon="-2.340257000">
        <ele>590.00</ele>
        <time>2013-07-27T10:34:47Z</time>
      </trkpt>
      <trkpt lat="42.348813000" lon="-2.340252000">
        <ele>590.20</ele>
        <time>2013-07-27T10:34:48Z</time>
      </trkpt>
      <trkpt lat="42.348794000" lon="-2.340248000">
        <ele>590.30</ele>
        <time>2013-07-27T10:34:49Z</time>
      </trkpt>
      <trkpt lat="42.348776000" lon="-2.340248000">
        <ele>590.40</ele>
        <time>2013-07-27T10:34:50Z</time>
      </trkpt>
      <trkpt lat="42.348757000" lon="-2.340245000">
        <ele>590.50</ele>
        <time>2013-07-27T10:34:51Z</time>
      </trkpt>
      <trkpt lat="42.348738000" lon="-2.340243000">
        <ele>590.60</ele>
        <time>2013-07-27T10:34:52Z</time>
      </trkpt>
      <trkpt lat="42.348721000" lon="-2.340240000">
        <ele>590.60</ele>
        <time>2013-07-27T10:34:53Z</time>
      </trkpt>
      <trkpt lat="42.348704000" lon="-2.340234000">
        <ele>590.60</ele>
        <time>2013-07-27T10:34:54Z</time>
      </trkpt>
      <trkpt lat="42.348686000" lon="-2.340234000">
        <ele>590.70</ele>
        <time>2013-07-27T10:34:55Z</time>
      </trkpt>
      <trkpt lat="42.348669000" lon="-2.340233000">
        <ele>590.70</ele>
        <time>2013-07-27T10:34:56Z</time>
      </trkpt>
      <trkpt lat="42.348651000" lon="-2.340234000">
        <ele>590.70</ele>
        <time>2013-07-27T10:34:57Z</time>
      </trkpt>
      <trkpt lat="42.348634000" lon="-2.340232000">
        <ele>590.70</ele>
        <time>2013-07-27T10:34:58Z</time>
      </trkpt>
      <trkpt lat="42.348613000" lon="-2.340231000">
        <ele>590.90</ele>
        <time>2013-07-27T10:34:59Z</time>
      </trkpt>
      <trkpt lat="42.348595000" lon="-2.340231000">
        <ele>591.10</ele>
        <time>2013-07-27T10:35:00Z</time>
      </trkpt>
      <trkpt lat="42.348579000" lon="-2.340232000">
        <ele>591.20</ele>
        <time>2013-07-27T10:35:01Z</time>
      </trkpt>
      <trkpt lat="42.348561000" lon="-2.340235000">
        <ele>591.30</ele>
        <time>2013-07-27T10:35:02Z</time>
      </trkpt>
      <trkpt lat="42.348542000" lon="-2.340236000">
        <ele>591.30</ele>
        <time>2013-07-27T10:35:03Z</time>
      </trkpt>
      <trkpt lat="42.348525000" lon="-2.340238000">
        <ele>591.40</ele>
        <time>2013-07-27T10:35:04Z</time>
      </trkpt>
      <trkpt lat="42.348508000" lon="-2.340240000">
        <ele>591.40</ele>
        <time>2013-07-27T10:35:05Z</time>
      </trkpt>
      <trkpt lat="42.348487000" lon="-2.340240000">
        <ele>591.40</ele>
        <time>2013-07-27T10:35:06Z</time>
      </trkpt>
      <trkpt lat="42.348469000" lon="-2.340242000">
        <ele>591.70</ele>
        <time>2013-07-27T10:35:07Z</time>
      </trkpt>
      <trkpt lat="42.348451000" lon="-2.340247000">
        <ele>591.80</ele>
        <time>2013-07-27T10:35:08Z</time>
      </trkpt>
      <trkpt lat="42.348435000" lon="-2.340248000">
        <ele>591.90</ele>
        <time>2013-07-27T10:35:09Z</time>
      </trkpt>
      <trkpt lat="42.348418000" lon="-2.340250000">
        <ele>592.00</ele>
        <time>2013-07-27T10:35:10Z</time>
      </trkpt>
      <trkpt lat="42.348403000" lon="-2.340251000">
        <ele>592.10</ele>
        <time>2013-07-27T10:35:11Z</time>
      </trkpt>
      <trkpt lat="42.348387000" lon="-2.340254000">
        <ele>592.20</ele>
        <time>2013-07-27T10:35:12Z</time>
      </trkpt>
      <trkpt lat="42.348370000" lon="-2.340256000">
        <ele>592.30</ele>
        <time>2013-07-27T10:35:13Z</time>
      </trkpt>
      <trkpt lat="42.348352000" lon="-2.340257000">
        <ele>592.50</ele>
        <time>2013-07-27T10:35:14Z</time>
      </trkpt>
      <trkpt lat="42.348333000" lon="-2.340258000">
        <ele>592.60</ele>
        <time>2013-07-27T10:35:15Z</time>
      </trkpt>
      <trkpt lat="42.348314000" lon="-2.340259000">
        <ele>592.80</ele>
        <time>2013-07-27T10:35:16Z</time>
      </trkpt>
      <trkpt lat="42.348296000" lon="-2.340260000">
        <ele>592.90</ele>
        <time>2013-07-27T10:35:17Z</time>
      </trkpt>
      <trkpt lat="42.348277000" lon="-2.340261000">
        <ele>593.00</ele>
        <time>2013-07-27T10:35:18Z</time>
      </trkpt>
      <trkpt lat="42.348258000" lon="-2.340261000">
        <ele>593.10</ele>
        <time>2013-07-27T10:35:19Z</time>
      </trkpt>
      <trkpt lat="42.348238000" lon="-2.340264000">
        <ele>593.20</ele>
        <time>2013-07-27T10:35:20Z</time>
      </trkpt>
      <trkpt lat="42.348220000" lon="-2.340265000">
        <ele>593.40</ele>
        <time>2013-07-27T10:35:21Z</time>
      </trkpt>
      <trkpt lat="42.348202000" lon="-2.340265000">
        <ele>593.50</ele>
        <time>2013-07-27T10:35:22Z</time>
      </trkpt>
      <trkpt lat="42.348183000" lon="-2.340270000">
        <ele>593.70</ele>
        <time>2013-07-27T10:35:23Z</time>
      </trkpt>
      <trkpt lat="42.348164000" lon="-2.340273000">
        <ele>593.70</ele>
        <time>2013-07-27T10:35:24Z</time>
      </trkpt>
      <trkpt lat="42.348145000" lon="-2.340273000">
        <ele>593.90</ele>
        <time>2013-07-27T10:35:25Z</time>
      </trkpt>
      <trkpt lat="42.348128000" lon="-2.340274000">
        <ele>594.10</ele>
        <time>2013-07-27T10:35:26Z</time>
      </trkpt>
      <trkpt lat="42.348112000" lon="-2.340276000">
        <ele>594.20</ele>
        <time>2013-07-27T10:35:27Z</time>
      </trkpt>
      <trkpt lat="42.348096000" lon="-2.340276000">
        <ele>594.30</ele>
        <time>2013-07-27T10:35:28Z</time>
      </trkpt>
      <trkpt lat="42.348081000" lon="-2.340278000">
        <ele>594.30</ele>
        <time>2013-07-27T10:35:29Z</time>
      </trkpt>
      <trkpt lat="42.348065000" lon="-2.340281000">
        <ele>594.30</ele>
        <time>2013-07-27T10:35:30Z</time>
      </trkpt>
      <trkpt lat="42.348048000" lon="-2.340283000">
        <ele>594.30</ele>
        <time>2013-07-27T10:35:31Z</time>
      </trkpt>
      <trkpt lat="42.348031000" lon="-2.340284000">
        <ele>594.30</ele>
        <time>2013-07-27T10:35:32Z</time>
      </trkpt>
      <trkpt lat="42.348014000" lon="-2.340287000">
        <ele>594.50</ele>
        <time>2013-07-27T10:35:33Z</time>
      </trkpt>
      <trkpt lat="42.348001000" lon="-2.340295000">
        <ele>594.70</ele>
        <time>2013-07-27T10:35:34Z</time>
      </trkpt>
      <trkpt lat="42.347984000" lon="-2.340298000">
        <ele>594.90</ele>
        <time>2013-07-27T10:35:35Z</time>
      </trkpt>
      <trkpt lat="42.347968000" lon="-2.340299000">
        <ele>595.10</ele>
        <time>2013-07-27T10:35:36Z</time>
      </trkpt>
      <trkpt lat="42.347952000" lon="-2.340301000">
        <ele>595.30</ele>
        <time>2013-07-27T10:35:37Z</time>
      </trkpt>
      <trkpt lat="42.347938000" lon="-2.340313000">
        <ele>595.40</ele>
        <time>2013-07-27T10:35:38Z</time>
      </trkpt>
      <trkpt lat="42.347924000" lon="-2.340326000">
        <ele>595.50</ele>
        <time>2013-07-27T10:35:39Z</time>
      </trkpt>
      <trkpt lat="42.347907000" lon="-2.340339000">
        <ele>595.60</ele>
        <time>2013-07-27T10:35:40Z</time>
      </trkpt>
      <trkpt lat="42.347889000" lon="-2.340347000">
        <ele>595.70</ele>
        <time>2013-07-27T10:35:41Z</time>
      </trkpt>
      <trkpt lat="42.347870000" lon="-2.340356000">
        <ele>595.70</ele>
        <time>2013-07-27T10:35:42Z</time>
      </trkpt>
      <trkpt lat="42.347850000" lon="-2.340363000">
        <ele>595.80</ele>
        <time>2013-07-27T10:35:43Z</time>
      </trkpt>
      <trkpt lat="42.347830000" lon="-2.340371000">
        <ele>595.80</ele>
        <time>2013-07-27T10:35:44Z</time>
      </trkpt>
      <trkpt lat="42.347810000" lon="-2.340377000">
        <ele>595.90</ele>
        <time>2013-07-27T10:35:45Z</time>
      </trkpt>
      <trkpt lat="42.347791000" lon="-2.340387000">
        <ele>595.90</ele>
        <time>2013-07-27T10:35:46Z</time>
      </trkpt>
      <trkpt lat="42.347774000" lon="-2.340395000">
        <ele>596.20</ele>
        <time>2013-07-27T10:35:47Z</time>
      </trkpt>
      <trkpt lat="42.347759000" lon="-2.340408000">
        <ele>596.40</ele>
        <time>2013-07-27T10:35:48Z</time>
      </trkpt>
      <trkpt lat="42.347742000" lon="-2.340421000">
        <ele>596.50</ele>
        <time>2013-07-27T10:35:49Z</time>
      </trkpt>
      <trkpt lat="42.347723000" lon="-2.340435000">
        <ele>596.60</ele>
        <time>2013-07-27T10:35:50Z</time>
      </trkpt>
      <trkpt lat="42.347709000" lon="-2.340446000">
        <ele>596.70</ele>
        <time>2013-07-27T10:35:51Z</time>
      </trkpt>
      <trkpt lat="42.347696000" lon="-2.340454000">
        <ele>596.70</ele>
        <time>2013-07-27T10:35:52Z</time>
      </trkpt>
      <trkpt lat="42.347677000" lon="-2.340463000">
        <ele>596.80</ele>
        <time>2013-07-27T10:35:53Z</time>
      </trkpt>
      <trkpt lat="42.347661000" lon="-2.340475000">
        <ele>596.80</ele>
        <time>2013-07-27T10:35:54Z</time>
      </trkpt>
      <trkpt lat="42.347642000" lon="-2.340482000">
        <ele>597.10</ele>
        <time>2013-07-27T10:35:55Z</time>
      </trkpt>
      <trkpt lat="42.347626000" lon="-2.340483000">
        <ele>597.30</ele>
        <time>2013-07-27T10:35:56Z</time>
      </trkpt>
      <trkpt lat="42.347612000" lon="-2.340489000">
        <ele>597.70</ele>
        <time>2013-07-27T10:35:57Z</time>
      </trkpt>
      <trkpt lat="42.347595000" lon="-2.340497000">
        <ele>597.90</ele>
        <time>2013-07-27T10:35:58Z</time>
      </trkpt>
      <trkpt lat="42.347579000" lon="-2.340510000">
        <ele>597.90</ele>
        <time>2013-07-27T10:35:59Z</time>
      </trkpt>
      <trkpt lat="42.347562000" lon="-2.340515000">
        <ele>597.90</ele>
        <time>2013-07-27T10:36:00Z</time>
      </trkpt>
      <trkpt lat="42.347545000" lon="-2.340524000">
        <ele>597.90</ele>
        <time>2013-07-27T10:36:01Z</time>
      </trkpt>
      <trkpt lat="42.347527000" lon="-2.340535000">
        <ele>597.90</ele>
        <time>2013-07-27T10:36:02Z</time>
      </trkpt>
      <trkpt lat="42.347508000" lon="-2.340543000">
        <ele>597.90</ele>
        <time>2013-07-27T10:36:03Z</time>
      </trkpt>
      <trkpt lat="42.347489000" lon="-2.340548000">
        <ele>597.90</ele>
        <time>2013-07-27T10:36:04Z</time>
      </trkpt>
      <trkpt lat="42.347471000" lon="-2.340550000">
        <ele>597.90</ele>
        <time>2013-07-27T10:36:05Z</time>
      </trkpt>
      <trkpt lat="42.347452000" lon="-2.340549000">
        <ele>597.90</ele>
        <time>2013-07-27T10:36:06Z</time>
      </trkpt>
      <trkpt lat="42.347434000" lon="-2.340550000">
        <ele>598.10</ele>
        <time>2013-07-27T10:36:07Z</time>
      </trkpt>
      <trkpt lat="42.347415000" lon="-2.340551000">
        <ele>598.30</ele>
        <time>2013-07-27T10:36:08Z</time>
      </trkpt>
      <trkpt lat="42.347397000" lon="-2.340553000">
        <ele>598.70</ele>
        <time>2013-07-27T10:36:09Z</time>
      </trkpt>
      <trkpt lat="42.347380000" lon="-2.340552000">
        <ele>599.00</ele>
        <time>2013-07-27T10:36:10Z</time>
      </trkpt>
      <trkpt lat="42.347360000" lon="-2.340550000">
        <ele>599.20</ele>
        <time>2013-07-27T10:36:11Z</time>
      </trkpt>
      <trkpt lat="42.347341000" lon="-2.340548000">
        <ele>599.40</ele>
        <time>2013-07-27T10:36:12Z</time>
      </trkpt>
      <trkpt lat="42.347322000" lon="-2.340545000">
        <ele>599.50</ele>
        <time>2013-07-27T10:36:13Z</time>
      </trkpt>
      <trkpt lat="42.347304000" lon="-2.340539000">
        <ele>599.60</ele>
        <time>2013-07-27T10:36:14Z</time>
      </trkpt>
      <trkpt lat="42.347286000" lon="-2.340533000">
        <ele>599.80</ele>
        <time>2013-07-27T10:36:15Z</time>
      </trkpt>
      <trkpt lat="42.347268000" lon="-2.340528000">
        <ele>599.90</ele>
        <time>2013-07-27T10:36:16Z</time>
      </trkpt>
      <trkpt lat="42.347249000" lon="-2.340523000">
        <ele>600.00</ele>
        <time>2013-07-27T10:36:17Z</time>
      </trkpt>
      <trkpt lat="42.347230000" lon="-2.340512000">
        <ele>600.10</ele>
        <time>2013-07-27T10:36:18Z</time>
      </trkpt>
      <trkpt lat="42.347213000" lon="-2.340500000">
        <ele>600.20</ele>
        <time>2013-07-27T10:36:19Z</time>
      </trkpt>
      <trkpt lat="42.347197000" lon="-2.340489000">
        <ele>600.30</ele>
        <time>2013-07-27T10:36:20Z</time>
      </trkpt>
      <trkpt lat="42.347181000" lon="-2.340481000">
        <ele>600.30</ele>
        <time>2013-07-27T10:36:21Z</time>
      </trkpt>
      <trkpt lat="42.347163000" lon="-2.340474000">
        <ele>600.20</ele>
        <time>2013-07-27T10:36:22Z</time>
      </trkpt>
      <trkpt lat="42.347147000" lon="-2.340463000">
        <ele>600.20</ele>
        <time>2013-07-27T10:36:23Z</time>
      </trkpt>
      <trkpt lat="42.347133000" lon="-2.340449000">
        <ele>600.20</ele>
        <time>2013-07-27T10:36:24Z</time>
      </trkpt>
      <trkpt lat="42.347120000" lon="-2.340432000">
        <ele>600.20</ele>
        <time>2013-07-27T10:36:25Z</time>
      </trkpt>
      <trkpt lat="42.347104000" lon="-2.340422000">
        <ele>600.20</ele>
        <time>2013-07-27T10:36:26Z</time>
      </trkpt>
      <trkpt lat="42.347086000" lon="-2.340408000">
        <ele>600.20</ele>
        <time>2013-07-27T10:36:27Z</time>
      </trkpt>
      <trkpt lat="42.347069000" lon="-2.340390000">
        <ele>600.20</ele>
        <time>2013-07-27T10:36:28Z</time>
      </trkpt>
      <trkpt lat="42.347055000" lon="-2.340374000">
        <ele>600.30</ele>
        <time>2013-07-27T10:36:29Z</time>
      </trkpt>
      <trkpt lat="42.347037000" lon="-2.340359000">
        <ele>600.40</ele>
        <time>2013-07-27T10:36:30Z</time>
      </trkpt>
      <trkpt lat="42.347018000" lon="-2.340347000">
        <ele>600.50</ele>
        <time>2013-07-27T10:36:31Z</time>
      </trkpt>
      <trkpt lat="42.347000000" lon="-2.340339000">
        <ele>600.80</ele>
        <time>2013-07-27T10:36:32Z</time>
      </trkpt>
      <trkpt lat="42.346982000" lon="-2.340332000">
        <ele>601.00</ele>
        <time>2013-07-27T10:36:33Z</time>
      </trkpt>
      <trkpt lat="42.346960000" lon="-2.340324000">
        <ele>601.10</ele>
        <time>2013-07-27T10:36:34Z</time>
      </trkpt>
      <trkpt lat="42.346938000" lon="-2.340320000">
        <ele>601.20</ele>
        <time>2013-07-27T10:36:35Z</time>
      </trkpt>
      <trkpt lat="42.346918000" lon="-2.340318000">
        <ele>601.30</ele>
        <time>2013-07-27T10:36:36Z</time>
      </trkpt>
      <trkpt lat="42.346898000" lon="-2.340318000">
        <ele>601.40</ele>
        <time>2013-07-27T10:36:37Z</time>
      </trkpt>
      <trkpt lat="42.346879000" lon="-2.340321000">
        <ele>601.80</ele>
        <time>2013-07-27T10:36:38Z</time>
      </trkpt>
      <trkpt lat="42.346860000" lon="-2.340326000">
        <ele>602.10</ele>
        <time>2013-07-27T10:36:39Z</time>
      </trkpt>
      <trkpt lat="42.346846000" lon="-2.340333000">
        <ele>602.30</ele>
        <time>2013-07-27T10:36:40Z</time>
      </trkpt>
      <trkpt lat="42.346830000" lon="-2.340345000">
        <ele>602.40</ele>
        <time>2013-07-27T10:36:41Z</time>
      </trkpt>
      <trkpt lat="42.346816000" lon="-2.340358000">
        <ele>602.50</ele>
        <time>2013-07-27T10:36:42Z</time>
      </trkpt>
      <trkpt lat="42.346801000" lon="-2.340373000">
        <ele>602.60</ele>
        <time>2013-07-27T10:36:43Z</time>
      </trkpt>
      <trkpt lat="42.346785000" lon="-2.340388000">
        <ele>602.60</ele>
        <time>2013-07-27T10:36:44Z</time>
      </trkpt>
      <trkpt lat="42.346769000" lon="-2.340402000">
        <ele>602.50</ele>
        <time>2013-07-27T10:36:45Z</time>
      </trkpt>
      <trkpt lat="42.346757000" lon="-2.340419000">
        <ele>602.50</ele>
        <time>2013-07-27T10:36:46Z</time>
      </trkpt>
      <trkpt lat="42.346744000" lon="-2.340436000">
        <ele>602.40</ele>
        <time>2013-07-27T10:36:47Z</time>
      </trkpt>
      <trkpt lat="42.346734000" lon="-2.340460000">
        <ele>602.50</ele>
        <time>2013-07-27T10:36:48Z</time>
      </trkpt>
      <trkpt lat="42.346719000" lon="-2.340479000">
        <ele>602.50</ele>
        <time>2013-07-27T10:36:49Z</time>
      </trkpt>
      <trkpt lat="42.346704000" lon="-2.340499000">
        <ele>602.70</ele>
        <time>2013-07-27T10:36:50Z</time>
      </trkpt>
      <trkpt lat="42.346692000" lon="-2.340522000">
        <ele>602.90</ele>
        <time>2013-07-27T10:36:51Z</time>
      </trkpt>
      <trkpt lat="42.346679000" lon="-2.340542000">
        <ele>603.00</ele>
        <time>2013-07-27T10:36:52Z</time>
      </trkpt>
      <trkpt lat="42.346669000" lon="-2.340559000">
        <ele>603.10</ele>
        <time>2013-07-27T10:36:53Z</time>
      </trkpt>
      <trkpt lat="42.346657000" lon="-2.340579000">
        <ele>603.40</ele>
        <time>2013-07-27T10:36:54Z</time>
      </trkpt>
      <trkpt lat="42.346645000" lon="-2.340598000">
        <ele>603.60</ele>
        <time>2013-07-27T10:36:55Z</time>
      </trkpt>
      <trkpt lat="42.346634000" lon="-2.340615000">
        <ele>603.70</ele>
        <time>2013-07-27T10:36:56Z</time>
      </trkpt>
      <trkpt lat="42.346620000" lon="-2.340632000">
        <ele>603.90</ele>
        <time>2013-07-27T10:36:57Z</time>
      </trkpt>
      <trkpt lat="42.346608000" lon="-2.340647000">
        <ele>603.90</ele>
        <time>2013-07-27T10:36:58Z</time>
      </trkpt>
      <trkpt lat="42.346594000" lon="-2.340666000">
        <ele>604.10</ele>
        <time>2013-07-27T10:36:59Z</time>
      </trkpt>
      <trkpt lat="42.346583000" lon="-2.340684000">
        <ele>604.20</ele>
        <time>2013-07-27T10:37:00Z</time>
      </trkpt>
      <trkpt lat="42.346569000" lon="-2.340701000">
        <ele>604.20</ele>
        <time>2013-07-27T10:37:01Z</time>
      </trkpt>
      <trkpt lat="42.346554000" lon="-2.340720000">
        <ele>604.30</ele>
        <time>2013-07-27T10:37:02Z</time>
      </trkpt>
      <trkpt lat="42.346542000" lon="-2.340738000">
        <ele>604.30</ele>
        <time>2013-07-27T10:37:03Z</time>
      </trkpt>
      <trkpt lat="42.346530000" lon="-2.340755000">
        <ele>604.40</ele>
        <time>2013-07-27T10:37:04Z</time>
      </trkpt>
      <trkpt lat="42.346516000" lon="-2.340776000">
        <ele>604.40</ele>
        <time>2013-07-27T10:37:05Z</time>
      </trkpt>
      <trkpt lat="42.346504000" lon="-2.340791000">
        <ele>604.40</ele>
        <time>2013-07-27T10:37:06Z</time>
      </trkpt>
      <trkpt lat="42.346488000" lon="-2.340804000">
        <ele>604.50</ele>
        <time>2013-07-27T10:37:07Z</time>
      </trkpt>
      <trkpt lat="42.346472000" lon="-2.340824000">
        <ele>604.50</ele>
        <time>2013-07-27T10:37:08Z</time>
      </trkpt>
      <trkpt lat="42.346461000" lon="-2.340839000">
        <ele>604.70</ele>
        <time>2013-07-27T10:37:09Z</time>
      </trkpt>
      <trkpt lat="42.346452000" lon="-2.340854000">
        <ele>604.70</ele>
        <time>2013-07-27T10:37:10Z</time>
      </trkpt>
      <trkpt lat="42.346438000" lon="-2.340871000">
        <ele>604.90</ele>
        <time>2013-07-27T10:37:11Z</time>
      </trkpt>
      <trkpt lat="42.346425000" lon="-2.340887000">
        <ele>605.10</ele>
        <time>2013-07-27T10:37:12Z</time>
      </trkpt>
      <trkpt lat="42.346412000" lon="-2.340904000">
        <ele>605.30</ele>
        <time>2013-07-27T10:37:13Z</time>
      </trkpt>
      <trkpt lat="42.346401000" lon="-2.340923000">
        <ele>605.40</ele>
        <time>2013-07-27T10:37:14Z</time>
      </trkpt>
      <trkpt lat="42.346390000" lon="-2.340943000">
        <ele>605.70</ele>
        <time>2013-07-27T10:37:15Z</time>
      </trkpt>
      <trkpt lat="42.346380000" lon="-2.340958000">
        <ele>605.90</ele>
        <time>2013-07-27T10:37:16Z</time>
      </trkpt>
      <trkpt lat="42.346370000" lon="-2.340976000">
        <ele>606.10</ele>
        <time>2013-07-27T10:37:17Z</time>
      </trkpt>
      <trkpt lat="42.346359000" lon="-2.340994000">
        <ele>606.30</ele>
        <time>2013-07-27T10:37:18Z</time>
      </trkpt>
      <trkpt lat="42.346346000" lon="-2.341008000">
        <ele>606.50</ele>
        <time>2013-07-27T10:37:19Z</time>
      </trkpt>
      <trkpt lat="42.346335000" lon="-2.341026000">
        <ele>606.70</ele>
        <time>2013-07-27T10:37:20Z</time>
      </trkpt>
      <trkpt lat="42.346326000" lon="-2.341048000">
        <ele>606.70</ele>
        <time>2013-07-27T10:37:21Z</time>
      </trkpt>
      <trkpt lat="42.346315000" lon="-2.341064000">
        <ele>606.80</ele>
        <time>2013-07-27T10:37:22Z</time>
      </trkpt>
      <trkpt lat="42.346302000" lon="-2.341077000">
        <ele>606.80</ele>
        <time>2013-07-27T10:37:23Z</time>
      </trkpt>
      <trkpt lat="42.346289000" lon="-2.341095000">
        <ele>606.90</ele>
        <time>2013-07-27T10:37:24Z</time>
      </trkpt>
      <trkpt lat="42.346275000" lon="-2.341111000">
        <ele>606.90</ele>
        <time>2013-07-27T10:37:25Z</time>
      </trkpt>
      <trkpt lat="42.346266000" lon="-2.341128000">
        <ele>606.90</ele>
        <time>2013-07-27T10:37:26Z</time>
      </trkpt>
      <trkpt lat="42.346254000" lon="-2.341142000">
        <ele>607.00</ele>
        <time>2013-07-27T10:37:27Z</time>
      </trkpt>
      <trkpt lat="42.346246000" lon="-2.341153000">
        <ele>607.10</ele>
        <time>2013-07-27T10:37:28Z</time>
      </trkpt>
      <trkpt lat="42.346238000" lon="-2.341171000">
        <ele>607.30</ele>
        <time>2013-07-27T10:37:29Z</time>
      </trkpt>
      <trkpt lat="42.346229000" lon="-2.341194000">
        <ele>607.50</ele>
        <time>2013-07-27T10:37:30Z</time>
      </trkpt>
      <trkpt lat="42.346225000" lon="-2.341214000">
        <ele>607.60</ele>
        <time>2013-07-27T10:37:31Z</time>
      </trkpt>
      <trkpt lat="42.346220000" lon="-2.341229000">
        <ele>607.80</ele>
        <time>2013-07-27T10:37:32Z</time>
      </trkpt>
      <trkpt lat="42.346206000" lon="-2.341238000">
        <ele>607.90</ele>
        <time>2013-07-27T10:37:33Z</time>
      </trkpt>
      <trkpt lat="42.346196000" lon="-2.341253000">
        <ele>608.00</ele>
        <time>2013-07-27T10:37:34Z</time>
      </trkpt>
      <trkpt lat="42.346186000" lon="-2.341267000">
        <ele>608.30</ele>
        <time>2013-07-27T10:37:35Z</time>
      </trkpt>
      <trkpt lat="42.346176000" lon="-2.341281000">
        <ele>608.50</ele>
        <time>2013-07-27T10:37:36Z</time>
      </trkpt>
      <trkpt lat="42.346164000" lon="-2.341296000">
        <ele>608.70</ele>
        <time>2013-07-27T10:37:37Z</time>
      </trkpt>
      <trkpt lat="42.346153000" lon="-2.341314000">
        <ele>608.80</ele>
        <time>2013-07-27T10:37:38Z</time>
      </trkpt>
      <trkpt lat="42.346143000" lon="-2.341331000">
        <ele>609.00</ele>
        <time>2013-07-27T10:37:39Z</time>
      </trkpt>
      <trkpt lat="42.346131000" lon="-2.341346000">
        <ele>609.10</ele>
        <time>2013-07-27T10:37:40Z</time>
      </trkpt>
      <trkpt lat="42.346116000" lon="-2.341362000">
        <ele>609.30</ele>
        <time>2013-07-27T10:37:41Z</time>
      </trkpt>
      <trkpt lat="42.346106000" lon="-2.341376000">
        <ele>609.30</ele>
        <time>2013-07-27T10:37:42Z</time>
      </trkpt>
      <trkpt lat="42.346095000" lon="-2.341388000">
        <ele>609.50</ele>
        <time>2013-07-27T10:37:43Z</time>
      </trkpt>
      <trkpt lat="42.346084000" lon="-2.341406000">
        <ele>609.60</ele>
        <time>2013-07-27T10:37:44Z</time>
      </trkpt>
      <trkpt lat="42.346073000" lon="-2.341417000">
        <ele>609.70</ele>
        <time>2013-07-27T10:37:45Z</time>
      </trkpt>
      <trkpt lat="42.346062000" lon="-2.341429000">
        <ele>609.80</ele>
        <time>2013-07-27T10:37:46Z</time>
      </trkpt>
      <trkpt lat="42.346053000" lon="-2.341441000">
        <ele>609.80</ele>
        <time>2013-07-27T10:37:47Z</time>
      </trkpt>
      <trkpt lat="42.346050000" lon="-2.341458000">
        <ele>609.90</ele>
        <time>2013-07-27T10:37:48Z</time>
      </trkpt>
      <trkpt lat="42.346039000" lon="-2.341473000">
        <ele>610.10</ele>
        <time>2013-07-27T10:37:49Z</time>
      </trkpt>
      <trkpt lat="42.346033000" lon="-2.341489000">
        <ele>610.20</ele>
        <time>2013-07-27T10:37:50Z</time>
      </trkpt>
      <trkpt lat="42.346024000" lon="-2.341503000">
        <ele>610.30</ele>
        <time>2013-07-27T10:37:51Z</time>
      </trkpt>
      <trkpt lat="42.346014000" lon="-2.341514000">
        <ele>610.40</ele>
        <time>2013-07-27T10:37:52Z</time>
      </trkpt>
      <trkpt lat="42.346005000" lon="-2.341526000">
        <ele>610.40</ele>
        <time>2013-07-27T10:37:53Z</time>
      </trkpt>
      <trkpt lat="42.345996000" lon="-2.341536000">
        <ele>610.50</ele>
        <time>2013-07-27T10:37:54Z</time>
      </trkpt>
      <trkpt lat="42.345987000" lon="-2.341553000">
        <ele>610.70</ele>
        <time>2013-07-27T10:37:55Z</time>
      </trkpt>
      <trkpt lat="42.345976000" lon="-2.341570000">
        <ele>610.80</ele>
        <time>2013-07-27T10:37:56Z</time>
      </trkpt>
      <trkpt lat="42.345965000" lon="-2.341581000">
        <ele>610.90</ele>
        <time>2013-07-27T10:37:57Z</time>
      </trkpt>
      <trkpt lat="42.345953000" lon="-2.341592000">
        <ele>611.00</ele>
        <time>2013-07-27T10:37:58Z</time>
      </trkpt>
      <trkpt lat="42.345945000" lon="-2.341603000">
        <ele>611.00</ele>
        <time>2013-07-27T10:37:59Z</time>
      </trkpt>
      <trkpt lat="42.345932000" lon="-2.341614000">
        <ele>611.10</ele>
        <time>2013-07-27T10:38:00Z</time>
      </trkpt>
      <trkpt lat="42.345918000" lon="-2.341623000">
        <ele>611.20</ele>
        <time>2013-07-27T10:38:01Z</time>
      </trkpt>
      <trkpt lat="42.345904000" lon="-2.341636000">
        <ele>611.40</ele>
        <time>2013-07-27T10:38:02Z</time>
      </trkpt>
      <trkpt lat="42.345892000" lon="-2.341646000">
        <ele>611.50</ele>
        <time>2013-07-27T10:38:03Z</time>
      </trkpt>
      <trkpt lat="42.345883000" lon="-2.341659000">
        <ele>611.50</ele>
        <time>2013-07-27T10:38:04Z</time>
      </trkpt>
      <trkpt lat="42.345873000" lon="-2.341670000">
        <ele>611.60</ele>
        <time>2013-07-27T10:38:05Z</time>
      </trkpt>
      <trkpt lat="42.345858000" lon="-2.341682000">
        <ele>611.60</ele>
        <time>2013-07-27T10:38:06Z</time>
      </trkpt>
      <trkpt lat="42.345846000" lon="-2.341694000">
        <ele>611.80</ele>
        <time>2013-07-27T10:38:07Z</time>
      </trkpt>
      <trkpt lat="42.345834000" lon="-2.341704000">
        <ele>612.00</ele>
        <time>2013-07-27T10:38:08Z</time>
      </trkpt>
      <trkpt lat="42.345825000" lon="-2.341716000">
        <ele>612.10</ele>
        <time>2013-07-27T10:38:09Z</time>
      </trkpt>
      <trkpt lat="42.345814000" lon="-2.341727000">
        <ele>612.20</ele>
        <time>2013-07-27T10:38:10Z</time>
      </trkpt>
      <trkpt lat="42.345802000" lon="-2.341737000">
        <ele>612.20</ele>
        <time>2013-07-27T10:38:11Z</time>
      </trkpt>
      <trkpt lat="42.345790000" lon="-2.341749000">
        <ele>612.30</ele>
        <time>2013-07-27T10:38:12Z</time>
      </trkpt>
      <trkpt lat="42.345779000" lon="-2.341762000">
        <ele>612.30</ele>
        <time>2013-07-27T10:38:13Z</time>
      </trkpt>
      <trkpt lat="42.345768000" lon="-2.341773000">
        <ele>612.40</ele>
        <time>2013-07-27T10:38:14Z</time>
      </trkpt>
      <trkpt lat="42.345757000" lon="-2.341783000">
        <ele>612.30</ele>
        <time>2013-07-27T10:38:15Z</time>
      </trkpt>
      <trkpt lat="42.345744000" lon="-2.341797000">
        <ele>612.30</ele>
        <time>2013-07-27T10:38:16Z</time>
      </trkpt>
      <trkpt lat="42.345733000" lon="-2.341810000">
        <ele>612.30</ele>
        <time>2013-07-27T10:38:17Z</time>
      </trkpt>
      <trkpt lat="42.345719000" lon="-2.341824000">
        <ele>612.20</ele>
        <time>2013-07-27T10:38:18Z</time>
      </trkpt>
      <trkpt lat="42.345707000" lon="-2.341836000">
        <ele>612.30</ele>
        <time>2013-07-27T10:38:19Z</time>
      </trkpt>
      <trkpt lat="42.345694000" lon="-2.341849000">
        <ele>612.30</ele>
        <time>2013-07-27T10:38:20Z</time>
      </trkpt>
      <trkpt lat="42.345683000" lon="-2.341861000">
        <ele>612.40</ele>
        <time>2013-07-27T10:38:21Z</time>
      </trkpt>
      <trkpt lat="42.345673000" lon="-2.341872000">
        <ele>612.40</ele>
        <time>2013-07-27T10:38:22Z</time>
      </trkpt>
      <trkpt lat="42.345661000" lon="-2.341881000">
        <ele>612.40</ele>
        <time>2013-07-27T10:38:23Z</time>
      </trkpt>
      <trkpt lat="42.345646000" lon="-2.341891000">
        <ele>612.40</ele>
        <time>2013-07-27T10:38:24Z</time>
      </trkpt>
      <trkpt lat="42.345634000" lon="-2.341903000">
        <ele>612.40</ele>
        <time>2013-07-27T10:38:25Z</time>
      </trkpt>
      <trkpt lat="42.345619000" lon="-2.341914000">
        <ele>612.40</ele>
        <time>2013-07-27T10:38:26Z</time>
      </trkpt>
      <trkpt lat="42.345607000" lon="-2.341925000">
        <ele>612.60</ele>
        <time>2013-07-27T10:38:27Z</time>
      </trkpt>
      <trkpt lat="42.345593000" lon="-2.341937000">
        <ele>613.10</ele>
        <time>2013-07-27T10:38:28Z</time>
      </trkpt>
      <trkpt lat="42.345576000" lon="-2.341950000">
        <ele>613.40</ele>
        <time>2013-07-27T10:38:29Z</time>
      </trkpt>
      <trkpt lat="42.345561000" lon="-2.341962000">
        <ele>613.70</ele>
        <time>2013-07-27T10:38:30Z</time>
      </trkpt>
      <trkpt lat="42.345546000" lon="-2.341969000">
        <ele>613.90</ele>
        <time>2013-07-27T10:38:31Z</time>
      </trkpt>
      <trkpt lat="42.345530000" lon="-2.341982000">
        <ele>613.90</ele>
        <time>2013-07-27T10:38:32Z</time>
      </trkpt>
      <trkpt lat="42.345517000" lon="-2.341994000">
        <ele>613.90</ele>
        <time>2013-07-27T10:38:33Z</time>
      </trkpt>
      <trkpt lat="42.345503000" lon="-2.341999000">
        <ele>613.80</ele>
        <time>2013-07-27T10:38:34Z</time>
      </trkpt>
      <trkpt lat="42.345490000" lon="-2.342012000">
        <ele>613.80</ele>
        <time>2013-07-27T10:38:35Z</time>
      </trkpt>
      <trkpt lat="42.345474000" lon="-2.342021000">
        <ele>614.00</ele>
        <time>2013-07-27T10:38:36Z</time>
      </trkpt>
      <trkpt lat="42.345460000" lon="-2.342028000">
        <ele>614.20</ele>
        <time>2013-07-27T10:38:37Z</time>
      </trkpt>
      <trkpt lat="42.345444000" lon="-2.342033000">
        <ele>614.30</ele>
        <time>2013-07-27T10:38:38Z</time>
      </trkpt>
      <trkpt lat="42.345428000" lon="-2.342040000">
        <ele>614.30</ele>
        <time>2013-07-27T10:38:39Z</time>
      </trkpt>
      <trkpt lat="42.345413000" lon="-2.342045000">
        <ele>614.40</ele>
        <time>2013-07-27T10:38:40Z</time>
      </trkpt>
      <trkpt lat="42.345398000" lon="-2.342054000">
        <ele>614.40</ele>
        <time>2013-07-27T10:38:41Z</time>
      </trkpt>
      <trkpt lat="42.345383000" lon="-2.342063000">
        <ele>614.50</ele>
        <time>2013-07-27T10:38:42Z</time>
      </trkpt>
      <trkpt lat="42.345369000" lon="-2.342073000">
        <ele>614.60</ele>
        <time>2013-07-27T10:38:43Z</time>
      </trkpt>
      <trkpt lat="42.345352000" lon="-2.342082000">
        <ele>614.70</ele>
        <time>2013-07-27T10:38:44Z</time>
      </trkpt>
      <trkpt lat="42.345339000" lon="-2.342086000">
        <ele>614.80</ele>
        <time>2013-07-27T10:38:45Z</time>
      </trkpt>
      <trkpt lat="42.345323000" lon="-2.342090000">
        <ele>615.00</ele>
        <time>2013-07-27T10:38:46Z</time>
      </trkpt>
      <trkpt lat="42.345310000" lon="-2.342097000">
        <ele>615.20</ele>
        <time>2013-07-27T10:38:47Z</time>
      </trkpt>
      <trkpt lat="42.345295000" lon="-2.342107000">
        <ele>615.30</ele>
        <time>2013-07-27T10:38:48Z</time>
      </trkpt>
      <trkpt lat="42.345278000" lon="-2.342117000">
        <ele>615.40</ele>
        <time>2013-07-27T10:38:49Z</time>
      </trkpt>
      <trkpt lat="42.345262000" lon="-2.342126000">
        <ele>615.50</ele>
        <time>2013-07-27T10:38:50Z</time>
      </trkpt>
      <trkpt lat="42.345248000" lon="-2.342132000">
        <ele>615.60</ele>
        <time>2013-07-27T10:38:51Z</time>
      </trkpt>
      <trkpt lat="42.345234000" lon="-2.342135000">
        <ele>615.70</ele>
        <time>2013-07-27T10:38:52Z</time>
      </trkpt>
      <trkpt lat="42.345221000" lon="-2.342143000">
        <ele>615.70</ele>
        <time>2013-07-27T10:38:53Z</time>
      </trkpt>
      <trkpt lat="42.345210000" lon="-2.342153000">
        <ele>615.80</ele>
        <time>2013-07-27T10:38:54Z</time>
      </trkpt>
      <trkpt lat="42.345197000" lon="-2.342163000">
        <ele>615.90</ele>
        <time>2013-07-27T10:38:55Z</time>
      </trkpt>
      <trkpt lat="42.345182000" lon="-2.342174000">
        <ele>616.10</ele>
        <time>2013-07-27T10:38:56Z</time>
      </trkpt>
      <trkpt lat="42.345169000" lon="-2.342181000">
        <ele>616.30</ele>
        <time>2013-07-27T10:38:57Z</time>
      </trkpt>
      <trkpt lat="42.345154000" lon="-2.342186000">
        <ele>616.30</ele>
        <time>2013-07-27T10:38:58Z</time>
      </trkpt>
      <trkpt lat="42.345143000" lon="-2.342195000">
        <ele>616.30</ele>
        <time>2013-07-27T10:38:59Z</time>
      </trkpt>
      <trkpt lat="42.345129000" lon="-2.342205000">
        <ele>616.50</ele>
        <time>2013-07-27T10:39:00Z</time>
      </trkpt>
      <trkpt lat="42.345116000" lon="-2.342217000">
        <ele>616.60</ele>
        <time>2013-07-27T10:39:01Z</time>
      </trkpt>
      <trkpt lat="42.345102000" lon="-2.342228000">
        <ele>616.80</ele>
        <time>2013-07-27T10:39:02Z</time>
      </trkpt>
      <trkpt lat="42.345090000" lon="-2.342238000">
        <ele>617.00</ele>
        <time>2013-07-27T10:39:03Z</time>
      </trkpt>
      <trkpt lat="42.345076000" lon="-2.342248000">
        <ele>617.10</ele>
        <time>2013-07-27T10:39:04Z</time>
      </trkpt>
      <trkpt lat="42.345060000" lon="-2.342260000">
        <ele>617.20</ele>
        <time>2013-07-27T10:39:05Z</time>
      </trkpt>
      <trkpt lat="42.345046000" lon="-2.342270000">
        <ele>617.50</ele>
        <time>2013-07-27T10:39:06Z</time>
      </trkpt>
      <trkpt lat="42.345035000" lon="-2.342283000">
        <ele>617.70</ele>
        <time>2013-07-27T10:39:07Z</time>
      </trkpt>
      <trkpt lat="42.345022000" lon="-2.342295000">
        <ele>617.90</ele>
        <time>2013-07-27T10:39:08Z</time>
      </trkpt>
      <trkpt lat="42.345007000" lon="-2.342301000">
        <ele>618.10</ele>
        <time>2013-07-27T10:39:09Z</time>
      </trkpt>
      <trkpt lat="42.344991000" lon="-2.342310000">
        <ele>618.30</ele>
        <time>2013-07-27T10:39:10Z</time>
      </trkpt>
      <trkpt lat="42.344976000" lon="-2.342317000">
        <ele>618.40</ele>
        <time>2013-07-27T10:39:11Z</time>
      </trkpt>
      <trkpt lat="42.344964000" lon="-2.342328000">
        <ele>618.50</ele>
        <time>2013-07-27T10:39:12Z</time>
      </trkpt>
      <trkpt lat="42.344950000" lon="-2.342340000">
        <ele>618.60</ele>
        <time>2013-07-27T10:39:13Z</time>
      </trkpt>
      <trkpt lat="42.344937000" lon="-2.342351000">
        <ele>618.70</ele>
        <time>2013-07-27T10:39:14Z</time>
      </trkpt>
      <trkpt lat="42.344923000" lon="-2.342364000">
        <ele>618.70</ele>
        <time>2013-07-27T10:39:15Z</time>
      </trkpt>
      <trkpt lat="42.344910000" lon="-2.342374000">
        <ele>618.70</ele>
        <time>2013-07-27T10:39:16Z</time>
      </trkpt>
      <trkpt lat="42.344894000" lon="-2.342384000">
        <ele>618.80</ele>
        <time>2013-07-27T10:39:17Z</time>
      </trkpt>
      <trkpt lat="42.344885000" lon="-2.342396000">
        <ele>618.80</ele>
        <time>2013-07-27T10:39:18Z</time>
      </trkpt>
      <trkpt lat="42.344872000" lon="-2.342408000">
        <ele>618.80</ele>
        <time>2013-07-27T10:39:19Z</time>
      </trkpt>
      <trkpt lat="42.344859000" lon="-2.342420000">
        <ele>618.90</ele>
        <time>2013-07-27T10:39:20Z</time>
      </trkpt>
      <trkpt lat="42.344845000" lon="-2.342430000">
        <ele>619.00</ele>
        <time>2013-07-27T10:39:21Z</time>
      </trkpt>
      <trkpt lat="42.344830000" lon="-2.342444000">
        <ele>619.40</ele>
        <time>2013-07-27T10:39:22Z</time>
      </trkpt>
      <trkpt lat="42.344815000" lon="-2.342457000">
        <ele>619.60</ele>
        <time>2013-07-27T10:39:23Z</time>
      </trkpt>
      <trkpt lat="42.344799000" lon="-2.342467000">
        <ele>619.80</ele>
        <time>2013-07-27T10:39:24Z</time>
      </trkpt>
      <trkpt lat="42.344785000" lon="-2.342479000">
        <ele>619.90</ele>
        <time>2013-07-27T10:39:25Z</time>
      </trkpt>
      <trkpt lat="42.344771000" lon="-2.342487000">
        <ele>619.90</ele>
        <time>2013-07-27T10:39:26Z</time>
      </trkpt>
      <trkpt lat="42.344758000" lon="-2.342497000">
        <ele>619.80</ele>
        <time>2013-07-27T10:39:27Z</time>
      </trkpt>
      <trkpt lat="42.344743000" lon="-2.342501000">
        <ele>619.80</ele>
        <time>2013-07-27T10:39:28Z</time>
      </trkpt>
      <trkpt lat="42.344727000" lon="-2.342501000">
        <ele>619.70</ele>
        <time>2013-07-27T10:39:29Z</time>
      </trkpt>
      <trkpt lat="42.344711000" lon="-2.342503000">
        <ele>619.90</ele>
        <time>2013-07-27T10:39:30Z</time>
      </trkpt>
      <trkpt lat="42.344698000" lon="-2.342510000">
        <ele>620.00</ele>
        <time>2013-07-27T10:39:31Z</time>
      </trkpt>
      <trkpt lat="42.344687000" lon="-2.342518000">
        <ele>620.10</ele>
        <time>2013-07-27T10:39:32Z</time>
      </trkpt>
      <trkpt lat="42.344677000" lon="-2.342536000">
        <ele>620.30</ele>
        <time>2013-07-27T10:39:33Z</time>
      </trkpt>
      <trkpt lat="42.344663000" lon="-2.342551000">
        <ele>620.40</ele>
        <time>2013-07-27T10:39:34Z</time>
      </trkpt>
      <trkpt lat="42.344649000" lon="-2.342564000">
        <ele>620.50</ele>
        <time>2013-07-27T10:39:35Z</time>
      </trkpt>
      <trkpt lat="42.344637000" lon="-2.342577000">
        <ele>620.70</ele>
        <time>2013-07-27T10:39:36Z</time>
      </trkpt>
      <trkpt lat="42.344627000" lon="-2.342585000">
        <ele>620.90</ele>
        <time>2013-07-27T10:39:37Z</time>
      </trkpt>
      <trkpt lat="42.344613000" lon="-2.342590000">
        <ele>621.10</ele>
        <time>2013-07-27T10:39:38Z</time>
      </trkpt>
      <trkpt lat="42.344602000" lon="-2.342603000">
        <ele>621.30</ele>
        <time>2013-07-27T10:39:39Z</time>
      </trkpt>
      <trkpt lat="42.344592000" lon="-2.342617000">
        <ele>621.40</ele>
        <time>2013-07-27T10:39:40Z</time>
      </trkpt>
      <trkpt lat="42.344584000" lon="-2.342626000">
        <ele>621.40</ele>
        <time>2013-07-27T10:39:41Z</time>
      </trkpt>
      <trkpt lat="42.344574000" lon="-2.342638000">
        <ele>621.50</ele>
        <time>2013-07-27T10:39:42Z</time>
      </trkpt>
      <trkpt lat="42.344560000" lon="-2.342649000">
        <ele>621.70</ele>
        <time>2013-07-27T10:39:43Z</time>
      </trkpt>
      <trkpt lat="42.344545000" lon="-2.342661000">
        <ele>621.80</ele>
        <time>2013-07-27T10:39:44Z</time>
      </trkpt>
      <trkpt lat="42.344530000" lon="-2.342670000">
        <ele>621.90</ele>
        <time>2013-07-27T10:39:45Z</time>
      </trkpt>
      <trkpt lat="42.344519000" lon="-2.342683000">
        <ele>622.00</ele>
        <time>2013-07-27T10:39:46Z</time>
      </trkpt>
      <trkpt lat="42.344508000" lon="-2.342690000">
        <ele>622.10</ele>
        <time>2013-07-27T10:39:47Z</time>
      </trkpt>
      <trkpt lat="42.344495000" lon="-2.342698000">
        <ele>622.20</ele>
        <time>2013-07-27T10:39:48Z</time>
      </trkpt>
      <trkpt lat="42.344481000" lon="-2.342706000">
        <ele>622.30</ele>
        <time>2013-07-27T10:39:49Z</time>
      </trkpt>
      <trkpt lat="42.344469000" lon="-2.342711000">
        <ele>622.40</ele>
        <time>2013-07-27T10:39:50Z</time>
      </trkpt>
      <trkpt lat="42.344456000" lon="-2.342713000">
        <ele>622.60</ele>
        <time>2013-07-27T10:39:51Z</time>
      </trkpt>
      <trkpt lat="42.344443000" lon="-2.342723000">
        <ele>622.70</ele>
        <time>2013-07-27T10:39:52Z</time>
      </trkpt>
      <trkpt lat="42.344429000" lon="-2.342730000">
        <ele>623.00</ele>
        <time>2013-07-27T10:39:53Z</time>
      </trkpt>
      <trkpt lat="42.344416000" lon="-2.342739000">
        <ele>623.30</ele>
        <time>2013-07-27T10:39:54Z</time>
      </trkpt>
      <trkpt lat="42.344401000" lon="-2.342746000">
        <ele>623.50</ele>
        <time>2013-07-27T10:39:55Z</time>
      </trkpt>
      <trkpt lat="42.344387000" lon="-2.342753000">
        <ele>623.60</ele>
        <time>2013-07-27T10:39:56Z</time>
      </trkpt>
      <trkpt lat="42.344374000" lon="-2.342760000">
        <ele>623.80</ele>
        <time>2013-07-27T10:39:57Z</time>
      </trkpt>
      <trkpt lat="42.344358000" lon="-2.342767000">
        <ele>623.90</ele>
        <time>2013-07-27T10:39:58Z</time>
      </trkpt>
      <trkpt lat="42.344343000" lon="-2.342775000">
        <ele>624.00</ele>
        <time>2013-07-27T10:39:59Z</time>
      </trkpt>
      <trkpt lat="42.344329000" lon="-2.342781000">
        <ele>624.10</ele>
        <time>2013-07-27T10:40:00Z</time>
      </trkpt>
      <trkpt lat="42.344320000" lon="-2.342788000">
        <ele>624.20</ele>
        <time>2013-07-27T10:40:01Z</time>
      </trkpt>
      <trkpt lat="42.344308000" lon="-2.342799000">
        <ele>624.30</ele>
        <time>2013-07-27T10:40:02Z</time>
      </trkpt>
      <trkpt lat="42.344295000" lon="-2.342801000">
        <ele>624.40</ele>
        <time>2013-07-27T10:40:03Z</time>
      </trkpt>
      <trkpt lat="42.344281000" lon="-2.342800000">
        <ele>624.50</ele>
        <time>2013-07-27T10:40:04Z</time>
      </trkpt>
      <trkpt lat="42.344265000" lon="-2.342802000">
        <ele>624.50</ele>
        <time>2013-07-27T10:40:05Z</time>
      </trkpt>
      <trkpt lat="42.344254000" lon="-2.342803000">
        <ele>624.50</ele>
        <time>2013-07-27T10:40:06Z</time>
      </trkpt>
      <trkpt lat="42.344241000" lon="-2.342810000">
        <ele>624.50</ele>
        <time>2013-07-27T10:40:07Z</time>
      </trkpt>
      <trkpt lat="42.344229000" lon="-2.342819000">
        <ele>624.60</ele>
        <time>2013-07-27T10:40:08Z</time>
      </trkpt>
      <trkpt lat="42.344216000" lon="-2.342827000">
        <ele>624.90</ele>
        <time>2013-07-27T10:40:09Z</time>
      </trkpt>
      <trkpt lat="42.344202000" lon="-2.342829000">
        <ele>625.20</ele>
        <time>2013-07-27T10:40:10Z</time>
      </trkpt>
      <trkpt lat="42.344192000" lon="-2.342836000">
        <ele>625.40</ele>
        <time>2013-07-27T10:40:11Z</time>
      </trkpt>
      <trkpt lat="42.344182000" lon="-2.342844000">
        <ele>625.50</ele>
        <time>2013-07-27T10:40:12Z</time>
      </trkpt>
      <trkpt lat="42.344171000" lon="-2.342855000">
        <ele>625.50</ele>
        <time>2013-07-27T10:40:13Z</time>
      </trkpt>
      <trkpt lat="42.344160000" lon="-2.342864000">
        <ele>625.50</ele>
        <time>2013-07-27T10:40:14Z</time>
      </trkpt>
      <trkpt lat="42.344149000" lon="-2.342869000">
        <ele>625.40</ele>
        <time>2013-07-27T10:40:15Z</time>
      </trkpt>
      <trkpt lat="42.344136000" lon="-2.342874000">
        <ele>625.40</ele>
        <time>2013-07-27T10:40:16Z</time>
      </trkpt>
      <trkpt lat="42.344122000" lon="-2.342883000">
        <ele>625.60</ele>
        <time>2013-07-27T10:40:17Z</time>
      </trkpt>
      <trkpt lat="42.344110000" lon="-2.342894000">
        <ele>625.80</ele>
        <time>2013-07-27T10:40:18Z</time>
      </trkpt>
      <trkpt lat="42.344098000" lon="-2.342906000">
        <ele>625.90</ele>
        <time>2013-07-27T10:40:19Z</time>
      </trkpt>
      <trkpt lat="42.344085000" lon="-2.342915000">
        <ele>626.00</ele>
        <time>2013-07-27T10:40:20Z</time>
      </trkpt>
      <trkpt lat="42.344071000" lon="-2.342923000">
        <ele>626.00</ele>
        <time>2013-07-27T10:40:21Z</time>
      </trkpt>
      <trkpt lat="42.344057000" lon="-2.342929000">
        <ele>626.10</ele>
        <time>2013-07-27T10:40:22Z</time>
      </trkpt>
      <trkpt lat="42.344042000" lon="-2.342937000">
        <ele>626.10</ele>
        <time>2013-07-27T10:40:23Z</time>
      </trkpt>
      <trkpt lat="42.344028000" lon="-2.342944000">
        <ele>626.10</ele>
        <time>2013-07-27T10:40:24Z</time>
      </trkpt>
      <trkpt lat="42.344011000" lon="-2.342952000">
        <ele>626.20</ele>
        <time>2013-07-27T10:40:25Z</time>
      </trkpt>
      <trkpt lat="42.343998000" lon="-2.342960000">
        <ele>626.30</ele>
        <time>2013-07-27T10:40:26Z</time>
      </trkpt>
      <trkpt lat="42.343988000" lon="-2.342967000">
        <ele>626.40</ele>
        <time>2013-07-27T10:40:27Z</time>
      </trkpt>
      <trkpt lat="42.343978000" lon="-2.342973000">
        <ele>626.40</ele>
        <time>2013-07-27T10:40:28Z</time>
      </trkpt>
      <trkpt lat="42.343968000" lon="-2.342980000">
        <ele>626.80</ele>
        <time>2013-07-27T10:40:29Z</time>
      </trkpt>
      <trkpt lat="42.343957000" lon="-2.342989000">
        <ele>627.10</ele>
        <time>2013-07-27T10:40:30Z</time>
      </trkpt>
      <trkpt lat="42.343947000" lon="-2.343001000">
        <ele>627.30</ele>
        <time>2013-07-27T10:40:31Z</time>
      </trkpt>
      <trkpt lat="42.343933000" lon="-2.343011000">
        <ele>627.50</ele>
        <time>2013-07-27T10:40:32Z</time>
      </trkpt>
      <trkpt lat="42.343918000" lon="-2.343017000">
        <ele>627.60</ele>
        <time>2013-07-27T10:40:33Z</time>
      </trkpt>
      <trkpt lat="42.343905000" lon="-2.343028000">
        <ele>627.70</ele>
        <time>2013-07-27T10:40:34Z</time>
      </trkpt>
      <trkpt lat="42.343893000" lon="-2.343039000">
        <ele>627.80</ele>
        <time>2013-07-27T10:40:35Z</time>
      </trkpt>
      <trkpt lat="42.343879000" lon="-2.343048000">
        <ele>627.90</ele>
        <time>2013-07-27T10:40:36Z</time>
      </trkpt>
      <trkpt lat="42.343867000" lon="-2.343056000">
        <ele>628.10</ele>
        <time>2013-07-27T10:40:37Z</time>
      </trkpt>
      <trkpt lat="42.343857000" lon="-2.343060000">
        <ele>628.20</ele>
        <time>2013-07-27T10:40:38Z</time>
      </trkpt>
      <trkpt lat="42.343843000" lon="-2.343071000">
        <ele>628.40</ele>
        <time>2013-07-27T10:40:39Z</time>
      </trkpt>
      <trkpt lat="42.343832000" lon="-2.343078000">
        <ele>628.60</ele>
        <time>2013-07-27T10:40:40Z</time>
      </trkpt>
      <trkpt lat="42.343819000" lon="-2.343083000">
        <ele>628.80</ele>
        <time>2013-07-27T10:40:41Z</time>
      </trkpt>
      <trkpt lat="42.343807000" lon="-2.343092000">
        <ele>628.90</ele>
        <time>2013-07-27T10:40:42Z</time>
      </trkpt>
      <trkpt lat="42.343793000" lon="-2.343097000">
        <ele>629.00</ele>
        <time>2013-07-27T10:40:43Z</time>
      </trkpt>
      <trkpt lat="42.343779000" lon="-2.343106000">
        <ele>629.10</ele>
        <time>2013-07-27T10:40:44Z</time>
      </trkpt>
      <trkpt lat="42.343759000" lon="-2.343108000">
        <ele>629.30</ele>
        <time>2013-07-27T10:40:45Z</time>
      </trkpt>
      <trkpt lat="42.343742000" lon="-2.343116000">
        <ele>629.40</ele>
        <time>2013-07-27T10:40:46Z</time>
      </trkpt>
      <trkpt lat="42.343726000" lon="-2.343130000">
        <ele>629.50</ele>
        <time>2013-07-27T10:40:47Z</time>
      </trkpt>
      <trkpt lat="42.343715000" lon="-2.343140000">
        <ele>629.70</ele>
        <time>2013-07-27T10:40:48Z</time>
      </trkpt>
      <trkpt lat="42.343702000" lon="-2.343144000">
        <ele>629.80</ele>
        <time>2013-07-27T10:40:49Z</time>
      </trkpt>
      <trkpt lat="42.343691000" lon="-2.343146000">
        <ele>629.90</ele>
        <time>2013-07-27T10:40:50Z</time>
      </trkpt>
      <trkpt lat="42.343677000" lon="-2.343147000">
        <ele>629.90</ele>
        <time>2013-07-27T10:40:51Z</time>
      </trkpt>
      <trkpt lat="42.343661000" lon="-2.343153000">
        <ele>630.00</ele>
        <time>2013-07-27T10:40:52Z</time>
      </trkpt>
      <trkpt lat="42.343648000" lon="-2.343154000">
        <ele>630.00</ele>
        <time>2013-07-27T10:40:53Z</time>
      </trkpt>
      <trkpt lat="42.343633000" lon="-2.343161000">
        <ele>630.00</ele>
        <time>2013-07-27T10:40:54Z</time>
      </trkpt>
      <trkpt lat="42.343620000" lon="-2.343170000">
        <ele>629.90</ele>
        <time>2013-07-27T10:40:55Z</time>
      </trkpt>
      <trkpt lat="42.343606000" lon="-2.343172000">
        <ele>630.40</ele>
        <time>2013-07-27T10:40:56Z</time>
      </trkpt>
      <trkpt lat="42.343593000" lon="-2.343179000">
        <ele>630.70</ele>
        <time>2013-07-27T10:40:57Z</time>
      </trkpt>
      <trkpt lat="42.343579000" lon="-2.343185000">
        <ele>630.90</ele>
        <time>2013-07-27T10:40:58Z</time>
      </trkpt>
      <trkpt lat="42.343564000" lon="-2.343189000">
        <ele>631.00</ele>
        <time>2013-07-27T10:40:59Z</time>
      </trkpt>
      <trkpt lat="42.343551000" lon="-2.343197000">
        <ele>631.10</ele>
        <time>2013-07-27T10:41:00Z</time>
      </trkpt>
      <trkpt lat="42.343542000" lon="-2.343202000">
        <ele>631.20</ele>
        <time>2013-07-27T10:41:01Z</time>
      </trkpt>
      <trkpt lat="42.343530000" lon="-2.343205000">
        <ele>631.30</ele>
        <time>2013-07-27T10:41:02Z</time>
      </trkpt>
      <trkpt lat="42.343516000" lon="-2.343212000">
        <ele>631.30</ele>
        <time>2013-07-27T10:41:03Z</time>
      </trkpt>
      <trkpt lat="42.343502000" lon="-2.343212000">
        <ele>631.40</ele>
        <time>2013-07-27T10:41:04Z</time>
      </trkpt>
      <trkpt lat="42.343488000" lon="-2.343216000">
        <ele>631.50</ele>
        <time>2013-07-27T10:41:05Z</time>
      </trkpt>
      <trkpt lat="42.343473000" lon="-2.343217000">
        <ele>631.60</ele>
        <time>2013-07-27T10:41:06Z</time>
      </trkpt>
      <trkpt lat="42.343457000" lon="-2.343222000">
        <ele>631.70</ele>
        <time>2013-07-27T10:41:07Z</time>
      </trkpt>
      <trkpt lat="42.343445000" lon="-2.343226000">
        <ele>631.80</ele>
        <time>2013-07-27T10:41:08Z</time>
      </trkpt>
      <trkpt lat="42.343433000" lon="-2.343225000">
        <ele>631.90</ele>
        <time>2013-07-27T10:41:09Z</time>
      </trkpt>
      <trkpt lat="42.343420000" lon="-2.343229000">
        <ele>632.10</ele>
        <time>2013-07-27T10:41:10Z</time>
      </trkpt>
      <trkpt lat="42.343407000" lon="-2.343231000">
        <ele>632.20</ele>
        <time>2013-07-27T10:41:11Z</time>
      </trkpt>
      <trkpt lat="42.343395000" lon="-2.343237000">
        <ele>632.30</ele>
        <time>2013-07-27T10:41:12Z</time>
      </trkpt>
      <trkpt lat="42.343382000" lon="-2.343243000">
        <ele>632.30</ele>
        <time>2013-07-27T10:41:13Z</time>
      </trkpt>
      <trkpt lat="42.343371000" lon="-2.343241000">
        <ele>632.40</ele>
        <time>2013-07-27T10:41:14Z</time>
      </trkpt>
      <trkpt lat="42.343360000" lon="-2.343241000">
        <ele>632.40</ele>
        <time>2013-07-27T10:41:15Z</time>
      </trkpt>
      <trkpt lat="42.343348000" lon="-2.343246000">
        <ele>632.70</ele>
        <time>2013-07-27T10:41:16Z</time>
      </trkpt>
      <trkpt lat="42.343336000" lon="-2.343252000">
        <ele>632.90</ele>
        <time>2013-07-27T10:41:17Z</time>
      </trkpt>
      <trkpt lat="42.343320000" lon="-2.343253000">
        <ele>633.20</ele>
        <time>2013-07-27T10:41:18Z</time>
      </trkpt>
      <trkpt lat="42.343306000" lon="-2.343255000">
        <ele>633.40</ele>
        <time>2013-07-27T10:41:19Z</time>
      </trkpt>
      <trkpt lat="42.343293000" lon="-2.343261000">
        <ele>633.60</ele>
        <time>2013-07-27T10:41:20Z</time>
      </trkpt>
      <trkpt lat="42.343281000" lon="-2.343272000">
        <ele>633.70</ele>
        <time>2013-07-27T10:41:21Z</time>
      </trkpt>
      <trkpt lat="42.343263000" lon="-2.343278000">
        <ele>633.90</ele>
        <time>2013-07-27T10:41:22Z</time>
      </trkpt>
      <trkpt lat="42.343250000" lon="-2.343280000">
        <ele>634.00</ele>
        <time>2013-07-27T10:41:23Z</time>
      </trkpt>
      <trkpt lat="42.343236000" lon="-2.343283000">
        <ele>634.10</ele>
        <time>2013-07-27T10:41:24Z</time>
      </trkpt>
      <trkpt lat="42.343222000" lon="-2.343290000">
        <ele>634.20</ele>
        <time>2013-07-27T10:41:25Z</time>
      </trkpt>
      <trkpt lat="42.343206000" lon="-2.343296000">
        <ele>634.20</ele>
        <time>2013-07-27T10:41:26Z</time>
      </trkpt>
      <trkpt lat="42.343191000" lon="-2.343303000">
        <ele>634.30</ele>
        <time>2013-07-27T10:41:27Z</time>
      </trkpt>
      <trkpt lat="42.343177000" lon="-2.343308000">
        <ele>634.30</ele>
        <time>2013-07-27T10:41:28Z</time>
      </trkpt>
      <trkpt lat="42.343165000" lon="-2.343314000">
        <ele>634.30</ele>
        <time>2013-07-27T10:41:29Z</time>
      </trkpt>
      <trkpt lat="42.343153000" lon="-2.343318000">
        <ele>634.40</ele>
        <time>2013-07-27T10:41:30Z</time>
      </trkpt>
      <trkpt lat="42.343139000" lon="-2.343329000">
        <ele>634.50</ele>
        <time>2013-07-27T10:41:31Z</time>
      </trkpt>
      <trkpt lat="42.343126000" lon="-2.343339000">
        <ele>634.50</ele>
        <time>2013-07-27T10:41:32Z</time>
      </trkpt>
      <trkpt lat="42.343114000" lon="-2.343347000">
        <ele>634.60</ele>
        <time>2013-07-27T10:41:33Z</time>
      </trkpt>
      <trkpt lat="42.343102000" lon="-2.343354000">
        <ele>634.70</ele>
        <time>2013-07-27T10:41:34Z</time>
      </trkpt>
      <trkpt lat="42.343091000" lon="-2.343364000">
        <ele>634.90</ele>
        <time>2013-07-27T10:41:35Z</time>
      </trkpt>
      <trkpt lat="42.343081000" lon="-2.343372000">
        <ele>635.00</ele>
        <time>2013-07-27T10:41:36Z</time>
      </trkpt>
      <trkpt lat="42.343069000" lon="-2.343375000">
        <ele>635.20</ele>
        <time>2013-07-27T10:41:37Z</time>
      </trkpt>
      <trkpt lat="42.343057000" lon="-2.343380000">
        <ele>635.30</ele>
        <time>2013-07-27T10:41:38Z</time>
      </trkpt>
      <trkpt lat="42.343045000" lon="-2.343391000">
        <ele>635.40</ele>
        <time>2013-07-27T10:41:39Z</time>
      </trkpt>
      <trkpt lat="42.343033000" lon="-2.343402000">
        <ele>635.50</ele>
        <time>2013-07-27T10:41:40Z</time>
      </trkpt>
      <trkpt lat="42.343020000" lon="-2.343410000">
        <ele>635.60</ele>
        <time>2013-07-27T10:41:41Z</time>
      </trkpt>
      <trkpt lat="42.343006000" lon="-2.343416000">
        <ele>635.60</ele>
        <time>2013-07-27T10:41:42Z</time>
      </trkpt>
      <trkpt lat="42.342996000" lon="-2.343429000">
        <ele>635.80</ele>
        <time>2013-07-27T10:41:43Z</time>
      </trkpt>
      <trkpt lat="42.342982000" lon="-2.343444000">
        <ele>635.90</ele>
        <time>2013-07-27T10:41:44Z</time>
      </trkpt>
      <trkpt lat="42.342973000" lon="-2.343453000">
        <ele>636.00</ele>
        <time>2013-07-27T10:41:45Z</time>
      </trkpt>
      <trkpt lat="42.342960000" lon="-2.343463000">
        <ele>636.00</ele>
        <time>2013-07-27T10:41:46Z</time>
      </trkpt>
      <trkpt lat="42.342953000" lon="-2.343476000">
        <ele>636.20</ele>
        <time>2013-07-27T10:41:47Z</time>
      </trkpt>
      <trkpt lat="42.342942000" lon="-2.343489000">
        <ele>636.40</ele>
        <time>2013-07-27T10:41:48Z</time>
      </trkpt>
      <trkpt lat="42.342929000" lon="-2.343500000">
        <ele>636.50</ele>
        <time>2013-07-27T10:41:49Z</time>
      </trkpt>
      <trkpt lat="42.342918000" lon="-2.343509000">
        <ele>636.60</ele>
        <time>2013-07-27T10:41:50Z</time>
      </trkpt>
      <trkpt lat="42.342908000" lon="-2.343518000">
        <ele>636.70</ele>
        <time>2013-07-27T10:41:51Z</time>
      </trkpt>
      <trkpt lat="42.342895000" lon="-2.343530000">
        <ele>636.80</ele>
        <time>2013-07-27T10:41:52Z</time>
      </trkpt>
      <trkpt lat="42.342884000" lon="-2.343546000">
        <ele>636.90</ele>
        <time>2013-07-27T10:41:53Z</time>
      </trkpt>
      <trkpt lat="42.342876000" lon="-2.343559000">
        <ele>636.90</ele>
        <time>2013-07-27T10:41:54Z</time>
      </trkpt>
      <trkpt lat="42.342863000" lon="-2.343569000">
        <ele>637.30</ele>
        <time>2013-07-27T10:41:55Z</time>
      </trkpt>
      <trkpt lat="42.342851000" lon="-2.343580000">
        <ele>637.50</ele>
        <time>2013-07-27T10:41:56Z</time>
      </trkpt>
      <trkpt lat="42.342837000" lon="-2.343599000">
        <ele>637.70</ele>
        <time>2013-07-27T10:41:57Z</time>
      </trkpt>
      <trkpt lat="42.342825000" lon="-2.343606000">
        <ele>637.80</ele>
        <time>2013-07-27T10:41:58Z</time>
      </trkpt>
      <trkpt lat="42.342811000" lon="-2.343613000">
        <ele>637.90</ele>
        <time>2013-07-27T10:41:59Z</time>
      </trkpt>
      <trkpt lat="42.342799000" lon="-2.343620000">
        <ele>638.00</ele>
        <time>2013-07-27T10:42:00Z</time>
      </trkpt>
      <trkpt lat="42.342787000" lon="-2.343628000">
        <ele>637.90</ele>
        <time>2013-07-27T10:42:01Z</time>
      </trkpt>
      <trkpt lat="42.342774000" lon="-2.343636000">
        <ele>637.80</ele>
        <time>2013-07-27T10:42:02Z</time>
      </trkpt>
      <trkpt lat="42.342763000" lon="-2.343652000">
        <ele>637.90</ele>
        <time>2013-07-27T10:42:03Z</time>
      </trkpt>
      <trkpt lat="42.342750000" lon="-2.343664000">
        <ele>638.00</ele>
        <time>2013-07-27T10:42:04Z</time>
      </trkpt>
      <trkpt lat="42.342737000" lon="-2.343672000">
        <ele>638.10</ele>
        <time>2013-07-27T10:42:05Z</time>
      </trkpt>
      <trkpt lat="42.342724000" lon="-2.343679000">
        <ele>638.20</ele>
        <time>2013-07-27T10:42:06Z</time>
      </trkpt>
      <trkpt lat="42.342713000" lon="-2.343688000">
        <ele>638.50</ele>
        <time>2013-07-27T10:42:07Z</time>
      </trkpt>
      <trkpt lat="42.342698000" lon="-2.343697000">
        <ele>638.60</ele>
        <time>2013-07-27T10:42:08Z</time>
      </trkpt>
      <trkpt lat="42.342684000" lon="-2.343702000">
        <ele>638.80</ele>
        <time>2013-07-27T10:42:09Z</time>
      </trkpt>
      <trkpt lat="42.342671000" lon="-2.343711000">
        <ele>638.90</ele>
        <time>2013-07-27T10:42:10Z</time>
      </trkpt>
      <trkpt lat="42.342658000" lon="-2.343721000">
        <ele>639.00</ele>
        <time>2013-07-27T10:42:11Z</time>
      </trkpt>
      <trkpt lat="42.342646000" lon="-2.343727000">
        <ele>639.00</ele>
        <time>2013-07-27T10:42:12Z</time>
      </trkpt>
      <trkpt lat="42.342632000" lon="-2.343736000">
        <ele>639.10</ele>
        <time>2013-07-27T10:42:13Z</time>
      </trkpt>
      <trkpt lat="42.342615000" lon="-2.343748000">
        <ele>639.10</ele>
        <time>2013-07-27T10:42:14Z</time>
      </trkpt>
      <trkpt lat="42.342604000" lon="-2.343755000">
        <ele>639.20</ele>
        <time>2013-07-27T10:42:15Z</time>
      </trkpt>
      <trkpt lat="42.342592000" lon="-2.343762000">
        <ele>639.40</ele>
        <time>2013-07-27T10:42:16Z</time>
      </trkpt>
      <trkpt lat="42.342580000" lon="-2.343771000">
        <ele>639.50</ele>
        <time>2013-07-27T10:42:17Z</time>
      </trkpt>
      <trkpt lat="42.342567000" lon="-2.343783000">
        <ele>639.50</ele>
        <time>2013-07-27T10:42:18Z</time>
      </trkpt>
      <trkpt lat="42.342554000" lon="-2.343793000">
        <ele>639.80</ele>
        <time>2013-07-27T10:42:19Z</time>
      </trkpt>
      <trkpt lat="42.342542000" lon="-2.343800000">
        <ele>640.00</ele>
        <time>2013-07-27T10:42:20Z</time>
      </trkpt>
      <trkpt lat="42.342531000" lon="-2.343808000">
        <ele>640.20</ele>
        <time>2013-07-27T10:42:21Z</time>
      </trkpt>
      <trkpt lat="42.342519000" lon="-2.343818000">
        <ele>640.30</ele>
        <time>2013-07-27T10:42:22Z</time>
      </trkpt>
      <trkpt lat="42.342506000" lon="-2.343822000">
        <ele>640.40</ele>
        <time>2013-07-27T10:42:23Z</time>
      </trkpt>
      <trkpt lat="42.342496000" lon="-2.343829000">
        <ele>640.50</ele>
        <time>2013-07-27T10:42:24Z</time>
      </trkpt>
      <trkpt lat="42.342483000" lon="-2.343838000">
        <ele>640.60</ele>
        <time>2013-07-27T10:42:25Z</time>
      </trkpt>
      <trkpt lat="42.342471000" lon="-2.343848000">
        <ele>640.60</ele>
        <time>2013-07-27T10:42:26Z</time>
      </trkpt>
      <trkpt lat="42.342458000" lon="-2.343859000">
        <ele>640.80</ele>
        <time>2013-07-27T10:42:27Z</time>
      </trkpt>
      <trkpt lat="42.342445000" lon="-2.343865000">
        <ele>640.90</ele>
        <time>2013-07-27T10:42:28Z</time>
      </trkpt>
      <trkpt lat="42.342434000" lon="-2.343878000">
        <ele>641.20</ele>
        <time>2013-07-27T10:42:29Z</time>
      </trkpt>
      <trkpt lat="42.342423000" lon="-2.343893000">
        <ele>641.50</ele>
        <time>2013-07-27T10:42:30Z</time>
      </trkpt>
      <trkpt lat="42.342411000" lon="-2.343899000">
        <ele>641.60</ele>
        <time>2013-07-27T10:42:31Z</time>
      </trkpt>
      <trkpt lat="42.342399000" lon="-2.343906000">
        <ele>641.80</ele>
        <time>2013-07-27T10:42:32Z</time>
      </trkpt>
      <trkpt lat="42.342390000" lon="-2.343916000">
        <ele>642.00</ele>
        <time>2013-07-27T10:42:33Z</time>
      </trkpt>
      <trkpt lat="42.342378000" lon="-2.343925000">
        <ele>642.20</ele>
        <time>2013-07-27T10:42:34Z</time>
      </trkpt>
      <trkpt lat="42.342366000" lon="-2.343933000">
        <ele>642.40</ele>
        <time>2013-07-27T10:42:35Z</time>
      </trkpt>
      <trkpt lat="42.342354000" lon="-2.343940000">
        <ele>642.50</ele>
        <time>2013-07-27T10:42:36Z</time>
      </trkpt>
      <trkpt lat="42.342343000" lon="-2.343951000">
        <ele>642.60</ele>
        <time>2013-07-27T10:42:37Z</time>
      </trkpt>
      <trkpt lat="42.342331000" lon="-2.343957000">
        <ele>642.70</ele>
        <time>2013-07-27T10:42:38Z</time>
      </trkpt>
      <trkpt lat="42.342318000" lon="-2.343964000">
        <ele>642.80</ele>
        <time>2013-07-27T10:42:39Z</time>
      </trkpt>
      <trkpt lat="42.342304000" lon="-2.343978000">
        <ele>643.00</ele>
        <time>2013-07-27T10:42:40Z</time>
      </trkpt>
      <trkpt lat="42.342292000" lon="-2.343985000">
        <ele>643.20</ele>
        <time>2013-07-27T10:42:41Z</time>
      </trkpt>
      <trkpt lat="42.342278000" lon="-2.343993000">
        <ele>643.30</ele>
        <time>2013-07-27T10:42:42Z</time>
      </trkpt>
      <trkpt lat="42.342264000" lon="-2.344000000">
        <ele>643.40</ele>
        <time>2013-07-27T10:42:43Z</time>
      </trkpt>
      <trkpt lat="42.342251000" lon="-2.344012000">
        <ele>643.60</ele>
        <time>2013-07-27T10:42:44Z</time>
      </trkpt>
      <trkpt lat="42.342238000" lon="-2.344024000">
        <ele>643.70</ele>
        <time>2013-07-27T10:42:45Z</time>
      </trkpt>
      <trkpt lat="42.342226000" lon="-2.344032000">
        <ele>643.80</ele>
        <time>2013-07-27T10:42:46Z</time>
      </trkpt>
      <trkpt lat="42.342212000" lon="-2.344040000">
        <ele>643.80</ele>
        <time>2013-07-27T10:42:47Z</time>
      </trkpt>
      <trkpt lat="42.342198000" lon="-2.344051000">
        <ele>644.00</ele>
        <time>2013-07-27T10:42:48Z</time>
      </trkpt>
      <trkpt lat="42.342183000" lon="-2.344061000">
        <ele>644.10</ele>
        <time>2013-07-27T10:42:49Z</time>
      </trkpt>
      <trkpt lat="42.342168000" lon="-2.344066000">
        <ele>644.40</ele>
        <time>2013-07-27T10:42:50Z</time>
      </trkpt>
      <trkpt lat="42.342152000" lon="-2.344076000">
        <ele>644.70</ele>
        <time>2013-07-27T10:42:51Z</time>
      </trkpt>
      <trkpt lat="42.342138000" lon="-2.344086000">
        <ele>644.80</ele>
        <time>2013-07-27T10:42:52Z</time>
      </trkpt>
      <trkpt lat="42.342123000" lon="-2.344096000">
        <ele>645.10</ele>
        <time>2013-07-27T10:42:53Z</time>
      </trkpt>
      <trkpt lat="42.342110000" lon="-2.344106000">
        <ele>645.30</ele>
        <time>2013-07-27T10:42:54Z</time>
      </trkpt>
      <trkpt lat="42.342096000" lon="-2.344112000">
        <ele>645.30</ele>
        <time>2013-07-27T10:42:55Z</time>
      </trkpt>
      <trkpt lat="42.342086000" lon="-2.344119000">
        <ele>645.30</ele>
        <time>2013-07-27T10:42:56Z</time>
      </trkpt>
      <trkpt lat="42.342074000" lon="-2.344126000">
        <ele>645.50</ele>
        <time>2013-07-27T10:42:57Z</time>
      </trkpt>
      <trkpt lat="42.342060000" lon="-2.344133000">
        <ele>645.70</ele>
        <time>2013-07-27T10:42:58Z</time>
      </trkpt>
      <trkpt lat="42.342047000" lon="-2.344142000">
        <ele>645.60</ele>
        <time>2013-07-27T10:42:59Z</time>
      </trkpt>
      <trkpt lat="42.342036000" lon="-2.344152000">
        <ele>645.60</ele>
        <time>2013-07-27T10:43:00Z</time>
      </trkpt>
      <trkpt lat="42.342025000" lon="-2.344162000">
        <ele>645.80</ele>
        <time>2013-07-27T10:43:01Z</time>
      </trkpt>
      <trkpt lat="42.342009000" lon="-2.344168000">
        <ele>646.00</ele>
        <time>2013-07-27T10:43:02Z</time>
      </trkpt>
      <trkpt lat="42.341996000" lon="-2.344172000">
        <ele>646.10</ele>
        <time>2013-07-27T10:43:03Z</time>
      </trkpt>
      <trkpt lat="42.341984000" lon="-2.344181000">
        <ele>646.20</ele>
        <time>2013-07-27T10:43:04Z</time>
      </trkpt>
      <trkpt lat="42.341971000" lon="-2.344187000">
        <ele>646.30</ele>
        <time>2013-07-27T10:43:05Z</time>
      </trkpt>
      <trkpt lat="42.341961000" lon="-2.344196000">
        <ele>646.40</ele>
        <time>2013-07-27T10:43:06Z</time>
      </trkpt>
      <trkpt lat="42.341950000" lon="-2.344203000">
        <ele>646.70</ele>
        <time>2013-07-27T10:43:07Z</time>
      </trkpt>
      <trkpt lat="42.341938000" lon="-2.344212000">
        <ele>646.80</ele>
        <time>2013-07-27T10:43:08Z</time>
      </trkpt>
      <trkpt lat="42.341926000" lon="-2.344220000">
        <ele>646.90</ele>
        <time>2013-07-27T10:43:09Z</time>
      </trkpt>
      <trkpt lat="42.341913000" lon="-2.344224000">
        <ele>647.00</ele>
        <time>2013-07-27T10:43:10Z</time>
      </trkpt>
      <trkpt lat="42.341903000" lon="-2.344233000">
        <ele>647.20</ele>
        <time>2013-07-27T10:43:11Z</time>
      </trkpt>
      <trkpt lat="42.341894000" lon="-2.344245000">
        <ele>647.30</ele>
        <time>2013-07-27T10:43:12Z</time>
      </trkpt>
      <trkpt lat="42.341880000" lon="-2.344252000">
        <ele>647.40</ele>
        <time>2013-07-27T10:43:13Z</time>
      </trkpt>
      <trkpt lat="42.341870000" lon="-2.344258000">
        <ele>647.50</ele>
        <time>2013-07-27T10:43:14Z</time>
      </trkpt>
      <trkpt lat="42.341857000" lon="-2.344268000">
        <ele>647.60</ele>
        <time>2013-07-27T10:43:15Z</time>
      </trkpt>
      <trkpt lat="42.341844000" lon="-2.344274000">
        <ele>647.60</ele>
        <time>2013-07-27T10:43:16Z</time>
      </trkpt>
      <trkpt lat="42.341832000" lon="-2.344286000">
        <ele>647.70</ele>
        <time>2013-07-27T10:43:17Z</time>
      </trkpt>
      <trkpt lat="42.341821000" lon="-2.344293000">
        <ele>647.70</ele>
        <time>2013-07-27T10:43:18Z</time>
      </trkpt>
      <trkpt lat="42.341810000" lon="-2.344304000">
        <ele>647.90</ele>
        <time>2013-07-27T10:43:19Z</time>
      </trkpt>
      <trkpt lat="42.341796000" lon="-2.344313000">
        <ele>648.00</ele>
        <time>2013-07-27T10:43:20Z</time>
      </trkpt>
      <trkpt lat="42.341784000" lon="-2.344318000">
        <ele>648.10</ele>
        <time>2013-07-27T10:43:21Z</time>
      </trkpt>
      <trkpt lat="42.341770000" lon="-2.344318000">
        <ele>648.20</ele>
        <time>2013-07-27T10:43:22Z</time>
      </trkpt>
      <trkpt lat="42.341758000" lon="-2.344322000">
        <ele>648.20</ele>
        <time>2013-07-27T10:43:23Z</time>
      </trkpt>
      <trkpt lat="42.341744000" lon="-2.344325000">
        <ele>648.20</ele>
        <time>2013-07-27T10:43:24Z</time>
      </trkpt>
      <trkpt lat="42.341730000" lon="-2.344334000">
        <ele>648.20</ele>
        <time>2013-07-27T10:43:25Z</time>
      </trkpt>
      <trkpt lat="42.341720000" lon="-2.344344000">
        <ele>648.20</ele>
        <time>2013-07-27T10:43:26Z</time>
      </trkpt>
      <trkpt lat="42.341710000" lon="-2.344359000">
        <ele>648.20</ele>
        <time>2013-07-27T10:43:27Z</time>
      </trkpt>
      <trkpt lat="42.341697000" lon="-2.344366000">
        <ele>648.10</ele>
        <time>2013-07-27T10:43:28Z</time>
      </trkpt>
      <trkpt lat="42.341684000" lon="-2.344372000">
        <ele>648.30</ele>
        <time>2013-07-27T10:43:29Z</time>
      </trkpt>
      <trkpt lat="42.341671000" lon="-2.344380000">
        <ele>648.50</ele>
        <time>2013-07-27T10:43:30Z</time>
      </trkpt>
      <trkpt lat="42.341659000" lon="-2.344386000">
        <ele>648.80</ele>
        <time>2013-07-27T10:43:31Z</time>
      </trkpt>
      <trkpt lat="42.341647000" lon="-2.344391000">
        <ele>649.00</ele>
        <time>2013-07-27T10:43:32Z</time>
      </trkpt>
      <trkpt lat="42.341636000" lon="-2.344399000">
        <ele>649.20</ele>
        <time>2013-07-27T10:43:33Z</time>
      </trkpt>
      <trkpt lat="42.341621000" lon="-2.344405000">
        <ele>649.40</ele>
        <time>2013-07-27T10:43:34Z</time>
      </trkpt>
      <trkpt lat="42.341610000" lon="-2.344411000">
        <ele>649.50</ele>
        <time>2013-07-27T10:43:35Z</time>
      </trkpt>
      <trkpt lat="42.341600000" lon="-2.344414000">
        <ele>649.50</ele>
        <time>2013-07-27T10:43:36Z</time>
      </trkpt>
      <trkpt lat="42.341586000" lon="-2.344423000">
        <ele>649.60</ele>
        <time>2013-07-27T10:43:37Z</time>
      </trkpt>
      <trkpt lat="42.341576000" lon="-2.344433000">
        <ele>649.70</ele>
        <time>2013-07-27T10:43:38Z</time>
      </trkpt>
      <trkpt lat="42.341564000" lon="-2.344438000">
        <ele>649.90</ele>
        <time>2013-07-27T10:43:39Z</time>
      </trkpt>
      <trkpt lat="42.341557000" lon="-2.344449000">
        <ele>650.00</ele>
        <time>2013-07-27T10:43:40Z</time>
      </trkpt>
      <trkpt lat="42.341545000" lon="-2.344457000">
        <ele>650.10</ele>
        <time>2013-07-27T10:43:41Z</time>
      </trkpt>
      <trkpt lat="42.341532000" lon="-2.344460000">
        <ele>650.10</ele>
        <time>2013-07-27T10:43:42Z</time>
      </trkpt>
      <trkpt lat="42.341518000" lon="-2.344466000">
        <ele>650.20</ele>
        <time>2013-07-27T10:43:43Z</time>
      </trkpt>
      <trkpt lat="42.341504000" lon="-2.344471000">
        <ele>650.20</ele>
        <time>2013-07-27T10:43:44Z</time>
      </trkpt>
      <trkpt lat="42.341490000" lon="-2.344476000">
        <ele>650.20</ele>
        <time>2013-07-27T10:43:45Z</time>
      </trkpt>
      <trkpt lat="42.341480000" lon="-2.344480000">
        <ele>650.30</ele>
        <time>2013-07-27T10:43:46Z</time>
      </trkpt>
      <trkpt lat="42.341469000" lon="-2.344487000">
        <ele>650.40</ele>
        <time>2013-07-27T10:43:47Z</time>
      </trkpt>
      <trkpt lat="42.341457000" lon="-2.344490000">
        <ele>650.50</ele>
        <time>2013-07-27T10:43:48Z</time>
      </trkpt>
      <trkpt lat="42.341446000" lon="-2.344493000">
        <ele>650.70</ele>
        <time>2013-07-27T10:43:49Z</time>
      </trkpt>
      <trkpt lat="42.341431000" lon="-2.344496000">
        <ele>650.90</ele>
        <time>2013-07-27T10:43:50Z</time>
      </trkpt>
      <trkpt lat="42.341422000" lon="-2.344503000">
        <ele>651.20</ele>
        <time>2013-07-27T10:43:51Z</time>
      </trkpt>
      <trkpt lat="42.341410000" lon="-2.344510000">
        <ele>651.30</ele>
        <time>2013-07-27T10:43:52Z</time>
      </trkpt>
      <trkpt lat="42.341397000" lon="-2.344516000">
        <ele>651.60</ele>
        <time>2013-07-27T10:43:53Z</time>
      </trkpt>
      <trkpt lat="42.341383000" lon="-2.344522000">
        <ele>651.70</ele>
        <time>2013-07-27T10:43:54Z</time>
      </trkpt>
      <trkpt lat="42.341368000" lon="-2.344521000">
        <ele>651.90</ele>
        <time>2013-07-27T10:43:55Z</time>
      </trkpt>
      <trkpt lat="42.341353000" lon="-2.344527000">
        <ele>652.00</ele>
        <time>2013-07-27T10:43:56Z</time>
      </trkpt>
      <trkpt lat="42.341342000" lon="-2.344532000">
        <ele>652.30</ele>
        <time>2013-07-27T10:43:57Z</time>
      </trkpt>
      <trkpt lat="42.341331000" lon="-2.344535000">
        <ele>652.50</ele>
        <time>2013-07-27T10:43:58Z</time>
      </trkpt>
      <trkpt lat="42.341318000" lon="-2.344542000">
        <ele>652.70</ele>
        <time>2013-07-27T10:43:59Z</time>
      </trkpt>
      <trkpt lat="42.341305000" lon="-2.344543000">
        <ele>652.80</ele>
        <time>2013-07-27T10:44:00Z</time>
      </trkpt>
      <trkpt lat="42.341293000" lon="-2.344544000">
        <ele>652.90</ele>
        <time>2013-07-27T10:44:01Z</time>
      </trkpt>
      <trkpt lat="42.341281000" lon="-2.344551000">
        <ele>653.00</ele>
        <time>2013-07-27T10:44:02Z</time>
      </trkpt>
      <trkpt lat="42.341268000" lon="-2.344555000">
        <ele>653.00</ele>
        <time>2013-07-27T10:44:03Z</time>
      </trkpt>
      <trkpt lat="42.341258000" lon="-2.344561000">
        <ele>653.10</ele>
        <time>2013-07-27T10:44:04Z</time>
      </trkpt>
      <trkpt lat="42.341246000" lon="-2.344564000">
        <ele>653.10</ele>
        <time>2013-07-27T10:44:05Z</time>
      </trkpt>
      <trkpt lat="42.341234000" lon="-2.344568000">
        <ele>653.10</ele>
        <time>2013-07-27T10:44:06Z</time>
      </trkpt>
      <trkpt lat="42.341223000" lon="-2.344573000">
        <ele>653.30</ele>
        <time>2013-07-27T10:44:07Z</time>
      </trkpt>
      <trkpt lat="42.341211000" lon="-2.344579000">
        <ele>653.50</ele>
        <time>2013-07-27T10:44:08Z</time>
      </trkpt>
      <trkpt lat="42.341199000" lon="-2.344585000">
        <ele>653.70</ele>
        <time>2013-07-27T10:44:09Z</time>
      </trkpt>
      <trkpt lat="42.341188000" lon="-2.344587000">
        <ele>653.80</ele>
        <time>2013-07-27T10:44:10Z</time>
      </trkpt>
      <trkpt lat="42.341177000" lon="-2.344587000">
        <ele>654.10</ele>
        <time>2013-07-27T10:44:11Z</time>
      </trkpt>
      <trkpt lat="42.341164000" lon="-2.344591000">
        <ele>654.20</ele>
        <time>2013-07-27T10:44:12Z</time>
      </trkpt>
      <trkpt lat="42.341148000" lon="-2.344589000">
        <ele>654.40</ele>
        <time>2013-07-27T10:44:13Z</time>
      </trkpt>
      <trkpt lat="42.341134000" lon="-2.344583000">
        <ele>654.50</ele>
        <time>2013-07-27T10:44:14Z</time>
      </trkpt>
      <trkpt lat="42.341119000" lon="-2.344585000">
        <ele>654.70</ele>
        <time>2013-07-27T10:44:15Z</time>
      </trkpt>
      <trkpt lat="42.341107000" lon="-2.344592000">
        <ele>654.80</ele>
        <time>2013-07-27T10:44:16Z</time>
      </trkpt>
      <trkpt lat="42.341096000" lon="-2.344594000">
        <ele>654.80</ele>
        <time>2013-07-27T10:44:17Z</time>
      </trkpt>
      <trkpt lat="42.341084000" lon="-2.344596000">
        <ele>654.70</ele>
        <time>2013-07-27T10:44:18Z</time>
      </trkpt>
      <trkpt lat="42.341074000" lon="-2.344598000">
        <ele>654.80</ele>
        <time>2013-07-27T10:44:19Z</time>
      </trkpt>
      <trkpt lat="42.341062000" lon="-2.344602000">
        <ele>654.90</ele>
        <time>2013-07-27T10:44:20Z</time>
      </trkpt>
      <trkpt lat="42.341053000" lon="-2.344606000">
        <ele>654.90</ele>
        <time>2013-07-27T10:44:21Z</time>
      </trkpt>
      <trkpt lat="42.341041000" lon="-2.344609000">
        <ele>655.00</ele>
        <time>2013-07-27T10:44:22Z</time>
      </trkpt>
      <trkpt lat="42.341028000" lon="-2.344610000">
        <ele>655.20</ele>
        <time>2013-07-27T10:44:23Z</time>
      </trkpt>
      <trkpt lat="42.341017000" lon="-2.344609000">
        <ele>655.30</ele>
        <time>2013-07-27T10:44:24Z</time>
      </trkpt>
      <trkpt lat="42.341005000" lon="-2.344614000">
        <ele>655.70</ele>
        <time>2013-07-27T10:44:25Z</time>
      </trkpt>
      <trkpt lat="42.340995000" lon="-2.344619000">
        <ele>656.00</ele>
        <time>2013-07-27T10:44:26Z</time>
      </trkpt>
      <trkpt lat="42.340982000" lon="-2.344623000">
        <ele>656.30</ele>
        <time>2013-07-27T10:44:27Z</time>
      </trkpt>
      <trkpt lat="42.340970000" lon="-2.344625000">
        <ele>656.50</ele>
        <time>2013-07-27T10:44:28Z</time>
      </trkpt>
      <trkpt lat="42.340956000" lon="-2.344631000">
        <ele>656.70</ele>
        <time>2013-07-27T10:44:29Z</time>
      </trkpt>
      <trkpt lat="42.340942000" lon="-2.344634000">
        <ele>656.80</ele>
        <time>2013-07-27T10:44:30Z</time>
      </trkpt>
      <trkpt lat="42.340930000" lon="-2.344639000">
        <ele>656.90</ele>
        <time>2013-07-27T10:44:31Z</time>
      </trkpt>
      <trkpt lat="42.340918000" lon="-2.344641000">
        <ele>657.00</ele>
        <time>2013-07-27T10:44:32Z</time>
      </trkpt>
      <trkpt lat="42.340906000" lon="-2.344642000">
        <ele>657.10</ele>
        <time>2013-07-27T10:44:33Z</time>
      </trkpt>
      <trkpt lat="42.340893000" lon="-2.344642000">
        <ele>657.10</ele>
        <time>2013-07-27T10:44:34Z</time>
      </trkpt>
      <trkpt lat="42.340878000" lon="-2.344650000">
        <ele>657.20</ele>
        <time>2013-07-27T10:44:35Z</time>
      </trkpt>
      <trkpt lat="42.340864000" lon="-2.344652000">
        <ele>657.20</ele>
        <time>2013-07-27T10:44:36Z</time>
      </trkpt>
      <trkpt lat="42.340853000" lon="-2.344655000">
        <ele>657.30</ele>
        <time>2013-07-27T10:44:37Z</time>
      </trkpt>
      <trkpt lat="42.340841000" lon="-2.344659000">
        <ele>657.30</ele>
        <time>2013-07-27T10:44:38Z</time>
      </trkpt>
      <trkpt lat="42.340827000" lon="-2.344663000">
        <ele>657.50</ele>
        <time>2013-07-27T10:44:39Z</time>
      </trkpt>
      <trkpt lat="42.340815000" lon="-2.344667000">
        <ele>657.70</ele>
        <time>2013-07-27T10:44:40Z</time>
      </trkpt>
      <trkpt lat="42.340803000" lon="-2.344671000">
        <ele>657.80</ele>
        <time>2013-07-27T10:44:41Z</time>
      </trkpt>
      <trkpt lat="42.340789000" lon="-2.344672000">
        <ele>657.80</ele>
        <time>2013-07-27T10:44:42Z</time>
      </trkpt>
      <trkpt lat="42.340779000" lon="-2.344673000">
        <ele>657.90</ele>
        <time>2013-07-27T10:44:43Z</time>
      </trkpt>
      <trkpt lat="42.340766000" lon="-2.344677000">
        <ele>658.10</ele>
        <time>2013-07-27T10:44:44Z</time>
      </trkpt>
      <trkpt lat="42.340756000" lon="-2.344679000">
        <ele>658.30</ele>
        <time>2013-07-27T10:44:45Z</time>
      </trkpt>
      <trkpt lat="42.340744000" lon="-2.344684000">
        <ele>658.50</ele>
        <time>2013-07-27T10:44:46Z</time>
      </trkpt>
      <trkpt lat="42.340732000" lon="-2.344687000">
        <ele>658.70</ele>
        <time>2013-07-27T10:44:47Z</time>
      </trkpt>
      <trkpt lat="42.340720000" lon="-2.344688000">
        <ele>658.90</ele>
        <time>2013-07-27T10:44:48Z</time>
      </trkpt>
      <trkpt lat="42.340706000" lon="-2.344696000">
        <ele>659.00</ele>
        <time>2013-07-27T10:44:49Z</time>
      </trkpt>
      <trkpt lat="42.340692000" lon="-2.344707000">
        <ele>659.20</ele>
        <time>2013-07-27T10:44:50Z</time>
      </trkpt>
      <trkpt lat="42.340680000" lon="-2.344712000">
        <ele>659.30</ele>
        <time>2013-07-27T10:44:51Z</time>
      </trkpt>
      <trkpt lat="42.340668000" lon="-2.344722000">
        <ele>659.40</ele>
        <time>2013-07-27T10:44:52Z</time>
      </trkpt>
      <trkpt lat="42.340657000" lon="-2.344730000">
        <ele>659.50</ele>
        <time>2013-07-27T10:44:53Z</time>
      </trkpt>
      <trkpt lat="42.340648000" lon="-2.344734000">
        <ele>659.60</ele>
        <time>2013-07-27T10:44:54Z</time>
      </trkpt>
      <trkpt lat="42.340639000" lon="-2.344741000">
        <ele>659.60</ele>
        <time>2013-07-27T10:44:55Z</time>
      </trkpt>
      <trkpt lat="42.340629000" lon="-2.344746000">
        <ele>660.00</ele>
        <time>2013-07-27T10:44:56Z</time>
      </trkpt>
      <trkpt lat="42.340618000" lon="-2.344754000">
        <ele>660.30</ele>
        <time>2013-07-27T10:44:57Z</time>
      </trkpt>
      <trkpt lat="42.340607000" lon="-2.344759000">
        <ele>660.50</ele>
        <time>2013-07-27T10:44:58Z</time>
      </trkpt>
      <trkpt lat="42.340593000" lon="-2.344764000">
        <ele>660.60</ele>
        <time>2013-07-27T10:44:59Z</time>
      </trkpt>
      <trkpt lat="42.340581000" lon="-2.344766000">
        <ele>660.70</ele>
        <time>2013-07-27T10:45:00Z</time>
      </trkpt>
      <trkpt lat="42.340564000" lon="-2.344770000">
        <ele>660.80</ele>
        <time>2013-07-27T10:45:01Z</time>
      </trkpt>
      <trkpt lat="42.340552000" lon="-2.344775000">
        <ele>660.90</ele>
        <time>2013-07-27T10:45:02Z</time>
      </trkpt>
      <trkpt lat="42.340539000" lon="-2.344780000">
        <ele>661.00</ele>
        <time>2013-07-27T10:45:03Z</time>
      </trkpt>
      <trkpt lat="42.340529000" lon="-2.344785000">
        <ele>661.10</ele>
        <time>2013-07-27T10:45:04Z</time>
      </trkpt>
      <trkpt lat="42.340516000" lon="-2.344784000">
        <ele>661.10</ele>
        <time>2013-07-27T10:45:05Z</time>
      </trkpt>
      <trkpt lat="42.340502000" lon="-2.344785000">
        <ele>661.30</ele>
        <time>2013-07-27T10:45:06Z</time>
      </trkpt>
      <trkpt lat="42.340488000" lon="-2.344781000">
        <ele>661.40</ele>
        <time>2013-07-27T10:45:07Z</time>
      </trkpt>
      <trkpt lat="42.340476000" lon="-2.344777000">
        <ele>661.50</ele>
        <time>2013-07-27T10:45:08Z</time>
      </trkpt>
      <trkpt lat="42.340466000" lon="-2.344777000">
        <ele>661.60</ele>
        <time>2013-07-27T10:45:09Z</time>
      </trkpt>
      <trkpt lat="42.340454000" lon="-2.344776000">
        <ele>661.80</ele>
        <time>2013-07-27T10:45:10Z</time>
      </trkpt>
      <trkpt lat="42.340441000" lon="-2.344776000">
        <ele>662.00</ele>
        <time>2013-07-27T10:45:11Z</time>
      </trkpt>
      <trkpt lat="42.340429000" lon="-2.344778000">
        <ele>662.20</ele>
        <time>2013-07-27T10:45:12Z</time>
      </trkpt>
      <trkpt lat="42.340415000" lon="-2.344785000">
        <ele>662.40</ele>
        <time>2013-07-27T10:45:13Z</time>
      </trkpt>
      <trkpt lat="42.340403000" lon="-2.344790000">
        <ele>662.50</ele>
        <time>2013-07-27T10:45:14Z</time>
      </trkpt>
      <trkpt lat="42.340389000" lon="-2.344796000">
        <ele>662.70</ele>
        <time>2013-07-27T10:45:15Z</time>
      </trkpt>
      <trkpt lat="42.340374000" lon="-2.344800000">
        <ele>662.70</ele>
        <time>2013-07-27T10:45:16Z</time>
      </trkpt>
      <trkpt lat="42.340363000" lon="-2.344804000">
        <ele>662.80</ele>
        <time>2013-07-27T10:45:17Z</time>
      </trkpt>
      <trkpt lat="42.340350000" lon="-2.344806000">
        <ele>663.00</ele>
        <time>2013-07-27T10:45:18Z</time>
      </trkpt>
      <trkpt lat="42.340340000" lon="-2.344811000">
        <ele>663.10</ele>
        <time>2013-07-27T10:45:19Z</time>
      </trkpt>
      <trkpt lat="42.340328000" lon="-2.344817000">
        <ele>663.40</ele>
        <time>2013-07-27T10:45:20Z</time>
      </trkpt>
      <trkpt lat="42.340317000" lon="-2.344824000">
        <ele>663.60</ele>
        <time>2013-07-27T10:45:21Z</time>
      </trkpt>
      <trkpt lat="42.340304000" lon="-2.344829000">
        <ele>663.80</ele>
        <time>2013-07-27T10:45:22Z</time>
      </trkpt>
      <trkpt lat="42.340289000" lon="-2.344838000">
        <ele>663.90</ele>
        <time>2013-07-27T10:45:23Z</time>
      </trkpt>
      <trkpt lat="42.340275000" lon="-2.344842000">
        <ele>664.10</ele>
        <time>2013-07-27T10:45:24Z</time>
      </trkpt>
      <trkpt lat="42.340263000" lon="-2.344852000">
        <ele>664.20</ele>
        <time>2013-07-27T10:45:25Z</time>
      </trkpt>
      <trkpt lat="42.340251000" lon="-2.344853000">
        <ele>664.40</ele>
        <time>2013-07-27T10:45:26Z</time>
      </trkpt>
      <trkpt lat="42.340240000" lon="-2.344855000">
        <ele>664.50</ele>
        <time>2013-07-27T10:45:27Z</time>
      </trkpt>
      <trkpt lat="42.340229000" lon="-2.344860000">
        <ele>664.60</ele>
        <time>2013-07-27T10:45:28Z</time>
      </trkpt>
      <trkpt lat="42.340216000" lon="-2.344868000">
        <ele>664.60</ele>
        <time>2013-07-27T10:45:29Z</time>
      </trkpt>
      <trkpt lat="42.340204000" lon="-2.344875000">
        <ele>664.70</ele>
        <time>2013-07-27T10:45:30Z</time>
      </trkpt>
      <trkpt lat="42.340191000" lon="-2.344880000">
        <ele>664.70</ele>
        <time>2013-07-27T10:45:31Z</time>
      </trkpt>
      <trkpt lat="42.340175000" lon="-2.344888000">
        <ele>665.10</ele>
        <time>2013-07-27T10:45:32Z</time>
      </trkpt>
      <trkpt lat="42.340162000" lon="-2.344893000">
        <ele>665.40</ele>
        <time>2013-07-27T10:45:33Z</time>
      </trkpt>
      <trkpt lat="42.340149000" lon="-2.344897000">
        <ele>665.70</ele>
        <time>2013-07-27T10:45:34Z</time>
      </trkpt>
      <trkpt lat="42.340137000" lon="-2.344904000">
        <ele>665.80</ele>
        <time>2013-07-27T10:45:35Z</time>
      </trkpt>
      <trkpt lat="42.340125000" lon="-2.344909000">
        <ele>666.10</ele>
        <time>2013-07-27T10:45:36Z</time>
      </trkpt>
      <trkpt lat="42.340113000" lon="-2.344912000">
        <ele>666.30</ele>
        <time>2013-07-27T10:45:37Z</time>
      </trkpt>
      <trkpt lat="42.340102000" lon="-2.344914000">
        <ele>666.50</ele>
        <time>2013-07-27T10:45:38Z</time>
      </trkpt>
      <trkpt lat="42.340090000" lon="-2.344916000">
        <ele>666.60</ele>
        <time>2013-07-27T10:45:39Z</time>
      </trkpt>
      <trkpt lat="42.340076000" lon="-2.344920000">
        <ele>666.60</ele>
        <time>2013-07-27T10:45:40Z</time>
      </trkpt>
      <trkpt lat="42.340067000" lon="-2.344927000">
        <ele>666.70</ele>
        <time>2013-07-27T10:45:41Z</time>
      </trkpt>
      <trkpt lat="42.340058000" lon="-2.344935000">
        <ele>666.90</ele>
        <time>2013-07-27T10:45:42Z</time>
      </trkpt>
      <trkpt lat="42.340045000" lon="-2.344943000">
        <ele>667.00</ele>
        <time>2013-07-27T10:45:43Z</time>
      </trkpt>
      <trkpt lat="42.340033000" lon="-2.344950000">
        <ele>667.10</ele>
        <time>2013-07-27T10:45:44Z</time>
      </trkpt>
      <trkpt lat="42.340021000" lon="-2.344955000">
        <ele>667.20</ele>
        <time>2013-07-27T10:45:45Z</time>
      </trkpt>
      <trkpt lat="42.340009000" lon="-2.344960000">
        <ele>667.40</ele>
        <time>2013-07-27T10:45:46Z</time>
      </trkpt>
      <trkpt lat="42.339998000" lon="-2.344961000">
        <ele>667.60</ele>
        <time>2013-07-27T10:45:47Z</time>
      </trkpt>
      <trkpt lat="42.339986000" lon="-2.344959000">
        <ele>667.70</ele>
        <time>2013-07-27T10:45:48Z</time>
      </trkpt>
      <trkpt lat="42.339975000" lon="-2.344966000">
        <ele>667.80</ele>
        <time>2013-07-27T10:45:49Z</time>
      </trkpt>
      <trkpt lat="42.339963000" lon="-2.344969000">
        <ele>667.90</ele>
        <time>2013-07-27T10:45:50Z</time>
      </trkpt>
      <trkpt lat="42.339950000" lon="-2.344971000">
        <ele>668.00</ele>
        <time>2013-07-27T10:45:51Z</time>
      </trkpt>
      <trkpt lat="42.339935000" lon="-2.344972000">
        <ele>668.00</ele>
        <time>2013-07-27T10:45:52Z</time>
      </trkpt>
      <trkpt lat="42.339923000" lon="-2.344974000">
        <ele>667.90</ele>
        <time>2013-07-27T10:45:53Z</time>
      </trkpt>
      <trkpt lat="42.339911000" lon="-2.344977000">
        <ele>668.10</ele>
        <time>2013-07-27T10:45:54Z</time>
      </trkpt>
      <trkpt lat="42.339897000" lon="-2.344976000">
        <ele>668.20</ele>
        <time>2013-07-27T10:45:55Z</time>
      </trkpt>
      <trkpt lat="42.339882000" lon="-2.344977000">
        <ele>668.30</ele>
        <time>2013-07-27T10:45:56Z</time>
      </trkpt>
      <trkpt lat="42.339869000" lon="-2.344980000">
        <ele>668.30</ele>
        <time>2013-07-27T10:45:57Z</time>
      </trkpt>
      <trkpt lat="42.339854000" lon="-2.344981000">
        <ele>668.50</ele>
        <time>2013-07-27T10:45:58Z</time>
      </trkpt>
      <trkpt lat="42.339842000" lon="-2.344980000">
        <ele>668.60</ele>
        <time>2013-07-27T10:45:59Z</time>
      </trkpt>
      <trkpt lat="42.339828000" lon="-2.344986000">
        <ele>668.80</ele>
        <time>2013-07-27T10:46:00Z</time>
      </trkpt>
      <trkpt lat="42.339815000" lon="-2.344987000">
        <ele>668.90</ele>
        <time>2013-07-27T10:46:01Z</time>
      </trkpt>
      <trkpt lat="42.339803000" lon="-2.344989000">
        <ele>669.10</ele>
        <time>2013-07-27T10:46:02Z</time>
      </trkpt>
      <trkpt lat="42.339790000" lon="-2.344986000">
        <ele>669.20</ele>
        <time>2013-07-27T10:46:03Z</time>
      </trkpt>
      <trkpt lat="42.339776000" lon="-2.344984000">
        <ele>669.40</ele>
        <time>2013-07-27T10:46:04Z</time>
      </trkpt>
      <trkpt lat="42.339761000" lon="-2.344983000">
        <ele>669.50</ele>
        <time>2013-07-27T10:46:05Z</time>
      </trkpt>
      <trkpt lat="42.339750000" lon="-2.344985000">
        <ele>669.90</ele>
        <time>2013-07-27T10:46:06Z</time>
      </trkpt>
      <trkpt lat="42.339735000" lon="-2.344986000">
        <ele>670.20</ele>
        <time>2013-07-27T10:46:07Z</time>
      </trkpt>
      <trkpt lat="42.339722000" lon="-2.344981000">
        <ele>670.50</ele>
        <time>2013-07-27T10:46:08Z</time>
      </trkpt>
      <trkpt lat="42.339709000" lon="-2.344980000">
        <ele>670.60</ele>
        <time>2013-07-27T10:46:09Z</time>
      </trkpt>
      <trkpt lat="42.339696000" lon="-2.344979000">
        <ele>670.80</ele>
        <time>2013-07-27T10:46:10Z</time>
      </trkpt>
      <trkpt lat="42.339681000" lon="-2.344979000">
        <ele>670.90</ele>
        <time>2013-07-27T10:46:11Z</time>
      </trkpt>
      <trkpt lat="42.339667000" lon="-2.344984000">
        <ele>671.10</ele>
        <time>2013-07-27T10:46:12Z</time>
      </trkpt>
      <trkpt lat="42.339652000" lon="-2.344985000">
        <ele>671.20</ele>
        <time>2013-07-27T10:46:13Z</time>
      </trkpt>
      <trkpt lat="42.339636000" lon="-2.344983000">
        <ele>671.40</ele>
        <time>2013-07-27T10:46:14Z</time>
      </trkpt>
      <trkpt lat="42.339622000" lon="-2.344983000">
        <ele>671.60</ele>
        <time>2013-07-27T10:46:15Z</time>
      </trkpt>
      <trkpt lat="42.339608000" lon="-2.344982000">
        <ele>671.60</ele>
        <time>2013-07-27T10:46:16Z</time>
      </trkpt>
      <trkpt lat="42.339592000" lon="-2.344982000">
        <ele>671.60</ele>
        <time>2013-07-27T10:46:17Z</time>
      </trkpt>
      <trkpt lat="42.339579000" lon="-2.344980000">
        <ele>671.80</ele>
        <time>2013-07-27T10:46:18Z</time>
      </trkpt>
      <trkpt lat="42.339565000" lon="-2.344984000">
        <ele>671.90</ele>
        <time>2013-07-27T10:46:19Z</time>
      </trkpt>
      <trkpt lat="42.339550000" lon="-2.344985000">
        <ele>672.00</ele>
        <time>2013-07-27T10:46:20Z</time>
      </trkpt>
      <trkpt lat="42.339537000" lon="-2.344984000">
        <ele>672.10</ele>
        <time>2013-07-27T10:46:21Z</time>
      </trkpt>
      <trkpt lat="42.339527000" lon="-2.344989000">
        <ele>672.20</ele>
        <time>2013-07-27T10:46:22Z</time>
      </trkpt>
      <trkpt lat="42.339514000" lon="-2.344993000">
        <ele>672.40</ele>
        <time>2013-07-27T10:46:23Z</time>
      </trkpt>
      <trkpt lat="42.339500000" lon="-2.344997000">
        <ele>672.50</ele>
        <time>2013-07-27T10:46:24Z</time>
      </trkpt>
      <trkpt lat="42.339487000" lon="-2.344998000">
        <ele>672.60</ele>
        <time>2013-07-27T10:46:25Z</time>
      </trkpt>
      <trkpt lat="42.339474000" lon="-2.344997000">
        <ele>672.70</ele>
        <time>2013-07-27T10:46:26Z</time>
      </trkpt>
      <trkpt lat="42.339462000" lon="-2.345001000">
        <ele>672.90</ele>
        <time>2013-07-27T10:46:27Z</time>
      </trkpt>
      <trkpt lat="42.339450000" lon="-2.345003000">
        <ele>673.00</ele>
        <time>2013-07-27T10:46:28Z</time>
      </trkpt>
      <trkpt lat="42.339435000" lon="-2.345008000">
        <ele>673.10</ele>
        <time>2013-07-27T10:46:29Z</time>
      </trkpt>
      <trkpt lat="42.339424000" lon="-2.345008000">
        <ele>673.10</ele>
        <time>2013-07-27T10:46:30Z</time>
      </trkpt>
      <trkpt lat="42.339412000" lon="-2.345011000">
        <ele>673.20</ele>
        <time>2013-07-27T10:46:31Z</time>
      </trkpt>
      <trkpt lat="42.339398000" lon="-2.345016000">
        <ele>673.20</ele>
        <time>2013-07-27T10:46:32Z</time>
      </trkpt>
      <trkpt lat="42.339385000" lon="-2.345021000">
        <ele>673.20</ele>
        <time>2013-07-27T10:46:33Z</time>
      </trkpt>
      <trkpt lat="42.339371000" lon="-2.345023000">
        <ele>673.20</ele>
        <time>2013-07-27T10:46:34Z</time>
      </trkpt>
      <trkpt lat="42.339357000" lon="-2.345024000">
        <ele>673.30</ele>
        <time>2013-07-27T10:46:35Z</time>
      </trkpt>
      <trkpt lat="42.339345000" lon="-2.345024000">
        <ele>673.50</ele>
        <time>2013-07-27T10:46:36Z</time>
      </trkpt>
      <trkpt lat="42.339331000" lon="-2.345027000">
        <ele>673.70</ele>
        <time>2013-07-27T10:46:37Z</time>
      </trkpt>
      <trkpt lat="42.339322000" lon="-2.345030000">
        <ele>674.00</ele>
        <time>2013-07-27T10:46:38Z</time>
      </trkpt>
      <trkpt lat="42.339308000" lon="-2.345038000">
        <ele>674.30</ele>
        <time>2013-07-27T10:46:39Z</time>
      </trkpt>
      <trkpt lat="42.339294000" lon="-2.345044000">
        <ele>674.60</ele>
        <time>2013-07-27T10:46:40Z</time>
      </trkpt>
      <trkpt lat="42.339281000" lon="-2.345052000">
        <ele>674.80</ele>
        <time>2013-07-27T10:46:41Z</time>
      </trkpt>
      <trkpt lat="42.339268000" lon="-2.345059000">
        <ele>675.10</ele>
        <time>2013-07-27T10:46:42Z</time>
      </trkpt>
      <trkpt lat="42.339259000" lon="-2.345064000">
        <ele>675.30</ele>
        <time>2013-07-27T10:46:43Z</time>
      </trkpt>
      <trkpt lat="42.339246000" lon="-2.345070000">
        <ele>675.50</ele>
        <time>2013-07-27T10:46:44Z</time>
      </trkpt>
      <trkpt lat="42.339236000" lon="-2.345074000">
        <ele>675.70</ele>
        <time>2013-07-27T10:46:45Z</time>
      </trkpt>
      <trkpt lat="42.339219000" lon="-2.345080000">
        <ele>675.90</ele>
        <time>2013-07-27T10:46:46Z</time>
      </trkpt>
      <trkpt lat="42.339204000" lon="-2.345087000">
        <ele>676.00</ele>
        <time>2013-07-27T10:46:47Z</time>
      </trkpt>
      <trkpt lat="42.339193000" lon="-2.345091000">
        <ele>676.20</ele>
        <time>2013-07-27T10:46:48Z</time>
      </trkpt>
      <trkpt lat="42.339181000" lon="-2.345095000">
        <ele>676.40</ele>
        <time>2013-07-27T10:46:49Z</time>
      </trkpt>
      <trkpt lat="42.339169000" lon="-2.345101000">
        <ele>676.50</ele>
        <time>2013-07-27T10:46:50Z</time>
      </trkpt>
      <trkpt lat="42.339157000" lon="-2.345109000">
        <ele>676.50</ele>
        <time>2013-07-27T10:46:51Z</time>
      </trkpt>
      <trkpt lat="42.339143000" lon="-2.345118000">
        <ele>676.50</ele>
        <time>2013-07-27T10:46:52Z</time>
      </trkpt>
      <trkpt lat="42.339133000" lon="-2.345122000">
        <ele>676.60</ele>
        <time>2013-07-27T10:46:53Z</time>
      </trkpt>
      <trkpt lat="42.339123000" lon="-2.345126000">
        <ele>676.60</ele>
        <time>2013-07-27T10:46:54Z</time>
      </trkpt>
      <trkpt lat="42.339111000" lon="-2.345128000">
        <ele>676.60</ele>
        <time>2013-07-27T10:46:55Z</time>
      </trkpt>
      <trkpt lat="42.339099000" lon="-2.345131000">
        <ele>676.80</ele>
        <time>2013-07-27T10:46:56Z</time>
      </trkpt>
      <trkpt lat="42.339088000" lon="-2.345138000">
        <ele>676.90</ele>
        <time>2013-07-27T10:46:57Z</time>
      </trkpt>
      <trkpt lat="42.339072000" lon="-2.345144000">
        <ele>677.10</ele>
        <time>2013-07-27T10:46:58Z</time>
      </trkpt>
      <trkpt lat="42.339059000" lon="-2.345149000">
        <ele>677.30</ele>
        <time>2013-07-27T10:46:59Z</time>
      </trkpt>
      <trkpt lat="42.339044000" lon="-2.345157000">
        <ele>677.50</ele>
        <time>2013-07-27T10:47:00Z</time>
      </trkpt>
      <trkpt lat="42.339033000" lon="-2.345162000">
        <ele>677.70</ele>
        <time>2013-07-27T10:47:01Z</time>
      </trkpt>
      <trkpt lat="42.339022000" lon="-2.345170000">
        <ele>677.90</ele>
        <time>2013-07-27T10:47:02Z</time>
      </trkpt>
      <trkpt lat="42.339004000" lon="-2.345174000">
        <ele>678.00</ele>
        <time>2013-07-27T10:47:03Z</time>
      </trkpt>
      <trkpt lat="42.338992000" lon="-2.345182000">
        <ele>678.10</ele>
        <time>2013-07-27T10:47:04Z</time>
      </trkpt>
      <trkpt lat="42.338979000" lon="-2.345187000">
        <ele>678.30</ele>
        <time>2013-07-27T10:47:05Z</time>
      </trkpt>
      <trkpt lat="42.338968000" lon="-2.345191000">
        <ele>678.30</ele>
        <time>2013-07-27T10:47:06Z</time>
      </trkpt>
      <trkpt lat="42.338954000" lon="-2.345200000">
        <ele>678.40</ele>
        <time>2013-07-27T10:47:07Z</time>
      </trkpt>
      <trkpt lat="42.338941000" lon="-2.345204000">
        <ele>678.40</ele>
        <time>2013-07-27T10:47:08Z</time>
      </trkpt>
      <trkpt lat="42.338928000" lon="-2.345210000">
        <ele>678.50</ele>
        <time>2013-07-27T10:47:09Z</time>
      </trkpt>
      <trkpt lat="42.338915000" lon="-2.345217000">
        <ele>678.60</ele>
        <time>2013-07-27T10:47:10Z</time>
      </trkpt>
      <trkpt lat="42.338902000" lon="-2.345229000">
        <ele>678.80</ele>
        <time>2013-07-27T10:47:11Z</time>
      </trkpt>
      <trkpt lat="42.338890000" lon="-2.345236000">
        <ele>679.10</ele>
        <time>2013-07-27T10:47:12Z</time>
      </trkpt>
      <trkpt lat="42.338878000" lon="-2.345244000">
        <ele>679.30</ele>
        <time>2013-07-27T10:47:13Z</time>
      </trkpt>
      <trkpt lat="42.338865000" lon="-2.345254000">
        <ele>679.60</ele>
        <time>2013-07-27T10:47:14Z</time>
      </trkpt>
      <trkpt lat="42.338852000" lon="-2.345258000">
        <ele>679.80</ele>
        <time>2013-07-27T10:47:15Z</time>
      </trkpt>
      <trkpt lat="42.338842000" lon="-2.345263000">
        <ele>680.00</ele>
        <time>2013-07-27T10:47:16Z</time>
      </trkpt>
      <trkpt lat="42.338831000" lon="-2.345267000">
        <ele>680.10</ele>
        <time>2013-07-27T10:47:17Z</time>
      </trkpt>
      <trkpt lat="42.338820000" lon="-2.345272000">
        <ele>680.20</ele>
        <time>2013-07-27T10:47:18Z</time>
      </trkpt>
      <trkpt lat="42.338808000" lon="-2.345276000">
        <ele>680.30</ele>
        <time>2013-07-27T10:47:19Z</time>
      </trkpt>
      <trkpt lat="42.338797000" lon="-2.345283000">
        <ele>680.60</ele>
        <time>2013-07-27T10:47:20Z</time>
      </trkpt>
      <trkpt lat="42.338787000" lon="-2.345289000">
        <ele>680.80</ele>
        <time>2013-07-27T10:47:21Z</time>
      </trkpt>
      <trkpt lat="42.338774000" lon="-2.345296000">
        <ele>681.00</ele>
        <time>2013-07-27T10:47:22Z</time>
      </trkpt>
      <trkpt lat="42.338763000" lon="-2.345303000">
        <ele>681.10</ele>
        <time>2013-07-27T10:47:23Z</time>
      </trkpt>
      <trkpt lat="42.338749000" lon="-2.345311000">
        <ele>681.30</ele>
        <time>2013-07-27T10:47:24Z</time>
      </trkpt>
      <trkpt lat="42.338738000" lon="-2.345317000">
        <ele>681.40</ele>
        <time>2013-07-27T10:47:25Z</time>
      </trkpt>
      <trkpt lat="42.338724000" lon="-2.345323000">
        <ele>681.60</ele>
        <time>2013-07-27T10:47:26Z</time>
      </trkpt>
      <trkpt lat="42.338710000" lon="-2.345336000">
        <ele>681.70</ele>
        <time>2013-07-27T10:47:27Z</time>
      </trkpt>
      <trkpt lat="42.338699000" lon="-2.345345000">
        <ele>681.80</ele>
        <time>2013-07-27T10:47:28Z</time>
      </trkpt>
      <trkpt lat="42.338689000" lon="-2.345356000">
        <ele>681.90</ele>
        <time>2013-07-27T10:47:29Z</time>
      </trkpt>
      <trkpt lat="42.338679000" lon="-2.345367000">
        <ele>681.90</ele>
        <time>2013-07-27T10:47:30Z</time>
      </trkpt>
      <trkpt lat="42.338670000" lon="-2.345374000">
        <ele>682.00</ele>
        <time>2013-07-27T10:47:31Z</time>
      </trkpt>
      <trkpt lat="42.338659000" lon="-2.345385000">
        <ele>682.30</ele>
        <time>2013-07-27T10:47:32Z</time>
      </trkpt>
      <trkpt lat="42.338641000" lon="-2.345393000">
        <ele>682.50</ele>
        <time>2013-07-27T10:47:33Z</time>
      </trkpt>
      <trkpt lat="42.338629000" lon="-2.345394000">
        <ele>682.80</ele>
        <time>2013-07-27T10:47:34Z</time>
      </trkpt>
      <trkpt lat="42.338618000" lon="-2.345390000">
        <ele>683.10</ele>
        <time>2013-07-27T10:47:35Z</time>
      </trkpt>
      <trkpt lat="42.338607000" lon="-2.345392000">
        <ele>683.30</ele>
        <time>2013-07-27T10:47:36Z</time>
      </trkpt>
      <trkpt lat="42.338598000" lon="-2.345395000">
        <ele>683.40</ele>
        <time>2013-07-27T10:47:37Z</time>
      </trkpt>
      <trkpt lat="42.338587000" lon="-2.345401000">
        <ele>683.60</ele>
        <time>2013-07-27T10:47:38Z</time>
      </trkpt>
      <trkpt lat="42.338575000" lon="-2.345406000">
        <ele>683.70</ele>
        <time>2013-07-27T10:47:39Z</time>
      </trkpt>
      <trkpt lat="42.338563000" lon="-2.345414000">
        <ele>683.80</ele>
        <time>2013-07-27T10:47:40Z</time>
      </trkpt>
      <trkpt lat="42.338556000" lon="-2.345419000">
        <ele>683.90</ele>
        <time>2013-07-27T10:47:41Z</time>
      </trkpt>
      <trkpt lat="42.338547000" lon="-2.345424000">
        <ele>684.00</ele>
        <time>2013-07-27T10:47:42Z</time>
      </trkpt>
      <trkpt lat="42.338539000" lon="-2.345435000">
        <ele>684.10</ele>
        <time>2013-07-27T10:47:43Z</time>
      </trkpt>
      <trkpt lat="42.338528000" lon="-2.345447000">
        <ele>684.20</ele>
        <time>2013-07-27T10:47:44Z</time>
      </trkpt>
      <trkpt lat="42.338516000" lon="-2.345451000">
        <ele>684.20</ele>
        <time>2013-07-27T10:47:45Z</time>
      </trkpt>
      <trkpt lat="42.338505000" lon="-2.345455000">
        <ele>684.30</ele>
        <time>2013-07-27T10:47:46Z</time>
      </trkpt>
      <trkpt lat="42.338492000" lon="-2.345457000">
        <ele>684.30</ele>
        <time>2013-07-27T10:47:47Z</time>
      </trkpt>
      <trkpt lat="42.338483000" lon="-2.345463000">
        <ele>684.40</ele>
        <time>2013-07-27T10:47:48Z</time>
      </trkpt>
      <trkpt lat="42.338470000" lon="-2.345470000">
        <ele>684.50</ele>
        <time>2013-07-27T10:47:49Z</time>
      </trkpt>
      <trkpt lat="42.338457000" lon="-2.345483000">
        <ele>684.60</ele>
        <time>2013-07-27T10:47:50Z</time>
      </trkpt>
      <trkpt lat="42.338448000" lon="-2.345486000">
        <ele>684.60</ele>
        <time>2013-07-27T10:47:51Z</time>
      </trkpt>
      <trkpt lat="42.338439000" lon="-2.345486000">
        <ele>684.60</ele>
        <time>2013-07-27T10:47:52Z</time>
      </trkpt>
      <trkpt lat="42.338424000" lon="-2.345496000">
        <ele>684.70</ele>
        <time>2013-07-27T10:47:53Z</time>
      </trkpt>
      <trkpt lat="42.338415000" lon="-2.345504000">
        <ele>684.90</ele>
        <time>2013-07-27T10:47:54Z</time>
      </trkpt>
      <trkpt lat="42.338405000" lon="-2.345512000">
        <ele>685.10</ele>
        <time>2013-07-27T10:47:55Z</time>
      </trkpt>
      <trkpt lat="42.338398000" lon="-2.345509000">
        <ele>685.30</ele>
        <time>2013-07-27T10:47:56Z</time>
      </trkpt>
      <trkpt lat="42.338389000" lon="-2.345512000">
        <ele>685.50</ele>
        <time>2013-07-27T10:47:57Z</time>
      </trkpt>
      <trkpt lat="42.338377000" lon="-2.345519000">
        <ele>685.70</ele>
        <time>2013-07-27T10:47:58Z</time>
      </trkpt>
      <trkpt lat="42.338365000" lon="-2.345526000">
        <ele>685.80</ele>
        <time>2013-07-27T10:47:59Z</time>
      </trkpt>
      <trkpt lat="42.338351000" lon="-2.345536000">
        <ele>685.90</ele>
        <time>2013-07-27T10:48:00Z</time>
      </trkpt>
      <trkpt lat="42.338340000" lon="-2.345542000">
        <ele>686.00</ele>
        <time>2013-07-27T10:48:01Z</time>
      </trkpt>
      <trkpt lat="42.338328000" lon="-2.345548000">
        <ele>686.10</ele>
        <time>2013-07-27T10:48:02Z</time>
      </trkpt>
      <trkpt lat="42.338318000" lon="-2.345552000">
        <ele>686.20</ele>
        <time>2013-07-27T10:48:03Z</time>
      </trkpt>
      <trkpt lat="42.338308000" lon="-2.345560000">
        <ele>686.30</ele>
        <time>2013-07-27T10:48:04Z</time>
      </trkpt>
      <trkpt lat="42.338296000" lon="-2.345566000">
        <ele>686.30</ele>
        <time>2013-07-27T10:48:05Z</time>
      </trkpt>
      <trkpt lat="42.338286000" lon="-2.345571000">
        <ele>686.50</ele>
        <time>2013-07-27T10:48:06Z</time>
      </trkpt>
      <trkpt lat="42.338274000" lon="-2.345575000">
        <ele>686.50</ele>
        <time>2013-07-27T10:48:07Z</time>
      </trkpt>
      <trkpt lat="42.338264000" lon="-2.345583000">
        <ele>686.60</ele>
        <time>2013-07-27T10:48:08Z</time>
      </trkpt>
      <trkpt lat="42.338248000" lon="-2.345594000">
        <ele>686.70</ele>
        <time>2013-07-27T10:48:09Z</time>
      </trkpt>
      <trkpt lat="42.338237000" lon="-2.345605000">
        <ele>686.80</ele>
        <time>2013-07-27T10:48:10Z</time>
      </trkpt>
      <trkpt lat="42.338227000" lon="-2.345611000">
        <ele>686.90</ele>
        <time>2013-07-27T10:48:11Z</time>
      </trkpt>
      <trkpt lat="42.338214000" lon="-2.345614000">
        <ele>687.10</ele>
        <time>2013-07-27T10:48:12Z</time>
      </trkpt>
      <trkpt lat="42.338204000" lon="-2.345619000">
        <ele>687.20</ele>
        <time>2013-07-27T10:48:13Z</time>
      </trkpt>
      <trkpt lat="42.338194000" lon="-2.345624000">
        <ele>687.40</ele>
        <time>2013-07-27T10:48:14Z</time>
      </trkpt>
      <trkpt lat="42.338184000" lon="-2.345626000">
        <ele>687.40</ele>
        <time>2013-07-27T10:48:15Z</time>
      </trkpt>
      <trkpt lat="42.338173000" lon="-2.345628000">
        <ele>687.60</ele>
        <time>2013-07-27T10:48:16Z</time>
      </trkpt>
      <trkpt lat="42.338162000" lon="-2.345637000">
        <ele>687.70</ele>
        <time>2013-07-27T10:48:17Z</time>
      </trkpt>
      <trkpt lat="42.338153000" lon="-2.345641000">
        <ele>687.70</ele>
        <time>2013-07-27T10:48:18Z</time>
      </trkpt>
      <trkpt lat="42.338140000" lon="-2.345648000">
        <ele>687.80</ele>
        <time>2013-07-27T10:48:19Z</time>
      </trkpt>
      <trkpt lat="42.338128000" lon="-2.345659000">
        <ele>687.90</ele>
        <time>2013-07-27T10:48:20Z</time>
      </trkpt>
      <trkpt lat="42.338118000" lon="-2.345662000">
        <ele>687.90</ele>
        <time>2013-07-27T10:48:21Z</time>
      </trkpt>
      <trkpt lat="42.338107000" lon="-2.345670000">
        <ele>688.10</ele>
        <time>2013-07-27T10:48:22Z</time>
      </trkpt>
      <trkpt lat="42.338094000" lon="-2.345676000">
        <ele>688.30</ele>
        <time>2013-07-27T10:48:23Z</time>
      </trkpt>
      <trkpt lat="42.338084000" lon="-2.345677000">
        <ele>688.40</ele>
        <time>2013-07-27T10:48:24Z</time>
      </trkpt>
      <trkpt lat="42.338070000" lon="-2.345684000">
        <ele>688.50</ele>
        <time>2013-07-27T10:48:25Z</time>
      </trkpt>
      <trkpt lat="42.338058000" lon="-2.345679000">
        <ele>688.70</ele>
        <time>2013-07-27T10:48:26Z</time>
      </trkpt>
      <trkpt lat="42.338045000" lon="-2.345684000">
        <ele>688.80</ele>
        <time>2013-07-27T10:48:27Z</time>
      </trkpt>
      <trkpt lat="42.338033000" lon="-2.345690000">
        <ele>689.00</ele>
        <time>2013-07-27T10:48:28Z</time>
      </trkpt>
      <trkpt lat="42.338021000" lon="-2.345705000">
        <ele>689.20</ele>
        <time>2013-07-27T10:48:29Z</time>
      </trkpt>
      <trkpt lat="42.338010000" lon="-2.345714000">
        <ele>689.30</ele>
        <time>2013-07-27T10:48:30Z</time>
      </trkpt>
      <trkpt lat="42.338001000" lon="-2.345720000">
        <ele>689.30</ele>
        <time>2013-07-27T10:48:31Z</time>
      </trkpt>
      <trkpt lat="42.337991000" lon="-2.345725000">
        <ele>689.40</ele>
        <time>2013-07-27T10:48:32Z</time>
      </trkpt>
      <trkpt lat="42.337980000" lon="-2.345730000">
        <ele>689.40</ele>
        <time>2013-07-27T10:48:33Z</time>
      </trkpt>
      <trkpt lat="42.337971000" lon="-2.345737000">
        <ele>689.40</ele>
        <time>2013-07-27T10:48:34Z</time>
      </trkpt>
      <trkpt lat="42.337961000" lon="-2.345741000">
        <ele>689.40</ele>
        <time>2013-07-27T10:48:35Z</time>
      </trkpt>
      <trkpt lat="42.337951000" lon="-2.345749000">
        <ele>689.60</ele>
        <time>2013-07-27T10:48:36Z</time>
      </trkpt>
      <trkpt lat="42.337939000" lon="-2.345754000">
        <ele>689.70</ele>
        <time>2013-07-27T10:48:37Z</time>
      </trkpt>
      <trkpt lat="42.337930000" lon="-2.345762000">
        <ele>690.00</ele>
        <time>2013-07-27T10:48:38Z</time>
      </trkpt>
      <trkpt lat="42.337915000" lon="-2.345770000">
        <ele>690.20</ele>
        <time>2013-07-27T10:48:39Z</time>
      </trkpt>
      <trkpt lat="42.337905000" lon="-2.345773000">
        <ele>690.30</ele>
        <time>2013-07-27T10:48:40Z</time>
      </trkpt>
      <trkpt lat="42.337891000" lon="-2.345776000">
        <ele>690.50</ele>
        <time>2013-07-27T10:48:41Z</time>
      </trkpt>
      <trkpt lat="42.337885000" lon="-2.345784000">
        <ele>690.60</ele>
        <time>2013-07-27T10:48:42Z</time>
      </trkpt>
      <trkpt lat="42.337873000" lon="-2.345790000">
        <ele>690.60</ele>
        <time>2013-07-27T10:48:43Z</time>
      </trkpt>
      <trkpt lat="42.337864000" lon="-2.345793000">
        <ele>690.80</ele>
        <time>2013-07-27T10:48:44Z</time>
      </trkpt>
      <trkpt lat="42.337854000" lon="-2.345804000">
        <ele>691.00</ele>
        <time>2013-07-27T10:48:45Z</time>
      </trkpt>
      <trkpt lat="42.337842000" lon="-2.345806000">
        <ele>691.30</ele>
        <time>2013-07-27T10:48:46Z</time>
      </trkpt>
      <trkpt lat="42.337831000" lon="-2.345816000">
        <ele>691.50</ele>
        <time>2013-07-27T10:48:47Z</time>
      </trkpt>
      <trkpt lat="42.337821000" lon="-2.345825000">
        <ele>691.70</ele>
        <time>2013-07-27T10:48:48Z</time>
      </trkpt>
      <trkpt lat="42.337807000" lon="-2.345831000">
        <ele>691.80</ele>
        <time>2013-07-27T10:48:49Z</time>
      </trkpt>
      <trkpt lat="42.337797000" lon="-2.345836000">
        <ele>692.00</ele>
        <time>2013-07-27T10:48:50Z</time>
      </trkpt>
      <trkpt lat="42.337787000" lon="-2.345838000">
        <ele>692.00</ele>
        <time>2013-07-27T10:48:51Z</time>
      </trkpt>
      <trkpt lat="42.337775000" lon="-2.345842000">
        <ele>692.10</ele>
        <time>2013-07-27T10:48:52Z</time>
      </trkpt>
      <trkpt lat="42.337765000" lon="-2.345848000">
        <ele>692.20</ele>
        <time>2013-07-27T10:48:53Z</time>
      </trkpt>
      <trkpt lat="42.337752000" lon="-2.345856000">
        <ele>692.30</ele>
        <time>2013-07-27T10:48:54Z</time>
      </trkpt>
      <trkpt lat="42.337744000" lon="-2.345864000">
        <ele>692.40</ele>
        <time>2013-07-27T10:48:55Z</time>
      </trkpt>
      <trkpt lat="42.337736000" lon="-2.345868000">
        <ele>692.40</ele>
        <time>2013-07-27T10:48:56Z</time>
      </trkpt>
      <trkpt lat="42.337725000" lon="-2.345870000">
        <ele>692.40</ele>
        <time>2013-07-27T10:48:57Z</time>
      </trkpt>
      <trkpt lat="42.337716000" lon="-2.345874000">
        <ele>692.40</ele>
        <time>2013-07-27T10:48:58Z</time>
      </trkpt>
      <trkpt lat="42.337708000" lon="-2.345878000">
        <ele>692.40</ele>
        <time>2013-07-27T10:48:59Z</time>
      </trkpt>
      <trkpt lat="42.337696000" lon="-2.345881000">
        <ele>692.40</ele>
        <time>2013-07-27T10:49:00Z</time>
      </trkpt>
      <trkpt lat="42.337688000" lon="-2.345888000">
        <ele>692.40</ele>
        <time>2013-07-27T10:49:01Z</time>
      </trkpt>
      <trkpt lat="42.337677000" lon="-2.345894000">
        <ele>692.50</ele>
        <time>2013-07-27T10:49:02Z</time>
      </trkpt>
      <trkpt lat="42.337667000" lon="-2.345901000">
        <ele>692.50</ele>
        <time>2013-07-27T10:49:03Z</time>
      </trkpt>
      <trkpt lat="42.337655000" lon="-2.345913000">
        <ele>692.60</ele>
        <time>2013-07-27T10:49:04Z</time>
      </trkpt>
      <trkpt lat="42.337641000" lon="-2.345920000">
        <ele>692.70</ele>
        <time>2013-07-27T10:49:05Z</time>
      </trkpt>
      <trkpt lat="42.337632000" lon="-2.345926000">
        <ele>692.80</ele>
        <time>2013-07-27T10:49:06Z</time>
      </trkpt>
      <trkpt lat="42.337624000" lon="-2.345934000">
        <ele>692.90</ele>
        <time>2013-07-27T10:49:07Z</time>
      </trkpt>
      <trkpt lat="42.337612000" lon="-2.345942000">
        <ele>693.10</ele>
        <time>2013-07-27T10:49:08Z</time>
      </trkpt>
      <trkpt lat="42.337600000" lon="-2.345949000">
        <ele>693.20</ele>
        <time>2013-07-27T10:49:09Z</time>
      </trkpt>
      <trkpt lat="42.337587000" lon="-2.345959000">
        <ele>693.30</ele>
        <time>2013-07-27T10:49:10Z</time>
      </trkpt>
      <trkpt lat="42.337576000" lon="-2.345960000">
        <ele>693.30</ele>
        <time>2013-07-27T10:49:11Z</time>
      </trkpt>
      <trkpt lat="42.337567000" lon="-2.345966000">
        <ele>693.70</ele>
        <time>2013-07-27T10:49:12Z</time>
      </trkpt>
      <trkpt lat="42.337553000" lon="-2.345978000">
        <ele>694.00</ele>
        <time>2013-07-27T10:49:13Z</time>
      </trkpt>
      <trkpt lat="42.337541000" lon="-2.345983000">
        <ele>694.20</ele>
        <time>2013-07-27T10:49:14Z</time>
      </trkpt>
      <trkpt lat="42.337529000" lon="-2.345986000">
        <ele>694.40</ele>
        <time>2013-07-27T10:49:15Z</time>
      </trkpt>
      <trkpt lat="42.337519000" lon="-2.345993000">
        <ele>694.50</ele>
        <time>2013-07-27T10:49:16Z</time>
      </trkpt>
      <trkpt lat="42.337509000" lon="-2.345994000">
        <ele>694.60</ele>
        <time>2013-07-27T10:49:17Z</time>
      </trkpt>
      <trkpt lat="42.337500000" lon="-2.345999000">
        <ele>694.70</ele>
        <time>2013-07-27T10:49:18Z</time>
      </trkpt>
      <trkpt lat="42.337488000" lon="-2.346005000">
        <ele>694.70</ele>
        <time>2013-07-27T10:49:19Z</time>
      </trkpt>
      <trkpt lat="42.337477000" lon="-2.346015000">
        <ele>694.80</ele>
        <time>2013-07-27T10:49:20Z</time>
      </trkpt>
      <trkpt lat="42.337465000" lon="-2.346022000">
        <ele>694.90</ele>
        <time>2013-07-27T10:49:21Z</time>
      </trkpt>
      <trkpt lat="42.337454000" lon="-2.346029000">
        <ele>695.20</ele>
        <time>2013-07-27T10:49:22Z</time>
      </trkpt>
      <trkpt lat="42.337443000" lon="-2.346033000">
        <ele>695.40</ele>
        <time>2013-07-27T10:49:23Z</time>
      </trkpt>
      <trkpt lat="42.337434000" lon="-2.346041000">
        <ele>695.60</ele>
        <time>2013-07-27T10:49:24Z</time>
      </trkpt>
      <trkpt lat="42.337424000" lon="-2.346045000">
        <ele>695.80</ele>
        <time>2013-07-27T10:49:25Z</time>
      </trkpt>
      <trkpt lat="42.337414000" lon="-2.346055000">
        <ele>696.00</ele>
        <time>2013-07-27T10:49:26Z</time>
      </trkpt>
      <trkpt lat="42.337402000" lon="-2.346064000">
        <ele>696.20</ele>
        <time>2013-07-27T10:49:27Z</time>
      </trkpt>
      <trkpt lat="42.337391000" lon="-2.346071000">
        <ele>696.40</ele>
        <time>2013-07-27T10:49:28Z</time>
      </trkpt>
      <trkpt lat="42.337379000" lon="-2.346075000">
        <ele>696.60</ele>
        <time>2013-07-27T10:49:29Z</time>
      </trkpt>
      <trkpt lat="42.337369000" lon="-2.346082000">
        <ele>696.70</ele>
        <time>2013-07-27T10:49:30Z</time>
      </trkpt>
      <trkpt lat="42.337357000" lon="-2.346091000">
        <ele>696.80</ele>
        <time>2013-07-27T10:49:31Z</time>
      </trkpt>
      <trkpt lat="42.337344000" lon="-2.346099000">
        <ele>696.90</ele>
        <time>2013-07-27T10:49:32Z</time>
      </trkpt>
      <trkpt lat="42.337334000" lon="-2.346101000">
        <ele>697.00</ele>
        <time>2013-07-27T10:49:33Z</time>
      </trkpt>
      <trkpt lat="42.337322000" lon="-2.346105000">
        <ele>697.00</ele>
        <time>2013-07-27T10:49:34Z</time>
      </trkpt>
      <trkpt lat="42.337310000" lon="-2.346113000">
        <ele>697.10</ele>
        <time>2013-07-27T10:49:35Z</time>
      </trkpt>
      <trkpt lat="42.337304000" lon="-2.346122000">
        <ele>697.30</ele>
        <time>2013-07-27T10:49:36Z</time>
      </trkpt>
      <trkpt lat="42.337296000" lon="-2.346135000">
        <ele>697.50</ele>
        <time>2013-07-27T10:49:37Z</time>
      </trkpt>
      <trkpt lat="42.337286000" lon="-2.346144000">
        <ele>697.80</ele>
        <time>2013-07-27T10:49:38Z</time>
      </trkpt>
      <trkpt lat="42.337275000" lon="-2.346153000">
        <ele>698.00</ele>
        <time>2013-07-27T10:49:39Z</time>
      </trkpt>
      <trkpt lat="42.337265000" lon="-2.346163000">
        <ele>698.20</ele>
        <time>2013-07-27T10:49:40Z</time>
      </trkpt>
      <trkpt lat="42.337251000" lon="-2.346171000">
        <ele>698.40</ele>
        <time>2013-07-27T10:49:41Z</time>
      </trkpt>
      <trkpt lat="42.337241000" lon="-2.346181000">
        <ele>698.50</ele>
        <time>2013-07-27T10:49:42Z</time>
      </trkpt>
      <trkpt lat="42.337229000" lon="-2.346182000">
        <ele>698.60</ele>
        <time>2013-07-27T10:49:43Z</time>
      </trkpt>
      <trkpt lat="42.337218000" lon="-2.346185000">
        <ele>698.80</ele>
        <time>2013-07-27T10:49:44Z</time>
      </trkpt>
      <trkpt lat="42.337210000" lon="-2.346190000">
        <ele>698.90</ele>
        <time>2013-07-27T10:49:45Z</time>
      </trkpt>
      <trkpt lat="42.337200000" lon="-2.346199000">
        <ele>699.10</ele>
        <time>2013-07-27T10:49:46Z</time>
      </trkpt>
      <trkpt lat="42.337189000" lon="-2.346208000">
        <ele>699.30</ele>
        <time>2013-07-27T10:49:47Z</time>
      </trkpt>
      <trkpt lat="42.337177000" lon="-2.346212000">
        <ele>699.40</ele>
        <time>2013-07-27T10:49:48Z</time>
      </trkpt>
      <trkpt lat="42.337161000" lon="-2.346216000">
        <ele>699.50</ele>
        <time>2013-07-27T10:49:49Z</time>
      </trkpt>
      <trkpt lat="42.337147000" lon="-2.346226000">
        <ele>699.70</ele>
        <time>2013-07-27T10:49:50Z</time>
      </trkpt>
      <trkpt lat="42.337134000" lon="-2.346231000">
        <ele>699.80</ele>
        <time>2013-07-27T10:49:51Z</time>
      </trkpt>
      <trkpt lat="42.337122000" lon="-2.346235000">
        <ele>700.00</ele>
        <time>2013-07-27T10:49:52Z</time>
      </trkpt>
      <trkpt lat="42.337114000" lon="-2.346235000">
        <ele>700.10</ele>
        <time>2013-07-27T10:49:53Z</time>
      </trkpt>
      <trkpt lat="42.337105000" lon="-2.346235000">
        <ele>700.30</ele>
        <time>2013-07-27T10:49:54Z</time>
      </trkpt>
      <trkpt lat="42.337094000" lon="-2.346236000">
        <ele>700.30</ele>
        <time>2013-07-27T10:49:55Z</time>
      </trkpt>
      <trkpt lat="42.337084000" lon="-2.346241000">
        <ele>700.40</ele>
        <time>2013-07-27T10:49:56Z</time>
      </trkpt>
      <trkpt lat="42.337074000" lon="-2.346245000">
        <ele>700.40</ele>
        <time>2013-07-27T10:49:57Z</time>
      </trkpt>
      <trkpt lat="42.337061000" lon="-2.346253000">
        <ele>700.60</ele>
        <time>2013-07-27T10:49:58Z</time>
      </trkpt>
      <trkpt lat="42.337050000" lon="-2.346257000">
        <ele>700.80</ele>
        <time>2013-07-27T10:49:59Z</time>
      </trkpt>
      <trkpt lat="42.337038000" lon="-2.346258000">
        <ele>701.00</ele>
        <time>2013-07-27T10:50:00Z</time>
      </trkpt>
      <trkpt lat="42.337027000" lon="-2.346260000">
        <ele>701.20</ele>
        <time>2013-07-27T10:50:01Z</time>
      </trkpt>
      <trkpt lat="42.337018000" lon="-2.346263000">
        <ele>701.50</ele>
        <time>2013-07-27T10:50:02Z</time>
      </trkpt>
      <trkpt lat="42.337009000" lon="-2.346266000">
        <ele>701.80</ele>
        <time>2013-07-27T10:50:03Z</time>
      </trkpt>
      <trkpt lat="42.336998000" lon="-2.346265000">
        <ele>702.00</ele>
        <time>2013-07-27T10:50:04Z</time>
      </trkpt>
      <trkpt lat="42.336988000" lon="-2.346265000">
        <ele>702.20</ele>
        <time>2013-07-27T10:50:05Z</time>
      </trkpt>
      <trkpt lat="42.336976000" lon="-2.346270000">
        <ele>702.40</ele>
        <time>2013-07-27T10:50:06Z</time>
      </trkpt>
      <trkpt lat="42.336966000" lon="-2.346272000">
        <ele>702.50</ele>
        <time>2013-07-27T10:50:07Z</time>
      </trkpt>
      <trkpt lat="42.336952000" lon="-2.346278000">
        <ele>702.60</ele>
        <time>2013-07-27T10:50:08Z</time>
      </trkpt>
      <trkpt lat="42.336937000" lon="-2.346284000">
        <ele>702.60</ele>
        <time>2013-07-27T10:50:09Z</time>
      </trkpt>
      <trkpt lat="42.336925000" lon="-2.346284000">
        <ele>702.70</ele>
        <time>2013-07-27T10:50:10Z</time>
      </trkpt>
      <trkpt lat="42.336916000" lon="-2.346282000">
        <ele>702.70</ele>
        <time>2013-07-27T10:50:11Z</time>
      </trkpt>
      <trkpt lat="42.336904000" lon="-2.346282000">
        <ele>702.90</ele>
        <time>2013-07-27T10:50:12Z</time>
      </trkpt>
      <trkpt lat="42.336890000" lon="-2.346287000">
        <ele>703.00</ele>
        <time>2013-07-27T10:50:13Z</time>
      </trkpt>
      <trkpt lat="42.336879000" lon="-2.346288000">
        <ele>703.20</ele>
        <time>2013-07-27T10:50:14Z</time>
      </trkpt>
      <trkpt lat="42.336868000" lon="-2.346291000">
        <ele>703.30</ele>
        <time>2013-07-27T10:50:15Z</time>
      </trkpt>
      <trkpt lat="42.336858000" lon="-2.346297000">
        <ele>703.50</ele>
        <time>2013-07-27T10:50:16Z</time>
      </trkpt>
      <trkpt lat="42.336848000" lon="-2.346299000">
        <ele>703.60</ele>
        <time>2013-07-27T10:50:17Z</time>
      </trkpt>
      <trkpt lat="42.336838000" lon="-2.346301000">
        <ele>703.70</ele>
        <time>2013-07-27T10:50:18Z</time>
      </trkpt>
      <trkpt lat="42.336828000" lon="-2.346298000">
        <ele>703.70</ele>
        <time>2013-07-27T10:50:19Z</time>
      </trkpt>
      <trkpt lat="42.336815000" lon="-2.346306000">
        <ele>703.80</ele>
        <time>2013-07-27T10:50:20Z</time>
      </trkpt>
      <trkpt lat="42.336802000" lon="-2.346309000">
        <ele>703.80</ele>
        <time>2013-07-27T10:50:21Z</time>
      </trkpt>
      <trkpt lat="42.336790000" lon="-2.346308000">
        <ele>704.00</ele>
        <time>2013-07-27T10:50:22Z</time>
      </trkpt>
      <trkpt lat="42.336776000" lon="-2.346306000">
        <ele>704.20</ele>
        <time>2013-07-27T10:50:23Z</time>
      </trkpt>
      <trkpt lat="42.336762000" lon="-2.346308000">
        <ele>704.30</ele>
        <time>2013-07-27T10:50:24Z</time>
      </trkpt>
      <trkpt lat="42.336748000" lon="-2.346307000">
        <ele>704.40</ele>
        <time>2013-07-27T10:50:25Z</time>
      </trkpt>
      <trkpt lat="42.336735000" lon="-2.346313000">
        <ele>704.60</ele>
        <time>2013-07-27T10:50:26Z</time>
      </trkpt>
      <trkpt lat="42.336724000" lon="-2.346316000">
        <ele>704.70</ele>
        <time>2013-07-27T10:50:27Z</time>
      </trkpt>
      <trkpt lat="42.336716000" lon="-2.346319000">
        <ele>705.00</ele>
        <time>2013-07-27T10:50:28Z</time>
      </trkpt>
      <trkpt lat="42.336704000" lon="-2.346320000">
        <ele>705.30</ele>
        <time>2013-07-27T10:50:29Z</time>
      </trkpt>
      <trkpt lat="42.336690000" lon="-2.346326000">
        <ele>705.50</ele>
        <time>2013-07-27T10:50:30Z</time>
      </trkpt>
      <trkpt lat="42.336679000" lon="-2.346334000">
        <ele>705.60</ele>
        <time>2013-07-27T10:50:31Z</time>
      </trkpt>
      <trkpt lat="42.336662000" lon="-2.346331000">
        <ele>705.70</ele>
        <time>2013-07-27T10:50:32Z</time>
      </trkpt>
      <trkpt lat="42.336649000" lon="-2.346332000">
        <ele>705.70</ele>
        <time>2013-07-27T10:50:33Z</time>
      </trkpt>
      <trkpt lat="42.336636000" lon="-2.346332000">
        <ele>705.80</ele>
        <time>2013-07-27T10:50:34Z</time>
      </trkpt>
      <trkpt lat="42.336625000" lon="-2.346336000">
        <ele>705.80</ele>
        <time>2013-07-27T10:50:35Z</time>
      </trkpt>
      <trkpt lat="42.336615000" lon="-2.346341000">
        <ele>706.00</ele>
        <time>2013-07-27T10:50:36Z</time>
      </trkpt>
      <trkpt lat="42.336605000" lon="-2.346343000">
        <ele>706.20</ele>
        <time>2013-07-27T10:50:37Z</time>
      </trkpt>
      <trkpt lat="42.336595000" lon="-2.346345000">
        <ele>706.40</ele>
        <time>2013-07-27T10:50:38Z</time>
      </trkpt>
      <trkpt lat="42.336585000" lon="-2.346348000">
        <ele>706.50</ele>
        <time>2013-07-27T10:50:39Z</time>
      </trkpt>
      <trkpt lat="42.336572000" lon="-2.346353000">
        <ele>706.70</ele>
        <time>2013-07-27T10:50:40Z</time>
      </trkpt>
      <trkpt lat="42.336559000" lon="-2.346356000">
        <ele>706.80</ele>
        <time>2013-07-27T10:50:41Z</time>
      </trkpt>
      <trkpt lat="42.336548000" lon="-2.346358000">
        <ele>707.00</ele>
        <time>2013-07-27T10:50:42Z</time>
      </trkpt>
      <trkpt lat="42.336535000" lon="-2.346362000">
        <ele>707.20</ele>
        <time>2013-07-27T10:50:43Z</time>
      </trkpt>
      <trkpt lat="42.336523000" lon="-2.346366000">
        <ele>707.40</ele>
        <time>2013-07-27T10:50:44Z</time>
      </trkpt>
      <trkpt lat="42.336511000" lon="-2.346373000">
        <ele>707.60</ele>
        <time>2013-07-27T10:50:45Z</time>
      </trkpt>
      <trkpt lat="42.336496000" lon="-2.346377000">
        <ele>707.90</ele>
        <time>2013-07-27T10:50:46Z</time>
      </trkpt>
      <trkpt lat="42.336484000" lon="-2.346382000">
        <ele>708.00</ele>
        <time>2013-07-27T10:50:47Z</time>
      </trkpt>
      <trkpt lat="42.336469000" lon="-2.346387000">
        <ele>708.30</ele>
        <time>2013-07-27T10:50:48Z</time>
      </trkpt>
      <trkpt lat="42.336456000" lon="-2.346392000">
        <ele>708.40</ele>
        <time>2013-07-27T10:50:49Z</time>
      </trkpt>
      <trkpt lat="42.336446000" lon="-2.346392000">
        <ele>708.60</ele>
        <time>2013-07-27T10:50:50Z</time>
      </trkpt>
      <trkpt lat="42.336434000" lon="-2.346400000">
        <ele>708.80</ele>
        <time>2013-07-27T10:50:51Z</time>
      </trkpt>
      <trkpt lat="42.336422000" lon="-2.346407000">
        <ele>709.00</ele>
        <time>2013-07-27T10:50:52Z</time>
      </trkpt>
      <trkpt lat="42.336411000" lon="-2.346409000">
        <ele>709.10</ele>
        <time>2013-07-27T10:50:53Z</time>
      </trkpt>
      <trkpt lat="42.336402000" lon="-2.346414000">
        <ele>709.30</ele>
        <time>2013-07-27T10:50:54Z</time>
      </trkpt>
      <trkpt lat="42.336389000" lon="-2.346418000">
        <ele>709.50</ele>
        <time>2013-07-27T10:50:55Z</time>
      </trkpt>
      <trkpt lat="42.336378000" lon="-2.346428000">
        <ele>709.70</ele>
        <time>2013-07-27T10:50:56Z</time>
      </trkpt>
      <trkpt lat="42.336366000" lon="-2.346440000">
        <ele>709.80</ele>
        <time>2013-07-27T10:50:57Z</time>
      </trkpt>
      <trkpt lat="42.336352000" lon="-2.346448000">
        <ele>709.80</ele>
        <time>2013-07-27T10:50:58Z</time>
      </trkpt>
      <trkpt lat="42.336341000" lon="-2.346455000">
        <ele>709.90</ele>
        <time>2013-07-27T10:50:59Z</time>
      </trkpt>
      <trkpt lat="42.336329000" lon="-2.346465000">
        <ele>710.00</ele>
        <time>2013-07-27T10:51:00Z</time>
      </trkpt>
      <trkpt lat="42.336318000" lon="-2.346476000">
        <ele>710.10</ele>
        <time>2013-07-27T10:51:01Z</time>
      </trkpt>
      <trkpt lat="42.336308000" lon="-2.346486000">
        <ele>710.40</ele>
        <time>2013-07-27T10:51:02Z</time>
      </trkpt>
      <trkpt lat="42.336298000" lon="-2.346494000">
        <ele>710.60</ele>
        <time>2013-07-27T10:51:03Z</time>
      </trkpt>
      <trkpt lat="42.336286000" lon="-2.346501000">
        <ele>710.80</ele>
        <time>2013-07-27T10:51:04Z</time>
      </trkpt>
      <trkpt lat="42.336275000" lon="-2.346511000">
        <ele>711.00</ele>
        <time>2013-07-27T10:51:05Z</time>
      </trkpt>
      <trkpt lat="42.336264000" lon="-2.346519000">
        <ele>711.10</ele>
        <time>2013-07-27T10:51:06Z</time>
      </trkpt>
      <trkpt lat="42.336252000" lon="-2.346526000">
        <ele>711.20</ele>
        <time>2013-07-27T10:51:07Z</time>
      </trkpt>
      <trkpt lat="42.336241000" lon="-2.346537000">
        <ele>711.40</ele>
        <time>2013-07-27T10:51:08Z</time>
      </trkpt>
      <trkpt lat="42.336231000" lon="-2.346550000">
        <ele>711.60</ele>
        <time>2013-07-27T10:51:09Z</time>
      </trkpt>
      <trkpt lat="42.336220000" lon="-2.346563000">
        <ele>711.70</ele>
        <time>2013-07-27T10:51:10Z</time>
      </trkpt>
      <trkpt lat="42.336207000" lon="-2.346569000">
        <ele>711.80</ele>
        <time>2013-07-27T10:51:11Z</time>
      </trkpt>
      <trkpt lat="42.336198000" lon="-2.346567000">
        <ele>712.00</ele>
        <time>2013-07-27T10:51:12Z</time>
      </trkpt>
      <trkpt lat="42.336188000" lon="-2.346576000">
        <ele>712.10</ele>
        <time>2013-07-27T10:51:13Z</time>
      </trkpt>
      <trkpt lat="42.336177000" lon="-2.346578000">
        <ele>712.10</ele>
        <time>2013-07-27T10:51:14Z</time>
      </trkpt>
      <trkpt lat="42.336164000" lon="-2.346582000">
        <ele>712.20</ele>
        <time>2013-07-27T10:51:15Z</time>
      </trkpt>
      <trkpt lat="42.336154000" lon="-2.346588000">
        <ele>712.20</ele>
        <time>2013-07-27T10:51:16Z</time>
      </trkpt>
      <trkpt lat="42.336144000" lon="-2.346593000">
        <ele>712.20</ele>
        <time>2013-07-27T10:51:17Z</time>
      </trkpt>
      <trkpt lat="42.336132000" lon="-2.346601000">
        <ele>712.20</ele>
        <time>2013-07-27T10:51:18Z</time>
      </trkpt>
      <trkpt lat="42.336121000" lon="-2.346608000">
        <ele>712.20</ele>
        <time>2013-07-27T10:51:19Z</time>
      </trkpt>
      <trkpt lat="42.336110000" lon="-2.346617000">
        <ele>712.40</ele>
        <time>2013-07-27T10:51:20Z</time>
      </trkpt>
      <trkpt lat="42.336096000" lon="-2.346622000">
        <ele>712.60</ele>
        <time>2013-07-27T10:51:21Z</time>
      </trkpt>
      <trkpt lat="42.336082000" lon="-2.346628000">
        <ele>712.70</ele>
        <time>2013-07-27T10:51:22Z</time>
      </trkpt>
      <trkpt lat="42.336073000" lon="-2.346636000">
        <ele>712.80</ele>
        <time>2013-07-27T10:51:23Z</time>
      </trkpt>
      <trkpt lat="42.336062000" lon="-2.346639000">
        <ele>712.90</ele>
        <time>2013-07-27T10:51:24Z</time>
      </trkpt>
      <trkpt lat="42.336049000" lon="-2.346646000">
        <ele>712.90</ele>
        <time>2013-07-27T10:51:25Z</time>
      </trkpt>
      <trkpt lat="42.336034000" lon="-2.346651000">
        <ele>712.90</ele>
        <time>2013-07-27T10:51:26Z</time>
      </trkpt>
      <trkpt lat="42.336020000" lon="-2.346656000">
        <ele>712.90</ele>
        <time>2013-07-27T10:51:27Z</time>
      </trkpt>
      <trkpt lat="42.336006000" lon="-2.346660000">
        <ele>713.10</ele>
        <time>2013-07-27T10:51:28Z</time>
      </trkpt>
      <trkpt lat="42.335992000" lon="-2.346661000">
        <ele>713.30</ele>
        <time>2013-07-27T10:51:29Z</time>
      </trkpt>
      <trkpt lat="42.335980000" lon="-2.346663000">
        <ele>713.40</ele>
        <time>2013-07-27T10:51:30Z</time>
      </trkpt>
      <trkpt lat="42.335968000" lon="-2.346667000">
        <ele>713.50</ele>
        <time>2013-07-27T10:51:31Z</time>
      </trkpt>
      <trkpt lat="42.335953000" lon="-2.346670000">
        <ele>713.70</ele>
        <time>2013-07-27T10:51:32Z</time>
      </trkpt>
      <trkpt lat="42.335942000" lon="-2.346670000">
        <ele>713.80</ele>
        <time>2013-07-27T10:51:33Z</time>
      </trkpt>
      <trkpt lat="42.335931000" lon="-2.346674000">
        <ele>714.00</ele>
        <time>2013-07-27T10:51:34Z</time>
      </trkpt>
      <trkpt lat="42.335917000" lon="-2.346679000">
        <ele>714.20</ele>
        <time>2013-07-27T10:51:35Z</time>
      </trkpt>
      <trkpt lat="42.335905000" lon="-2.346682000">
        <ele>714.30</ele>
        <time>2013-07-27T10:51:36Z</time>
      </trkpt>
      <trkpt lat="42.335892000" lon="-2.346689000">
        <ele>714.40</ele>
        <time>2013-07-27T10:51:37Z</time>
      </trkpt>
      <trkpt lat="42.335880000" lon="-2.346692000">
        <ele>714.50</ele>
        <time>2013-07-27T10:51:38Z</time>
      </trkpt>
      <trkpt lat="42.335868000" lon="-2.346694000">
        <ele>714.60</ele>
        <time>2013-07-27T10:51:39Z</time>
      </trkpt>
      <trkpt lat="42.335854000" lon="-2.346700000">
        <ele>714.70</ele>
        <time>2013-07-27T10:51:40Z</time>
      </trkpt>
      <trkpt lat="42.335843000" lon="-2.346704000">
        <ele>714.80</ele>
        <time>2013-07-27T10:51:41Z</time>
      </trkpt>
      <trkpt lat="42.335832000" lon="-2.346705000">
        <ele>715.00</ele>
        <time>2013-07-27T10:51:42Z</time>
      </trkpt>
      <trkpt lat="42.335823000" lon="-2.346703000">
        <ele>715.20</ele>
        <time>2013-07-27T10:51:43Z</time>
      </trkpt>
      <trkpt lat="42.335810000" lon="-2.346699000">
        <ele>715.50</ele>
        <time>2013-07-27T10:51:44Z</time>
      </trkpt>
      <trkpt lat="42.335797000" lon="-2.346702000">
        <ele>715.80</ele>
        <time>2013-07-27T10:51:45Z</time>
      </trkpt>
      <trkpt lat="42.335778000" lon="-2.346712000">
        <ele>716.00</ele>
        <time>2013-07-27T10:51:46Z</time>
      </trkpt>
      <trkpt lat="42.335769000" lon="-2.346725000">
        <ele>716.20</ele>
        <time>2013-07-27T10:51:47Z</time>
      </trkpt>
      <trkpt lat="42.335759000" lon="-2.346724000">
        <ele>716.30</ele>
        <time>2013-07-27T10:51:48Z</time>
      </trkpt>
      <trkpt lat="42.335747000" lon="-2.346724000">
        <ele>716.40</ele>
        <time>2013-07-27T10:51:49Z</time>
      </trkpt>
      <trkpt lat="42.335736000" lon="-2.346726000">
        <ele>716.40</ele>
        <time>2013-07-27T10:51:50Z</time>
      </trkpt>
      <trkpt lat="42.335724000" lon="-2.346728000">
        <ele>716.50</ele>
        <time>2013-07-27T10:51:51Z</time>
      </trkpt>
      <trkpt lat="42.335712000" lon="-2.346726000">
        <ele>716.60</ele>
        <time>2013-07-27T10:51:52Z</time>
      </trkpt>
      <trkpt lat="42.335701000" lon="-2.346727000">
        <ele>716.70</ele>
        <time>2013-07-27T10:51:53Z</time>
      </trkpt>
      <trkpt lat="42.335689000" lon="-2.346733000">
        <ele>716.90</ele>
        <time>2013-07-27T10:51:54Z</time>
      </trkpt>
      <trkpt lat="42.335676000" lon="-2.346738000">
        <ele>717.10</ele>
        <time>2013-07-27T10:51:55Z</time>
      </trkpt>
      <trkpt lat="42.335667000" lon="-2.346739000">
        <ele>717.40</ele>
        <time>2013-07-27T10:51:56Z</time>
      </trkpt>
      <trkpt lat="42.335656000" lon="-2.346738000">
        <ele>717.70</ele>
        <time>2013-07-27T10:51:57Z</time>
      </trkpt>
      <trkpt lat="42.335642000" lon="-2.346734000">
        <ele>717.90</ele>
        <time>2013-07-27T10:51:58Z</time>
      </trkpt>
      <trkpt lat="42.335627000" lon="-2.346739000">
        <ele>718.00</ele>
        <time>2013-07-27T10:51:59Z</time>
      </trkpt>
      <trkpt lat="42.335614000" lon="-2.346742000">
        <ele>718.20</ele>
        <time>2013-07-27T10:52:00Z</time>
      </trkpt>
      <trkpt lat="42.335602000" lon="-2.346743000">
        <ele>718.20</ele>
        <time>2013-07-27T10:52:01Z</time>
      </trkpt>
      <trkpt lat="42.335591000" lon="-2.346745000">
        <ele>718.40</ele>
        <time>2013-07-27T10:52:02Z</time>
      </trkpt>
      <trkpt lat="42.335578000" lon="-2.346742000">
        <ele>718.50</ele>
        <time>2013-07-27T10:52:03Z</time>
      </trkpt>
      <trkpt lat="42.335564000" lon="-2.346739000">
        <ele>718.60</ele>
        <time>2013-07-27T10:52:04Z</time>
      </trkpt>
      <trkpt lat="42.335550000" lon="-2.346738000">
        <ele>718.70</ele>
        <time>2013-07-27T10:52:05Z</time>
      </trkpt>
      <trkpt lat="42.335536000" lon="-2.346737000">
        <ele>718.70</ele>
        <time>2013-07-27T10:52:06Z</time>
      </trkpt>
      <trkpt lat="42.335525000" lon="-2.346737000">
        <ele>718.80</ele>
        <time>2013-07-27T10:52:07Z</time>
      </trkpt>
      <trkpt lat="42.335514000" lon="-2.346743000">
        <ele>718.70</ele>
        <time>2013-07-27T10:52:08Z</time>
      </trkpt>
      <trkpt lat="42.335504000" lon="-2.346756000">
        <ele>718.70</ele>
        <time>2013-07-27T10:52:09Z</time>
      </trkpt>
      <trkpt lat="42.335497000" lon="-2.346761000">
        <ele>718.70</ele>
        <time>2013-07-27T10:52:10Z</time>
      </trkpt>
      <trkpt lat="42.335488000" lon="-2.346765000">
        <ele>718.70</ele>
        <time>2013-07-27T10:52:11Z</time>
      </trkpt>
      <trkpt lat="42.335478000" lon="-2.346768000">
        <ele>719.20</ele>
        <time>2013-07-27T10:52:12Z</time>
      </trkpt>
      <trkpt lat="42.335466000" lon="-2.346773000">
        <ele>719.60</ele>
        <time>2013-07-27T10:52:13Z</time>
      </trkpt>
      <trkpt lat="42.335455000" lon="-2.346779000">
        <ele>719.90</ele>
        <time>2013-07-27T10:52:14Z</time>
      </trkpt>
      <trkpt lat="42.335445000" lon="-2.346783000">
        <ele>720.20</ele>
        <time>2013-07-27T10:52:15Z</time>
      </trkpt>
      <trkpt lat="42.335433000" lon="-2.346781000">
        <ele>720.30</ele>
        <time>2013-07-27T10:52:16Z</time>
      </trkpt>
      <trkpt lat="42.335421000" lon="-2.346785000">
        <ele>720.40</ele>
        <time>2013-07-27T10:52:17Z</time>
      </trkpt>
      <trkpt lat="42.335410000" lon="-2.346788000">
        <ele>720.50</ele>
        <time>2013-07-27T10:52:18Z</time>
      </trkpt>
      <trkpt lat="42.335398000" lon="-2.346795000">
        <ele>720.60</ele>
        <time>2013-07-27T10:52:19Z</time>
      </trkpt>
      <trkpt lat="42.335387000" lon="-2.346795000">
        <ele>720.90</ele>
        <time>2013-07-27T10:52:20Z</time>
      </trkpt>
      <trkpt lat="42.335375000" lon="-2.346797000">
        <ele>721.10</ele>
        <time>2013-07-27T10:52:21Z</time>
      </trkpt>
      <trkpt lat="42.335361000" lon="-2.346804000">
        <ele>721.30</ele>
        <time>2013-07-27T10:52:22Z</time>
      </trkpt>
      <trkpt lat="42.335348000" lon="-2.346809000">
        <ele>721.40</ele>
        <time>2013-07-27T10:52:23Z</time>
      </trkpt>
      <trkpt lat="42.335336000" lon="-2.346808000">
        <ele>721.60</ele>
        <time>2013-07-27T10:52:24Z</time>
      </trkpt>
      <trkpt lat="42.335324000" lon="-2.346814000">
        <ele>721.70</ele>
        <time>2013-07-27T10:52:25Z</time>
      </trkpt>
      <trkpt lat="42.335310000" lon="-2.346823000">
        <ele>721.60</ele>
        <time>2013-07-27T10:52:26Z</time>
      </trkpt>
      <trkpt lat="42.335295000" lon="-2.346839000">
        <ele>721.60</ele>
        <time>2013-07-27T10:52:27Z</time>
      </trkpt>
      <trkpt lat="42.335284000" lon="-2.346843000">
        <ele>721.70</ele>
        <time>2013-07-27T10:52:28Z</time>
      </trkpt>
      <trkpt lat="42.335274000" lon="-2.346846000">
        <ele>721.80</ele>
        <time>2013-07-27T10:52:29Z</time>
      </trkpt>
      <trkpt lat="42.335264000" lon="-2.346849000">
        <ele>722.00</ele>
        <time>2013-07-27T10:52:30Z</time>
      </trkpt>
      <trkpt lat="42.335250000" lon="-2.346856000">
        <ele>722.20</ele>
        <time>2013-07-27T10:52:31Z</time>
      </trkpt>
      <trkpt lat="42.335239000" lon="-2.346854000">
        <ele>722.50</ele>
        <time>2013-07-27T10:52:32Z</time>
      </trkpt>
      <trkpt lat="42.335227000" lon="-2.346850000">
        <ele>722.60</ele>
        <time>2013-07-27T10:52:33Z</time>
      </trkpt>
      <trkpt lat="42.335213000" lon="-2.346847000">
        <ele>722.80</ele>
        <time>2013-07-27T10:52:34Z</time>
      </trkpt>
      <trkpt lat="42.335200000" lon="-2.346847000">
        <ele>722.90</ele>
        <time>2013-07-27T10:52:35Z</time>
      </trkpt>
      <trkpt lat="42.335187000" lon="-2.346853000">
        <ele>723.30</ele>
        <time>2013-07-27T10:52:36Z</time>
      </trkpt>
      <trkpt lat="42.335171000" lon="-2.346859000">
        <ele>723.60</ele>
        <time>2013-07-27T10:52:37Z</time>
      </trkpt>
      <trkpt lat="42.335160000" lon="-2.346861000">
        <ele>723.70</ele>
        <time>2013-07-27T10:52:38Z</time>
      </trkpt>
      <trkpt lat="42.335146000" lon="-2.346869000">
        <ele>723.80</ele>
        <time>2013-07-27T10:52:39Z</time>
      </trkpt>
      <trkpt lat="42.335136000" lon="-2.346870000">
        <ele>724.00</ele>
        <time>2013-07-27T10:52:40Z</time>
      </trkpt>
      <trkpt lat="42.335124000" lon="-2.346873000">
        <ele>724.10</ele>
        <time>2013-07-27T10:52:41Z</time>
      </trkpt>
      <trkpt lat="42.335113000" lon="-2.346880000">
        <ele>724.20</ele>
        <time>2013-07-27T10:52:42Z</time>
      </trkpt>
      <trkpt lat="42.335101000" lon="-2.346886000">
        <ele>724.40</ele>
        <time>2013-07-27T10:52:43Z</time>
      </trkpt>
      <trkpt lat="42.335086000" lon="-2.346891000">
        <ele>724.40</ele>
        <time>2013-07-27T10:52:44Z</time>
      </trkpt>
      <trkpt lat="42.335072000" lon="-2.346895000">
        <ele>724.50</ele>
        <time>2013-07-27T10:52:45Z</time>
      </trkpt>
      <trkpt lat="42.335054000" lon="-2.346901000">
        <ele>724.70</ele>
        <time>2013-07-27T10:52:46Z</time>
      </trkpt>
      <trkpt lat="42.335041000" lon="-2.346902000">
        <ele>724.90</ele>
        <time>2013-07-27T10:52:47Z</time>
      </trkpt>
      <trkpt lat="42.335031000" lon="-2.346912000">
        <ele>725.00</ele>
        <time>2013-07-27T10:52:48Z</time>
      </trkpt>
      <trkpt lat="42.335021000" lon="-2.346915000">
        <ele>725.10</ele>
        <time>2013-07-27T10:52:49Z</time>
      </trkpt>
      <trkpt lat="42.335008000" lon="-2.346921000">
        <ele>725.20</ele>
        <time>2013-07-27T10:52:50Z</time>
      </trkpt>
      <trkpt lat="42.334993000" lon="-2.346929000">
        <ele>725.40</ele>
        <time>2013-07-27T10:52:51Z</time>
      </trkpt>
      <trkpt lat="42.334982000" lon="-2.346932000">
        <ele>725.60</ele>
        <time>2013-07-27T10:52:52Z</time>
      </trkpt>
      <trkpt lat="42.334972000" lon="-2.346930000">
        <ele>725.80</ele>
        <time>2013-07-27T10:52:53Z</time>
      </trkpt>
      <trkpt lat="42.334960000" lon="-2.346932000">
        <ele>726.00</ele>
        <time>2013-07-27T10:52:54Z</time>
      </trkpt>
      <trkpt lat="42.334949000" lon="-2.346933000">
        <ele>726.20</ele>
        <time>2013-07-27T10:52:55Z</time>
      </trkpt>
      <trkpt lat="42.334939000" lon="-2.346935000">
        <ele>726.50</ele>
        <time>2013-07-27T10:52:56Z</time>
      </trkpt>
      <trkpt lat="42.334927000" lon="-2.346932000">
        <ele>726.80</ele>
        <time>2013-07-27T10:52:57Z</time>
      </trkpt>
      <trkpt lat="42.334916000" lon="-2.346932000">
        <ele>727.00</ele>
        <time>2013-07-27T10:52:58Z</time>
      </trkpt>
      <trkpt lat="42.334905000" lon="-2.346936000">
        <ele>727.20</ele>
        <time>2013-07-27T10:52:59Z</time>
      </trkpt>
      <trkpt lat="42.334895000" lon="-2.346941000">
        <ele>727.40</ele>
        <time>2013-07-27T10:53:00Z</time>
      </trkpt>
      <trkpt lat="42.334885000" lon="-2.346943000">
        <ele>727.50</ele>
        <time>2013-07-27T10:53:01Z</time>
      </trkpt>
      <trkpt lat="42.334871000" lon="-2.346946000">
        <ele>727.60</ele>
        <time>2013-07-27T10:53:02Z</time>
      </trkpt>
      <trkpt lat="42.334862000" lon="-2.346948000">
        <ele>727.70</ele>
        <time>2013-07-27T10:53:03Z</time>
      </trkpt>
      <trkpt lat="42.334851000" lon="-2.346949000">
        <ele>727.80</ele>
        <time>2013-07-27T10:53:04Z</time>
      </trkpt>
      <trkpt lat="42.334838000" lon="-2.346954000">
        <ele>727.90</ele>
        <time>2013-07-27T10:53:05Z</time>
      </trkpt>
      <trkpt lat="42.334827000" lon="-2.346957000">
        <ele>728.10</ele>
        <time>2013-07-27T10:53:06Z</time>
      </trkpt>
      <trkpt lat="42.334818000" lon="-2.346958000">
        <ele>728.20</ele>
        <time>2013-07-27T10:53:07Z</time>
      </trkpt>
      <trkpt lat="42.334809000" lon="-2.346960000">
        <ele>728.40</ele>
        <time>2013-07-27T10:53:08Z</time>
      </trkpt>
      <trkpt lat="42.334799000" lon="-2.346962000">
        <ele>728.50</ele>
        <time>2013-07-27T10:53:09Z</time>
      </trkpt>
      <trkpt lat="42.334792000" lon="-2.346963000">
        <ele>728.70</ele>
        <time>2013-07-27T10:53:10Z</time>
      </trkpt>
      <trkpt lat="42.334787000" lon="-2.346964000">
        <ele>728.90</ele>
        <time>2013-07-27T10:53:11Z</time>
      </trkpt>
      <trkpt lat="42.334775000" lon="-2.346969000">
        <ele>729.10</ele>
        <time>2013-07-27T10:53:12Z</time>
      </trkpt>
      <trkpt lat="42.334767000" lon="-2.346969000">
        <ele>729.30</ele>
        <time>2013-07-27T10:53:13Z</time>
      </trkpt>
      <trkpt lat="42.334755000" lon="-2.346977000">
        <ele>729.50</ele>
        <time>2013-07-27T10:53:14Z</time>
      </trkpt>
      <trkpt lat="42.334746000" lon="-2.346978000">
        <ele>729.70</ele>
        <time>2013-07-27T10:53:15Z</time>
      </trkpt>
      <trkpt lat="42.334738000" lon="-2.346978000">
        <ele>729.90</ele>
        <time>2013-07-27T10:53:16Z</time>
      </trkpt>
      <trkpt lat="42.334736000" lon="-2.346968000">
        <ele>730.10</ele>
        <time>2013-07-27T10:53:17Z</time>
      </trkpt>
      <trkpt lat="42.334736000" lon="-2.346973000">
        <ele>730.20</ele>
        <time>2013-07-27T10:53:18Z</time>
      </trkpt>
      <trkpt lat="42.334734000" lon="-2.346972000">
        <ele>730.30</ele>
        <time>2013-07-27T10:53:19Z</time>
      </trkpt>
      <trkpt lat="42.334734000" lon="-2.346972000">
        <ele>730.30</ele>
        <time>2013-07-27T10:53:20Z</time>
      </trkpt>
      <trkpt lat="42.334735000" lon="-2.346975000">
        <ele>730.40</ele>
        <time>2013-07-27T10:53:21Z</time>
      </trkpt>
      <trkpt lat="42.334734000" lon="-2.346974000">
        <ele>730.30</ele>
        <time>2013-07-27T10:53:22Z</time>
      </trkpt>
      <trkpt lat="42.334732000" lon="-2.346975000">
        <ele>730.20</ele>
        <time>2013-07-27T10:53:23Z</time>
      </trkpt>
      <trkpt lat="42.334732000" lon="-2.346976000">
        <ele>730.20</ele>
        <time>2013-07-27T10:53:24Z</time>
      </trkpt>
      <trkpt lat="42.334731000" lon="-2.346977000">
        <ele>730.20</ele>
        <time>2013-07-27T10:53:25Z</time>
      </trkpt>
      <trkpt lat="42.334732000" lon="-2.346979000">
        <ele>730.20</ele>
        <time>2013-07-27T10:53:26Z</time>
      </trkpt>
      <trkpt lat="42.334733000" lon="-2.346976000">
        <ele>730.20</ele>
        <time>2013-07-27T10:53:27Z</time>
      </trkpt>
      <trkpt lat="42.334736000" lon="-2.346969000">
        <ele>730.30</ele>
        <time>2013-07-27T10:53:28Z</time>
      </trkpt>
      <trkpt lat="42.334736000" lon="-2.346969000">
        <ele>730.40</ele>
        <time>2013-07-27T10:53:29Z</time>
      </trkpt>
      <trkpt lat="42.334735000" lon="-2.346967000">
        <ele>730.60</ele>
        <time>2013-07-27T10:53:30Z</time>
      </trkpt>
      <trkpt lat="42.334735000" lon="-2.346964000">
        <ele>730.80</ele>
        <time>2013-07-27T10:53:31Z</time>
      </trkpt>
      <trkpt lat="42.334736000" lon="-2.346959000">
        <ele>730.90</ele>
        <time>2013-07-27T10:53:32Z</time>
      </trkpt>
      <trkpt lat="42.334738000" lon="-2.346958000">
        <ele>731.00</ele>
        <time>2013-07-27T10:53:33Z</time>
      </trkpt>
      <trkpt lat="42.334741000" lon="-2.346956000">
        <ele>731.10</ele>
        <time>2013-07-27T10:53:34Z</time>
      </trkpt>
      <trkpt lat="42.334742000" lon="-2.346959000">
        <ele>731.10</ele>
        <time>2013-07-27T10:53:35Z</time>
      </trkpt>
      <trkpt lat="42.334744000" lon="-2.346959000">
        <ele>731.20</ele>
        <time>2013-07-27T10:53:36Z</time>
      </trkpt>
      <trkpt lat="42.334745000" lon="-2.346962000">
        <ele>731.20</ele>
        <time>2013-07-27T10:53:37Z</time>
      </trkpt>
      <trkpt lat="42.334748000" lon="-2.346960000">
        <ele>731.20</ele>
        <time>2013-07-27T10:53:38Z</time>
      </trkpt>
      <trkpt lat="42.334749000" lon="-2.346961000">
        <ele>731.20</ele>
        <time>2013-07-27T10:53:39Z</time>
      </trkpt>
      <trkpt lat="42.334749000" lon="-2.346964000">
        <ele>731.30</ele>
        <time>2013-07-27T10:53:40Z</time>
      </trkpt>
      <trkpt lat="42.334748000" lon="-2.346967000">
        <ele>731.30</ele>
        <time>2013-07-27T10:53:41Z</time>
      </trkpt>
      <trkpt lat="42.334746000" lon="-2.346971000">
        <ele>731.30</ele>
        <time>2013-07-27T10:53:42Z</time>
      </trkpt>
      <trkpt lat="42.334745000" lon="-2.346974000">
        <ele>731.40</ele>
        <time>2013-07-27T10:53:43Z</time>
      </trkpt>
      <trkpt lat="42.334742000" lon="-2.346977000">
        <ele>731.40</ele>
        <time>2013-07-27T10:53:44Z</time>
      </trkpt>
      <trkpt lat="42.334740000" lon="-2.346977000">
        <ele>731.40</ele>
        <time>2013-07-27T10:53:45Z</time>
      </trkpt>
      <trkpt lat="42.334741000" lon="-2.346976000">
        <ele>731.30</ele>
        <time>2013-07-27T10:53:46Z</time>
      </trkpt>
      <trkpt lat="42.334742000" lon="-2.346978000">
        <ele>731.30</ele>
        <time>2013-07-27T10:53:47Z</time>
      </trkpt>
      <trkpt lat="42.334746000" lon="-2.346979000">
        <ele>731.30</ele>
        <time>2013-07-27T10:53:48Z</time>
      </trkpt>
      <trkpt lat="42.334748000" lon="-2.346978000">
        <ele>731.30</ele>
        <time>2013-07-27T10:53:49Z</time>
      </trkpt>
      <trkpt lat="42.334745000" lon="-2.346978000">
        <ele>731.30</ele>
        <time>2013-07-27T10:53:50Z</time>
      </trkpt>
      <trkpt lat="42.334742000" lon="-2.346977000">
        <ele>731.30</ele>
        <time>2013-07-27T10:53:51Z</time>
      </trkpt>
      <trkpt lat="42.334741000" lon="-2.346977000">
        <ele>731.30</ele>
        <time>2013-07-27T10:53:52Z</time>
      </trkpt>
      <trkpt lat="42.334741000" lon="-2.346974000">
        <ele>731.30</ele>
        <time>2013-07-27T10:53:53Z</time>
      </trkpt>
      <trkpt lat="42.334739000" lon="-2.346972000">
        <ele>731.30</ele>
        <time>2013-07-27T10:53:54Z</time>
      </trkpt>
      <trkpt lat="42.334739000" lon="-2.346973000">
        <ele>731.30</ele>
        <time>2013-07-27T10:53:55Z</time>
      </trkpt>
      <trkpt lat="42.334739000" lon="-2.346972000">
        <ele>731.40</ele>
        <time>2013-07-27T10:53:56Z</time>
      </trkpt>
      <trkpt lat="42.334739000" lon="-2.346973000">
        <ele>731.50</ele>
        <time>2013-07-27T10:53:57Z</time>
      </trkpt>
      <trkpt lat="42.334740000" lon="-2.346975000">
        <ele>731.50</ele>
        <time>2013-07-27T10:53:58Z</time>
      </trkpt>
      <trkpt lat="42.334740000" lon="-2.346976000">
        <ele>731.60</ele>
        <time>2013-07-27T10:53:59Z</time>
      </trkpt>
      <trkpt lat="42.334741000" lon="-2.346975000">
        <ele>731.60</ele>
        <time>2013-07-27T10:54:00Z</time>
      </trkpt>
      <trkpt lat="42.334741000" lon="-2.346975000">
        <ele>731.60</ele>
        <time>2013-07-27T10:54:01Z</time>
      </trkpt>
      <trkpt lat="42.334740000" lon="-2.346977000">
        <ele>731.70</ele>
        <time>2013-07-27T10:54:02Z</time>
      </trkpt>
      <trkpt lat="42.334742000" lon="-2.346976000">
        <ele>731.70</ele>
        <time>2013-07-27T10:54:03Z</time>
      </trkpt>
      <trkpt lat="42.334742000" lon="-2.346977000">
        <ele>731.70</ele>
        <time>2013-07-27T10:54:04Z</time>
      </trkpt>
      <trkpt lat="42.334742000" lon="-2.346975000">
        <ele>731.70</ele>
        <time>2013-07-27T10:54:05Z</time>
      </trkpt>
      <trkpt lat="42.334743000" lon="-2.346971000">
        <ele>731.70</ele>
        <time>2013-07-27T10:54:06Z</time>
      </trkpt>
      <trkpt lat="42.334744000" lon="-2.346968000">
        <ele>731.70</ele>
        <time>2013-07-27T10:54:07Z</time>
      </trkpt>
      <trkpt lat="42.334746000" lon="-2.346961000">
        <ele>731.60</ele>
        <time>2013-07-27T10:54:08Z</time>
      </trkpt>
      <trkpt lat="42.334746000" lon="-2.346960000">
        <ele>731.50</ele>
        <time>2013-07-27T10:54:09Z</time>
      </trkpt>
      <trkpt lat="42.334746000" lon="-2.346959000">
        <ele>731.40</ele>
        <time>2013-07-27T10:54:10Z</time>
      </trkpt>
      <trkpt lat="42.334747000" lon="-2.346957000">
        <ele>731.30</ele>
        <time>2013-07-27T10:54:11Z</time>
      </trkpt>
      <trkpt lat="42.334747000" lon="-2.346958000">
        <ele>731.20</ele>
        <time>2013-07-27T10:54:12Z</time>
      </trkpt>
      <trkpt lat="42.334750000" lon="-2.346957000">
        <ele>731.10</ele>
        <time>2013-07-27T10:54:13Z</time>
      </trkpt>
      <trkpt lat="42.334750000" lon="-2.346960000">
        <ele>731.20</ele>
        <time>2013-07-27T10:54:14Z</time>
      </trkpt>
      <trkpt lat="42.334749000" lon="-2.346959000">
        <ele>731.20</ele>
        <time>2013-07-27T10:54:15Z</time>
      </trkpt>
      <trkpt lat="42.334751000" lon="-2.346954000">
        <ele>731.10</ele>
        <time>2013-07-27T10:54:16Z</time>
      </trkpt>
      <trkpt lat="42.334752000" lon="-2.346955000">
        <ele>731.00</ele>
        <time>2013-07-27T10:54:17Z</time>
      </trkpt>
      <trkpt lat="42.334754000" lon="-2.346956000">
        <ele>731.00</ele>
        <time>2013-07-27T10:54:18Z</time>
      </trkpt>
      <trkpt lat="42.334755000" lon="-2.346957000">
        <ele>731.00</ele>
        <time>2013-07-27T10:54:19Z</time>
      </trkpt>
      <trkpt lat="42.334755000" lon="-2.346958000">
        <ele>731.10</ele>
        <time>2013-07-27T10:54:20Z</time>
      </trkpt>
      <trkpt lat="42.334755000" lon="-2.346960000">
        <ele>731.10</ele>
        <time>2013-07-27T10:54:21Z</time>
      </trkpt>
      <trkpt lat="42.334754000" lon="-2.346962000">
        <ele>731.10</ele>
        <time>2013-07-27T10:54:22Z</time>
      </trkpt>
      <trkpt lat="42.334754000" lon="-2.346963000">
        <ele>731.10</ele>
        <time>2013-07-27T10:54:23Z</time>
      </trkpt>
      <trkpt lat="42.334754000" lon="-2.346965000">
        <ele>730.90</ele>
        <time>2013-07-27T10:54:24Z</time>
      </trkpt>
      <trkpt lat="42.334752000" lon="-2.346966000">
        <ele>730.90</ele>
        <time>2013-07-27T10:54:25Z</time>
      </trkpt>
      <trkpt lat="42.334751000" lon="-2.346965000">
        <ele>730.80</ele>
        <time>2013-07-27T10:54:26Z</time>
      </trkpt>
      <trkpt lat="42.334751000" lon="-2.346965000">
        <ele>730.80</ele>
        <time>2013-07-27T10:54:27Z</time>
      </trkpt>
      <trkpt lat="42.334751000" lon="-2.346966000">
        <ele>730.80</ele>
        <time>2013-07-27T10:54:28Z</time>
      </trkpt>
      <trkpt lat="42.334750000" lon="-2.346967000">
        <ele>730.90</ele>
        <time>2013-07-27T10:54:29Z</time>
      </trkpt>
      <trkpt lat="42.334750000" lon="-2.346969000">
        <ele>730.90</ele>
        <time>2013-07-27T10:54:30Z</time>
      </trkpt>
      <trkpt lat="42.334751000" lon="-2.346971000">
        <ele>731.00</ele>
        <time>2013-07-27T10:54:31Z</time>
      </trkpt>
      <trkpt lat="42.334749000" lon="-2.346972000">
        <ele>731.00</ele>
        <time>2013-07-27T10:54:32Z</time>
      </trkpt>
      <trkpt lat="42.334749000" lon="-2.346971000">
        <ele>731.00</ele>
        <time>2013-07-27T10:54:33Z</time>
      </trkpt>
      <trkpt lat="42.334747000" lon="-2.346970000">
        <ele>731.00</ele>
        <time>2013-07-27T10:54:34Z</time>
      </trkpt>
      <trkpt lat="42.334745000" lon="-2.346969000">
        <ele>730.90</ele>
        <time>2013-07-27T10:54:35Z</time>
      </trkpt>
      <trkpt lat="42.334743000" lon="-2.346968000">
        <ele>731.00</ele>
        <time>2013-07-27T10:54:36Z</time>
      </trkpt>
      <trkpt lat="42.334742000" lon="-2.346968000">
        <ele>731.00</ele>
        <time>2013-07-27T10:54:37Z</time>
      </trkpt>
      <trkpt lat="42.334743000" lon="-2.346970000">
        <ele>730.90</ele>
        <time>2013-07-27T10:54:38Z</time>
      </trkpt>
      <trkpt lat="42.334744000" lon="-2.346971000">
        <ele>730.80</ele>
        <time>2013-07-27T10:54:39Z</time>
      </trkpt>
      <trkpt lat="42.334746000" lon="-2.346970000">
        <ele>730.80</ele>
        <time>2013-07-27T10:54:40Z</time>
      </trkpt>
      <trkpt lat="42.334749000" lon="-2.346969000">
        <ele>730.80</ele>
        <time>2013-07-27T10:54:41Z</time>
      </trkpt>
      <trkpt lat="42.334749000" lon="-2.346969000">
        <ele>730.80</ele>
        <time>2013-07-27T10:54:42Z</time>
      </trkpt>
      <trkpt lat="42.334748000" lon="-2.346969000">
        <ele>730.70</ele>
        <time>2013-07-27T10:54:43Z</time>
      </trkpt>
      <trkpt lat="42.334744000" lon="-2.346970000">
        <ele>730.80</ele>
        <time>2013-07-27T10:54:44Z</time>
      </trkpt>
      <trkpt lat="42.334742000" lon="-2.346971000">
        <ele>730.80</ele>
        <time>2013-07-27T10:54:45Z</time>
      </trkpt>
      <trkpt lat="42.334739000" lon="-2.346972000">
        <ele>730.90</ele>
        <time>2013-07-27T10:54:46Z</time>
      </trkpt>
      <trkpt lat="42.334739000" lon="-2.346972000">
        <ele>730.90</ele>
        <time>2013-07-27T10:54:47Z</time>
      </trkpt>
      <trkpt lat="42.334740000" lon="-2.346971000">
        <ele>731.00</ele>
        <time>2013-07-27T10:54:48Z</time>
      </trkpt>
      <trkpt lat="42.334739000" lon="-2.346970000">
        <ele>731.10</ele>
        <time>2013-07-27T10:54:49Z</time>
      </trkpt>
      <trkpt lat="42.334738000" lon="-2.346971000">
        <ele>731.20</ele>
        <time>2013-07-27T10:54:50Z</time>
      </trkpt>
      <trkpt lat="42.334736000" lon="-2.346971000">
        <ele>731.30</ele>
        <time>2013-07-27T10:54:51Z</time>
      </trkpt>
      <trkpt lat="42.334735000" lon="-2.346973000">
        <ele>731.30</ele>
        <time>2013-07-27T10:54:52Z</time>
      </trkpt>
      <trkpt lat="42.334735000" lon="-2.346974000">
        <ele>731.30</ele>
        <time>2013-07-27T10:54:53Z</time>
      </trkpt>
      <trkpt lat="42.334735000" lon="-2.346975000">
        <ele>731.30</ele>
        <time>2013-07-27T10:54:54Z</time>
      </trkpt>
      <trkpt lat="42.334734000" lon="-2.346976000">
        <ele>731.30</ele>
        <time>2013-07-27T10:54:55Z</time>
      </trkpt>
      <trkpt lat="42.334732000" lon="-2.346974000">
        <ele>731.30</ele>
        <time>2013-07-27T10:54:56Z</time>
      </trkpt>
      <trkpt lat="42.334732000" lon="-2.346975000">
        <ele>731.30</ele>
        <time>2013-07-27T10:54:57Z</time>
      </trkpt>
      <trkpt lat="42.334732000" lon="-2.346976000">
        <ele>731.20</ele>
        <time>2013-07-27T10:54:58Z</time>
      </trkpt>
      <trkpt lat="42.334731000" lon="-2.346976000">
        <ele>731.20</ele>
        <time>2013-07-27T10:54:59Z</time>
      </trkpt>
      <trkpt lat="42.334730000" lon="-2.346977000">
        <ele>731.20</ele>
        <time>2013-07-27T10:55:00Z</time>
      </trkpt>
      <trkpt lat="42.334731000" lon="-2.346978000">
        <ele>731.10</ele>
        <time>2013-07-27T10:55:01Z</time>
      </trkpt>
      <trkpt lat="42.334730000" lon="-2.346980000">
        <ele>731.10</ele>
        <time>2013-07-27T10:55:02Z</time>
      </trkpt>
      <trkpt lat="42.334731000" lon="-2.346977000">
        <ele>731.10</ele>
        <time>2013-07-27T10:55:03Z</time>
      </trkpt>
      <trkpt lat="42.334731000" lon="-2.346975000">
        <ele>731.20</ele>
        <time>2013-07-27T10:55:04Z</time>
      </trkpt>
      <trkpt lat="42.334731000" lon="-2.346971000">
        <ele>731.20</ele>
        <time>2013-07-27T10:55:05Z</time>
      </trkpt>
      <trkpt lat="42.334731000" lon="-2.346970000">
        <ele>731.20</ele>
        <time>2013-07-27T10:55:06Z</time>
      </trkpt>
      <trkpt lat="42.334731000" lon="-2.346969000">
        <ele>731.10</ele>
        <time>2013-07-27T10:55:07Z</time>
      </trkpt>
      <trkpt lat="42.334730000" lon="-2.346969000">
        <ele>731.10</ele>
        <time>2013-07-27T10:55:08Z</time>
      </trkpt>
      <trkpt lat="42.334730000" lon="-2.346969000">
        <ele>731.10</ele>
        <time>2013-07-27T10:55:09Z</time>
      </trkpt>
      <trkpt lat="42.334732000" lon="-2.346972000">
        <ele>731.00</ele>
        <time>2013-07-27T10:55:10Z</time>
      </trkpt>
      <trkpt lat="42.334733000" lon="-2.346974000">
        <ele>731.00</ele>
        <time>2013-07-27T10:55:11Z</time>
      </trkpt>
      <trkpt lat="42.334734000" lon="-2.346974000">
        <ele>730.90</ele>
        <time>2013-07-27T10:55:12Z</time>
      </trkpt>
      <trkpt lat="42.334733000" lon="-2.346975000">
        <ele>730.80</ele>
        <time>2013-07-27T10:55:13Z</time>
      </trkpt>
      <trkpt lat="42.334733000" lon="-2.346976000">
        <ele>730.70</ele>
        <time>2013-07-27T10:55:14Z</time>
      </trkpt>
      <trkpt lat="42.334734000" lon="-2.346976000">
        <ele>730.70</ele>
        <time>2013-07-27T10:55:15Z</time>
      </trkpt>
      <trkpt lat="42.334736000" lon="-2.346975000">
        <ele>730.60</ele>
        <time>2013-07-27T10:55:16Z</time>
      </trkpt>
      <trkpt lat="42.334738000" lon="-2.346975000">
        <ele>730.60</ele>
        <time>2013-07-27T10:55:17Z</time>
      </trkpt>
      <trkpt lat="42.334739000" lon="-2.346974000">
        <ele>730.80</ele>
        <time>2013-07-27T10:55:18Z</time>
      </trkpt>
      <trkpt lat="42.334741000" lon="-2.346972000">
        <ele>731.00</ele>
        <time>2013-07-27T10:55:19Z</time>
      </trkpt>
      <trkpt lat="42.334743000" lon="-2.346970000">
        <ele>730.80</ele>
        <time>2013-07-27T10:55:20Z</time>
      </trkpt>
      <trkpt lat="42.334744000" lon="-2.346969000">
        <ele>730.70</ele>
        <time>2013-07-27T10:55:21Z</time>
      </trkpt>
      <trkpt lat="42.334742000" lon="-2.346968000">
        <ele>730.60</ele>
        <time>2013-07-27T10:55:22Z</time>
      </trkpt>
      <trkpt lat="42.334741000" lon="-2.346970000">
        <ele>730.60</ele>
        <time>2013-07-27T10:55:23Z</time>
      </trkpt>
      <trkpt lat="42.334737000" lon="-2.346975000">
        <ele>730.50</ele>
        <time>2013-07-27T10:55:24Z</time>
      </trkpt>
      <trkpt lat="42.334730000" lon="-2.346982000">
        <ele>730.40</ele>
        <time>2013-07-27T10:55:25Z</time>
      </trkpt>
      <trkpt lat="42.334723000" lon="-2.346987000">
        <ele>730.30</ele>
        <time>2013-07-27T10:55:26Z</time>
      </trkpt>
      <trkpt lat="42.334718000" lon="-2.346992000">
        <ele>730.30</ele>
        <time>2013-07-27T10:55:27Z</time>
      </trkpt>
      <trkpt lat="42.334710000" lon="-2.346995000">
        <ele>730.30</ele>
        <time>2013-07-27T10:55:28Z</time>
      </trkpt>
      <trkpt lat="42.334703000" lon="-2.347000000">
        <ele>730.20</ele>
        <time>2013-07-27T10:55:29Z</time>
      </trkpt>
      <trkpt lat="42.334694000" lon="-2.347001000">
        <ele>730.30</ele>
        <time>2013-07-27T10:55:30Z</time>
      </trkpt>
      <trkpt lat="42.334683000" lon="-2.347004000">
        <ele>730.40</ele>
        <time>2013-07-27T10:55:31Z</time>
      </trkpt>
      <trkpt lat="42.334677000" lon="-2.347008000">
        <ele>730.40</ele>
        <time>2013-07-27T10:55:32Z</time>
      </trkpt>
      <trkpt lat="42.334672000" lon="-2.347009000">
        <ele>730.40</ele>
        <time>2013-07-27T10:55:33Z</time>
      </trkpt>
      <trkpt lat="42.334656000" lon="-2.347022000">
        <ele>730.40</ele>
        <time>2013-07-27T10:55:34Z</time>
      </trkpt>
      <trkpt lat="42.334642000" lon="-2.347028000">
        <ele>730.40</ele>
        <time>2013-07-27T10:55:35Z</time>
      </trkpt>
      <trkpt lat="42.334636000" lon="-2.347027000">
        <ele>730.40</ele>
        <time>2013-07-27T10:55:36Z</time>
      </trkpt>
      <trkpt lat="42.334628000" lon="-2.347027000">
        <ele>730.40</ele>
        <time>2013-07-27T10:55:37Z</time>
      </trkpt>
      <trkpt lat="42.334613000" lon="-2.347030000">
        <ele>730.80</ele>
        <time>2013-07-27T10:55:38Z</time>
      </trkpt>
      <trkpt lat="42.334600000" lon="-2.347031000">
        <ele>731.10</ele>
        <time>2013-07-27T10:55:39Z</time>
      </trkpt>
      <trkpt lat="42.334584000" lon="-2.347034000">
        <ele>731.40</ele>
        <time>2013-07-27T10:55:40Z</time>
      </trkpt>
      <trkpt lat="42.334573000" lon="-2.347033000">
        <ele>731.60</ele>
        <time>2013-07-27T10:55:41Z</time>
      </trkpt>
      <trkpt lat="42.334558000" lon="-2.347039000">
        <ele>731.70</ele>
        <time>2013-07-27T10:55:42Z</time>
      </trkpt>
      <trkpt lat="42.334549000" lon="-2.347036000">
        <ele>731.80</ele>
        <time>2013-07-27T10:55:43Z</time>
      </trkpt>
      <trkpt lat="42.334537000" lon="-2.347036000">
        <ele>731.90</ele>
        <time>2013-07-27T10:55:44Z</time>
      </trkpt>
      <trkpt lat="42.334525000" lon="-2.347039000">
        <ele>732.00</ele>
        <time>2013-07-27T10:55:45Z</time>
      </trkpt>
      <trkpt lat="42.334513000" lon="-2.347043000">
        <ele>732.00</ele>
        <time>2013-07-27T10:55:46Z</time>
      </trkpt>
      <trkpt lat="42.334500000" lon="-2.347048000">
        <ele>732.10</ele>
        <time>2013-07-27T10:55:47Z</time>
      </trkpt>
      <trkpt lat="42.334484000" lon="-2.347061000">
        <ele>732.20</ele>
        <time>2013-07-27T10:55:48Z</time>
      </trkpt>
      <trkpt lat="42.334471000" lon="-2.347072000">
        <ele>732.30</ele>
        <time>2013-07-27T10:55:49Z</time>
      </trkpt>
      <trkpt lat="42.334458000" lon="-2.347075000">
        <ele>732.40</ele>
        <time>2013-07-27T10:55:50Z</time>
      </trkpt>
      <trkpt lat="42.334446000" lon="-2.347082000">
        <ele>732.50</ele>
        <time>2013-07-27T10:55:51Z</time>
      </trkpt>
      <trkpt lat="42.334432000" lon="-2.347091000">
        <ele>732.80</ele>
        <time>2013-07-27T10:55:52Z</time>
      </trkpt>
      <trkpt lat="42.334422000" lon="-2.347099000">
        <ele>732.90</ele>
        <time>2013-07-27T10:55:53Z</time>
      </trkpt>
      <trkpt lat="42.334410000" lon="-2.347105000">
        <ele>733.30</ele>
        <time>2013-07-27T10:55:54Z</time>
      </trkpt>
      <trkpt lat="42.334396000" lon="-2.347115000">
        <ele>733.60</ele>
        <time>2013-07-27T10:55:55Z</time>
      </trkpt>
      <trkpt lat="42.334386000" lon="-2.347119000">
        <ele>733.90</ele>
        <time>2013-07-27T10:55:56Z</time>
      </trkpt>
      <trkpt lat="42.334380000" lon="-2.347126000">
        <ele>734.00</ele>
        <time>2013-07-27T10:55:57Z</time>
      </trkpt>
      <trkpt lat="42.334369000" lon="-2.347134000">
        <ele>734.20</ele>
        <time>2013-07-27T10:55:58Z</time>
      </trkpt>
      <trkpt lat="42.334355000" lon="-2.347151000">
        <ele>734.30</ele>
        <time>2013-07-27T10:55:59Z</time>
      </trkpt>
      <trkpt lat="42.334340000" lon="-2.347162000">
        <ele>734.50</ele>
        <time>2013-07-27T10:56:00Z</time>
      </trkpt>
      <trkpt lat="42.334325000" lon="-2.347174000">
        <ele>734.70</ele>
        <time>2013-07-27T10:56:01Z</time>
      </trkpt>
      <trkpt lat="42.334315000" lon="-2.347184000">
        <ele>734.90</ele>
        <time>2013-07-27T10:56:02Z</time>
      </trkpt>
      <trkpt lat="42.334304000" lon="-2.347194000">
        <ele>735.00</ele>
        <time>2013-07-27T10:56:03Z</time>
      </trkpt>
      <trkpt lat="42.334292000" lon="-2.347198000">
        <ele>735.30</ele>
        <time>2013-07-27T10:56:04Z</time>
      </trkpt>
      <trkpt lat="42.334280000" lon="-2.347210000">
        <ele>735.50</ele>
        <time>2013-07-27T10:56:05Z</time>
      </trkpt>
      <trkpt lat="42.334270000" lon="-2.347219000">
        <ele>735.70</ele>
        <time>2013-07-27T10:56:06Z</time>
      </trkpt>
      <trkpt lat="42.334260000" lon="-2.347227000">
        <ele>735.90</ele>
        <time>2013-07-27T10:56:07Z</time>
      </trkpt>
      <trkpt lat="42.334247000" lon="-2.347232000">
        <ele>736.00</ele>
        <time>2013-07-27T10:56:08Z</time>
      </trkpt>
      <trkpt lat="42.334233000" lon="-2.347246000">
        <ele>736.10</ele>
        <time>2013-07-27T10:56:09Z</time>
      </trkpt>
      <trkpt lat="42.334223000" lon="-2.347254000">
        <ele>736.20</ele>
        <time>2013-07-27T10:56:10Z</time>
      </trkpt>
      <trkpt lat="42.334212000" lon="-2.347262000">
        <ele>736.30</ele>
        <time>2013-07-27T10:56:11Z</time>
      </trkpt>
      <trkpt lat="42.334197000" lon="-2.347273000">
        <ele>736.50</ele>
        <time>2013-07-27T10:56:12Z</time>
      </trkpt>
      <trkpt lat="42.334187000" lon="-2.347283000">
        <ele>736.60</ele>
        <time>2013-07-27T10:56:13Z</time>
      </trkpt>
      <trkpt lat="42.334176000" lon="-2.347290000">
        <ele>736.70</ele>
        <time>2013-07-27T10:56:14Z</time>
      </trkpt>
      <trkpt lat="42.334168000" lon="-2.347293000">
        <ele>736.80</ele>
        <time>2013-07-27T10:56:15Z</time>
      </trkpt>
      <trkpt lat="42.334159000" lon="-2.347300000">
        <ele>737.00</ele>
        <time>2013-07-27T10:56:16Z</time>
      </trkpt>
      <trkpt lat="42.334148000" lon="-2.347307000">
        <ele>737.20</ele>
        <time>2013-07-27T10:56:17Z</time>
      </trkpt>
      <trkpt lat="42.334139000" lon="-2.347314000">
        <ele>737.40</ele>
        <time>2013-07-27T10:56:18Z</time>
      </trkpt>
      <trkpt lat="42.334130000" lon="-2.347319000">
        <ele>737.50</ele>
        <time>2013-07-27T10:56:19Z</time>
      </trkpt>
      <trkpt lat="42.334118000" lon="-2.347328000">
        <ele>737.90</ele>
        <time>2013-07-27T10:56:20Z</time>
      </trkpt>
      <trkpt lat="42.334108000" lon="-2.347330000">
        <ele>738.10</ele>
        <time>2013-07-27T10:56:21Z</time>
      </trkpt>
      <trkpt lat="42.334100000" lon="-2.347333000">
        <ele>738.30</ele>
        <time>2013-07-27T10:56:22Z</time>
      </trkpt>
      <trkpt lat="42.334091000" lon="-2.347340000">
        <ele>738.50</ele>
        <time>2013-07-27T10:56:23Z</time>
      </trkpt>
      <trkpt lat="42.334082000" lon="-2.347346000">
        <ele>738.80</ele>
        <time>2013-07-27T10:56:24Z</time>
      </trkpt>
      <trkpt lat="42.334073000" lon="-2.347349000">
        <ele>739.00</ele>
        <time>2013-07-27T10:56:25Z</time>
      </trkpt>
      <trkpt lat="42.334064000" lon="-2.347353000">
        <ele>739.30</ele>
        <time>2013-07-27T10:56:26Z</time>
      </trkpt>
      <trkpt lat="42.334053000" lon="-2.347356000">
        <ele>739.60</ele>
        <time>2013-07-27T10:56:27Z</time>
      </trkpt>
      <trkpt lat="42.334040000" lon="-2.347365000">
        <ele>740.00</ele>
        <time>2013-07-27T10:56:28Z</time>
      </trkpt>
      <trkpt lat="42.334027000" lon="-2.347378000">
        <ele>740.30</ele>
        <time>2013-07-27T10:56:29Z</time>
      </trkpt>
      <trkpt lat="42.334017000" lon="-2.347384000">
        <ele>740.50</ele>
        <time>2013-07-27T10:56:30Z</time>
      </trkpt>
      <trkpt lat="42.334010000" lon="-2.347385000">
        <ele>740.70</ele>
        <time>2013-07-27T10:56:31Z</time>
      </trkpt>
      <trkpt lat="42.334002000" lon="-2.347387000">
        <ele>740.90</ele>
        <time>2013-07-27T10:56:32Z</time>
      </trkpt>
      <trkpt lat="42.333991000" lon="-2.347392000">
        <ele>741.00</ele>
        <time>2013-07-27T10:56:33Z</time>
      </trkpt>
      <trkpt lat="42.333982000" lon="-2.347399000">
        <ele>741.10</ele>
        <time>2013-07-27T10:56:34Z</time>
      </trkpt>
      <trkpt lat="42.333970000" lon="-2.347403000">
        <ele>741.20</ele>
        <time>2013-07-27T10:56:35Z</time>
      </trkpt>
      <trkpt lat="42.333961000" lon="-2.347403000">
        <ele>741.30</ele>
        <time>2013-07-27T10:56:36Z</time>
      </trkpt>
      <trkpt lat="42.333952000" lon="-2.347407000">
        <ele>741.40</ele>
        <time>2013-07-27T10:56:37Z</time>
      </trkpt>
      <trkpt lat="42.333942000" lon="-2.347410000">
        <ele>741.60</ele>
        <time>2013-07-27T10:56:38Z</time>
      </trkpt>
      <trkpt lat="42.333935000" lon="-2.347413000">
        <ele>741.70</ele>
        <time>2013-07-27T10:56:39Z</time>
      </trkpt>
      <trkpt lat="42.333921000" lon="-2.347418000">
        <ele>741.90</ele>
        <time>2013-07-27T10:56:40Z</time>
      </trkpt>
      <trkpt lat="42.333914000" lon="-2.347413000">
        <ele>742.00</ele>
        <time>2013-07-27T10:56:41Z</time>
      </trkpt>
      <trkpt lat="42.333905000" lon="-2.347411000">
        <ele>742.30</ele>
        <time>2013-07-27T10:56:42Z</time>
      </trkpt>
      <trkpt lat="42.333894000" lon="-2.347413000">
        <ele>742.50</ele>
        <time>2013-07-27T10:56:43Z</time>
      </trkpt>
      <trkpt lat="42.333884000" lon="-2.347415000">
        <ele>742.80</ele>
        <time>2013-07-27T10:56:44Z</time>
      </trkpt>
      <trkpt lat="42.333874000" lon="-2.347414000">
        <ele>743.00</ele>
        <time>2013-07-27T10:56:45Z</time>
      </trkpt>
      <trkpt lat="42.333862000" lon="-2.347420000">
        <ele>743.10</ele>
        <time>2013-07-27T10:56:46Z</time>
      </trkpt>
      <trkpt lat="42.333851000" lon="-2.347423000">
        <ele>743.30</ele>
        <time>2013-07-27T10:56:47Z</time>
      </trkpt>
      <trkpt lat="42.333837000" lon="-2.347422000">
        <ele>743.40</ele>
        <time>2013-07-27T10:56:48Z</time>
      </trkpt>
      <trkpt lat="42.333823000" lon="-2.347425000">
        <ele>743.40</ele>
        <time>2013-07-27T10:56:49Z</time>
      </trkpt>
      <trkpt lat="42.333816000" lon="-2.347429000">
        <ele>743.50</ele>
        <time>2013-07-27T10:56:50Z</time>
      </trkpt>
      <trkpt lat="42.333805000" lon="-2.347432000">
        <ele>743.60</ele>
        <time>2013-07-27T10:56:51Z</time>
      </trkpt>
      <trkpt lat="42.333798000" lon="-2.347429000">
        <ele>743.80</ele>
        <time>2013-07-27T10:56:52Z</time>
      </trkpt>
      <trkpt lat="42.333786000" lon="-2.347431000">
        <ele>743.90</ele>
        <time>2013-07-27T10:56:53Z</time>
      </trkpt>
      <trkpt lat="42.333774000" lon="-2.347430000">
        <ele>744.30</ele>
        <time>2013-07-27T10:56:54Z</time>
      </trkpt>
      <trkpt lat="42.333762000" lon="-2.347437000">
        <ele>744.50</ele>
        <time>2013-07-27T10:56:55Z</time>
      </trkpt>
      <trkpt lat="42.333751000" lon="-2.347442000">
        <ele>744.70</ele>
        <time>2013-07-27T10:56:56Z</time>
      </trkpt>
      <trkpt lat="42.333739000" lon="-2.347446000">
        <ele>744.90</ele>
        <time>2013-07-27T10:56:57Z</time>
      </trkpt>
      <trkpt lat="42.333726000" lon="-2.347457000">
        <ele>745.00</ele>
        <time>2013-07-27T10:56:58Z</time>
      </trkpt>
      <trkpt lat="42.333717000" lon="-2.347457000">
        <ele>745.10</ele>
        <time>2013-07-27T10:56:59Z</time>
      </trkpt>
      <trkpt lat="42.333707000" lon="-2.347459000">
        <ele>745.30</ele>
        <time>2013-07-27T10:57:00Z</time>
      </trkpt>
      <trkpt lat="42.333700000" lon="-2.347463000">
        <ele>745.50</ele>
        <time>2013-07-27T10:57:01Z</time>
      </trkpt>
      <trkpt lat="42.333689000" lon="-2.347470000">
        <ele>745.70</ele>
        <time>2013-07-27T10:57:02Z</time>
      </trkpt>
      <trkpt lat="42.333677000" lon="-2.347470000">
        <ele>745.80</ele>
        <time>2013-07-27T10:57:03Z</time>
      </trkpt>
      <trkpt lat="42.333667000" lon="-2.347472000">
        <ele>745.90</ele>
        <time>2013-07-27T10:57:04Z</time>
      </trkpt>
      <trkpt lat="42.333655000" lon="-2.347476000">
        <ele>746.00</ele>
        <time>2013-07-27T10:57:05Z</time>
      </trkpt>
      <trkpt lat="42.333646000" lon="-2.347474000">
        <ele>746.10</ele>
        <time>2013-07-27T10:57:06Z</time>
      </trkpt>
      <trkpt lat="42.333636000" lon="-2.347478000">
        <ele>746.20</ele>
        <time>2013-07-27T10:57:07Z</time>
      </trkpt>
      <trkpt lat="42.333626000" lon="-2.347478000">
        <ele>746.20</ele>
        <time>2013-07-27T10:57:08Z</time>
      </trkpt>
      <trkpt lat="42.333616000" lon="-2.347479000">
        <ele>746.20</ele>
        <time>2013-07-27T10:57:09Z</time>
      </trkpt>
      <trkpt lat="42.333606000" lon="-2.347480000">
        <ele>746.30</ele>
        <time>2013-07-27T10:57:10Z</time>
      </trkpt>
      <trkpt lat="42.333594000" lon="-2.347485000">
        <ele>746.40</ele>
        <time>2013-07-27T10:57:11Z</time>
      </trkpt>
      <trkpt lat="42.333584000" lon="-2.347486000">
        <ele>746.60</ele>
        <time>2013-07-27T10:57:12Z</time>
      </trkpt>
      <trkpt lat="42.333572000" lon="-2.347489000">
        <ele>746.80</ele>
        <time>2013-07-27T10:57:13Z</time>
      </trkpt>
      <trkpt lat="42.333562000" lon="-2.347492000">
        <ele>746.90</ele>
        <time>2013-07-27T10:57:14Z</time>
      </trkpt>
      <trkpt lat="42.333552000" lon="-2.347492000">
        <ele>747.00</ele>
        <time>2013-07-27T10:57:15Z</time>
      </trkpt>
      <trkpt lat="42.333538000" lon="-2.347494000">
        <ele>747.20</ele>
        <time>2013-07-27T10:57:16Z</time>
      </trkpt>
      <trkpt lat="42.333525000" lon="-2.347499000">
        <ele>747.40</ele>
        <time>2013-07-27T10:57:17Z</time>
      </trkpt>
      <trkpt lat="42.333514000" lon="-2.347504000">
        <ele>747.60</ele>
        <time>2013-07-27T10:57:18Z</time>
      </trkpt>
      <trkpt lat="42.333498000" lon="-2.347513000">
        <ele>747.80</ele>
        <time>2013-07-27T10:57:19Z</time>
      </trkpt>
      <trkpt lat="42.333488000" lon="-2.347520000">
        <ele>747.90</ele>
        <time>2013-07-27T10:57:20Z</time>
      </trkpt>
      <trkpt lat="42.333475000" lon="-2.347528000">
        <ele>748.00</ele>
        <time>2013-07-27T10:57:21Z</time>
      </trkpt>
      <trkpt lat="42.333463000" lon="-2.347536000">
        <ele>748.20</ele>
        <time>2013-07-27T10:57:22Z</time>
      </trkpt>
      <trkpt lat="42.333450000" lon="-2.347545000">
        <ele>748.40</ele>
        <time>2013-07-27T10:57:23Z</time>
      </trkpt>
      <trkpt lat="42.333439000" lon="-2.347555000">
        <ele>748.60</ele>
        <time>2013-07-27T10:57:24Z</time>
      </trkpt>
      <trkpt lat="42.333428000" lon="-2.347562000">
        <ele>748.70</ele>
        <time>2013-07-27T10:57:25Z</time>
      </trkpt>
      <trkpt lat="42.333419000" lon="-2.347559000">
        <ele>748.80</ele>
        <time>2013-07-27T10:57:26Z</time>
      </trkpt>
      <trkpt lat="42.333409000" lon="-2.347561000">
        <ele>748.90</ele>
        <time>2013-07-27T10:57:27Z</time>
      </trkpt>
      <trkpt lat="42.333400000" lon="-2.347559000">
        <ele>749.10</ele>
        <time>2013-07-27T10:57:28Z</time>
      </trkpt>
      <trkpt lat="42.333391000" lon="-2.347553000">
        <ele>749.30</ele>
        <time>2013-07-27T10:57:29Z</time>
      </trkpt>
      <trkpt lat="42.333382000" lon="-2.347550000">
        <ele>749.50</ele>
        <time>2013-07-27T10:57:30Z</time>
      </trkpt>
      <trkpt lat="42.333371000" lon="-2.347550000">
        <ele>749.60</ele>
        <time>2013-07-27T10:57:31Z</time>
      </trkpt>
      <trkpt lat="42.333363000" lon="-2.347549000">
        <ele>749.80</ele>
        <time>2013-07-27T10:57:32Z</time>
      </trkpt>
      <trkpt lat="42.333355000" lon="-2.347546000">
        <ele>749.90</ele>
        <time>2013-07-27T10:57:33Z</time>
      </trkpt>
      <trkpt lat="42.333342000" lon="-2.347545000">
        <ele>750.00</ele>
        <time>2013-07-27T10:57:34Z</time>
      </trkpt>
      <trkpt lat="42.333330000" lon="-2.347542000">
        <ele>750.10</ele>
        <time>2013-07-27T10:57:35Z</time>
      </trkpt>
      <trkpt lat="42.333319000" lon="-2.347533000">
        <ele>750.20</ele>
        <time>2013-07-27T10:57:36Z</time>
      </trkpt>
      <trkpt lat="42.333308000" lon="-2.347523000">
        <ele>750.30</ele>
        <time>2013-07-27T10:57:37Z</time>
      </trkpt>
      <trkpt lat="42.333299000" lon="-2.347513000">
        <ele>750.40</ele>
        <time>2013-07-27T10:57:38Z</time>
      </trkpt>
      <trkpt lat="42.333290000" lon="-2.347505000">
        <ele>750.50</ele>
        <time>2013-07-27T10:57:39Z</time>
      </trkpt>
      <trkpt lat="42.333280000" lon="-2.347495000">
        <ele>750.70</ele>
        <time>2013-07-27T10:57:40Z</time>
      </trkpt>
      <trkpt lat="42.333266000" lon="-2.347486000">
        <ele>750.80</ele>
        <time>2013-07-27T10:57:41Z</time>
      </trkpt>
      <trkpt lat="42.333257000" lon="-2.347475000">
        <ele>750.90</ele>
        <time>2013-07-27T10:57:42Z</time>
      </trkpt>
      <trkpt lat="42.333249000" lon="-2.347462000">
        <ele>751.10</ele>
        <time>2013-07-27T10:57:43Z</time>
      </trkpt>
      <trkpt lat="42.333243000" lon="-2.347447000">
        <ele>751.20</ele>
        <time>2013-07-27T10:57:44Z</time>
      </trkpt>
      <trkpt lat="42.333238000" lon="-2.347439000">
        <ele>751.40</ele>
        <time>2013-07-27T10:57:45Z</time>
      </trkpt>
      <trkpt lat="42.333231000" lon="-2.347425000">
        <ele>751.60</ele>
        <time>2013-07-27T10:57:46Z</time>
      </trkpt>
      <trkpt lat="42.333222000" lon="-2.347412000">
        <ele>751.80</ele>
        <time>2013-07-27T10:57:47Z</time>
      </trkpt>
      <trkpt lat="42.333213000" lon="-2.347399000">
        <ele>751.90</ele>
        <time>2013-07-27T10:57:48Z</time>
      </trkpt>
      <trkpt lat="42.333207000" lon="-2.347384000">
        <ele>752.00</ele>
        <time>2013-07-27T10:57:49Z</time>
      </trkpt>
      <trkpt lat="42.333206000" lon="-2.347368000">
        <ele>752.20</ele>
        <time>2013-07-27T10:57:50Z</time>
      </trkpt>
      <trkpt lat="42.333204000" lon="-2.347350000">
        <ele>752.30</ele>
        <time>2013-07-27T10:57:51Z</time>
      </trkpt>
      <trkpt lat="42.333198000" lon="-2.347336000">
        <ele>752.50</ele>
        <time>2013-07-27T10:57:52Z</time>
      </trkpt>
      <trkpt lat="42.333194000" lon="-2.347325000">
        <ele>752.50</ele>
        <time>2013-07-27T10:57:53Z</time>
      </trkpt>
      <trkpt lat="42.333187000" lon="-2.347314000">
        <ele>752.60</ele>
        <time>2013-07-27T10:57:54Z</time>
      </trkpt>
      <trkpt lat="42.333180000" lon="-2.347302000">
        <ele>752.70</ele>
        <time>2013-07-27T10:57:55Z</time>
      </trkpt>
      <trkpt lat="42.333172000" lon="-2.347289000">
        <ele>752.80</ele>
        <time>2013-07-27T10:57:56Z</time>
      </trkpt>
      <trkpt lat="42.333165000" lon="-2.347273000">
        <ele>752.80</ele>
        <time>2013-07-27T10:57:57Z</time>
      </trkpt>
      <trkpt lat="42.333158000" lon="-2.347258000">
        <ele>753.20</ele>
        <time>2013-07-27T10:57:58Z</time>
      </trkpt>
      <trkpt lat="42.333148000" lon="-2.347245000">
        <ele>753.40</ele>
        <time>2013-07-27T10:57:59Z</time>
      </trkpt>
      <trkpt lat="42.333144000" lon="-2.347231000">
        <ele>753.60</ele>
        <time>2013-07-27T10:58:00Z</time>
      </trkpt>
      <trkpt lat="42.333137000" lon="-2.347217000">
        <ele>753.70</ele>
        <time>2013-07-27T10:58:01Z</time>
      </trkpt>
      <trkpt lat="42.333130000" lon="-2.347204000">
        <ele>753.90</ele>
        <time>2013-07-27T10:58:02Z</time>
      </trkpt>
      <trkpt lat="42.333124000" lon="-2.347191000">
        <ele>754.00</ele>
        <time>2013-07-27T10:58:03Z</time>
      </trkpt>
      <trkpt lat="42.333115000" lon="-2.347179000">
        <ele>754.10</ele>
        <time>2013-07-27T10:58:04Z</time>
      </trkpt>
      <trkpt lat="42.333106000" lon="-2.347167000">
        <ele>754.20</ele>
        <time>2013-07-27T10:58:05Z</time>
      </trkpt>
      <trkpt lat="42.333099000" lon="-2.347151000">
        <ele>754.50</ele>
        <time>2013-07-27T10:58:06Z</time>
      </trkpt>
      <trkpt lat="42.333093000" lon="-2.347138000">
        <ele>754.70</ele>
        <time>2013-07-27T10:58:07Z</time>
      </trkpt>
      <trkpt lat="42.333087000" lon="-2.347123000">
        <ele>754.90</ele>
        <time>2013-07-27T10:58:08Z</time>
      </trkpt>
      <trkpt lat="42.333082000" lon="-2.347109000">
        <ele>755.00</ele>
        <time>2013-07-27T10:58:09Z</time>
      </trkpt>
      <trkpt lat="42.333075000" lon="-2.347097000">
        <ele>755.00</ele>
        <time>2013-07-27T10:58:10Z</time>
      </trkpt>
      <trkpt lat="42.333067000" lon="-2.347084000">
        <ele>755.00</ele>
        <time>2013-07-27T10:58:11Z</time>
      </trkpt>
      <trkpt lat="42.333058000" lon="-2.347072000">
        <ele>755.00</ele>
        <time>2013-07-27T10:58:12Z</time>
      </trkpt>
      <trkpt lat="42.333052000" lon="-2.347059000">
        <ele>755.00</ele>
        <time>2013-07-27T10:58:13Z</time>
      </trkpt>
      <trkpt lat="42.333045000" lon="-2.347048000">
        <ele>755.10</ele>
        <time>2013-07-27T10:58:14Z</time>
      </trkpt>
      <trkpt lat="42.333034000" lon="-2.347038000">
        <ele>755.10</ele>
        <time>2013-07-27T10:58:15Z</time>
      </trkpt>
      <trkpt lat="42.333026000" lon="-2.347026000">
        <ele>755.20</ele>
        <time>2013-07-27T10:58:16Z</time>
      </trkpt>
      <trkpt lat="42.333019000" lon="-2.347012000">
        <ele>755.20</ele>
        <time>2013-07-27T10:58:17Z</time>
      </trkpt>
      <trkpt lat="42.333010000" lon="-2.347001000">
        <ele>755.30</ele>
        <time>2013-07-27T10:58:18Z</time>
      </trkpt>
      <trkpt lat="42.333002000" lon="-2.346992000">
        <ele>755.30</ele>
        <time>2013-07-27T10:58:19Z</time>
      </trkpt>
      <trkpt lat="42.332990000" lon="-2.346981000">
        <ele>755.60</ele>
        <time>2013-07-27T10:58:20Z</time>
      </trkpt>
      <trkpt lat="42.332984000" lon="-2.346969000">
        <ele>755.80</ele>
        <time>2013-07-27T10:58:21Z</time>
      </trkpt>
      <trkpt lat="42.332978000" lon="-2.346957000">
        <ele>756.00</ele>
        <time>2013-07-27T10:58:22Z</time>
      </trkpt>
      <trkpt lat="42.332972000" lon="-2.346947000">
        <ele>756.10</ele>
        <time>2013-07-27T10:58:23Z</time>
      </trkpt>
      <trkpt lat="42.332964000" lon="-2.346934000">
        <ele>756.30</ele>
        <time>2013-07-27T10:58:24Z</time>
      </trkpt>
      <trkpt lat="42.332954000" lon="-2.346924000">
        <ele>756.40</ele>
        <time>2013-07-27T10:58:25Z</time>
      </trkpt>
      <trkpt lat="42.332948000" lon="-2.346911000">
        <ele>756.60</ele>
        <time>2013-07-27T10:58:26Z</time>
      </trkpt>
      <trkpt lat="42.332941000" lon="-2.346896000">
        <ele>756.60</ele>
        <time>2013-07-27T10:58:27Z</time>
      </trkpt>
      <trkpt lat="42.332935000" lon="-2.346883000">
        <ele>756.70</ele>
        <time>2013-07-27T10:58:28Z</time>
      </trkpt>
      <trkpt lat="42.332928000" lon="-2.346872000">
        <ele>756.70</ele>
        <time>2013-07-27T10:58:29Z</time>
      </trkpt>
      <trkpt lat="42.332919000" lon="-2.346862000">
        <ele>756.80</ele>
        <time>2013-07-27T10:58:30Z</time>
      </trkpt>
      <trkpt lat="42.332911000" lon="-2.346849000">
        <ele>756.80</ele>
        <time>2013-07-27T10:58:31Z</time>
      </trkpt>
      <trkpt lat="42.332907000" lon="-2.346833000">
        <ele>756.80</ele>
        <time>2013-07-27T10:58:32Z</time>
      </trkpt>
      <trkpt lat="42.332900000" lon="-2.346818000">
        <ele>756.80</ele>
        <time>2013-07-27T10:58:33Z</time>
      </trkpt>
      <trkpt lat="42.332893000" lon="-2.346804000">
        <ele>756.90</ele>
        <time>2013-07-27T10:58:34Z</time>
      </trkpt>
      <trkpt lat="42.332886000" lon="-2.346791000">
        <ele>757.00</ele>
        <time>2013-07-27T10:58:35Z</time>
      </trkpt>
      <trkpt lat="42.332879000" lon="-2.346778000">
        <ele>757.00</ele>
        <time>2013-07-27T10:58:36Z</time>
      </trkpt>
      <trkpt lat="42.332870000" lon="-2.346766000">
        <ele>757.00</ele>
        <time>2013-07-27T10:58:37Z</time>
      </trkpt>
      <trkpt lat="42.332858000" lon="-2.346755000">
        <ele>757.20</ele>
        <time>2013-07-27T10:58:38Z</time>
      </trkpt>
      <trkpt lat="42.332845000" lon="-2.346744000">
        <ele>757.40</ele>
        <time>2013-07-27T10:58:39Z</time>
      </trkpt>
      <trkpt lat="42.332831000" lon="-2.346733000">
        <ele>757.50</ele>
        <time>2013-07-27T10:58:40Z</time>
      </trkpt>
      <trkpt lat="42.332825000" lon="-2.346718000">
        <ele>757.60</ele>
        <time>2013-07-27T10:58:41Z</time>
      </trkpt>
      <trkpt lat="42.332815000" lon="-2.346703000">
        <ele>757.70</ele>
        <time>2013-07-27T10:58:42Z</time>
      </trkpt>
      <trkpt lat="42.332804000" lon="-2.346691000">
        <ele>757.70</ele>
        <time>2013-07-27T10:58:43Z</time>
      </trkpt>
      <trkpt lat="42.332797000" lon="-2.346679000">
        <ele>757.70</ele>
        <time>2013-07-27T10:58:44Z</time>
      </trkpt>
      <trkpt lat="42.332791000" lon="-2.346665000">
        <ele>757.80</ele>
        <time>2013-07-27T10:58:45Z</time>
      </trkpt>
      <trkpt lat="42.332785000" lon="-2.346647000">
        <ele>758.10</ele>
        <time>2013-07-27T10:58:46Z</time>
      </trkpt>
      <trkpt lat="42.332779000" lon="-2.346632000">
        <ele>758.40</ele>
        <time>2013-07-27T10:58:47Z</time>
      </trkpt>
      <trkpt lat="42.332768000" lon="-2.346620000">
        <ele>758.70</ele>
        <time>2013-07-27T10:58:48Z</time>
      </trkpt>
      <trkpt lat="42.332762000" lon="-2.346604000">
        <ele>758.90</ele>
        <time>2013-07-27T10:58:49Z</time>
      </trkpt>
      <trkpt lat="42.332754000" lon="-2.346588000">
        <ele>759.00</ele>
        <time>2013-07-27T10:58:50Z</time>
      </trkpt>
      <trkpt lat="42.332743000" lon="-2.346575000">
        <ele>759.10</ele>
        <time>2013-07-27T10:58:51Z</time>
      </trkpt>
      <trkpt lat="42.332733000" lon="-2.346563000">
        <ele>759.30</ele>
        <time>2013-07-27T10:58:52Z</time>
      </trkpt>
      <trkpt lat="42.332725000" lon="-2.346548000">
        <ele>759.40</ele>
        <time>2013-07-27T10:58:53Z</time>
      </trkpt>
      <trkpt lat="42.332718000" lon="-2.346532000">
        <ele>759.60</ele>
        <time>2013-07-27T10:58:54Z</time>
      </trkpt>
      <trkpt lat="42.332713000" lon="-2.346517000">
        <ele>759.80</ele>
        <time>2013-07-27T10:58:55Z</time>
      </trkpt>
      <trkpt lat="42.332704000" lon="-2.346504000">
        <ele>760.20</ele>
        <time>2013-07-27T10:58:56Z</time>
      </trkpt>
      <trkpt lat="42.332696000" lon="-2.346490000">
        <ele>760.40</ele>
        <time>2013-07-27T10:58:57Z</time>
      </trkpt>
      <trkpt lat="42.332687000" lon="-2.346477000">
        <ele>760.60</ele>
        <time>2013-07-27T10:58:58Z</time>
      </trkpt>
      <trkpt lat="42.332675000" lon="-2.346462000">
        <ele>760.80</ele>
        <time>2013-07-27T10:58:59Z</time>
      </trkpt>
      <trkpt lat="42.332665000" lon="-2.346451000">
        <ele>760.90</ele>
        <time>2013-07-27T10:59:00Z</time>
      </trkpt>
      <trkpt lat="42.332658000" lon="-2.346439000">
        <ele>761.00</ele>
        <time>2013-07-27T10:59:01Z</time>
      </trkpt>
      <trkpt lat="42.332650000" lon="-2.346428000">
        <ele>761.10</ele>
        <time>2013-07-27T10:59:02Z</time>
      </trkpt>
      <trkpt lat="42.332643000" lon="-2.346416000">
        <ele>761.10</ele>
        <time>2013-07-27T10:59:03Z</time>
      </trkpt>
      <trkpt lat="42.332634000" lon="-2.346404000">
        <ele>761.30</ele>
        <time>2013-07-27T10:59:04Z</time>
      </trkpt>
      <trkpt lat="42.332626000" lon="-2.346388000">
        <ele>761.40</ele>
        <time>2013-07-27T10:59:05Z</time>
      </trkpt>
      <trkpt lat="42.332614000" lon="-2.346376000">
        <ele>761.50</ele>
        <time>2013-07-27T10:59:06Z</time>
      </trkpt>
      <trkpt lat="42.332602000" lon="-2.346368000">
        <ele>761.60</ele>
        <time>2013-07-27T10:59:07Z</time>
      </trkpt>
      <trkpt lat="42.332589000" lon="-2.346362000">
        <ele>761.90</ele>
        <time>2013-07-27T10:59:08Z</time>
      </trkpt>
      <trkpt lat="42.332575000" lon="-2.346355000">
        <ele>762.00</ele>
        <time>2013-07-27T10:59:09Z</time>
      </trkpt>
      <trkpt lat="42.332561000" lon="-2.346352000">
        <ele>762.20</ele>
        <time>2013-07-27T10:59:10Z</time>
      </trkpt>
      <trkpt lat="42.332549000" lon="-2.346350000">
        <ele>762.30</ele>
        <time>2013-07-27T10:59:11Z</time>
      </trkpt>
      <trkpt lat="42.332535000" lon="-2.346352000">
        <ele>762.30</ele>
        <time>2013-07-27T10:59:12Z</time>
      </trkpt>
      <trkpt lat="42.332522000" lon="-2.346348000">
        <ele>762.30</ele>
        <time>2013-07-27T10:59:13Z</time>
      </trkpt>
      <trkpt lat="42.332512000" lon="-2.346347000">
        <ele>762.30</ele>
        <time>2013-07-27T10:59:14Z</time>
      </trkpt>
      <trkpt lat="42.332499000" lon="-2.346346000">
        <ele>762.30</ele>
        <time>2013-07-27T10:59:15Z</time>
      </trkpt>
      <trkpt lat="42.332486000" lon="-2.346347000">
        <ele>762.40</ele>
        <time>2013-07-27T10:59:16Z</time>
      </trkpt>
      <trkpt lat="42.332475000" lon="-2.346347000">
        <ele>762.50</ele>
        <time>2013-07-27T10:59:17Z</time>
      </trkpt>
      <trkpt lat="42.332461000" lon="-2.346349000">
        <ele>762.70</ele>
        <time>2013-07-27T10:59:18Z</time>
      </trkpt>
      <trkpt lat="42.332450000" lon="-2.346349000">
        <ele>762.90</ele>
        <time>2013-07-27T10:59:19Z</time>
      </trkpt>
      <trkpt lat="42.332437000" lon="-2.346354000">
        <ele>763.00</ele>
        <time>2013-07-27T10:59:20Z</time>
      </trkpt>
      <trkpt lat="42.332423000" lon="-2.346359000">
        <ele>763.10</ele>
        <time>2013-07-27T10:59:21Z</time>
      </trkpt>
      <trkpt lat="42.332411000" lon="-2.346367000">
        <ele>763.10</ele>
        <time>2013-07-27T10:59:22Z</time>
      </trkpt>
      <trkpt lat="42.332397000" lon="-2.346375000">
        <ele>763.20</ele>
        <time>2013-07-27T10:59:23Z</time>
      </trkpt>
      <trkpt lat="42.332385000" lon="-2.346382000">
        <ele>763.30</ele>
        <time>2013-07-27T10:59:24Z</time>
      </trkpt>
      <trkpt lat="42.332373000" lon="-2.346390000">
        <ele>763.40</ele>
        <time>2013-07-27T10:59:25Z</time>
      </trkpt>
      <trkpt lat="42.332361000" lon="-2.346395000">
        <ele>763.50</ele>
        <time>2013-07-27T10:59:26Z</time>
      </trkpt>
      <trkpt lat="42.332350000" lon="-2.346403000">
        <ele>763.70</ele>
        <time>2013-07-27T10:59:27Z</time>
      </trkpt>
      <trkpt lat="42.332340000" lon="-2.346414000">
        <ele>763.80</ele>
        <time>2013-07-27T10:59:28Z</time>
      </trkpt>
      <trkpt lat="42.332328000" lon="-2.346423000">
        <ele>764.00</ele>
        <time>2013-07-27T10:59:29Z</time>
      </trkpt>
      <trkpt lat="42.332317000" lon="-2.346434000">
        <ele>764.10</ele>
        <time>2013-07-27T10:59:30Z</time>
      </trkpt>
      <trkpt lat="42.332305000" lon="-2.346444000">
        <ele>764.10</ele>
        <time>2013-07-27T10:59:31Z</time>
      </trkpt>
      <trkpt lat="42.332292000" lon="-2.346452000">
        <ele>764.20</ele>
        <time>2013-07-27T10:59:32Z</time>
      </trkpt>
      <trkpt lat="42.332282000" lon="-2.346464000">
        <ele>764.30</ele>
        <time>2013-07-27T10:59:33Z</time>
      </trkpt>
      <trkpt lat="42.332271000" lon="-2.346475000">
        <ele>764.40</ele>
        <time>2013-07-27T10:59:34Z</time>
      </trkpt>
      <trkpt lat="42.332260000" lon="-2.346490000">
        <ele>764.50</ele>
        <time>2013-07-27T10:59:35Z</time>
      </trkpt>
      <trkpt lat="42.332248000" lon="-2.346504000">
        <ele>764.80</ele>
        <time>2013-07-27T10:59:36Z</time>
      </trkpt>
      <trkpt lat="42.332238000" lon="-2.346518000">
        <ele>765.00</ele>
        <time>2013-07-27T10:59:37Z</time>
      </trkpt>
      <trkpt lat="42.332227000" lon="-2.346533000">
        <ele>765.20</ele>
        <time>2013-07-27T10:59:38Z</time>
      </trkpt>
      <trkpt lat="42.332213000" lon="-2.346549000">
        <ele>765.30</ele>
        <time>2013-07-27T10:59:39Z</time>
      </trkpt>
      <trkpt lat="42.332205000" lon="-2.346562000">
        <ele>765.40</ele>
        <time>2013-07-27T10:59:40Z</time>
      </trkpt>
      <trkpt lat="42.332196000" lon="-2.346575000">
        <ele>765.50</ele>
        <time>2013-07-27T10:59:41Z</time>
      </trkpt>
      <trkpt lat="42.332186000" lon="-2.346589000">
        <ele>765.60</ele>
        <time>2013-07-27T10:59:42Z</time>
      </trkpt>
      <trkpt lat="42.332178000" lon="-2.346605000">
        <ele>765.60</ele>
        <time>2013-07-27T10:59:43Z</time>
      </trkpt>
      <trkpt lat="42.332172000" lon="-2.346617000">
        <ele>765.70</ele>
        <time>2013-07-27T10:59:44Z</time>
      </trkpt>
      <trkpt lat="42.332167000" lon="-2.346629000">
        <ele>765.80</ele>
        <time>2013-07-27T10:59:45Z</time>
      </trkpt>
      <trkpt lat="42.332161000" lon="-2.346641000">
        <ele>765.80</ele>
        <time>2013-07-27T10:59:46Z</time>
      </trkpt>
      <trkpt lat="42.332154000" lon="-2.346654000">
        <ele>765.80</ele>
        <time>2013-07-27T10:59:47Z</time>
      </trkpt>
      <trkpt lat="42.332146000" lon="-2.346667000">
        <ele>766.00</ele>
        <time>2013-07-27T10:59:48Z</time>
      </trkpt>
      <trkpt lat="42.332141000" lon="-2.346681000">
        <ele>766.20</ele>
        <time>2013-07-27T10:59:49Z</time>
      </trkpt>
      <trkpt lat="42.332136000" lon="-2.346696000">
        <ele>766.30</ele>
        <time>2013-07-27T10:59:50Z</time>
      </trkpt>
      <trkpt lat="42.332130000" lon="-2.346713000">
        <ele>766.40</ele>
        <time>2013-07-27T10:59:51Z</time>
      </trkpt>
      <trkpt lat="42.332123000" lon="-2.346731000">
        <ele>766.50</ele>
        <time>2013-07-27T10:59:52Z</time>
      </trkpt>
      <trkpt lat="42.332119000" lon="-2.346746000">
        <ele>766.60</ele>
        <time>2013-07-27T10:59:53Z</time>
      </trkpt>
      <trkpt lat="42.332114000" lon="-2.346762000">
        <ele>766.80</ele>
        <time>2013-07-27T10:59:54Z</time>
      </trkpt>
      <trkpt lat="42.332109000" lon="-2.346779000">
        <ele>766.90</ele>
        <time>2013-07-27T10:59:55Z</time>
      </trkpt>
      <trkpt lat="42.332103000" lon="-2.346797000">
        <ele>767.00</ele>
        <time>2013-07-27T10:59:56Z</time>
      </trkpt>
      <trkpt lat="42.332098000" lon="-2.346814000">
        <ele>767.00</ele>
        <time>2013-07-27T10:59:57Z</time>
      </trkpt>
      <trkpt lat="42.332093000" lon="-2.346832000">
        <ele>767.10</ele>
        <time>2013-07-27T10:59:58Z</time>
      </trkpt>
      <trkpt lat="42.332087000" lon="-2.346850000">
        <ele>767.20</ele>
        <time>2013-07-27T10:59:59Z</time>
      </trkpt>
      <trkpt lat="42.332081000" lon="-2.346866000">
        <ele>767.30</ele>
        <time>2013-07-27T11:00:00Z</time>
      </trkpt>
      <trkpt lat="42.332075000" lon="-2.346884000">
        <ele>767.30</ele>
        <time>2013-07-27T11:00:01Z</time>
      </trkpt>
      <trkpt lat="42.332069000" lon="-2.346904000">
        <ele>767.50</ele>
        <time>2013-07-27T11:00:02Z</time>
      </trkpt>
      <trkpt lat="42.332066000" lon="-2.346923000">
        <ele>767.60</ele>
        <time>2013-07-27T11:00:03Z</time>
      </trkpt>
      <trkpt lat="42.332064000" lon="-2.346940000">
        <ele>767.70</ele>
        <time>2013-07-27T11:00:04Z</time>
      </trkpt>
      <trkpt lat="42.332059000" lon="-2.346952000">
        <ele>767.80</ele>
        <time>2013-07-27T11:00:05Z</time>
      </trkpt>
      <trkpt lat="42.332053000" lon="-2.346969000">
        <ele>767.90</ele>
        <time>2013-07-27T11:00:06Z</time>
      </trkpt>
      <trkpt lat="42.332049000" lon="-2.346984000">
        <ele>768.00</ele>
        <time>2013-07-27T11:00:07Z</time>
      </trkpt>
      <trkpt lat="42.332047000" lon="-2.347001000">
        <ele>768.10</ele>
        <time>2013-07-27T11:00:08Z</time>
      </trkpt>
      <trkpt lat="42.332045000" lon="-2.347020000">
        <ele>768.10</ele>
        <time>2013-07-27T11:00:09Z</time>
      </trkpt>
      <trkpt lat="42.332043000" lon="-2.347039000">
        <ele>768.20</ele>
        <time>2013-07-27T11:00:10Z</time>
      </trkpt>
      <trkpt lat="42.332038000" lon="-2.347056000">
        <ele>768.30</ele>
        <time>2013-07-27T11:00:11Z</time>
      </trkpt>
      <trkpt lat="42.332034000" lon="-2.347076000">
        <ele>768.50</ele>
        <time>2013-07-27T11:00:12Z</time>
      </trkpt>
      <trkpt lat="42.332032000" lon="-2.347091000">
        <ele>768.60</ele>
        <time>2013-07-27T11:00:13Z</time>
      </trkpt>
      <trkpt lat="42.332030000" lon="-2.347107000">
        <ele>768.80</ele>
        <time>2013-07-27T11:00:14Z</time>
      </trkpt>
      <trkpt lat="42.332027000" lon="-2.347125000">
        <ele>769.00</ele>
        <time>2013-07-27T11:00:15Z</time>
      </trkpt>
      <trkpt lat="42.332024000" lon="-2.347142000">
        <ele>769.40</ele>
        <time>2013-07-27T11:00:16Z</time>
      </trkpt>
      <trkpt lat="42.332018000" lon="-2.347159000">
        <ele>769.70</ele>
        <time>2013-07-27T11:00:17Z</time>
      </trkpt>
      <trkpt lat="42.332016000" lon="-2.347171000">
        <ele>769.80</ele>
        <time>2013-07-27T11:00:18Z</time>
      </trkpt>
      <trkpt lat="42.332011000" lon="-2.347183000">
        <ele>769.90</ele>
        <time>2013-07-27T11:00:19Z</time>
      </trkpt>
      <trkpt lat="42.332005000" lon="-2.347201000">
        <ele>770.00</ele>
        <time>2013-07-27T11:00:20Z</time>
      </trkpt>
      <trkpt lat="42.331998000" lon="-2.347220000">
        <ele>770.00</ele>
        <time>2013-07-27T11:00:21Z</time>
      </trkpt>
      <trkpt lat="42.331990000" lon="-2.347235000">
        <ele>770.10</ele>
        <time>2013-07-27T11:00:22Z</time>
      </trkpt>
      <trkpt lat="42.331980000" lon="-2.347252000">
        <ele>770.10</ele>
        <time>2013-07-27T11:00:23Z</time>
      </trkpt>
      <trkpt lat="42.331975000" lon="-2.347273000">
        <ele>770.20</ele>
        <time>2013-07-27T11:00:24Z</time>
      </trkpt>
      <trkpt lat="42.331973000" lon="-2.347293000">
        <ele>770.20</ele>
        <time>2013-07-27T11:00:25Z</time>
      </trkpt>
      <trkpt lat="42.331974000" lon="-2.347305000">
        <ele>770.30</ele>
        <time>2013-07-27T11:00:26Z</time>
      </trkpt>
      <trkpt lat="42.331971000" lon="-2.347318000">
        <ele>770.30</ele>
        <time>2013-07-27T11:00:27Z</time>
      </trkpt>
      <trkpt lat="42.331965000" lon="-2.347336000">
        <ele>770.30</ele>
        <time>2013-07-27T11:00:28Z</time>
      </trkpt>
      <trkpt lat="42.331959000" lon="-2.347350000">
        <ele>770.30</ele>
        <time>2013-07-27T11:00:29Z</time>
      </trkpt>
      <trkpt lat="42.331954000" lon="-2.347365000">
        <ele>770.40</ele>
        <time>2013-07-27T11:00:30Z</time>
      </trkpt>
      <trkpt lat="42.331947000" lon="-2.347387000">
        <ele>770.50</ele>
        <time>2013-07-27T11:00:31Z</time>
      </trkpt>
      <trkpt lat="42.331944000" lon="-2.347404000">
        <ele>770.60</ele>
        <time>2013-07-27T11:00:32Z</time>
      </trkpt>
      <trkpt lat="42.331942000" lon="-2.347424000">
        <ele>770.60</ele>
        <time>2013-07-27T11:00:33Z</time>
      </trkpt>
      <trkpt lat="42.331942000" lon="-2.347444000">
        <ele>770.70</ele>
        <time>2013-07-27T11:00:34Z</time>
      </trkpt>
      <trkpt lat="42.331936000" lon="-2.347465000">
        <ele>770.90</ele>
        <time>2013-07-27T11:00:35Z</time>
      </trkpt>
      <trkpt lat="42.331931000" lon="-2.347488000">
        <ele>771.00</ele>
        <time>2013-07-27T11:00:36Z</time>
      </trkpt>
      <trkpt lat="42.331929000" lon="-2.347507000">
        <ele>771.10</ele>
        <time>2013-07-27T11:00:37Z</time>
      </trkpt>
      <trkpt lat="42.331925000" lon="-2.347528000">
        <ele>771.30</ele>
        <time>2013-07-27T11:00:38Z</time>
      </trkpt>
      <trkpt lat="42.331923000" lon="-2.347547000">
        <ele>771.50</ele>
        <time>2013-07-27T11:00:39Z</time>
      </trkpt>
      <trkpt lat="42.331924000" lon="-2.347567000">
        <ele>771.50</ele>
        <time>2013-07-27T11:00:40Z</time>
      </trkpt>
      <trkpt lat="42.331924000" lon="-2.347586000">
        <ele>771.50</ele>
        <time>2013-07-27T11:00:41Z</time>
      </trkpt>
      <trkpt lat="42.331924000" lon="-2.347604000">
        <ele>771.60</ele>
        <time>2013-07-27T11:00:42Z</time>
      </trkpt>
      <trkpt lat="42.331922000" lon="-2.347621000">
        <ele>771.60</ele>
        <time>2013-07-27T11:00:43Z</time>
      </trkpt>
      <trkpt lat="42.331919000" lon="-2.347637000">
        <ele>771.60</ele>
        <time>2013-07-27T11:00:44Z</time>
      </trkpt>
      <trkpt lat="42.331920000" lon="-2.347657000">
        <ele>771.60</ele>
        <time>2013-07-27T11:00:45Z</time>
      </trkpt>
      <trkpt lat="42.331922000" lon="-2.347677000">
        <ele>771.80</ele>
        <time>2013-07-27T11:00:46Z</time>
      </trkpt>
      <trkpt lat="42.331924000" lon="-2.347697000">
        <ele>772.00</ele>
        <time>2013-07-27T11:00:47Z</time>
      </trkpt>
      <trkpt lat="42.331928000" lon="-2.347717000">
        <ele>772.20</ele>
        <time>2013-07-27T11:00:48Z</time>
      </trkpt>
      <trkpt lat="42.331930000" lon="-2.347737000">
        <ele>772.30</ele>
        <time>2013-07-27T11:00:49Z</time>
      </trkpt>
      <trkpt lat="42.331934000" lon="-2.347761000">
        <ele>772.40</ele>
        <time>2013-07-27T11:00:50Z</time>
      </trkpt>
      <trkpt lat="42.331937000" lon="-2.347783000">
        <ele>772.50</ele>
        <time>2013-07-27T11:00:51Z</time>
      </trkpt>
      <trkpt lat="42.331940000" lon="-2.347804000">
        <ele>772.60</ele>
        <time>2013-07-27T11:00:52Z</time>
      </trkpt>
      <trkpt lat="42.331943000" lon="-2.347825000">
        <ele>772.70</ele>
        <time>2013-07-27T11:00:53Z</time>
      </trkpt>
      <trkpt lat="42.331944000" lon="-2.347846000">
        <ele>772.70</ele>
        <time>2013-07-27T11:00:54Z</time>
      </trkpt>
      <trkpt lat="42.331950000" lon="-2.347868000">
        <ele>772.70</ele>
        <time>2013-07-27T11:00:55Z</time>
      </trkpt>
      <trkpt lat="42.331954000" lon="-2.347890000">
        <ele>772.80</ele>
        <time>2013-07-27T11:00:56Z</time>
      </trkpt>
      <trkpt lat="42.331959000" lon="-2.347910000">
        <ele>772.90</ele>
        <time>2013-07-27T11:00:57Z</time>
      </trkpt>
      <trkpt lat="42.331965000" lon="-2.347928000">
        <ele>772.90</ele>
        <time>2013-07-27T11:00:58Z</time>
      </trkpt>
      <trkpt lat="42.331972000" lon="-2.347945000">
        <ele>772.90</ele>
        <time>2013-07-27T11:00:59Z</time>
      </trkpt>
      <trkpt lat="42.331980000" lon="-2.347968000">
        <ele>773.00</ele>
        <time>2013-07-27T11:01:00Z</time>
      </trkpt>
      <trkpt lat="42.331988000" lon="-2.347988000">
        <ele>773.00</ele>
        <time>2013-07-27T11:01:01Z</time>
      </trkpt>
      <trkpt lat="42.331994000" lon="-2.348007000">
        <ele>773.00</ele>
        <time>2013-07-27T11:01:02Z</time>
      </trkpt>
      <trkpt lat="42.332001000" lon="-2.348024000">
        <ele>773.00</ele>
        <time>2013-07-27T11:01:03Z</time>
      </trkpt>
      <trkpt lat="42.332010000" lon="-2.348040000">
        <ele>773.10</ele>
        <time>2013-07-27T11:01:04Z</time>
      </trkpt>
      <trkpt lat="42.332018000" lon="-2.348057000">
        <ele>773.20</ele>
        <time>2013-07-27T11:01:05Z</time>
      </trkpt>
      <trkpt lat="42.332029000" lon="-2.348071000">
        <ele>773.30</ele>
        <time>2013-07-27T11:01:06Z</time>
      </trkpt>
      <trkpt lat="42.332038000" lon="-2.348086000">
        <ele>773.40</ele>
        <time>2013-07-27T11:01:07Z</time>
      </trkpt>
      <trkpt lat="42.332047000" lon="-2.348099000">
        <ele>773.50</ele>
        <time>2013-07-27T11:01:08Z</time>
      </trkpt>
      <trkpt lat="42.332060000" lon="-2.348116000">
        <ele>773.60</ele>
        <time>2013-07-27T11:01:09Z</time>
      </trkpt>
      <trkpt lat="42.332072000" lon="-2.348129000">
        <ele>773.70</ele>
        <time>2013-07-27T11:01:10Z</time>
      </trkpt>
      <trkpt lat="42.332083000" lon="-2.348146000">
        <ele>773.70</ele>
        <time>2013-07-27T11:01:11Z</time>
      </trkpt>
      <trkpt lat="42.332091000" lon="-2.348161000">
        <ele>773.80</ele>
        <time>2013-07-27T11:01:12Z</time>
      </trkpt>
      <trkpt lat="42.332100000" lon="-2.348179000">
        <ele>773.90</ele>
        <time>2013-07-27T11:01:13Z</time>
      </trkpt>
      <trkpt lat="42.332113000" lon="-2.348193000">
        <ele>773.90</ele>
        <time>2013-07-27T11:01:14Z</time>
      </trkpt>
      <trkpt lat="42.332128000" lon="-2.348207000">
        <ele>774.00</ele>
        <time>2013-07-27T11:01:15Z</time>
      </trkpt>
      <trkpt lat="42.332142000" lon="-2.348221000">
        <ele>774.00</ele>
        <time>2013-07-27T11:01:16Z</time>
      </trkpt>
      <trkpt lat="42.332154000" lon="-2.348234000">
        <ele>774.00</ele>
        <time>2013-07-27T11:01:17Z</time>
      </trkpt>
      <trkpt lat="42.332165000" lon="-2.348246000">
        <ele>774.10</ele>
        <time>2013-07-27T11:01:18Z</time>
      </trkpt>
      <trkpt lat="42.332175000" lon="-2.348264000">
        <ele>774.10</ele>
        <time>2013-07-27T11:01:19Z</time>
      </trkpt>
      <trkpt lat="42.332188000" lon="-2.348277000">
        <ele>774.40</ele>
        <time>2013-07-27T11:01:20Z</time>
      </trkpt>
      <trkpt lat="42.332201000" lon="-2.348285000">
        <ele>774.60</ele>
        <time>2013-07-27T11:01:21Z</time>
      </trkpt>
      <trkpt lat="42.332215000" lon="-2.348297000">
        <ele>774.80</ele>
        <time>2013-07-27T11:01:22Z</time>
      </trkpt>
      <trkpt lat="42.332228000" lon="-2.348307000">
        <ele>774.90</ele>
        <time>2013-07-27T11:01:23Z</time>
      </trkpt>
      <trkpt lat="42.332240000" lon="-2.348318000">
        <ele>775.00</ele>
        <time>2013-07-27T11:01:24Z</time>
      </trkpt>
      <trkpt lat="42.332253000" lon="-2.348330000">
        <ele>775.10</ele>
        <time>2013-07-27T11:01:25Z</time>
      </trkpt>
      <trkpt lat="42.332267000" lon="-2.348340000">
        <ele>775.20</ele>
        <time>2013-07-27T11:01:26Z</time>
      </trkpt>
      <trkpt lat="42.332278000" lon="-2.348355000">
        <ele>775.30</ele>
        <time>2013-07-27T11:01:27Z</time>
      </trkpt>
      <trkpt lat="42.332290000" lon="-2.348369000">
        <ele>775.40</ele>
        <time>2013-07-27T11:01:28Z</time>
      </trkpt>
      <trkpt lat="42.332304000" lon="-2.348383000">
        <ele>775.50</ele>
        <time>2013-07-27T11:01:29Z</time>
      </trkpt>
      <trkpt lat="42.332313000" lon="-2.348404000">
        <ele>775.60</ele>
        <time>2013-07-27T11:01:30Z</time>
      </trkpt>
      <trkpt lat="42.332326000" lon="-2.348422000">
        <ele>775.60</ele>
        <time>2013-07-27T11:01:31Z</time>
      </trkpt>
      <trkpt lat="42.332335000" lon="-2.348438000">
        <ele>775.70</ele>
        <time>2013-07-27T11:01:32Z</time>
      </trkpt>
      <trkpt lat="42.332340000" lon="-2.348455000">
        <ele>775.70</ele>
        <time>2013-07-27T11:01:33Z</time>
      </trkpt>
      <trkpt lat="42.332351000" lon="-2.348467000">
        <ele>775.80</ele>
        <time>2013-07-27T11:01:34Z</time>
      </trkpt>
      <trkpt lat="42.332360000" lon="-2.348489000">
        <ele>775.80</ele>
        <time>2013-07-27T11:01:35Z</time>
      </trkpt>
      <trkpt lat="42.332363000" lon="-2.348515000">
        <ele>775.80</ele>
        <time>2013-07-27T11:01:36Z</time>
      </trkpt>
      <trkpt lat="42.332363000" lon="-2.348538000">
        <ele>775.90</ele>
        <time>2013-07-27T11:01:37Z</time>
      </trkpt>
      <trkpt lat="42.332352000" lon="-2.348560000">
        <ele>776.10</ele>
        <time>2013-07-27T11:01:38Z</time>
      </trkpt>
      <trkpt lat="42.332341000" lon="-2.348577000">
        <ele>776.30</ele>
        <time>2013-07-27T11:01:39Z</time>
      </trkpt>
      <trkpt lat="42.332325000" lon="-2.348590000">
        <ele>776.40</ele>
        <time>2013-07-27T11:01:40Z</time>
      </trkpt>
      <trkpt lat="42.332312000" lon="-2.348596000">
        <ele>776.50</ele>
        <time>2013-07-27T11:01:41Z</time>
      </trkpt>
      <trkpt lat="42.332299000" lon="-2.348599000">
        <ele>776.40</ele>
        <time>2013-07-27T11:01:42Z</time>
      </trkpt>
      <trkpt lat="42.332288000" lon="-2.348600000">
        <ele>776.30</ele>
        <time>2013-07-27T11:01:43Z</time>
      </trkpt>
      <trkpt lat="42.332275000" lon="-2.348595000">
        <ele>776.30</ele>
        <time>2013-07-27T11:01:44Z</time>
      </trkpt>
      <trkpt lat="42.332260000" lon="-2.348587000">
        <ele>776.20</ele>
        <time>2013-07-27T11:01:45Z</time>
      </trkpt>
      <trkpt lat="42.332247000" lon="-2.348583000">
        <ele>776.60</ele>
        <time>2013-07-27T11:01:46Z</time>
      </trkpt>
      <trkpt lat="42.332236000" lon="-2.348570000">
        <ele>777.00</ele>
        <time>2013-07-27T11:01:47Z</time>
      </trkpt>
      <trkpt lat="42.332225000" lon="-2.348558000">
        <ele>777.30</ele>
        <time>2013-07-27T11:01:48Z</time>
      </trkpt>
      <trkpt lat="42.332212000" lon="-2.348545000">
        <ele>777.50</ele>
        <time>2013-07-27T11:01:49Z</time>
      </trkpt>
      <trkpt lat="42.332201000" lon="-2.348536000">
        <ele>777.70</ele>
        <time>2013-07-27T11:01:50Z</time>
      </trkpt>
      <trkpt lat="42.332194000" lon="-2.348522000">
        <ele>777.90</ele>
        <time>2013-07-27T11:01:51Z</time>
      </trkpt>
      <trkpt lat="42.332183000" lon="-2.348511000">
        <ele>778.30</ele>
        <time>2013-07-27T11:01:52Z</time>
      </trkpt>
      <trkpt lat="42.332171000" lon="-2.348497000">
        <ele>778.50</ele>
        <time>2013-07-27T11:01:53Z</time>
      </trkpt>
      <trkpt lat="42.332158000" lon="-2.348479000">
        <ele>778.70</ele>
        <time>2013-07-27T11:01:54Z</time>
      </trkpt>
      <trkpt lat="42.332146000" lon="-2.348464000">
        <ele>778.90</ele>
        <time>2013-07-27T11:01:55Z</time>
      </trkpt>
      <trkpt lat="42.332133000" lon="-2.348452000">
        <ele>779.00</ele>
        <time>2013-07-27T11:01:56Z</time>
      </trkpt>
      <trkpt lat="42.332119000" lon="-2.348441000">
        <ele>779.00</ele>
        <time>2013-07-27T11:01:57Z</time>
      </trkpt>
      <trkpt lat="42.332107000" lon="-2.348429000">
        <ele>779.00</ele>
        <time>2013-07-27T11:01:58Z</time>
      </trkpt>
      <trkpt lat="42.332095000" lon="-2.348417000">
        <ele>778.90</ele>
        <time>2013-07-27T11:01:59Z</time>
      </trkpt>
      <trkpt lat="42.332083000" lon="-2.348404000">
        <ele>778.90</ele>
        <time>2013-07-27T11:02:00Z</time>
      </trkpt>
      <trkpt lat="42.332070000" lon="-2.348390000">
        <ele>778.90</ele>
        <time>2013-07-27T11:02:01Z</time>
      </trkpt>
      <trkpt lat="42.332056000" lon="-2.348375000">
        <ele>779.20</ele>
        <time>2013-07-27T11:02:02Z</time>
      </trkpt>
      <trkpt lat="42.332043000" lon="-2.348363000">
        <ele>779.50</ele>
        <time>2013-07-27T11:02:03Z</time>
      </trkpt>
      <trkpt lat="42.332028000" lon="-2.348350000">
        <ele>779.60</ele>
        <time>2013-07-27T11:02:04Z</time>
      </trkpt>
      <trkpt lat="42.332013000" lon="-2.348341000">
        <ele>779.80</ele>
        <time>2013-07-27T11:02:05Z</time>
      </trkpt>
      <trkpt lat="42.331997000" lon="-2.348328000">
        <ele>779.90</ele>
        <time>2013-07-27T11:02:06Z</time>
      </trkpt>
      <trkpt lat="42.331980000" lon="-2.348318000">
        <ele>780.00</ele>
        <time>2013-07-27T11:02:07Z</time>
      </trkpt>
      <trkpt lat="42.331965000" lon="-2.348309000">
        <ele>780.20</ele>
        <time>2013-07-27T11:02:08Z</time>
      </trkpt>
      <trkpt lat="42.331944000" lon="-2.348303000">
        <ele>780.40</ele>
        <time>2013-07-27T11:02:09Z</time>
      </trkpt>
      <trkpt lat="42.331923000" lon="-2.348292000">
        <ele>780.50</ele>
        <time>2013-07-27T11:02:10Z</time>
      </trkpt>
      <trkpt lat="42.331902000" lon="-2.348285000">
        <ele>780.60</ele>
        <time>2013-07-27T11:02:11Z</time>
      </trkpt>
      <trkpt lat="42.331886000" lon="-2.348281000">
        <ele>780.70</ele>
        <time>2013-07-27T11:02:12Z</time>
      </trkpt>
      <trkpt lat="42.331870000" lon="-2.348275000">
        <ele>780.80</ele>
        <time>2013-07-27T11:02:13Z</time>
      </trkpt>
      <trkpt lat="42.331854000" lon="-2.348268000">
        <ele>780.60</ele>
        <time>2013-07-27T11:02:14Z</time>
      </trkpt>
      <trkpt lat="42.331834000" lon="-2.348266000">
        <ele>780.60</ele>
        <time>2013-07-27T11:02:15Z</time>
      </trkpt>
      <trkpt lat="42.331816000" lon="-2.348263000">
        <ele>780.60</ele>
        <time>2013-07-27T11:02:16Z</time>
      </trkpt>
      <trkpt lat="42.331800000" lon="-2.348260000">
        <ele>780.60</ele>
        <time>2013-07-27T11:02:17Z</time>
      </trkpt>
      <trkpt lat="42.331785000" lon="-2.348256000">
        <ele>780.70</ele>
        <time>2013-07-27T11:02:18Z</time>
      </trkpt>
      <trkpt lat="42.331766000" lon="-2.348254000">
        <ele>780.70</ele>
        <time>2013-07-27T11:02:19Z</time>
      </trkpt>
      <trkpt lat="42.331746000" lon="-2.348252000">
        <ele>780.70</ele>
        <time>2013-07-27T11:02:20Z</time>
      </trkpt>
      <trkpt lat="42.331730000" lon="-2.348243000">
        <ele>780.80</ele>
        <time>2013-07-27T11:02:21Z</time>
      </trkpt>
      <trkpt lat="42.331715000" lon="-2.348236000">
        <ele>780.90</ele>
        <time>2013-07-27T11:02:22Z</time>
      </trkpt>
      <trkpt lat="42.331697000" lon="-2.348234000">
        <ele>781.00</ele>
        <time>2013-07-27T11:02:23Z</time>
      </trkpt>
      <trkpt lat="42.331679000" lon="-2.348229000">
        <ele>781.00</ele>
        <time>2013-07-27T11:02:24Z</time>
      </trkpt>
      <trkpt lat="42.331660000" lon="-2.348221000">
        <ele>780.90</ele>
        <time>2013-07-27T11:02:25Z</time>
      </trkpt>
      <trkpt lat="42.331644000" lon="-2.348213000">
        <ele>780.90</ele>
        <time>2013-07-27T11:02:26Z</time>
      </trkpt>
      <trkpt lat="42.331629000" lon="-2.348205000">
        <ele>780.90</ele>
        <time>2013-07-27T11:02:27Z</time>
      </trkpt>
      <trkpt lat="42.331614000" lon="-2.348195000">
        <ele>780.90</ele>
        <time>2013-07-27T11:02:28Z</time>
      </trkpt>
      <trkpt lat="42.331597000" lon="-2.348185000">
        <ele>780.90</ele>
        <time>2013-07-27T11:02:29Z</time>
      </trkpt>
      <trkpt lat="42.331579000" lon="-2.348174000">
        <ele>780.90</ele>
        <time>2013-07-27T11:02:30Z</time>
      </trkpt>
      <trkpt lat="42.331562000" lon="-2.348160000">
        <ele>781.10</ele>
        <time>2013-07-27T11:02:31Z</time>
      </trkpt>
      <trkpt lat="42.331543000" lon="-2.348147000">
        <ele>781.30</ele>
        <time>2013-07-27T11:02:32Z</time>
      </trkpt>
      <trkpt lat="42.331524000" lon="-2.348130000">
        <ele>781.50</ele>
        <time>2013-07-27T11:02:33Z</time>
      </trkpt>
      <trkpt lat="42.331508000" lon="-2.348117000">
        <ele>781.60</ele>
        <time>2013-07-27T11:02:34Z</time>
      </trkpt>
      <trkpt lat="42.331493000" lon="-2.348104000">
        <ele>781.70</ele>
        <time>2013-07-27T11:02:35Z</time>
      </trkpt>
      <trkpt lat="42.331476000" lon="-2.348091000">
        <ele>781.70</ele>
        <time>2013-07-27T11:02:36Z</time>
      </trkpt>
      <trkpt lat="42.331460000" lon="-2.348079000">
        <ele>781.80</ele>
        <time>2013-07-27T11:02:37Z</time>
      </trkpt>
      <trkpt lat="42.331444000" lon="-2.348065000">
        <ele>781.90</ele>
        <time>2013-07-27T11:02:38Z</time>
      </trkpt>
      <trkpt lat="42.331428000" lon="-2.348051000">
        <ele>782.00</ele>
        <time>2013-07-27T11:02:39Z</time>
      </trkpt>
      <trkpt lat="42.331409000" lon="-2.348037000">
        <ele>782.10</ele>
        <time>2013-07-27T11:02:40Z</time>
      </trkpt>
      <trkpt lat="42.331392000" lon="-2.348023000">
        <ele>782.20</ele>
        <time>2013-07-27T11:02:41Z</time>
      </trkpt>
      <trkpt lat="42.331375000" lon="-2.348007000">
        <ele>782.20</ele>
        <time>2013-07-27T11:02:42Z</time>
      </trkpt>
      <trkpt lat="42.331358000" lon="-2.347990000">
        <ele>782.30</ele>
        <time>2013-07-27T11:02:43Z</time>
      </trkpt>
      <trkpt lat="42.331344000" lon="-2.347968000">
        <ele>782.30</ele>
        <time>2013-07-27T11:02:44Z</time>
      </trkpt>
      <trkpt lat="42.331329000" lon="-2.347949000">
        <ele>782.20</ele>
        <time>2013-07-27T11:02:45Z</time>
      </trkpt>
      <trkpt lat="42.331313000" lon="-2.347934000">
        <ele>782.10</ele>
        <time>2013-07-27T11:02:46Z</time>
      </trkpt>
      <trkpt lat="42.331295000" lon="-2.347920000">
        <ele>782.30</ele>
        <time>2013-07-27T11:02:47Z</time>
      </trkpt>
      <trkpt lat="42.331278000" lon="-2.347909000">
        <ele>782.40</ele>
        <time>2013-07-27T11:02:48Z</time>
      </trkpt>
      <trkpt lat="42.331261000" lon="-2.347895000">
        <ele>782.80</ele>
        <time>2013-07-27T11:02:49Z</time>
      </trkpt>
      <trkpt lat="42.331245000" lon="-2.347880000">
        <ele>783.00</ele>
        <time>2013-07-27T11:02:50Z</time>
      </trkpt>
      <trkpt lat="42.331231000" lon="-2.347863000">
        <ele>783.20</ele>
        <time>2013-07-27T11:02:51Z</time>
      </trkpt>
      <trkpt lat="42.331215000" lon="-2.347847000">
        <ele>783.40</ele>
        <time>2013-07-27T11:02:52Z</time>
      </trkpt>
      <trkpt lat="42.331201000" lon="-2.347830000">
        <ele>783.50</ele>
        <time>2013-07-27T11:02:53Z</time>
      </trkpt>
      <trkpt lat="42.331187000" lon="-2.347814000">
        <ele>783.60</ele>
        <time>2013-07-27T11:02:54Z</time>
      </trkpt>
      <trkpt lat="42.331174000" lon="-2.347798000">
        <ele>783.90</ele>
        <time>2013-07-27T11:02:55Z</time>
      </trkpt>
      <trkpt lat="42.331158000" lon="-2.347784000">
        <ele>784.10</ele>
        <time>2013-07-27T11:02:56Z</time>
      </trkpt>
      <trkpt lat="42.331143000" lon="-2.347768000">
        <ele>784.20</ele>
        <time>2013-07-27T11:02:57Z</time>
      </trkpt>
      <trkpt lat="42.331127000" lon="-2.347754000">
        <ele>784.40</ele>
        <time>2013-07-27T11:02:58Z</time>
      </trkpt>
      <trkpt lat="42.331112000" lon="-2.347742000">
        <ele>784.70</ele>
        <time>2013-07-27T11:02:59Z</time>
      </trkpt>
      <trkpt lat="42.331095000" lon="-2.347727000">
        <ele>784.90</ele>
        <time>2013-07-27T11:03:00Z</time>
      </trkpt>
      <trkpt lat="42.331078000" lon="-2.347712000">
        <ele>784.80</ele>
        <time>2013-07-27T11:03:01Z</time>
      </trkpt>
      <trkpt lat="42.331062000" lon="-2.347698000">
        <ele>784.80</ele>
        <time>2013-07-27T11:03:02Z</time>
      </trkpt>
      <trkpt lat="42.331048000" lon="-2.347684000">
        <ele>784.90</ele>
        <time>2013-07-27T11:03:03Z</time>
      </trkpt>
      <trkpt lat="42.331033000" lon="-2.347666000">
        <ele>785.10</ele>
        <time>2013-07-27T11:03:04Z</time>
      </trkpt>
      <trkpt lat="42.331020000" lon="-2.347649000">
        <ele>785.10</ele>
        <time>2013-07-27T11:03:05Z</time>
      </trkpt>
      <trkpt lat="42.331005000" lon="-2.347631000">
        <ele>785.20</ele>
        <time>2013-07-27T11:03:06Z</time>
      </trkpt>
      <trkpt lat="42.330990000" lon="-2.347613000">
        <ele>785.50</ele>
        <time>2013-07-27T11:03:07Z</time>
      </trkpt>
      <trkpt lat="42.330975000" lon="-2.347597000">
        <ele>785.70</ele>
        <time>2013-07-27T11:03:08Z</time>
      </trkpt>
      <trkpt lat="42.330964000" lon="-2.347578000">
        <ele>785.80</ele>
        <time>2013-07-27T11:03:09Z</time>
      </trkpt>
      <trkpt lat="42.330958000" lon="-2.347550000">
        <ele>785.90</ele>
        <time>2013-07-27T11:03:10Z</time>
      </trkpt>
      <trkpt lat="42.330949000" lon="-2.347522000">
        <ele>785.90</ele>
        <time>2013-07-27T11:03:11Z</time>
      </trkpt>
      <trkpt lat="42.330937000" lon="-2.347493000">
        <ele>785.90</ele>
        <time>2013-07-27T11:03:12Z</time>
      </trkpt>
      <trkpt lat="42.330923000" lon="-2.347465000">
        <ele>785.90</ele>
        <time>2013-07-27T11:03:13Z</time>
      </trkpt>
      <trkpt lat="42.330916000" lon="-2.347439000">
        <ele>785.90</ele>
        <time>2013-07-27T11:03:14Z</time>
      </trkpt>
      <trkpt lat="42.330914000" lon="-2.347412000">
        <ele>785.90</ele>
        <time>2013-07-27T11:03:15Z</time>
      </trkpt>
      <trkpt lat="42.330909000" lon="-2.347387000">
        <ele>785.90</ele>
        <time>2013-07-27T11:03:16Z</time>
      </trkpt>
      <trkpt lat="42.330908000" lon="-2.347364000">
        <ele>786.00</ele>
        <time>2013-07-27T11:03:17Z</time>
      </trkpt>
      <trkpt lat="42.330903000" lon="-2.347340000">
        <ele>786.10</ele>
        <time>2013-07-27T11:03:18Z</time>
      </trkpt>
      <trkpt lat="42.330901000" lon="-2.347316000">
        <ele>786.00</ele>
        <time>2013-07-27T11:03:19Z</time>
      </trkpt>
      <trkpt lat="42.330898000" lon="-2.347295000">
        <ele>786.00</ele>
        <time>2013-07-27T11:03:20Z</time>
      </trkpt>
      <trkpt lat="42.330895000" lon="-2.347273000">
        <ele>786.10</ele>
        <time>2013-07-27T11:03:21Z</time>
      </trkpt>
      <trkpt lat="42.330894000" lon="-2.347249000">
        <ele>786.20</ele>
        <time>2013-07-27T11:03:22Z</time>
      </trkpt>
      <trkpt lat="42.330890000" lon="-2.347228000">
        <ele>786.20</ele>
        <time>2013-07-27T11:03:23Z</time>
      </trkpt>
      <trkpt lat="42.330889000" lon="-2.347200000">
        <ele>786.20</ele>
        <time>2013-07-27T11:03:24Z</time>
      </trkpt>
      <trkpt lat="42.330887000" lon="-2.347172000">
        <ele>786.30</ele>
        <time>2013-07-27T11:03:25Z</time>
      </trkpt>
      <trkpt lat="42.330886000" lon="-2.347145000">
        <ele>786.40</ele>
        <time>2013-07-27T11:03:26Z</time>
      </trkpt>
      <trkpt lat="42.330885000" lon="-2.347117000">
        <ele>786.60</ele>
        <time>2013-07-27T11:03:27Z</time>
      </trkpt>
      <trkpt lat="42.330882000" lon="-2.347083000">
        <ele>786.70</ele>
        <time>2013-07-27T11:03:28Z</time>
      </trkpt>
      <trkpt lat="42.330885000" lon="-2.347056000">
        <ele>786.80</ele>
        <time>2013-07-27T11:03:29Z</time>
      </trkpt>
      <trkpt lat="42.330887000" lon="-2.347033000">
        <ele>786.90</ele>
        <time>2013-07-27T11:03:30Z</time>
      </trkpt>
      <trkpt lat="42.330888000" lon="-2.347006000">
        <ele>787.00</ele>
        <time>2013-07-27T11:03:31Z</time>
      </trkpt>
      <trkpt lat="42.330888000" lon="-2.346980000">
        <ele>787.10</ele>
        <time>2013-07-27T11:03:32Z</time>
      </trkpt>
      <trkpt lat="42.330888000" lon="-2.346955000">
        <ele>787.20</ele>
        <time>2013-07-27T11:03:33Z</time>
      </trkpt>
      <trkpt lat="42.330888000" lon="-2.346931000">
        <ele>787.20</ele>
        <time>2013-07-27T11:03:34Z</time>
      </trkpt>
      <trkpt lat="42.330887000" lon="-2.346902000">
        <ele>787.20</ele>
        <time>2013-07-27T11:03:35Z</time>
      </trkpt>
      <trkpt lat="42.330887000" lon="-2.346875000">
        <ele>787.30</ele>
        <time>2013-07-27T11:03:36Z</time>
      </trkpt>
      <trkpt lat="42.330889000" lon="-2.346850000">
        <ele>787.20</ele>
        <time>2013-07-27T11:03:37Z</time>
      </trkpt>
      <trkpt lat="42.330891000" lon="-2.346820000">
        <ele>787.10</ele>
        <time>2013-07-27T11:03:38Z</time>
      </trkpt>
      <trkpt lat="42.330889000" lon="-2.346792000">
        <ele>787.10</ele>
        <time>2013-07-27T11:03:39Z</time>
      </trkpt>
      <trkpt lat="42.330891000" lon="-2.346766000">
        <ele>787.10</ele>
        <time>2013-07-27T11:03:40Z</time>
      </trkpt>
      <trkpt lat="42.330893000" lon="-2.346739000">
        <ele>787.10</ele>
        <time>2013-07-27T11:03:41Z</time>
      </trkpt>
      <trkpt lat="42.330895000" lon="-2.346713000">
        <ele>787.10</ele>
        <time>2013-07-27T11:03:42Z</time>
      </trkpt>
      <trkpt lat="42.330898000" lon="-2.346690000">
        <ele>787.20</ele>
        <time>2013-07-27T11:03:43Z</time>
      </trkpt>
      <trkpt lat="42.330902000" lon="-2.346664000">
        <ele>787.30</ele>
        <time>2013-07-27T11:03:44Z</time>
      </trkpt>
      <trkpt lat="42.330906000" lon="-2.346638000">
        <ele>787.40</ele>
        <time>2013-07-27T11:03:45Z</time>
      </trkpt>
      <trkpt lat="42.330910000" lon="-2.346610000">
        <ele>787.50</ele>
        <time>2013-07-27T11:03:46Z</time>
      </trkpt>
      <trkpt lat="42.330915000" lon="-2.346582000">
        <ele>787.50</ele>
        <time>2013-07-27T11:03:47Z</time>
      </trkpt>
      <trkpt lat="42.330921000" lon="-2.346554000">
        <ele>787.50</ele>
        <time>2013-07-27T11:03:48Z</time>
      </trkpt>
      <trkpt lat="42.330930000" lon="-2.346529000">
        <ele>787.70</ele>
        <time>2013-07-27T11:03:49Z</time>
      </trkpt>
      <trkpt lat="42.330935000" lon="-2.346500000">
        <ele>787.90</ele>
        <time>2013-07-27T11:03:50Z</time>
      </trkpt>
      <trkpt lat="42.330940000" lon="-2.346471000">
        <ele>787.60</ele>
        <time>2013-07-27T11:03:51Z</time>
      </trkpt>
      <trkpt lat="42.330951000" lon="-2.346438000">
        <ele>787.50</ele>
        <time>2013-07-27T11:03:52Z</time>
      </trkpt>
      <trkpt lat="42.330958000" lon="-2.346408000">
        <ele>787.70</ele>
        <time>2013-07-27T11:03:53Z</time>
      </trkpt>
      <trkpt lat="42.330963000" lon="-2.346379000">
        <ele>787.80</ele>
        <time>2013-07-27T11:03:54Z</time>
      </trkpt>
      <trkpt lat="42.330972000" lon="-2.346345000">
        <ele>787.90</ele>
        <time>2013-07-27T11:03:55Z</time>
      </trkpt>
      <trkpt lat="42.330979000" lon="-2.346314000">
        <ele>787.90</ele>
        <time>2013-07-27T11:03:56Z</time>
      </trkpt>
      <trkpt lat="42.330986000" lon="-2.346284000">
        <ele>788.00</ele>
        <time>2013-07-27T11:03:57Z</time>
      </trkpt>
      <trkpt lat="42.330993000" lon="-2.346255000">
        <ele>788.10</ele>
        <time>2013-07-27T11:03:58Z</time>
      </trkpt>
      <trkpt lat="42.330998000" lon="-2.346224000">
        <ele>788.40</ele>
        <time>2013-07-27T11:03:59Z</time>
      </trkpt>
      <trkpt lat="42.331004000" lon="-2.346191000">
        <ele>788.70</ele>
        <time>2013-07-27T11:04:00Z</time>
      </trkpt>
      <trkpt lat="42.331011000" lon="-2.346155000">
        <ele>788.90</ele>
        <time>2013-07-27T11:04:01Z</time>
      </trkpt>
      <trkpt lat="42.331016000" lon="-2.346125000">
        <ele>789.00</ele>
        <time>2013-07-27T11:04:02Z</time>
      </trkpt>
      <trkpt lat="42.331020000" lon="-2.346093000">
        <ele>789.10</ele>
        <time>2013-07-27T11:04:03Z</time>
      </trkpt>
      <trkpt lat="42.331024000" lon="-2.346060000">
        <ele>789.20</ele>
        <time>2013-07-27T11:04:04Z</time>
      </trkpt>
      <trkpt lat="42.331027000" lon="-2.346029000">
        <ele>789.30</ele>
        <time>2013-07-27T11:04:05Z</time>
      </trkpt>
      <trkpt lat="42.331029000" lon="-2.345997000">
        <ele>789.40</ele>
        <time>2013-07-27T11:04:06Z</time>
      </trkpt>
      <trkpt lat="42.331034000" lon="-2.345964000">
        <ele>789.50</ele>
        <time>2013-07-27T11:04:07Z</time>
      </trkpt>
      <trkpt lat="42.331035000" lon="-2.345932000">
        <ele>789.60</ele>
        <time>2013-07-27T11:04:08Z</time>
      </trkpt>
      <trkpt lat="42.331037000" lon="-2.345899000">
        <ele>789.70</ele>
        <time>2013-07-27T11:04:09Z</time>
      </trkpt>
      <trkpt lat="42.331038000" lon="-2.345870000">
        <ele>789.70</ele>
        <time>2013-07-27T11:04:10Z</time>
      </trkpt>
      <trkpt lat="42.331039000" lon="-2.345837000">
        <ele>789.70</ele>
        <time>2013-07-27T11:04:11Z</time>
      </trkpt>
      <trkpt lat="42.331041000" lon="-2.345807000">
        <ele>789.80</ele>
        <time>2013-07-27T11:04:12Z</time>
      </trkpt>
      <trkpt lat="42.331038000" lon="-2.345775000">
        <ele>789.80</ele>
        <time>2013-07-27T11:04:13Z</time>
      </trkpt>
      <trkpt lat="42.331034000" lon="-2.345747000">
        <ele>789.80</ele>
        <time>2013-07-27T11:04:14Z</time>
      </trkpt>
      <trkpt lat="42.331030000" lon="-2.345721000">
        <ele>790.00</ele>
        <time>2013-07-27T11:04:15Z</time>
      </trkpt>
      <trkpt lat="42.331025000" lon="-2.345696000">
        <ele>790.20</ele>
        <time>2013-07-27T11:04:16Z</time>
      </trkpt>
      <trkpt lat="42.331019000" lon="-2.345666000">
        <ele>790.40</ele>
        <time>2013-07-27T11:04:17Z</time>
      </trkpt>
      <trkpt lat="42.331014000" lon="-2.345636000">
        <ele>790.50</ele>
        <time>2013-07-27T11:04:18Z</time>
      </trkpt>
      <trkpt lat="42.331006000" lon="-2.345609000">
        <ele>790.60</ele>
        <time>2013-07-27T11:04:19Z</time>
      </trkpt>
      <trkpt lat="42.330999000" lon="-2.345587000">
        <ele>790.70</ele>
        <time>2013-07-27T11:04:20Z</time>
      </trkpt>
      <trkpt lat="42.330994000" lon="-2.345567000">
        <ele>790.80</ele>
        <time>2013-07-27T11:04:21Z</time>
      </trkpt>
      <trkpt lat="42.330990000" lon="-2.345547000">
        <ele>790.90</ele>
        <time>2013-07-27T11:04:22Z</time>
      </trkpt>
      <trkpt lat="42.330988000" lon="-2.345526000">
        <ele>791.10</ele>
        <time>2013-07-27T11:04:23Z</time>
      </trkpt>
      <trkpt lat="42.330988000" lon="-2.345508000">
        <ele>791.20</ele>
        <time>2013-07-27T11:04:24Z</time>
      </trkpt>
      <trkpt lat="42.330985000" lon="-2.345488000">
        <ele>791.30</ele>
        <time>2013-07-27T11:04:25Z</time>
      </trkpt>
      <trkpt lat="42.330982000" lon="-2.345466000">
        <ele>791.30</ele>
        <time>2013-07-27T11:04:26Z</time>
      </trkpt>
      <trkpt lat="42.330979000" lon="-2.345446000">
        <ele>791.50</ele>
        <time>2013-07-27T11:04:27Z</time>
      </trkpt>
      <trkpt lat="42.330976000" lon="-2.345428000">
        <ele>791.60</ele>
        <time>2013-07-27T11:04:28Z</time>
      </trkpt>
      <trkpt lat="42.330973000" lon="-2.345409000">
        <ele>791.80</ele>
        <time>2013-07-27T11:04:29Z</time>
      </trkpt>
      <trkpt lat="42.330971000" lon="-2.345391000">
        <ele>791.90</ele>
        <time>2013-07-27T11:04:30Z</time>
      </trkpt>
      <trkpt lat="42.330968000" lon="-2.345373000">
        <ele>791.90</ele>
        <time>2013-07-27T11:04:31Z</time>
      </trkpt>
      <trkpt lat="42.330965000" lon="-2.345354000">
        <ele>791.90</ele>
        <time>2013-07-27T11:04:32Z</time>
      </trkpt>
      <trkpt lat="42.330960000" lon="-2.345336000">
        <ele>791.90</ele>
        <time>2013-07-27T11:04:33Z</time>
      </trkpt>
      <trkpt lat="42.330959000" lon="-2.345319000">
        <ele>791.80</ele>
        <time>2013-07-27T11:04:34Z</time>
      </trkpt>
      <trkpt lat="42.330959000" lon="-2.345299000">
        <ele>791.80</ele>
        <time>2013-07-27T11:04:35Z</time>
      </trkpt>
      <trkpt lat="42.330961000" lon="-2.345279000">
        <ele>791.80</ele>
        <time>2013-07-27T11:04:36Z</time>
      </trkpt>
      <trkpt lat="42.330963000" lon="-2.345258000">
        <ele>792.00</ele>
        <time>2013-07-27T11:04:37Z</time>
      </trkpt>
      <trkpt lat="42.330967000" lon="-2.345239000">
        <ele>792.20</ele>
        <time>2013-07-27T11:04:38Z</time>
      </trkpt>
      <trkpt lat="42.330970000" lon="-2.345217000">
        <ele>792.40</ele>
        <time>2013-07-27T11:04:39Z</time>
      </trkpt>
      <trkpt lat="42.330972000" lon="-2.345200000">
        <ele>792.50</ele>
        <time>2013-07-27T11:04:40Z</time>
      </trkpt>
      <trkpt lat="42.330976000" lon="-2.345185000">
        <ele>792.70</ele>
        <time>2013-07-27T11:04:41Z</time>
      </trkpt>
      <trkpt lat="42.330979000" lon="-2.345167000">
        <ele>792.80</ele>
        <time>2013-07-27T11:04:42Z</time>
      </trkpt>
      <trkpt lat="42.330984000" lon="-2.345153000">
        <ele>793.00</ele>
        <time>2013-07-27T11:04:43Z</time>
      </trkpt>
      <trkpt lat="42.330992000" lon="-2.345138000">
        <ele>793.20</ele>
        <time>2013-07-27T11:04:44Z</time>
      </trkpt>
      <trkpt lat="42.331000000" lon="-2.345123000">
        <ele>793.30</ele>
        <time>2013-07-27T11:04:45Z</time>
      </trkpt>
      <trkpt lat="42.331010000" lon="-2.345106000">
        <ele>793.40</ele>
        <time>2013-07-27T11:04:46Z</time>
      </trkpt>
      <trkpt lat="42.331018000" lon="-2.345089000">
        <ele>793.30</ele>
        <time>2013-07-27T11:04:47Z</time>
      </trkpt>
      <trkpt lat="42.331026000" lon="-2.345075000">
        <ele>793.30</ele>
        <time>2013-07-27T11:04:48Z</time>
      </trkpt>
      <trkpt lat="42.331036000" lon="-2.345060000">
        <ele>793.20</ele>
        <time>2013-07-27T11:04:49Z</time>
      </trkpt>
      <trkpt lat="42.331043000" lon="-2.345047000">
        <ele>793.20</ele>
        <time>2013-07-27T11:04:50Z</time>
      </trkpt>
      <trkpt lat="42.331053000" lon="-2.345035000">
        <ele>793.10</ele>
        <time>2013-07-27T11:04:51Z</time>
      </trkpt>
      <trkpt lat="42.331062000" lon="-2.345024000">
        <ele>793.10</ele>
        <time>2013-07-27T11:04:52Z</time>
      </trkpt>
      <trkpt lat="42.331065000" lon="-2.345030000">
        <ele>793.20</ele>
        <time>2013-07-27T11:04:53Z</time>
      </trkpt>
      <trkpt lat="42.331065000" lon="-2.345032000">
        <ele>793.30</ele>
        <time>2013-07-27T11:04:54Z</time>
      </trkpt>
      <trkpt lat="42.331067000" lon="-2.345035000">
        <ele>793.20</ele>
        <time>2013-07-27T11:04:55Z</time>
      </trkpt>
      <trkpt lat="42.331068000" lon="-2.345038000">
        <ele>793.20</ele>
        <time>2013-07-27T11:04:56Z</time>
      </trkpt>
      <trkpt lat="42.331069000" lon="-2.345041000">
        <ele>793.20</ele>
        <time>2013-07-27T11:04:57Z</time>
      </trkpt>
      <trkpt lat="42.331070000" lon="-2.345042000">
        <ele>793.20</ele>
        <time>2013-07-27T11:04:58Z</time>
      </trkpt>
      <trkpt lat="42.331072000" lon="-2.345044000">
        <ele>793.20</ele>
        <time>2013-07-27T11:04:59Z</time>
      </trkpt>
      <trkpt lat="42.331075000" lon="-2.345048000">
        <ele>793.20</ele>
        <time>2013-07-27T11:05:00Z</time>
      </trkpt>
      <trkpt lat="42.331077000" lon="-2.345049000">
        <ele>793.30</ele>
        <time>2013-07-27T11:05:01Z</time>
      </trkpt>
      <trkpt lat="42.331077000" lon="-2.345050000">
        <ele>793.30</ele>
        <time>2013-07-27T11:05:02Z</time>
      </trkpt>
      <trkpt lat="42.331077000" lon="-2.345046000">
        <ele>793.40</ele>
        <time>2013-07-27T11:05:03Z</time>
      </trkpt>
      <trkpt lat="42.331075000" lon="-2.345043000">
        <ele>793.50</ele>
        <time>2013-07-27T11:05:04Z</time>
      </trkpt>
      <trkpt lat="42.331077000" lon="-2.345042000">
        <ele>793.60</ele>
        <time>2013-07-27T11:05:05Z</time>
      </trkpt>
      <trkpt lat="42.331077000" lon="-2.345045000">
        <ele>793.60</ele>
        <time>2013-07-27T11:05:06Z</time>
      </trkpt>
      <trkpt lat="42.331076000" lon="-2.345056000">
        <ele>793.50</ele>
        <time>2013-07-27T11:05:07Z</time>
      </trkpt>
      <trkpt lat="42.331070000" lon="-2.345061000">
        <ele>793.50</ele>
        <time>2013-07-27T11:05:08Z</time>
      </trkpt>
      <trkpt lat="42.331067000" lon="-2.345068000">
        <ele>793.50</ele>
        <time>2013-07-27T11:05:09Z</time>
      </trkpt>
      <trkpt lat="42.331059000" lon="-2.345077000">
        <ele>793.40</ele>
        <time>2013-07-27T11:05:10Z</time>
      </trkpt>
      <trkpt lat="42.331053000" lon="-2.345087000">
        <ele>793.40</ele>
        <time>2013-07-27T11:05:11Z</time>
      </trkpt>
      <trkpt lat="42.331048000" lon="-2.345096000">
        <ele>793.40</ele>
        <time>2013-07-27T11:05:12Z</time>
      </trkpt>
      <trkpt lat="42.331038000" lon="-2.345109000">
        <ele>793.40</ele>
        <time>2013-07-27T11:05:13Z</time>
      </trkpt>
      <trkpt lat="42.331028000" lon="-2.345116000">
        <ele>793.40</ele>
        <time>2013-07-27T11:05:14Z</time>
      </trkpt>
      <trkpt lat="42.331019000" lon="-2.345117000">
        <ele>793.30</ele>
        <time>2013-07-27T11:05:15Z</time>
      </trkpt>
      <trkpt lat="42.331016000" lon="-2.345116000">
        <ele>793.30</ele>
        <time>2013-07-27T11:05:16Z</time>
      </trkpt>
      <trkpt lat="42.331008000" lon="-2.345114000">
        <ele>793.20</ele>
        <time>2013-07-27T11:05:17Z</time>
      </trkpt>
      <trkpt lat="42.330995000" lon="-2.345107000">
        <ele>793.20</ele>
        <time>2013-07-27T11:05:18Z</time>
      </trkpt>
      <trkpt lat="42.330994000" lon="-2.345103000">
        <ele>793.30</ele>
        <time>2013-07-27T11:05:19Z</time>
      </trkpt>
      <trkpt lat="42.330996000" lon="-2.345102000">
        <ele>793.40</ele>
        <time>2013-07-27T11:05:20Z</time>
      </trkpt>
      <trkpt lat="42.330997000" lon="-2.345101000">
        <ele>793.50</ele>
        <time>2013-07-27T11:05:21Z</time>
      </trkpt>
      <trkpt lat="42.330999000" lon="-2.345098000">
        <ele>793.50</ele>
        <time>2013-07-27T11:05:22Z</time>
      </trkpt>
      <trkpt lat="42.330999000" lon="-2.345104000">
        <ele>793.50</ele>
        <time>2013-07-27T11:05:23Z</time>
      </trkpt>
      <trkpt lat="42.330997000" lon="-2.345102000">
        <ele>793.40</ele>
        <time>2013-07-27T11:05:24Z</time>
      </trkpt>
      <trkpt lat="42.330995000" lon="-2.345098000">
        <ele>793.40</ele>
        <time>2013-07-27T11:05:25Z</time>
      </trkpt>
      <trkpt lat="42.330990000" lon="-2.345090000">
        <ele>793.40</ele>
        <time>2013-07-27T11:05:26Z</time>
      </trkpt>
      <trkpt lat="42.330989000" lon="-2.345089000">
        <ele>793.40</ele>
        <time>2013-07-27T11:05:27Z</time>
      </trkpt>
      <trkpt lat="42.330985000" lon="-2.345089000">
        <ele>793.40</ele>
        <time>2013-07-27T11:05:28Z</time>
      </trkpt>
      <trkpt lat="42.330984000" lon="-2.345091000">
        <ele>793.30</ele>
        <time>2013-07-27T11:05:29Z</time>
      </trkpt>
      <trkpt lat="42.330983000" lon="-2.345092000">
        <ele>793.20</ele>
        <time>2013-07-27T11:05:30Z</time>
      </trkpt>
      <trkpt lat="42.330982000" lon="-2.345091000">
        <ele>793.10</ele>
        <time>2013-07-27T11:05:31Z</time>
      </trkpt>
      <trkpt lat="42.330983000" lon="-2.345092000">
        <ele>793.00</ele>
        <time>2013-07-27T11:05:32Z</time>
      </trkpt>
      <trkpt lat="42.330982000" lon="-2.345093000">
        <ele>792.90</ele>
        <time>2013-07-27T11:05:33Z</time>
      </trkpt>
      <trkpt lat="42.330981000" lon="-2.345092000">
        <ele>792.80</ele>
        <time>2013-07-27T11:05:34Z</time>
      </trkpt>
      <trkpt lat="42.330981000" lon="-2.345088000">
        <ele>792.70</ele>
        <time>2013-07-27T11:05:35Z</time>
      </trkpt>
      <trkpt lat="42.330982000" lon="-2.345084000">
        <ele>792.60</ele>
        <time>2013-07-27T11:05:36Z</time>
      </trkpt>
      <trkpt lat="42.330982000" lon="-2.345083000">
        <ele>792.60</ele>
        <time>2013-07-27T11:05:37Z</time>
      </trkpt>
      <trkpt lat="42.330982000" lon="-2.345082000">
        <ele>792.50</ele>
        <time>2013-07-27T11:05:38Z</time>
      </trkpt>
      <trkpt lat="42.330981000" lon="-2.345085000">
        <ele>792.60</ele>
        <time>2013-07-27T11:05:39Z</time>
      </trkpt>
      <trkpt lat="42.330980000" lon="-2.345088000">
        <ele>792.60</ele>
        <time>2013-07-27T11:05:40Z</time>
      </trkpt>
      <trkpt lat="42.330980000" lon="-2.345089000">
        <ele>792.60</ele>
        <time>2013-07-27T11:05:41Z</time>
      </trkpt>
      <trkpt lat="42.330982000" lon="-2.345089000">
        <ele>792.60</ele>
        <time>2013-07-27T11:05:42Z</time>
      </trkpt>
      <trkpt lat="42.330985000" lon="-2.345085000">
        <ele>792.50</ele>
        <time>2013-07-27T11:05:43Z</time>
      </trkpt>
      <trkpt lat="42.330984000" lon="-2.345083000">
        <ele>792.40</ele>
        <time>2013-07-27T11:05:44Z</time>
      </trkpt>
      <trkpt lat="42.330985000" lon="-2.345083000">
        <ele>792.30</ele>
        <time>2013-07-27T11:05:45Z</time>
      </trkpt>
      <trkpt lat="42.330988000" lon="-2.345083000">
        <ele>792.20</ele>
        <time>2013-07-27T11:05:46Z</time>
      </trkpt>
      <trkpt lat="42.330989000" lon="-2.345084000">
        <ele>792.10</ele>
        <time>2013-07-27T11:05:47Z</time>
      </trkpt>
      <trkpt lat="42.330989000" lon="-2.345084000">
        <ele>792.00</ele>
        <time>2013-07-27T11:05:48Z</time>
      </trkpt>
      <trkpt lat="42.330987000" lon="-2.345087000">
        <ele>792.10</ele>
        <time>2013-07-27T11:05:49Z</time>
      </trkpt>
      <trkpt lat="42.330986000" lon="-2.345092000">
        <ele>792.10</ele>
        <time>2013-07-27T11:05:50Z</time>
      </trkpt>
      <trkpt lat="42.330987000" lon="-2.345096000">
        <ele>792.30</ele>
        <time>2013-07-27T11:05:51Z</time>
      </trkpt>
      <trkpt lat="42.330989000" lon="-2.345101000">
        <ele>792.40</ele>
        <time>2013-07-27T11:05:52Z</time>
      </trkpt>
      <trkpt lat="42.330991000" lon="-2.345101000">
        <ele>792.40</ele>
        <time>2013-07-27T11:05:53Z</time>
      </trkpt>
      <trkpt lat="42.330993000" lon="-2.345100000">
        <ele>792.40</ele>
        <time>2013-07-27T11:05:54Z</time>
      </trkpt>
      <trkpt lat="42.330996000" lon="-2.345097000">
        <ele>792.30</ele>
        <time>2013-07-27T11:05:55Z</time>
      </trkpt>
      <trkpt lat="42.330997000" lon="-2.345095000">
        <ele>792.20</ele>
        <time>2013-07-27T11:05:56Z</time>
      </trkpt>
      <trkpt lat="42.330997000" lon="-2.345096000">
        <ele>792.20</ele>
        <time>2013-07-27T11:05:57Z</time>
      </trkpt>
      <trkpt lat="42.330996000" lon="-2.345095000">
        <ele>792.10</ele>
        <time>2013-07-27T11:05:58Z</time>
      </trkpt>
      <trkpt lat="42.330996000" lon="-2.345097000">
        <ele>792.10</ele>
        <time>2013-07-27T11:05:59Z</time>
      </trkpt>
      <trkpt lat="42.330995000" lon="-2.345097000">
        <ele>792.00</ele>
        <time>2013-07-27T11:06:00Z</time>
      </trkpt>
      <trkpt lat="42.330995000" lon="-2.345096000">
        <ele>792.20</ele>
        <time>2013-07-27T11:06:01Z</time>
      </trkpt>
      <trkpt lat="42.330994000" lon="-2.345094000">
        <ele>792.20</ele>
        <time>2013-07-27T11:06:02Z</time>
      </trkpt>
      <trkpt lat="42.330992000" lon="-2.345093000">
        <ele>792.10</ele>
        <time>2013-07-27T11:06:03Z</time>
      </trkpt>
      <trkpt lat="42.330993000" lon="-2.345090000">
        <ele>792.00</ele>
        <time>2013-07-27T11:06:04Z</time>
      </trkpt>
      <trkpt lat="42.330993000" lon="-2.345091000">
        <ele>791.90</ele>
        <time>2013-07-27T11:06:05Z</time>
      </trkpt>
      <trkpt lat="42.330992000" lon="-2.345090000">
        <ele>791.80</ele>
        <time>2013-07-27T11:06:06Z</time>
      </trkpt>
      <trkpt lat="42.330992000" lon="-2.345089000">
        <ele>791.80</ele>
        <time>2013-07-27T11:06:07Z</time>
      </trkpt>
      <trkpt lat="42.330991000" lon="-2.345089000">
        <ele>791.80</ele>
        <time>2013-07-27T11:06:08Z</time>
      </trkpt>
      <trkpt lat="42.330990000" lon="-2.345086000">
        <ele>791.80</ele>
        <time>2013-07-27T11:06:09Z</time>
      </trkpt>
      <trkpt lat="42.330990000" lon="-2.345086000">
        <ele>791.80</ele>
        <time>2013-07-27T11:06:10Z</time>
      </trkpt>
      <trkpt lat="42.330990000" lon="-2.345082000">
        <ele>791.90</ele>
        <time>2013-07-27T11:06:11Z</time>
      </trkpt>
      <trkpt lat="42.330991000" lon="-2.345082000">
        <ele>791.90</ele>
        <time>2013-07-27T11:06:12Z</time>
      </trkpt>
      <trkpt lat="42.330990000" lon="-2.345086000">
        <ele>791.90</ele>
        <time>2013-07-27T11:06:13Z</time>
      </trkpt>
      <trkpt lat="42.330991000" lon="-2.345092000">
        <ele>791.90</ele>
        <time>2013-07-27T11:06:14Z</time>
      </trkpt>
      <trkpt lat="42.330992000" lon="-2.345095000">
        <ele>792.00</ele>
        <time>2013-07-27T11:06:15Z</time>
      </trkpt>
      <trkpt lat="42.330992000" lon="-2.345098000">
        <ele>792.00</ele>
        <time>2013-07-27T11:06:16Z</time>
      </trkpt>
      <trkpt lat="42.330991000" lon="-2.345100000">
        <ele>792.10</ele>
        <time>2013-07-27T11:06:17Z</time>
      </trkpt>
      <trkpt lat="42.330990000" lon="-2.345101000">
        <ele>792.10</ele>
        <time>2013-07-27T11:06:18Z</time>
      </trkpt>
      <trkpt lat="42.330989000" lon="-2.345101000">
        <ele>792.10</ele>
        <time>2013-07-27T11:06:19Z</time>
      </trkpt>
      <trkpt lat="42.330987000" lon="-2.345101000">
        <ele>792.10</ele>
        <time>2013-07-27T11:06:20Z</time>
      </trkpt>
      <trkpt lat="42.330985000" lon="-2.345101000">
        <ele>792.10</ele>
        <time>2013-07-27T11:06:21Z</time>
      </trkpt>
      <trkpt lat="42.330982000" lon="-2.345102000">
        <ele>792.10</ele>
        <time>2013-07-27T11:06:22Z</time>
      </trkpt>
      <trkpt lat="42.330981000" lon="-2.345102000">
        <ele>792.10</ele>
        <time>2013-07-27T11:06:23Z</time>
      </trkpt>
      <trkpt lat="42.330981000" lon="-2.345101000">
        <ele>792.10</ele>
        <time>2013-07-27T11:06:24Z</time>
      </trkpt>
      <trkpt lat="42.330982000" lon="-2.345099000">
        <ele>792.10</ele>
        <time>2013-07-27T11:06:25Z</time>
      </trkpt>
      <trkpt lat="42.330983000" lon="-2.345101000">
        <ele>792.10</ele>
        <time>2013-07-27T11:06:26Z</time>
      </trkpt>
      <trkpt lat="42.330983000" lon="-2.345099000">
        <ele>792.10</ele>
        <time>2013-07-27T11:06:27Z</time>
      </trkpt>
      <trkpt lat="42.330983000" lon="-2.345096000">
        <ele>792.10</ele>
        <time>2013-07-27T11:06:28Z</time>
      </trkpt>
      <trkpt lat="42.330985000" lon="-2.345094000">
        <ele>792.10</ele>
        <time>2013-07-27T11:06:29Z</time>
      </trkpt>
      <trkpt lat="42.330987000" lon="-2.345091000">
        <ele>792.10</ele>
        <time>2013-07-27T11:06:30Z</time>
      </trkpt>
      <trkpt lat="42.330989000" lon="-2.345090000">
        <ele>792.10</ele>
        <time>2013-07-27T11:06:31Z</time>
      </trkpt>
      <trkpt lat="42.330990000" lon="-2.345091000">
        <ele>792.20</ele>
        <time>2013-07-27T11:06:32Z</time>
      </trkpt>
      <trkpt lat="42.330991000" lon="-2.345093000">
        <ele>792.30</ele>
        <time>2013-07-27T11:06:33Z</time>
      </trkpt>
      <trkpt lat="42.330993000" lon="-2.345092000">
        <ele>792.40</ele>
        <time>2013-07-27T11:06:34Z</time>
      </trkpt>
      <trkpt lat="42.330993000" lon="-2.345090000">
        <ele>792.40</ele>
        <time>2013-07-27T11:06:35Z</time>
      </trkpt>
      <trkpt lat="42.330995000" lon="-2.345089000">
        <ele>792.40</ele>
        <time>2013-07-27T11:06:36Z</time>
      </trkpt>
      <trkpt lat="42.330997000" lon="-2.345088000">
        <ele>792.40</ele>
        <time>2013-07-27T11:06:37Z</time>
      </trkpt>
      <trkpt lat="42.330997000" lon="-2.345089000">
        <ele>792.40</ele>
        <time>2013-07-27T11:06:38Z</time>
      </trkpt>
      <trkpt lat="42.330996000" lon="-2.345089000">
        <ele>792.30</ele>
        <time>2013-07-27T11:06:39Z</time>
      </trkpt>
      <trkpt lat="42.330995000" lon="-2.345088000">
        <ele>792.20</ele>
        <time>2013-07-27T11:06:40Z</time>
      </trkpt>
      <trkpt lat="42.330994000" lon="-2.345089000">
        <ele>792.10</ele>
        <time>2013-07-27T11:06:41Z</time>
      </trkpt>
      <trkpt lat="42.330994000" lon="-2.345089000">
        <ele>792.10</ele>
        <time>2013-07-27T11:06:42Z</time>
      </trkpt>
      <trkpt lat="42.330995000" lon="-2.345088000">
        <ele>792.00</ele>
        <time>2013-07-27T11:06:43Z</time>
      </trkpt>
      <trkpt lat="42.330995000" lon="-2.345085000">
        <ele>792.00</ele>
        <time>2013-07-27T11:06:44Z</time>
      </trkpt>
      <trkpt lat="42.330995000" lon="-2.345084000">
        <ele>792.00</ele>
        <time>2013-07-27T11:06:45Z</time>
      </trkpt>
      <trkpt lat="42.330993000" lon="-2.345083000">
        <ele>792.00</ele>
        <time>2013-07-27T11:06:46Z</time>
      </trkpt>
      <trkpt lat="42.330990000" lon="-2.345079000">
        <ele>792.00</ele>
        <time>2013-07-27T11:06:47Z</time>
      </trkpt>
      <trkpt lat="42.330988000" lon="-2.345077000">
        <ele>792.00</ele>
        <time>2013-07-27T11:06:48Z</time>
      </trkpt>
      <trkpt lat="42.330985000" lon="-2.345080000">
        <ele>791.90</ele>
        <time>2013-07-27T11:06:49Z</time>
      </trkpt>
      <trkpt lat="42.330984000" lon="-2.345082000">
        <ele>791.90</ele>
        <time>2013-07-27T11:06:50Z</time>
      </trkpt>
      <trkpt lat="42.330982000" lon="-2.345083000">
        <ele>791.90</ele>
        <time>2013-07-27T11:06:51Z</time>
      </trkpt>
      <trkpt lat="42.330982000" lon="-2.345082000">
        <ele>791.80</ele>
        <time>2013-07-27T11:06:52Z</time>
      </trkpt>
      <trkpt lat="42.330983000" lon="-2.345082000">
        <ele>791.80</ele>
        <time>2013-07-27T11:06:53Z</time>
      </trkpt>
      <trkpt lat="42.330984000" lon="-2.345081000">
        <ele>791.90</ele>
        <time>2013-07-27T11:06:54Z</time>
      </trkpt>
      <trkpt lat="42.330984000" lon="-2.345082000">
        <ele>791.90</ele>
        <time>2013-07-27T11:06:55Z</time>
      </trkpt>
      <trkpt lat="42.330982000" lon="-2.345087000">
        <ele>791.90</ele>
        <time>2013-07-27T11:06:56Z</time>
      </trkpt>
      <trkpt lat="42.330982000" lon="-2.345090000">
        <ele>791.90</ele>
        <time>2013-07-27T11:06:57Z</time>
      </trkpt>
      <trkpt lat="42.330983000" lon="-2.345093000">
        <ele>791.90</ele>
        <time>2013-07-27T11:06:58Z</time>
      </trkpt>
      <trkpt lat="42.330982000" lon="-2.345097000">
        <ele>791.90</ele>
        <time>2013-07-27T11:06:59Z</time>
      </trkpt>
      <trkpt lat="42.330983000" lon="-2.345097000">
        <ele>791.90</ele>
        <time>2013-07-27T11:07:00Z</time>
      </trkpt>
      <trkpt lat="42.330985000" lon="-2.345097000">
        <ele>791.90</ele>
        <time>2013-07-27T11:07:01Z</time>
      </trkpt>
      <trkpt lat="42.330987000" lon="-2.345098000">
        <ele>791.80</ele>
        <time>2013-07-27T11:07:02Z</time>
      </trkpt>
      <trkpt lat="42.330989000" lon="-2.345099000">
        <ele>791.80</ele>
        <time>2013-07-27T11:07:03Z</time>
      </trkpt>
      <trkpt lat="42.330990000" lon="-2.345100000">
        <ele>791.80</ele>
        <time>2013-07-27T11:07:04Z</time>
      </trkpt>
      <trkpt lat="42.330991000" lon="-2.345101000">
        <ele>791.90</ele>
        <time>2013-07-27T11:07:05Z</time>
      </trkpt>
      <trkpt lat="42.330992000" lon="-2.345100000">
        <ele>792.00</ele>
        <time>2013-07-27T11:07:06Z</time>
      </trkpt>
      <trkpt lat="42.330993000" lon="-2.345101000">
        <ele>792.10</ele>
        <time>2013-07-27T11:07:07Z</time>
      </trkpt>
      <trkpt lat="42.330995000" lon="-2.345103000">
        <ele>792.10</ele>
        <time>2013-07-27T11:07:08Z</time>
      </trkpt>
      <trkpt lat="42.330994000" lon="-2.345105000">
        <ele>792.20</ele>
        <time>2013-07-27T11:07:09Z</time>
      </trkpt>
      <trkpt lat="42.330994000" lon="-2.345105000">
        <ele>792.20</ele>
        <time>2013-07-27T11:07:10Z</time>
      </trkpt>
      <trkpt lat="42.330994000" lon="-2.345104000">
        <ele>792.20</ele>
        <time>2013-07-27T11:07:11Z</time>
      </trkpt>
      <trkpt lat="42.330995000" lon="-2.345100000">
        <ele>792.20</ele>
        <time>2013-07-27T11:07:12Z</time>
      </trkpt>
      <trkpt lat="42.330997000" lon="-2.345097000">
        <ele>792.30</ele>
        <time>2013-07-27T11:07:13Z</time>
      </trkpt>
      <trkpt lat="42.330995000" lon="-2.345097000">
        <ele>792.30</ele>
        <time>2013-07-27T11:07:14Z</time>
      </trkpt>
      <trkpt lat="42.330994000" lon="-2.345098000">
        <ele>792.30</ele>
        <time>2013-07-27T11:07:15Z</time>
      </trkpt>
      <trkpt lat="42.330992000" lon="-2.345100000">
        <ele>792.30</ele>
        <time>2013-07-27T11:07:16Z</time>
      </trkpt>
      <trkpt lat="42.330991000" lon="-2.345099000">
        <ele>792.20</ele>
        <time>2013-07-27T11:07:17Z</time>
      </trkpt>
      <trkpt lat="42.330991000" lon="-2.345098000">
        <ele>792.20</ele>
        <time>2013-07-27T11:07:18Z</time>
      </trkpt>
      <trkpt lat="42.330990000" lon="-2.345100000">
        <ele>792.20</ele>
        <time>2013-07-27T11:07:19Z</time>
      </trkpt>
      <trkpt lat="42.330989000" lon="-2.345100000">
        <ele>792.20</ele>
        <time>2013-07-27T11:07:20Z</time>
      </trkpt>
      <trkpt lat="42.330986000" lon="-2.345105000">
        <ele>792.20</ele>
        <time>2013-07-27T11:07:21Z</time>
      </trkpt>
      <trkpt lat="42.330984000" lon="-2.345110000">
        <ele>792.10</ele>
        <time>2013-07-27T11:07:22Z</time>
      </trkpt>
      <trkpt lat="42.330982000" lon="-2.345114000">
        <ele>792.30</ele>
        <time>2013-07-27T11:07:23Z</time>
      </trkpt>
      <trkpt lat="42.330982000" lon="-2.345114000">
        <ele>792.40</ele>
        <time>2013-07-27T11:07:24Z</time>
      </trkpt>
      <trkpt lat="42.330982000" lon="-2.345113000">
        <ele>792.40</ele>
        <time>2013-07-27T11:07:25Z</time>
      </trkpt>
      <trkpt lat="42.330982000" lon="-2.345112000">
        <ele>792.50</ele>
        <time>2013-07-27T11:07:26Z</time>
      </trkpt>
      <trkpt lat="42.330983000" lon="-2.345111000">
        <ele>792.50</ele>
        <time>2013-07-27T11:07:27Z</time>
      </trkpt>
      <trkpt lat="42.330984000" lon="-2.345108000">
        <ele>792.60</ele>
        <time>2013-07-27T11:07:28Z</time>
      </trkpt>
      <trkpt lat="42.330985000" lon="-2.345105000">
        <ele>792.40</ele>
        <time>2013-07-27T11:07:29Z</time>
      </trkpt>
      <trkpt lat="42.330985000" lon="-2.345102000">
        <ele>792.40</ele>
        <time>2013-07-27T11:07:30Z</time>
      </trkpt>
      <trkpt lat="42.330988000" lon="-2.345093000">
        <ele>792.40</ele>
        <time>2013-07-27T11:07:31Z</time>
      </trkpt>
      <trkpt lat="42.330990000" lon="-2.345085000">
        <ele>792.50</ele>
        <time>2013-07-27T11:07:32Z</time>
      </trkpt>
      <trkpt lat="42.330990000" lon="-2.345083000">
        <ele>792.40</ele>
        <time>2013-07-27T11:07:33Z</time>
      </trkpt>
      <trkpt lat="42.330990000" lon="-2.345082000">
        <ele>792.30</ele>
        <time>2013-07-27T11:07:34Z</time>
      </trkpt>
      <trkpt lat="42.330990000" lon="-2.345080000">
        <ele>792.40</ele>
        <time>2013-07-27T11:07:35Z</time>
      </trkpt>
      <trkpt lat="42.330990000" lon="-2.345080000">
        <ele>792.40</ele>
        <time>2013-07-27T11:07:36Z</time>
      </trkpt>
      <trkpt lat="42.330988000" lon="-2.345081000">
        <ele>792.30</ele>
        <time>2013-07-27T11:07:37Z</time>
      </trkpt>
      <trkpt lat="42.330987000" lon="-2.345082000">
        <ele>792.20</ele>
        <time>2013-07-27T11:07:38Z</time>
      </trkpt>
      <trkpt lat="42.330988000" lon="-2.345084000">
        <ele>792.20</ele>
        <time>2013-07-27T11:07:39Z</time>
      </trkpt>
      <trkpt lat="42.330989000" lon="-2.345086000">
        <ele>792.20</ele>
        <time>2013-07-27T11:07:40Z</time>
      </trkpt>
      <trkpt lat="42.330989000" lon="-2.345089000">
        <ele>792.20</ele>
        <time>2013-07-27T11:07:41Z</time>
      </trkpt>
      <trkpt lat="42.330989000" lon="-2.345094000">
        <ele>792.20</ele>
        <time>2013-07-27T11:07:42Z</time>
      </trkpt>
      <trkpt lat="42.330988000" lon="-2.345097000">
        <ele>792.30</ele>
        <time>2013-07-27T11:07:43Z</time>
      </trkpt>
      <trkpt lat="42.330989000" lon="-2.345098000">
        <ele>792.30</ele>
        <time>2013-07-27T11:07:44Z</time>
      </trkpt>
      <trkpt lat="42.330991000" lon="-2.345099000">
        <ele>792.40</ele>
        <time>2013-07-27T11:07:45Z</time>
      </trkpt>
      <trkpt lat="42.330990000" lon="-2.345099000">
        <ele>792.50</ele>
        <time>2013-07-27T11:07:46Z</time>
      </trkpt>
      <trkpt lat="42.330993000" lon="-2.345098000">
        <ele>792.60</ele>
        <time>2013-07-27T11:07:47Z</time>
      </trkpt>
      <trkpt lat="42.330998000" lon="-2.345097000">
        <ele>792.70</ele>
        <time>2013-07-27T11:07:48Z</time>
      </trkpt>
      <trkpt lat="42.331001000" lon="-2.345097000">
        <ele>792.70</ele>
        <time>2013-07-27T11:07:49Z</time>
      </trkpt>
      <trkpt lat="42.331002000" lon="-2.345097000">
        <ele>792.70</ele>
        <time>2013-07-27T11:07:50Z</time>
      </trkpt>
      <trkpt lat="42.331003000" lon="-2.345097000">
        <ele>792.80</ele>
        <time>2013-07-27T11:07:51Z</time>
      </trkpt>
      <trkpt lat="42.331005000" lon="-2.345095000">
        <ele>792.80</ele>
        <time>2013-07-27T11:07:52Z</time>
      </trkpt>
      <trkpt lat="42.331007000" lon="-2.345094000">
        <ele>792.80</ele>
        <time>2013-07-27T11:07:53Z</time>
      </trkpt>
      <trkpt lat="42.331009000" lon="-2.345094000">
        <ele>792.80</ele>
        <time>2013-07-27T11:07:54Z</time>
      </trkpt>
      <trkpt lat="42.331012000" lon="-2.345093000">
        <ele>792.70</ele>
        <time>2013-07-27T11:07:55Z</time>
      </trkpt>
      <trkpt lat="42.331012000" lon="-2.345093000">
        <ele>792.70</ele>
        <time>2013-07-27T11:07:56Z</time>
      </trkpt>
      <trkpt lat="42.331010000" lon="-2.345096000">
        <ele>792.60</ele>
        <time>2013-07-27T11:07:57Z</time>
      </trkpt>
      <trkpt lat="42.331010000" lon="-2.345095000">
        <ele>792.50</ele>
        <time>2013-07-27T11:07:58Z</time>
      </trkpt>
      <trkpt lat="42.331010000" lon="-2.345096000">
        <ele>792.50</ele>
        <time>2013-07-27T11:07:59Z</time>
      </trkpt>
      <trkpt lat="42.331008000" lon="-2.345098000">
        <ele>792.40</ele>
        <time>2013-07-27T11:08:00Z</time>
      </trkpt>
      <trkpt lat="42.331006000" lon="-2.345099000">
        <ele>792.40</ele>
        <time>2013-07-27T11:08:01Z</time>
      </trkpt>
      <trkpt lat="42.331004000" lon="-2.345097000">
        <ele>792.40</ele>
        <time>2013-07-27T11:08:02Z</time>
      </trkpt>
      <trkpt lat="42.331002000" lon="-2.345096000">
        <ele>792.40</ele>
        <time>2013-07-27T11:08:03Z</time>
      </trkpt>
      <trkpt lat="42.330999000" lon="-2.345094000">
        <ele>792.40</ele>
        <time>2013-07-27T11:08:04Z</time>
      </trkpt>
      <trkpt lat="42.330995000" lon="-2.345091000">
        <ele>792.40</ele>
        <time>2013-07-27T11:08:05Z</time>
      </trkpt>
      <trkpt lat="42.330992000" lon="-2.345088000">
        <ele>792.40</ele>
        <time>2013-07-27T11:08:06Z</time>
      </trkpt>
      <trkpt lat="42.330990000" lon="-2.345088000">
        <ele>792.40</ele>
        <time>2013-07-27T11:08:07Z</time>
      </trkpt>
      <trkpt lat="42.330988000" lon="-2.345095000">
        <ele>792.40</ele>
        <time>2013-07-27T11:08:08Z</time>
      </trkpt>
      <trkpt lat="42.330987000" lon="-2.345097000">
        <ele>792.40</ele>
        <time>2013-07-27T11:08:09Z</time>
      </trkpt>
      <trkpt lat="42.330986000" lon="-2.345099000">
        <ele>792.40</ele>
        <time>2013-07-27T11:08:10Z</time>
      </trkpt>
      <trkpt lat="42.330988000" lon="-2.345097000">
        <ele>792.50</ele>
        <time>2013-07-27T11:08:11Z</time>
      </trkpt>
      <trkpt lat="42.330990000" lon="-2.345096000">
        <ele>792.60</ele>
        <time>2013-07-27T11:08:12Z</time>
      </trkpt>
      <trkpt lat="42.330991000" lon="-2.345094000">
        <ele>792.80</ele>
        <time>2013-07-27T11:08:13Z</time>
      </trkpt>
      <trkpt lat="42.330991000" lon="-2.345090000">
        <ele>792.90</ele>
        <time>2013-07-27T11:08:14Z</time>
      </trkpt>
      <trkpt lat="42.330990000" lon="-2.345088000">
        <ele>793.00</ele>
        <time>2013-07-27T11:08:15Z</time>
      </trkpt>
      <trkpt lat="42.330990000" lon="-2.345085000">
        <ele>793.10</ele>
        <time>2013-07-27T11:08:16Z</time>
      </trkpt>
      <trkpt lat="42.330991000" lon="-2.345083000">
        <ele>793.10</ele>
        <time>2013-07-27T11:08:17Z</time>
      </trkpt>
      <trkpt lat="42.330993000" lon="-2.345080000">
        <ele>793.10</ele>
        <time>2013-07-27T11:08:18Z</time>
      </trkpt>
      <trkpt lat="42.330994000" lon="-2.345080000">
        <ele>793.00</ele>
        <time>2013-07-27T11:08:19Z</time>
      </trkpt>
      <trkpt lat="42.330994000" lon="-2.345081000">
        <ele>792.90</ele>
        <time>2013-07-27T11:08:20Z</time>
      </trkpt>
      <trkpt lat="42.330993000" lon="-2.345086000">
        <ele>792.80</ele>
        <time>2013-07-27T11:08:21Z</time>
      </trkpt>
      <trkpt lat="42.330994000" lon="-2.345086000">
        <ele>792.70</ele>
        <time>2013-07-27T11:08:22Z</time>
      </trkpt>
      <trkpt lat="42.330993000" lon="-2.345086000">
        <ele>792.80</ele>
        <time>2013-07-27T11:08:23Z</time>
      </trkpt>
      <trkpt lat="42.330995000" lon="-2.345084000">
        <ele>792.90</ele>
        <time>2013-07-27T11:08:24Z</time>
      </trkpt>
      <trkpt lat="42.330996000" lon="-2.345082000">
        <ele>792.90</ele>
        <time>2013-07-27T11:08:25Z</time>
      </trkpt>
      <trkpt lat="42.330996000" lon="-2.345078000">
        <ele>793.00</ele>
        <time>2013-07-27T11:08:26Z</time>
      </trkpt>
      <trkpt lat="42.330996000" lon="-2.345076000">
        <ele>792.90</ele>
        <time>2013-07-27T11:08:27Z</time>
      </trkpt>
      <trkpt lat="42.330995000" lon="-2.345075000">
        <ele>792.90</ele>
        <time>2013-07-27T11:08:28Z</time>
      </trkpt>
      <trkpt lat="42.330995000" lon="-2.345076000">
        <ele>792.90</ele>
        <time>2013-07-27T11:08:29Z</time>
      </trkpt>
      <trkpt lat="42.330994000" lon="-2.345076000">
        <ele>792.90</ele>
        <time>2013-07-27T11:08:30Z</time>
      </trkpt>
      <trkpt lat="42.330992000" lon="-2.345080000">
        <ele>792.90</ele>
        <time>2013-07-27T11:08:31Z</time>
      </trkpt>
      <trkpt lat="42.330992000" lon="-2.345083000">
        <ele>792.90</ele>
        <time>2013-07-27T11:08:32Z</time>
      </trkpt>
      <trkpt lat="42.330992000" lon="-2.345084000">
        <ele>792.80</ele>
        <time>2013-07-27T11:08:33Z</time>
      </trkpt>
      <trkpt lat="42.330992000" lon="-2.345085000">
        <ele>792.80</ele>
        <time>2013-07-27T11:08:34Z</time>
      </trkpt>
      <trkpt lat="42.330991000" lon="-2.345088000">
        <ele>792.90</ele>
        <time>2013-07-27T11:08:35Z</time>
      </trkpt>
      <trkpt lat="42.330989000" lon="-2.345088000">
        <ele>793.00</ele>
        <time>2013-07-27T11:08:36Z</time>
      </trkpt>
      <trkpt lat="42.330989000" lon="-2.345089000">
        <ele>792.90</ele>
        <time>2013-07-27T11:08:37Z</time>
      </trkpt>
      <trkpt lat="42.330990000" lon="-2.345092000">
        <ele>792.90</ele>
        <time>2013-07-27T11:08:38Z</time>
      </trkpt>
      <trkpt lat="42.330993000" lon="-2.345091000">
        <ele>793.00</ele>
        <time>2013-07-27T11:08:39Z</time>
      </trkpt>
      <trkpt lat="42.330995000" lon="-2.345090000">
        <ele>793.00</ele>
        <time>2013-07-27T11:08:40Z</time>
      </trkpt>
      <trkpt lat="42.330996000" lon="-2.345091000">
        <ele>793.00</ele>
        <time>2013-07-27T11:08:41Z</time>
      </trkpt>
      <trkpt lat="42.330996000" lon="-2.345091000">
        <ele>793.00</ele>
        <time>2013-07-27T11:08:42Z</time>
      </trkpt>
      <trkpt lat="42.330999000" lon="-2.345093000">
        <ele>793.00</ele>
        <time>2013-07-27T11:08:43Z</time>
      </trkpt>
      <trkpt lat="42.331000000" lon="-2.345096000">
        <ele>793.00</ele>
        <time>2013-07-27T11:08:44Z</time>
      </trkpt>
      <trkpt lat="42.330998000" lon="-2.345102000">
        <ele>793.00</ele>
        <time>2013-07-27T11:08:45Z</time>
      </trkpt>
      <trkpt lat="42.331000000" lon="-2.345103000">
        <ele>793.00</ele>
        <time>2013-07-27T11:08:46Z</time>
      </trkpt>
      <trkpt lat="42.331001000" lon="-2.345103000">
        <ele>793.00</ele>
        <time>2013-07-27T11:08:47Z</time>
      </trkpt>
      <trkpt lat="42.331001000" lon="-2.345108000">
        <ele>793.00</ele>
        <time>2013-07-27T11:08:48Z</time>
      </trkpt>
      <trkpt lat="42.331001000" lon="-2.345112000">
        <ele>793.10</ele>
        <time>2013-07-27T11:08:49Z</time>
      </trkpt>
      <trkpt lat="42.331004000" lon="-2.345112000">
        <ele>793.20</ele>
        <time>2013-07-27T11:08:50Z</time>
      </trkpt>
      <trkpt lat="42.331005000" lon="-2.345109000">
        <ele>793.20</ele>
        <time>2013-07-27T11:08:51Z</time>
      </trkpt>
      <trkpt lat="42.331005000" lon="-2.345109000">
        <ele>793.30</ele>
        <time>2013-07-27T11:08:52Z</time>
      </trkpt>
      <trkpt lat="42.331003000" lon="-2.345107000">
        <ele>793.20</ele>
        <time>2013-07-27T11:08:53Z</time>
      </trkpt>
      <trkpt lat="42.331003000" lon="-2.345105000">
        <ele>793.20</ele>
        <time>2013-07-27T11:08:54Z</time>
      </trkpt>
      <trkpt lat="42.331002000" lon="-2.345102000">
        <ele>793.20</ele>
        <time>2013-07-27T11:08:55Z</time>
      </trkpt>
      <trkpt lat="42.331002000" lon="-2.345099000">
        <ele>793.20</ele>
        <time>2013-07-27T11:08:56Z</time>
      </trkpt>
      <trkpt lat="42.331002000" lon="-2.345097000">
        <ele>793.10</ele>
        <time>2013-07-27T11:08:57Z</time>
      </trkpt>
      <trkpt lat="42.331002000" lon="-2.345094000">
        <ele>793.10</ele>
        <time>2013-07-27T11:08:58Z</time>
      </trkpt>
      <trkpt lat="42.331002000" lon="-2.345091000">
        <ele>793.10</ele>
        <time>2013-07-27T11:08:59Z</time>
      </trkpt>
      <trkpt lat="42.331001000" lon="-2.345088000">
        <ele>793.00</ele>
        <time>2013-07-27T11:09:00Z</time>
      </trkpt>
      <trkpt lat="42.331001000" lon="-2.345088000">
        <ele>793.00</ele>
        <time>2013-07-27T11:09:01Z</time>
      </trkpt>
      <trkpt lat="42.331000000" lon="-2.345088000">
        <ele>793.00</ele>
        <time>2013-07-27T11:09:02Z</time>
      </trkpt>
      <trkpt lat="42.330999000" lon="-2.345086000">
        <ele>792.80</ele>
        <time>2013-07-27T11:09:03Z</time>
      </trkpt>
      <trkpt lat="42.330998000" lon="-2.345083000">
        <ele>792.70</ele>
        <time>2013-07-27T11:09:04Z</time>
      </trkpt>
      <trkpt lat="42.330996000" lon="-2.345082000">
        <ele>792.60</ele>
        <time>2013-07-27T11:09:05Z</time>
      </trkpt>
      <trkpt lat="42.330995000" lon="-2.345080000">
        <ele>792.60</ele>
        <time>2013-07-27T11:09:06Z</time>
      </trkpt>
      <trkpt lat="42.330997000" lon="-2.345076000">
        <ele>792.50</ele>
        <time>2013-07-27T11:09:07Z</time>
      </trkpt>
      <trkpt lat="42.330998000" lon="-2.345076000">
        <ele>792.50</ele>
        <time>2013-07-27T11:09:08Z</time>
      </trkpt>
      <trkpt lat="42.331003000" lon="-2.345073000">
        <ele>792.60</ele>
        <time>2013-07-27T11:09:09Z</time>
      </trkpt>
      <trkpt lat="42.331002000" lon="-2.345073000">
        <ele>792.60</ele>
        <time>2013-07-27T11:09:10Z</time>
      </trkpt>
      <trkpt lat="42.330999000" lon="-2.345074000">
        <ele>792.60</ele>
        <time>2013-07-27T11:09:11Z</time>
      </trkpt>
      <trkpt lat="42.330998000" lon="-2.345075000">
        <ele>792.70</ele>
        <time>2013-07-27T11:09:12Z</time>
      </trkpt>
      <trkpt lat="42.330995000" lon="-2.345075000">
        <ele>792.70</ele>
        <time>2013-07-27T11:09:13Z</time>
      </trkpt>
      <trkpt lat="42.330993000" lon="-2.345077000">
        <ele>792.70</ele>
        <time>2013-07-27T11:09:14Z</time>
      </trkpt>
      <trkpt lat="42.330991000" lon="-2.345078000">
        <ele>792.60</ele>
        <time>2013-07-27T11:09:15Z</time>
      </trkpt>
      <trkpt lat="42.330991000" lon="-2.345080000">
        <ele>792.60</ele>
        <time>2013-07-27T11:09:16Z</time>
      </trkpt>
      <trkpt lat="42.330991000" lon="-2.345086000">
        <ele>792.60</ele>
        <time>2013-07-27T11:09:17Z</time>
      </trkpt>
      <trkpt lat="42.330989000" lon="-2.345092000">
        <ele>792.50</ele>
        <time>2013-07-27T11:09:18Z</time>
      </trkpt>
      <trkpt lat="42.330988000" lon="-2.345098000">
        <ele>792.50</ele>
        <time>2013-07-27T11:09:19Z</time>
      </trkpt>
      <trkpt lat="42.330985000" lon="-2.345101000">
        <ele>792.50</ele>
        <time>2013-07-27T11:09:20Z</time>
      </trkpt>
      <trkpt lat="42.330984000" lon="-2.345104000">
        <ele>792.50</ele>
        <time>2013-07-27T11:09:21Z</time>
      </trkpt>
      <trkpt lat="42.330984000" lon="-2.345106000">
        <ele>792.50</ele>
        <time>2013-07-27T11:09:22Z</time>
      </trkpt>
      <trkpt lat="42.330984000" lon="-2.345109000">
        <ele>792.40</ele>
        <time>2013-07-27T11:09:23Z</time>
      </trkpt>
      <trkpt lat="42.330984000" lon="-2.345110000">
        <ele>792.40</ele>
        <time>2013-07-27T11:09:24Z</time>
      </trkpt>
      <trkpt lat="42.330983000" lon="-2.345112000">
        <ele>792.40</ele>
        <time>2013-07-27T11:09:25Z</time>
      </trkpt>
      <trkpt lat="42.330982000" lon="-2.345114000">
        <ele>792.40</ele>
        <time>2013-07-27T11:09:26Z</time>
      </trkpt>
      <trkpt lat="42.330982000" lon="-2.345114000">
        <ele>792.30</ele>
        <time>2013-07-27T11:09:27Z</time>
      </trkpt>
      <trkpt lat="42.330984000" lon="-2.345114000">
        <ele>792.30</ele>
        <time>2013-07-27T11:09:28Z</time>
      </trkpt>
      <trkpt lat="42.330986000" lon="-2.345110000">
        <ele>792.50</ele>
        <time>2013-07-27T11:09:29Z</time>
      </trkpt>
      <trkpt lat="42.330988000" lon="-2.345105000">
        <ele>792.50</ele>
        <time>2013-07-27T11:09:30Z</time>
      </trkpt>
      <trkpt lat="42.330990000" lon="-2.345101000">
        <ele>792.60</ele>
        <time>2013-07-27T11:09:31Z</time>
      </trkpt>
      <trkpt lat="42.330992000" lon="-2.345099000">
        <ele>792.60</ele>
        <time>2013-07-27T11:09:32Z</time>
      </trkpt>
      <trkpt lat="42.330994000" lon="-2.345101000">
        <ele>792.60</ele>
        <time>2013-07-27T11:09:33Z</time>
      </trkpt>
      <trkpt lat="42.330996000" lon="-2.345102000">
        <ele>792.60</ele>
        <time>2013-07-27T11:09:34Z</time>
      </trkpt>
      <trkpt lat="42.330998000" lon="-2.345100000">
        <ele>792.50</ele>
        <time>2013-07-27T11:09:35Z</time>
      </trkpt>
      <trkpt lat="42.330998000" lon="-2.345096000">
        <ele>792.40</ele>
        <time>2013-07-27T11:09:36Z</time>
      </trkpt>
      <trkpt lat="42.330999000" lon="-2.345099000">
        <ele>792.30</ele>
        <time>2013-07-27T11:09:37Z</time>
      </trkpt>
      <trkpt lat="42.330999000" lon="-2.345098000">
        <ele>792.30</ele>
        <time>2013-07-27T11:09:38Z</time>
      </trkpt>
      <trkpt lat="42.330999000" lon="-2.345097000">
        <ele>792.20</ele>
        <time>2013-07-27T11:09:39Z</time>
      </trkpt>
      <trkpt lat="42.330998000" lon="-2.345098000">
        <ele>792.20</ele>
        <time>2013-07-27T11:09:40Z</time>
      </trkpt>
      <trkpt lat="42.330997000" lon="-2.345098000">
        <ele>792.10</ele>
        <time>2013-07-27T11:09:41Z</time>
      </trkpt>
      <trkpt lat="42.330995000" lon="-2.345096000">
        <ele>792.10</ele>
        <time>2013-07-27T11:09:42Z</time>
      </trkpt>
      <trkpt lat="42.330991000" lon="-2.345097000">
        <ele>792.00</ele>
        <time>2013-07-27T11:09:43Z</time>
      </trkpt>
      <trkpt lat="42.330989000" lon="-2.345096000">
        <ele>792.00</ele>
        <time>2013-07-27T11:09:44Z</time>
      </trkpt>
      <trkpt lat="42.330986000" lon="-2.345094000">
        <ele>792.00</ele>
        <time>2013-07-27T11:09:45Z</time>
      </trkpt>
      <trkpt lat="42.330986000" lon="-2.345093000">
        <ele>792.00</ele>
        <time>2013-07-27T11:09:46Z</time>
      </trkpt>
      <trkpt lat="42.330984000" lon="-2.345096000">
        <ele>792.10</ele>
        <time>2013-07-27T11:09:47Z</time>
      </trkpt>
      <trkpt lat="42.330985000" lon="-2.345096000">
        <ele>792.20</ele>
        <time>2013-07-27T11:09:48Z</time>
      </trkpt>
      <trkpt lat="42.330984000" lon="-2.345097000">
        <ele>792.30</ele>
        <time>2013-07-27T11:09:49Z</time>
      </trkpt>
      <trkpt lat="42.330985000" lon="-2.345094000">
        <ele>792.30</ele>
        <time>2013-07-27T11:09:50Z</time>
      </trkpt>
      <trkpt lat="42.330985000" lon="-2.345091000">
        <ele>792.40</ele>
        <time>2013-07-27T11:09:51Z</time>
      </trkpt>
      <trkpt lat="42.330986000" lon="-2.345089000">
        <ele>792.40</ele>
        <time>2013-07-27T11:09:52Z</time>
      </trkpt>
      <trkpt lat="42.330988000" lon="-2.345086000">
        <ele>792.40</ele>
        <time>2013-07-27T11:09:53Z</time>
      </trkpt>
      <trkpt lat="42.330989000" lon="-2.345083000">
        <ele>792.30</ele>
        <time>2013-07-27T11:09:54Z</time>
      </trkpt>
      <trkpt lat="42.330989000" lon="-2.345080000">
        <ele>792.30</ele>
        <time>2013-07-27T11:09:55Z</time>
      </trkpt>
      <trkpt lat="42.330989000" lon="-2.345076000">
        <ele>792.30</ele>
        <time>2013-07-27T11:09:56Z</time>
      </trkpt>
      <trkpt lat="42.330991000" lon="-2.345075000">
        <ele>792.20</ele>
        <time>2013-07-27T11:09:57Z</time>
      </trkpt>
      <trkpt lat="42.330990000" lon="-2.345075000">
        <ele>792.20</ele>
        <time>2013-07-27T11:09:58Z</time>
      </trkpt>
      <trkpt lat="42.330989000" lon="-2.345079000">
        <ele>792.10</ele>
        <time>2013-07-27T11:09:59Z</time>
      </trkpt>
      <trkpt lat="42.330990000" lon="-2.345079000">
        <ele>792.10</ele>
        <time>2013-07-27T11:10:00Z</time>
      </trkpt>
      <trkpt lat="42.330993000" lon="-2.345079000">
        <ele>792.20</ele>
        <time>2013-07-27T11:10:01Z</time>
      </trkpt>
      <trkpt lat="42.330996000" lon="-2.345082000">
        <ele>792.20</ele>
        <time>2013-07-27T11:10:02Z</time>
      </trkpt>
      <trkpt lat="42.330997000" lon="-2.345086000">
        <ele>792.30</ele>
        <time>2013-07-27T11:10:03Z</time>
      </trkpt>
      <trkpt lat="42.331000000" lon="-2.345087000">
        <ele>792.30</ele>
        <time>2013-07-27T11:10:04Z</time>
      </trkpt>
      <trkpt lat="42.331001000" lon="-2.345085000">
        <ele>792.30</ele>
        <time>2013-07-27T11:10:05Z</time>
      </trkpt>
      <trkpt lat="42.331001000" lon="-2.345085000">
        <ele>792.20</ele>
        <time>2013-07-27T11:10:06Z</time>
      </trkpt>
      <trkpt lat="42.331000000" lon="-2.345086000">
        <ele>792.20</ele>
        <time>2013-07-27T11:10:07Z</time>
      </trkpt>
      <trkpt lat="42.331001000" lon="-2.345085000">
        <ele>792.20</ele>
        <time>2013-07-27T11:10:08Z</time>
      </trkpt>
      <trkpt lat="42.331000000" lon="-2.345085000">
        <ele>792.10</ele>
        <time>2013-07-27T11:10:09Z</time>
      </trkpt>
      <trkpt lat="42.331000000" lon="-2.345085000">
        <ele>792.00</ele>
        <time>2013-07-27T11:10:10Z</time>
      </trkpt>
      <trkpt lat="42.331003000" lon="-2.345085000">
        <ele>792.00</ele>
        <time>2013-07-27T11:10:11Z</time>
      </trkpt>
      <trkpt lat="42.331005000" lon="-2.345084000">
        <ele>792.00</ele>
        <time>2013-07-27T11:10:12Z</time>
      </trkpt>
      <trkpt lat="42.331005000" lon="-2.345084000">
        <ele>792.00</ele>
        <time>2013-07-27T11:10:13Z</time>
      </trkpt>
      <trkpt lat="42.331004000" lon="-2.345088000">
        <ele>792.00</ele>
        <time>2013-07-27T11:10:14Z</time>
      </trkpt>
      <trkpt lat="42.331004000" lon="-2.345092000">
        <ele>792.00</ele>
        <time>2013-07-27T11:10:15Z</time>
      </trkpt>
      <trkpt lat="42.331005000" lon="-2.345093000">
        <ele>791.90</ele>
        <time>2013-07-27T11:10:16Z</time>
      </trkpt>
      <trkpt lat="42.331005000" lon="-2.345095000">
        <ele>792.00</ele>
        <time>2013-07-27T11:10:17Z</time>
      </trkpt>
      <trkpt lat="42.331005000" lon="-2.345096000">
        <ele>792.10</ele>
        <time>2013-07-27T11:10:18Z</time>
      </trkpt>
      <trkpt lat="42.331005000" lon="-2.345094000">
        <ele>792.10</ele>
        <time>2013-07-27T11:10:19Z</time>
      </trkpt>
      <trkpt lat="42.331006000" lon="-2.345092000">
        <ele>792.10</ele>
        <time>2013-07-27T11:10:20Z</time>
      </trkpt>
      <trkpt lat="42.331005000" lon="-2.345093000">
        <ele>792.20</ele>
        <time>2013-07-27T11:10:21Z</time>
      </trkpt>
      <trkpt lat="42.331004000" lon="-2.345094000">
        <ele>792.20</ele>
        <time>2013-07-27T11:10:22Z</time>
      </trkpt>
      <trkpt lat="42.331005000" lon="-2.345093000">
        <ele>792.20</ele>
        <time>2013-07-27T11:10:23Z</time>
      </trkpt>
      <trkpt lat="42.331004000" lon="-2.345095000">
        <ele>792.20</ele>
        <time>2013-07-27T11:10:24Z</time>
      </trkpt>
      <trkpt lat="42.331004000" lon="-2.345097000">
        <ele>792.30</ele>
        <time>2013-07-27T11:10:25Z</time>
      </trkpt>
      <trkpt lat="42.331003000" lon="-2.345099000">
        <ele>792.30</ele>
        <time>2013-07-27T11:10:26Z</time>
      </trkpt>
      <trkpt lat="42.331003000" lon="-2.345099000">
        <ele>792.10</ele>
        <time>2013-07-27T11:10:27Z</time>
      </trkpt>
      <trkpt lat="42.331002000" lon="-2.345102000">
        <ele>792.00</ele>
        <time>2013-07-27T11:10:28Z</time>
      </trkpt>
      <trkpt lat="42.331002000" lon="-2.345102000">
        <ele>792.00</ele>
        <time>2013-07-27T11:10:29Z</time>
      </trkpt>
      <trkpt lat="42.331005000" lon="-2.345102000">
        <ele>791.90</ele>
        <time>2013-07-27T11:10:30Z</time>
      </trkpt>
      <trkpt lat="42.331007000" lon="-2.345100000">
        <ele>791.90</ele>
        <time>2013-07-27T11:10:31Z</time>
      </trkpt>
      <trkpt lat="42.331008000" lon="-2.345097000">
        <ele>791.90</ele>
        <time>2013-07-27T11:10:32Z</time>
      </trkpt>
      <trkpt lat="42.331010000" lon="-2.345094000">
        <ele>791.90</ele>
        <time>2013-07-27T11:10:33Z</time>
      </trkpt>
      <trkpt lat="42.331014000" lon="-2.345087000">
        <ele>792.00</ele>
        <time>2013-07-27T11:10:34Z</time>
      </trkpt>
      <trkpt lat="42.331014000" lon="-2.345084000">
        <ele>791.90</ele>
        <time>2013-07-27T11:10:35Z</time>
      </trkpt>
      <trkpt lat="42.331009000" lon="-2.345090000">
        <ele>791.90</ele>
        <time>2013-07-27T11:10:36Z</time>
      </trkpt>
      <trkpt lat="42.331014000" lon="-2.345089000">
        <ele>792.00</ele>
        <time>2013-07-27T11:10:37Z</time>
      </trkpt>
      <trkpt lat="42.331008000" lon="-2.345091000">
        <ele>792.00</ele>
        <time>2013-07-27T11:10:38Z</time>
      </trkpt>
      <trkpt lat="42.331008000" lon="-2.345091000">
        <ele>792.00</ele>
        <time>2013-07-27T11:10:39Z</time>
      </trkpt>
      <trkpt lat="42.331006000" lon="-2.345089000">
        <ele>792.10</ele>
        <time>2013-07-27T11:10:40Z</time>
      </trkpt>
      <trkpt lat="42.331007000" lon="-2.345092000">
        <ele>792.10</ele>
        <time>2013-07-27T11:10:41Z</time>
      </trkpt>
      <trkpt lat="42.331009000" lon="-2.345098000">
        <ele>792.10</ele>
        <time>2013-07-27T11:10:42Z</time>
      </trkpt>
      <trkpt lat="42.331012000" lon="-2.345102000">
        <ele>792.10</ele>
        <time>2013-07-27T11:10:43Z</time>
      </trkpt>
      <trkpt lat="42.331013000" lon="-2.345104000">
        <ele>792.20</ele>
        <time>2013-07-27T11:10:44Z</time>
      </trkpt>
      <trkpt lat="42.331013000" lon="-2.345104000">
        <ele>792.20</ele>
        <time>2013-07-27T11:10:45Z</time>
      </trkpt>
      <trkpt lat="42.331014000" lon="-2.345101000">
        <ele>792.30</ele>
        <time>2013-07-27T11:10:46Z</time>
      </trkpt>
      <trkpt lat="42.331016000" lon="-2.345102000">
        <ele>792.30</ele>
        <time>2013-07-27T11:10:47Z</time>
      </trkpt>
      <trkpt lat="42.331015000" lon="-2.345099000">
        <ele>792.40</ele>
        <time>2013-07-27T11:10:48Z</time>
      </trkpt>
      <trkpt lat="42.331018000" lon="-2.345104000">
        <ele>792.40</ele>
        <time>2013-07-27T11:10:49Z</time>
      </trkpt>
      <trkpt lat="42.331026000" lon="-2.345108000">
        <ele>792.50</ele>
        <time>2013-07-27T11:10:50Z</time>
      </trkpt>
      <trkpt lat="42.331035000" lon="-2.345105000">
        <ele>792.60</ele>
        <time>2013-07-27T11:10:51Z</time>
      </trkpt>
      <trkpt lat="42.331042000" lon="-2.345097000">
        <ele>792.60</ele>
        <time>2013-07-27T11:10:52Z</time>
      </trkpt>
      <trkpt lat="42.331050000" lon="-2.345086000">
        <ele>792.70</ele>
        <time>2013-07-27T11:10:53Z</time>
      </trkpt>
      <trkpt lat="42.331063000" lon="-2.345071000">
        <ele>792.70</ele>
        <time>2013-07-27T11:10:54Z</time>
      </trkpt>
      <trkpt lat="42.331072000" lon="-2.345067000">
        <ele>792.70</ele>
        <time>2013-07-27T11:10:55Z</time>
      </trkpt>
      <trkpt lat="42.331083000" lon="-2.345057000">
        <ele>792.70</ele>
        <time>2013-07-27T11:10:56Z</time>
      </trkpt>
      <trkpt lat="42.331091000" lon="-2.345046000">
        <ele>792.70</ele>
        <time>2013-07-27T11:10:57Z</time>
      </trkpt>
      <trkpt lat="42.331099000" lon="-2.345032000">
        <ele>792.80</ele>
        <time>2013-07-27T11:10:58Z</time>
      </trkpt>
      <trkpt lat="42.331108000" lon="-2.345017000">
        <ele>792.80</ele>
        <time>2013-07-27T11:10:59Z</time>
      </trkpt>
      <trkpt lat="42.331118000" lon="-2.344996000">
        <ele>792.80</ele>
        <time>2013-07-27T11:11:00Z</time>
      </trkpt>
      <trkpt lat="42.331129000" lon="-2.344964000">
        <ele>792.90</ele>
        <time>2013-07-27T11:11:01Z</time>
      </trkpt>
      <trkpt lat="42.331141000" lon="-2.344940000">
        <ele>792.90</ele>
        <time>2013-07-27T11:11:02Z</time>
      </trkpt>
      <trkpt lat="42.331149000" lon="-2.344911000">
        <ele>792.90</ele>
        <time>2013-07-27T11:11:03Z</time>
      </trkpt>
      <trkpt lat="42.331152000" lon="-2.344880000">
        <ele>793.00</ele>
        <time>2013-07-27T11:11:04Z</time>
      </trkpt>
      <trkpt lat="42.331160000" lon="-2.344852000">
        <ele>793.00</ele>
        <time>2013-07-27T11:11:05Z</time>
      </trkpt>
      <trkpt lat="42.331169000" lon="-2.344823000">
        <ele>792.90</ele>
        <time>2013-07-27T11:11:06Z</time>
      </trkpt>
      <trkpt lat="42.331180000" lon="-2.344793000">
        <ele>792.90</ele>
        <time>2013-07-27T11:11:07Z</time>
      </trkpt>
      <trkpt lat="42.331193000" lon="-2.344760000">
        <ele>793.00</ele>
        <time>2013-07-27T11:11:08Z</time>
      </trkpt>
      <trkpt lat="42.331204000" lon="-2.344727000">
        <ele>793.00</ele>
        <time>2013-07-27T11:11:09Z</time>
      </trkpt>
      <trkpt lat="42.331218000" lon="-2.344694000">
        <ele>793.30</ele>
        <time>2013-07-27T11:11:10Z</time>
      </trkpt>
      <trkpt lat="42.331230000" lon="-2.344666000">
        <ele>793.50</ele>
        <time>2013-07-27T11:11:11Z</time>
      </trkpt>
      <trkpt lat="42.331243000" lon="-2.344632000">
        <ele>793.70</ele>
        <time>2013-07-27T11:11:12Z</time>
      </trkpt>
      <trkpt lat="42.331260000" lon="-2.344598000">
        <ele>793.90</ele>
        <time>2013-07-27T11:11:13Z</time>
      </trkpt>
      <trkpt lat="42.331275000" lon="-2.344564000">
        <ele>793.90</ele>
        <time>2013-07-27T11:11:14Z</time>
      </trkpt>
      <trkpt lat="42.331291000" lon="-2.344528000">
        <ele>794.00</ele>
        <time>2013-07-27T11:11:15Z</time>
      </trkpt>
      <trkpt lat="42.331308000" lon="-2.344492000">
        <ele>793.60</ele>
        <time>2013-07-27T11:11:16Z</time>
      </trkpt>
      <trkpt lat="42.331323000" lon="-2.344458000">
        <ele>793.30</ele>
        <time>2013-07-27T11:11:17Z</time>
      </trkpt>
      <trkpt lat="42.331343000" lon="-2.344423000">
        <ele>793.10</ele>
        <time>2013-07-27T11:11:18Z</time>
      </trkpt>
      <trkpt lat="42.331363000" lon="-2.344394000">
        <ele>792.90</ele>
        <time>2013-07-27T11:11:19Z</time>
      </trkpt>
      <trkpt lat="42.331382000" lon="-2.344365000">
        <ele>792.80</ele>
        <time>2013-07-27T11:11:20Z</time>
      </trkpt>
      <trkpt lat="42.331396000" lon="-2.344340000">
        <ele>792.70</ele>
        <time>2013-07-27T11:11:21Z</time>
      </trkpt>
      <trkpt lat="42.331409000" lon="-2.344316000">
        <ele>792.80</ele>
        <time>2013-07-27T11:11:22Z</time>
      </trkpt>
      <trkpt lat="42.331424000" lon="-2.344290000">
        <ele>792.90</ele>
        <time>2013-07-27T11:11:23Z</time>
      </trkpt>
      <trkpt lat="42.331436000" lon="-2.344267000">
        <ele>793.10</ele>
        <time>2013-07-27T11:11:24Z</time>
      </trkpt>
      <trkpt lat="42.331453000" lon="-2.344245000">
        <ele>793.20</ele>
        <time>2013-07-27T11:11:25Z</time>
      </trkpt>
      <trkpt lat="42.331470000" lon="-2.344221000">
        <ele>793.20</ele>
        <time>2013-07-27T11:11:26Z</time>
      </trkpt>
      <trkpt lat="42.331489000" lon="-2.344194000">
        <ele>793.30</ele>
        <time>2013-07-27T11:11:27Z</time>
      </trkpt>
      <trkpt lat="42.331507000" lon="-2.344170000">
        <ele>793.30</ele>
        <time>2013-07-27T11:11:28Z</time>
      </trkpt>
      <trkpt lat="42.331525000" lon="-2.344145000">
        <ele>793.40</ele>
        <time>2013-07-27T11:11:29Z</time>
      </trkpt>
      <trkpt lat="42.331544000" lon="-2.344124000">
        <ele>793.50</ele>
        <time>2013-07-27T11:11:30Z</time>
      </trkpt>
      <trkpt lat="42.331563000" lon="-2.344107000">
        <ele>793.60</ele>
        <time>2013-07-27T11:11:31Z</time>
      </trkpt>
      <trkpt lat="42.331580000" lon="-2.344093000">
        <ele>793.60</ele>
        <time>2013-07-27T11:11:32Z</time>
      </trkpt>
      <trkpt lat="42.331601000" lon="-2.344077000">
        <ele>793.70</ele>
        <time>2013-07-27T11:11:33Z</time>
      </trkpt>
      <trkpt lat="42.331625000" lon="-2.344060000">
        <ele>793.70</ele>
        <time>2013-07-27T11:11:34Z</time>
      </trkpt>
      <trkpt lat="42.331649000" lon="-2.344038000">
        <ele>793.70</ele>
        <time>2013-07-27T11:11:35Z</time>
      </trkpt>
      <trkpt lat="42.331674000" lon="-2.344014000">
        <ele>793.60</ele>
        <time>2013-07-27T11:11:36Z</time>
      </trkpt>
      <trkpt lat="42.331697000" lon="-2.343992000">
        <ele>793.50</ele>
        <time>2013-07-27T11:11:37Z</time>
      </trkpt>
      <trkpt lat="42.331721000" lon="-2.343969000">
        <ele>793.40</ele>
        <time>2013-07-27T11:11:38Z</time>
      </trkpt>
      <trkpt lat="42.331746000" lon="-2.343942000">
        <ele>793.40</ele>
        <time>2013-07-27T11:11:39Z</time>
      </trkpt>
      <trkpt lat="42.331765000" lon="-2.343920000">
        <ele>793.10</ele>
        <time>2013-07-27T11:11:40Z</time>
      </trkpt>
      <trkpt lat="42.331788000" lon="-2.343899000">
        <ele>792.90</ele>
        <time>2013-07-27T11:11:41Z</time>
      </trkpt>
      <trkpt lat="42.331811000" lon="-2.343878000">
        <ele>793.10</ele>
        <time>2013-07-27T11:11:42Z</time>
      </trkpt>
      <trkpt lat="42.331831000" lon="-2.343853000">
        <ele>793.30</ele>
        <time>2013-07-27T11:11:43Z</time>
      </trkpt>
      <trkpt lat="42.331848000" lon="-2.343824000">
        <ele>793.40</ele>
        <time>2013-07-27T11:11:44Z</time>
      </trkpt>
      <trkpt lat="42.331863000" lon="-2.343798000">
        <ele>793.50</ele>
        <time>2013-07-27T11:11:45Z</time>
      </trkpt>
      <trkpt lat="42.331876000" lon="-2.343774000">
        <ele>793.60</ele>
        <time>2013-07-27T11:11:46Z</time>
      </trkpt>
      <trkpt lat="42.331886000" lon="-2.343749000">
        <ele>793.70</ele>
        <time>2013-07-27T11:11:47Z</time>
      </trkpt>
      <trkpt lat="42.331897000" lon="-2.343724000">
        <ele>793.80</ele>
        <time>2013-07-27T11:11:48Z</time>
      </trkpt>
      <trkpt lat="42.331905000" lon="-2.343698000">
        <ele>793.80</ele>
        <time>2013-07-27T11:11:49Z</time>
      </trkpt>
      <trkpt lat="42.331913000" lon="-2.343670000">
        <ele>793.70</ele>
        <time>2013-07-27T11:11:50Z</time>
      </trkpt>
      <trkpt lat="42.331922000" lon="-2.343641000">
        <ele>793.50</ele>
        <time>2013-07-27T11:11:51Z</time>
      </trkpt>
      <trkpt lat="42.331927000" lon="-2.343612000">
        <ele>793.40</ele>
        <time>2013-07-27T11:11:52Z</time>
      </trkpt>
      <trkpt lat="42.331931000" lon="-2.343584000">
        <ele>793.30</ele>
        <time>2013-07-27T11:11:53Z</time>
      </trkpt>
      <trkpt lat="42.331936000" lon="-2.343559000">
        <ele>793.30</ele>
        <time>2013-07-27T11:11:54Z</time>
      </trkpt>
      <trkpt lat="42.331943000" lon="-2.343534000">
        <ele>793.40</ele>
        <time>2013-07-27T11:11:55Z</time>
      </trkpt>
      <trkpt lat="42.331948000" lon="-2.343508000">
        <ele>793.50</ele>
        <time>2013-07-27T11:11:56Z</time>
      </trkpt>
      <trkpt lat="42.331954000" lon="-2.343483000">
        <ele>793.70</ele>
        <time>2013-07-27T11:11:57Z</time>
      </trkpt>
      <trkpt lat="42.331958000" lon="-2.343456000">
        <ele>793.80</ele>
        <time>2013-07-27T11:11:58Z</time>
      </trkpt>
      <trkpt lat="42.331963000" lon="-2.343428000">
        <ele>793.90</ele>
        <time>2013-07-27T11:11:59Z</time>
      </trkpt>
      <trkpt lat="42.331971000" lon="-2.343398000">
        <ele>793.90</ele>
        <time>2013-07-27T11:12:00Z</time>
      </trkpt>
      <trkpt lat="42.331980000" lon="-2.343370000">
        <ele>794.00</ele>
        <time>2013-07-27T11:12:01Z</time>
      </trkpt>
      <trkpt lat="42.331985000" lon="-2.343348000">
        <ele>794.10</ele>
        <time>2013-07-27T11:12:02Z</time>
      </trkpt>
      <trkpt lat="42.331991000" lon="-2.343328000">
        <ele>794.10</ele>
        <time>2013-07-27T11:12:03Z</time>
      </trkpt>
      <trkpt lat="42.331997000" lon="-2.343302000">
        <ele>794.10</ele>
        <time>2013-07-27T11:12:04Z</time>
      </trkpt>
      <trkpt lat="42.332005000" lon="-2.343273000">
        <ele>794.10</ele>
        <time>2013-07-27T11:12:05Z</time>
      </trkpt>
      <trkpt lat="42.332012000" lon="-2.343248000">
        <ele>794.20</ele>
        <time>2013-07-27T11:12:06Z</time>
      </trkpt>
      <trkpt lat="42.332021000" lon="-2.343217000">
        <ele>794.20</ele>
        <time>2013-07-27T11:12:07Z</time>
      </trkpt>
      <trkpt lat="42.332032000" lon="-2.343188000">
        <ele>794.30</ele>
        <time>2013-07-27T11:12:08Z</time>
      </trkpt>
      <trkpt lat="42.332042000" lon="-2.343162000">
        <ele>794.30</ele>
        <time>2013-07-27T11:12:09Z</time>
      </trkpt>
      <trkpt lat="42.332048000" lon="-2.343137000">
        <ele>794.30</ele>
        <time>2013-07-27T11:12:10Z</time>
      </trkpt>
      <trkpt lat="42.332057000" lon="-2.343112000">
        <ele>794.30</ele>
        <time>2013-07-27T11:12:11Z</time>
      </trkpt>
      <trkpt lat="42.332063000" lon="-2.343086000">
        <ele>794.20</ele>
        <time>2013-07-27T11:12:12Z</time>
      </trkpt>
      <trkpt lat="42.332068000" lon="-2.343060000">
        <ele>794.20</ele>
        <time>2013-07-27T11:12:13Z</time>
      </trkpt>
      <trkpt lat="42.332075000" lon="-2.343035000">
        <ele>794.10</ele>
        <time>2013-07-27T11:12:14Z</time>
      </trkpt>
      <trkpt lat="42.332081000" lon="-2.343004000">
        <ele>794.10</ele>
        <time>2013-07-27T11:12:15Z</time>
      </trkpt>
      <trkpt lat="42.332089000" lon="-2.342978000">
        <ele>794.30</ele>
        <time>2013-07-27T11:12:16Z</time>
      </trkpt>
      <trkpt lat="42.332096000" lon="-2.342954000">
        <ele>794.40</ele>
        <time>2013-07-27T11:12:17Z</time>
      </trkpt>
      <trkpt lat="42.332099000" lon="-2.342929000">
        <ele>794.50</ele>
        <time>2013-07-27T11:12:18Z</time>
      </trkpt>
      <trkpt lat="42.332106000" lon="-2.342904000">
        <ele>794.60</ele>
        <time>2013-07-27T11:12:19Z</time>
      </trkpt>
      <trkpt lat="42.332113000" lon="-2.342876000">
        <ele>794.60</ele>
        <time>2013-07-27T11:12:20Z</time>
      </trkpt>
      <trkpt lat="42.332123000" lon="-2.342849000">
        <ele>794.70</ele>
        <time>2013-07-27T11:12:21Z</time>
      </trkpt>
      <trkpt lat="42.332132000" lon="-2.342822000">
        <ele>794.70</ele>
        <time>2013-07-27T11:12:22Z</time>
      </trkpt>
      <trkpt lat="42.332142000" lon="-2.342798000">
        <ele>794.70</ele>
        <time>2013-07-27T11:12:23Z</time>
      </trkpt>
      <trkpt lat="42.332152000" lon="-2.342774000">
        <ele>794.90</ele>
        <time>2013-07-27T11:12:24Z</time>
      </trkpt>
      <trkpt lat="42.332164000" lon="-2.342748000">
        <ele>795.00</ele>
        <time>2013-07-27T11:12:25Z</time>
      </trkpt>
      <trkpt lat="42.332176000" lon="-2.342721000">
        <ele>795.10</ele>
        <time>2013-07-27T11:12:26Z</time>
      </trkpt>
      <trkpt lat="42.332189000" lon="-2.342697000">
        <ele>795.20</ele>
        <time>2013-07-27T11:12:27Z</time>
      </trkpt>
      <trkpt lat="42.332206000" lon="-2.342675000">
        <ele>795.30</ele>
        <time>2013-07-27T11:12:28Z</time>
      </trkpt>
      <trkpt lat="42.332225000" lon="-2.342652000">
        <ele>795.30</ele>
        <time>2013-07-27T11:12:29Z</time>
      </trkpt>
      <trkpt lat="42.332242000" lon="-2.342628000">
        <ele>795.40</ele>
        <time>2013-07-27T11:12:30Z</time>
      </trkpt>
      <trkpt lat="42.332261000" lon="-2.342608000">
        <ele>795.50</ele>
        <time>2013-07-27T11:12:31Z</time>
      </trkpt>
      <trkpt lat="42.332279000" lon="-2.342590000">
        <ele>795.80</ele>
        <time>2013-07-27T11:12:32Z</time>
      </trkpt>
      <trkpt lat="42.332296000" lon="-2.342573000">
        <ele>796.10</ele>
        <time>2013-07-27T11:12:33Z</time>
      </trkpt>
      <trkpt lat="42.332318000" lon="-2.342558000">
        <ele>796.20</ele>
        <time>2013-07-27T11:12:34Z</time>
      </trkpt>
      <trkpt lat="42.332339000" lon="-2.342544000">
        <ele>796.40</ele>
        <time>2013-07-27T11:12:35Z</time>
      </trkpt>
      <trkpt lat="42.332361000" lon="-2.342531000">
        <ele>796.50</ele>
        <time>2013-07-27T11:12:36Z</time>
      </trkpt>
      <trkpt lat="42.332385000" lon="-2.342520000">
        <ele>796.60</ele>
        <time>2013-07-27T11:12:37Z</time>
      </trkpt>
      <trkpt lat="42.332408000" lon="-2.342511000">
        <ele>796.70</ele>
        <time>2013-07-27T11:12:38Z</time>
      </trkpt>
      <trkpt lat="42.332431000" lon="-2.342504000">
        <ele>796.70</ele>
        <time>2013-07-27T11:12:39Z</time>
      </trkpt>
      <trkpt lat="42.332454000" lon="-2.342495000">
        <ele>796.70</ele>
        <time>2013-07-27T11:12:40Z</time>
      </trkpt>
      <trkpt lat="42.332475000" lon="-2.342483000">
        <ele>796.70</ele>
        <time>2013-07-27T11:12:41Z</time>
      </trkpt>
      <trkpt lat="42.332497000" lon="-2.342475000">
        <ele>796.50</ele>
        <time>2013-07-27T11:12:42Z</time>
      </trkpt>
      <trkpt lat="42.332521000" lon="-2.342474000">
        <ele>796.40</ele>
        <time>2013-07-27T11:12:43Z</time>
      </trkpt>
      <trkpt lat="42.332546000" lon="-2.342468000">
        <ele>796.50</ele>
        <time>2013-07-27T11:12:44Z</time>
      </trkpt>
      <trkpt lat="42.332573000" lon="-2.342463000">
        <ele>796.50</ele>
        <time>2013-07-27T11:12:45Z</time>
      </trkpt>
      <trkpt lat="42.332604000" lon="-2.342455000">
        <ele>796.40</ele>
        <time>2013-07-27T11:12:46Z</time>
      </trkpt>
      <trkpt lat="42.332638000" lon="-2.342442000">
        <ele>796.40</ele>
        <time>2013-07-27T11:12:47Z</time>
      </trkpt>
      <trkpt lat="42.332679000" lon="-2.342424000">
        <ele>796.40</ele>
        <time>2013-07-27T11:12:48Z</time>
      </trkpt>
      <trkpt lat="42.332720000" lon="-2.342401000">
        <ele>796.30</ele>
        <time>2013-07-27T11:12:49Z</time>
      </trkpt>
      <trkpt lat="42.332761000" lon="-2.342380000">
        <ele>796.30</ele>
        <time>2013-07-27T11:12:50Z</time>
      </trkpt>
      <trkpt lat="42.332799000" lon="-2.342358000">
        <ele>796.30</ele>
        <time>2013-07-27T11:12:51Z</time>
      </trkpt>
      <trkpt lat="42.332830000" lon="-2.342337000">
        <ele>796.20</ele>
        <time>2013-07-27T11:12:52Z</time>
      </trkpt>
      <trkpt lat="42.332857000" lon="-2.342318000">
        <ele>796.20</ele>
        <time>2013-07-27T11:12:53Z</time>
      </trkpt>
      <trkpt lat="42.332881000" lon="-2.342299000">
        <ele>796.20</ele>
        <time>2013-07-27T11:12:54Z</time>
      </trkpt>
      <trkpt lat="42.332906000" lon="-2.342276000">
        <ele>796.20</ele>
        <time>2013-07-27T11:12:55Z</time>
      </trkpt>
      <trkpt lat="42.332933000" lon="-2.342253000">
        <ele>796.30</ele>
        <time>2013-07-27T11:12:56Z</time>
      </trkpt>
      <trkpt lat="42.332965000" lon="-2.342233000">
        <ele>796.40</ele>
        <time>2013-07-27T11:12:57Z</time>
      </trkpt>
      <trkpt lat="42.333000000" lon="-2.342209000">
        <ele>796.40</ele>
        <time>2013-07-27T11:12:58Z</time>
      </trkpt>
      <trkpt lat="42.333035000" lon="-2.342179000">
        <ele>796.50</ele>
        <time>2013-07-27T11:12:59Z</time>
      </trkpt>
      <trkpt lat="42.333072000" lon="-2.342150000">
        <ele>796.60</ele>
        <time>2013-07-27T11:13:00Z</time>
      </trkpt>
      <trkpt lat="42.333107000" lon="-2.342113000">
        <ele>796.60</ele>
        <time>2013-07-27T11:13:01Z</time>
      </trkpt>
      <trkpt lat="42.333143000" lon="-2.342080000">
        <ele>796.60</ele>
        <time>2013-07-27T11:13:02Z</time>
      </trkpt>
      <trkpt lat="42.333178000" lon="-2.342046000">
        <ele>796.70</ele>
        <time>2013-07-27T11:13:03Z</time>
      </trkpt>
      <trkpt lat="42.333212000" lon="-2.342009000">
        <ele>796.80</ele>
        <time>2013-07-27T11:13:04Z</time>
      </trkpt>
      <trkpt lat="42.333240000" lon="-2.341975000">
        <ele>796.90</ele>
        <time>2013-07-27T11:13:05Z</time>
      </trkpt>
      <trkpt lat="42.333262000" lon="-2.341946000">
        <ele>796.90</ele>
        <time>2013-07-27T11:13:06Z</time>
      </trkpt>
      <trkpt lat="42.333282000" lon="-2.341918000">
        <ele>797.00</ele>
        <time>2013-07-27T11:13:07Z</time>
      </trkpt>
      <trkpt lat="42.333305000" lon="-2.341891000">
        <ele>797.00</ele>
        <time>2013-07-27T11:13:08Z</time>
      </trkpt>
      <trkpt lat="42.333324000" lon="-2.341866000">
        <ele>797.10</ele>
        <time>2013-07-27T11:13:09Z</time>
      </trkpt>
      <trkpt lat="42.333337000" lon="-2.341850000">
        <ele>797.10</ele>
        <time>2013-07-27T11:13:10Z</time>
      </trkpt>
      <trkpt lat="42.333349000" lon="-2.341835000">
        <ele>797.20</ele>
        <time>2013-07-27T11:13:11Z</time>
      </trkpt>
      <trkpt lat="42.333365000" lon="-2.341815000">
        <ele>797.20</ele>
        <time>2013-07-27T11:13:12Z</time>
      </trkpt>
      <trkpt lat="42.333392000" lon="-2.341783000">
        <ele>797.20</ele>
        <time>2013-07-27T11:13:13Z</time>
      </trkpt>
      <trkpt lat="42.333421000" lon="-2.341752000">
        <ele>797.20</ele>
        <time>2013-07-27T11:13:14Z</time>
      </trkpt>
      <trkpt lat="42.333452000" lon="-2.341726000">
        <ele>797.40</ele>
        <time>2013-07-27T11:13:15Z</time>
      </trkpt>
      <trkpt lat="42.333481000" lon="-2.341697000">
        <ele>797.60</ele>
        <time>2013-07-27T11:13:16Z</time>
      </trkpt>
      <trkpt lat="42.333508000" lon="-2.341668000">
        <ele>797.70</ele>
        <time>2013-07-27T11:13:17Z</time>
      </trkpt>
      <trkpt lat="42.333538000" lon="-2.341633000">
        <ele>797.70</ele>
        <time>2013-07-27T11:13:18Z</time>
      </trkpt>
      <trkpt lat="42.333562000" lon="-2.341596000">
        <ele>797.60</ele>
        <time>2013-07-27T11:13:19Z</time>
      </trkpt>
      <trkpt lat="42.333584000" lon="-2.341561000">
        <ele>797.50</ele>
        <time>2013-07-27T11:13:20Z</time>
      </trkpt>
      <trkpt lat="42.333603000" lon="-2.341522000">
        <ele>797.40</ele>
        <time>2013-07-27T11:13:21Z</time>
      </trkpt>
      <trkpt lat="42.333621000" lon="-2.341485000">
        <ele>797.40</ele>
        <time>2013-07-27T11:13:22Z</time>
      </trkpt>
      <trkpt lat="42.333637000" lon="-2.341450000">
        <ele>797.30</ele>
        <time>2013-07-27T11:13:23Z</time>
      </trkpt>
      <trkpt lat="42.333650000" lon="-2.341417000">
        <ele>797.20</ele>
        <time>2013-07-27T11:13:24Z</time>
      </trkpt>
      <trkpt lat="42.333661000" lon="-2.341383000">
        <ele>797.20</ele>
        <time>2013-07-27T11:13:25Z</time>
      </trkpt>
      <trkpt lat="42.333676000" lon="-2.341343000">
        <ele>797.20</ele>
        <time>2013-07-27T11:13:26Z</time>
      </trkpt>
      <trkpt lat="42.333689000" lon="-2.341304000">
        <ele>797.10</ele>
        <time>2013-07-27T11:13:27Z</time>
      </trkpt>
      <trkpt lat="42.333701000" lon="-2.341269000">
        <ele>797.10</ele>
        <time>2013-07-27T11:13:28Z</time>
      </trkpt>
      <trkpt lat="42.333713000" lon="-2.341234000">
        <ele>797.20</ele>
        <time>2013-07-27T11:13:29Z</time>
      </trkpt>
      <trkpt lat="42.333724000" lon="-2.341199000">
        <ele>797.30</ele>
        <time>2013-07-27T11:13:30Z</time>
      </trkpt>
      <trkpt lat="42.333735000" lon="-2.341168000">
        <ele>797.30</ele>
        <time>2013-07-27T11:13:31Z</time>
      </trkpt>
      <trkpt lat="42.333749000" lon="-2.341135000">
        <ele>797.30</ele>
        <time>2013-07-27T11:13:32Z</time>
      </trkpt>
      <trkpt lat="42.333774000" lon="-2.341109000">
        <ele>797.20</ele>
        <time>2013-07-27T11:13:33Z</time>
      </trkpt>
      <trkpt lat="42.333791000" lon="-2.341077000">
        <ele>797.10</ele>
        <time>2013-07-27T11:13:34Z</time>
      </trkpt>
      <trkpt lat="42.333806000" lon="-2.341053000">
        <ele>797.10</ele>
        <time>2013-07-27T11:13:35Z</time>
      </trkpt>
      <trkpt lat="42.333818000" lon="-2.341029000">
        <ele>797.00</ele>
        <time>2013-07-27T11:13:36Z</time>
      </trkpt>
      <trkpt lat="42.333830000" lon="-2.341010000">
        <ele>797.00</ele>
        <time>2013-07-27T11:13:37Z</time>
      </trkpt>
      <trkpt lat="42.333842000" lon="-2.340980000">
        <ele>797.10</ele>
        <time>2013-07-27T11:13:38Z</time>
      </trkpt>
      <trkpt lat="42.333857000" lon="-2.340951000">
        <ele>797.10</ele>
        <time>2013-07-27T11:13:39Z</time>
      </trkpt>
      <trkpt lat="42.333872000" lon="-2.340919000">
        <ele>797.20</ele>
        <time>2013-07-27T11:13:40Z</time>
      </trkpt>
      <trkpt lat="42.333887000" lon="-2.340880000">
        <ele>797.30</ele>
        <time>2013-07-27T11:13:41Z</time>
      </trkpt>
      <trkpt lat="42.333902000" lon="-2.340843000">
        <ele>797.40</ele>
        <time>2013-07-27T11:13:42Z</time>
      </trkpt>
      <trkpt lat="42.333917000" lon="-2.340805000">
        <ele>797.50</ele>
        <time>2013-07-27T11:13:43Z</time>
      </trkpt>
      <trkpt lat="42.333933000" lon="-2.340769000">
        <ele>797.60</ele>
        <time>2013-07-27T11:13:44Z</time>
      </trkpt>
      <trkpt lat="42.333950000" lon="-2.340728000">
        <ele>797.70</ele>
        <time>2013-07-27T11:13:45Z</time>
      </trkpt>
      <trkpt lat="42.333967000" lon="-2.340688000">
        <ele>797.70</ele>
        <time>2013-07-27T11:13:46Z</time>
      </trkpt>
      <trkpt lat="42.333984000" lon="-2.340648000">
        <ele>797.80</ele>
        <time>2013-07-27T11:13:47Z</time>
      </trkpt>
      <trkpt lat="42.334001000" lon="-2.340610000">
        <ele>797.80</ele>
        <time>2013-07-27T11:13:48Z</time>
      </trkpt>
      <trkpt lat="42.334020000" lon="-2.340569000">
        <ele>797.80</ele>
        <time>2013-07-27T11:13:49Z</time>
      </trkpt>
      <trkpt lat="42.334039000" lon="-2.340528000">
        <ele>797.80</ele>
        <time>2013-07-27T11:13:50Z</time>
      </trkpt>
      <trkpt lat="42.334060000" lon="-2.340481000">
        <ele>797.80</ele>
        <time>2013-07-27T11:13:51Z</time>
      </trkpt>
      <trkpt lat="42.334082000" lon="-2.340434000">
        <ele>797.80</ele>
        <time>2013-07-27T11:13:52Z</time>
      </trkpt>
      <trkpt lat="42.334106000" lon="-2.340383000">
        <ele>797.70</ele>
        <time>2013-07-27T11:13:53Z</time>
      </trkpt>
      <trkpt lat="42.334133000" lon="-2.340327000">
        <ele>797.60</ele>
        <time>2013-07-27T11:13:54Z</time>
      </trkpt>
      <trkpt lat="42.334161000" lon="-2.340266000">
        <ele>797.10</ele>
        <time>2013-07-27T11:13:55Z</time>
      </trkpt>
      <trkpt lat="42.334188000" lon="-2.340203000">
        <ele>796.80</ele>
        <time>2013-07-27T11:13:56Z</time>
      </trkpt>
      <trkpt lat="42.334217000" lon="-2.340143000">
        <ele>796.50</ele>
        <time>2013-07-27T11:13:57Z</time>
      </trkpt>
      <trkpt lat="42.334247000" lon="-2.340081000">
        <ele>796.30</ele>
        <time>2013-07-27T11:13:58Z</time>
      </trkpt>
      <trkpt lat="42.334278000" lon="-2.340017000">
        <ele>796.30</ele>
        <time>2013-07-27T11:13:59Z</time>
      </trkpt>
      <trkpt lat="42.334307000" lon="-2.339951000">
        <ele>796.30</ele>
        <time>2013-07-27T11:14:00Z</time>
      </trkpt>
      <trkpt lat="42.334335000" lon="-2.339886000">
        <ele>796.20</ele>
        <time>2013-07-27T11:14:01Z</time>
      </trkpt>
      <trkpt lat="42.334358000" lon="-2.339830000">
        <ele>796.20</ele>
        <time>2013-07-27T11:14:02Z</time>
      </trkpt>
      <trkpt lat="42.334376000" lon="-2.339781000">
        <ele>795.50</ele>
        <time>2013-07-27T11:14:03Z</time>
      </trkpt>
      <trkpt lat="42.334392000" lon="-2.339731000">
        <ele>794.90</ele>
        <time>2013-07-27T11:14:04Z</time>
      </trkpt>
      <trkpt lat="42.334406000" lon="-2.339679000">
        <ele>794.50</ele>
        <time>2013-07-27T11:14:05Z</time>
      </trkpt>
      <trkpt lat="42.334421000" lon="-2.339623000">
        <ele>794.20</ele>
        <time>2013-07-27T11:14:06Z</time>
      </trkpt>
      <trkpt lat="42.334442000" lon="-2.339575000">
        <ele>793.90</ele>
        <time>2013-07-27T11:14:07Z</time>
      </trkpt>
      <trkpt lat="42.334461000" lon="-2.339527000">
        <ele>793.60</ele>
        <time>2013-07-27T11:14:08Z</time>
      </trkpt>
      <trkpt lat="42.334483000" lon="-2.339481000">
        <ele>793.50</ele>
        <time>2013-07-27T11:14:09Z</time>
      </trkpt>
      <trkpt lat="42.334513000" lon="-2.339433000">
        <ele>793.30</ele>
        <time>2013-07-27T11:14:10Z</time>
      </trkpt>
      <trkpt lat="42.334549000" lon="-2.339373000">
        <ele>792.70</ele>
        <time>2013-07-27T11:14:11Z</time>
      </trkpt>
      <trkpt lat="42.334585000" lon="-2.339311000">
        <ele>792.30</ele>
        <time>2013-07-27T11:14:12Z</time>
      </trkpt>
      <trkpt lat="42.334623000" lon="-2.339249000">
        <ele>791.10</ele>
        <time>2013-07-27T11:14:13Z</time>
      </trkpt>
      <trkpt lat="42.334655000" lon="-2.339184000">
        <ele>790.20</ele>
        <time>2013-07-27T11:14:14Z</time>
      </trkpt>
      <trkpt lat="42.334680000" lon="-2.339115000">
        <ele>789.00</ele>
        <time>2013-07-27T11:14:15Z</time>
      </trkpt>
      <trkpt lat="42.334703000" lon="-2.339044000">
        <ele>788.20</ele>
        <time>2013-07-27T11:14:16Z</time>
      </trkpt>
      <trkpt lat="42.334725000" lon="-2.338975000">
        <ele>787.30</ele>
        <time>2013-07-27T11:14:17Z</time>
      </trkpt>
      <trkpt lat="42.334746000" lon="-2.338908000">
        <ele>786.60</ele>
        <time>2013-07-27T11:14:18Z</time>
      </trkpt>
      <trkpt lat="42.334769000" lon="-2.338844000">
        <ele>786.10</ele>
        <time>2013-07-27T11:14:19Z</time>
      </trkpt>
      <trkpt lat="42.334791000" lon="-2.338781000">
        <ele>785.70</ele>
        <time>2013-07-27T11:14:20Z</time>
      </trkpt>
      <trkpt lat="42.334814000" lon="-2.338718000">
        <ele>785.40</ele>
        <time>2013-07-27T11:14:21Z</time>
      </trkpt>
      <trkpt lat="42.334835000" lon="-2.338658000">
        <ele>785.20</ele>
        <time>2013-07-27T11:14:22Z</time>
      </trkpt>
      <trkpt lat="42.334855000" lon="-2.338596000">
        <ele>785.10</ele>
        <time>2013-07-27T11:14:23Z</time>
      </trkpt>
      <trkpt lat="42.334874000" lon="-2.338534000">
        <ele>785.10</ele>
        <time>2013-07-27T11:14:24Z</time>
      </trkpt>
      <trkpt lat="42.334887000" lon="-2.338469000">
        <ele>785.20</ele>
        <time>2013-07-27T11:14:25Z</time>
      </trkpt>
      <trkpt lat="42.334894000" lon="-2.338405000">
        <ele>785.20</ele>
        <time>2013-07-27T11:14:26Z</time>
      </trkpt>
      <trkpt lat="42.334901000" lon="-2.338343000">
        <ele>785.30</ele>
        <time>2013-07-27T11:14:27Z</time>
      </trkpt>
      <trkpt lat="42.334904000" lon="-2.338279000">
        <ele>785.30</ele>
        <time>2013-07-27T11:14:28Z</time>
      </trkpt>
      <trkpt lat="42.334910000" lon="-2.338219000">
        <ele>785.10</ele>
        <time>2013-07-27T11:14:29Z</time>
      </trkpt>
      <trkpt lat="42.334913000" lon="-2.338164000">
        <ele>784.90</ele>
        <time>2013-07-27T11:14:30Z</time>
      </trkpt>
      <trkpt lat="42.334918000" lon="-2.338110000">
        <ele>784.80</ele>
        <time>2013-07-27T11:14:31Z</time>
      </trkpt>
      <trkpt lat="42.334923000" lon="-2.338054000">
        <ele>784.70</ele>
        <time>2013-07-27T11:14:32Z</time>
      </trkpt>
      <trkpt lat="42.334928000" lon="-2.337994000">
        <ele>784.50</ele>
        <time>2013-07-27T11:14:33Z</time>
      </trkpt>
      <trkpt lat="42.334931000" lon="-2.337933000">
        <ele>784.40</ele>
        <time>2013-07-27T11:14:34Z</time>
      </trkpt>
      <trkpt lat="42.334936000" lon="-2.337869000">
        <ele>784.40</ele>
        <time>2013-07-27T11:14:35Z</time>
      </trkpt>
      <trkpt lat="42.334943000" lon="-2.337807000">
        <ele>784.30</ele>
        <time>2013-07-27T11:14:36Z</time>
      </trkpt>
      <trkpt lat="42.334951000" lon="-2.337748000">
        <ele>784.30</ele>
        <time>2013-07-27T11:14:37Z</time>
      </trkpt>
      <trkpt lat="42.334957000" lon="-2.337693000">
        <ele>784.30</ele>
        <time>2013-07-27T11:14:38Z</time>
      </trkpt>
      <trkpt lat="42.334964000" lon="-2.337646000">
        <ele>784.20</ele>
        <time>2013-07-27T11:14:39Z</time>
      </trkpt>
      <trkpt lat="42.334969000" lon="-2.337610000">
        <ele>784.20</ele>
        <time>2013-07-27T11:14:40Z</time>
      </trkpt>
      <trkpt lat="42.334978000" lon="-2.337574000">
        <ele>784.50</ele>
        <time>2013-07-27T11:14:41Z</time>
      </trkpt>
      <trkpt lat="42.334987000" lon="-2.337538000">
        <ele>784.60</ele>
        <time>2013-07-27T11:14:42Z</time>
      </trkpt>
      <trkpt lat="42.334994000" lon="-2.337514000">
        <ele>784.80</ele>
        <time>2013-07-27T11:14:43Z</time>
      </trkpt>
      <trkpt lat="42.334998000" lon="-2.337491000">
        <ele>784.90</ele>
        <time>2013-07-27T11:14:44Z</time>
      </trkpt>
      <trkpt lat="42.335001000" lon="-2.337464000">
        <ele>785.30</ele>
        <time>2013-07-27T11:14:45Z</time>
      </trkpt>
      <trkpt lat="42.335011000" lon="-2.337437000">
        <ele>785.50</ele>
        <time>2013-07-27T11:14:46Z</time>
      </trkpt>
      <trkpt lat="42.335019000" lon="-2.337408000">
        <ele>785.80</ele>
        <time>2013-07-27T11:14:47Z</time>
      </trkpt>
      <trkpt lat="42.335028000" lon="-2.337381000">
        <ele>786.00</ele>
        <time>2013-07-27T11:14:48Z</time>
      </trkpt>
      <trkpt lat="42.335039000" lon="-2.337353000">
        <ele>786.20</ele>
        <time>2013-07-27T11:14:49Z</time>
      </trkpt>
      <trkpt lat="42.335048000" lon="-2.337329000">
        <ele>786.30</ele>
        <time>2013-07-27T11:14:50Z</time>
      </trkpt>
      <trkpt lat="42.335056000" lon="-2.337301000">
        <ele>786.60</ele>
        <time>2013-07-27T11:14:51Z</time>
      </trkpt>
      <trkpt lat="42.335062000" lon="-2.337268000">
        <ele>786.70</ele>
        <time>2013-07-27T11:14:52Z</time>
      </trkpt>
      <trkpt lat="42.335067000" lon="-2.337237000">
        <ele>786.90</ele>
        <time>2013-07-27T11:14:53Z</time>
      </trkpt>
      <trkpt lat="42.335073000" lon="-2.337208000">
        <ele>787.00</ele>
        <time>2013-07-27T11:14:54Z</time>
      </trkpt>
      <trkpt lat="42.335077000" lon="-2.337177000">
        <ele>787.30</ele>
        <time>2013-07-27T11:14:55Z</time>
      </trkpt>
      <trkpt lat="42.335077000" lon="-2.337143000">
        <ele>787.50</ele>
        <time>2013-07-27T11:14:56Z</time>
      </trkpt>
      <trkpt lat="42.335074000" lon="-2.337111000">
        <ele>787.70</ele>
        <time>2013-07-27T11:14:57Z</time>
      </trkpt>
      <trkpt lat="42.335072000" lon="-2.337077000">
        <ele>787.80</ele>
        <time>2013-07-27T11:14:58Z</time>
      </trkpt>
      <trkpt lat="42.335070000" lon="-2.337042000">
        <ele>788.00</ele>
        <time>2013-07-27T11:14:59Z</time>
      </trkpt>
      <trkpt lat="42.335069000" lon="-2.337006000">
        <ele>788.10</ele>
        <time>2013-07-27T11:15:00Z</time>
      </trkpt>
      <trkpt lat="42.335066000" lon="-2.336968000">
        <ele>788.40</ele>
        <time>2013-07-27T11:15:01Z</time>
      </trkpt>
      <trkpt lat="42.335061000" lon="-2.336923000">
        <ele>788.60</ele>
        <time>2013-07-27T11:15:02Z</time>
      </trkpt>
      <trkpt lat="42.335058000" lon="-2.336874000">
        <ele>788.80</ele>
        <time>2013-07-27T11:15:03Z</time>
      </trkpt>
      <trkpt lat="42.335057000" lon="-2.336822000">
        <ele>789.00</ele>
        <time>2013-07-27T11:15:04Z</time>
      </trkpt>
      <trkpt lat="42.335057000" lon="-2.336776000">
        <ele>789.10</ele>
        <time>2013-07-27T11:15:05Z</time>
      </trkpt>
      <trkpt lat="42.335057000" lon="-2.336733000">
        <ele>789.20</ele>
        <time>2013-07-27T11:15:06Z</time>
      </trkpt>
      <trkpt lat="42.335057000" lon="-2.336696000">
        <ele>789.30</ele>
        <time>2013-07-27T11:15:07Z</time>
      </trkpt>
      <trkpt lat="42.335058000" lon="-2.336668000">
        <ele>789.40</ele>
        <time>2013-07-27T11:15:08Z</time>
      </trkpt>
      <trkpt lat="42.335057000" lon="-2.336644000">
        <ele>789.40</ele>
        <time>2013-07-27T11:15:09Z</time>
      </trkpt>
      <trkpt lat="42.335058000" lon="-2.336634000">
        <ele>789.40</ele>
        <time>2013-07-27T11:15:10Z</time>
      </trkpt>
      <trkpt lat="42.335059000" lon="-2.336630000">
        <ele>789.40</ele>
        <time>2013-07-27T11:15:11Z</time>
      </trkpt>
      <trkpt lat="42.335062000" lon="-2.336622000">
        <ele>789.40</ele>
        <time>2013-07-27T11:15:12Z</time>
      </trkpt>
      <trkpt lat="42.335071000" lon="-2.336614000">
        <ele>789.60</ele>
        <time>2013-07-27T11:15:13Z</time>
      </trkpt>
      <trkpt lat="42.335074000" lon="-2.336604000">
        <ele>789.80</ele>
        <time>2013-07-27T11:15:14Z</time>
      </trkpt>
      <trkpt lat="42.335074000" lon="-2.336595000">
        <ele>789.90</ele>
        <time>2013-07-27T11:15:15Z</time>
      </trkpt>
      <trkpt lat="42.335073000" lon="-2.336591000">
        <ele>790.00</ele>
        <time>2013-07-27T11:15:16Z</time>
      </trkpt>
      <trkpt lat="42.335069000" lon="-2.336588000">
        <ele>789.90</ele>
        <time>2013-07-27T11:15:17Z</time>
      </trkpt>
      <trkpt lat="42.335069000" lon="-2.336585000">
        <ele>789.80</ele>
        <time>2013-07-27T11:15:18Z</time>
      </trkpt>
      <trkpt lat="42.335068000" lon="-2.336585000">
        <ele>789.80</ele>
        <time>2013-07-27T11:15:19Z</time>
      </trkpt>
      <trkpt lat="42.335068000" lon="-2.336584000">
        <ele>789.70</ele>
        <time>2013-07-27T11:15:20Z</time>
      </trkpt>
      <trkpt lat="42.335068000" lon="-2.336583000">
        <ele>789.60</ele>
        <time>2013-07-27T11:15:21Z</time>
      </trkpt>
      <trkpt lat="42.335067000" lon="-2.336584000">
        <ele>789.40</ele>
        <time>2013-07-27T11:15:22Z</time>
      </trkpt>
      <trkpt lat="42.335068000" lon="-2.336586000">
        <ele>789.30</ele>
        <time>2013-07-27T11:15:23Z</time>
      </trkpt>
      <trkpt lat="42.335068000" lon="-2.336589000">
        <ele>789.30</ele>
        <time>2013-07-27T11:15:24Z</time>
      </trkpt>
      <trkpt lat="42.335066000" lon="-2.336590000">
        <ele>789.20</ele>
        <time>2013-07-27T11:15:25Z</time>
      </trkpt>
      <trkpt lat="42.335067000" lon="-2.336590000">
        <ele>789.20</ele>
        <time>2013-07-27T11:15:26Z</time>
      </trkpt>
      <trkpt lat="42.335066000" lon="-2.336590000">
        <ele>789.40</ele>
        <time>2013-07-27T11:15:27Z</time>
      </trkpt>
      <trkpt lat="42.335065000" lon="-2.336586000">
        <ele>789.50</ele>
        <time>2013-07-27T11:15:28Z</time>
      </trkpt>
      <trkpt lat="42.335065000" lon="-2.336569000">
        <ele>789.40</ele>
        <time>2013-07-27T11:15:29Z</time>
      </trkpt>
      <trkpt lat="42.335065000" lon="-2.336536000">
        <ele>789.40</ele>
        <time>2013-07-27T11:15:30Z</time>
      </trkpt>
      <trkpt lat="42.335065000" lon="-2.336510000">
        <ele>789.40</ele>
        <time>2013-07-27T11:15:31Z</time>
      </trkpt>
      <trkpt lat="42.335069000" lon="-2.336483000">
        <ele>789.50</ele>
        <time>2013-07-27T11:15:32Z</time>
      </trkpt>
      <trkpt lat="42.335070000" lon="-2.336454000">
        <ele>789.50</ele>
        <time>2013-07-27T11:15:33Z</time>
      </trkpt>
      <trkpt lat="42.335071000" lon="-2.336425000">
        <ele>789.60</ele>
        <time>2013-07-27T11:15:34Z</time>
      </trkpt>
      <trkpt lat="42.335076000" lon="-2.336392000">
        <ele>789.60</ele>
        <time>2013-07-27T11:15:35Z</time>
      </trkpt>
      <trkpt lat="42.335082000" lon="-2.336358000">
        <ele>789.60</ele>
        <time>2013-07-27T11:15:36Z</time>
      </trkpt>
      <trkpt lat="42.335090000" lon="-2.336324000">
        <ele>789.70</ele>
        <time>2013-07-27T11:15:37Z</time>
      </trkpt>
      <trkpt lat="42.335097000" lon="-2.336290000">
        <ele>789.80</ele>
        <time>2013-07-27T11:15:38Z</time>
      </trkpt>
      <trkpt lat="42.335107000" lon="-2.336256000">
        <ele>789.80</ele>
        <time>2013-07-27T11:15:39Z</time>
      </trkpt>
      <trkpt lat="42.335118000" lon="-2.336221000">
        <ele>789.80</ele>
        <time>2013-07-27T11:15:40Z</time>
      </trkpt>
      <trkpt lat="42.335127000" lon="-2.336188000">
        <ele>789.90</ele>
        <time>2013-07-27T11:15:41Z</time>
      </trkpt>
      <trkpt lat="42.335135000" lon="-2.336162000">
        <ele>789.90</ele>
        <time>2013-07-27T11:15:42Z</time>
      </trkpt>
      <trkpt lat="42.335143000" lon="-2.336129000">
        <ele>789.90</ele>
        <time>2013-07-27T11:15:43Z</time>
      </trkpt>
      <trkpt lat="42.335155000" lon="-2.336099000">
        <ele>789.90</ele>
        <time>2013-07-27T11:15:44Z</time>
      </trkpt>
      <trkpt lat="42.335169000" lon="-2.336065000">
        <ele>790.00</ele>
        <time>2013-07-27T11:15:45Z</time>
      </trkpt>
      <trkpt lat="42.335184000" lon="-2.336029000">
        <ele>790.10</ele>
        <time>2013-07-27T11:15:46Z</time>
      </trkpt>
      <trkpt lat="42.335201000" lon="-2.335991000">
        <ele>790.00</ele>
        <time>2013-07-27T11:15:47Z</time>
      </trkpt>
      <trkpt lat="42.335217000" lon="-2.335956000">
        <ele>790.00</ele>
        <time>2013-07-27T11:15:48Z</time>
      </trkpt>
      <trkpt lat="42.335235000" lon="-2.335922000">
        <ele>790.00</ele>
        <time>2013-07-27T11:15:49Z</time>
      </trkpt>
      <trkpt lat="42.335253000" lon="-2.335882000">
        <ele>790.00</ele>
        <time>2013-07-27T11:15:50Z</time>
      </trkpt>
      <trkpt lat="42.335271000" lon="-2.335843000">
        <ele>789.70</ele>
        <time>2013-07-27T11:15:51Z</time>
      </trkpt>
      <trkpt lat="42.335291000" lon="-2.335802000">
        <ele>789.60</ele>
        <time>2013-07-27T11:15:52Z</time>
      </trkpt>
      <trkpt lat="42.335311000" lon="-2.335761000">
        <ele>789.40</ele>
        <time>2013-07-27T11:15:53Z</time>
      </trkpt>
      <trkpt lat="42.335330000" lon="-2.335717000">
        <ele>789.30</ele>
        <time>2013-07-27T11:15:54Z</time>
      </trkpt>
      <trkpt lat="42.335350000" lon="-2.335673000">
        <ele>789.60</ele>
        <time>2013-07-27T11:15:55Z</time>
      </trkpt>
      <trkpt lat="42.335372000" lon="-2.335626000">
        <ele>789.80</ele>
        <time>2013-07-27T11:15:56Z</time>
      </trkpt>
      <trkpt lat="42.335392000" lon="-2.335578000">
        <ele>789.90</ele>
        <time>2013-07-27T11:15:57Z</time>
      </trkpt>
      <trkpt lat="42.335410000" lon="-2.335534000">
        <ele>790.10</ele>
        <time>2013-07-27T11:15:58Z</time>
      </trkpt>
      <trkpt lat="42.335427000" lon="-2.335487000">
        <ele>789.60</ele>
        <time>2013-07-27T11:15:59Z</time>
      </trkpt>
      <trkpt lat="42.335448000" lon="-2.335436000">
        <ele>789.30</ele>
        <time>2013-07-27T11:16:00Z</time>
      </trkpt>
      <trkpt lat="42.335466000" lon="-2.335384000">
        <ele>788.90</ele>
        <time>2013-07-27T11:16:01Z</time>
      </trkpt>
      <trkpt lat="42.335484000" lon="-2.335334000">
        <ele>788.60</ele>
        <time>2013-07-27T11:16:02Z</time>
      </trkpt>
      <trkpt lat="42.335501000" lon="-2.335286000">
        <ele>788.20</ele>
        <time>2013-07-27T11:16:03Z</time>
      </trkpt>
      <trkpt lat="42.335519000" lon="-2.335250000">
        <ele>787.90</ele>
        <time>2013-07-27T11:16:04Z</time>
      </trkpt>
      <trkpt lat="42.335537000" lon="-2.335219000">
        <ele>787.60</ele>
        <time>2013-07-27T11:16:05Z</time>
      </trkpt>
      <trkpt lat="42.335545000" lon="-2.335190000">
        <ele>787.30</ele>
        <time>2013-07-27T11:16:06Z</time>
      </trkpt>
      <trkpt lat="42.335555000" lon="-2.335168000">
        <ele>787.00</ele>
        <time>2013-07-27T11:16:07Z</time>
      </trkpt>
      <trkpt lat="42.335563000" lon="-2.335146000">
        <ele>786.80</ele>
        <time>2013-07-27T11:16:08Z</time>
      </trkpt>
      <trkpt lat="42.335573000" lon="-2.335120000">
        <ele>786.50</ele>
        <time>2013-07-27T11:16:09Z</time>
      </trkpt>
      <trkpt lat="42.335579000" lon="-2.335092000">
        <ele>786.30</ele>
        <time>2013-07-27T11:16:10Z</time>
      </trkpt>
      <trkpt lat="42.335585000" lon="-2.335067000">
        <ele>786.10</ele>
        <time>2013-07-27T11:16:11Z</time>
      </trkpt>
      <trkpt lat="42.335585000" lon="-2.335041000">
        <ele>785.90</ele>
        <time>2013-07-27T11:16:12Z</time>
      </trkpt>
      <trkpt lat="42.335591000" lon="-2.335016000">
        <ele>785.80</ele>
        <time>2013-07-27T11:16:13Z</time>
      </trkpt>
      <trkpt lat="42.335599000" lon="-2.335009000">
        <ele>785.60</ele>
        <time>2013-07-27T11:16:14Z</time>
      </trkpt>
      <trkpt lat="42.335597000" lon="-2.335010000">
        <ele>785.10</ele>
        <time>2013-07-27T11:16:15Z</time>
      </trkpt>
      <trkpt lat="42.335598000" lon="-2.335015000">
        <ele>784.70</ele>
        <time>2013-07-27T11:16:16Z</time>
      </trkpt>
      <trkpt lat="42.335599000" lon="-2.335019000">
        <ele>784.40</ele>
        <time>2013-07-27T11:16:17Z</time>
      </trkpt>
      <trkpt lat="42.335602000" lon="-2.335022000">
        <ele>784.10</ele>
        <time>2013-07-27T11:16:18Z</time>
      </trkpt>
      <trkpt lat="42.335602000" lon="-2.335035000">
        <ele>784.00</ele>
        <time>2013-07-27T11:16:19Z</time>
      </trkpt>
      <trkpt lat="42.335603000" lon="-2.335046000">
        <ele>783.90</ele>
        <time>2013-07-27T11:16:20Z</time>
      </trkpt>
      <trkpt lat="42.335606000" lon="-2.335051000">
        <ele>783.70</ele>
        <time>2013-07-27T11:16:21Z</time>
      </trkpt>
      <trkpt lat="42.335605000" lon="-2.335056000">
        <ele>783.60</ele>
        <time>2013-07-27T11:16:22Z</time>
      </trkpt>
      <trkpt lat="42.335610000" lon="-2.335060000">
        <ele>783.50</ele>
        <time>2013-07-27T11:16:23Z</time>
      </trkpt>
      <trkpt lat="42.335616000" lon="-2.335066000">
        <ele>783.40</ele>
        <time>2013-07-27T11:16:24Z</time>
      </trkpt>
      <trkpt lat="42.335623000" lon="-2.335069000">
        <ele>783.40</ele>
        <time>2013-07-27T11:16:25Z</time>
      </trkpt>
      <trkpt lat="42.335634000" lon="-2.335074000">
        <ele>783.30</ele>
        <time>2013-07-27T11:16:26Z</time>
      </trkpt>
      <trkpt lat="42.335637000" lon="-2.335077000">
        <ele>783.30</ele>
        <time>2013-07-27T11:16:27Z</time>
      </trkpt>
      <trkpt lat="42.335639000" lon="-2.335074000">
        <ele>783.30</ele>
        <time>2013-07-27T11:16:28Z</time>
      </trkpt>
      <trkpt lat="42.335646000" lon="-2.335061000">
        <ele>783.30</ele>
        <time>2013-07-27T11:16:29Z</time>
      </trkpt>
      <trkpt lat="42.335650000" lon="-2.335050000">
        <ele>783.30</ele>
        <time>2013-07-27T11:16:30Z</time>
      </trkpt>
      <trkpt lat="42.335653000" lon="-2.335046000">
        <ele>783.30</ele>
        <time>2013-07-27T11:16:31Z</time>
      </trkpt>
      <trkpt lat="42.335663000" lon="-2.335029000">
        <ele>783.30</ele>
        <time>2013-07-27T11:16:32Z</time>
      </trkpt>
      <trkpt lat="42.335676000" lon="-2.335002000">
        <ele>783.20</ele>
        <time>2013-07-27T11:16:33Z</time>
      </trkpt>
      <trkpt lat="42.335690000" lon="-2.334974000">
        <ele>783.20</ele>
        <time>2013-07-27T11:16:34Z</time>
      </trkpt>
      <trkpt lat="42.335702000" lon="-2.334953000">
        <ele>783.10</ele>
        <time>2013-07-27T11:16:35Z</time>
      </trkpt>
      <trkpt lat="42.335715000" lon="-2.334933000">
        <ele>783.00</ele>
        <time>2013-07-27T11:16:36Z</time>
      </trkpt>
      <trkpt lat="42.335730000" lon="-2.334909000">
        <ele>782.80</ele>
        <time>2013-07-27T11:16:37Z</time>
      </trkpt>
      <trkpt lat="42.335750000" lon="-2.334881000">
        <ele>782.70</ele>
        <time>2013-07-27T11:16:38Z</time>
      </trkpt>
      <trkpt lat="42.335770000" lon="-2.334848000">
        <ele>782.50</ele>
        <time>2013-07-27T11:16:39Z</time>
      </trkpt>
      <trkpt lat="42.335786000" lon="-2.334818000">
        <ele>782.40</ele>
        <time>2013-07-27T11:16:40Z</time>
      </trkpt>
      <trkpt lat="42.335803000" lon="-2.334793000">
        <ele>781.70</ele>
        <time>2013-07-27T11:16:41Z</time>
      </trkpt>
      <trkpt lat="42.335816000" lon="-2.334768000">
        <ele>781.20</ele>
        <time>2013-07-27T11:16:42Z</time>
      </trkpt>
      <trkpt lat="42.335825000" lon="-2.334738000">
        <ele>780.80</ele>
        <time>2013-07-27T11:16:43Z</time>
      </trkpt>
      <trkpt lat="42.335828000" lon="-2.334700000">
        <ele>780.50</ele>
        <time>2013-07-27T11:16:44Z</time>
      </trkpt>
      <trkpt lat="42.335832000" lon="-2.334661000">
        <ele>780.30</ele>
        <time>2013-07-27T11:16:45Z</time>
      </trkpt>
      <trkpt lat="42.335832000" lon="-2.334620000">
        <ele>780.20</ele>
        <time>2013-07-27T11:16:46Z</time>
      </trkpt>
      <trkpt lat="42.335826000" lon="-2.334576000">
        <ele>779.70</ele>
        <time>2013-07-27T11:16:47Z</time>
      </trkpt>
      <trkpt lat="42.335811000" lon="-2.334542000">
        <ele>779.30</ele>
        <time>2013-07-27T11:16:48Z</time>
      </trkpt>
      <trkpt lat="42.335793000" lon="-2.334510000">
        <ele>778.70</ele>
        <time>2013-07-27T11:16:49Z</time>
      </trkpt>
      <trkpt lat="42.335769000" lon="-2.334483000">
        <ele>778.30</ele>
        <time>2013-07-27T11:16:50Z</time>
      </trkpt>
      <trkpt lat="42.335744000" lon="-2.334453000">
        <ele>777.80</ele>
        <time>2013-07-27T11:16:51Z</time>
      </trkpt>
      <trkpt lat="42.335721000" lon="-2.334417000">
        <ele>777.40</ele>
        <time>2013-07-27T11:16:52Z</time>
      </trkpt>
      <trkpt lat="42.335703000" lon="-2.334382000">
        <ele>777.00</ele>
        <time>2013-07-27T11:16:53Z</time>
      </trkpt>
      <trkpt lat="42.335687000" lon="-2.334341000">
        <ele>776.60</ele>
        <time>2013-07-27T11:16:54Z</time>
      </trkpt>
      <trkpt lat="42.335678000" lon="-2.334289000">
        <ele>776.40</ele>
        <time>2013-07-27T11:16:55Z</time>
      </trkpt>
      <trkpt lat="42.335667000" lon="-2.334240000">
        <ele>776.20</ele>
        <time>2013-07-27T11:16:56Z</time>
      </trkpt>
      <trkpt lat="42.335660000" lon="-2.334192000">
        <ele>776.00</ele>
        <time>2013-07-27T11:16:57Z</time>
      </trkpt>
      <trkpt lat="42.335654000" lon="-2.334141000">
        <ele>775.90</ele>
        <time>2013-07-27T11:16:58Z</time>
      </trkpt>
      <trkpt lat="42.335647000" lon="-2.334086000">
        <ele>775.40</ele>
        <time>2013-07-27T11:16:59Z</time>
      </trkpt>
      <trkpt lat="42.335641000" lon="-2.334034000">
        <ele>775.10</ele>
        <time>2013-07-27T11:17:00Z</time>
      </trkpt>
      <trkpt lat="42.335632000" lon="-2.333995000">
        <ele>774.60</ele>
        <time>2013-07-27T11:17:01Z</time>
      </trkpt>
      <trkpt lat="42.335618000" lon="-2.333960000">
        <ele>774.20</ele>
        <time>2013-07-27T11:17:02Z</time>
      </trkpt>
      <trkpt lat="42.335614000" lon="-2.333922000">
        <ele>773.30</ele>
        <time>2013-07-27T11:17:03Z</time>
      </trkpt>
      <trkpt lat="42.335612000" lon="-2.333886000">
        <ele>772.70</ele>
        <time>2013-07-27T11:17:04Z</time>
      </trkpt>
      <trkpt lat="42.335611000" lon="-2.333854000">
        <ele>772.20</ele>
        <time>2013-07-27T11:17:05Z</time>
      </trkpt>
      <trkpt lat="42.335604000" lon="-2.333824000">
        <ele>771.80</ele>
        <time>2013-07-27T11:17:06Z</time>
      </trkpt>
      <trkpt lat="42.335598000" lon="-2.333789000">
        <ele>771.50</ele>
        <time>2013-07-27T11:17:07Z</time>
      </trkpt>
      <trkpt lat="42.335600000" lon="-2.333754000">
        <ele>771.30</ele>
        <time>2013-07-27T11:17:08Z</time>
      </trkpt>
      <trkpt lat="42.335602000" lon="-2.333715000">
        <ele>770.80</ele>
        <time>2013-07-27T11:17:09Z</time>
      </trkpt>
      <trkpt lat="42.335596000" lon="-2.333673000">
        <ele>770.50</ele>
        <time>2013-07-27T11:17:10Z</time>
      </trkpt>
      <trkpt lat="42.335596000" lon="-2.333635000">
        <ele>769.70</ele>
        <time>2013-07-27T11:17:11Z</time>
      </trkpt>
      <trkpt lat="42.335595000" lon="-2.333603000">
        <ele>769.10</ele>
        <time>2013-07-27T11:17:12Z</time>
      </trkpt>
      <trkpt lat="42.335594000" lon="-2.333579000">
        <ele>768.60</ele>
        <time>2013-07-27T11:17:13Z</time>
      </trkpt>
      <trkpt lat="42.335592000" lon="-2.333560000">
        <ele>768.30</ele>
        <time>2013-07-27T11:17:14Z</time>
      </trkpt>
      <trkpt lat="42.335590000" lon="-2.333533000">
        <ele>767.80</ele>
        <time>2013-07-27T11:17:15Z</time>
      </trkpt>
      <trkpt lat="42.335593000" lon="-2.333498000">
        <ele>767.40</ele>
        <time>2013-07-27T11:17:16Z</time>
      </trkpt>
      <trkpt lat="42.335596000" lon="-2.333463000">
        <ele>767.00</ele>
        <time>2013-07-27T11:17:17Z</time>
      </trkpt>
      <trkpt lat="42.335597000" lon="-2.333433000">
        <ele>766.60</ele>
        <time>2013-07-27T11:17:18Z</time>
      </trkpt>
      <trkpt lat="42.335600000" lon="-2.333398000">
        <ele>766.20</ele>
        <time>2013-07-27T11:17:19Z</time>
      </trkpt>
      <trkpt lat="42.335605000" lon="-2.333360000">
        <ele>765.90</ele>
        <time>2013-07-27T11:17:20Z</time>
      </trkpt>
      <trkpt lat="42.335607000" lon="-2.333318000">
        <ele>765.50</ele>
        <time>2013-07-27T11:17:21Z</time>
      </trkpt>
      <trkpt lat="42.335605000" lon="-2.333275000">
        <ele>765.20</ele>
        <time>2013-07-27T11:17:22Z</time>
      </trkpt>
      <trkpt lat="42.335601000" lon="-2.333231000">
        <ele>764.20</ele>
        <time>2013-07-27T11:17:23Z</time>
      </trkpt>
      <trkpt lat="42.335593000" lon="-2.333191000">
        <ele>763.40</ele>
        <time>2013-07-27T11:17:24Z</time>
      </trkpt>
      <trkpt lat="42.335583000" lon="-2.333151000">
        <ele>762.70</ele>
        <time>2013-07-27T11:17:25Z</time>
      </trkpt>
      <trkpt lat="42.335573000" lon="-2.333107000">
        <ele>762.20</ele>
        <time>2013-07-27T11:17:26Z</time>
      </trkpt>
      <trkpt lat="42.335560000" lon="-2.333066000">
        <ele>761.60</ele>
        <time>2013-07-27T11:17:27Z</time>
      </trkpt>
      <trkpt lat="42.335547000" lon="-2.333030000">
        <ele>761.10</ele>
        <time>2013-07-27T11:17:28Z</time>
      </trkpt>
      <trkpt lat="42.335534000" lon="-2.333001000">
        <ele>760.70</ele>
        <time>2013-07-27T11:17:29Z</time>
      </trkpt>
      <trkpt lat="42.335521000" lon="-2.332967000">
        <ele>760.40</ele>
        <time>2013-07-27T11:17:30Z</time>
      </trkpt>
      <trkpt lat="42.335510000" lon="-2.332938000">
        <ele>760.10</ele>
        <time>2013-07-27T11:17:31Z</time>
      </trkpt>
      <trkpt lat="42.335499000" lon="-2.332906000">
        <ele>759.90</ele>
        <time>2013-07-27T11:17:32Z</time>
      </trkpt>
      <trkpt lat="42.335494000" lon="-2.332876000">
        <ele>759.50</ele>
        <time>2013-07-27T11:17:33Z</time>
      </trkpt>
      <trkpt lat="42.335491000" lon="-2.332839000">
        <ele>759.10</ele>
        <time>2013-07-27T11:17:34Z</time>
      </trkpt>
      <trkpt lat="42.335483000" lon="-2.332808000">
        <ele>758.50</ele>
        <time>2013-07-27T11:17:35Z</time>
      </trkpt>
      <trkpt lat="42.335475000" lon="-2.332775000">
        <ele>758.00</ele>
        <time>2013-07-27T11:17:36Z</time>
      </trkpt>
      <trkpt lat="42.335468000" lon="-2.332739000">
        <ele>757.50</ele>
        <time>2013-07-27T11:17:37Z</time>
      </trkpt>
      <trkpt lat="42.335461000" lon="-2.332709000">
        <ele>757.10</ele>
        <time>2013-07-27T11:17:38Z</time>
      </trkpt>
      <trkpt lat="42.335457000" lon="-2.332674000">
        <ele>756.70</ele>
        <time>2013-07-27T11:17:39Z</time>
      </trkpt>
      <trkpt lat="42.335455000" lon="-2.332635000">
        <ele>756.30</ele>
        <time>2013-07-27T11:17:40Z</time>
      </trkpt>
      <trkpt lat="42.335453000" lon="-2.332593000">
        <ele>755.60</ele>
        <time>2013-07-27T11:17:41Z</time>
      </trkpt>
      <trkpt lat="42.335452000" lon="-2.332554000">
        <ele>755.10</ele>
        <time>2013-07-27T11:17:42Z</time>
      </trkpt>
      <trkpt lat="42.335451000" lon="-2.332518000">
        <ele>754.80</ele>
        <time>2013-07-27T11:17:43Z</time>
      </trkpt>
      <trkpt lat="42.335450000" lon="-2.332478000">
        <ele>754.50</ele>
        <time>2013-07-27T11:17:44Z</time>
      </trkpt>
      <trkpt lat="42.335448000" lon="-2.332428000">
        <ele>754.10</ele>
        <time>2013-07-27T11:17:45Z</time>
      </trkpt>
      <trkpt lat="42.335448000" lon="-2.332385000">
        <ele>753.90</ele>
        <time>2013-07-27T11:17:46Z</time>
      </trkpt>
      <trkpt lat="42.335446000" lon="-2.332344000">
        <ele>753.70</ele>
        <time>2013-07-27T11:17:47Z</time>
      </trkpt>
      <trkpt lat="42.335437000" lon="-2.332311000">
        <ele>753.60</ele>
        <time>2013-07-27T11:17:48Z</time>
      </trkpt>
      <trkpt lat="42.335430000" lon="-2.332288000">
        <ele>753.00</ele>
        <time>2013-07-27T11:17:49Z</time>
      </trkpt>
      <trkpt lat="42.335426000" lon="-2.332264000">
        <ele>752.50</ele>
        <time>2013-07-27T11:17:50Z</time>
      </trkpt>
      <trkpt lat="42.335418000" lon="-2.332239000">
        <ele>752.10</ele>
        <time>2013-07-27T11:17:51Z</time>
      </trkpt>
      <trkpt lat="42.335411000" lon="-2.332215000">
        <ele>751.80</ele>
        <time>2013-07-27T11:17:52Z</time>
      </trkpt>
      <trkpt lat="42.335401000" lon="-2.332190000">
        <ele>751.50</ele>
        <time>2013-07-27T11:17:53Z</time>
      </trkpt>
      <trkpt lat="42.335389000" lon="-2.332159000">
        <ele>751.30</ele>
        <time>2013-07-27T11:17:54Z</time>
      </trkpt>
      <trkpt lat="42.335371000" lon="-2.332119000">
        <ele>750.80</ele>
        <time>2013-07-27T11:17:55Z</time>
      </trkpt>
      <trkpt lat="42.335353000" lon="-2.332076000">
        <ele>750.40</ele>
        <time>2013-07-27T11:17:56Z</time>
      </trkpt>
      <trkpt lat="42.335336000" lon="-2.332030000">
        <ele>750.00</ele>
        <time>2013-07-27T11:17:57Z</time>
      </trkpt>
      <trkpt lat="42.335311000" lon="-2.331983000">
        <ele>749.70</ele>
        <time>2013-07-27T11:17:58Z</time>
      </trkpt>
      <trkpt lat="42.335285000" lon="-2.331936000">
        <ele>749.40</ele>
        <time>2013-07-27T11:17:59Z</time>
      </trkpt>
      <trkpt lat="42.335260000" lon="-2.331886000">
        <ele>749.30</ele>
        <time>2013-07-27T11:18:00Z</time>
      </trkpt>
      <trkpt lat="42.335234000" lon="-2.331840000">
        <ele>749.10</ele>
        <time>2013-07-27T11:18:01Z</time>
      </trkpt>
      <trkpt lat="42.335209000" lon="-2.331792000">
        <ele>749.00</ele>
        <time>2013-07-27T11:18:02Z</time>
      </trkpt>
      <trkpt lat="42.335181000" lon="-2.331746000">
        <ele>748.80</ele>
        <time>2013-07-27T11:18:03Z</time>
      </trkpt>
      <trkpt lat="42.335154000" lon="-2.331700000">
        <ele>748.60</ele>
        <time>2013-07-27T11:18:04Z</time>
      </trkpt>
      <trkpt lat="42.335132000" lon="-2.331654000">
        <ele>747.50</ele>
        <time>2013-07-27T11:18:05Z</time>
      </trkpt>
      <trkpt lat="42.335110000" lon="-2.331607000">
        <ele>746.60</ele>
        <time>2013-07-27T11:18:06Z</time>
      </trkpt>
      <trkpt lat="42.335089000" lon="-2.331557000">
        <ele>746.70</ele>
        <time>2013-07-27T11:18:07Z</time>
      </trkpt>
      <trkpt lat="42.335067000" lon="-2.331508000">
        <ele>746.70</ele>
        <time>2013-07-27T11:18:08Z</time>
      </trkpt>
      <trkpt lat="42.335048000" lon="-2.331459000">
        <ele>746.80</ele>
        <time>2013-07-27T11:18:09Z</time>
      </trkpt>
      <trkpt lat="42.335031000" lon="-2.331406000">
        <ele>746.80</ele>
        <time>2013-07-27T11:18:10Z</time>
      </trkpt>
      <trkpt lat="42.335015000" lon="-2.331353000">
        <ele>746.90</ele>
        <time>2013-07-27T11:18:11Z</time>
      </trkpt>
      <trkpt lat="42.335001000" lon="-2.331304000">
        <ele>747.00</ele>
        <time>2013-07-27T11:18:12Z</time>
      </trkpt>
      <trkpt lat="42.334985000" lon="-2.331257000">
        <ele>747.00</ele>
        <time>2013-07-27T11:18:13Z</time>
      </trkpt>
      <trkpt lat="42.334967000" lon="-2.331211000">
        <ele>747.00</ele>
        <time>2013-07-27T11:18:14Z</time>
      </trkpt>
      <trkpt lat="42.334949000" lon="-2.331168000">
        <ele>746.50</ele>
        <time>2013-07-27T11:18:15Z</time>
      </trkpt>
      <trkpt lat="42.334926000" lon="-2.331125000">
        <ele>746.10</ele>
        <time>2013-07-27T11:18:16Z</time>
      </trkpt>
      <trkpt lat="42.334898000" lon="-2.331084000">
        <ele>745.70</ele>
        <time>2013-07-27T11:18:17Z</time>
      </trkpt>
      <trkpt lat="42.334859000" lon="-2.331048000">
        <ele>745.50</ele>
        <time>2013-07-27T11:18:18Z</time>
      </trkpt>
      <trkpt lat="42.334815000" lon="-2.331015000">
        <ele>745.20</ele>
        <time>2013-07-27T11:18:19Z</time>
      </trkpt>
      <trkpt lat="42.334771000" lon="-2.330982000">
        <ele>745.10</ele>
        <time>2013-07-27T11:18:20Z</time>
      </trkpt>
      <trkpt lat="42.334729000" lon="-2.330956000">
        <ele>744.50</ele>
        <time>2013-07-27T11:18:21Z</time>
      </trkpt>
      <trkpt lat="42.334691000" lon="-2.330932000">
        <ele>744.00</ele>
        <time>2013-07-27T11:18:22Z</time>
      </trkpt>
      <trkpt lat="42.334657000" lon="-2.330906000">
        <ele>743.70</ele>
        <time>2013-07-27T11:18:23Z</time>
      </trkpt>
      <trkpt lat="42.334627000" lon="-2.330874000">
        <ele>743.40</ele>
        <time>2013-07-27T11:18:24Z</time>
      </trkpt>
      <trkpt lat="42.334598000" lon="-2.330844000">
        <ele>743.10</ele>
        <time>2013-07-27T11:18:25Z</time>
      </trkpt>
      <trkpt lat="42.334577000" lon="-2.330800000">
        <ele>742.80</ele>
        <time>2013-07-27T11:18:26Z</time>
      </trkpt>
      <trkpt lat="42.334561000" lon="-2.330755000">
        <ele>742.70</ele>
        <time>2013-07-27T11:18:27Z</time>
      </trkpt>
      <trkpt lat="42.334546000" lon="-2.330708000">
        <ele>742.50</ele>
        <time>2013-07-27T11:18:28Z</time>
      </trkpt>
      <trkpt lat="42.334530000" lon="-2.330659000">
        <ele>742.40</ele>
        <time>2013-07-27T11:18:29Z</time>
      </trkpt>
      <trkpt lat="42.334507000" lon="-2.330605000">
        <ele>742.30</ele>
        <time>2013-07-27T11:18:30Z</time>
      </trkpt>
      <trkpt lat="42.334484000" lon="-2.330545000">
        <ele>741.90</ele>
        <time>2013-07-27T11:18:31Z</time>
      </trkpt>
      <trkpt lat="42.334456000" lon="-2.330485000">
        <ele>741.60</ele>
        <time>2013-07-27T11:18:32Z</time>
      </trkpt>
      <trkpt lat="42.334431000" lon="-2.330439000">
        <ele>741.20</ele>
        <time>2013-07-27T11:18:33Z</time>
      </trkpt>
      <trkpt lat="42.334411000" lon="-2.330399000">
        <ele>741.00</ele>
        <time>2013-07-27T11:18:34Z</time>
      </trkpt>
      <trkpt lat="42.334385000" lon="-2.330368000">
        <ele>740.90</ele>
        <time>2013-07-27T11:18:35Z</time>
      </trkpt>
      <trkpt lat="42.334361000" lon="-2.330337000">
        <ele>740.80</ele>
        <time>2013-07-27T11:18:36Z</time>
      </trkpt>
      <trkpt lat="42.334338000" lon="-2.330304000">
        <ele>740.50</ele>
        <time>2013-07-27T11:18:37Z</time>
      </trkpt>
      <trkpt lat="42.334312000" lon="-2.330269000">
        <ele>740.30</ele>
        <time>2013-07-27T11:18:38Z</time>
      </trkpt>
      <trkpt lat="42.334286000" lon="-2.330230000">
        <ele>740.10</ele>
        <time>2013-07-27T11:18:39Z</time>
      </trkpt>
      <trkpt lat="42.334260000" lon="-2.330189000">
        <ele>739.90</ele>
        <time>2013-07-27T11:18:40Z</time>
      </trkpt>
      <trkpt lat="42.334233000" lon="-2.330146000">
        <ele>739.50</ele>
        <time>2013-07-27T11:18:41Z</time>
      </trkpt>
      <trkpt lat="42.334203000" lon="-2.330105000">
        <ele>739.10</ele>
        <time>2013-07-27T11:18:42Z</time>
      </trkpt>
      <trkpt lat="42.334171000" lon="-2.330061000">
        <ele>738.90</ele>
        <time>2013-07-27T11:18:43Z</time>
      </trkpt>
      <trkpt lat="42.334132000" lon="-2.330023000">
        <ele>738.70</ele>
        <time>2013-07-27T11:18:44Z</time>
      </trkpt>
      <trkpt lat="42.334091000" lon="-2.329980000">
        <ele>738.50</ele>
        <time>2013-07-27T11:18:45Z</time>
      </trkpt>
      <trkpt lat="42.334048000" lon="-2.329935000">
        <ele>738.40</ele>
        <time>2013-07-27T11:18:46Z</time>
      </trkpt>
      <trkpt lat="42.334013000" lon="-2.329896000">
        <ele>737.80</ele>
        <time>2013-07-27T11:18:47Z</time>
      </trkpt>
      <trkpt lat="42.333985000" lon="-2.329857000">
        <ele>737.30</ele>
        <time>2013-07-27T11:18:48Z</time>
      </trkpt>
      <trkpt lat="42.333960000" lon="-2.329816000">
        <ele>736.60</ele>
        <time>2013-07-27T11:18:49Z</time>
      </trkpt>
      <trkpt lat="42.333931000" lon="-2.329781000">
        <ele>736.10</ele>
        <time>2013-07-27T11:18:50Z</time>
      </trkpt>
      <trkpt lat="42.333899000" lon="-2.329746000">
        <ele>735.30</ele>
        <time>2013-07-27T11:18:51Z</time>
      </trkpt>
      <trkpt lat="42.333867000" lon="-2.329719000">
        <ele>734.80</ele>
        <time>2013-07-27T11:18:52Z</time>
      </trkpt>
      <trkpt lat="42.333839000" lon="-2.329693000">
        <ele>734.10</ele>
        <time>2013-07-27T11:18:53Z</time>
      </trkpt>
      <trkpt lat="42.333811000" lon="-2.329669000">
        <ele>733.60</ele>
        <time>2013-07-27T11:18:54Z</time>
      </trkpt>
      <trkpt lat="42.333781000" lon="-2.329656000">
        <ele>733.20</ele>
        <time>2013-07-27T11:18:55Z</time>
      </trkpt>
      <trkpt lat="42.333755000" lon="-2.329662000">
        <ele>733.00</ele>
        <time>2013-07-27T11:18:56Z</time>
      </trkpt>
      <trkpt lat="42.333726000" lon="-2.329676000">
        <ele>732.80</ele>
        <time>2013-07-27T11:18:57Z</time>
      </trkpt>
      <trkpt lat="42.333697000" lon="-2.329701000">
        <ele>732.60</ele>
        <time>2013-07-27T11:18:58Z</time>
      </trkpt>
      <trkpt lat="42.333679000" lon="-2.329732000">
        <ele>732.40</ele>
        <time>2013-07-27T11:18:59Z</time>
      </trkpt>
      <trkpt lat="42.333660000" lon="-2.329770000">
        <ele>732.30</ele>
        <time>2013-07-27T11:19:00Z</time>
      </trkpt>
      <trkpt lat="42.333639000" lon="-2.329807000">
        <ele>731.80</ele>
        <time>2013-07-27T11:19:01Z</time>
      </trkpt>
      <trkpt lat="42.333610000" lon="-2.329839000">
        <ele>731.50</ele>
        <time>2013-07-27T11:19:02Z</time>
      </trkpt>
      <trkpt lat="42.333579000" lon="-2.329873000">
        <ele>731.20</ele>
        <time>2013-07-27T11:19:03Z</time>
      </trkpt>
      <trkpt lat="42.333551000" lon="-2.329912000">
        <ele>731.00</ele>
        <time>2013-07-27T11:19:04Z</time>
      </trkpt>
      <trkpt lat="42.333521000" lon="-2.329949000">
        <ele>730.90</ele>
        <time>2013-07-27T11:19:05Z</time>
      </trkpt>
      <trkpt lat="42.333492000" lon="-2.329985000">
        <ele>730.80</ele>
        <time>2013-07-27T11:19:06Z</time>
      </trkpt>
      <trkpt lat="42.333460000" lon="-2.330020000">
        <ele>730.10</ele>
        <time>2013-07-27T11:19:07Z</time>
      </trkpt>
      <trkpt lat="42.333424000" lon="-2.330051000">
        <ele>729.60</ele>
        <time>2013-07-27T11:19:08Z</time>
      </trkpt>
      <trkpt lat="42.333387000" lon="-2.330076000">
        <ele>729.20</ele>
        <time>2013-07-27T11:19:09Z</time>
      </trkpt>
      <trkpt lat="42.333354000" lon="-2.330091000">
        <ele>728.90</ele>
        <time>2013-07-27T11:19:10Z</time>
      </trkpt>
      <trkpt lat="42.333323000" lon="-2.330101000">
        <ele>728.60</ele>
        <time>2013-07-27T11:19:11Z</time>
      </trkpt>
      <trkpt lat="42.333291000" lon="-2.330118000">
        <ele>728.50</ele>
        <time>2013-07-27T11:19:12Z</time>
      </trkpt>
      <trkpt lat="42.333256000" lon="-2.330130000">
        <ele>728.30</ele>
        <time>2013-07-27T11:19:13Z</time>
      </trkpt>
      <trkpt lat="42.333226000" lon="-2.330138000">
        <ele>728.20</ele>
        <time>2013-07-27T11:19:14Z</time>
      </trkpt>
      <trkpt lat="42.333197000" lon="-2.330140000">
        <ele>728.20</ele>
        <time>2013-07-27T11:19:15Z</time>
      </trkpt>
      <trkpt lat="42.333176000" lon="-2.330129000">
        <ele>728.10</ele>
        <time>2013-07-27T11:19:16Z</time>
      </trkpt>
      <trkpt lat="42.333161000" lon="-2.330112000">
        <ele>727.80</ele>
        <time>2013-07-27T11:19:17Z</time>
      </trkpt>
      <trkpt lat="42.333148000" lon="-2.330088000">
        <ele>727.50</ele>
        <time>2013-07-27T11:19:18Z</time>
      </trkpt>
      <trkpt lat="42.333141000" lon="-2.330067000">
        <ele>727.30</ele>
        <time>2013-07-27T11:19:19Z</time>
      </trkpt>
      <trkpt lat="42.333137000" lon="-2.330041000">
        <ele>727.20</ele>
        <time>2013-07-27T11:19:20Z</time>
      </trkpt>
      <trkpt lat="42.333133000" lon="-2.330012000">
        <ele>727.10</ele>
        <time>2013-07-27T11:19:21Z</time>
      </trkpt>
      <trkpt lat="42.333132000" lon="-2.329983000">
        <ele>727.10</ele>
        <time>2013-07-27T11:19:22Z</time>
      </trkpt>
      <trkpt lat="42.333135000" lon="-2.329942000">
        <ele>727.10</ele>
        <time>2013-07-27T11:19:23Z</time>
      </trkpt>
      <trkpt lat="42.333146000" lon="-2.329900000">
        <ele>727.10</ele>
        <time>2013-07-27T11:19:24Z</time>
      </trkpt>
      <trkpt lat="42.333162000" lon="-2.329852000">
        <ele>726.90</ele>
        <time>2013-07-27T11:19:25Z</time>
      </trkpt>
      <trkpt lat="42.333179000" lon="-2.329801000">
        <ele>726.80</ele>
        <time>2013-07-27T11:19:26Z</time>
      </trkpt>
      <trkpt lat="42.333196000" lon="-2.329742000">
        <ele>726.70</ele>
        <time>2013-07-27T11:19:27Z</time>
      </trkpt>
      <trkpt lat="42.333210000" lon="-2.329676000">
        <ele>726.60</ele>
        <time>2013-07-27T11:19:28Z</time>
      </trkpt>
      <trkpt lat="42.333228000" lon="-2.329608000">
        <ele>726.40</ele>
        <time>2013-07-27T11:19:29Z</time>
      </trkpt>
      <trkpt lat="42.333245000" lon="-2.329533000">
        <ele>726.30</ele>
        <time>2013-07-27T11:19:30Z</time>
      </trkpt>
      <trkpt lat="42.333261000" lon="-2.329454000">
        <ele>725.50</ele>
        <time>2013-07-27T11:19:31Z</time>
      </trkpt>
      <trkpt lat="42.333277000" lon="-2.329372000">
        <ele>724.90</ele>
        <time>2013-07-27T11:19:32Z</time>
      </trkpt>
      <trkpt lat="42.333294000" lon="-2.329289000">
        <ele>724.30</ele>
        <time>2013-07-27T11:19:33Z</time>
      </trkpt>
      <trkpt lat="42.333313000" lon="-2.329210000">
        <ele>723.80</ele>
        <time>2013-07-27T11:19:34Z</time>
      </trkpt>
      <trkpt lat="42.333333000" lon="-2.329133000">
        <ele>723.10</ele>
        <time>2013-07-27T11:19:35Z</time>
      </trkpt>
      <trkpt lat="42.333350000" lon="-2.329065000">
        <ele>722.50</ele>
        <time>2013-07-27T11:19:36Z</time>
      </trkpt>
      <trkpt lat="42.333364000" lon="-2.329009000">
        <ele>721.80</ele>
        <time>2013-07-27T11:19:37Z</time>
      </trkpt>
      <trkpt lat="42.333379000" lon="-2.328962000">
        <ele>721.30</ele>
        <time>2013-07-27T11:19:38Z</time>
      </trkpt>
      <trkpt lat="42.333393000" lon="-2.328919000">
        <ele>720.60</ele>
        <time>2013-07-27T11:19:39Z</time>
      </trkpt>
      <trkpt lat="42.333412000" lon="-2.328892000">
        <ele>720.10</ele>
        <time>2013-07-27T11:19:40Z</time>
      </trkpt>
      <trkpt lat="42.333438000" lon="-2.328875000">
        <ele>719.70</ele>
        <time>2013-07-27T11:19:41Z</time>
      </trkpt>
      <trkpt lat="42.333462000" lon="-2.328861000">
        <ele>719.40</ele>
        <time>2013-07-27T11:19:42Z</time>
      </trkpt>
      <trkpt lat="42.333485000" lon="-2.328859000">
        <ele>719.20</ele>
        <time>2013-07-27T11:19:43Z</time>
      </trkpt>
      <trkpt lat="42.333512000" lon="-2.328859000">
        <ele>719.00</ele>
        <time>2013-07-27T11:19:44Z</time>
      </trkpt>
      <trkpt lat="42.333540000" lon="-2.328873000">
        <ele>718.70</ele>
        <time>2013-07-27T11:19:45Z</time>
      </trkpt>
      <trkpt lat="42.333571000" lon="-2.328894000">
        <ele>718.50</ele>
        <time>2013-07-27T11:19:46Z</time>
      </trkpt>
      <trkpt lat="42.333606000" lon="-2.328907000">
        <ele>718.40</ele>
        <time>2013-07-27T11:19:47Z</time>
      </trkpt>
      <trkpt lat="42.333645000" lon="-2.328922000">
        <ele>718.30</ele>
        <time>2013-07-27T11:19:48Z</time>
      </trkpt>
      <trkpt lat="42.333685000" lon="-2.328940000">
        <ele>718.10</ele>
        <time>2013-07-27T11:19:49Z</time>
      </trkpt>
      <trkpt lat="42.333724000" lon="-2.328958000">
        <ele>718.00</ele>
        <time>2013-07-27T11:19:50Z</time>
      </trkpt>
      <trkpt lat="42.333762000" lon="-2.328978000">
        <ele>718.10</ele>
        <time>2013-07-27T11:19:51Z</time>
      </trkpt>
      <trkpt lat="42.333798000" lon="-2.328995000">
        <ele>718.10</ele>
        <time>2013-07-27T11:19:52Z</time>
      </trkpt>
      <trkpt lat="42.333831000" lon="-2.329012000">
        <ele>718.30</ele>
        <time>2013-07-27T11:19:53Z</time>
      </trkpt>
      <trkpt lat="42.333862000" lon="-2.329027000">
        <ele>718.40</ele>
        <time>2013-07-27T11:19:54Z</time>
      </trkpt>
      <trkpt lat="42.333894000" lon="-2.329046000">
        <ele>718.40</ele>
        <time>2013-07-27T11:19:55Z</time>
      </trkpt>
      <trkpt lat="42.333927000" lon="-2.329071000">
        <ele>718.50</ele>
        <time>2013-07-27T11:19:56Z</time>
      </trkpt>
      <trkpt lat="42.333957000" lon="-2.329091000">
        <ele>718.80</ele>
        <time>2013-07-27T11:19:57Z</time>
      </trkpt>
      <trkpt lat="42.333988000" lon="-2.329113000">
        <ele>719.10</ele>
        <time>2013-07-27T11:19:58Z</time>
      </trkpt>
      <trkpt lat="42.334013000" lon="-2.329139000">
        <ele>719.20</ele>
        <time>2013-07-27T11:19:59Z</time>
      </trkpt>
      <trkpt lat="42.334035000" lon="-2.329163000">
        <ele>719.40</ele>
        <time>2013-07-27T11:20:00Z</time>
      </trkpt>
      <trkpt lat="42.334057000" lon="-2.329185000">
        <ele>719.50</ele>
        <time>2013-07-27T11:20:01Z</time>
      </trkpt>
      <trkpt lat="42.334074000" lon="-2.329209000">
        <ele>719.50</ele>
        <time>2013-07-27T11:20:02Z</time>
      </trkpt>
      <trkpt lat="42.334094000" lon="-2.329225000">
        <ele>719.70</ele>
        <time>2013-07-27T11:20:03Z</time>
      </trkpt>
      <trkpt lat="42.334112000" lon="-2.329236000">
        <ele>719.90</ele>
        <time>2013-07-27T11:20:04Z</time>
      </trkpt>
      <trkpt lat="42.334129000" lon="-2.329245000">
        <ele>719.80</ele>
        <time>2013-07-27T11:20:05Z</time>
      </trkpt>
      <trkpt lat="42.334147000" lon="-2.329246000">
        <ele>719.80</ele>
        <time>2013-07-27T11:20:06Z</time>
      </trkpt>
      <trkpt lat="42.334162000" lon="-2.329240000">
        <ele>719.80</ele>
        <time>2013-07-27T11:20:07Z</time>
      </trkpt>
      <trkpt lat="42.334177000" lon="-2.329228000">
        <ele>719.80</ele>
        <time>2013-07-27T11:20:08Z</time>
      </trkpt>
      <trkpt lat="42.334189000" lon="-2.329203000">
        <ele>719.70</ele>
        <time>2013-07-27T11:20:09Z</time>
      </trkpt>
      <trkpt lat="42.334193000" lon="-2.329178000">
        <ele>719.60</ele>
        <time>2013-07-27T11:20:10Z</time>
      </trkpt>
      <trkpt lat="42.334195000" lon="-2.329146000">
        <ele>719.40</ele>
        <time>2013-07-27T11:20:11Z</time>
      </trkpt>
      <trkpt lat="42.334193000" lon="-2.329117000">
        <ele>719.20</ele>
        <time>2013-07-27T11:20:12Z</time>
      </trkpt>
      <trkpt lat="42.334186000" lon="-2.329087000">
        <ele>719.00</ele>
        <time>2013-07-27T11:20:13Z</time>
      </trkpt>
      <trkpt lat="42.334171000" lon="-2.329055000">
        <ele>718.80</ele>
        <time>2013-07-27T11:20:14Z</time>
      </trkpt>
      <trkpt lat="42.334155000" lon="-2.329025000">
        <ele>718.60</ele>
        <time>2013-07-27T11:20:15Z</time>
      </trkpt>
      <trkpt lat="42.334147000" lon="-2.328994000">
        <ele>718.40</ele>
        <time>2013-07-27T11:20:16Z</time>
      </trkpt>
      <trkpt lat="42.334139000" lon="-2.328951000">
        <ele>718.20</ele>
        <time>2013-07-27T11:20:17Z</time>
      </trkpt>
      <trkpt lat="42.334131000" lon="-2.328910000">
        <ele>718.10</ele>
        <time>2013-07-27T11:20:18Z</time>
      </trkpt>
      <trkpt lat="42.334121000" lon="-2.328867000">
        <ele>717.50</ele>
        <time>2013-07-27T11:20:19Z</time>
      </trkpt>
      <trkpt lat="42.334107000" lon="-2.328820000">
        <ele>717.00</ele>
        <time>2013-07-27T11:20:20Z</time>
      </trkpt>
      <trkpt lat="42.334093000" lon="-2.328767000">
        <ele>716.60</ele>
        <time>2013-07-27T11:20:21Z</time>
      </trkpt>
      <trkpt lat="42.334085000" lon="-2.328714000">
        <ele>716.20</ele>
        <time>2013-07-27T11:20:22Z</time>
      </trkpt>
      <trkpt lat="42.334071000" lon="-2.328662000">
        <ele>715.70</ele>
        <time>2013-07-27T11:20:23Z</time>
      </trkpt>
      <trkpt lat="42.334053000" lon="-2.328611000">
        <ele>715.30</ele>
        <time>2013-07-27T11:20:24Z</time>
      </trkpt>
      <trkpt lat="42.334033000" lon="-2.328560000">
        <ele>714.70</ele>
        <time>2013-07-27T11:20:25Z</time>
      </trkpt>
      <trkpt lat="42.334013000" lon="-2.328512000">
        <ele>714.20</ele>
        <time>2013-07-27T11:20:26Z</time>
      </trkpt>
      <trkpt lat="42.334000000" lon="-2.328464000">
        <ele>713.30</ele>
        <time>2013-07-27T11:20:27Z</time>
      </trkpt>
      <trkpt lat="42.333992000" lon="-2.328414000">
        <ele>712.60</ele>
        <time>2013-07-27T11:20:28Z</time>
      </trkpt>
      <trkpt lat="42.333990000" lon="-2.328363000">
        <ele>711.60</ele>
        <time>2013-07-27T11:20:29Z</time>
      </trkpt>
      <trkpt lat="42.333992000" lon="-2.328314000">
        <ele>710.90</ele>
        <time>2013-07-27T11:20:30Z</time>
      </trkpt>
      <trkpt lat="42.333996000" lon="-2.328267000">
        <ele>710.10</ele>
        <time>2013-07-27T11:20:31Z</time>
      </trkpt>
      <trkpt lat="42.334005000" lon="-2.328219000">
        <ele>709.50</ele>
        <time>2013-07-27T11:20:32Z</time>
      </trkpt>
      <trkpt lat="42.334015000" lon="-2.328167000">
        <ele>708.60</ele>
        <time>2013-07-27T11:20:33Z</time>
      </trkpt>
      <trkpt lat="42.334028000" lon="-2.328116000">
        <ele>708.00</ele>
        <time>2013-07-27T11:20:34Z</time>
      </trkpt>
      <trkpt lat="42.334036000" lon="-2.328066000">
        <ele>707.20</ele>
        <time>2013-07-27T11:20:35Z</time>
      </trkpt>
      <trkpt lat="42.334045000" lon="-2.328019000">
        <ele>706.60</ele>
        <time>2013-07-27T11:20:36Z</time>
      </trkpt>
      <trkpt lat="42.334050000" lon="-2.327971000">
        <ele>705.40</ele>
        <time>2013-07-27T11:20:37Z</time>
      </trkpt>
      <trkpt lat="42.334059000" lon="-2.327930000">
        <ele>704.60</ele>
        <time>2013-07-27T11:20:38Z</time>
      </trkpt>
      <trkpt lat="42.334069000" lon="-2.327885000">
        <ele>703.90</ele>
        <time>2013-07-27T11:20:39Z</time>
      </trkpt>
      <trkpt lat="42.334079000" lon="-2.327837000">
        <ele>703.50</ele>
        <time>2013-07-27T11:20:40Z</time>
      </trkpt>
      <trkpt lat="42.334086000" lon="-2.327791000">
        <ele>702.40</ele>
        <time>2013-07-27T11:20:41Z</time>
      </trkpt>
      <trkpt lat="42.334095000" lon="-2.327750000">
        <ele>701.60</ele>
        <time>2013-07-27T11:20:42Z</time>
      </trkpt>
      <trkpt lat="42.334105000" lon="-2.327710000">
        <ele>700.80</ele>
        <time>2013-07-27T11:20:43Z</time>
      </trkpt>
      <trkpt lat="42.334110000" lon="-2.327667000">
        <ele>700.10</ele>
        <time>2013-07-27T11:20:44Z</time>
      </trkpt>
      <trkpt lat="42.334120000" lon="-2.327629000">
        <ele>699.10</ele>
        <time>2013-07-27T11:20:45Z</time>
      </trkpt>
      <trkpt lat="42.334127000" lon="-2.327591000">
        <ele>698.30</ele>
        <time>2013-07-27T11:20:46Z</time>
      </trkpt>
      <trkpt lat="42.334131000" lon="-2.327551000">
        <ele>697.50</ele>
        <time>2013-07-27T11:20:47Z</time>
      </trkpt>
      <trkpt lat="42.334137000" lon="-2.327513000">
        <ele>696.90</ele>
        <time>2013-07-27T11:20:48Z</time>
      </trkpt>
      <trkpt lat="42.334142000" lon="-2.327482000">
        <ele>696.10</ele>
        <time>2013-07-27T11:20:49Z</time>
      </trkpt>
      <trkpt lat="42.334149000" lon="-2.327453000">
        <ele>695.50</ele>
        <time>2013-07-27T11:20:50Z</time>
      </trkpt>
      <trkpt lat="42.334155000" lon="-2.327432000">
        <ele>694.80</ele>
        <time>2013-07-27T11:20:51Z</time>
      </trkpt>
      <trkpt lat="42.334162000" lon="-2.327403000">
        <ele>694.30</ele>
        <time>2013-07-27T11:20:52Z</time>
      </trkpt>
      <trkpt lat="42.334173000" lon="-2.327370000">
        <ele>693.70</ele>
        <time>2013-07-27T11:20:53Z</time>
      </trkpt>
      <trkpt lat="42.334184000" lon="-2.327337000">
        <ele>693.30</ele>
        <time>2013-07-27T11:20:54Z</time>
      </trkpt>
      <trkpt lat="42.334205000" lon="-2.327295000">
        <ele>692.90</ele>
        <time>2013-07-27T11:20:55Z</time>
      </trkpt>
      <trkpt lat="42.334224000" lon="-2.327249000">
        <ele>692.70</ele>
        <time>2013-07-27T11:20:56Z</time>
      </trkpt>
      <trkpt lat="42.334242000" lon="-2.327198000">
        <ele>691.30</ele>
        <time>2013-07-27T11:20:57Z</time>
      </trkpt>
      <trkpt lat="42.334259000" lon="-2.327142000">
        <ele>690.20</ele>
        <time>2013-07-27T11:20:58Z</time>
      </trkpt>
      <trkpt lat="42.334274000" lon="-2.327091000">
        <ele>689.10</ele>
        <time>2013-07-27T11:20:59Z</time>
      </trkpt>
      <trkpt lat="42.334284000" lon="-2.327040000">
        <ele>688.30</ele>
        <time>2013-07-27T11:21:00Z</time>
      </trkpt>
      <trkpt lat="42.334289000" lon="-2.326992000">
        <ele>687.70</ele>
        <time>2013-07-27T11:21:01Z</time>
      </trkpt>
      <trkpt lat="42.334293000" lon="-2.326946000">
        <ele>687.30</ele>
        <time>2013-07-27T11:21:02Z</time>
      </trkpt>
      <trkpt lat="42.334292000" lon="-2.326901000">
        <ele>686.30</ele>
        <time>2013-07-27T11:21:03Z</time>
      </trkpt>
      <trkpt lat="42.334289000" lon="-2.326858000">
        <ele>685.60</ele>
        <time>2013-07-27T11:21:04Z</time>
      </trkpt>
      <trkpt lat="42.334292000" lon="-2.326817000">
        <ele>684.90</ele>
        <time>2013-07-27T11:21:05Z</time>
      </trkpt>
      <trkpt lat="42.334299000" lon="-2.326774000">
        <ele>684.30</ele>
        <time>2013-07-27T11:21:06Z</time>
      </trkpt>
      <trkpt lat="42.334307000" lon="-2.326731000">
        <ele>683.60</ele>
        <time>2013-07-27T11:21:07Z</time>
      </trkpt>
      <trkpt lat="42.334316000" lon="-2.326685000">
        <ele>683.10</ele>
        <time>2013-07-27T11:21:08Z</time>
      </trkpt>
      <trkpt lat="42.334321000" lon="-2.326639000">
        <ele>682.00</ele>
        <time>2013-07-27T11:21:09Z</time>
      </trkpt>
      <trkpt lat="42.334323000" lon="-2.326592000">
        <ele>681.10</ele>
        <time>2013-07-27T11:21:10Z</time>
      </trkpt>
      <trkpt lat="42.334325000" lon="-2.326539000">
        <ele>680.50</ele>
        <time>2013-07-27T11:21:11Z</time>
      </trkpt>
      <trkpt lat="42.334323000" lon="-2.326487000">
        <ele>680.00</ele>
        <time>2013-07-27T11:21:12Z</time>
      </trkpt>
      <trkpt lat="42.334320000" lon="-2.326426000">
        <ele>679.50</ele>
        <time>2013-07-27T11:21:13Z</time>
      </trkpt>
      <trkpt lat="42.334317000" lon="-2.326364000">
        <ele>679.20</ele>
        <time>2013-07-27T11:21:14Z</time>
      </trkpt>
      <trkpt lat="42.334316000" lon="-2.326302000">
        <ele>678.50</ele>
        <time>2013-07-27T11:21:15Z</time>
      </trkpt>
      <trkpt lat="42.334313000" lon="-2.326238000">
        <ele>678.00</ele>
        <time>2013-07-27T11:21:16Z</time>
      </trkpt>
      <trkpt lat="42.334308000" lon="-2.326177000">
        <ele>677.00</ele>
        <time>2013-07-27T11:21:17Z</time>
      </trkpt>
      <trkpt lat="42.334301000" lon="-2.326113000">
        <ele>676.20</ele>
        <time>2013-07-27T11:21:18Z</time>
      </trkpt>
      <trkpt lat="42.334296000" lon="-2.326054000">
        <ele>674.60</ele>
        <time>2013-07-27T11:21:19Z</time>
      </trkpt>
      <trkpt lat="42.334293000" lon="-2.325993000">
        <ele>673.40</ele>
        <time>2013-07-27T11:21:20Z</time>
      </trkpt>
      <trkpt lat="42.334287000" lon="-2.325940000">
        <ele>672.40</ele>
        <time>2013-07-27T11:21:21Z</time>
      </trkpt>
      <trkpt lat="42.334279000" lon="-2.325890000">
        <ele>671.60</ele>
        <time>2013-07-27T11:21:22Z</time>
      </trkpt>
      <trkpt lat="42.334268000" lon="-2.325833000">
        <ele>671.00</ele>
        <time>2013-07-27T11:21:23Z</time>
      </trkpt>
      <trkpt lat="42.334257000" lon="-2.325770000">
        <ele>670.60</ele>
        <time>2013-07-27T11:21:24Z</time>
      </trkpt>
      <trkpt lat="42.334247000" lon="-2.325706000">
        <ele>670.00</ele>
        <time>2013-07-27T11:21:25Z</time>
      </trkpt>
      <trkpt lat="42.334235000" lon="-2.325644000">
        <ele>669.50</ele>
        <time>2013-07-27T11:21:26Z</time>
      </trkpt>
      <trkpt lat="42.334225000" lon="-2.325574000">
        <ele>668.70</ele>
        <time>2013-07-27T11:21:27Z</time>
      </trkpt>
      <trkpt lat="42.334215000" lon="-2.325501000">
        <ele>668.00</ele>
        <time>2013-07-27T11:21:28Z</time>
      </trkpt>
      <trkpt lat="42.334208000" lon="-2.325424000">
        <ele>667.30</ele>
        <time>2013-07-27T11:21:29Z</time>
      </trkpt>
      <trkpt lat="42.334205000" lon="-2.325355000">
        <ele>666.80</ele>
        <time>2013-07-27T11:21:30Z</time>
      </trkpt>
      <trkpt lat="42.334201000" lon="-2.325285000">
        <ele>665.30</ele>
        <time>2013-07-27T11:21:31Z</time>
      </trkpt>
      <trkpt lat="42.334199000" lon="-2.325221000">
        <ele>664.20</ele>
        <time>2013-07-27T11:21:32Z</time>
      </trkpt>
      <trkpt lat="42.334188000" lon="-2.325176000">
        <ele>663.00</ele>
        <time>2013-07-27T11:21:33Z</time>
      </trkpt>
      <trkpt lat="42.334177000" lon="-2.325139000">
        <ele>662.20</ele>
        <time>2013-07-27T11:21:34Z</time>
      </trkpt>
      <trkpt lat="42.334166000" lon="-2.325111000">
        <ele>661.60</ele>
        <time>2013-07-27T11:21:35Z</time>
      </trkpt>
      <trkpt lat="42.334156000" lon="-2.325079000">
        <ele>661.10</ele>
        <time>2013-07-27T11:21:36Z</time>
      </trkpt>
      <trkpt lat="42.334143000" lon="-2.325038000">
        <ele>660.40</ele>
        <time>2013-07-27T11:21:37Z</time>
      </trkpt>
      <trkpt lat="42.334136000" lon="-2.324994000">
        <ele>659.80</ele>
        <time>2013-07-27T11:21:38Z</time>
      </trkpt>
      <trkpt lat="42.334129000" lon="-2.324948000">
        <ele>659.40</ele>
        <time>2013-07-27T11:21:39Z</time>
      </trkpt>
      <trkpt lat="42.334119000" lon="-2.324898000">
        <ele>659.10</ele>
        <time>2013-07-27T11:21:40Z</time>
      </trkpt>
      <trkpt lat="42.334111000" lon="-2.324851000">
        <ele>658.60</ele>
        <time>2013-07-27T11:21:41Z</time>
      </trkpt>
      <trkpt lat="42.334102000" lon="-2.324801000">
        <ele>658.20</ele>
        <time>2013-07-27T11:21:42Z</time>
      </trkpt>
      <trkpt lat="42.334093000" lon="-2.324749000">
        <ele>657.90</ele>
        <time>2013-07-27T11:21:43Z</time>
      </trkpt>
      <trkpt lat="42.334083000" lon="-2.324698000">
        <ele>657.60</ele>
        <time>2013-07-27T11:21:44Z</time>
      </trkpt>
      <trkpt lat="42.334069000" lon="-2.324651000">
        <ele>656.70</ele>
        <time>2013-07-27T11:21:45Z</time>
      </trkpt>
      <trkpt lat="42.334056000" lon="-2.324608000">
        <ele>656.10</ele>
        <time>2013-07-27T11:21:46Z</time>
      </trkpt>
      <trkpt lat="42.334046000" lon="-2.324570000">
        <ele>654.60</ele>
        <time>2013-07-27T11:21:47Z</time>
      </trkpt>
      <trkpt lat="42.334036000" lon="-2.324523000">
        <ele>653.50</ele>
        <time>2013-07-27T11:21:48Z</time>
      </trkpt>
      <trkpt lat="42.334032000" lon="-2.324467000">
        <ele>652.70</ele>
        <time>2013-07-27T11:21:49Z</time>
      </trkpt>
      <trkpt lat="42.334023000" lon="-2.324404000">
        <ele>652.00</ele>
        <time>2013-07-27T11:21:50Z</time>
      </trkpt>
      <trkpt lat="42.334013000" lon="-2.324337000">
        <ele>651.40</ele>
        <time>2013-07-27T11:21:51Z</time>
      </trkpt>
      <trkpt lat="42.334007000" lon="-2.324270000">
        <ele>651.00</ele>
        <time>2013-07-27T11:21:52Z</time>
      </trkpt>
      <trkpt lat="42.334001000" lon="-2.324202000">
        <ele>650.50</ele>
        <time>2013-07-27T11:21:53Z</time>
      </trkpt>
      <trkpt lat="42.333992000" lon="-2.324135000">
        <ele>650.10</ele>
        <time>2013-07-27T11:21:54Z</time>
      </trkpt>
      <trkpt lat="42.333976000" lon="-2.324064000">
        <ele>648.40</ele>
        <time>2013-07-27T11:21:55Z</time>
      </trkpt>
      <trkpt lat="42.333954000" lon="-2.323994000">
        <ele>647.20</ele>
        <time>2013-07-27T11:21:56Z</time>
      </trkpt>
      <trkpt lat="42.333931000" lon="-2.323925000">
        <ele>645.70</ele>
        <time>2013-07-27T11:21:57Z</time>
      </trkpt>
      <trkpt lat="42.333921000" lon="-2.323846000">
        <ele>644.60</ele>
        <time>2013-07-27T11:21:58Z</time>
      </trkpt>
      <trkpt lat="42.333926000" lon="-2.323767000">
        <ele>643.40</ele>
        <time>2013-07-27T11:21:59Z</time>
      </trkpt>
      <trkpt lat="42.333935000" lon="-2.323687000">
        <ele>642.50</ele>
        <time>2013-07-27T11:22:00Z</time>
      </trkpt>
      <trkpt lat="42.333944000" lon="-2.323613000">
        <ele>641.90</ele>
        <time>2013-07-27T11:22:01Z</time>
      </trkpt>
      <trkpt lat="42.333949000" lon="-2.323539000">
        <ele>641.40</ele>
        <time>2013-07-27T11:22:02Z</time>
      </trkpt>
      <trkpt lat="42.333951000" lon="-2.323461000">
        <ele>640.40</ele>
        <time>2013-07-27T11:22:03Z</time>
      </trkpt>
      <trkpt lat="42.333949000" lon="-2.323387000">
        <ele>639.70</ele>
        <time>2013-07-27T11:22:04Z</time>
      </trkpt>
      <trkpt lat="42.333944000" lon="-2.323331000">
        <ele>638.20</ele>
        <time>2013-07-27T11:22:05Z</time>
      </trkpt>
      <trkpt lat="42.333940000" lon="-2.323284000">
        <ele>637.10</ele>
        <time>2013-07-27T11:22:06Z</time>
      </trkpt>
      <trkpt lat="42.333930000" lon="-2.323240000">
        <ele>636.10</ele>
        <time>2013-07-27T11:22:07Z</time>
      </trkpt>
      <trkpt lat="42.333914000" lon="-2.323200000">
        <ele>635.30</ele>
        <time>2013-07-27T11:22:08Z</time>
      </trkpt>
      <trkpt lat="42.333891000" lon="-2.323177000">
        <ele>634.50</ele>
        <time>2013-07-27T11:22:09Z</time>
      </trkpt>
      <trkpt lat="42.333864000" lon="-2.323178000">
        <ele>633.90</ele>
        <time>2013-07-27T11:22:10Z</time>
      </trkpt>
      <trkpt lat="42.333844000" lon="-2.323197000">
        <ele>633.50</ele>
        <time>2013-07-27T11:22:11Z</time>
      </trkpt>
      <trkpt lat="42.333841000" lon="-2.323228000">
        <ele>633.10</ele>
        <time>2013-07-27T11:22:12Z</time>
      </trkpt>
      <trkpt lat="42.333839000" lon="-2.323250000">
        <ele>632.80</ele>
        <time>2013-07-27T11:22:13Z</time>
      </trkpt>
      <trkpt lat="42.333839000" lon="-2.323257000">
        <ele>632.50</ele>
        <time>2013-07-27T11:22:14Z</time>
      </trkpt>
      <trkpt lat="42.333838000" lon="-2.323257000">
        <ele>632.40</ele>
        <time>2013-07-27T11:22:15Z</time>
      </trkpt>
      <trkpt lat="42.333839000" lon="-2.323259000">
        <ele>632.20</ele>
        <time>2013-07-27T11:22:16Z</time>
      </trkpt>
      <trkpt lat="42.333840000" lon="-2.323263000">
        <ele>632.10</ele>
        <time>2013-07-27T11:22:17Z</time>
      </trkpt>
      <trkpt lat="42.333839000" lon="-2.323267000">
        <ele>632.00</ele>
        <time>2013-07-27T11:22:18Z</time>
      </trkpt>
      <trkpt lat="42.333838000" lon="-2.323268000">
        <ele>632.00</ele>
        <time>2013-07-27T11:22:19Z</time>
      </trkpt>
      <trkpt lat="42.333839000" lon="-2.323274000">
        <ele>631.90</ele>
        <time>2013-07-27T11:22:20Z</time>
      </trkpt>
      <trkpt lat="42.333841000" lon="-2.323276000">
        <ele>631.90</ele>
        <time>2013-07-27T11:22:21Z</time>
      </trkpt>
      <trkpt lat="42.333842000" lon="-2.323278000">
        <ele>631.90</ele>
        <time>2013-07-27T11:22:22Z</time>
      </trkpt>
      <trkpt lat="42.333844000" lon="-2.323282000">
        <ele>631.90</ele>
        <time>2013-07-27T11:22:23Z</time>
      </trkpt>
      <trkpt lat="42.333843000" lon="-2.323282000">
        <ele>631.90</ele>
        <time>2013-07-27T11:22:24Z</time>
      </trkpt>
      <trkpt lat="42.333844000" lon="-2.323283000">
        <ele>632.00</ele>
        <time>2013-07-27T11:22:25Z</time>
      </trkpt>
      <trkpt lat="42.333845000" lon="-2.323284000">
        <ele>631.90</ele>
        <time>2013-07-27T11:22:26Z</time>
      </trkpt>
      <trkpt lat="42.333845000" lon="-2.323285000">
        <ele>631.90</ele>
        <time>2013-07-27T11:22:27Z</time>
      </trkpt>
      <trkpt lat="42.333844000" lon="-2.323285000">
        <ele>631.80</ele>
        <time>2013-07-27T11:22:28Z</time>
      </trkpt>
      <trkpt lat="42.333845000" lon="-2.323287000">
        <ele>631.70</ele>
        <time>2013-07-27T11:22:29Z</time>
      </trkpt>
      <trkpt lat="42.333845000" lon="-2.323287000">
        <ele>631.70</ele>
        <time>2013-07-27T11:22:30Z</time>
      </trkpt>
      <trkpt lat="42.333846000" lon="-2.323287000">
        <ele>631.70</ele>
        <time>2013-07-27T11:22:31Z</time>
      </trkpt>
      <trkpt lat="42.333845000" lon="-2.323286000">
        <ele>631.60</ele>
        <time>2013-07-27T11:22:32Z</time>
      </trkpt>
      <trkpt lat="42.333846000" lon="-2.323287000">
        <ele>631.60</ele>
        <time>2013-07-27T11:22:33Z</time>
      </trkpt>
      <trkpt lat="42.333846000" lon="-2.323288000">
        <ele>631.60</ele>
        <time>2013-07-27T11:22:34Z</time>
      </trkpt>
      <trkpt lat="42.333846000" lon="-2.323289000">
        <ele>631.60</ele>
        <time>2013-07-27T11:22:35Z</time>
      </trkpt>
      <trkpt lat="42.333847000" lon="-2.323290000">
        <ele>631.60</ele>
        <time>2013-07-27T11:22:36Z</time>
      </trkpt>
      <trkpt lat="42.333847000" lon="-2.323290000">
        <ele>631.60</ele>
        <time>2013-07-27T11:22:37Z</time>
      </trkpt>
      <trkpt lat="42.333845000" lon="-2.323289000">
        <ele>631.60</ele>
        <time>2013-07-27T11:22:38Z</time>
      </trkpt>
      <trkpt lat="42.333845000" lon="-2.323290000">
        <ele>631.60</ele>
        <time>2013-07-27T11:22:39Z</time>
      </trkpt>
      <trkpt lat="42.333844000" lon="-2.323290000">
        <ele>631.50</ele>
        <time>2013-07-27T11:22:40Z</time>
      </trkpt>
      <trkpt lat="42.333844000" lon="-2.323291000">
        <ele>631.40</ele>
        <time>2013-07-27T11:22:41Z</time>
      </trkpt>
      <trkpt lat="42.333843000" lon="-2.323291000">
        <ele>631.40</ele>
        <time>2013-07-27T11:22:42Z</time>
      </trkpt>
      <trkpt lat="42.333842000" lon="-2.323291000">
        <ele>631.40</ele>
        <time>2013-07-27T11:22:43Z</time>
      </trkpt>
      <trkpt lat="42.333842000" lon="-2.323291000">
        <ele>631.40</ele>
        <time>2013-07-27T11:22:44Z</time>
      </trkpt>
      <trkpt lat="42.333841000" lon="-2.323290000">
        <ele>631.30</ele>
        <time>2013-07-27T11:22:45Z</time>
      </trkpt>
      <trkpt lat="42.333842000" lon="-2.323288000">
        <ele>631.30</ele>
        <time>2013-07-27T11:22:46Z</time>
      </trkpt>
      <trkpt lat="42.333841000" lon="-2.323287000">
        <ele>631.40</ele>
        <time>2013-07-27T11:22:47Z</time>
      </trkpt>
      <trkpt lat="42.333841000" lon="-2.323286000">
        <ele>631.50</ele>
        <time>2013-07-27T11:22:48Z</time>
      </trkpt>
      <trkpt lat="42.333841000" lon="-2.323285000">
        <ele>631.50</ele>
        <time>2013-07-27T11:22:49Z</time>
      </trkpt>
      <trkpt lat="42.333842000" lon="-2.323284000">
        <ele>631.60</ele>
        <time>2013-07-27T11:22:50Z</time>
      </trkpt>
      <trkpt lat="42.333841000" lon="-2.323285000">
        <ele>631.60</ele>
        <time>2013-07-27T11:22:51Z</time>
      </trkpt>
      <trkpt lat="42.333841000" lon="-2.323284000">
        <ele>631.60</ele>
        <time>2013-07-27T11:22:52Z</time>
      </trkpt>
      <trkpt lat="42.333840000" lon="-2.323284000">
        <ele>631.50</ele>
        <time>2013-07-27T11:22:53Z</time>
      </trkpt>
      <trkpt lat="42.333839000" lon="-2.323285000">
        <ele>631.50</ele>
        <time>2013-07-27T11:22:54Z</time>
      </trkpt>
      <trkpt lat="42.333839000" lon="-2.323284000">
        <ele>631.40</ele>
        <time>2013-07-27T11:22:55Z</time>
      </trkpt>
      <trkpt lat="42.333837000" lon="-2.323284000">
        <ele>630.20</ele>
        <time>2013-07-27T11:22:56Z</time>
      </trkpt>
      <trkpt lat="42.333837000" lon="-2.323284000">
        <ele>629.40</ele>
        <time>2013-07-27T11:22:57Z</time>
      </trkpt>
      <trkpt lat="42.333837000" lon="-2.323284000">
        <ele>628.80</ele>
        <time>2013-07-27T11:22:58Z</time>
      </trkpt>
      <trkpt lat="42.333838000" lon="-2.323284000">
        <ele>628.30</ele>
        <time>2013-07-27T11:22:59Z</time>
      </trkpt>
      <trkpt lat="42.333837000" lon="-2.323283000">
        <ele>629.90</ele>
        <time>2013-07-27T11:23:00Z</time>
      </trkpt>
      <trkpt lat="42.333837000" lon="-2.323282000">
        <ele>631.10</ele>
        <time>2013-07-27T11:23:01Z</time>
      </trkpt>
      <trkpt lat="42.333837000" lon="-2.323282000">
        <ele>632.10</ele>
        <time>2013-07-27T11:23:02Z</time>
      </trkpt>
      <trkpt lat="42.333838000" lon="-2.323282000">
        <ele>632.80</ele>
        <time>2013-07-27T11:23:03Z</time>
      </trkpt>
      <trkpt lat="42.333837000" lon="-2.323282000">
        <ele>632.80</ele>
        <time>2013-07-27T11:23:04Z</time>
      </trkpt>
      <trkpt lat="42.333837000" lon="-2.323282000">
        <ele>632.80</ele>
        <time>2013-07-27T11:23:05Z</time>
      </trkpt>
      <trkpt lat="42.333836000" lon="-2.323281000">
        <ele>632.70</ele>
        <time>2013-07-27T11:23:06Z</time>
      </trkpt>
      <trkpt lat="42.333835000" lon="-2.323280000">
        <ele>632.50</ele>
        <time>2013-07-27T11:23:07Z</time>
      </trkpt>
      <trkpt lat="42.333833000" lon="-2.323279000">
        <ele>632.40</ele>
        <time>2013-07-27T11:23:08Z</time>
      </trkpt>
      <trkpt lat="42.333832000" lon="-2.323279000">
        <ele>632.40</ele>
        <time>2013-07-27T11:23:09Z</time>
      </trkpt>
      <trkpt lat="42.333832000" lon="-2.323280000">
        <ele>632.30</ele>
        <time>2013-07-27T11:23:10Z</time>
      </trkpt>
      <trkpt lat="42.333831000" lon="-2.323280000">
        <ele>632.30</ele>
        <time>2013-07-27T11:23:11Z</time>
      </trkpt>
      <trkpt lat="42.333831000" lon="-2.323279000">
        <ele>632.20</ele>
        <time>2013-07-27T11:23:12Z</time>
      </trkpt>
      <trkpt lat="42.333831000" lon="-2.323278000">
        <ele>632.20</ele>
        <time>2013-07-27T11:23:13Z</time>
      </trkpt>
      <trkpt lat="42.333831000" lon="-2.323276000">
        <ele>632.20</ele>
        <time>2013-07-27T11:23:14Z</time>
      </trkpt>
      <trkpt lat="42.333832000" lon="-2.323275000">
        <ele>632.10</ele>
        <time>2013-07-27T11:23:15Z</time>
      </trkpt>
      <trkpt lat="42.333831000" lon="-2.323273000">
        <ele>631.90</ele>
        <time>2013-07-27T11:23:16Z</time>
      </trkpt>
      <trkpt lat="42.333830000" lon="-2.323273000">
        <ele>631.80</ele>
        <time>2013-07-27T11:23:17Z</time>
      </trkpt>
      <trkpt lat="42.333830000" lon="-2.323273000">
        <ele>631.60</ele>
        <time>2013-07-27T11:23:18Z</time>
      </trkpt>
      <trkpt lat="42.333830000" lon="-2.323273000">
        <ele>631.50</ele>
        <time>2013-07-27T11:23:19Z</time>
      </trkpt>
      <trkpt lat="42.333830000" lon="-2.323273000">
        <ele>631.50</ele>
        <time>2013-07-27T11:23:20Z</time>
      </trkpt>
      <trkpt lat="42.333830000" lon="-2.323273000">
        <ele>631.40</ele>
        <time>2013-07-27T11:23:21Z</time>
      </trkpt>
      <trkpt lat="42.333831000" lon="-2.323274000">
        <ele>631.40</ele>
        <time>2013-07-27T11:23:22Z</time>
      </trkpt>
      <trkpt lat="42.333831000" lon="-2.323278000">
        <ele>631.40</ele>
        <time>2013-07-27T11:23:23Z</time>
      </trkpt>
      <trkpt lat="42.333827000" lon="-2.323286000">
        <ele>631.40</ele>
        <time>2013-07-27T11:23:24Z</time>
      </trkpt>
      <trkpt lat="42.333822000" lon="-2.323291000">
        <ele>631.40</ele>
        <time>2013-07-27T11:23:25Z</time>
      </trkpt>
      <trkpt lat="42.333819000" lon="-2.323288000">
        <ele>631.40</ele>
        <time>2013-07-27T11:23:26Z</time>
      </trkpt>
      <trkpt lat="42.333818000" lon="-2.323281000">
        <ele>631.40</ele>
        <time>2013-07-27T11:23:27Z</time>
      </trkpt>
      <trkpt lat="42.333818000" lon="-2.323274000">
        <ele>631.30</ele>
        <time>2013-07-27T11:23:28Z</time>
      </trkpt>
      <trkpt lat="42.333817000" lon="-2.323270000">
        <ele>631.20</ele>
        <time>2013-07-27T11:23:29Z</time>
      </trkpt>
      <trkpt lat="42.333818000" lon="-2.323269000">
        <ele>631.10</ele>
        <time>2013-07-27T11:23:30Z</time>
      </trkpt>
      <trkpt lat="42.333820000" lon="-2.323268000">
        <ele>631.00</ele>
        <time>2013-07-27T11:23:31Z</time>
      </trkpt>
      <trkpt lat="42.333820000" lon="-2.323266000">
        <ele>630.90</ele>
        <time>2013-07-27T11:23:32Z</time>
      </trkpt>
      <trkpt lat="42.333821000" lon="-2.323266000">
        <ele>630.80</ele>
        <time>2013-07-27T11:23:33Z</time>
      </trkpt>
      <trkpt lat="42.333820000" lon="-2.323264000">
        <ele>630.70</ele>
        <time>2013-07-27T11:23:34Z</time>
      </trkpt>
      <trkpt lat="42.333820000" lon="-2.323264000">
        <ele>630.60</ele>
        <time>2013-07-27T11:23:35Z</time>
      </trkpt>
      <trkpt lat="42.333820000" lon="-2.323263000">
        <ele>630.60</ele>
        <time>2013-07-27T11:23:36Z</time>
      </trkpt>
      <trkpt lat="42.333819000" lon="-2.323261000">
        <ele>630.70</ele>
        <time>2013-07-27T11:23:37Z</time>
      </trkpt>
      <trkpt lat="42.333818000" lon="-2.323260000">
        <ele>630.80</ele>
        <time>2013-07-27T11:23:38Z</time>
      </trkpt>
      <trkpt lat="42.333818000" lon="-2.323259000">
        <ele>630.80</ele>
        <time>2013-07-27T11:23:39Z</time>
      </trkpt>
      <trkpt lat="42.333819000" lon="-2.323259000">
        <ele>630.90</ele>
        <time>2013-07-27T11:23:40Z</time>
      </trkpt>
      <trkpt lat="42.333819000" lon="-2.323257000">
        <ele>630.80</ele>
        <time>2013-07-27T11:23:41Z</time>
      </trkpt>
      <trkpt lat="42.333820000" lon="-2.323255000">
        <ele>630.80</ele>
        <time>2013-07-27T11:23:42Z</time>
      </trkpt>
      <trkpt lat="42.333824000" lon="-2.323257000">
        <ele>630.80</ele>
        <time>2013-07-27T11:23:43Z</time>
      </trkpt>
      <trkpt lat="42.333825000" lon="-2.323257000">
        <ele>630.80</ele>
        <time>2013-07-27T11:23:44Z</time>
      </trkpt>
      <trkpt lat="42.333824000" lon="-2.323255000">
        <ele>630.80</ele>
        <time>2013-07-27T11:23:45Z</time>
      </trkpt>
      <trkpt lat="42.333823000" lon="-2.323255000">
        <ele>630.80</ele>
        <time>2013-07-27T11:23:46Z</time>
      </trkpt>
      <trkpt lat="42.333824000" lon="-2.323254000">
        <ele>630.80</ele>
        <time>2013-07-27T11:23:47Z</time>
      </trkpt>
      <trkpt lat="42.333825000" lon="-2.323254000">
        <ele>630.90</ele>
        <time>2013-07-27T11:23:48Z</time>
      </trkpt>
      <trkpt lat="42.333826000" lon="-2.323255000">
        <ele>630.90</ele>
        <time>2013-07-27T11:23:49Z</time>
      </trkpt>
      <trkpt lat="42.333827000" lon="-2.323255000">
        <ele>630.90</ele>
        <time>2013-07-27T11:23:50Z</time>
      </trkpt>
      <trkpt lat="42.333829000" lon="-2.323256000">
        <ele>631.00</ele>
        <time>2013-07-27T11:23:51Z</time>
      </trkpt>
      <trkpt lat="42.333830000" lon="-2.323256000">
        <ele>631.00</ele>
        <time>2013-07-27T11:23:52Z</time>
      </trkpt>
      <trkpt lat="42.333830000" lon="-2.323257000">
        <ele>631.10</ele>
        <time>2013-07-27T11:23:53Z</time>
      </trkpt>
      <trkpt lat="42.333831000" lon="-2.323256000">
        <ele>631.10</ele>
        <time>2013-07-27T11:23:54Z</time>
      </trkpt>
      <trkpt lat="42.333832000" lon="-2.323257000">
        <ele>631.10</ele>
        <time>2013-07-27T11:23:55Z</time>
      </trkpt>
      <trkpt lat="42.333833000" lon="-2.323258000">
        <ele>631.00</ele>
        <time>2013-07-27T11:23:56Z</time>
      </trkpt>
      <trkpt lat="42.333833000" lon="-2.323258000">
        <ele>630.90</ele>
        <time>2013-07-27T11:23:57Z</time>
      </trkpt>
      <trkpt lat="42.333834000" lon="-2.323259000">
        <ele>630.90</ele>
        <time>2013-07-27T11:23:58Z</time>
      </trkpt>
      <trkpt lat="42.333834000" lon="-2.323259000">
        <ele>630.90</ele>
        <time>2013-07-27T11:23:59Z</time>
      </trkpt>
      <trkpt lat="42.333834000" lon="-2.323259000">
        <ele>630.90</ele>
        <time>2013-07-27T11:24:00Z</time>
      </trkpt>
      <trkpt lat="42.333833000" lon="-2.323259000">
        <ele>630.80</ele>
        <time>2013-07-27T11:24:01Z</time>
      </trkpt>
      <trkpt lat="42.333833000" lon="-2.323257000">
        <ele>630.80</ele>
        <time>2013-07-27T11:24:02Z</time>
      </trkpt>
      <trkpt lat="42.333833000" lon="-2.323256000">
        <ele>630.90</ele>
        <time>2013-07-27T11:24:03Z</time>
      </trkpt>
      <trkpt lat="42.333833000" lon="-2.323255000">
        <ele>631.00</ele>
        <time>2013-07-27T11:24:04Z</time>
      </trkpt>
      <trkpt lat="42.333833000" lon="-2.323253000">
        <ele>630.90</ele>
        <time>2013-07-27T11:24:05Z</time>
      </trkpt>
      <trkpt lat="42.333834000" lon="-2.323251000">
        <ele>630.90</ele>
        <time>2013-07-27T11:24:06Z</time>
      </trkpt>
      <trkpt lat="42.333834000" lon="-2.323249000">
        <ele>630.90</ele>
        <time>2013-07-27T11:24:07Z</time>
      </trkpt>
      <trkpt lat="42.333835000" lon="-2.323248000">
        <ele>630.90</ele>
        <time>2013-07-27T11:24:08Z</time>
      </trkpt>
      <trkpt lat="42.333835000" lon="-2.323246000">
        <ele>630.90</ele>
        <time>2013-07-27T11:24:09Z</time>
      </trkpt>
      <trkpt lat="42.333835000" lon="-2.323245000">
        <ele>630.90</ele>
        <time>2013-07-27T11:24:10Z</time>
      </trkpt>
      <trkpt lat="42.333835000" lon="-2.323244000">
        <ele>630.90</ele>
        <time>2013-07-27T11:24:11Z</time>
      </trkpt>
      <trkpt lat="42.333835000" lon="-2.323243000">
        <ele>630.80</ele>
        <time>2013-07-27T11:24:12Z</time>
      </trkpt>
      <trkpt lat="42.333836000" lon="-2.323242000">
        <ele>630.80</ele>
        <time>2013-07-27T11:24:13Z</time>
      </trkpt>
      <trkpt lat="42.333837000" lon="-2.323242000">
        <ele>630.90</ele>
        <time>2013-07-27T11:24:14Z</time>
      </trkpt>
      <trkpt lat="42.333837000" lon="-2.323242000">
        <ele>630.80</ele>
        <time>2013-07-27T11:24:15Z</time>
      </trkpt>
      <trkpt lat="42.333837000" lon="-2.323242000">
        <ele>630.80</ele>
        <time>2013-07-27T11:24:16Z</time>
      </trkpt>
      <trkpt lat="42.333838000" lon="-2.323242000">
        <ele>630.80</ele>
        <time>2013-07-27T11:24:17Z</time>
      </trkpt>
      <trkpt lat="42.333839000" lon="-2.323242000">
        <ele>630.90</ele>
        <time>2013-07-27T11:24:18Z</time>
      </trkpt>
      <trkpt lat="42.333838000" lon="-2.323241000">
        <ele>630.90</ele>
        <time>2013-07-27T11:24:19Z</time>
      </trkpt>
      <trkpt lat="42.333838000" lon="-2.323241000">
        <ele>631.00</ele>
        <time>2013-07-27T11:24:20Z</time>
      </trkpt>
      <trkpt lat="42.333838000" lon="-2.323241000">
        <ele>631.10</ele>
        <time>2013-07-27T11:24:21Z</time>
      </trkpt>
      <trkpt lat="42.333839000" lon="-2.323241000">
        <ele>631.10</ele>
        <time>2013-07-27T11:24:22Z</time>
      </trkpt>
      <trkpt lat="42.333840000" lon="-2.323241000">
        <ele>631.10</ele>
        <time>2013-07-27T11:24:23Z</time>
      </trkpt>
      <trkpt lat="42.333840000" lon="-2.323240000">
        <ele>631.10</ele>
        <time>2013-07-27T11:24:24Z</time>
      </trkpt>
      <trkpt lat="42.333841000" lon="-2.323240000">
        <ele>631.10</ele>
        <time>2013-07-27T11:24:25Z</time>
      </trkpt>
      <trkpt lat="42.333842000" lon="-2.323240000">
        <ele>631.20</ele>
        <time>2013-07-27T11:24:26Z</time>
      </trkpt>
      <trkpt lat="42.333842000" lon="-2.323239000">
        <ele>631.20</ele>
        <time>2013-07-27T11:24:27Z</time>
      </trkpt>
      <trkpt lat="42.333840000" lon="-2.323236000">
        <ele>631.10</ele>
        <time>2013-07-27T11:24:28Z</time>
      </trkpt>
      <trkpt lat="42.333840000" lon="-2.323226000">
        <ele>631.10</ele>
        <time>2013-07-27T11:24:29Z</time>
      </trkpt>
      <trkpt lat="42.333839000" lon="-2.323216000">
        <ele>631.10</ele>
        <time>2013-07-27T11:24:30Z</time>
      </trkpt>
      <trkpt lat="42.333840000" lon="-2.323208000">
        <ele>631.10</ele>
        <time>2013-07-27T11:24:31Z</time>
      </trkpt>
      <trkpt lat="42.333840000" lon="-2.323203000">
        <ele>631.00</ele>
        <time>2013-07-27T11:24:32Z</time>
      </trkpt>
      <trkpt lat="42.333845000" lon="-2.323182000">
        <ele>631.00</ele>
        <time>2013-07-27T11:24:33Z</time>
      </trkpt>
      <trkpt lat="42.333845000" lon="-2.323157000">
        <ele>631.00</ele>
        <time>2013-07-27T11:24:34Z</time>
      </trkpt>
      <trkpt lat="42.333846000" lon="-2.323130000">
        <ele>631.00</ele>
        <time>2013-07-27T11:24:35Z</time>
      </trkpt>
      <trkpt lat="42.333834000" lon="-2.323103000">
        <ele>630.90</ele>
        <time>2013-07-27T11:24:36Z</time>
      </trkpt>
      <trkpt lat="42.333816000" lon="-2.323082000">
        <ele>630.80</ele>
        <time>2013-07-27T11:24:37Z</time>
      </trkpt>
      <trkpt lat="42.333795000" lon="-2.323071000">
        <ele>630.70</ele>
        <time>2013-07-27T11:24:38Z</time>
      </trkpt>
      <trkpt lat="42.333774000" lon="-2.323064000">
        <ele>630.60</ele>
        <time>2013-07-27T11:24:39Z</time>
      </trkpt>
      <trkpt lat="42.333754000" lon="-2.323048000">
        <ele>630.50</ele>
        <time>2013-07-27T11:24:40Z</time>
      </trkpt>
      <trkpt lat="42.333732000" lon="-2.323032000">
        <ele>630.50</ele>
        <time>2013-07-27T11:24:41Z</time>
      </trkpt>
      <trkpt lat="42.333710000" lon="-2.323015000">
        <ele>630.40</ele>
        <time>2013-07-27T11:24:42Z</time>
      </trkpt>
      <trkpt lat="42.333692000" lon="-2.322990000">
        <ele>630.30</ele>
        <time>2013-07-27T11:24:43Z</time>
      </trkpt>
      <trkpt lat="42.333677000" lon="-2.322960000">
        <ele>630.40</ele>
        <time>2013-07-27T11:24:44Z</time>
      </trkpt>
      <trkpt lat="42.333667000" lon="-2.322927000">
        <ele>630.40</ele>
        <time>2013-07-27T11:24:45Z</time>
      </trkpt>
      <trkpt lat="42.333664000" lon="-2.322894000">
        <ele>630.50</ele>
        <time>2013-07-27T11:24:46Z</time>
      </trkpt>
      <trkpt lat="42.333666000" lon="-2.322859000">
        <ele>630.50</ele>
        <time>2013-07-27T11:24:47Z</time>
      </trkpt>
      <trkpt lat="42.333667000" lon="-2.322824000">
        <ele>630.40</ele>
        <time>2013-07-27T11:24:48Z</time>
      </trkpt>
      <trkpt lat="42.333673000" lon="-2.322796000">
        <ele>630.30</ele>
        <time>2013-07-27T11:24:49Z</time>
      </trkpt>
      <trkpt lat="42.333675000" lon="-2.322768000">
        <ele>630.20</ele>
        <time>2013-07-27T11:24:50Z</time>
      </trkpt>
      <trkpt lat="42.333681000" lon="-2.322740000">
        <ele>630.20</ele>
        <time>2013-07-27T11:24:51Z</time>
      </trkpt>
      <trkpt lat="42.333692000" lon="-2.322717000">
        <ele>630.60</ele>
        <time>2013-07-27T11:24:52Z</time>
      </trkpt>
      <trkpt lat="42.333705000" lon="-2.322695000">
        <ele>630.80</ele>
        <time>2013-07-27T11:24:53Z</time>
      </trkpt>
      <trkpt lat="42.333718000" lon="-2.322671000">
        <ele>631.10</ele>
        <time>2013-07-27T11:24:54Z</time>
      </trkpt>
      <trkpt lat="42.333730000" lon="-2.322645000">
        <ele>631.30</ele>
        <time>2013-07-27T11:24:55Z</time>
      </trkpt>
      <trkpt lat="42.333741000" lon="-2.322617000">
        <ele>631.50</ele>
        <time>2013-07-27T11:24:56Z</time>
      </trkpt>
      <trkpt lat="42.333754000" lon="-2.322591000">
        <ele>631.60</ele>
        <time>2013-07-27T11:24:57Z</time>
      </trkpt>
      <trkpt lat="42.333765000" lon="-2.322568000">
        <ele>632.00</ele>
        <time>2013-07-27T11:24:58Z</time>
      </trkpt>
      <trkpt lat="42.333775000" lon="-2.322546000">
        <ele>632.20</ele>
        <time>2013-07-27T11:24:59Z</time>
      </trkpt>
      <trkpt lat="42.333779000" lon="-2.322517000">
        <ele>632.60</ele>
        <time>2013-07-27T11:25:00Z</time>
      </trkpt>
      <trkpt lat="42.333787000" lon="-2.322486000">
        <ele>632.80</ele>
        <time>2013-07-27T11:25:01Z</time>
      </trkpt>
      <trkpt lat="42.333788000" lon="-2.322462000">
        <ele>633.20</ele>
        <time>2013-07-27T11:25:02Z</time>
      </trkpt>
      <trkpt lat="42.333789000" lon="-2.322441000">
        <ele>633.40</ele>
        <time>2013-07-27T11:25:03Z</time>
      </trkpt>
      <trkpt lat="42.333787000" lon="-2.322413000">
        <ele>633.60</ele>
        <time>2013-07-27T11:25:04Z</time>
      </trkpt>
      <trkpt lat="42.333794000" lon="-2.322385000">
        <ele>633.70</ele>
        <time>2013-07-27T11:25:05Z</time>
      </trkpt>
      <trkpt lat="42.333792000" lon="-2.322365000">
        <ele>633.90</ele>
        <time>2013-07-27T11:25:06Z</time>
      </trkpt>
      <trkpt lat="42.333788000" lon="-2.322349000">
        <ele>634.10</ele>
        <time>2013-07-27T11:25:07Z</time>
      </trkpt>
      <trkpt lat="42.333779000" lon="-2.322328000">
        <ele>634.30</ele>
        <time>2013-07-27T11:25:08Z</time>
      </trkpt>
      <trkpt lat="42.333768000" lon="-2.322312000">
        <ele>634.40</ele>
        <time>2013-07-27T11:25:09Z</time>
      </trkpt>
      <trkpt lat="42.333763000" lon="-2.322296000">
        <ele>634.60</ele>
        <time>2013-07-27T11:25:10Z</time>
      </trkpt>
      <trkpt lat="42.333766000" lon="-2.322291000">
        <ele>634.80</ele>
        <time>2013-07-27T11:25:11Z</time>
      </trkpt>
      <trkpt lat="42.333765000" lon="-2.322287000">
        <ele>634.90</ele>
        <time>2013-07-27T11:25:12Z</time>
      </trkpt>
      <trkpt lat="42.333764000" lon="-2.322281000">
        <ele>635.00</ele>
        <time>2013-07-27T11:25:13Z</time>
      </trkpt>
      <trkpt lat="42.333765000" lon="-2.322279000">
        <ele>635.10</ele>
        <time>2013-07-27T11:25:14Z</time>
      </trkpt>
      <trkpt lat="42.333766000" lon="-2.322277000">
        <ele>635.10</ele>
        <time>2013-07-27T11:25:15Z</time>
      </trkpt>
      <trkpt lat="42.333768000" lon="-2.322267000">
        <ele>635.20</ele>
        <time>2013-07-27T11:25:16Z</time>
      </trkpt>
      <trkpt lat="42.333771000" lon="-2.322255000">
        <ele>635.20</ele>
        <time>2013-07-27T11:25:17Z</time>
      </trkpt>
      <trkpt lat="42.333775000" lon="-2.322244000">
        <ele>635.20</ele>
        <time>2013-07-27T11:25:18Z</time>
      </trkpt>
      <trkpt lat="42.333777000" lon="-2.322243000">
        <ele>635.20</ele>
        <time>2013-07-27T11:25:19Z</time>
      </trkpt>
      <trkpt lat="42.333779000" lon="-2.322239000">
        <ele>635.10</ele>
        <time>2013-07-27T11:25:20Z</time>
      </trkpt>
      <trkpt lat="42.333780000" lon="-2.322236000">
        <ele>635.00</ele>
        <time>2013-07-27T11:25:21Z</time>
      </trkpt>
      <trkpt lat="42.333783000" lon="-2.322233000">
        <ele>634.90</ele>
        <time>2013-07-27T11:25:22Z</time>
      </trkpt>
      <trkpt lat="42.333785000" lon="-2.322234000">
        <ele>634.90</ele>
        <time>2013-07-27T11:25:23Z</time>
      </trkpt>
      <trkpt lat="42.333787000" lon="-2.322235000">
        <ele>634.70</ele>
        <time>2013-07-27T11:25:24Z</time>
      </trkpt>
      <trkpt lat="42.333789000" lon="-2.322236000">
        <ele>634.60</ele>
        <time>2013-07-27T11:25:25Z</time>
      </trkpt>
      <trkpt lat="42.333790000" lon="-2.322236000">
        <ele>634.70</ele>
        <time>2013-07-27T11:25:26Z</time>
      </trkpt>
      <trkpt lat="42.333791000" lon="-2.322236000">
        <ele>634.80</ele>
        <time>2013-07-27T11:25:27Z</time>
      </trkpt>
      <trkpt lat="42.333792000" lon="-2.322237000">
        <ele>634.60</ele>
        <time>2013-07-27T11:25:28Z</time>
      </trkpt>
      <trkpt lat="42.333792000" lon="-2.322235000">
        <ele>634.50</ele>
        <time>2013-07-27T11:25:29Z</time>
      </trkpt>
      <trkpt lat="42.333793000" lon="-2.322234000">
        <ele>634.40</ele>
        <time>2013-07-27T11:25:30Z</time>
      </trkpt>
      <trkpt lat="42.333793000" lon="-2.322235000">
        <ele>634.40</ele>
        <time>2013-07-27T11:25:31Z</time>
      </trkpt>
      <trkpt lat="42.333793000" lon="-2.322236000">
        <ele>634.30</ele>
        <time>2013-07-27T11:25:32Z</time>
      </trkpt>
      <trkpt lat="42.333793000" lon="-2.322237000">
        <ele>634.30</ele>
        <time>2013-07-27T11:25:33Z</time>
      </trkpt>
      <trkpt lat="42.333792000" lon="-2.322238000">
        <ele>634.20</ele>
        <time>2013-07-27T11:25:34Z</time>
      </trkpt>
      <trkpt lat="42.333792000" lon="-2.322240000">
        <ele>634.10</ele>
        <time>2013-07-27T11:25:35Z</time>
      </trkpt>
      <trkpt lat="42.333793000" lon="-2.322241000">
        <ele>634.20</ele>
        <time>2013-07-27T11:25:36Z</time>
      </trkpt>
      <trkpt lat="42.333793000" lon="-2.322242000">
        <ele>634.30</ele>
        <time>2013-07-27T11:25:37Z</time>
      </trkpt>
      <trkpt lat="42.333794000" lon="-2.322243000">
        <ele>634.40</ele>
        <time>2013-07-27T11:25:38Z</time>
      </trkpt>
      <trkpt lat="42.333793000" lon="-2.322244000">
        <ele>634.50</ele>
        <time>2013-07-27T11:25:39Z</time>
      </trkpt>
      <trkpt lat="42.333793000" lon="-2.322246000">
        <ele>634.60</ele>
        <time>2013-07-27T11:25:40Z</time>
      </trkpt>
      <trkpt lat="42.333793000" lon="-2.322247000">
        <ele>634.60</ele>
        <time>2013-07-27T11:25:41Z</time>
      </trkpt>
      <trkpt lat="42.333793000" lon="-2.322249000">
        <ele>634.60</ele>
        <time>2013-07-27T11:25:42Z</time>
      </trkpt>
      <trkpt lat="42.333793000" lon="-2.322249000">
        <ele>634.50</ele>
        <time>2013-07-27T11:25:43Z</time>
      </trkpt>
      <trkpt lat="42.333792000" lon="-2.322250000">
        <ele>634.50</ele>
        <time>2013-07-27T11:25:44Z</time>
      </trkpt>
      <trkpt lat="42.333792000" lon="-2.322251000">
        <ele>634.50</ele>
        <time>2013-07-27T11:25:45Z</time>
      </trkpt>
      <trkpt lat="42.333791000" lon="-2.322253000">
        <ele>634.60</ele>
        <time>2013-07-27T11:25:46Z</time>
      </trkpt>
      <trkpt lat="42.333790000" lon="-2.322254000">
        <ele>634.60</ele>
        <time>2013-07-27T11:25:47Z</time>
      </trkpt>
      <trkpt lat="42.333790000" lon="-2.322255000">
        <ele>634.60</ele>
        <time>2013-07-27T11:25:48Z</time>
      </trkpt>
      <trkpt lat="42.333790000" lon="-2.322255000">
        <ele>634.70</ele>
        <time>2013-07-27T11:25:49Z</time>
      </trkpt>
      <trkpt lat="42.333789000" lon="-2.322255000">
        <ele>634.80</ele>
        <time>2013-07-27T11:25:50Z</time>
      </trkpt>
      <trkpt lat="42.333788000" lon="-2.322257000">
        <ele>634.80</ele>
        <time>2013-07-27T11:25:51Z</time>
      </trkpt>
      <trkpt lat="42.333787000" lon="-2.322258000">
        <ele>634.90</ele>
        <time>2013-07-27T11:25:52Z</time>
      </trkpt>
      <trkpt lat="42.333787000" lon="-2.322258000">
        <ele>634.90</ele>
        <time>2013-07-27T11:25:53Z</time>
      </trkpt>
      <trkpt lat="42.333786000" lon="-2.322259000">
        <ele>634.90</ele>
        <time>2013-07-27T11:25:54Z</time>
      </trkpt>
      <trkpt lat="42.333785000" lon="-2.322260000">
        <ele>634.90</ele>
        <time>2013-07-27T11:25:55Z</time>
      </trkpt>
      <trkpt lat="42.333785000" lon="-2.322260000">
        <ele>635.00</ele>
        <time>2013-07-27T11:25:56Z</time>
      </trkpt>
      <trkpt lat="42.333784000" lon="-2.322260000">
        <ele>635.10</ele>
        <time>2013-07-27T11:25:57Z</time>
      </trkpt>
      <trkpt lat="42.333783000" lon="-2.322260000">
        <ele>635.00</ele>
        <time>2013-07-27T11:25:58Z</time>
      </trkpt>
      <trkpt lat="42.333783000" lon="-2.322260000">
        <ele>634.90</ele>
        <time>2013-07-27T11:25:59Z</time>
      </trkpt>
      <trkpt lat="42.333782000" lon="-2.322260000">
        <ele>635.00</ele>
        <time>2013-07-27T11:26:00Z</time>
      </trkpt>
      <trkpt lat="42.333781000" lon="-2.322260000">
        <ele>635.10</ele>
        <time>2013-07-27T11:26:01Z</time>
      </trkpt>
      <trkpt lat="42.333780000" lon="-2.322260000">
        <ele>635.00</ele>
        <time>2013-07-27T11:26:02Z</time>
      </trkpt>
      <trkpt lat="42.333779000" lon="-2.322260000">
        <ele>634.90</ele>
        <time>2013-07-27T11:26:03Z</time>
      </trkpt>
      <trkpt lat="42.333778000" lon="-2.322260000">
        <ele>634.90</ele>
        <time>2013-07-27T11:26:04Z</time>
      </trkpt>
      <trkpt lat="42.333777000" lon="-2.322260000">
        <ele>634.80</ele>
        <time>2013-07-27T11:26:05Z</time>
      </trkpt>
      <trkpt lat="42.333776000" lon="-2.322260000">
        <ele>634.80</ele>
        <time>2013-07-27T11:26:06Z</time>
      </trkpt>
      <trkpt lat="42.333775000" lon="-2.322260000">
        <ele>634.80</ele>
        <time>2013-07-27T11:26:07Z</time>
      </trkpt>
      <trkpt lat="42.333774000" lon="-2.322260000">
        <ele>634.70</ele>
        <time>2013-07-27T11:26:08Z</time>
      </trkpt>
      <trkpt lat="42.333773000" lon="-2.322261000">
        <ele>634.70</ele>
        <time>2013-07-27T11:26:09Z</time>
      </trkpt>
      <trkpt lat="42.333773000" lon="-2.322261000">
        <ele>634.60</ele>
        <time>2013-07-27T11:26:10Z</time>
      </trkpt>
      <trkpt lat="42.333771000" lon="-2.322262000">
        <ele>634.60</ele>
        <time>2013-07-27T11:26:11Z</time>
      </trkpt>
      <trkpt lat="42.333770000" lon="-2.322263000">
        <ele>634.60</ele>
        <time>2013-07-27T11:26:12Z</time>
      </trkpt>
      <trkpt lat="42.333769000" lon="-2.322264000">
        <ele>634.50</ele>
        <time>2013-07-27T11:26:13Z</time>
      </trkpt>
      <trkpt lat="42.333768000" lon="-2.322265000">
        <ele>634.60</ele>
        <time>2013-07-27T11:26:14Z</time>
      </trkpt>
      <trkpt lat="42.333768000" lon="-2.322266000">
        <ele>634.60</ele>
        <time>2013-07-27T11:26:15Z</time>
      </trkpt>
      <trkpt lat="42.333767000" lon="-2.322267000">
        <ele>634.70</ele>
        <time>2013-07-27T11:26:16Z</time>
      </trkpt>
      <trkpt lat="42.333766000" lon="-2.322268000">
        <ele>634.70</ele>
        <time>2013-07-27T11:26:17Z</time>
      </trkpt>
      <trkpt lat="42.333765000" lon="-2.322269000">
        <ele>634.80</ele>
        <time>2013-07-27T11:26:18Z</time>
      </trkpt>
      <trkpt lat="42.333765000" lon="-2.322270000">
        <ele>634.90</ele>
        <time>2013-07-27T11:26:19Z</time>
      </trkpt>
      <trkpt lat="42.333764000" lon="-2.322271000">
        <ele>635.00</ele>
        <time>2013-07-27T11:26:20Z</time>
      </trkpt>
      <trkpt lat="42.333763000" lon="-2.322271000">
        <ele>635.10</ele>
        <time>2013-07-27T11:26:21Z</time>
      </trkpt>
      <trkpt lat="42.333762000" lon="-2.322271000">
        <ele>635.10</ele>
        <time>2013-07-27T11:26:22Z</time>
      </trkpt>
      <trkpt lat="42.333762000" lon="-2.322272000">
        <ele>635.20</ele>
        <time>2013-07-27T11:26:23Z</time>
      </trkpt>
      <trkpt lat="42.333761000" lon="-2.322272000">
        <ele>635.20</ele>
        <time>2013-07-27T11:26:24Z</time>
      </trkpt>
      <trkpt lat="42.333760000" lon="-2.322273000">
        <ele>635.20</ele>
        <time>2013-07-27T11:26:25Z</time>
      </trkpt>
      <trkpt lat="42.333759000" lon="-2.322273000">
        <ele>635.20</ele>
        <time>2013-07-27T11:26:26Z</time>
      </trkpt>
      <trkpt lat="42.333759000" lon="-2.322273000">
        <ele>635.10</ele>
        <time>2013-07-27T11:26:27Z</time>
      </trkpt>
      <trkpt lat="42.333758000" lon="-2.322273000">
        <ele>635.10</ele>
        <time>2013-07-27T11:26:28Z</time>
      </trkpt>
      <trkpt lat="42.333757000" lon="-2.322273000">
        <ele>635.10</ele>
        <time>2013-07-27T11:26:29Z</time>
      </trkpt>
      <trkpt lat="42.333757000" lon="-2.322274000">
        <ele>635.10</ele>
        <time>2013-07-27T11:26:30Z</time>
      </trkpt>
      <trkpt lat="42.333757000" lon="-2.322275000">
        <ele>635.20</ele>
        <time>2013-07-27T11:26:31Z</time>
      </trkpt>
      <trkpt lat="42.333756000" lon="-2.322276000">
        <ele>635.20</ele>
        <time>2013-07-27T11:26:32Z</time>
      </trkpt>
      <trkpt lat="42.333756000" lon="-2.322276000">
        <ele>635.20</ele>
        <time>2013-07-27T11:26:33Z</time>
      </trkpt>
      <trkpt lat="42.333755000" lon="-2.322277000">
        <ele>635.30</ele>
        <time>2013-07-27T11:26:34Z</time>
      </trkpt>
      <trkpt lat="42.333755000" lon="-2.322277000">
        <ele>635.40</ele>
        <time>2013-07-27T11:26:35Z</time>
      </trkpt>
      <trkpt lat="42.333755000" lon="-2.322277000">
        <ele>635.40</ele>
        <time>2013-07-27T11:26:36Z</time>
      </trkpt>
      <trkpt lat="42.333754000" lon="-2.322277000">
        <ele>635.40</ele>
        <time>2013-07-27T11:26:37Z</time>
      </trkpt>
      <trkpt lat="42.333754000" lon="-2.322277000">
        <ele>635.40</ele>
        <time>2013-07-27T11:26:38Z</time>
      </trkpt>
      <trkpt lat="42.333754000" lon="-2.322278000">
        <ele>635.40</ele>
        <time>2013-07-27T11:26:39Z</time>
      </trkpt>
      <trkpt lat="42.333755000" lon="-2.322279000">
        <ele>635.60</ele>
        <time>2013-07-27T11:26:40Z</time>
      </trkpt>
      <trkpt lat="42.333755000" lon="-2.322279000">
        <ele>635.80</ele>
        <time>2013-07-27T11:26:41Z</time>
      </trkpt>
      <trkpt lat="42.333754000" lon="-2.322280000">
        <ele>635.90</ele>
        <time>2013-07-27T11:26:42Z</time>
      </trkpt>
      <trkpt lat="42.333755000" lon="-2.322281000">
        <ele>635.90</ele>
        <time>2013-07-27T11:26:43Z</time>
      </trkpt>
      <trkpt lat="42.333754000" lon="-2.322281000">
        <ele>635.90</ele>
        <time>2013-07-27T11:26:44Z</time>
      </trkpt>
      <trkpt lat="42.333754000" lon="-2.322282000">
        <ele>635.80</ele>
        <time>2013-07-27T11:26:45Z</time>
      </trkpt>
      <trkpt lat="42.333755000" lon="-2.322282000">
        <ele>635.70</ele>
        <time>2013-07-27T11:26:46Z</time>
      </trkpt>
      <trkpt lat="42.333756000" lon="-2.322281000">
        <ele>635.70</ele>
        <time>2013-07-27T11:26:47Z</time>
      </trkpt>
      <trkpt lat="42.333756000" lon="-2.322283000">
        <ele>635.70</ele>
        <time>2013-07-27T11:26:48Z</time>
      </trkpt>
      <trkpt lat="42.333757000" lon="-2.322285000">
        <ele>635.60</ele>
        <time>2013-07-27T11:26:49Z</time>
      </trkpt>
      <trkpt lat="42.333757000" lon="-2.322286000">
        <ele>635.50</ele>
        <time>2013-07-27T11:26:50Z</time>
      </trkpt>
      <trkpt lat="42.333757000" lon="-2.322286000">
        <ele>635.50</ele>
        <time>2013-07-27T11:26:51Z</time>
      </trkpt>
      <trkpt lat="42.333758000" lon="-2.322287000">
        <ele>635.40</ele>
        <time>2013-07-27T11:26:52Z</time>
      </trkpt>
      <trkpt lat="42.333759000" lon="-2.322288000">
        <ele>635.40</ele>
        <time>2013-07-27T11:26:53Z</time>
      </trkpt>
      <trkpt lat="42.333759000" lon="-2.322288000">
        <ele>635.40</ele>
        <time>2013-07-27T11:26:54Z</time>
      </trkpt>
      <trkpt lat="42.333759000" lon="-2.322289000">
        <ele>635.50</ele>
        <time>2013-07-27T11:26:55Z</time>
      </trkpt>
      <trkpt lat="42.333759000" lon="-2.322289000">
        <ele>635.50</ele>
        <time>2013-07-27T11:26:56Z</time>
      </trkpt>
      <trkpt lat="42.333758000" lon="-2.322290000">
        <ele>635.50</ele>
        <time>2013-07-27T11:26:57Z</time>
      </trkpt>
      <trkpt lat="42.333757000" lon="-2.322291000">
        <ele>635.40</ele>
        <time>2013-07-27T11:26:58Z</time>
      </trkpt>
      <trkpt lat="42.333757000" lon="-2.322291000">
        <ele>635.40</ele>
        <time>2013-07-27T11:26:59Z</time>
      </trkpt>
      <trkpt lat="42.333756000" lon="-2.322291000">
        <ele>635.30</ele>
        <time>2013-07-27T11:27:00Z</time>
      </trkpt>
      <trkpt lat="42.333755000" lon="-2.322291000">
        <ele>635.30</ele>
        <time>2013-07-27T11:27:01Z</time>
      </trkpt>
      <trkpt lat="42.333755000" lon="-2.322290000">
        <ele>635.30</ele>
        <time>2013-07-27T11:27:02Z</time>
      </trkpt>
      <trkpt lat="42.333754000" lon="-2.322290000">
        <ele>635.30</ele>
        <time>2013-07-27T11:27:03Z</time>
      </trkpt>
      <trkpt lat="42.333753000" lon="-2.322290000">
        <ele>635.40</ele>
        <time>2013-07-27T11:27:04Z</time>
      </trkpt>
      <trkpt lat="42.333752000" lon="-2.322290000">
        <ele>635.40</ele>
        <time>2013-07-27T11:27:05Z</time>
      </trkpt>
      <trkpt lat="42.333752000" lon="-2.322290000">
        <ele>635.50</ele>
        <time>2013-07-27T11:27:06Z</time>
      </trkpt>
      <trkpt lat="42.333751000" lon="-2.322289000">
        <ele>635.40</ele>
        <time>2013-07-27T11:27:07Z</time>
      </trkpt>
      <trkpt lat="42.333751000" lon="-2.322289000">
        <ele>635.40</ele>
        <time>2013-07-27T11:27:08Z</time>
      </trkpt>
      <trkpt lat="42.333752000" lon="-2.322288000">
        <ele>635.40</ele>
        <time>2013-07-27T11:27:09Z</time>
      </trkpt>
      <trkpt lat="42.333752000" lon="-2.322288000">
        <ele>635.40</ele>
        <time>2013-07-27T11:27:10Z</time>
      </trkpt>
      <trkpt lat="42.333754000" lon="-2.322286000">
        <ele>635.50</ele>
        <time>2013-07-27T11:27:11Z</time>
      </trkpt>
      <trkpt lat="42.333754000" lon="-2.322287000">
        <ele>635.50</ele>
        <time>2013-07-27T11:27:12Z</time>
      </trkpt>
      <trkpt lat="42.333753000" lon="-2.322287000">
        <ele>635.50</ele>
        <time>2013-07-27T11:27:13Z</time>
      </trkpt>
      <trkpt lat="42.333753000" lon="-2.322287000">
        <ele>635.60</ele>
        <time>2013-07-27T11:27:14Z</time>
      </trkpt>
      <trkpt lat="42.333754000" lon="-2.322286000">
        <ele>635.50</ele>
        <time>2013-07-27T11:27:15Z</time>
      </trkpt>
      <trkpt lat="42.333756000" lon="-2.322283000">
        <ele>635.50</ele>
        <time>2013-07-27T11:27:16Z</time>
      </trkpt>
      <trkpt lat="42.333758000" lon="-2.322281000">
        <ele>635.40</ele>
        <time>2013-07-27T11:27:17Z</time>
      </trkpt>
      <trkpt lat="42.333759000" lon="-2.322279000">
        <ele>635.40</ele>
        <time>2013-07-27T11:27:18Z</time>
      </trkpt>
      <trkpt lat="42.333760000" lon="-2.322278000">
        <ele>635.40</ele>
        <time>2013-07-27T11:27:19Z</time>
      </trkpt>
      <trkpt lat="42.333761000" lon="-2.322276000">
        <ele>635.30</ele>
        <time>2013-07-27T11:27:20Z</time>
      </trkpt>
      <trkpt lat="42.333762000" lon="-2.322275000">
        <ele>635.30</ele>
        <time>2013-07-27T11:27:21Z</time>
      </trkpt>
      <trkpt lat="42.333764000" lon="-2.322272000">
        <ele>635.30</ele>
        <time>2013-07-27T11:27:22Z</time>
      </trkpt>
      <trkpt lat="42.333766000" lon="-2.322269000">
        <ele>635.40</ele>
        <time>2013-07-27T11:27:23Z</time>
      </trkpt>
      <trkpt lat="42.333767000" lon="-2.322266000">
        <ele>635.50</ele>
        <time>2013-07-27T11:27:24Z</time>
      </trkpt>
      <trkpt lat="42.333768000" lon="-2.322263000">
        <ele>635.50</ele>
        <time>2013-07-27T11:27:25Z</time>
      </trkpt>
      <trkpt lat="42.333769000" lon="-2.322261000">
        <ele>635.50</ele>
        <time>2013-07-27T11:27:26Z</time>
      </trkpt>
      <trkpt lat="42.333770000" lon="-2.322259000">
        <ele>635.60</ele>
        <time>2013-07-27T11:27:27Z</time>
      </trkpt>
      <trkpt lat="42.333771000" lon="-2.322258000">
        <ele>635.60</ele>
        <time>2013-07-27T11:27:28Z</time>
      </trkpt>
      <trkpt lat="42.333772000" lon="-2.322256000">
        <ele>635.60</ele>
        <time>2013-07-27T11:27:29Z</time>
      </trkpt>
      <trkpt lat="42.333773000" lon="-2.322255000">
        <ele>635.60</ele>
        <time>2013-07-27T11:27:30Z</time>
      </trkpt>
      <trkpt lat="42.333775000" lon="-2.322253000">
        <ele>635.60</ele>
        <time>2013-07-27T11:27:31Z</time>
      </trkpt>
      <trkpt lat="42.333776000" lon="-2.322251000">
        <ele>635.60</ele>
        <time>2013-07-27T11:27:32Z</time>
      </trkpt>
      <trkpt lat="42.333777000" lon="-2.322251000">
        <ele>635.50</ele>
        <time>2013-07-27T11:27:33Z</time>
      </trkpt>
      <trkpt lat="42.333778000" lon="-2.322250000">
        <ele>635.50</ele>
        <time>2013-07-27T11:27:34Z</time>
      </trkpt>
      <trkpt lat="42.333780000" lon="-2.322249000">
        <ele>635.30</ele>
        <time>2013-07-27T11:27:35Z</time>
      </trkpt>
      <trkpt lat="42.333781000" lon="-2.322248000">
        <ele>635.20</ele>
        <time>2013-07-27T11:27:36Z</time>
      </trkpt>
      <trkpt lat="42.333782000" lon="-2.322247000">
        <ele>635.10</ele>
        <time>2013-07-27T11:27:37Z</time>
      </trkpt>
      <trkpt lat="42.333784000" lon="-2.322246000">
        <ele>635.00</ele>
        <time>2013-07-27T11:27:38Z</time>
      </trkpt>
      <trkpt lat="42.333785000" lon="-2.322245000">
        <ele>635.00</ele>
        <time>2013-07-27T11:27:39Z</time>
      </trkpt>
      <trkpt lat="42.333786000" lon="-2.322244000">
        <ele>635.00</ele>
        <time>2013-07-27T11:27:40Z</time>
      </trkpt>
      <trkpt lat="42.333787000" lon="-2.322244000">
        <ele>635.10</ele>
        <time>2013-07-27T11:27:41Z</time>
      </trkpt>
      <trkpt lat="42.333789000" lon="-2.322244000">
        <ele>635.10</ele>
        <time>2013-07-27T11:27:42Z</time>
      </trkpt>
      <trkpt lat="42.333790000" lon="-2.322244000">
        <ele>635.20</ele>
        <time>2013-07-27T11:27:43Z</time>
      </trkpt>
      <trkpt lat="42.333791000" lon="-2.322243000">
        <ele>635.20</ele>
        <time>2013-07-27T11:27:44Z</time>
      </trkpt>
      <trkpt lat="42.333791000" lon="-2.322242000">
        <ele>635.20</ele>
        <time>2013-07-27T11:27:45Z</time>
      </trkpt>
      <trkpt lat="42.333792000" lon="-2.322241000">
        <ele>635.30</ele>
        <time>2013-07-27T11:27:46Z</time>
      </trkpt>
      <trkpt lat="42.333793000" lon="-2.322240000">
        <ele>635.30</ele>
        <time>2013-07-27T11:27:47Z</time>
      </trkpt>
      <trkpt lat="42.333793000" lon="-2.322238000">
        <ele>635.30</ele>
        <time>2013-07-27T11:27:48Z</time>
      </trkpt>
      <trkpt lat="42.333794000" lon="-2.322237000">
        <ele>635.30</ele>
        <time>2013-07-27T11:27:49Z</time>
      </trkpt>
      <trkpt lat="42.333795000" lon="-2.322236000">
        <ele>635.30</ele>
        <time>2013-07-27T11:27:50Z</time>
      </trkpt>
      <trkpt lat="42.333795000" lon="-2.322236000">
        <ele>635.30</ele>
        <time>2013-07-27T11:27:51Z</time>
      </trkpt>
      <trkpt lat="42.333796000" lon="-2.322235000">
        <ele>635.30</ele>
        <time>2013-07-27T11:27:52Z</time>
      </trkpt>
      <trkpt lat="42.333797000" lon="-2.322233000">
        <ele>635.30</ele>
        <time>2013-07-27T11:27:53Z</time>
      </trkpt>
      <trkpt lat="42.333798000" lon="-2.322232000">
        <ele>635.30</ele>
        <time>2013-07-27T11:27:54Z</time>
      </trkpt>
      <trkpt lat="42.333799000" lon="-2.322233000">
        <ele>635.30</ele>
        <time>2013-07-27T11:27:55Z</time>
      </trkpt>
      <trkpt lat="42.333800000" lon="-2.322235000">
        <ele>635.30</ele>
        <time>2013-07-27T11:27:56Z</time>
      </trkpt>
      <trkpt lat="42.333800000" lon="-2.322237000">
        <ele>635.30</ele>
        <time>2013-07-27T11:27:57Z</time>
      </trkpt>
      <trkpt lat="42.333801000" lon="-2.322239000">
        <ele>635.30</ele>
        <time>2013-07-27T11:27:58Z</time>
      </trkpt>
      <trkpt lat="42.333801000" lon="-2.322239000">
        <ele>635.30</ele>
        <time>2013-07-27T11:27:59Z</time>
      </trkpt>
      <trkpt lat="42.333801000" lon="-2.322240000">
        <ele>635.30</ele>
        <time>2013-07-27T11:28:00Z</time>
      </trkpt>
      <trkpt lat="42.333802000" lon="-2.322242000">
        <ele>635.20</ele>
        <time>2013-07-27T11:28:01Z</time>
      </trkpt>
      <trkpt lat="42.333802000" lon="-2.322244000">
        <ele>635.20</ele>
        <time>2013-07-27T11:28:02Z</time>
      </trkpt>
      <trkpt lat="42.333802000" lon="-2.322245000">
        <ele>635.10</ele>
        <time>2013-07-27T11:28:03Z</time>
      </trkpt>
      <trkpt lat="42.333802000" lon="-2.322247000">
        <ele>635.00</ele>
        <time>2013-07-27T11:28:04Z</time>
      </trkpt>
      <trkpt lat="42.333803000" lon="-2.322248000">
        <ele>634.90</ele>
        <time>2013-07-27T11:28:05Z</time>
      </trkpt>
      <trkpt lat="42.333803000" lon="-2.322249000">
        <ele>634.80</ele>
        <time>2013-07-27T11:28:06Z</time>
      </trkpt>
      <trkpt lat="42.333803000" lon="-2.322250000">
        <ele>634.70</ele>
        <time>2013-07-27T11:28:07Z</time>
      </trkpt>
      <trkpt lat="42.333803000" lon="-2.322251000">
        <ele>634.60</ele>
        <time>2013-07-27T11:28:08Z</time>
      </trkpt>
      <trkpt lat="42.333803000" lon="-2.322253000">
        <ele>634.70</ele>
        <time>2013-07-27T11:28:09Z</time>
      </trkpt>
      <trkpt lat="42.333803000" lon="-2.322254000">
        <ele>634.80</ele>
        <time>2013-07-27T11:28:10Z</time>
      </trkpt>
      <trkpt lat="42.333803000" lon="-2.322255000">
        <ele>634.90</ele>
        <time>2013-07-27T11:28:11Z</time>
      </trkpt>
      <trkpt lat="42.333804000" lon="-2.322256000">
        <ele>635.00</ele>
        <time>2013-07-27T11:28:12Z</time>
      </trkpt>
      <trkpt lat="42.333804000" lon="-2.322257000">
        <ele>635.00</ele>
        <time>2013-07-27T11:28:13Z</time>
      </trkpt>
      <trkpt lat="42.333804000" lon="-2.322259000">
        <ele>635.00</ele>
        <time>2013-07-27T11:28:14Z</time>
      </trkpt>
      <trkpt lat="42.333804000" lon="-2.322259000">
        <ele>635.10</ele>
        <time>2013-07-27T11:28:15Z</time>
      </trkpt>
      <trkpt lat="42.333804000" lon="-2.322260000">
        <ele>635.20</ele>
        <time>2013-07-27T11:28:16Z</time>
      </trkpt>
      <trkpt lat="42.333804000" lon="-2.322261000">
        <ele>635.10</ele>
        <time>2013-07-27T11:28:17Z</time>
      </trkpt>
      <trkpt lat="42.333804000" lon="-2.322263000">
        <ele>635.00</ele>
        <time>2013-07-27T11:28:18Z</time>
      </trkpt>
      <trkpt lat="42.333805000" lon="-2.322264000">
        <ele>635.00</ele>
        <time>2013-07-27T11:28:19Z</time>
      </trkpt>
      <trkpt lat="42.333805000" lon="-2.322265000">
        <ele>634.90</ele>
        <time>2013-07-27T11:28:20Z</time>
      </trkpt>
      <trkpt lat="42.333806000" lon="-2.322266000">
        <ele>634.90</ele>
        <time>2013-07-27T11:28:21Z</time>
      </trkpt>
      <trkpt lat="42.333805000" lon="-2.322265000">
        <ele>634.80</ele>
        <time>2013-07-27T11:28:22Z</time>
      </trkpt>
      <trkpt lat="42.333805000" lon="-2.322265000">
        <ele>634.80</ele>
        <time>2013-07-27T11:28:23Z</time>
      </trkpt>
      <trkpt lat="42.333805000" lon="-2.322266000">
        <ele>634.80</ele>
        <time>2013-07-27T11:28:24Z</time>
      </trkpt>
      <trkpt lat="42.333804000" lon="-2.322267000">
        <ele>634.80</ele>
        <time>2013-07-27T11:28:25Z</time>
      </trkpt>
      <trkpt lat="42.333804000" lon="-2.322267000">
        <ele>634.80</ele>
        <time>2013-07-27T11:28:26Z</time>
      </trkpt>
      <trkpt lat="42.333803000" lon="-2.322267000">
        <ele>634.80</ele>
        <time>2013-07-27T11:28:27Z</time>
      </trkpt>
      <trkpt lat="42.333803000" lon="-2.322267000">
        <ele>634.80</ele>
        <time>2013-07-27T11:28:28Z</time>
      </trkpt>
      <trkpt lat="42.333802000" lon="-2.322268000">
        <ele>634.80</ele>
        <time>2013-07-27T11:28:29Z</time>
      </trkpt>
      <trkpt lat="42.333802000" lon="-2.322269000">
        <ele>634.70</ele>
        <time>2013-07-27T11:28:30Z</time>
      </trkpt>
      <trkpt lat="42.333802000" lon="-2.322270000">
        <ele>634.70</ele>
        <time>2013-07-27T11:28:31Z</time>
      </trkpt>
      <trkpt lat="42.333801000" lon="-2.322270000">
        <ele>634.70</ele>
        <time>2013-07-27T11:28:32Z</time>
      </trkpt>
      <trkpt lat="42.333799000" lon="-2.322271000">
        <ele>634.60</ele>
        <time>2013-07-27T11:28:33Z</time>
      </trkpt>
      <trkpt lat="42.333799000" lon="-2.322271000">
        <ele>634.50</ele>
        <time>2013-07-27T11:28:34Z</time>
      </trkpt>
      <trkpt lat="42.333798000" lon="-2.322273000">
        <ele>634.40</ele>
        <time>2013-07-27T11:28:35Z</time>
      </trkpt>
      <trkpt lat="42.333797000" lon="-2.322273000">
        <ele>634.40</ele>
        <time>2013-07-27T11:28:36Z</time>
      </trkpt>
      <trkpt lat="42.333796000" lon="-2.322272000">
        <ele>634.60</ele>
        <time>2013-07-27T11:28:37Z</time>
      </trkpt>
      <trkpt lat="42.333795000" lon="-2.322273000">
        <ele>634.80</ele>
        <time>2013-07-27T11:28:38Z</time>
      </trkpt>
      <trkpt lat="42.333795000" lon="-2.322273000">
        <ele>634.90</ele>
        <time>2013-07-27T11:28:39Z</time>
      </trkpt>
      <trkpt lat="42.333794000" lon="-2.322273000">
        <ele>635.00</ele>
        <time>2013-07-27T11:28:40Z</time>
      </trkpt>
      <trkpt lat="42.333794000" lon="-2.322273000">
        <ele>634.90</ele>
        <time>2013-07-27T11:28:41Z</time>
      </trkpt>
      <trkpt lat="42.333794000" lon="-2.322275000">
        <ele>634.80</ele>
        <time>2013-07-27T11:28:42Z</time>
      </trkpt>
      <trkpt lat="42.333793000" lon="-2.322274000">
        <ele>634.60</ele>
        <time>2013-07-27T11:28:43Z</time>
      </trkpt>
      <trkpt lat="42.333793000" lon="-2.322274000">
        <ele>634.50</ele>
        <time>2013-07-27T11:28:44Z</time>
      </trkpt>
      <trkpt lat="42.333792000" lon="-2.322273000">
        <ele>634.40</ele>
        <time>2013-07-27T11:28:45Z</time>
      </trkpt>
      <trkpt lat="42.333791000" lon="-2.322273000">
        <ele>634.40</ele>
        <time>2013-07-27T11:28:46Z</time>
      </trkpt>
      <trkpt lat="42.333790000" lon="-2.322274000">
        <ele>634.30</ele>
        <time>2013-07-27T11:28:47Z</time>
      </trkpt>
      <trkpt lat="42.333788000" lon="-2.322274000">
        <ele>634.30</ele>
        <time>2013-07-27T11:28:48Z</time>
      </trkpt>
      <trkpt lat="42.333787000" lon="-2.322273000">
        <ele>634.40</ele>
        <time>2013-07-27T11:28:49Z</time>
      </trkpt>
      <trkpt lat="42.333787000" lon="-2.322273000">
        <ele>634.50</ele>
        <time>2013-07-27T11:28:50Z</time>
      </trkpt>
      <trkpt lat="42.333786000" lon="-2.322273000">
        <ele>634.60</ele>
        <time>2013-07-27T11:28:51Z</time>
      </trkpt>
      <trkpt lat="42.333786000" lon="-2.322274000">
        <ele>634.60</ele>
        <time>2013-07-27T11:28:52Z</time>
      </trkpt>
      <trkpt lat="42.333785000" lon="-2.322274000">
        <ele>634.60</ele>
        <time>2013-07-27T11:28:53Z</time>
      </trkpt>
      <trkpt lat="42.333785000" lon="-2.322275000">
        <ele>634.70</ele>
        <time>2013-07-27T11:28:54Z</time>
      </trkpt>
      <trkpt lat="42.333785000" lon="-2.322275000">
        <ele>634.70</ele>
        <time>2013-07-27T11:28:55Z</time>
      </trkpt>
      <trkpt lat="42.333784000" lon="-2.322275000">
        <ele>634.70</ele>
        <time>2013-07-27T11:28:56Z</time>
      </trkpt>
      <trkpt lat="42.333783000" lon="-2.322275000">
        <ele>634.80</ele>
        <time>2013-07-27T11:28:57Z</time>
      </trkpt>
      <trkpt lat="42.333782000" lon="-2.322276000">
        <ele>634.80</ele>
        <time>2013-07-27T11:28:58Z</time>
      </trkpt>
      <trkpt lat="42.333781000" lon="-2.322276000">
        <ele>634.80</ele>
        <time>2013-07-27T11:28:59Z</time>
      </trkpt>
      <trkpt lat="42.333781000" lon="-2.322276000">
        <ele>634.80</ele>
        <time>2013-07-27T11:29:00Z</time>
      </trkpt>
      <trkpt lat="42.333780000" lon="-2.322276000">
        <ele>634.90</ele>
        <time>2013-07-27T11:29:01Z</time>
      </trkpt>
      <trkpt lat="42.333780000" lon="-2.322276000">
        <ele>635.00</ele>
        <time>2013-07-27T11:29:02Z</time>
      </trkpt>
      <trkpt lat="42.333780000" lon="-2.322276000">
        <ele>635.10</ele>
        <time>2013-07-27T11:29:03Z</time>
      </trkpt>
      <trkpt lat="42.333779000" lon="-2.322277000">
        <ele>635.20</ele>
        <time>2013-07-27T11:29:04Z</time>
      </trkpt>
      <trkpt lat="42.333779000" lon="-2.322277000">
        <ele>635.20</ele>
        <time>2013-07-27T11:29:05Z</time>
      </trkpt>
      <trkpt lat="42.333778000" lon="-2.322278000">
        <ele>635.20</ele>
        <time>2013-07-27T11:29:06Z</time>
      </trkpt>
      <trkpt lat="42.333778000" lon="-2.322278000">
        <ele>635.10</ele>
        <time>2013-07-27T11:29:07Z</time>
      </trkpt>
      <trkpt lat="42.333777000" lon="-2.322278000">
        <ele>635.10</ele>
        <time>2013-07-27T11:29:08Z</time>
      </trkpt>
      <trkpt lat="42.333777000" lon="-2.322279000">
        <ele>634.90</ele>
        <time>2013-07-27T11:29:09Z</time>
      </trkpt>
      <trkpt lat="42.333776000" lon="-2.322279000">
        <ele>634.70</ele>
        <time>2013-07-27T11:29:10Z</time>
      </trkpt>
      <trkpt lat="42.333776000" lon="-2.322278000">
        <ele>634.80</ele>
        <time>2013-07-27T11:29:11Z</time>
      </trkpt>
      <trkpt lat="42.333776000" lon="-2.322278000">
        <ele>634.80</ele>
        <time>2013-07-27T11:29:12Z</time>
      </trkpt>
      <trkpt lat="42.333776000" lon="-2.322278000">
        <ele>634.70</ele>
        <time>2013-07-27T11:29:13Z</time>
      </trkpt>
      <trkpt lat="42.333775000" lon="-2.322278000">
        <ele>634.60</ele>
        <time>2013-07-27T11:29:14Z</time>
      </trkpt>
      <trkpt lat="42.333774000" lon="-2.322279000">
        <ele>634.60</ele>
        <time>2013-07-27T11:29:15Z</time>
      </trkpt>
      <trkpt lat="42.333774000" lon="-2.322278000">
        <ele>634.60</ele>
        <time>2013-07-27T11:29:16Z</time>
      </trkpt>
      <trkpt lat="42.333774000" lon="-2.322277000">
        <ele>634.50</ele>
        <time>2013-07-27T11:29:17Z</time>
      </trkpt>
      <trkpt lat="42.333774000" lon="-2.322278000">
        <ele>634.40</ele>
        <time>2013-07-27T11:29:18Z</time>
      </trkpt>
      <trkpt lat="42.333773000" lon="-2.322278000">
        <ele>634.50</ele>
        <time>2013-07-27T11:29:19Z</time>
      </trkpt>
      <trkpt lat="42.333775000" lon="-2.322276000">
        <ele>634.50</ele>
        <time>2013-07-27T11:29:20Z</time>
      </trkpt>
      <trkpt lat="42.333776000" lon="-2.322273000">
        <ele>634.60</ele>
        <time>2013-07-27T11:29:21Z</time>
      </trkpt>
      <trkpt lat="42.333776000" lon="-2.322273000">
        <ele>634.80</ele>
        <time>2013-07-27T11:29:22Z</time>
      </trkpt>
      <trkpt lat="42.333777000" lon="-2.322271000">
        <ele>634.80</ele>
        <time>2013-07-27T11:29:23Z</time>
      </trkpt>
      <trkpt lat="42.333779000" lon="-2.322268000">
        <ele>634.90</ele>
        <time>2013-07-27T11:29:24Z</time>
      </trkpt>
      <trkpt lat="42.333780000" lon="-2.322266000">
        <ele>634.90</ele>
        <time>2013-07-27T11:29:25Z</time>
      </trkpt>
      <trkpt lat="42.333781000" lon="-2.322265000">
        <ele>634.90</ele>
        <time>2013-07-27T11:29:26Z</time>
      </trkpt>
      <trkpt lat="42.333783000" lon="-2.322263000">
        <ele>634.90</ele>
        <time>2013-07-27T11:29:27Z</time>
      </trkpt>
      <trkpt lat="42.333784000" lon="-2.322262000">
        <ele>634.90</ele>
        <time>2013-07-27T11:29:28Z</time>
      </trkpt>
      <trkpt lat="42.333785000" lon="-2.322259000">
        <ele>634.70</ele>
        <time>2013-07-27T11:29:29Z</time>
      </trkpt>
      <trkpt lat="42.333786000" lon="-2.322258000">
        <ele>634.60</ele>
        <time>2013-07-27T11:29:30Z</time>
      </trkpt>
      <trkpt lat="42.333786000" lon="-2.322257000">
        <ele>634.50</ele>
        <time>2013-07-27T11:29:31Z</time>
      </trkpt>
      <trkpt lat="42.333787000" lon="-2.322256000">
        <ele>634.50</ele>
        <time>2013-07-27T11:29:32Z</time>
      </trkpt>
      <trkpt lat="42.333788000" lon="-2.322254000">
        <ele>634.60</ele>
        <time>2013-07-27T11:29:33Z</time>
      </trkpt>
      <trkpt lat="42.333788000" lon="-2.322254000">
        <ele>634.60</ele>
        <time>2013-07-27T11:29:34Z</time>
      </trkpt>
      <trkpt lat="42.333789000" lon="-2.322253000">
        <ele>634.70</ele>
        <time>2013-07-27T11:29:35Z</time>
      </trkpt>
      <trkpt lat="42.333789000" lon="-2.322252000">
        <ele>634.70</ele>
        <time>2013-07-27T11:29:36Z</time>
      </trkpt>
      <trkpt lat="42.333789000" lon="-2.322252000">
        <ele>634.70</ele>
        <time>2013-07-27T11:29:37Z</time>
      </trkpt>
      <trkpt lat="42.333789000" lon="-2.322252000">
        <ele>634.80</ele>
        <time>2013-07-27T11:29:38Z</time>
      </trkpt>
      <trkpt lat="42.333789000" lon="-2.322251000">
        <ele>634.80</ele>
        <time>2013-07-27T11:29:39Z</time>
      </trkpt>
      <trkpt lat="42.333790000" lon="-2.322249000">
        <ele>634.80</ele>
        <time>2013-07-27T11:29:40Z</time>
      </trkpt>
      <trkpt lat="42.333791000" lon="-2.322248000">
        <ele>634.80</ele>
        <time>2013-07-27T11:29:41Z</time>
      </trkpt>
      <trkpt lat="42.333791000" lon="-2.322247000">
        <ele>634.80</ele>
        <time>2013-07-27T11:29:42Z</time>
      </trkpt>
      <trkpt lat="42.333792000" lon="-2.322246000">
        <ele>634.70</ele>
        <time>2013-07-27T11:29:43Z</time>
      </trkpt>
      <trkpt lat="42.333792000" lon="-2.322245000">
        <ele>634.70</ele>
        <time>2013-07-27T11:29:44Z</time>
      </trkpt>
      <trkpt lat="42.333793000" lon="-2.322244000">
        <ele>634.70</ele>
        <time>2013-07-27T11:29:45Z</time>
      </trkpt>
      <trkpt lat="42.333794000" lon="-2.322244000">
        <ele>634.60</ele>
        <time>2013-07-27T11:29:46Z</time>
      </trkpt>
      <trkpt lat="42.333795000" lon="-2.322243000">
        <ele>634.60</ele>
        <time>2013-07-27T11:29:47Z</time>
      </trkpt>
      <trkpt lat="42.333796000" lon="-2.322241000">
        <ele>634.60</ele>
        <time>2013-07-27T11:29:48Z</time>
      </trkpt>
      <trkpt lat="42.333797000" lon="-2.322240000">
        <ele>634.60</ele>
        <time>2013-07-27T11:29:49Z</time>
      </trkpt>
      <trkpt lat="42.333797000" lon="-2.322239000">
        <ele>634.60</ele>
        <time>2013-07-27T11:29:50Z</time>
      </trkpt>
      <trkpt lat="42.333797000" lon="-2.322238000">
        <ele>634.60</ele>
        <time>2013-07-27T11:29:51Z</time>
      </trkpt>
      <trkpt lat="42.333798000" lon="-2.322238000">
        <ele>634.60</ele>
        <time>2013-07-27T11:29:52Z</time>
      </trkpt>
      <trkpt lat="42.333798000" lon="-2.322238000">
        <ele>634.70</ele>
        <time>2013-07-27T11:29:53Z</time>
      </trkpt>
      <trkpt lat="42.333798000" lon="-2.322239000">
        <ele>634.80</ele>
        <time>2013-07-27T11:29:54Z</time>
      </trkpt>
      <trkpt lat="42.333799000" lon="-2.322239000">
        <ele>634.80</ele>
        <time>2013-07-27T11:29:55Z</time>
      </trkpt>
      <trkpt lat="42.333799000" lon="-2.322240000">
        <ele>634.80</ele>
        <time>2013-07-27T11:29:56Z</time>
      </trkpt>
      <trkpt lat="42.333798000" lon="-2.322241000">
        <ele>634.80</ele>
        <time>2013-07-27T11:29:57Z</time>
      </trkpt>
      <trkpt lat="42.333799000" lon="-2.322241000">
        <ele>634.80</ele>
        <time>2013-07-27T11:29:58Z</time>
      </trkpt>
      <trkpt lat="42.333799000" lon="-2.322242000">
        <ele>634.70</ele>
        <time>2013-07-27T11:29:59Z</time>
      </trkpt>
      <trkpt lat="42.333799000" lon="-2.322243000">
        <ele>634.70</ele>
        <time>2013-07-27T11:30:00Z</time>
      </trkpt>
      <trkpt lat="42.333799000" lon="-2.322244000">
        <ele>634.70</ele>
        <time>2013-07-27T11:30:01Z</time>
      </trkpt>
      <trkpt lat="42.333800000" lon="-2.322245000">
        <ele>634.70</ele>
        <time>2013-07-27T11:30:02Z</time>
      </trkpt>
      <trkpt lat="42.333800000" lon="-2.322246000">
        <ele>634.70</ele>
        <time>2013-07-27T11:30:03Z</time>
      </trkpt>
      <trkpt lat="42.333800000" lon="-2.322248000">
        <ele>634.70</ele>
        <time>2013-07-27T11:30:04Z</time>
      </trkpt>
      <trkpt lat="42.333799000" lon="-2.322249000">
        <ele>634.60</ele>
        <time>2013-07-27T11:30:05Z</time>
      </trkpt>
      <trkpt lat="42.333800000" lon="-2.322251000">
        <ele>634.50</ele>
        <time>2013-07-27T11:30:06Z</time>
      </trkpt>
      <trkpt lat="42.333799000" lon="-2.322253000">
        <ele>634.50</ele>
        <time>2013-07-27T11:30:07Z</time>
      </trkpt>
      <trkpt lat="42.333797000" lon="-2.322252000">
        <ele>634.50</ele>
        <time>2013-07-27T11:30:08Z</time>
      </trkpt>
      <trkpt lat="42.333795000" lon="-2.322254000">
        <ele>634.50</ele>
        <time>2013-07-27T11:30:09Z</time>
      </trkpt>
      <trkpt lat="42.333792000" lon="-2.322249000">
        <ele>634.60</ele>
        <time>2013-07-27T11:30:10Z</time>
      </trkpt>
      <trkpt lat="42.333791000" lon="-2.322247000">
        <ele>634.60</ele>
        <time>2013-07-27T11:30:11Z</time>
      </trkpt>
      <trkpt lat="42.333790000" lon="-2.322250000">
        <ele>634.70</ele>
        <time>2013-07-27T11:30:12Z</time>
      </trkpt>
      <trkpt lat="42.333791000" lon="-2.322251000">
        <ele>634.80</ele>
        <time>2013-07-27T11:30:13Z</time>
      </trkpt>
      <trkpt lat="42.333790000" lon="-2.322252000">
        <ele>634.80</ele>
        <time>2013-07-27T11:30:14Z</time>
      </trkpt>
      <trkpt lat="42.333791000" lon="-2.322254000">
        <ele>634.70</ele>
        <time>2013-07-27T11:30:15Z</time>
      </trkpt>
      <trkpt lat="42.333791000" lon="-2.322254000">
        <ele>634.50</ele>
        <time>2013-07-27T11:30:16Z</time>
      </trkpt>
      <trkpt lat="42.333790000" lon="-2.322255000">
        <ele>634.50</ele>
        <time>2013-07-27T11:30:17Z</time>
      </trkpt>
      <trkpt lat="42.333788000" lon="-2.322256000">
        <ele>634.40</ele>
        <time>2013-07-27T11:30:18Z</time>
      </trkpt>
      <trkpt lat="42.333788000" lon="-2.322257000">
        <ele>634.50</ele>
        <time>2013-07-27T11:30:19Z</time>
      </trkpt>
      <trkpt lat="42.333787000" lon="-2.322257000">
        <ele>634.70</ele>
        <time>2013-07-27T11:30:20Z</time>
      </trkpt>
      <trkpt lat="42.333786000" lon="-2.322258000">
        <ele>634.80</ele>
        <time>2013-07-27T11:30:21Z</time>
      </trkpt>
      <trkpt lat="42.333785000" lon="-2.322259000">
        <ele>635.00</ele>
        <time>2013-07-27T11:30:22Z</time>
      </trkpt>
      <trkpt lat="42.333784000" lon="-2.322260000">
        <ele>635.00</ele>
        <time>2013-07-27T11:30:23Z</time>
      </trkpt>
      <trkpt lat="42.333783000" lon="-2.322260000">
        <ele>635.00</ele>
        <time>2013-07-27T11:30:24Z</time>
      </trkpt>
      <trkpt lat="42.333783000" lon="-2.322260000">
        <ele>635.10</ele>
        <time>2013-07-27T11:30:25Z</time>
      </trkpt>
      <trkpt lat="42.333783000" lon="-2.322261000">
        <ele>635.20</ele>
        <time>2013-07-27T11:30:26Z</time>
      </trkpt>
      <trkpt lat="42.333782000" lon="-2.322261000">
        <ele>635.20</ele>
        <time>2013-07-27T11:30:27Z</time>
      </trkpt>
      <trkpt lat="42.333782000" lon="-2.322261000">
        <ele>635.30</ele>
        <time>2013-07-27T11:30:28Z</time>
      </trkpt>
      <trkpt lat="42.333782000" lon="-2.322261000">
        <ele>635.40</ele>
        <time>2013-07-27T11:30:29Z</time>
      </trkpt>
      <trkpt lat="42.333782000" lon="-2.322262000">
        <ele>635.50</ele>
        <time>2013-07-27T11:30:30Z</time>
      </trkpt>
      <trkpt lat="42.333781000" lon="-2.322262000">
        <ele>635.40</ele>
        <time>2013-07-27T11:30:31Z</time>
      </trkpt>
      <trkpt lat="42.333781000" lon="-2.322264000">
        <ele>635.40</ele>
        <time>2013-07-27T11:30:32Z</time>
      </trkpt>
      <trkpt lat="42.333782000" lon="-2.322265000">
        <ele>635.40</ele>
        <time>2013-07-27T11:30:33Z</time>
      </trkpt>
      <trkpt lat="42.333782000" lon="-2.322265000">
        <ele>635.40</ele>
        <time>2013-07-27T11:30:34Z</time>
      </trkpt>
      <trkpt lat="42.333782000" lon="-2.322266000">
        <ele>635.40</ele>
        <time>2013-07-27T11:30:35Z</time>
      </trkpt>
      <trkpt lat="42.333782000" lon="-2.322267000">
        <ele>635.40</ele>
        <time>2013-07-27T11:30:36Z</time>
      </trkpt>
      <trkpt lat="42.333784000" lon="-2.322268000">
        <ele>635.40</ele>
        <time>2013-07-27T11:30:37Z</time>
      </trkpt>
      <trkpt lat="42.333788000" lon="-2.322268000">
        <ele>635.50</ele>
        <time>2013-07-27T11:30:38Z</time>
      </trkpt>
      <trkpt lat="42.333788000" lon="-2.322270000">
        <ele>635.50</ele>
        <time>2013-07-27T11:30:39Z</time>
      </trkpt>
      <trkpt lat="42.333787000" lon="-2.322269000">
        <ele>635.60</ele>
        <time>2013-07-27T11:30:40Z</time>
      </trkpt>
      <trkpt lat="42.333787000" lon="-2.322269000">
        <ele>635.60</ele>
        <time>2013-07-27T11:30:41Z</time>
      </trkpt>
      <trkpt lat="42.333787000" lon="-2.322269000">
        <ele>635.60</ele>
        <time>2013-07-27T11:30:42Z</time>
      </trkpt>
      <trkpt lat="42.333786000" lon="-2.322268000">
        <ele>635.70</ele>
        <time>2013-07-27T11:30:43Z</time>
      </trkpt>
      <trkpt lat="42.333783000" lon="-2.322267000">
        <ele>635.60</ele>
        <time>2013-07-27T11:30:44Z</time>
      </trkpt>
      <trkpt lat="42.333784000" lon="-2.322266000">
        <ele>635.60</ele>
        <time>2013-07-27T11:30:45Z</time>
      </trkpt>
      <trkpt lat="42.333785000" lon="-2.322266000">
        <ele>635.50</ele>
        <time>2013-07-27T11:30:46Z</time>
      </trkpt>
      <trkpt lat="42.333785000" lon="-2.322266000">
        <ele>635.50</ele>
        <time>2013-07-27T11:30:47Z</time>
      </trkpt>
      <trkpt lat="42.333788000" lon="-2.322264000">
        <ele>635.50</ele>
        <time>2013-07-27T11:30:48Z</time>
      </trkpt>
      <trkpt lat="42.333790000" lon="-2.322267000">
        <ele>635.50</ele>
        <time>2013-07-27T11:30:49Z</time>
      </trkpt>
      <trkpt lat="42.333790000" lon="-2.322269000">
        <ele>635.40</ele>
        <time>2013-07-27T11:30:50Z</time>
      </trkpt>
      <trkpt lat="42.333792000" lon="-2.322270000">
        <ele>635.40</ele>
        <time>2013-07-27T11:30:51Z</time>
      </trkpt>
      <trkpt lat="42.333800000" lon="-2.322276000">
        <ele>635.40</ele>
        <time>2013-07-27T11:30:52Z</time>
      </trkpt>
      <trkpt lat="42.333805000" lon="-2.322291000">
        <ele>635.30</ele>
        <time>2013-07-27T11:30:53Z</time>
      </trkpt>
      <trkpt lat="42.333809000" lon="-2.322308000">
        <ele>635.30</ele>
        <time>2013-07-27T11:30:54Z</time>
      </trkpt>
      <trkpt lat="42.333813000" lon="-2.322336000">
        <ele>635.30</ele>
        <time>2013-07-27T11:30:55Z</time>
      </trkpt>
      <trkpt lat="42.333814000" lon="-2.322362000">
        <ele>635.50</ele>
        <time>2013-07-27T11:30:56Z</time>
      </trkpt>
      <trkpt lat="42.333814000" lon="-2.322389000">
        <ele>635.60</ele>
        <time>2013-07-27T11:30:57Z</time>
      </trkpt>
      <trkpt lat="42.333812000" lon="-2.322415000">
        <ele>635.50</ele>
        <time>2013-07-27T11:30:58Z</time>
      </trkpt>
      <trkpt lat="42.333808000" lon="-2.322444000">
        <ele>635.50</ele>
        <time>2013-07-27T11:30:59Z</time>
      </trkpt>
      <trkpt lat="42.333802000" lon="-2.322477000">
        <ele>635.60</ele>
        <time>2013-07-27T11:31:00Z</time>
      </trkpt>
      <trkpt lat="42.333794000" lon="-2.322519000">
        <ele>635.70</ele>
        <time>2013-07-27T11:31:01Z</time>
      </trkpt>
      <trkpt lat="42.333782000" lon="-2.322569000">
        <ele>635.80</ele>
        <time>2013-07-27T11:31:02Z</time>
      </trkpt>
      <trkpt lat="42.333763000" lon="-2.322630000">
        <ele>635.80</ele>
        <time>2013-07-27T11:31:03Z</time>
      </trkpt>
      <trkpt lat="42.333727000" lon="-2.322693000">
        <ele>635.90</ele>
        <time>2013-07-27T11:31:04Z</time>
      </trkpt>
      <trkpt lat="42.333698000" lon="-2.322766000">
        <ele>635.90</ele>
        <time>2013-07-27T11:31:05Z</time>
      </trkpt>
      <trkpt lat="42.333673000" lon="-2.322836000">
        <ele>635.50</ele>
        <time>2013-07-27T11:31:06Z</time>
      </trkpt>
      <trkpt lat="42.333669000" lon="-2.322905000">
        <ele>635.20</ele>
        <time>2013-07-27T11:31:07Z</time>
      </trkpt>
      <trkpt lat="42.333680000" lon="-2.322969000">
        <ele>634.80</ele>
        <time>2013-07-27T11:31:08Z</time>
      </trkpt>
      <trkpt lat="42.333707000" lon="-2.323021000">
        <ele>634.40</ele>
        <time>2013-07-27T11:31:09Z</time>
      </trkpt>
      <trkpt lat="42.333737000" lon="-2.323063000">
        <ele>634.00</ele>
        <time>2013-07-27T11:31:10Z</time>
      </trkpt>
      <trkpt lat="42.333766000" lon="-2.323102000">
        <ele>633.70</ele>
        <time>2013-07-27T11:31:11Z</time>
      </trkpt>
      <trkpt lat="42.333796000" lon="-2.323129000">
        <ele>633.40</ele>
        <time>2013-07-27T11:31:12Z</time>
      </trkpt>
      <trkpt lat="42.333826000" lon="-2.323150000">
        <ele>633.20</ele>
        <time>2013-07-27T11:31:13Z</time>
      </trkpt>
      <trkpt lat="42.333858000" lon="-2.323167000">
        <ele>633.00</ele>
        <time>2013-07-27T11:31:14Z</time>
      </trkpt>
      <trkpt lat="42.333891000" lon="-2.323174000">
        <ele>632.90</ele>
        <time>2013-07-27T11:31:15Z</time>
      </trkpt>
      <trkpt lat="42.333923000" lon="-2.323172000">
        <ele>632.80</ele>
        <time>2013-07-27T11:31:16Z</time>
      </trkpt>
      <trkpt lat="42.333954000" lon="-2.323160000">
        <ele>632.70</ele>
        <time>2013-07-27T11:31:17Z</time>
      </trkpt>
      <trkpt lat="42.333981000" lon="-2.323132000">
        <ele>632.60</ele>
        <time>2013-07-27T11:31:18Z</time>
      </trkpt>
      <trkpt lat="42.334007000" lon="-2.323098000">
        <ele>632.50</ele>
        <time>2013-07-27T11:31:19Z</time>
      </trkpt>
      <trkpt lat="42.334028000" lon="-2.323057000">
        <ele>632.50</ele>
        <time>2013-07-27T11:31:20Z</time>
      </trkpt>
      <trkpt lat="42.334045000" lon="-2.323015000">
        <ele>632.50</ele>
        <time>2013-07-27T11:31:21Z</time>
      </trkpt>
      <trkpt lat="42.334058000" lon="-2.322980000">
        <ele>632.40</ele>
        <time>2013-07-27T11:31:22Z</time>
      </trkpt>
      <trkpt lat="42.334068000" lon="-2.322953000">
        <ele>632.30</ele>
        <time>2013-07-27T11:31:23Z</time>
      </trkpt>
      <trkpt lat="42.334078000" lon="-2.322933000">
        <ele>632.00</ele>
        <time>2013-07-27T11:31:24Z</time>
      </trkpt>
      <trkpt lat="42.334087000" lon="-2.322914000">
        <ele>631.80</ele>
        <time>2013-07-27T11:31:25Z</time>
      </trkpt>
      <trkpt lat="42.334089000" lon="-2.322909000">
        <ele>631.60</ele>
        <time>2013-07-27T11:31:26Z</time>
      </trkpt>
      <trkpt lat="42.334087000" lon="-2.322901000">
        <ele>631.50</ele>
        <time>2013-07-27T11:31:27Z</time>
      </trkpt>
      <trkpt lat="42.334092000" lon="-2.322900000">
        <ele>631.40</ele>
        <time>2013-07-27T11:31:28Z</time>
      </trkpt>
      <trkpt lat="42.334092000" lon="-2.322895000">
        <ele>631.30</ele>
        <time>2013-07-27T11:31:29Z</time>
      </trkpt>
      <trkpt lat="42.334096000" lon="-2.322892000">
        <ele>631.20</ele>
        <time>2013-07-27T11:31:30Z</time>
      </trkpt>
      <trkpt lat="42.334095000" lon="-2.322892000">
        <ele>631.10</ele>
        <time>2013-07-27T11:31:31Z</time>
      </trkpt>
      <trkpt lat="42.334095000" lon="-2.322892000">
        <ele>631.10</ele>
        <time>2013-07-27T11:31:32Z</time>
      </trkpt>
      <trkpt lat="42.334094000" lon="-2.322887000">
        <ele>631.00</ele>
        <time>2013-07-27T11:31:33Z</time>
      </trkpt>
      <trkpt lat="42.334096000" lon="-2.322887000">
        <ele>631.00</ele>
        <time>2013-07-27T11:31:34Z</time>
      </trkpt>
      <trkpt lat="42.334097000" lon="-2.322885000">
        <ele>630.90</ele>
        <time>2013-07-27T11:31:35Z</time>
      </trkpt>
      <trkpt lat="42.334097000" lon="-2.322884000">
        <ele>630.70</ele>
        <time>2013-07-27T11:31:36Z</time>
      </trkpt>
      <trkpt lat="42.334097000" lon="-2.322883000">
        <ele>630.50</ele>
        <time>2013-07-27T11:31:37Z</time>
      </trkpt>
      <trkpt lat="42.334098000" lon="-2.322877000">
        <ele>630.30</ele>
        <time>2013-07-27T11:31:38Z</time>
      </trkpt>
      <trkpt lat="42.334097000" lon="-2.322878000">
        <ele>630.20</ele>
        <time>2013-07-27T11:31:39Z</time>
      </trkpt>
      <trkpt lat="42.334095000" lon="-2.322880000">
        <ele>630.10</ele>
        <time>2013-07-27T11:31:40Z</time>
      </trkpt>
      <trkpt lat="42.334095000" lon="-2.322880000">
        <ele>630.00</ele>
        <time>2013-07-27T11:31:41Z</time>
      </trkpt>
      <trkpt lat="42.334096000" lon="-2.322879000">
        <ele>629.90</ele>
        <time>2013-07-27T11:31:42Z</time>
      </trkpt>
      <trkpt lat="42.334097000" lon="-2.322880000">
        <ele>629.90</ele>
        <time>2013-07-27T11:31:43Z</time>
      </trkpt>
      <trkpt lat="42.334097000" lon="-2.322881000">
        <ele>629.80</ele>
        <time>2013-07-27T11:31:44Z</time>
      </trkpt>
      <trkpt lat="42.334098000" lon="-2.322880000">
        <ele>629.70</ele>
        <time>2013-07-27T11:31:45Z</time>
      </trkpt>
      <trkpt lat="42.334099000" lon="-2.322880000">
        <ele>629.50</ele>
        <time>2013-07-27T11:31:46Z</time>
      </trkpt>
      <trkpt lat="42.334099000" lon="-2.322879000">
        <ele>629.40</ele>
        <time>2013-07-27T11:31:47Z</time>
      </trkpt>
      <trkpt lat="42.334100000" lon="-2.322880000">
        <ele>629.30</ele>
        <time>2013-07-27T11:31:48Z</time>
      </trkpt>
      <trkpt lat="42.334099000" lon="-2.322880000">
        <ele>629.30</ele>
        <time>2013-07-27T11:31:49Z</time>
      </trkpt>
      <trkpt lat="42.334099000" lon="-2.322880000">
        <ele>629.30</ele>
        <time>2013-07-27T11:31:50Z</time>
      </trkpt>
      <trkpt lat="42.334100000" lon="-2.322881000">
        <ele>629.30</ele>
        <time>2013-07-27T11:31:51Z</time>
      </trkpt>
      <trkpt lat="42.334101000" lon="-2.322881000">
        <ele>629.40</ele>
        <time>2013-07-27T11:31:52Z</time>
      </trkpt>
      <trkpt lat="42.334100000" lon="-2.322880000">
        <ele>629.50</ele>
        <time>2013-07-27T11:31:53Z</time>
      </trkpt>
      <trkpt lat="42.334100000" lon="-2.322881000">
        <ele>629.60</ele>
        <time>2013-07-27T11:31:54Z</time>
      </trkpt>
      <trkpt lat="42.334100000" lon="-2.322880000">
        <ele>629.70</ele>
        <time>2013-07-27T11:31:55Z</time>
      </trkpt>
      <trkpt lat="42.334101000" lon="-2.322880000">
        <ele>629.70</ele>
        <time>2013-07-27T11:31:56Z</time>
      </trkpt>
      <trkpt lat="42.334100000" lon="-2.322879000">
        <ele>629.70</ele>
        <time>2013-07-27T11:31:57Z</time>
      </trkpt>
      <trkpt lat="42.334099000" lon="-2.322878000">
        <ele>629.70</ele>
        <time>2013-07-27T11:31:58Z</time>
      </trkpt>
      <trkpt lat="42.334100000" lon="-2.322877000">
        <ele>629.70</ele>
        <time>2013-07-27T11:31:59Z</time>
      </trkpt>
      <trkpt lat="42.334100000" lon="-2.322877000">
        <ele>629.70</ele>
        <time>2013-07-27T11:32:00Z</time>
      </trkpt>
      <trkpt lat="42.334099000" lon="-2.322876000">
        <ele>629.60</ele>
        <time>2013-07-27T11:32:01Z</time>
      </trkpt>
      <trkpt lat="42.334098000" lon="-2.322874000">
        <ele>629.60</ele>
        <time>2013-07-27T11:32:02Z</time>
      </trkpt>
      <trkpt lat="42.334098000" lon="-2.322873000">
        <ele>629.50</ele>
        <time>2013-07-27T11:32:03Z</time>
      </trkpt>
      <trkpt lat="42.334099000" lon="-2.322872000">
        <ele>629.60</ele>
        <time>2013-07-27T11:32:04Z</time>
      </trkpt>
      <trkpt lat="42.334099000" lon="-2.322871000">
        <ele>629.60</ele>
        <time>2013-07-27T11:32:05Z</time>
      </trkpt>
      <trkpt lat="42.334098000" lon="-2.322869000">
        <ele>629.60</ele>
        <time>2013-07-27T11:32:06Z</time>
      </trkpt>
      <trkpt lat="42.334098000" lon="-2.322867000">
        <ele>629.60</ele>
        <time>2013-07-27T11:32:07Z</time>
      </trkpt>
      <trkpt lat="42.334099000" lon="-2.322866000">
        <ele>629.60</ele>
        <time>2013-07-27T11:32:08Z</time>
      </trkpt>
      <trkpt lat="42.334099000" lon="-2.322866000">
        <ele>629.60</ele>
        <time>2013-07-27T11:32:09Z</time>
      </trkpt>
      <trkpt lat="42.334101000" lon="-2.322858000">
        <ele>629.60</ele>
        <time>2013-07-27T11:32:10Z</time>
      </trkpt>
      <trkpt lat="42.334114000" lon="-2.322839000">
        <ele>629.50</ele>
        <time>2013-07-27T11:32:11Z</time>
      </trkpt>
      <trkpt lat="42.334134000" lon="-2.322819000">
        <ele>629.50</ele>
        <time>2013-07-27T11:32:12Z</time>
      </trkpt>
      <trkpt lat="42.334158000" lon="-2.322795000">
        <ele>629.50</ele>
        <time>2013-07-27T11:32:13Z</time>
      </trkpt>
      <trkpt lat="42.334186000" lon="-2.322770000">
        <ele>629.50</ele>
        <time>2013-07-27T11:32:14Z</time>
      </trkpt>
      <trkpt lat="42.334215000" lon="-2.322740000">
        <ele>629.40</ele>
        <time>2013-07-27T11:32:15Z</time>
      </trkpt>
      <trkpt lat="42.334245000" lon="-2.322708000">
        <ele>629.40</ele>
        <time>2013-07-27T11:32:16Z</time>
      </trkpt>
      <trkpt lat="42.334275000" lon="-2.322674000">
        <ele>629.40</ele>
        <time>2013-07-27T11:32:17Z</time>
      </trkpt>
      <trkpt lat="42.334306000" lon="-2.322634000">
        <ele>629.00</ele>
        <time>2013-07-27T11:32:18Z</time>
      </trkpt>
      <trkpt lat="42.334339000" lon="-2.322589000">
        <ele>628.70</ele>
        <time>2013-07-27T11:32:19Z</time>
      </trkpt>
      <trkpt lat="42.334374000" lon="-2.322538000">
        <ele>628.40</ele>
        <time>2013-07-27T11:32:20Z</time>
      </trkpt>
      <trkpt lat="42.334410000" lon="-2.322484000">
        <ele>628.10</ele>
        <time>2013-07-27T11:32:21Z</time>
      </trkpt>
      <trkpt lat="42.334448000" lon="-2.322428000">
        <ele>627.80</ele>
        <time>2013-07-27T11:32:22Z</time>
      </trkpt>
      <trkpt lat="42.334483000" lon="-2.322365000">
        <ele>627.60</ele>
        <time>2013-07-27T11:32:23Z</time>
      </trkpt>
      <trkpt lat="42.334520000" lon="-2.322306000">
        <ele>627.00</ele>
        <time>2013-07-27T11:32:24Z</time>
      </trkpt>
      <trkpt lat="42.334551000" lon="-2.322247000">
        <ele>626.50</ele>
        <time>2013-07-27T11:32:25Z</time>
      </trkpt>
      <trkpt lat="42.334571000" lon="-2.322182000">
        <ele>625.60</ele>
        <time>2013-07-27T11:32:26Z</time>
      </trkpt>
      <trkpt lat="42.334589000" lon="-2.322111000">
        <ele>625.00</ele>
        <time>2013-07-27T11:32:27Z</time>
      </trkpt>
      <trkpt lat="42.334605000" lon="-2.322046000">
        <ele>624.40</ele>
        <time>2013-07-27T11:32:28Z</time>
      </trkpt>
      <trkpt lat="42.334624000" lon="-2.321993000">
        <ele>624.00</ele>
        <time>2013-07-27T11:32:29Z</time>
      </trkpt>
      <trkpt lat="42.334640000" lon="-2.321945000">
        <ele>622.60</ele>
        <time>2013-07-27T11:32:30Z</time>
      </trkpt>
      <trkpt lat="42.334656000" lon="-2.321899000">
        <ele>621.50</ele>
        <time>2013-07-27T11:32:31Z</time>
      </trkpt>
      <trkpt lat="42.334676000" lon="-2.321856000">
        <ele>620.50</ele>
        <time>2013-07-27T11:32:32Z</time>
      </trkpt>
      <trkpt lat="42.334703000" lon="-2.321819000">
        <ele>619.70</ele>
        <time>2013-07-27T11:32:33Z</time>
      </trkpt>
      <trkpt lat="42.334740000" lon="-2.321790000">
        <ele>618.80</ele>
        <time>2013-07-27T11:32:34Z</time>
      </trkpt>
      <trkpt lat="42.334783000" lon="-2.321781000">
        <ele>618.10</ele>
        <time>2013-07-27T11:32:35Z</time>
      </trkpt>
      <trkpt lat="42.334831000" lon="-2.321786000">
        <ele>617.00</ele>
        <time>2013-07-27T11:32:36Z</time>
      </trkpt>
      <trkpt lat="42.334885000" lon="-2.321807000">
        <ele>616.10</ele>
        <time>2013-07-27T11:32:37Z</time>
      </trkpt>
      <trkpt lat="42.334939000" lon="-2.321826000">
        <ele>615.00</ele>
        <time>2013-07-27T11:32:38Z</time>
      </trkpt>
      <trkpt lat="42.334997000" lon="-2.321851000">
        <ele>614.20</ele>
        <time>2013-07-27T11:32:39Z</time>
      </trkpt>
      <trkpt lat="42.335057000" lon="-2.321870000">
        <ele>613.20</ele>
        <time>2013-07-27T11:32:40Z</time>
      </trkpt>
      <trkpt lat="42.335119000" lon="-2.321879000">
        <ele>612.40</ele>
        <time>2013-07-27T11:32:41Z</time>
      </trkpt>
      <trkpt lat="42.335182000" lon="-2.321875000">
        <ele>611.60</ele>
        <time>2013-07-27T11:32:42Z</time>
      </trkpt>
      <trkpt lat="42.335244000" lon="-2.321848000">
        <ele>611.00</ele>
        <time>2013-07-27T11:32:43Z</time>
      </trkpt>
      <trkpt lat="42.335299000" lon="-2.321802000">
        <ele>610.00</ele>
        <time>2013-07-27T11:32:44Z</time>
      </trkpt>
      <trkpt lat="42.335344000" lon="-2.321734000">
        <ele>609.30</ele>
        <time>2013-07-27T11:32:45Z</time>
      </trkpt>
      <trkpt lat="42.335384000" lon="-2.321650000">
        <ele>608.50</ele>
        <time>2013-07-27T11:32:46Z</time>
      </trkpt>
      <trkpt lat="42.335429000" lon="-2.321568000">
        <ele>607.90</ele>
        <time>2013-07-27T11:32:47Z</time>
      </trkpt>
      <trkpt lat="42.335473000" lon="-2.321486000">
        <ele>606.90</ele>
        <time>2013-07-27T11:32:48Z</time>
      </trkpt>
      <trkpt lat="42.335507000" lon="-2.321399000">
        <ele>606.20</ele>
        <time>2013-07-27T11:32:49Z</time>
      </trkpt>
      <trkpt lat="42.335526000" lon="-2.321302000">
        <ele>605.10</ele>
        <time>2013-07-27T11:32:50Z</time>
      </trkpt>
      <trkpt lat="42.335536000" lon="-2.321198000">
        <ele>604.30</ele>
        <time>2013-07-27T11:32:51Z</time>
      </trkpt>
      <trkpt lat="42.335536000" lon="-2.321091000">
        <ele>603.20</ele>
        <time>2013-07-27T11:32:52Z</time>
      </trkpt>
      <trkpt lat="42.335538000" lon="-2.320985000">
        <ele>602.50</ele>
        <time>2013-07-27T11:32:53Z</time>
      </trkpt>
      <trkpt lat="42.335538000" lon="-2.320877000">
        <ele>601.50</ele>
        <time>2013-07-27T11:32:54Z</time>
      </trkpt>
      <trkpt lat="42.335537000" lon="-2.320766000">
        <ele>600.70</ele>
        <time>2013-07-27T11:32:55Z</time>
      </trkpt>
      <trkpt lat="42.335542000" lon="-2.320658000">
        <ele>599.70</ele>
        <time>2013-07-27T11:32:56Z</time>
      </trkpt>
      <trkpt lat="42.335545000" lon="-2.320555000">
        <ele>598.90</ele>
        <time>2013-07-27T11:32:57Z</time>
      </trkpt>
      <trkpt lat="42.335547000" lon="-2.320469000">
        <ele>598.00</ele>
        <time>2013-07-27T11:32:58Z</time>
      </trkpt>
      <trkpt lat="42.335548000" lon="-2.320407000">
        <ele>597.40</ele>
        <time>2013-07-27T11:32:59Z</time>
      </trkpt>
      <trkpt lat="42.335550000" lon="-2.320365000">
        <ele>596.70</ele>
        <time>2013-07-27T11:33:00Z</time>
      </trkpt>
      <trkpt lat="42.335554000" lon="-2.320330000">
        <ele>596.20</ele>
        <time>2013-07-27T11:33:01Z</time>
      </trkpt>
      <trkpt lat="42.335556000" lon="-2.320301000">
        <ele>595.50</ele>
        <time>2013-07-27T11:33:02Z</time>
      </trkpt>
      <trkpt lat="42.335557000" lon="-2.320268000">
        <ele>595.00</ele>
        <time>2013-07-27T11:33:03Z</time>
      </trkpt>
      <trkpt lat="42.335560000" lon="-2.320240000">
        <ele>594.30</ele>
        <time>2013-07-27T11:33:04Z</time>
      </trkpt>
      <trkpt lat="42.335565000" lon="-2.320212000">
        <ele>593.80</ele>
        <time>2013-07-27T11:33:05Z</time>
      </trkpt>
      <trkpt lat="42.335574000" lon="-2.320182000">
        <ele>593.30</ele>
        <time>2013-07-27T11:33:06Z</time>
      </trkpt>
      <trkpt lat="42.335587000" lon="-2.320157000">
        <ele>592.90</ele>
        <time>2013-07-27T11:33:07Z</time>
      </trkpt>
      <trkpt lat="42.335603000" lon="-2.320141000">
        <ele>592.70</ele>
        <time>2013-07-27T11:33:08Z</time>
      </trkpt>
      <trkpt lat="42.335621000" lon="-2.320129000">
        <ele>592.50</ele>
        <time>2013-07-27T11:33:09Z</time>
      </trkpt>
      <trkpt lat="42.335639000" lon="-2.320119000">
        <ele>592.30</ele>
        <time>2013-07-27T11:33:10Z</time>
      </trkpt>
      <trkpt lat="42.335657000" lon="-2.320109000">
        <ele>592.20</ele>
        <time>2013-07-27T11:33:11Z</time>
      </trkpt>
      <trkpt lat="42.335674000" lon="-2.320098000">
        <ele>591.90</ele>
        <time>2013-07-27T11:33:12Z</time>
      </trkpt>
      <trkpt lat="42.335688000" lon="-2.320084000">
        <ele>591.80</ele>
        <time>2013-07-27T11:33:13Z</time>
      </trkpt>
      <trkpt lat="42.335698000" lon="-2.320072000">
        <ele>591.50</ele>
        <time>2013-07-27T11:33:14Z</time>
      </trkpt>
      <trkpt lat="42.335710000" lon="-2.320060000">
        <ele>591.30</ele>
        <time>2013-07-27T11:33:15Z</time>
      </trkpt>
      <trkpt lat="42.335717000" lon="-2.320055000">
        <ele>591.20</ele>
        <time>2013-07-27T11:33:16Z</time>
      </trkpt>
      <trkpt lat="42.335720000" lon="-2.320050000">
        <ele>591.10</ele>
        <time>2013-07-27T11:33:17Z</time>
      </trkpt>
      <trkpt lat="42.335719000" lon="-2.320047000">
        <ele>591.00</ele>
        <time>2013-07-27T11:33:18Z</time>
      </trkpt>
      <trkpt lat="42.335718000" lon="-2.320045000">
        <ele>590.90</ele>
        <time>2013-07-27T11:33:19Z</time>
      </trkpt>
      <trkpt lat="42.335716000" lon="-2.320038000">
        <ele>590.50</ele>
        <time>2013-07-27T11:33:20Z</time>
      </trkpt>
      <trkpt lat="42.335715000" lon="-2.320030000">
        <ele>590.20</ele>
        <time>2013-07-27T11:33:21Z</time>
      </trkpt>
      <trkpt lat="42.335713000" lon="-2.320011000">
        <ele>590.00</ele>
        <time>2013-07-27T11:33:22Z</time>
      </trkpt>
      <trkpt lat="42.335710000" lon="-2.319989000">
        <ele>589.80</ele>
        <time>2013-07-27T11:33:23Z</time>
      </trkpt>
      <trkpt lat="42.335708000" lon="-2.319965000">
        <ele>589.70</ele>
        <time>2013-07-27T11:33:24Z</time>
      </trkpt>
      <trkpt lat="42.335713000" lon="-2.319942000">
        <ele>589.60</ele>
        <time>2013-07-27T11:33:25Z</time>
      </trkpt>
      <trkpt lat="42.335711000" lon="-2.319913000">
        <ele>589.80</ele>
        <time>2013-07-27T11:33:26Z</time>
      </trkpt>
      <trkpt lat="42.335703000" lon="-2.319885000">
        <ele>589.90</ele>
        <time>2013-07-27T11:33:27Z</time>
      </trkpt>
      <trkpt lat="42.335690000" lon="-2.319858000">
        <ele>590.00</ele>
        <time>2013-07-27T11:33:28Z</time>
      </trkpt>
      <trkpt lat="42.335678000" lon="-2.319833000">
        <ele>590.10</ele>
        <time>2013-07-27T11:33:29Z</time>
      </trkpt>
      <trkpt lat="42.335662000" lon="-2.319811000">
        <ele>590.10</ele>
        <time>2013-07-27T11:33:30Z</time>
      </trkpt>
      <trkpt lat="42.335652000" lon="-2.319792000">
        <ele>590.20</ele>
        <time>2013-07-27T11:33:31Z</time>
      </trkpt>
      <trkpt lat="42.335644000" lon="-2.319771000">
        <ele>590.30</ele>
        <time>2013-07-27T11:33:32Z</time>
      </trkpt>
      <trkpt lat="42.335634000" lon="-2.319750000">
        <ele>590.40</ele>
        <time>2013-07-27T11:33:33Z</time>
      </trkpt>
      <trkpt lat="42.335623000" lon="-2.319729000">
        <ele>590.50</ele>
        <time>2013-07-27T11:33:34Z</time>
      </trkpt>
      <trkpt lat="42.335611000" lon="-2.319712000">
        <ele>590.60</ele>
        <time>2013-07-27T11:33:35Z</time>
      </trkpt>
      <trkpt lat="42.335596000" lon="-2.319705000">
        <ele>590.70</ele>
        <time>2013-07-27T11:33:36Z</time>
      </trkpt>
      <trkpt lat="42.335579000" lon="-2.319703000">
        <ele>590.70</ele>
        <time>2013-07-27T11:33:37Z</time>
      </trkpt>
      <trkpt lat="42.335564000" lon="-2.319705000">
        <ele>590.90</ele>
        <time>2013-07-27T11:33:38Z</time>
      </trkpt>
      <trkpt lat="42.335547000" lon="-2.319707000">
        <ele>591.10</ele>
        <time>2013-07-27T11:33:39Z</time>
      </trkpt>
      <trkpt lat="42.335530000" lon="-2.319711000">
        <ele>591.30</ele>
        <time>2013-07-27T11:33:40Z</time>
      </trkpt>
      <trkpt lat="42.335513000" lon="-2.319716000">
        <ele>591.40</ele>
        <time>2013-07-27T11:33:41Z</time>
      </trkpt>
      <trkpt lat="42.335498000" lon="-2.319721000">
        <ele>591.50</ele>
        <time>2013-07-27T11:33:42Z</time>
      </trkpt>
      <trkpt lat="42.335483000" lon="-2.319720000">
        <ele>591.50</ele>
        <time>2013-07-27T11:33:43Z</time>
      </trkpt>
      <trkpt lat="42.335467000" lon="-2.319717000">
        <ele>591.40</ele>
        <time>2013-07-27T11:33:44Z</time>
      </trkpt>
      <trkpt lat="42.335451000" lon="-2.319716000">
        <ele>591.30</ele>
        <time>2013-07-27T11:33:45Z</time>
      </trkpt>
      <trkpt lat="42.335434000" lon="-2.319720000">
        <ele>591.30</ele>
        <time>2013-07-27T11:33:46Z</time>
      </trkpt>
      <trkpt lat="42.335419000" lon="-2.319724000">
        <ele>591.30</ele>
        <time>2013-07-27T11:33:47Z</time>
      </trkpt>
      <trkpt lat="42.335400000" lon="-2.319728000">
        <ele>591.30</ele>
        <time>2013-07-27T11:33:48Z</time>
      </trkpt>
      <trkpt lat="42.335383000" lon="-2.319732000">
        <ele>591.30</ele>
        <time>2013-07-27T11:33:49Z</time>
      </trkpt>
      <trkpt lat="42.335365000" lon="-2.319735000">
        <ele>591.30</ele>
        <time>2013-07-27T11:33:50Z</time>
      </trkpt>
      <trkpt lat="42.335349000" lon="-2.319735000">
        <ele>591.30</ele>
        <time>2013-07-27T11:33:51Z</time>
      </trkpt>
      <trkpt lat="42.335333000" lon="-2.319733000">
        <ele>591.40</ele>
        <time>2013-07-27T11:33:52Z</time>
      </trkpt>
      <trkpt lat="42.335316000" lon="-2.319731000">
        <ele>591.50</ele>
        <time>2013-07-27T11:33:53Z</time>
      </trkpt>
      <trkpt lat="42.335301000" lon="-2.319726000">
        <ele>591.60</ele>
        <time>2013-07-27T11:33:54Z</time>
      </trkpt>
      <trkpt lat="42.335301000" lon="-2.319717000">
        <ele>591.60</ele>
        <time>2013-07-27T11:33:55Z</time>
      </trkpt>
      <trkpt lat="42.335301000" lon="-2.319720000">
        <ele>591.50</ele>
        <time>2013-07-27T11:33:56Z</time>
      </trkpt>
      <trkpt lat="42.335301000" lon="-2.319721000">
        <ele>591.30</ele>
        <time>2013-07-27T11:33:57Z</time>
      </trkpt>
      <trkpt lat="42.335301000" lon="-2.319722000">
        <ele>591.30</ele>
        <time>2013-07-27T11:33:58Z</time>
      </trkpt>
      <trkpt lat="42.335300000" lon="-2.319724000">
        <ele>591.20</ele>
        <time>2013-07-27T11:33:59Z</time>
      </trkpt>
      <trkpt lat="42.335299000" lon="-2.319725000">
        <ele>591.00</ele>
        <time>2013-07-27T11:34:00Z</time>
      </trkpt>
      <trkpt lat="42.335296000" lon="-2.319727000">
        <ele>590.90</ele>
        <time>2013-07-27T11:34:01Z</time>
      </trkpt>
      <trkpt lat="42.335293000" lon="-2.319726000">
        <ele>591.50</ele>
        <time>2013-07-27T11:34:02Z</time>
      </trkpt>
      <trkpt lat="42.335293000" lon="-2.319722000">
        <ele>592.00</ele>
        <time>2013-07-27T11:34:03Z</time>
      </trkpt>
      <trkpt lat="42.335299000" lon="-2.319720000">
        <ele>592.40</ele>
        <time>2013-07-27T11:34:04Z</time>
      </trkpt>
      <trkpt lat="42.335304000" lon="-2.319726000">
        <ele>592.60</ele>
        <time>2013-07-27T11:34:05Z</time>
      </trkpt>
      <trkpt lat="42.335318000" lon="-2.319731000">
        <ele>592.90</ele>
        <time>2013-07-27T11:34:06Z</time>
      </trkpt>
      <trkpt lat="42.335331000" lon="-2.319736000">
        <ele>592.60</ele>
        <time>2013-07-27T11:34:07Z</time>
      </trkpt>
      <trkpt lat="42.335350000" lon="-2.319742000">
        <ele>592.30</ele>
        <time>2013-07-27T11:34:08Z</time>
      </trkpt>
      <trkpt lat="42.335377000" lon="-2.319742000">
        <ele>592.10</ele>
        <time>2013-07-27T11:34:09Z</time>
      </trkpt>
      <trkpt lat="42.335403000" lon="-2.319741000">
        <ele>591.80</ele>
        <time>2013-07-27T11:34:10Z</time>
      </trkpt>
      <trkpt lat="42.335428000" lon="-2.319740000">
        <ele>591.50</ele>
        <time>2013-07-27T11:34:11Z</time>
      </trkpt>
      <trkpt lat="42.335453000" lon="-2.319738000">
        <ele>591.20</ele>
        <time>2013-07-27T11:34:12Z</time>
      </trkpt>
      <trkpt lat="42.335477000" lon="-2.319738000">
        <ele>591.20</ele>
        <time>2013-07-27T11:34:13Z</time>
      </trkpt>
      <trkpt lat="42.335500000" lon="-2.319738000">
        <ele>591.20</ele>
        <time>2013-07-27T11:34:14Z</time>
      </trkpt>
      <trkpt lat="42.335522000" lon="-2.319734000">
        <ele>591.20</ele>
        <time>2013-07-27T11:34:15Z</time>
      </trkpt>
      <trkpt lat="42.335548000" lon="-2.319736000">
        <ele>591.20</ele>
        <time>2013-07-27T11:34:16Z</time>
      </trkpt>
      <trkpt lat="42.335575000" lon="-2.319741000">
        <ele>591.20</ele>
        <time>2013-07-27T11:34:17Z</time>
      </trkpt>
      <trkpt lat="42.335597000" lon="-2.319750000">
        <ele>591.20</ele>
        <time>2013-07-27T11:34:18Z</time>
      </trkpt>
      <trkpt lat="42.335616000" lon="-2.319762000">
        <ele>591.20</ele>
        <time>2013-07-27T11:34:19Z</time>
      </trkpt>
      <trkpt lat="42.335632000" lon="-2.319781000">
        <ele>591.20</ele>
        <time>2013-07-27T11:34:20Z</time>
      </trkpt>
      <trkpt lat="42.335645000" lon="-2.319801000">
        <ele>591.10</ele>
        <time>2013-07-27T11:34:21Z</time>
      </trkpt>
      <trkpt lat="42.335658000" lon="-2.319830000">
        <ele>591.10</ele>
        <time>2013-07-27T11:34:22Z</time>
      </trkpt>
      <trkpt lat="42.335671000" lon="-2.319854000">
        <ele>591.10</ele>
        <time>2013-07-27T11:34:23Z</time>
      </trkpt>
      <trkpt lat="42.335689000" lon="-2.319887000">
        <ele>591.00</ele>
        <time>2013-07-27T11:34:24Z</time>
      </trkpt>
      <trkpt lat="42.335705000" lon="-2.319920000">
        <ele>590.80</ele>
        <time>2013-07-27T11:34:25Z</time>
      </trkpt>
      <trkpt lat="42.335719000" lon="-2.319947000">
        <ele>590.70</ele>
        <time>2013-07-27T11:34:26Z</time>
      </trkpt>
      <trkpt lat="42.335730000" lon="-2.319972000">
        <ele>590.30</ele>
        <time>2013-07-27T11:34:27Z</time>
      </trkpt>
      <trkpt lat="42.335745000" lon="-2.319989000">
        <ele>590.10</ele>
        <time>2013-07-27T11:34:28Z</time>
      </trkpt>
      <trkpt lat="42.335759000" lon="-2.320003000">
        <ele>589.90</ele>
        <time>2013-07-27T11:34:29Z</time>
      </trkpt>
      <trkpt lat="42.335777000" lon="-2.320013000">
        <ele>589.80</ele>
        <time>2013-07-27T11:34:30Z</time>
      </trkpt>
      <trkpt lat="42.335795000" lon="-2.320014000">
        <ele>589.70</ele>
        <time>2013-07-27T11:34:31Z</time>
      </trkpt>
      <trkpt lat="42.335816000" lon="-2.320007000">
        <ele>589.60</ele>
        <time>2013-07-27T11:34:32Z</time>
      </trkpt>
      <trkpt lat="42.335839000" lon="-2.319984000">
        <ele>589.30</ele>
        <time>2013-07-27T11:34:33Z</time>
      </trkpt>
      <trkpt lat="42.335854000" lon="-2.319961000">
        <ele>589.00</ele>
        <time>2013-07-27T11:34:34Z</time>
      </trkpt>
      <trkpt lat="42.335862000" lon="-2.319933000">
        <ele>588.80</ele>
        <time>2013-07-27T11:34:35Z</time>
      </trkpt>
      <trkpt lat="42.335870000" lon="-2.319909000">
        <ele>588.60</ele>
        <time>2013-07-27T11:34:36Z</time>
      </trkpt>
      <trkpt lat="42.335875000" lon="-2.319898000">
        <ele>588.50</ele>
        <time>2013-07-27T11:34:37Z</time>
      </trkpt>
      <trkpt lat="42.335877000" lon="-2.319892000">
        <ele>588.50</ele>
        <time>2013-07-27T11:34:38Z</time>
      </trkpt>
      <trkpt lat="42.335872000" lon="-2.319891000">
        <ele>588.40</ele>
        <time>2013-07-27T11:34:39Z</time>
      </trkpt>
      <trkpt lat="42.335870000" lon="-2.319888000">
        <ele>588.40</ele>
        <time>2013-07-27T11:34:40Z</time>
      </trkpt>
      <trkpt lat="42.335874000" lon="-2.319883000">
        <ele>588.30</ele>
        <time>2013-07-27T11:34:41Z</time>
      </trkpt>
      <trkpt lat="42.335878000" lon="-2.319882000">
        <ele>588.20</ele>
        <time>2013-07-27T11:34:42Z</time>
      </trkpt>
      <trkpt lat="42.335879000" lon="-2.319870000">
        <ele>588.10</ele>
        <time>2013-07-27T11:34:43Z</time>
      </trkpt>
      <trkpt lat="42.335883000" lon="-2.319863000">
        <ele>588.00</ele>
        <time>2013-07-27T11:34:44Z</time>
      </trkpt>
      <trkpt lat="42.335881000" lon="-2.319842000">
        <ele>588.00</ele>
        <time>2013-07-27T11:34:45Z</time>
      </trkpt>
      <trkpt lat="42.335877000" lon="-2.319816000">
        <ele>587.90</ele>
        <time>2013-07-27T11:34:46Z</time>
      </trkpt>
      <trkpt lat="42.335875000" lon="-2.319797000">
        <ele>587.90</ele>
        <time>2013-07-27T11:34:47Z</time>
      </trkpt>
      <trkpt lat="42.335866000" lon="-2.319780000">
        <ele>587.90</ele>
        <time>2013-07-27T11:34:48Z</time>
      </trkpt>
      <trkpt lat="42.335851000" lon="-2.319752000">
        <ele>587.80</ele>
        <time>2013-07-27T11:34:49Z</time>
      </trkpt>
      <trkpt lat="42.335838000" lon="-2.319718000">
        <ele>587.80</ele>
        <time>2013-07-27T11:34:50Z</time>
      </trkpt>
      <trkpt lat="42.335823000" lon="-2.319682000">
        <ele>587.90</ele>
        <time>2013-07-27T11:34:51Z</time>
      </trkpt>
      <trkpt lat="42.335808000" lon="-2.319644000">
        <ele>588.00</ele>
        <time>2013-07-27T11:34:52Z</time>
      </trkpt>
      <trkpt lat="42.335794000" lon="-2.319612000">
        <ele>588.20</ele>
        <time>2013-07-27T11:34:53Z</time>
      </trkpt>
      <trkpt lat="42.335785000" lon="-2.319582000">
        <ele>588.40</ele>
        <time>2013-07-27T11:34:54Z</time>
      </trkpt>
      <trkpt lat="42.335778000" lon="-2.319552000">
        <ele>588.60</ele>
        <time>2013-07-27T11:34:55Z</time>
      </trkpt>
      <trkpt lat="42.335773000" lon="-2.319519000">
        <ele>588.70</ele>
        <time>2013-07-27T11:34:56Z</time>
      </trkpt>
      <trkpt lat="42.335771000" lon="-2.319487000">
        <ele>588.80</ele>
        <time>2013-07-27T11:34:57Z</time>
      </trkpt>
      <trkpt lat="42.335766000" lon="-2.319460000">
        <ele>588.90</ele>
        <time>2013-07-27T11:34:58Z</time>
      </trkpt>
      <trkpt lat="42.335768000" lon="-2.319431000">
        <ele>589.50</ele>
        <time>2013-07-27T11:34:59Z</time>
      </trkpt>
      <trkpt lat="42.335769000" lon="-2.319405000">
        <ele>589.90</ele>
        <time>2013-07-27T11:35:00Z</time>
      </trkpt>
      <trkpt lat="42.335763000" lon="-2.319383000">
        <ele>590.30</ele>
        <time>2013-07-27T11:35:01Z</time>
      </trkpt>
      <trkpt lat="42.335762000" lon="-2.319365000">
        <ele>590.60</ele>
        <time>2013-07-27T11:35:02Z</time>
      </trkpt>
      <trkpt lat="42.335763000" lon="-2.319361000">
        <ele>591.00</ele>
        <time>2013-07-27T11:35:03Z</time>
      </trkpt>
      <trkpt lat="42.335763000" lon="-2.319360000">
        <ele>591.40</ele>
        <time>2013-07-27T11:35:04Z</time>
      </trkpt>
      <trkpt lat="42.335770000" lon="-2.319358000">
        <ele>591.60</ele>
        <time>2013-07-27T11:35:05Z</time>
      </trkpt>
      <trkpt lat="42.335776000" lon="-2.319369000">
        <ele>591.80</ele>
        <time>2013-07-27T11:35:06Z</time>
      </trkpt>
      <trkpt lat="42.335777000" lon="-2.319372000">
        <ele>591.90</ele>
        <time>2013-07-27T11:35:07Z</time>
      </trkpt>
      <trkpt lat="42.335779000" lon="-2.319375000">
        <ele>592.00</ele>
        <time>2013-07-27T11:35:08Z</time>
      </trkpt>
      <trkpt lat="42.335780000" lon="-2.319376000">
        <ele>591.90</ele>
        <time>2013-07-27T11:35:09Z</time>
      </trkpt>
      <trkpt lat="42.335780000" lon="-2.319374000">
        <ele>591.70</ele>
        <time>2013-07-27T11:35:10Z</time>
      </trkpt>
      <trkpt lat="42.335778000" lon="-2.319369000">
        <ele>591.60</ele>
        <time>2013-07-27T11:35:11Z</time>
      </trkpt>
      <trkpt lat="42.335769000" lon="-2.319363000">
        <ele>591.60</ele>
        <time>2013-07-27T11:35:12Z</time>
      </trkpt>
      <trkpt lat="42.335762000" lon="-2.319352000">
        <ele>591.50</ele>
        <time>2013-07-27T11:35:13Z</time>
      </trkpt>
      <trkpt lat="42.335754000" lon="-2.319342000">
        <ele>591.50</ele>
        <time>2013-07-27T11:35:14Z</time>
      </trkpt>
      <trkpt lat="42.335750000" lon="-2.319330000">
        <ele>591.60</ele>
        <time>2013-07-27T11:35:15Z</time>
      </trkpt>
      <trkpt lat="42.335738000" lon="-2.319312000">
        <ele>591.80</ele>
        <time>2013-07-27T11:35:16Z</time>
      </trkpt>
      <trkpt lat="42.335728000" lon="-2.319298000">
        <ele>592.00</ele>
        <time>2013-07-27T11:35:17Z</time>
      </trkpt>
      <trkpt lat="42.335711000" lon="-2.319285000">
        <ele>592.20</ele>
        <time>2013-07-27T11:35:18Z</time>
      </trkpt>
      <trkpt lat="42.335693000" lon="-2.319275000">
        <ele>592.40</ele>
        <time>2013-07-27T11:35:19Z</time>
      </trkpt>
      <trkpt lat="42.335675000" lon="-2.319265000">
        <ele>592.50</ele>
        <time>2013-07-27T11:35:20Z</time>
      </trkpt>
      <trkpt lat="42.335655000" lon="-2.319252000">
        <ele>592.60</ele>
        <time>2013-07-27T11:35:21Z</time>
      </trkpt>
      <trkpt lat="42.335636000" lon="-2.319242000">
        <ele>592.60</ele>
        <time>2013-07-27T11:35:22Z</time>
      </trkpt>
      <trkpt lat="42.335619000" lon="-2.319232000">
        <ele>592.70</ele>
        <time>2013-07-27T11:35:23Z</time>
      </trkpt>
      <trkpt lat="42.335603000" lon="-2.319216000">
        <ele>592.70</ele>
        <time>2013-07-27T11:35:24Z</time>
      </trkpt>
      <trkpt lat="42.335586000" lon="-2.319204000">
        <ele>592.80</ele>
        <time>2013-07-27T11:35:25Z</time>
      </trkpt>
      <trkpt lat="42.335570000" lon="-2.319197000">
        <ele>592.90</ele>
        <time>2013-07-27T11:35:26Z</time>
      </trkpt>
      <trkpt lat="42.335552000" lon="-2.319185000">
        <ele>593.00</ele>
        <time>2013-07-27T11:35:27Z</time>
      </trkpt>
      <trkpt lat="42.335534000" lon="-2.319171000">
        <ele>593.00</ele>
        <time>2013-07-27T11:35:28Z</time>
      </trkpt>
      <trkpt lat="42.335516000" lon="-2.319160000">
        <ele>593.00</ele>
        <time>2013-07-27T11:35:29Z</time>
      </trkpt>
      <trkpt lat="42.335498000" lon="-2.319153000">
        <ele>593.00</ele>
        <time>2013-07-27T11:35:30Z</time>
      </trkpt>
      <trkpt lat="42.335480000" lon="-2.319146000">
        <ele>593.20</ele>
        <time>2013-07-27T11:35:31Z</time>
      </trkpt>
      <trkpt lat="42.335461000" lon="-2.319133000">
        <ele>593.30</ele>
        <time>2013-07-27T11:35:32Z</time>
      </trkpt>
      <trkpt lat="42.335444000" lon="-2.319121000">
        <ele>593.50</ele>
        <time>2013-07-27T11:35:33Z</time>
      </trkpt>
      <trkpt lat="42.335428000" lon="-2.319097000">
        <ele>593.60</ele>
        <time>2013-07-27T11:35:34Z</time>
      </trkpt>
      <trkpt lat="42.335408000" lon="-2.319062000">
        <ele>593.80</ele>
        <time>2013-07-27T11:35:35Z</time>
      </trkpt>
      <trkpt lat="42.335386000" lon="-2.319027000">
        <ele>593.90</ele>
        <time>2013-07-27T11:35:36Z</time>
      </trkpt>
      <trkpt lat="42.335363000" lon="-2.319004000">
        <ele>594.00</ele>
        <time>2013-07-27T11:35:37Z</time>
      </trkpt>
      <trkpt lat="42.335342000" lon="-2.318983000">
        <ele>594.10</ele>
        <time>2013-07-27T11:35:38Z</time>
      </trkpt>
      <trkpt lat="42.335322000" lon="-2.318963000">
        <ele>593.90</ele>
        <time>2013-07-27T11:35:39Z</time>
      </trkpt>
      <trkpt lat="42.335312000" lon="-2.318944000">
        <ele>593.80</ele>
        <time>2013-07-27T11:35:40Z</time>
      </trkpt>
      <trkpt lat="42.335304000" lon="-2.318927000">
        <ele>593.50</ele>
        <time>2013-07-27T11:35:41Z</time>
      </trkpt>
      <trkpt lat="42.335303000" lon="-2.318907000">
        <ele>593.30</ele>
        <time>2013-07-27T11:35:42Z</time>
      </trkpt>
      <trkpt lat="42.335308000" lon="-2.318891000">
        <ele>593.10</ele>
        <time>2013-07-27T11:35:43Z</time>
      </trkpt>
      <trkpt lat="42.335313000" lon="-2.318879000">
        <ele>593.00</ele>
        <time>2013-07-27T11:35:44Z</time>
      </trkpt>
      <trkpt lat="42.335319000" lon="-2.318866000">
        <ele>592.90</ele>
        <time>2013-07-27T11:35:45Z</time>
      </trkpt>
      <trkpt lat="42.335319000" lon="-2.318848000">
        <ele>592.80</ele>
        <time>2013-07-27T11:35:46Z</time>
      </trkpt>
      <trkpt lat="42.335317000" lon="-2.318833000">
        <ele>592.80</ele>
        <time>2013-07-27T11:35:47Z</time>
      </trkpt>
      <trkpt lat="42.335316000" lon="-2.318812000">
        <ele>592.80</ele>
        <time>2013-07-27T11:35:48Z</time>
      </trkpt>
      <trkpt lat="42.335313000" lon="-2.318795000">
        <ele>592.90</ele>
        <time>2013-07-27T11:35:49Z</time>
      </trkpt>
      <trkpt lat="42.335307000" lon="-2.318779000">
        <ele>592.90</ele>
        <time>2013-07-27T11:35:50Z</time>
      </trkpt>
      <trkpt lat="42.335303000" lon="-2.318763000">
        <ele>592.90</ele>
        <time>2013-07-27T11:35:51Z</time>
      </trkpt>
      <trkpt lat="42.335298000" lon="-2.318746000">
        <ele>592.90</ele>
        <time>2013-07-27T11:35:52Z</time>
      </trkpt>
      <trkpt lat="42.335298000" lon="-2.318729000">
        <ele>592.90</ele>
        <time>2013-07-27T11:35:53Z</time>
      </trkpt>
      <trkpt lat="42.335301000" lon="-2.318722000">
        <ele>592.80</ele>
        <time>2013-07-27T11:35:54Z</time>
      </trkpt>
      <trkpt lat="42.335300000" lon="-2.318724000">
        <ele>592.80</ele>
        <time>2013-07-27T11:35:55Z</time>
      </trkpt>
      <trkpt lat="42.335304000" lon="-2.318725000">
        <ele>592.80</ele>
        <time>2013-07-27T11:35:56Z</time>
      </trkpt>
      <trkpt lat="42.335306000" lon="-2.318726000">
        <ele>592.80</ele>
        <time>2013-07-27T11:35:57Z</time>
      </trkpt>
      <trkpt lat="42.335308000" lon="-2.318727000">
        <ele>592.80</ele>
        <time>2013-07-27T11:35:58Z</time>
      </trkpt>
      <trkpt lat="42.335307000" lon="-2.318729000">
        <ele>592.80</ele>
        <time>2013-07-27T11:35:59Z</time>
      </trkpt>
      <trkpt lat="42.335302000" lon="-2.318726000">
        <ele>592.80</ele>
        <time>2013-07-27T11:36:00Z</time>
      </trkpt>
      <trkpt lat="42.335302000" lon="-2.318724000">
        <ele>592.90</ele>
        <time>2013-07-27T11:36:01Z</time>
      </trkpt>
      <trkpt lat="42.335306000" lon="-2.318723000">
        <ele>592.90</ele>
        <time>2013-07-27T11:36:02Z</time>
      </trkpt>
      <trkpt lat="42.335313000" lon="-2.318722000">
        <ele>593.10</ele>
        <time>2013-07-27T11:36:03Z</time>
      </trkpt>
      <trkpt lat="42.335314000" lon="-2.318720000">
        <ele>593.20</ele>
        <time>2013-07-27T11:36:04Z</time>
      </trkpt>
      <trkpt lat="42.335314000" lon="-2.318720000">
        <ele>593.30</ele>
        <time>2013-07-27T11:36:05Z</time>
      </trkpt>
      <trkpt lat="42.335314000" lon="-2.318722000">
        <ele>593.40</ele>
        <time>2013-07-27T11:36:06Z</time>
      </trkpt>
      <trkpt lat="42.335318000" lon="-2.318725000">
        <ele>593.20</ele>
        <time>2013-07-27T11:36:07Z</time>
      </trkpt>
      <trkpt lat="42.335325000" lon="-2.318746000">
        <ele>593.10</ele>
        <time>2013-07-27T11:36:08Z</time>
      </trkpt>
      <trkpt lat="42.335323000" lon="-2.318760000">
        <ele>592.90</ele>
        <time>2013-07-27T11:36:09Z</time>
      </trkpt>
      <trkpt lat="42.335320000" lon="-2.318771000">
        <ele>592.80</ele>
        <time>2013-07-27T11:36:10Z</time>
      </trkpt>
      <trkpt lat="42.335323000" lon="-2.318786000">
        <ele>592.70</ele>
        <time>2013-07-27T11:36:11Z</time>
      </trkpt>
      <trkpt lat="42.335324000" lon="-2.318808000">
        <ele>592.60</ele>
        <time>2013-07-27T11:36:12Z</time>
      </trkpt>
      <trkpt lat="42.335323000" lon="-2.318830000">
        <ele>592.40</ele>
        <time>2013-07-27T11:36:13Z</time>
      </trkpt>
      <trkpt lat="42.335324000" lon="-2.318854000">
        <ele>592.30</ele>
        <time>2013-07-27T11:36:14Z</time>
      </trkpt>
      <trkpt lat="42.335326000" lon="-2.318878000">
        <ele>592.20</ele>
        <time>2013-07-27T11:36:15Z</time>
      </trkpt>
      <trkpt lat="42.335326000" lon="-2.318898000">
        <ele>592.10</ele>
        <time>2013-07-27T11:36:16Z</time>
      </trkpt>
      <trkpt lat="42.335324000" lon="-2.318918000">
        <ele>592.20</ele>
        <time>2013-07-27T11:36:17Z</time>
      </trkpt>
      <trkpt lat="42.335321000" lon="-2.318941000">
        <ele>592.40</ele>
        <time>2013-07-27T11:36:18Z</time>
      </trkpt>
      <trkpt lat="42.335320000" lon="-2.318960000">
        <ele>592.40</ele>
        <time>2013-07-27T11:36:19Z</time>
      </trkpt>
      <trkpt lat="42.335323000" lon="-2.318979000">
        <ele>592.50</ele>
        <time>2013-07-27T11:36:20Z</time>
      </trkpt>
      <trkpt lat="42.335329000" lon="-2.318999000">
        <ele>592.60</ele>
        <time>2013-07-27T11:36:21Z</time>
      </trkpt>
      <trkpt lat="42.335340000" lon="-2.319016000">
        <ele>592.60</ele>
        <time>2013-07-27T11:36:22Z</time>
      </trkpt>
      <trkpt lat="42.335352000" lon="-2.319032000">
        <ele>592.60</ele>
        <time>2013-07-27T11:36:23Z</time>
      </trkpt>
      <trkpt lat="42.335365000" lon="-2.319044000">
        <ele>592.60</ele>
        <time>2013-07-27T11:36:24Z</time>
      </trkpt>
      <trkpt lat="42.335379000" lon="-2.319054000">
        <ele>592.60</ele>
        <time>2013-07-27T11:36:25Z</time>
      </trkpt>
      <trkpt lat="42.335392000" lon="-2.319067000">
        <ele>592.60</ele>
        <time>2013-07-27T11:36:26Z</time>
      </trkpt>
      <trkpt lat="42.335403000" lon="-2.319079000">
        <ele>592.60</ele>
        <time>2013-07-27T11:36:27Z</time>
      </trkpt>
      <trkpt lat="42.335415000" lon="-2.319090000">
        <ele>592.60</ele>
        <time>2013-07-27T11:36:28Z</time>
      </trkpt>
      <trkpt lat="42.335429000" lon="-2.319102000">
        <ele>592.50</ele>
        <time>2013-07-27T11:36:29Z</time>
      </trkpt>
      <trkpt lat="42.335442000" lon="-2.319108000">
        <ele>592.40</ele>
        <time>2013-07-27T11:36:30Z</time>
      </trkpt>
      <trkpt lat="42.335458000" lon="-2.319113000">
        <ele>592.50</ele>
        <time>2013-07-27T11:36:31Z</time>
      </trkpt>
      <trkpt lat="42.335476000" lon="-2.319114000">
        <ele>592.60</ele>
        <time>2013-07-27T11:36:32Z</time>
      </trkpt>
      <trkpt lat="42.335494000" lon="-2.319113000">
        <ele>592.80</ele>
        <time>2013-07-27T11:36:33Z</time>
      </trkpt>
      <trkpt lat="42.335511000" lon="-2.319110000">
        <ele>592.90</ele>
        <time>2013-07-27T11:36:34Z</time>
      </trkpt>
      <trkpt lat="42.335526000" lon="-2.319102000">
        <ele>593.00</ele>
        <time>2013-07-27T11:36:35Z</time>
      </trkpt>
      <trkpt lat="42.335542000" lon="-2.319087000">
        <ele>593.00</ele>
        <time>2013-07-27T11:36:36Z</time>
      </trkpt>
      <trkpt lat="42.335558000" lon="-2.319064000">
        <ele>593.10</ele>
        <time>2013-07-27T11:36:37Z</time>
      </trkpt>
      <trkpt lat="42.335576000" lon="-2.319045000">
        <ele>593.10</ele>
        <time>2013-07-27T11:36:38Z</time>
      </trkpt>
      <trkpt lat="42.335593000" lon="-2.319031000">
        <ele>593.20</ele>
        <time>2013-07-27T11:36:39Z</time>
      </trkpt>
      <trkpt lat="42.335612000" lon="-2.319019000">
        <ele>593.20</ele>
        <time>2013-07-27T11:36:40Z</time>
      </trkpt>
      <trkpt lat="42.335630000" lon="-2.319009000">
        <ele>593.80</ele>
        <time>2013-07-27T11:36:41Z</time>
      </trkpt>
      <trkpt lat="42.335646000" lon="-2.319000000">
        <ele>594.20</ele>
        <time>2013-07-27T11:36:42Z</time>
      </trkpt>
      <trkpt lat="42.335661000" lon="-2.318987000">
        <ele>594.60</ele>
        <time>2013-07-27T11:36:43Z</time>
      </trkpt>
      <trkpt lat="42.335675000" lon="-2.318974000">
        <ele>594.80</ele>
        <time>2013-07-27T11:36:44Z</time>
      </trkpt>
      <trkpt lat="42.335690000" lon="-2.318960000">
        <ele>595.00</ele>
        <time>2013-07-27T11:36:45Z</time>
      </trkpt>
      <trkpt lat="42.335705000" lon="-2.318944000">
        <ele>595.20</ele>
        <time>2013-07-27T11:36:46Z</time>
      </trkpt>
      <trkpt lat="42.335720000" lon="-2.318928000">
        <ele>595.90</ele>
        <time>2013-07-27T11:36:47Z</time>
      </trkpt>
      <trkpt lat="42.335735000" lon="-2.318915000">
        <ele>596.50</ele>
        <time>2013-07-27T11:36:48Z</time>
      </trkpt>
      <trkpt lat="42.335751000" lon="-2.318900000">
        <ele>596.90</ele>
        <time>2013-07-27T11:36:49Z</time>
      </trkpt>
      <trkpt lat="42.335768000" lon="-2.318884000">
        <ele>597.30</ele>
        <time>2013-07-27T11:36:50Z</time>
      </trkpt>
      <trkpt lat="42.335785000" lon="-2.318867000">
        <ele>597.80</ele>
        <time>2013-07-27T11:36:51Z</time>
      </trkpt>
      <trkpt lat="42.335800000" lon="-2.318851000">
        <ele>598.20</ele>
        <time>2013-07-27T11:36:52Z</time>
      </trkpt>
      <trkpt lat="42.335816000" lon="-2.318840000">
        <ele>598.90</ele>
        <time>2013-07-27T11:36:53Z</time>
      </trkpt>
      <trkpt lat="42.335832000" lon="-2.318826000">
        <ele>599.40</ele>
        <time>2013-07-27T11:36:54Z</time>
      </trkpt>
      <trkpt lat="42.335848000" lon="-2.318808000">
        <ele>599.90</ele>
        <time>2013-07-27T11:36:55Z</time>
      </trkpt>
      <trkpt lat="42.335862000" lon="-2.318794000">
        <ele>600.30</ele>
        <time>2013-07-27T11:36:56Z</time>
      </trkpt>
      <trkpt lat="42.335876000" lon="-2.318780000">
        <ele>600.60</ele>
        <time>2013-07-27T11:36:57Z</time>
      </trkpt>
      <trkpt lat="42.335886000" lon="-2.318764000">
        <ele>600.90</ele>
        <time>2013-07-27T11:36:58Z</time>
      </trkpt>
      <trkpt lat="42.335897000" lon="-2.318747000">
        <ele>601.00</ele>
        <time>2013-07-27T11:36:59Z</time>
      </trkpt>
      <trkpt lat="42.335907000" lon="-2.318733000">
        <ele>601.10</ele>
        <time>2013-07-27T11:37:00Z</time>
      </trkpt>
      <trkpt lat="42.335920000" lon="-2.318717000">
        <ele>601.10</ele>
        <time>2013-07-27T11:37:01Z</time>
      </trkpt>
      <trkpt lat="42.335929000" lon="-2.318698000">
        <ele>601.20</ele>
        <time>2013-07-27T11:37:02Z</time>
      </trkpt>
      <trkpt lat="42.335940000" lon="-2.318686000">
        <ele>601.40</ele>
        <time>2013-07-27T11:37:03Z</time>
      </trkpt>
      <trkpt lat="42.335949000" lon="-2.318671000">
        <ele>601.60</ele>
        <time>2013-07-27T11:37:04Z</time>
      </trkpt>
      <trkpt lat="42.335961000" lon="-2.318649000">
        <ele>602.30</ele>
        <time>2013-07-27T11:37:05Z</time>
      </trkpt>
      <trkpt lat="42.335971000" lon="-2.318628000">
        <ele>602.80</ele>
        <time>2013-07-27T11:37:06Z</time>
      </trkpt>
      <trkpt lat="42.335979000" lon="-2.318606000">
        <ele>603.20</ele>
        <time>2013-07-27T11:37:07Z</time>
      </trkpt>
      <trkpt lat="42.335989000" lon="-2.318585000">
        <ele>603.50</ele>
        <time>2013-07-27T11:37:08Z</time>
      </trkpt>
      <trkpt lat="42.335997000" lon="-2.318564000">
        <ele>603.80</ele>
        <time>2013-07-27T11:37:09Z</time>
      </trkpt>
      <trkpt lat="42.336006000" lon="-2.318546000">
        <ele>604.00</ele>
        <time>2013-07-27T11:37:10Z</time>
      </trkpt>
      <trkpt lat="42.336017000" lon="-2.318527000">
        <ele>604.20</ele>
        <time>2013-07-27T11:37:11Z</time>
      </trkpt>
      <trkpt lat="42.336025000" lon="-2.318511000">
        <ele>604.30</ele>
        <time>2013-07-27T11:37:12Z</time>
      </trkpt>
      <trkpt lat="42.336032000" lon="-2.318495000">
        <ele>604.70</ele>
        <time>2013-07-27T11:37:13Z</time>
      </trkpt>
      <trkpt lat="42.336039000" lon="-2.318478000">
        <ele>605.00</ele>
        <time>2013-07-27T11:37:14Z</time>
      </trkpt>
      <trkpt lat="42.336045000" lon="-2.318461000">
        <ele>605.30</ele>
        <time>2013-07-27T11:37:15Z</time>
      </trkpt>
      <trkpt lat="42.336052000" lon="-2.318444000">
        <ele>605.50</ele>
        <time>2013-07-27T11:37:16Z</time>
      </trkpt>
      <trkpt lat="42.336059000" lon="-2.318432000">
        <ele>605.70</ele>
        <time>2013-07-27T11:37:17Z</time>
      </trkpt>
      <trkpt lat="42.336070000" lon="-2.318420000">
        <ele>605.90</ele>
        <time>2013-07-27T11:37:18Z</time>
      </trkpt>
      <trkpt lat="42.336081000" lon="-2.318404000">
        <ele>606.00</ele>
        <time>2013-07-27T11:37:19Z</time>
      </trkpt>
      <trkpt lat="42.336094000" lon="-2.318393000">
        <ele>606.10</ele>
        <time>2013-07-27T11:37:20Z</time>
      </trkpt>
      <trkpt lat="42.336105000" lon="-2.318378000">
        <ele>606.20</ele>
        <time>2013-07-27T11:37:21Z</time>
      </trkpt>
      <trkpt lat="42.336114000" lon="-2.318363000">
        <ele>606.20</ele>
        <time>2013-07-27T11:37:22Z</time>
      </trkpt>
      <trkpt lat="42.336123000" lon="-2.318342000">
        <ele>606.60</ele>
        <time>2013-07-27T11:37:23Z</time>
      </trkpt>
      <trkpt lat="42.336132000" lon="-2.318331000">
        <ele>606.90</ele>
        <time>2013-07-27T11:37:24Z</time>
      </trkpt>
      <trkpt lat="42.336144000" lon="-2.318317000">
        <ele>607.30</ele>
        <time>2013-07-27T11:37:25Z</time>
      </trkpt>
      <trkpt lat="42.336154000" lon="-2.318306000">
        <ele>607.50</ele>
        <time>2013-07-27T11:37:26Z</time>
      </trkpt>
      <trkpt lat="42.336167000" lon="-2.318294000">
        <ele>607.80</ele>
        <time>2013-07-27T11:37:27Z</time>
      </trkpt>
      <trkpt lat="42.336179000" lon="-2.318280000">
        <ele>608.00</ele>
        <time>2013-07-27T11:37:28Z</time>
      </trkpt>
      <trkpt lat="42.336191000" lon="-2.318266000">
        <ele>608.30</ele>
        <time>2013-07-27T11:37:29Z</time>
      </trkpt>
      <trkpt lat="42.336200000" lon="-2.318251000">
        <ele>608.40</ele>
        <time>2013-07-27T11:37:30Z</time>
      </trkpt>
      <trkpt lat="42.336211000" lon="-2.318233000">
        <ele>608.60</ele>
        <time>2013-07-27T11:37:31Z</time>
      </trkpt>
      <trkpt lat="42.336221000" lon="-2.318219000">
        <ele>608.80</ele>
        <time>2013-07-27T11:37:32Z</time>
      </trkpt>
      <trkpt lat="42.336232000" lon="-2.318205000">
        <ele>608.80</ele>
        <time>2013-07-27T11:37:33Z</time>
      </trkpt>
      <trkpt lat="42.336243000" lon="-2.318192000">
        <ele>608.90</ele>
        <time>2013-07-27T11:37:34Z</time>
      </trkpt>
      <trkpt lat="42.336253000" lon="-2.318174000">
        <ele>609.00</ele>
        <time>2013-07-27T11:37:35Z</time>
      </trkpt>
      <trkpt lat="42.336261000" lon="-2.318157000">
        <ele>609.20</ele>
        <time>2013-07-27T11:37:36Z</time>
      </trkpt>
      <trkpt lat="42.336266000" lon="-2.318139000">
        <ele>609.30</ele>
        <time>2013-07-27T11:37:37Z</time>
      </trkpt>
      <trkpt lat="42.336274000" lon="-2.318122000">
        <ele>609.60</ele>
        <time>2013-07-27T11:37:38Z</time>
      </trkpt>
      <trkpt lat="42.336282000" lon="-2.318102000">
        <ele>609.80</ele>
        <time>2013-07-27T11:37:39Z</time>
      </trkpt>
      <trkpt lat="42.336292000" lon="-2.318082000">
        <ele>610.10</ele>
        <time>2013-07-27T11:37:40Z</time>
      </trkpt>
      <trkpt lat="42.336300000" lon="-2.318064000">
        <ele>610.30</ele>
        <time>2013-07-27T11:37:41Z</time>
      </trkpt>
      <trkpt lat="42.336311000" lon="-2.318046000">
        <ele>610.50</ele>
        <time>2013-07-27T11:37:42Z</time>
      </trkpt>
      <trkpt lat="42.336322000" lon="-2.318027000">
        <ele>610.70</ele>
        <time>2013-07-27T11:37:43Z</time>
      </trkpt>
      <trkpt lat="42.336333000" lon="-2.318005000">
        <ele>610.80</ele>
        <time>2013-07-27T11:37:44Z</time>
      </trkpt>
      <trkpt lat="42.336342000" lon="-2.317982000">
        <ele>610.90</ele>
        <time>2013-07-27T11:37:45Z</time>
      </trkpt>
      <trkpt lat="42.336350000" lon="-2.317960000">
        <ele>611.10</ele>
        <time>2013-07-27T11:37:46Z</time>
      </trkpt>
      <trkpt lat="42.336361000" lon="-2.317940000">
        <ele>611.30</ele>
        <time>2013-07-27T11:37:47Z</time>
      </trkpt>
      <trkpt lat="42.336375000" lon="-2.317923000">
        <ele>611.50</ele>
        <time>2013-07-27T11:37:48Z</time>
      </trkpt>
      <trkpt lat="42.336389000" lon="-2.317906000">
        <ele>611.70</ele>
        <time>2013-07-27T11:37:49Z</time>
      </trkpt>
      <trkpt lat="42.336403000" lon="-2.317893000">
        <ele>611.80</ele>
        <time>2013-07-27T11:37:50Z</time>
      </trkpt>
      <trkpt lat="42.336417000" lon="-2.317877000">
        <ele>611.80</ele>
        <time>2013-07-27T11:37:51Z</time>
      </trkpt>
      <trkpt lat="42.336430000" lon="-2.317861000">
        <ele>611.90</ele>
        <time>2013-07-27T11:37:52Z</time>
      </trkpt>
      <trkpt lat="42.336444000" lon="-2.317846000">
        <ele>612.00</ele>
        <time>2013-07-27T11:37:53Z</time>
      </trkpt>
      <trkpt lat="42.336457000" lon="-2.317832000">
        <ele>612.10</ele>
        <time>2013-07-27T11:37:54Z</time>
      </trkpt>
      <trkpt lat="42.336470000" lon="-2.317815000">
        <ele>612.10</ele>
        <time>2013-07-27T11:37:55Z</time>
      </trkpt>
      <trkpt lat="42.336482000" lon="-2.317797000">
        <ele>612.30</ele>
        <time>2013-07-27T11:37:56Z</time>
      </trkpt>
      <trkpt lat="42.336496000" lon="-2.317782000">
        <ele>612.50</ele>
        <time>2013-07-27T11:37:57Z</time>
      </trkpt>
      <trkpt lat="42.336508000" lon="-2.317766000">
        <ele>612.60</ele>
        <time>2013-07-27T11:37:58Z</time>
      </trkpt>
      <trkpt lat="42.336520000" lon="-2.317747000">
        <ele>612.80</ele>
        <time>2013-07-27T11:37:59Z</time>
      </trkpt>
      <trkpt lat="42.336532000" lon="-2.317730000">
        <ele>612.90</ele>
        <time>2013-07-27T11:38:00Z</time>
      </trkpt>
      <trkpt lat="42.336546000" lon="-2.317719000">
        <ele>613.00</ele>
        <time>2013-07-27T11:38:01Z</time>
      </trkpt>
      <trkpt lat="42.336556000" lon="-2.317703000">
        <ele>613.30</ele>
        <time>2013-07-27T11:38:02Z</time>
      </trkpt>
      <trkpt lat="42.336568000" lon="-2.317681000">
        <ele>613.40</ele>
        <time>2013-07-27T11:38:03Z</time>
      </trkpt>
      <trkpt lat="42.336582000" lon="-2.317662000">
        <ele>613.60</ele>
        <time>2013-07-27T11:38:04Z</time>
      </trkpt>
      <trkpt lat="42.336597000" lon="-2.317639000">
        <ele>613.50</ele>
        <time>2013-07-27T11:38:05Z</time>
      </trkpt>
      <trkpt lat="42.336611000" lon="-2.317621000">
        <ele>613.50</ele>
        <time>2013-07-27T11:38:06Z</time>
      </trkpt>
      <trkpt lat="42.336623000" lon="-2.317601000">
        <ele>613.50</ele>
        <time>2013-07-27T11:38:07Z</time>
      </trkpt>
      <trkpt lat="42.336639000" lon="-2.317585000">
        <ele>613.50</ele>
        <time>2013-07-27T11:38:08Z</time>
      </trkpt>
      <trkpt lat="42.336654000" lon="-2.317569000">
        <ele>613.50</ele>
        <time>2013-07-27T11:38:09Z</time>
      </trkpt>
      <trkpt lat="42.336667000" lon="-2.317548000">
        <ele>613.40</ele>
        <time>2013-07-27T11:38:10Z</time>
      </trkpt>
      <trkpt lat="42.336680000" lon="-2.317528000">
        <ele>613.60</ele>
        <time>2013-07-27T11:38:11Z</time>
      </trkpt>
      <trkpt lat="42.336693000" lon="-2.317508000">
        <ele>613.70</ele>
        <time>2013-07-27T11:38:12Z</time>
      </trkpt>
      <trkpt lat="42.336705000" lon="-2.317490000">
        <ele>613.50</ele>
        <time>2013-07-27T11:38:13Z</time>
      </trkpt>
      <trkpt lat="42.336716000" lon="-2.317472000">
        <ele>613.40</ele>
        <time>2013-07-27T11:38:14Z</time>
      </trkpt>
      <trkpt lat="42.336724000" lon="-2.317451000">
        <ele>613.60</ele>
        <time>2013-07-27T11:38:15Z</time>
      </trkpt>
      <trkpt lat="42.336735000" lon="-2.317430000">
        <ele>613.70</ele>
        <time>2013-07-27T11:38:16Z</time>
      </trkpt>
      <trkpt lat="42.336742000" lon="-2.317409000">
        <ele>614.10</ele>
        <time>2013-07-27T11:38:17Z</time>
      </trkpt>
      <trkpt lat="42.336750000" lon="-2.317391000">
        <ele>614.40</ele>
        <time>2013-07-27T11:38:18Z</time>
      </trkpt>
      <trkpt lat="42.336755000" lon="-2.317371000">
        <ele>614.60</ele>
        <time>2013-07-27T11:38:19Z</time>
      </trkpt>
      <trkpt lat="42.336761000" lon="-2.317354000">
        <ele>614.80</ele>
        <time>2013-07-27T11:38:20Z</time>
      </trkpt>
      <trkpt lat="42.336768000" lon="-2.317331000">
        <ele>615.10</ele>
        <time>2013-07-27T11:38:21Z</time>
      </trkpt>
      <trkpt lat="42.336774000" lon="-2.317306000">
        <ele>615.40</ele>
        <time>2013-07-27T11:38:22Z</time>
      </trkpt>
      <trkpt lat="42.336777000" lon="-2.317282000">
        <ele>615.60</ele>
        <time>2013-07-27T11:38:23Z</time>
      </trkpt>
      <trkpt lat="42.336781000" lon="-2.317258000">
        <ele>615.70</ele>
        <time>2013-07-27T11:38:24Z</time>
      </trkpt>
      <trkpt lat="42.336784000" lon="-2.317235000">
        <ele>615.80</ele>
        <time>2013-07-27T11:38:25Z</time>
      </trkpt>
      <trkpt lat="42.336786000" lon="-2.317210000">
        <ele>615.90</ele>
        <time>2013-07-27T11:38:26Z</time>
      </trkpt>
      <trkpt lat="42.336793000" lon="-2.317184000">
        <ele>616.00</ele>
        <time>2013-07-27T11:38:27Z</time>
      </trkpt>
      <trkpt lat="42.336797000" lon="-2.317161000">
        <ele>616.10</ele>
        <time>2013-07-27T11:38:28Z</time>
      </trkpt>
      <trkpt lat="42.336799000" lon="-2.317142000">
        <ele>616.60</ele>
        <time>2013-07-27T11:38:29Z</time>
      </trkpt>
      <trkpt lat="42.336804000" lon="-2.317120000">
        <ele>617.00</ele>
        <time>2013-07-27T11:38:30Z</time>
      </trkpt>
      <trkpt lat="42.336810000" lon="-2.317097000">
        <ele>617.30</ele>
        <time>2013-07-27T11:38:31Z</time>
      </trkpt>
      <trkpt lat="42.336817000" lon="-2.317076000">
        <ele>617.60</ele>
        <time>2013-07-27T11:38:32Z</time>
      </trkpt>
      <trkpt lat="42.336823000" lon="-2.317052000">
        <ele>617.70</ele>
        <time>2013-07-27T11:38:33Z</time>
      </trkpt>
      <trkpt lat="42.336825000" lon="-2.317030000">
        <ele>617.90</ele>
        <time>2013-07-27T11:38:34Z</time>
      </trkpt>
      <trkpt lat="42.336828000" lon="-2.317009000">
        <ele>618.10</ele>
        <time>2013-07-27T11:38:35Z</time>
      </trkpt>
      <trkpt lat="42.336837000" lon="-2.316988000">
        <ele>618.20</ele>
        <time>2013-07-27T11:38:36Z</time>
      </trkpt>
      <trkpt lat="42.336842000" lon="-2.316969000">
        <ele>618.50</ele>
        <time>2013-07-27T11:38:37Z</time>
      </trkpt>
      <trkpt lat="42.336848000" lon="-2.316949000">
        <ele>618.80</ele>
        <time>2013-07-27T11:38:38Z</time>
      </trkpt>
      <trkpt lat="42.336854000" lon="-2.316930000">
        <ele>619.00</ele>
        <time>2013-07-27T11:38:39Z</time>
      </trkpt>
      <trkpt lat="42.336864000" lon="-2.316912000">
        <ele>619.20</ele>
        <time>2013-07-27T11:38:40Z</time>
      </trkpt>
      <trkpt lat="42.336872000" lon="-2.316894000">
        <ele>619.30</ele>
        <time>2013-07-27T11:38:41Z</time>
      </trkpt>
      <trkpt lat="42.336882000" lon="-2.316872000">
        <ele>619.40</ele>
        <time>2013-07-27T11:38:42Z</time>
      </trkpt>
      <trkpt lat="42.336890000" lon="-2.316850000">
        <ele>619.50</ele>
        <time>2013-07-27T11:38:43Z</time>
      </trkpt>
      <trkpt lat="42.336898000" lon="-2.316832000">
        <ele>619.70</ele>
        <time>2013-07-27T11:38:44Z</time>
      </trkpt>
      <trkpt lat="42.336905000" lon="-2.316815000">
        <ele>620.30</ele>
        <time>2013-07-27T11:38:45Z</time>
      </trkpt>
      <trkpt lat="42.336913000" lon="-2.316797000">
        <ele>620.80</ele>
        <time>2013-07-27T11:38:46Z</time>
      </trkpt>
      <trkpt lat="42.336920000" lon="-2.316778000">
        <ele>621.10</ele>
        <time>2013-07-27T11:38:47Z</time>
      </trkpt>
      <trkpt lat="42.336927000" lon="-2.316757000">
        <ele>621.40</ele>
        <time>2013-07-27T11:38:48Z</time>
      </trkpt>
      <trkpt lat="42.336935000" lon="-2.316737000">
        <ele>621.70</ele>
        <time>2013-07-27T11:38:49Z</time>
      </trkpt>
      <trkpt lat="42.336942000" lon="-2.316718000">
        <ele>622.00</ele>
        <time>2013-07-27T11:38:50Z</time>
      </trkpt>
      <trkpt lat="42.336951000" lon="-2.316698000">
        <ele>622.20</ele>
        <time>2013-07-27T11:38:51Z</time>
      </trkpt>
      <trkpt lat="42.336959000" lon="-2.316676000">
        <ele>622.30</ele>
        <time>2013-07-27T11:38:52Z</time>
      </trkpt>
      <trkpt lat="42.336968000" lon="-2.316655000">
        <ele>622.40</ele>
        <time>2013-07-27T11:38:53Z</time>
      </trkpt>
      <trkpt lat="42.336975000" lon="-2.316633000">
        <ele>622.50</ele>
        <time>2013-07-27T11:38:54Z</time>
      </trkpt>
      <trkpt lat="42.336986000" lon="-2.316613000">
        <ele>622.50</ele>
        <time>2013-07-27T11:38:55Z</time>
      </trkpt>
      <trkpt lat="42.336997000" lon="-2.316595000">
        <ele>622.50</ele>
        <time>2013-07-27T11:38:56Z</time>
      </trkpt>
      <trkpt lat="42.337010000" lon="-2.316575000">
        <ele>622.70</ele>
        <time>2013-07-27T11:38:57Z</time>
      </trkpt>
      <trkpt lat="42.337028000" lon="-2.316555000">
        <ele>622.80</ele>
        <time>2013-07-27T11:38:58Z</time>
      </trkpt>
      <trkpt lat="42.337047000" lon="-2.316540000">
        <ele>622.90</ele>
        <time>2013-07-27T11:38:59Z</time>
      </trkpt>
      <trkpt lat="42.337067000" lon="-2.316524000">
        <ele>623.00</ele>
        <time>2013-07-27T11:39:00Z</time>
      </trkpt>
      <trkpt lat="42.337089000" lon="-2.316501000">
        <ele>623.20</ele>
        <time>2013-07-27T11:39:01Z</time>
      </trkpt>
      <trkpt lat="42.337114000" lon="-2.316473000">
        <ele>623.30</ele>
        <time>2013-07-27T11:39:02Z</time>
      </trkpt>
      <trkpt lat="42.337140000" lon="-2.316445000">
        <ele>623.30</ele>
        <time>2013-07-27T11:39:03Z</time>
      </trkpt>
      <trkpt lat="42.337167000" lon="-2.316414000">
        <ele>623.40</ele>
        <time>2013-07-27T11:39:04Z</time>
      </trkpt>
      <trkpt lat="42.337194000" lon="-2.316379000">
        <ele>623.20</ele>
        <time>2013-07-27T11:39:05Z</time>
      </trkpt>
      <trkpt lat="42.337224000" lon="-2.316348000">
        <ele>623.10</ele>
        <time>2013-07-27T11:39:06Z</time>
      </trkpt>
      <trkpt lat="42.337259000" lon="-2.316313000">
        <ele>623.00</ele>
        <time>2013-07-27T11:39:07Z</time>
      </trkpt>
      <trkpt lat="42.337291000" lon="-2.316281000">
        <ele>622.90</ele>
        <time>2013-07-27T11:39:08Z</time>
      </trkpt>
      <trkpt lat="42.337327000" lon="-2.316250000">
        <ele>622.80</ele>
        <time>2013-07-27T11:39:09Z</time>
      </trkpt>
      <trkpt lat="42.337361000" lon="-2.316220000">
        <ele>622.80</ele>
        <time>2013-07-27T11:39:10Z</time>
      </trkpt>
      <trkpt lat="42.337395000" lon="-2.316190000">
        <ele>622.50</ele>
        <time>2013-07-27T11:39:11Z</time>
      </trkpt>
      <trkpt lat="42.337429000" lon="-2.316163000">
        <ele>622.20</ele>
        <time>2013-07-27T11:39:12Z</time>
      </trkpt>
      <trkpt lat="42.337459000" lon="-2.316137000">
        <ele>622.00</ele>
        <time>2013-07-27T11:39:13Z</time>
      </trkpt>
      <trkpt lat="42.337488000" lon="-2.316111000">
        <ele>621.90</ele>
        <time>2013-07-27T11:39:14Z</time>
      </trkpt>
      <trkpt lat="42.337519000" lon="-2.316085000">
        <ele>622.10</ele>
        <time>2013-07-27T11:39:15Z</time>
      </trkpt>
      <trkpt lat="42.337550000" lon="-2.316055000">
        <ele>622.20</ele>
        <time>2013-07-27T11:39:16Z</time>
      </trkpt>
      <trkpt lat="42.337582000" lon="-2.316023000">
        <ele>622.30</ele>
        <time>2013-07-27T11:39:17Z</time>
      </trkpt>
      <trkpt lat="42.337614000" lon="-2.315988000">
        <ele>622.40</ele>
        <time>2013-07-27T11:39:18Z</time>
      </trkpt>
      <trkpt lat="42.337646000" lon="-2.315954000">
        <ele>622.40</ele>
        <time>2013-07-27T11:39:19Z</time>
      </trkpt>
      <trkpt lat="42.337677000" lon="-2.315916000">
        <ele>622.40</ele>
        <time>2013-07-27T11:39:20Z</time>
      </trkpt>
      <trkpt lat="42.337707000" lon="-2.315881000">
        <ele>622.20</ele>
        <time>2013-07-27T11:39:21Z</time>
      </trkpt>
      <trkpt lat="42.337735000" lon="-2.315844000">
        <ele>622.00</ele>
        <time>2013-07-27T11:39:22Z</time>
      </trkpt>
      <trkpt lat="42.337764000" lon="-2.315810000">
        <ele>622.30</ele>
        <time>2013-07-27T11:39:23Z</time>
      </trkpt>
      <trkpt lat="42.337790000" lon="-2.315775000">
        <ele>622.50</ele>
        <time>2013-07-27T11:39:24Z</time>
      </trkpt>
      <trkpt lat="42.337817000" lon="-2.315741000">
        <ele>622.60</ele>
        <time>2013-07-27T11:39:25Z</time>
      </trkpt>
      <trkpt lat="42.337847000" lon="-2.315708000">
        <ele>622.70</ele>
        <time>2013-07-27T11:39:26Z</time>
      </trkpt>
      <trkpt lat="42.337877000" lon="-2.315681000">
        <ele>622.80</ele>
        <time>2013-07-27T11:39:27Z</time>
      </trkpt>
      <trkpt lat="42.337910000" lon="-2.315656000">
        <ele>622.80</ele>
        <time>2013-07-27T11:39:28Z</time>
      </trkpt>
      <trkpt lat="42.337941000" lon="-2.315630000">
        <ele>623.40</ele>
        <time>2013-07-27T11:39:29Z</time>
      </trkpt>
      <trkpt lat="42.337974000" lon="-2.315607000">
        <ele>623.80</ele>
        <time>2013-07-27T11:39:30Z</time>
      </trkpt>
      <trkpt lat="42.338008000" lon="-2.315584000">
        <ele>624.10</ele>
        <time>2013-07-27T11:39:31Z</time>
      </trkpt>
      <trkpt lat="42.338042000" lon="-2.315559000">
        <ele>624.30</ele>
        <time>2013-07-27T11:39:32Z</time>
      </trkpt>
      <trkpt lat="42.338073000" lon="-2.315532000">
        <ele>624.30</ele>
        <time>2013-07-27T11:39:33Z</time>
      </trkpt>
      <trkpt lat="42.338100000" lon="-2.315505000">
        <ele>624.30</ele>
        <time>2013-07-27T11:39:34Z</time>
      </trkpt>
      <trkpt lat="42.338125000" lon="-2.315475000">
        <ele>624.30</ele>
        <time>2013-07-27T11:39:35Z</time>
      </trkpt>
      <trkpt lat="42.338149000" lon="-2.315444000">
        <ele>624.30</ele>
        <time>2013-07-27T11:39:36Z</time>
      </trkpt>
      <trkpt lat="42.338171000" lon="-2.315412000">
        <ele>624.30</ele>
        <time>2013-07-27T11:39:37Z</time>
      </trkpt>
      <trkpt lat="42.338190000" lon="-2.315377000">
        <ele>624.30</ele>
        <time>2013-07-27T11:39:38Z</time>
      </trkpt>
      <trkpt lat="42.338209000" lon="-2.315346000">
        <ele>624.40</ele>
        <time>2013-07-27T11:39:39Z</time>
      </trkpt>
      <trkpt lat="42.338232000" lon="-2.315312000">
        <ele>624.50</ele>
        <time>2013-07-27T11:39:40Z</time>
      </trkpt>
      <trkpt lat="42.338256000" lon="-2.315281000">
        <ele>624.60</ele>
        <time>2013-07-27T11:39:41Z</time>
      </trkpt>
      <trkpt lat="42.338282000" lon="-2.315248000">
        <ele>624.60</ele>
        <time>2013-07-27T11:39:42Z</time>
      </trkpt>
      <trkpt lat="42.338310000" lon="-2.315216000">
        <ele>624.70</ele>
        <time>2013-07-27T11:39:43Z</time>
      </trkpt>
      <trkpt lat="42.338339000" lon="-2.315182000">
        <ele>624.80</ele>
        <time>2013-07-27T11:39:44Z</time>
      </trkpt>
      <trkpt lat="42.338369000" lon="-2.315154000">
        <ele>625.00</ele>
        <time>2013-07-27T11:39:45Z</time>
      </trkpt>
      <trkpt lat="42.338398000" lon="-2.315126000">
        <ele>625.10</ele>
        <time>2013-07-27T11:39:46Z</time>
      </trkpt>
      <trkpt lat="42.338429000" lon="-2.315097000">
        <ele>625.10</ele>
        <time>2013-07-27T11:39:47Z</time>
      </trkpt>
      <trkpt lat="42.338463000" lon="-2.315068000">
        <ele>625.10</ele>
        <time>2013-07-27T11:39:48Z</time>
      </trkpt>
      <trkpt lat="42.338495000" lon="-2.315034000">
        <ele>624.80</ele>
        <time>2013-07-27T11:39:49Z</time>
      </trkpt>
      <trkpt lat="42.338531000" lon="-2.314998000">
        <ele>624.60</ele>
        <time>2013-07-27T11:39:50Z</time>
      </trkpt>
      <trkpt lat="42.338566000" lon="-2.314954000">
        <ele>624.40</ele>
        <time>2013-07-27T11:39:51Z</time>
      </trkpt>
      <trkpt lat="42.338603000" lon="-2.314905000">
        <ele>624.30</ele>
        <time>2013-07-27T11:39:52Z</time>
      </trkpt>
      <trkpt lat="42.338636000" lon="-2.314854000">
        <ele>624.20</ele>
        <time>2013-07-27T11:39:53Z</time>
      </trkpt>
      <trkpt lat="42.338668000" lon="-2.314801000">
        <ele>624.10</ele>
        <time>2013-07-27T11:39:54Z</time>
      </trkpt>
      <trkpt lat="42.338702000" lon="-2.314751000">
        <ele>624.20</ele>
        <time>2013-07-27T11:39:55Z</time>
      </trkpt>
      <trkpt lat="42.338736000" lon="-2.314698000">
        <ele>624.20</ele>
        <time>2013-07-27T11:39:56Z</time>
      </trkpt>
      <trkpt lat="42.338771000" lon="-2.314640000">
        <ele>624.30</ele>
        <time>2013-07-27T11:39:57Z</time>
      </trkpt>
      <trkpt lat="42.338811000" lon="-2.314583000">
        <ele>624.30</ele>
        <time>2013-07-27T11:39:58Z</time>
      </trkpt>
      <trkpt lat="42.338850000" lon="-2.314524000">
        <ele>624.30</ele>
        <time>2013-07-27T11:39:59Z</time>
      </trkpt>
      <trkpt lat="42.338890000" lon="-2.314470000">
        <ele>624.30</ele>
        <time>2013-07-27T11:40:00Z</time>
      </trkpt>
      <trkpt lat="42.338930000" lon="-2.314413000">
        <ele>623.90</ele>
        <time>2013-07-27T11:40:01Z</time>
      </trkpt>
      <trkpt lat="42.338971000" lon="-2.314362000">
        <ele>623.60</ele>
        <time>2013-07-27T11:40:02Z</time>
      </trkpt>
      <trkpt lat="42.339012000" lon="-2.314308000">
        <ele>622.90</ele>
        <time>2013-07-27T11:40:03Z</time>
      </trkpt>
      <trkpt lat="42.339051000" lon="-2.314258000">
        <ele>622.40</ele>
        <time>2013-07-27T11:40:04Z</time>
      </trkpt>
      <trkpt lat="42.339089000" lon="-2.314213000">
        <ele>621.90</ele>
        <time>2013-07-27T11:40:05Z</time>
      </trkpt>
      <trkpt lat="42.339127000" lon="-2.314166000">
        <ele>621.60</ele>
        <time>2013-07-27T11:40:06Z</time>
      </trkpt>
      <trkpt lat="42.339163000" lon="-2.314121000">
        <ele>621.20</ele>
        <time>2013-07-27T11:40:07Z</time>
      </trkpt>
      <trkpt lat="42.339197000" lon="-2.314073000">
        <ele>621.00</ele>
        <time>2013-07-27T11:40:08Z</time>
      </trkpt>
      <trkpt lat="42.339230000" lon="-2.314027000">
        <ele>620.50</ele>
        <time>2013-07-27T11:40:09Z</time>
      </trkpt>
      <trkpt lat="42.339260000" lon="-2.313978000">
        <ele>620.20</ele>
        <time>2013-07-27T11:40:10Z</time>
      </trkpt>
      <trkpt lat="42.339290000" lon="-2.313929000">
        <ele>619.90</ele>
        <time>2013-07-27T11:40:11Z</time>
      </trkpt>
      <trkpt lat="42.339314000" lon="-2.313876000">
        <ele>619.80</ele>
        <time>2013-07-27T11:40:12Z</time>
      </trkpt>
      <trkpt lat="42.339336000" lon="-2.313824000">
        <ele>619.60</ele>
        <time>2013-07-27T11:40:13Z</time>
      </trkpt>
      <trkpt lat="42.339356000" lon="-2.313768000">
        <ele>619.50</ele>
        <time>2013-07-27T11:40:14Z</time>
      </trkpt>
      <trkpt lat="42.339375000" lon="-2.313712000">
        <ele>619.80</ele>
        <time>2013-07-27T11:40:15Z</time>
      </trkpt>
      <trkpt lat="42.339389000" lon="-2.313651000">
        <ele>620.00</ele>
        <time>2013-07-27T11:40:16Z</time>
      </trkpt>
      <trkpt lat="42.339401000" lon="-2.313587000">
        <ele>620.40</ele>
        <time>2013-07-27T11:40:17Z</time>
      </trkpt>
      <trkpt lat="42.339414000" lon="-2.313522000">
        <ele>620.70</ele>
        <time>2013-07-27T11:40:18Z</time>
      </trkpt>
      <trkpt lat="42.339429000" lon="-2.313456000">
        <ele>621.00</ele>
        <time>2013-07-27T11:40:19Z</time>
      </trkpt>
      <trkpt lat="42.339443000" lon="-2.313391000">
        <ele>621.20</ele>
        <time>2013-07-27T11:40:20Z</time>
      </trkpt>
      <trkpt lat="42.339459000" lon="-2.313323000">
        <ele>620.90</ele>
        <time>2013-07-27T11:40:21Z</time>
      </trkpt>
      <trkpt lat="42.339484000" lon="-2.313254000">
        <ele>620.70</ele>
        <time>2013-07-27T11:40:22Z</time>
      </trkpt>
      <trkpt lat="42.339515000" lon="-2.313192000">
        <ele>619.60</ele>
        <time>2013-07-27T11:40:23Z</time>
      </trkpt>
      <trkpt lat="42.339557000" lon="-2.313143000">
        <ele>618.90</ele>
        <time>2013-07-27T11:40:24Z</time>
      </trkpt>
      <trkpt lat="42.339604000" lon="-2.313107000">
        <ele>618.30</ele>
        <time>2013-07-27T11:40:25Z</time>
      </trkpt>
      <trkpt lat="42.339656000" lon="-2.313088000">
        <ele>617.80</ele>
        <time>2013-07-27T11:40:26Z</time>
      </trkpt>
      <trkpt lat="42.339705000" lon="-2.313080000">
        <ele>617.50</ele>
        <time>2013-07-27T11:40:27Z</time>
      </trkpt>
      <trkpt lat="42.339754000" lon="-2.313074000">
        <ele>617.30</ele>
        <time>2013-07-27T11:40:28Z</time>
      </trkpt>
      <trkpt lat="42.339804000" lon="-2.313073000">
        <ele>617.10</ele>
        <time>2013-07-27T11:40:29Z</time>
      </trkpt>
      <trkpt lat="42.339851000" lon="-2.313073000">
        <ele>617.00</ele>
        <time>2013-07-27T11:40:30Z</time>
      </trkpt>
      <trkpt lat="42.339897000" lon="-2.313071000">
        <ele>616.90</ele>
        <time>2013-07-27T11:40:31Z</time>
      </trkpt>
      <trkpt lat="42.339941000" lon="-2.313065000">
        <ele>616.90</ele>
        <time>2013-07-27T11:40:32Z</time>
      </trkpt>
      <trkpt lat="42.339984000" lon="-2.313060000">
        <ele>617.30</ele>
        <time>2013-07-27T11:40:33Z</time>
      </trkpt>
      <trkpt lat="42.340030000" lon="-2.313047000">
        <ele>617.70</ele>
        <time>2013-07-27T11:40:34Z</time>
      </trkpt>
      <trkpt lat="42.340075000" lon="-2.313029000">
        <ele>617.90</ele>
        <time>2013-07-27T11:40:35Z</time>
      </trkpt>
      <trkpt lat="42.340115000" lon="-2.313010000">
        <ele>618.10</ele>
        <time>2013-07-27T11:40:36Z</time>
      </trkpt>
      <trkpt lat="42.340150000" lon="-2.312987000">
        <ele>618.10</ele>
        <time>2013-07-27T11:40:37Z</time>
      </trkpt>
      <trkpt lat="42.340181000" lon="-2.312964000">
        <ele>618.20</ele>
        <time>2013-07-27T11:40:38Z</time>
      </trkpt>
      <trkpt lat="42.340208000" lon="-2.312940000">
        <ele>618.30</ele>
        <time>2013-07-27T11:40:39Z</time>
      </trkpt>
      <trkpt lat="42.340231000" lon="-2.312911000">
        <ele>618.40</ele>
        <time>2013-07-27T11:40:40Z</time>
      </trkpt>
      <trkpt lat="42.340252000" lon="-2.312888000">
        <ele>618.40</ele>
        <time>2013-07-27T11:40:41Z</time>
      </trkpt>
      <trkpt lat="42.340269000" lon="-2.312863000">
        <ele>618.70</ele>
        <time>2013-07-27T11:40:42Z</time>
      </trkpt>
      <trkpt lat="42.340283000" lon="-2.312838000">
        <ele>619.00</ele>
        <time>2013-07-27T11:40:43Z</time>
      </trkpt>
      <trkpt lat="42.340296000" lon="-2.312815000">
        <ele>619.30</ele>
        <time>2013-07-27T11:40:44Z</time>
      </trkpt>
      <trkpt lat="42.340310000" lon="-2.312794000">
        <ele>619.60</ele>
        <time>2013-07-27T11:40:45Z</time>
      </trkpt>
      <trkpt lat="42.340326000" lon="-2.312769000">
        <ele>620.00</ele>
        <time>2013-07-27T11:40:46Z</time>
      </trkpt>
      <trkpt lat="42.340347000" lon="-2.312741000">
        <ele>620.20</ele>
        <time>2013-07-27T11:40:47Z</time>
      </trkpt>
      <trkpt lat="42.340378000" lon="-2.312704000">
        <ele>620.30</ele>
        <time>2013-07-27T11:40:48Z</time>
      </trkpt>
      <trkpt lat="42.340419000" lon="-2.312666000">
        <ele>620.30</ele>
        <time>2013-07-27T11:40:49Z</time>
      </trkpt>
      <trkpt lat="42.340464000" lon="-2.312629000">
        <ele>620.00</ele>
        <time>2013-07-27T11:40:50Z</time>
      </trkpt>
      <trkpt lat="42.340512000" lon="-2.312591000">
        <ele>619.80</ele>
        <time>2013-07-27T11:40:51Z</time>
      </trkpt>
      <trkpt lat="42.340555000" lon="-2.312547000">
        <ele>619.60</ele>
        <time>2013-07-27T11:40:52Z</time>
      </trkpt>
      <trkpt lat="42.340585000" lon="-2.312491000">
        <ele>619.40</ele>
        <time>2013-07-27T11:40:53Z</time>
      </trkpt>
      <trkpt lat="42.340612000" lon="-2.312433000">
        <ele>619.10</ele>
        <time>2013-07-27T11:40:54Z</time>
      </trkpt>
      <trkpt lat="42.340638000" lon="-2.312382000">
        <ele>618.90</ele>
        <time>2013-07-27T11:40:55Z</time>
      </trkpt>
      <trkpt lat="42.340660000" lon="-2.312322000">
        <ele>618.50</ele>
        <time>2013-07-27T11:40:56Z</time>
      </trkpt>
      <trkpt lat="42.340673000" lon="-2.312262000">
        <ele>618.30</ele>
        <time>2013-07-27T11:40:57Z</time>
      </trkpt>
      <trkpt lat="42.340682000" lon="-2.312203000">
        <ele>618.10</ele>
        <time>2013-07-27T11:40:58Z</time>
      </trkpt>
      <trkpt lat="42.340688000" lon="-2.312142000">
        <ele>617.90</ele>
        <time>2013-07-27T11:40:59Z</time>
      </trkpt>
      <trkpt lat="42.340695000" lon="-2.312082000">
        <ele>618.20</ele>
        <time>2013-07-27T11:41:00Z</time>
      </trkpt>
      <trkpt lat="42.340702000" lon="-2.312021000">
        <ele>618.30</ele>
        <time>2013-07-27T11:41:01Z</time>
      </trkpt>
      <trkpt lat="42.340709000" lon="-2.311955000">
        <ele>618.50</ele>
        <time>2013-07-27T11:41:02Z</time>
      </trkpt>
      <trkpt lat="42.340718000" lon="-2.311896000">
        <ele>618.50</ele>
        <time>2013-07-27T11:41:03Z</time>
      </trkpt>
      <trkpt lat="42.340729000" lon="-2.311830000">
        <ele>619.00</ele>
        <time>2013-07-27T11:41:04Z</time>
      </trkpt>
      <trkpt lat="42.340740000" lon="-2.311767000">
        <ele>619.30</ele>
        <time>2013-07-27T11:41:05Z</time>
      </trkpt>
      <trkpt lat="42.340751000" lon="-2.311707000">
        <ele>619.50</ele>
        <time>2013-07-27T11:41:06Z</time>
      </trkpt>
      <trkpt lat="42.340765000" lon="-2.311652000">
        <ele>619.70</ele>
        <time>2013-07-27T11:41:07Z</time>
      </trkpt>
      <trkpt lat="42.340780000" lon="-2.311602000">
        <ele>619.80</ele>
        <time>2013-07-27T11:41:08Z</time>
      </trkpt>
      <trkpt lat="42.340795000" lon="-2.311556000">
        <ele>620.00</ele>
        <time>2013-07-27T11:41:09Z</time>
      </trkpt>
      <trkpt lat="42.340809000" lon="-2.311507000">
        <ele>619.50</ele>
        <time>2013-07-27T11:41:10Z</time>
      </trkpt>
      <trkpt lat="42.340822000" lon="-2.311455000">
        <ele>619.20</ele>
        <time>2013-07-27T11:41:11Z</time>
      </trkpt>
      <trkpt lat="42.340836000" lon="-2.311403000">
        <ele>618.80</ele>
        <time>2013-07-27T11:41:12Z</time>
      </trkpt>
      <trkpt lat="42.340846000" lon="-2.311354000">
        <ele>618.60</ele>
        <time>2013-07-27T11:41:13Z</time>
      </trkpt>
      <trkpt lat="42.340855000" lon="-2.311301000">
        <ele>618.50</ele>
        <time>2013-07-27T11:41:14Z</time>
      </trkpt>
      <trkpt lat="42.340861000" lon="-2.311251000">
        <ele>618.40</ele>
        <time>2013-07-27T11:41:15Z</time>
      </trkpt>
      <trkpt lat="42.340868000" lon="-2.311202000">
        <ele>618.60</ele>
        <time>2013-07-27T11:41:16Z</time>
      </trkpt>
      <trkpt lat="42.340872000" lon="-2.311154000">
        <ele>618.70</ele>
        <time>2013-07-27T11:41:17Z</time>
      </trkpt>
      <trkpt lat="42.340874000" lon="-2.311099000">
        <ele>618.80</ele>
        <time>2013-07-27T11:41:18Z</time>
      </trkpt>
      <trkpt lat="42.340875000" lon="-2.311052000">
        <ele>618.90</ele>
        <time>2013-07-27T11:41:19Z</time>
      </trkpt>
      <trkpt lat="42.340874000" lon="-2.311002000">
        <ele>618.90</ele>
        <time>2013-07-27T11:41:20Z</time>
      </trkpt>
      <trkpt lat="42.340875000" lon="-2.310957000">
        <ele>619.00</ele>
        <time>2013-07-27T11:41:21Z</time>
      </trkpt>
      <trkpt lat="42.340878000" lon="-2.310919000">
        <ele>619.00</ele>
        <time>2013-07-27T11:41:22Z</time>
      </trkpt>
      <trkpt lat="42.340884000" lon="-2.310890000">
        <ele>619.00</ele>
        <time>2013-07-27T11:41:23Z</time>
      </trkpt>
      <trkpt lat="42.340887000" lon="-2.310864000">
        <ele>619.00</ele>
        <time>2013-07-27T11:41:24Z</time>
      </trkpt>
      <trkpt lat="42.340887000" lon="-2.310841000">
        <ele>619.10</ele>
        <time>2013-07-27T11:41:25Z</time>
      </trkpt>
      <trkpt lat="42.340890000" lon="-2.310827000">
        <ele>619.00</ele>
        <time>2013-07-27T11:41:26Z</time>
      </trkpt>
      <trkpt lat="42.340896000" lon="-2.310828000">
        <ele>619.00</ele>
        <time>2013-07-27T11:41:27Z</time>
      </trkpt>
      <trkpt lat="42.340896000" lon="-2.310829000">
        <ele>619.00</ele>
        <time>2013-07-27T11:41:28Z</time>
      </trkpt>
      <trkpt lat="42.340896000" lon="-2.310829000">
        <ele>619.00</ele>
        <time>2013-07-27T11:41:29Z</time>
      </trkpt>
      <trkpt lat="42.340897000" lon="-2.310828000">
        <ele>619.00</ele>
        <time>2013-07-27T11:41:30Z</time>
      </trkpt>
      <trkpt lat="42.340897000" lon="-2.310828000">
        <ele>619.00</ele>
        <time>2013-07-27T11:41:31Z</time>
      </trkpt>
      <trkpt lat="42.340897000" lon="-2.310828000">
        <ele>619.10</ele>
        <time>2013-07-27T11:41:32Z</time>
      </trkpt>
      <trkpt lat="42.340896000" lon="-2.310828000">
        <ele>619.10</ele>
        <time>2013-07-27T11:41:33Z</time>
      </trkpt>
      <trkpt lat="42.340889000" lon="-2.310823000">
        <ele>618.90</ele>
        <time>2013-07-27T11:41:34Z</time>
      </trkpt>
      <trkpt lat="42.340888000" lon="-2.310817000">
        <ele>618.70</ele>
        <time>2013-07-27T11:41:35Z</time>
      </trkpt>
      <trkpt lat="42.340883000" lon="-2.310815000">
        <ele>618.70</ele>
        <time>2013-07-27T11:41:36Z</time>
      </trkpt>
      <trkpt lat="42.340886000" lon="-2.310817000">
        <ele>618.70</ele>
        <time>2013-07-27T11:41:37Z</time>
      </trkpt>
      <trkpt lat="42.340886000" lon="-2.310819000">
        <ele>618.50</ele>
        <time>2013-07-27T11:41:38Z</time>
      </trkpt>
      <trkpt lat="42.340885000" lon="-2.310820000">
        <ele>618.40</ele>
        <time>2013-07-27T11:41:39Z</time>
      </trkpt>
      <trkpt lat="42.340886000" lon="-2.310821000">
        <ele>618.40</ele>
        <time>2013-07-27T11:41:40Z</time>
      </trkpt>
      <trkpt lat="42.340888000" lon="-2.310821000">
        <ele>618.30</ele>
        <time>2013-07-27T11:41:41Z</time>
      </trkpt>
      <trkpt lat="42.340889000" lon="-2.310821000">
        <ele>618.30</ele>
        <time>2013-07-27T11:41:42Z</time>
      </trkpt>
      <trkpt lat="42.340889000" lon="-2.310821000">
        <ele>618.20</ele>
        <time>2013-07-27T11:41:43Z</time>
      </trkpt>
      <trkpt lat="42.340890000" lon="-2.310821000">
        <ele>618.20</ele>
        <time>2013-07-27T11:41:44Z</time>
      </trkpt>
      <trkpt lat="42.340890000" lon="-2.310821000">
        <ele>618.10</ele>
        <time>2013-07-27T11:41:45Z</time>
      </trkpt>
      <trkpt lat="42.340891000" lon="-2.310821000">
        <ele>618.10</ele>
        <time>2013-07-27T11:41:46Z</time>
      </trkpt>
      <trkpt lat="42.340891000" lon="-2.310820000">
        <ele>618.10</ele>
        <time>2013-07-27T11:41:47Z</time>
      </trkpt>
      <trkpt lat="42.340890000" lon="-2.310820000">
        <ele>618.20</ele>
        <time>2013-07-27T11:41:48Z</time>
      </trkpt>
      <trkpt lat="42.340889000" lon="-2.310820000">
        <ele>618.30</ele>
        <time>2013-07-27T11:41:49Z</time>
      </trkpt>
      <trkpt lat="42.340890000" lon="-2.310820000">
        <ele>618.40</ele>
        <time>2013-07-27T11:41:50Z</time>
      </trkpt>
      <trkpt lat="42.340890000" lon="-2.310819000">
        <ele>618.40</ele>
        <time>2013-07-27T11:41:51Z</time>
      </trkpt>
      <trkpt lat="42.340890000" lon="-2.310819000">
        <ele>618.40</ele>
        <time>2013-07-27T11:41:52Z</time>
      </trkpt>
      <trkpt lat="42.340890000" lon="-2.310819000">
        <ele>618.30</ele>
        <time>2013-07-27T11:41:53Z</time>
      </trkpt>
      <trkpt lat="42.340891000" lon="-2.310819000">
        <ele>618.30</ele>
        <time>2013-07-27T11:41:54Z</time>
      </trkpt>
      <trkpt lat="42.340892000" lon="-2.310819000">
        <ele>618.30</ele>
        <time>2013-07-27T11:41:55Z</time>
      </trkpt>
      <trkpt lat="42.340892000" lon="-2.310820000">
        <ele>618.10</ele>
        <time>2013-07-27T11:41:56Z</time>
      </trkpt>
      <trkpt lat="42.340893000" lon="-2.310820000">
        <ele>617.90</ele>
        <time>2013-07-27T11:41:57Z</time>
      </trkpt>
      <trkpt lat="42.340894000" lon="-2.310820000">
        <ele>617.90</ele>
        <time>2013-07-27T11:41:58Z</time>
      </trkpt>
      <trkpt lat="42.340894000" lon="-2.310819000">
        <ele>617.90</ele>
        <time>2013-07-27T11:41:59Z</time>
      </trkpt>
      <trkpt lat="42.340894000" lon="-2.310819000">
        <ele>617.90</ele>
        <time>2013-07-27T11:42:00Z</time>
      </trkpt>
      <trkpt lat="42.340894000" lon="-2.310818000">
        <ele>617.90</ele>
        <time>2013-07-27T11:42:01Z</time>
      </trkpt>
      <trkpt lat="42.340895000" lon="-2.310818000">
        <ele>617.90</ele>
        <time>2013-07-27T11:42:02Z</time>
      </trkpt>
      <trkpt lat="42.340895000" lon="-2.310818000">
        <ele>618.00</ele>
        <time>2013-07-27T11:42:03Z</time>
      </trkpt>
      <trkpt lat="42.340895000" lon="-2.310818000">
        <ele>618.00</ele>
        <time>2013-07-27T11:42:04Z</time>
      </trkpt>
      <trkpt lat="42.340896000" lon="-2.310818000">
        <ele>618.00</ele>
        <time>2013-07-27T11:42:05Z</time>
      </trkpt>
      <trkpt lat="42.340897000" lon="-2.310818000">
        <ele>618.00</ele>
        <time>2013-07-27T11:42:06Z</time>
      </trkpt>
      <trkpt lat="42.340898000" lon="-2.310820000">
        <ele>617.90</ele>
        <time>2013-07-27T11:42:07Z</time>
      </trkpt>
      <trkpt lat="42.340898000" lon="-2.310820000">
        <ele>617.90</ele>
        <time>2013-07-27T11:42:08Z</time>
      </trkpt>
      <trkpt lat="42.340899000" lon="-2.310820000">
        <ele>617.90</ele>
        <time>2013-07-27T11:42:09Z</time>
      </trkpt>
      <trkpt lat="42.340901000" lon="-2.310821000">
        <ele>617.90</ele>
        <time>2013-07-27T11:42:10Z</time>
      </trkpt>
      <trkpt lat="42.340901000" lon="-2.310824000">
        <ele>617.90</ele>
        <time>2013-07-27T11:42:11Z</time>
      </trkpt>
      <trkpt lat="42.340901000" lon="-2.310824000">
        <ele>618.00</ele>
        <time>2013-07-27T11:42:12Z</time>
      </trkpt>
      <trkpt lat="42.340901000" lon="-2.310824000">
        <ele>618.00</ele>
        <time>2013-07-27T11:42:13Z</time>
      </trkpt>
      <trkpt lat="42.340900000" lon="-2.310824000">
        <ele>618.00</ele>
        <time>2013-07-27T11:42:14Z</time>
      </trkpt>
      <trkpt lat="42.340900000" lon="-2.310825000">
        <ele>618.10</ele>
        <time>2013-07-27T11:42:15Z</time>
      </trkpt>
      <trkpt lat="42.340900000" lon="-2.310825000">
        <ele>618.00</ele>
        <time>2013-07-27T11:42:16Z</time>
      </trkpt>
      <trkpt lat="42.340900000" lon="-2.310826000">
        <ele>618.00</ele>
        <time>2013-07-27T11:42:17Z</time>
      </trkpt>
      <trkpt lat="42.340900000" lon="-2.310827000">
        <ele>618.00</ele>
        <time>2013-07-27T11:42:18Z</time>
      </trkpt>
      <trkpt lat="42.340901000" lon="-2.310828000">
        <ele>618.00</ele>
        <time>2013-07-27T11:42:19Z</time>
      </trkpt>
      <trkpt lat="42.340901000" lon="-2.310830000">
        <ele>618.00</ele>
        <time>2013-07-27T11:42:20Z</time>
      </trkpt>
      <trkpt lat="42.340902000" lon="-2.310830000">
        <ele>618.00</ele>
        <time>2013-07-27T11:42:21Z</time>
      </trkpt>
      <trkpt lat="42.340902000" lon="-2.310831000">
        <ele>618.00</ele>
        <time>2013-07-27T11:42:22Z</time>
      </trkpt>
      <trkpt lat="42.340903000" lon="-2.310831000">
        <ele>618.00</ele>
        <time>2013-07-27T11:42:23Z</time>
      </trkpt>
      <trkpt lat="42.340904000" lon="-2.310832000">
        <ele>618.00</ele>
        <time>2013-07-27T11:42:24Z</time>
      </trkpt>
      <trkpt lat="42.340905000" lon="-2.310833000">
        <ele>618.00</ele>
        <time>2013-07-27T11:42:25Z</time>
      </trkpt>
      <trkpt lat="42.340905000" lon="-2.310833000">
        <ele>618.10</ele>
        <time>2013-07-27T11:42:26Z</time>
      </trkpt>
      <trkpt lat="42.340905000" lon="-2.310833000">
        <ele>618.10</ele>
        <time>2013-07-27T11:42:27Z</time>
      </trkpt>
      <trkpt lat="42.340905000" lon="-2.310833000">
        <ele>618.10</ele>
        <time>2013-07-27T11:42:28Z</time>
      </trkpt>
      <trkpt lat="42.340905000" lon="-2.310834000">
        <ele>618.10</ele>
        <time>2013-07-27T11:42:29Z</time>
      </trkpt>
      <trkpt lat="42.340905000" lon="-2.310835000">
        <ele>618.10</ele>
        <time>2013-07-27T11:42:30Z</time>
      </trkpt>
      <trkpt lat="42.340905000" lon="-2.310835000">
        <ele>618.10</ele>
        <time>2013-07-27T11:42:31Z</time>
      </trkpt>
      <trkpt lat="42.340906000" lon="-2.310837000">
        <ele>618.20</ele>
        <time>2013-07-27T11:42:32Z</time>
      </trkpt>
      <trkpt lat="42.340906000" lon="-2.310836000">
        <ele>618.20</ele>
        <time>2013-07-27T11:42:33Z</time>
      </trkpt>
      <trkpt lat="42.340906000" lon="-2.310836000">
        <ele>618.20</ele>
        <time>2013-07-27T11:42:34Z</time>
      </trkpt>
      <trkpt lat="42.340907000" lon="-2.310836000">
        <ele>618.10</ele>
        <time>2013-07-27T11:42:35Z</time>
      </trkpt>
      <trkpt lat="42.340906000" lon="-2.310835000">
        <ele>618.10</ele>
        <time>2013-07-27T11:42:36Z</time>
      </trkpt>
      <trkpt lat="42.340907000" lon="-2.310835000">
        <ele>618.10</ele>
        <time>2013-07-27T11:42:37Z</time>
      </trkpt>
      <trkpt lat="42.340907000" lon="-2.310836000">
        <ele>618.10</ele>
        <time>2013-07-27T11:42:38Z</time>
      </trkpt>
      <trkpt lat="42.340907000" lon="-2.310836000">
        <ele>618.10</ele>
        <time>2013-07-27T11:42:39Z</time>
      </trkpt>
      <trkpt lat="42.340908000" lon="-2.310836000">
        <ele>618.20</ele>
        <time>2013-07-27T11:42:40Z</time>
      </trkpt>
      <trkpt lat="42.340908000" lon="-2.310836000">
        <ele>618.30</ele>
        <time>2013-07-27T11:42:41Z</time>
      </trkpt>
      <trkpt lat="42.340908000" lon="-2.310835000">
        <ele>618.40</ele>
        <time>2013-07-27T11:42:42Z</time>
      </trkpt>
      <trkpt lat="42.340908000" lon="-2.310834000">
        <ele>618.40</ele>
        <time>2013-07-27T11:42:43Z</time>
      </trkpt>
      <trkpt lat="42.340907000" lon="-2.310833000">
        <ele>618.40</ele>
        <time>2013-07-27T11:42:44Z</time>
      </trkpt>
      <trkpt lat="42.340907000" lon="-2.310833000">
        <ele>618.50</ele>
        <time>2013-07-27T11:42:45Z</time>
      </trkpt>
      <trkpt lat="42.340907000" lon="-2.310834000">
        <ele>618.50</ele>
        <time>2013-07-27T11:42:46Z</time>
      </trkpt>
      <trkpt lat="42.340908000" lon="-2.310834000">
        <ele>618.50</ele>
        <time>2013-07-27T11:42:47Z</time>
      </trkpt>
      <trkpt lat="42.340908000" lon="-2.310834000">
        <ele>618.40</ele>
        <time>2013-07-27T11:42:48Z</time>
      </trkpt>
      <trkpt lat="42.340909000" lon="-2.310835000">
        <ele>618.40</ele>
        <time>2013-07-27T11:42:49Z</time>
      </trkpt>
      <trkpt lat="42.340911000" lon="-2.310835000">
        <ele>618.30</ele>
        <time>2013-07-27T11:42:50Z</time>
      </trkpt>
      <trkpt lat="42.340911000" lon="-2.310836000">
        <ele>618.30</ele>
        <time>2013-07-27T11:42:51Z</time>
      </trkpt>
      <trkpt lat="42.340912000" lon="-2.310836000">
        <ele>618.40</ele>
        <time>2013-07-27T11:42:52Z</time>
      </trkpt>
      <trkpt lat="42.340912000" lon="-2.310836000">
        <ele>618.40</ele>
        <time>2013-07-27T11:42:53Z</time>
      </trkpt>
      <trkpt lat="42.340912000" lon="-2.310837000">
        <ele>618.40</ele>
        <time>2013-07-27T11:42:54Z</time>
      </trkpt>
      <trkpt lat="42.340913000" lon="-2.310837000">
        <ele>618.40</ele>
        <time>2013-07-27T11:42:55Z</time>
      </trkpt>
      <trkpt lat="42.340913000" lon="-2.310838000">
        <ele>618.60</ele>
        <time>2013-07-27T11:42:56Z</time>
      </trkpt>
      <trkpt lat="42.340914000" lon="-2.310838000">
        <ele>618.70</ele>
        <time>2013-07-27T11:42:57Z</time>
      </trkpt>
      <trkpt lat="42.340914000" lon="-2.310838000">
        <ele>618.80</ele>
        <time>2013-07-27T11:42:58Z</time>
      </trkpt>
      <trkpt lat="42.340914000" lon="-2.310838000">
        <ele>618.80</ele>
        <time>2013-07-27T11:42:59Z</time>
      </trkpt>
      <trkpt lat="42.340914000" lon="-2.310838000">
        <ele>618.90</ele>
        <time>2013-07-27T11:43:00Z</time>
      </trkpt>
      <trkpt lat="42.340914000" lon="-2.310838000">
        <ele>619.00</ele>
        <time>2013-07-27T11:43:01Z</time>
      </trkpt>
      <trkpt lat="42.340913000" lon="-2.310838000">
        <ele>618.90</ele>
        <time>2013-07-27T11:43:02Z</time>
      </trkpt>
      <trkpt lat="42.340912000" lon="-2.310838000">
        <ele>618.90</ele>
        <time>2013-07-27T11:43:03Z</time>
      </trkpt>
      <trkpt lat="42.340912000" lon="-2.310837000">
        <ele>618.90</ele>
        <time>2013-07-27T11:43:04Z</time>
      </trkpt>
      <trkpt lat="42.340916000" lon="-2.310839000">
        <ele>619.00</ele>
        <time>2013-07-27T11:43:05Z</time>
      </trkpt>
      <trkpt lat="42.340914000" lon="-2.310838000">
        <ele>619.00</ele>
        <time>2013-07-27T11:43:06Z</time>
      </trkpt>
      <trkpt lat="42.340911000" lon="-2.310839000">
        <ele>619.00</ele>
        <time>2013-07-27T11:43:07Z</time>
      </trkpt>
      <trkpt lat="42.340910000" lon="-2.310839000">
        <ele>619.00</ele>
        <time>2013-07-27T11:43:08Z</time>
      </trkpt>
      <trkpt lat="42.340906000" lon="-2.310840000">
        <ele>619.10</ele>
        <time>2013-07-27T11:43:09Z</time>
      </trkpt>
      <trkpt lat="42.340905000" lon="-2.310839000">
        <ele>619.10</ele>
        <time>2013-07-27T11:43:10Z</time>
      </trkpt>
      <trkpt lat="42.340905000" lon="-2.310839000">
        <ele>619.10</ele>
        <time>2013-07-27T11:43:11Z</time>
      </trkpt>
      <trkpt lat="42.340905000" lon="-2.310838000">
        <ele>619.20</ele>
        <time>2013-07-27T11:43:12Z</time>
      </trkpt>
      <trkpt lat="42.340904000" lon="-2.310834000">
        <ele>619.30</ele>
        <time>2013-07-27T11:43:13Z</time>
      </trkpt>
      <trkpt lat="42.340906000" lon="-2.310834000">
        <ele>619.30</ele>
        <time>2013-07-27T11:43:14Z</time>
      </trkpt>
      <trkpt lat="42.340908000" lon="-2.310836000">
        <ele>619.30</ele>
        <time>2013-07-27T11:43:15Z</time>
      </trkpt>
      <trkpt lat="42.340907000" lon="-2.310834000">
        <ele>619.40</ele>
        <time>2013-07-27T11:43:16Z</time>
      </trkpt>
      <trkpt lat="42.340906000" lon="-2.310831000">
        <ele>619.40</ele>
        <time>2013-07-27T11:43:17Z</time>
      </trkpt>
      <trkpt lat="42.340906000" lon="-2.310825000">
        <ele>619.40</ele>
        <time>2013-07-27T11:43:18Z</time>
      </trkpt>
      <trkpt lat="42.340906000" lon="-2.310818000">
        <ele>619.40</ele>
        <time>2013-07-27T11:43:19Z</time>
      </trkpt>
      <trkpt lat="42.340906000" lon="-2.310812000">
        <ele>619.40</ele>
        <time>2013-07-27T11:43:20Z</time>
      </trkpt>
      <trkpt lat="42.340906000" lon="-2.310797000">
        <ele>619.40</ele>
        <time>2013-07-27T11:43:21Z</time>
      </trkpt>
      <trkpt lat="42.340910000" lon="-2.310779000">
        <ele>619.60</ele>
        <time>2013-07-27T11:43:22Z</time>
      </trkpt>
      <trkpt lat="42.340910000" lon="-2.310749000">
        <ele>619.80</ele>
        <time>2013-07-27T11:43:23Z</time>
      </trkpt>
      <trkpt lat="42.340908000" lon="-2.310717000">
        <ele>619.90</ele>
        <time>2013-07-27T11:43:24Z</time>
      </trkpt>
      <trkpt lat="42.340908000" lon="-2.310680000">
        <ele>620.00</ele>
        <time>2013-07-27T11:43:25Z</time>
      </trkpt>
      <trkpt lat="42.340904000" lon="-2.310635000">
        <ele>620.10</ele>
        <time>2013-07-27T11:43:26Z</time>
      </trkpt>
      <trkpt lat="42.340902000" lon="-2.310589000">
        <ele>620.10</ele>
        <time>2013-07-27T11:43:27Z</time>
      </trkpt>
      <trkpt lat="42.340901000" lon="-2.310538000">
        <ele>620.10</ele>
        <time>2013-07-27T11:43:28Z</time>
      </trkpt>
      <trkpt lat="42.340899000" lon="-2.310488000">
        <ele>620.20</ele>
        <time>2013-07-27T11:43:29Z</time>
      </trkpt>
      <trkpt lat="42.340898000" lon="-2.310436000">
        <ele>620.20</ele>
        <time>2013-07-27T11:43:30Z</time>
      </trkpt>
      <trkpt lat="42.340895000" lon="-2.310381000">
        <ele>620.20</ele>
        <time>2013-07-27T11:43:31Z</time>
      </trkpt>
      <trkpt lat="42.340891000" lon="-2.310329000">
        <ele>620.20</ele>
        <time>2013-07-27T11:43:32Z</time>
      </trkpt>
      <trkpt lat="42.340887000" lon="-2.310280000">
        <ele>620.20</ele>
        <time>2013-07-27T11:43:33Z</time>
      </trkpt>
      <trkpt lat="42.340881000" lon="-2.310232000">
        <ele>620.40</ele>
        <time>2013-07-27T11:43:34Z</time>
      </trkpt>
      <trkpt lat="42.340871000" lon="-2.310186000">
        <ele>620.60</ele>
        <time>2013-07-27T11:43:35Z</time>
      </trkpt>
      <trkpt lat="42.340861000" lon="-2.310146000">
        <ele>620.70</ele>
        <time>2013-07-27T11:43:36Z</time>
      </trkpt>
      <trkpt lat="42.340849000" lon="-2.310107000">
        <ele>620.80</ele>
        <time>2013-07-27T11:43:37Z</time>
      </trkpt>
      <trkpt lat="42.340840000" lon="-2.310066000">
        <ele>621.10</ele>
        <time>2013-07-27T11:43:38Z</time>
      </trkpt>
      <trkpt lat="42.340830000" lon="-2.310028000">
        <ele>621.30</ele>
        <time>2013-07-27T11:43:39Z</time>
      </trkpt>
      <trkpt lat="42.340820000" lon="-2.309995000">
        <ele>621.40</ele>
        <time>2013-07-27T11:43:40Z</time>
      </trkpt>
      <trkpt lat="42.340808000" lon="-2.309965000">
        <ele>621.50</ele>
        <time>2013-07-27T11:43:41Z</time>
      </trkpt>
      <trkpt lat="42.340798000" lon="-2.309941000">
        <ele>621.60</ele>
        <time>2013-07-27T11:43:42Z</time>
      </trkpt>
      <trkpt lat="42.340788000" lon="-2.309922000">
        <ele>621.70</ele>
        <time>2013-07-27T11:43:43Z</time>
      </trkpt>
      <trkpt lat="42.340782000" lon="-2.309903000">
        <ele>621.70</ele>
        <time>2013-07-27T11:43:44Z</time>
      </trkpt>
      <trkpt lat="42.340776000" lon="-2.309882000">
        <ele>621.70</ele>
        <time>2013-07-27T11:43:45Z</time>
      </trkpt>
      <trkpt lat="42.340772000" lon="-2.309871000">
        <ele>621.80</ele>
        <time>2013-07-27T11:43:46Z</time>
      </trkpt>
      <trkpt lat="42.340773000" lon="-2.309867000">
        <ele>621.80</ele>
        <time>2013-07-27T11:43:47Z</time>
      </trkpt>
      <trkpt lat="42.340775000" lon="-2.309865000">
        <ele>621.80</ele>
        <time>2013-07-27T11:43:48Z</time>
      </trkpt>
      <trkpt lat="42.340776000" lon="-2.309865000">
        <ele>621.80</ele>
        <time>2013-07-27T11:43:49Z</time>
      </trkpt>
      <trkpt lat="42.340775000" lon="-2.309860000">
        <ele>621.60</ele>
        <time>2013-07-27T11:43:50Z</time>
      </trkpt>
      <trkpt lat="42.340776000" lon="-2.309858000">
        <ele>621.50</ele>
        <time>2013-07-27T11:43:51Z</time>
      </trkpt>
      <trkpt lat="42.340776000" lon="-2.309859000">
        <ele>621.30</ele>
        <time>2013-07-27T11:43:52Z</time>
      </trkpt>
      <trkpt lat="42.340776000" lon="-2.309857000">
        <ele>621.20</ele>
        <time>2013-07-27T11:43:53Z</time>
      </trkpt>
      <trkpt lat="42.340780000" lon="-2.309857000">
        <ele>621.10</ele>
        <time>2013-07-27T11:43:54Z</time>
      </trkpt>
      <trkpt lat="42.340780000" lon="-2.309857000">
        <ele>621.00</ele>
        <time>2013-07-27T11:43:55Z</time>
      </trkpt>
      <trkpt lat="42.340779000" lon="-2.309859000">
        <ele>620.90</ele>
        <time>2013-07-27T11:43:56Z</time>
      </trkpt>
      <trkpt lat="42.340779000" lon="-2.309855000">
        <ele>620.90</ele>
        <time>2013-07-27T11:43:57Z</time>
      </trkpt>
      <trkpt lat="42.340779000" lon="-2.309853000">
        <ele>620.80</ele>
        <time>2013-07-27T11:43:58Z</time>
      </trkpt>
      <trkpt lat="42.340778000" lon="-2.309851000">
        <ele>620.80</ele>
        <time>2013-07-27T11:43:59Z</time>
      </trkpt>
      <trkpt lat="42.340778000" lon="-2.309850000">
        <ele>620.80</ele>
        <time>2013-07-27T11:44:00Z</time>
      </trkpt>
      <trkpt lat="42.340776000" lon="-2.309852000">
        <ele>620.80</ele>
        <time>2013-07-27T11:44:01Z</time>
      </trkpt>
      <trkpt lat="42.340776000" lon="-2.309853000">
        <ele>620.80</ele>
        <time>2013-07-27T11:44:02Z</time>
      </trkpt>
      <trkpt lat="42.340770000" lon="-2.309844000">
        <ele>620.80</ele>
        <time>2013-07-27T11:44:03Z</time>
      </trkpt>
      <trkpt lat="42.340762000" lon="-2.309826000">
        <ele>620.90</ele>
        <time>2013-07-27T11:44:04Z</time>
      </trkpt>
      <trkpt lat="42.340753000" lon="-2.309800000">
        <ele>620.90</ele>
        <time>2013-07-27T11:44:05Z</time>
      </trkpt>
      <trkpt lat="42.340743000" lon="-2.309773000">
        <ele>620.80</ele>
        <time>2013-07-27T11:44:06Z</time>
      </trkpt>
      <trkpt lat="42.340734000" lon="-2.309744000">
        <ele>620.80</ele>
        <time>2013-07-27T11:44:07Z</time>
      </trkpt>
      <trkpt lat="42.340721000" lon="-2.309709000">
        <ele>620.80</ele>
        <time>2013-07-27T11:44:08Z</time>
      </trkpt>
      <trkpt lat="42.340708000" lon="-2.309670000">
        <ele>620.80</ele>
        <time>2013-07-27T11:44:09Z</time>
      </trkpt>
      <trkpt lat="42.340697000" lon="-2.309630000">
        <ele>620.70</ele>
        <time>2013-07-27T11:44:10Z</time>
      </trkpt>
      <trkpt lat="42.340686000" lon="-2.309591000">
        <ele>620.70</ele>
        <time>2013-07-27T11:44:11Z</time>
      </trkpt>
      <trkpt lat="42.340676000" lon="-2.309546000">
        <ele>620.90</ele>
        <time>2013-07-27T11:44:12Z</time>
      </trkpt>
      <trkpt lat="42.340668000" lon="-2.309496000">
        <ele>621.10</ele>
        <time>2013-07-27T11:44:13Z</time>
      </trkpt>
      <trkpt lat="42.340660000" lon="-2.309444000">
        <ele>621.00</ele>
        <time>2013-07-27T11:44:14Z</time>
      </trkpt>
      <trkpt lat="42.340661000" lon="-2.309388000">
        <ele>620.90</ele>
        <time>2013-07-27T11:44:15Z</time>
      </trkpt>
      <trkpt lat="42.340664000" lon="-2.309329000">
        <ele>620.90</ele>
        <time>2013-07-27T11:44:16Z</time>
      </trkpt>
      <trkpt lat="42.340674000" lon="-2.309271000">
        <ele>620.80</ele>
        <time>2013-07-27T11:44:17Z</time>
      </trkpt>
      <trkpt lat="42.340691000" lon="-2.309218000">
        <ele>620.80</ele>
        <time>2013-07-27T11:44:18Z</time>
      </trkpt>
      <trkpt lat="42.340706000" lon="-2.309159000">
        <ele>620.70</ele>
        <time>2013-07-27T11:44:19Z</time>
      </trkpt>
      <trkpt lat="42.340717000" lon="-2.309100000">
        <ele>620.60</ele>
        <time>2013-07-27T11:44:20Z</time>
      </trkpt>
      <trkpt lat="42.340727000" lon="-2.309039000">
        <ele>620.60</ele>
        <time>2013-07-27T11:44:21Z</time>
      </trkpt>
      <trkpt lat="42.340732000" lon="-2.308981000">
        <ele>620.50</ele>
        <time>2013-07-27T11:44:22Z</time>
      </trkpt>
      <trkpt lat="42.340737000" lon="-2.308917000">
        <ele>620.50</ele>
        <time>2013-07-27T11:44:23Z</time>
      </trkpt>
      <trkpt lat="42.340740000" lon="-2.308857000">
        <ele>620.50</ele>
        <time>2013-07-27T11:44:24Z</time>
      </trkpt>
      <trkpt lat="42.340743000" lon="-2.308799000">
        <ele>620.40</ele>
        <time>2013-07-27T11:44:25Z</time>
      </trkpt>
      <trkpt lat="42.340744000" lon="-2.308738000">
        <ele>620.40</ele>
        <time>2013-07-27T11:44:26Z</time>
      </trkpt>
      <trkpt lat="42.340747000" lon="-2.308681000">
        <ele>620.40</ele>
        <time>2013-07-27T11:44:27Z</time>
      </trkpt>
      <trkpt lat="42.340747000" lon="-2.308623000">
        <ele>620.40</ele>
        <time>2013-07-27T11:44:28Z</time>
      </trkpt>
      <trkpt lat="42.340747000" lon="-2.308567000">
        <ele>620.40</ele>
        <time>2013-07-27T11:44:29Z</time>
      </trkpt>
      <trkpt lat="42.340747000" lon="-2.308516000">
        <ele>620.40</ele>
        <time>2013-07-27T11:44:30Z</time>
      </trkpt>
      <trkpt lat="42.340743000" lon="-2.308463000">
        <ele>620.30</ele>
        <time>2013-07-27T11:44:31Z</time>
      </trkpt>
      <trkpt lat="42.340735000" lon="-2.308411000">
        <ele>620.20</ele>
        <time>2013-07-27T11:44:32Z</time>
      </trkpt>
      <trkpt lat="42.340728000" lon="-2.308360000">
        <ele>620.10</ele>
        <time>2013-07-27T11:44:33Z</time>
      </trkpt>
      <trkpt lat="42.340724000" lon="-2.308303000">
        <ele>620.00</ele>
        <time>2013-07-27T11:44:34Z</time>
      </trkpt>
      <trkpt lat="42.340722000" lon="-2.308246000">
        <ele>619.90</ele>
        <time>2013-07-27T11:44:35Z</time>
      </trkpt>
      <trkpt lat="42.340723000" lon="-2.308190000">
        <ele>619.80</ele>
        <time>2013-07-27T11:44:36Z</time>
      </trkpt>
      <trkpt lat="42.340727000" lon="-2.308136000">
        <ele>619.80</ele>
        <time>2013-07-27T11:44:37Z</time>
      </trkpt>
      <trkpt lat="42.340735000" lon="-2.308078000">
        <ele>619.70</ele>
        <time>2013-07-27T11:44:38Z</time>
      </trkpt>
      <trkpt lat="42.340743000" lon="-2.308027000">
        <ele>620.00</ele>
        <time>2013-07-27T11:44:39Z</time>
      </trkpt>
      <trkpt lat="42.340755000" lon="-2.307976000">
        <ele>620.20</ele>
        <time>2013-07-27T11:44:40Z</time>
      </trkpt>
      <trkpt lat="42.340769000" lon="-2.307932000">
        <ele>620.50</ele>
        <time>2013-07-27T11:44:41Z</time>
      </trkpt>
      <trkpt lat="42.340781000" lon="-2.307891000">
        <ele>620.80</ele>
        <time>2013-07-27T11:44:42Z</time>
      </trkpt>
      <trkpt lat="42.340794000" lon="-2.307851000">
        <ele>621.00</ele>
        <time>2013-07-27T11:44:43Z</time>
      </trkpt>
      <trkpt lat="42.340807000" lon="-2.307811000">
        <ele>621.20</ele>
        <time>2013-07-27T11:44:44Z</time>
      </trkpt>
      <trkpt lat="42.340822000" lon="-2.307773000">
        <ele>621.30</ele>
        <time>2013-07-27T11:44:45Z</time>
      </trkpt>
      <trkpt lat="42.340839000" lon="-2.307728000">
        <ele>621.40</ele>
        <time>2013-07-27T11:44:46Z</time>
      </trkpt>
      <trkpt lat="42.340860000" lon="-2.307673000">
        <ele>621.50</ele>
        <time>2013-07-27T11:44:47Z</time>
      </trkpt>
      <trkpt lat="42.340877000" lon="-2.307614000">
        <ele>621.50</ele>
        <time>2013-07-27T11:44:48Z</time>
      </trkpt>
      <trkpt lat="42.340889000" lon="-2.307555000">
        <ele>621.40</ele>
        <time>2013-07-27T11:44:49Z</time>
      </trkpt>
      <trkpt lat="42.340898000" lon="-2.307492000">
        <ele>621.20</ele>
        <time>2013-07-27T11:44:50Z</time>
      </trkpt>
      <trkpt lat="42.340905000" lon="-2.307426000">
        <ele>620.10</ele>
        <time>2013-07-27T11:44:51Z</time>
      </trkpt>
      <trkpt lat="42.340910000" lon="-2.307355000">
        <ele>619.30</ele>
        <time>2013-07-27T11:44:52Z</time>
      </trkpt>
      <trkpt lat="42.340912000" lon="-2.307283000">
        <ele>618.70</ele>
        <time>2013-07-27T11:44:53Z</time>
      </trkpt>
      <trkpt lat="42.340914000" lon="-2.307209000">
        <ele>618.30</ele>
        <time>2013-07-27T11:44:54Z</time>
      </trkpt>
      <trkpt lat="42.340918000" lon="-2.307139000">
        <ele>617.70</ele>
        <time>2013-07-27T11:44:55Z</time>
      </trkpt>
      <trkpt lat="42.340920000" lon="-2.307064000">
        <ele>617.30</ele>
        <time>2013-07-27T11:44:56Z</time>
      </trkpt>
      <trkpt lat="42.340917000" lon="-2.306987000">
        <ele>617.00</ele>
        <time>2013-07-27T11:44:57Z</time>
      </trkpt>
      <trkpt lat="42.340918000" lon="-2.306911000">
        <ele>616.80</ele>
        <time>2013-07-27T11:44:58Z</time>
      </trkpt>
      <trkpt lat="42.340916000" lon="-2.306839000">
        <ele>616.60</ele>
        <time>2013-07-27T11:44:59Z</time>
      </trkpt>
      <trkpt lat="42.340911000" lon="-2.306762000">
        <ele>616.40</ele>
        <time>2013-07-27T11:45:00Z</time>
      </trkpt>
      <trkpt lat="42.340903000" lon="-2.306682000">
        <ele>616.20</ele>
        <time>2013-07-27T11:45:01Z</time>
      </trkpt>
      <trkpt lat="42.340887000" lon="-2.306603000">
        <ele>616.00</ele>
        <time>2013-07-27T11:45:02Z</time>
      </trkpt>
      <trkpt lat="42.340867000" lon="-2.306526000">
        <ele>615.70</ele>
        <time>2013-07-27T11:45:03Z</time>
      </trkpt>
      <trkpt lat="42.340844000" lon="-2.306454000">
        <ele>615.50</ele>
        <time>2013-07-27T11:45:04Z</time>
      </trkpt>
      <trkpt lat="42.340820000" lon="-2.306382000">
        <ele>615.40</ele>
        <time>2013-07-27T11:45:05Z</time>
      </trkpt>
      <trkpt lat="42.340796000" lon="-2.306312000">
        <ele>615.30</ele>
        <time>2013-07-27T11:45:06Z</time>
      </trkpt>
      <trkpt lat="42.340774000" lon="-2.306248000">
        <ele>615.20</ele>
        <time>2013-07-27T11:45:07Z</time>
      </trkpt>
      <trkpt lat="42.340753000" lon="-2.306185000">
        <ele>615.10</ele>
        <time>2013-07-27T11:45:08Z</time>
      </trkpt>
      <trkpt lat="42.340731000" lon="-2.306123000">
        <ele>614.90</ele>
        <time>2013-07-27T11:45:09Z</time>
      </trkpt>
      <trkpt lat="42.340710000" lon="-2.306064000">
        <ele>614.80</ele>
        <time>2013-07-27T11:45:10Z</time>
      </trkpt>
      <trkpt lat="42.340690000" lon="-2.306004000">
        <ele>614.20</ele>
        <time>2013-07-27T11:45:11Z</time>
      </trkpt>
      <trkpt lat="42.340665000" lon="-2.305949000">
        <ele>613.90</ele>
        <time>2013-07-27T11:45:12Z</time>
      </trkpt>
      <trkpt lat="42.340640000" lon="-2.305896000">
        <ele>613.60</ele>
        <time>2013-07-27T11:45:13Z</time>
      </trkpt>
      <trkpt lat="42.340615000" lon="-2.305843000">
        <ele>613.40</ele>
        <time>2013-07-27T11:45:14Z</time>
      </trkpt>
      <trkpt lat="42.340593000" lon="-2.305792000">
        <ele>613.30</ele>
        <time>2013-07-27T11:45:15Z</time>
      </trkpt>
      <trkpt lat="42.340574000" lon="-2.305742000">
        <ele>613.30</ele>
        <time>2013-07-27T11:45:16Z</time>
      </trkpt>
      <trkpt lat="42.340555000" lon="-2.305689000">
        <ele>613.80</ele>
        <time>2013-07-27T11:45:17Z</time>
      </trkpt>
      <trkpt lat="42.340537000" lon="-2.305636000">
        <ele>614.20</ele>
        <time>2013-07-27T11:45:18Z</time>
      </trkpt>
      <trkpt lat="42.340522000" lon="-2.305583000">
        <ele>614.50</ele>
        <time>2013-07-27T11:45:19Z</time>
      </trkpt>
      <trkpt lat="42.340501000" lon="-2.305527000">
        <ele>614.70</ele>
        <time>2013-07-27T11:45:20Z</time>
      </trkpt>
      <trkpt lat="42.340488000" lon="-2.305469000">
        <ele>614.90</ele>
        <time>2013-07-27T11:45:21Z</time>
      </trkpt>
      <trkpt lat="42.340481000" lon="-2.305417000">
        <ele>615.00</ele>
        <time>2013-07-27T11:45:22Z</time>
      </trkpt>
      <trkpt lat="42.340474000" lon="-2.305364000">
        <ele>614.70</ele>
        <time>2013-07-27T11:45:23Z</time>
      </trkpt>
      <trkpt lat="42.340469000" lon="-2.305315000">
        <ele>614.50</ele>
        <time>2013-07-27T11:45:24Z</time>
      </trkpt>
      <trkpt lat="42.340464000" lon="-2.305271000">
        <ele>614.40</ele>
        <time>2013-07-27T11:45:25Z</time>
      </trkpt>
      <trkpt lat="42.340463000" lon="-2.305231000">
        <ele>614.20</ele>
        <time>2013-07-27T11:45:26Z</time>
      </trkpt>
      <trkpt lat="42.340463000" lon="-2.305189000">
        <ele>614.10</ele>
        <time>2013-07-27T11:45:27Z</time>
      </trkpt>
      <trkpt lat="42.340469000" lon="-2.305148000">
        <ele>614.10</ele>
        <time>2013-07-27T11:45:28Z</time>
      </trkpt>
      <trkpt lat="42.340483000" lon="-2.305110000">
        <ele>614.40</ele>
        <time>2013-07-27T11:45:29Z</time>
      </trkpt>
      <trkpt lat="42.340505000" lon="-2.305079000">
        <ele>614.60</ele>
        <time>2013-07-27T11:45:30Z</time>
      </trkpt>
      <trkpt lat="42.340536000" lon="-2.305057000">
        <ele>614.80</ele>
        <time>2013-07-27T11:45:31Z</time>
      </trkpt>
      <trkpt lat="42.340570000" lon="-2.305047000">
        <ele>615.00</ele>
        <time>2013-07-27T11:45:32Z</time>
      </trkpt>
      <trkpt lat="42.340605000" lon="-2.305047000">
        <ele>615.20</ele>
        <time>2013-07-27T11:45:33Z</time>
      </trkpt>
      <trkpt lat="42.340637000" lon="-2.305052000">
        <ele>615.30</ele>
        <time>2013-07-27T11:45:34Z</time>
      </trkpt>
      <trkpt lat="42.340668000" lon="-2.305056000">
        <ele>615.30</ele>
        <time>2013-07-27T11:45:35Z</time>
      </trkpt>
      <trkpt lat="42.340702000" lon="-2.305057000">
        <ele>615.40</ele>
        <time>2013-07-27T11:45:36Z</time>
      </trkpt>
      <trkpt lat="42.340737000" lon="-2.305062000">
        <ele>615.40</ele>
        <time>2013-07-27T11:45:37Z</time>
      </trkpt>
      <trkpt lat="42.340770000" lon="-2.305058000">
        <ele>615.50</ele>
        <time>2013-07-27T11:45:38Z</time>
      </trkpt>
      <trkpt lat="42.340803000" lon="-2.305051000">
        <ele>615.60</ele>
        <time>2013-07-27T11:45:39Z</time>
      </trkpt>
      <trkpt lat="42.340835000" lon="-2.305037000">
        <ele>615.70</ele>
        <time>2013-07-27T11:45:40Z</time>
      </trkpt>
      <trkpt lat="42.340860000" lon="-2.305019000">
        <ele>615.80</ele>
        <time>2013-07-27T11:45:41Z</time>
      </trkpt>
      <trkpt lat="42.340884000" lon="-2.305002000">
        <ele>615.90</ele>
        <time>2013-07-27T11:45:42Z</time>
      </trkpt>
      <trkpt lat="42.340907000" lon="-2.304983000">
        <ele>615.70</ele>
        <time>2013-07-27T11:45:43Z</time>
      </trkpt>
      <trkpt lat="42.340928000" lon="-2.304961000">
        <ele>615.60</ele>
        <time>2013-07-27T11:45:44Z</time>
      </trkpt>
      <trkpt lat="42.340947000" lon="-2.304936000">
        <ele>615.50</ele>
        <time>2013-07-27T11:45:45Z</time>
      </trkpt>
      <trkpt lat="42.340966000" lon="-2.304904000">
        <ele>615.40</ele>
        <time>2013-07-27T11:45:46Z</time>
      </trkpt>
      <trkpt lat="42.340982000" lon="-2.304864000">
        <ele>615.40</ele>
        <time>2013-07-27T11:45:47Z</time>
      </trkpt>
      <trkpt lat="42.340995000" lon="-2.304815000">
        <ele>615.30</ele>
        <time>2013-07-27T11:45:48Z</time>
      </trkpt>
      <trkpt lat="42.341000000" lon="-2.304759000">
        <ele>614.90</ele>
        <time>2013-07-27T11:45:49Z</time>
      </trkpt>
      <trkpt lat="42.341004000" lon="-2.304696000">
        <ele>614.60</ele>
        <time>2013-07-27T11:45:50Z</time>
      </trkpt>
      <trkpt lat="42.341010000" lon="-2.304633000">
        <ele>614.30</ele>
        <time>2013-07-27T11:45:51Z</time>
      </trkpt>
      <trkpt lat="42.341020000" lon="-2.304566000">
        <ele>614.10</ele>
        <time>2013-07-27T11:45:52Z</time>
      </trkpt>
      <trkpt lat="42.341037000" lon="-2.304500000">
        <ele>614.20</ele>
        <time>2013-07-27T11:45:53Z</time>
      </trkpt>
      <trkpt lat="42.341064000" lon="-2.304434000">
        <ele>614.20</ele>
        <time>2013-07-27T11:45:54Z</time>
      </trkpt>
      <trkpt lat="42.341099000" lon="-2.304368000">
        <ele>614.20</ele>
        <time>2013-07-27T11:45:55Z</time>
      </trkpt>
      <trkpt lat="42.341138000" lon="-2.304303000">
        <ele>614.30</ele>
        <time>2013-07-27T11:45:56Z</time>
      </trkpt>
      <trkpt lat="42.341172000" lon="-2.304234000">
        <ele>614.30</ele>
        <time>2013-07-27T11:45:57Z</time>
      </trkpt>
      <trkpt lat="42.341206000" lon="-2.304162000">
        <ele>614.30</ele>
        <time>2013-07-27T11:45:58Z</time>
      </trkpt>
      <trkpt lat="42.341245000" lon="-2.304093000">
        <ele>612.50</ele>
        <time>2013-07-27T11:45:59Z</time>
      </trkpt>
      <trkpt lat="42.341288000" lon="-2.304029000">
        <ele>611.10</ele>
        <time>2013-07-27T11:46:00Z</time>
      </trkpt>
      <trkpt lat="42.341334000" lon="-2.303967000">
        <ele>611.20</ele>
        <time>2013-07-27T11:46:01Z</time>
      </trkpt>
      <trkpt lat="42.341380000" lon="-2.303911000">
        <ele>611.20</ele>
        <time>2013-07-27T11:46:02Z</time>
      </trkpt>
      <trkpt lat="42.341426000" lon="-2.303864000">
        <ele>611.30</ele>
        <time>2013-07-27T11:46:03Z</time>
      </trkpt>
      <trkpt lat="42.341467000" lon="-2.303821000">
        <ele>611.30</ele>
        <time>2013-07-27T11:46:04Z</time>
      </trkpt>
      <trkpt lat="42.341506000" lon="-2.303780000">
        <ele>611.30</ele>
        <time>2013-07-27T11:46:05Z</time>
      </trkpt>
      <trkpt lat="42.341538000" lon="-2.303736000">
        <ele>611.30</ele>
        <time>2013-07-27T11:46:06Z</time>
      </trkpt>
      <trkpt lat="42.341568000" lon="-2.303688000">
        <ele>611.30</ele>
        <time>2013-07-27T11:46:07Z</time>
      </trkpt>
      <trkpt lat="42.341591000" lon="-2.303634000">
        <ele>611.40</ele>
        <time>2013-07-27T11:46:08Z</time>
      </trkpt>
      <trkpt lat="42.341612000" lon="-2.303576000">
        <ele>611.40</ele>
        <time>2013-07-27T11:46:09Z</time>
      </trkpt>
      <trkpt lat="42.341629000" lon="-2.303510000">
        <ele>611.40</ele>
        <time>2013-07-27T11:46:10Z</time>
      </trkpt>
      <trkpt lat="42.341644000" lon="-2.303444000">
        <ele>611.40</ele>
        <time>2013-07-27T11:46:11Z</time>
      </trkpt>
      <trkpt lat="42.341654000" lon="-2.303374000">
        <ele>611.40</ele>
        <time>2013-07-27T11:46:12Z</time>
      </trkpt>
      <trkpt lat="42.341665000" lon="-2.303307000">
        <ele>611.60</ele>
        <time>2013-07-27T11:46:13Z</time>
      </trkpt>
      <trkpt lat="42.341677000" lon="-2.303243000">
        <ele>611.80</ele>
        <time>2013-07-27T11:46:14Z</time>
      </trkpt>
      <trkpt lat="42.341691000" lon="-2.303179000">
        <ele>611.60</ele>
        <time>2013-07-27T11:46:15Z</time>
      </trkpt>
      <trkpt lat="42.341703000" lon="-2.303113000">
        <ele>611.50</ele>
        <time>2013-07-27T11:46:16Z</time>
      </trkpt>
      <trkpt lat="42.341712000" lon="-2.303050000">
        <ele>611.40</ele>
        <time>2013-07-27T11:46:17Z</time>
      </trkpt>
      <trkpt lat="42.341722000" lon="-2.302992000">
        <ele>611.40</ele>
        <time>2013-07-27T11:46:18Z</time>
      </trkpt>
      <trkpt lat="42.341729000" lon="-2.302931000">
        <ele>611.40</ele>
        <time>2013-07-27T11:46:19Z</time>
      </trkpt>
      <trkpt lat="42.341736000" lon="-2.302871000">
        <ele>611.30</ele>
        <time>2013-07-27T11:46:20Z</time>
      </trkpt>
      <trkpt lat="42.341741000" lon="-2.302813000">
        <ele>611.30</ele>
        <time>2013-07-27T11:46:21Z</time>
      </trkpt>
      <trkpt lat="42.341745000" lon="-2.302762000">
        <ele>611.30</ele>
        <time>2013-07-27T11:46:22Z</time>
      </trkpt>
      <trkpt lat="42.341749000" lon="-2.302706000">
        <ele>611.10</ele>
        <time>2013-07-27T11:46:23Z</time>
      </trkpt>
      <trkpt lat="42.341753000" lon="-2.302643000">
        <ele>610.90</ele>
        <time>2013-07-27T11:46:24Z</time>
      </trkpt>
      <trkpt lat="42.341753000" lon="-2.302583000">
        <ele>610.80</ele>
        <time>2013-07-27T11:46:25Z</time>
      </trkpt>
      <trkpt lat="42.341755000" lon="-2.302526000">
        <ele>610.70</ele>
        <time>2013-07-27T11:46:26Z</time>
      </trkpt>
      <trkpt lat="42.341757000" lon="-2.302465000">
        <ele>610.60</ele>
        <time>2013-07-27T11:46:27Z</time>
      </trkpt>
      <trkpt lat="42.341760000" lon="-2.302401000">
        <ele>610.60</ele>
        <time>2013-07-27T11:46:28Z</time>
      </trkpt>
      <trkpt lat="42.341767000" lon="-2.302331000">
        <ele>610.30</ele>
        <time>2013-07-27T11:46:29Z</time>
      </trkpt>
      <trkpt lat="42.341772000" lon="-2.302260000">
        <ele>610.10</ele>
        <time>2013-07-27T11:46:30Z</time>
      </trkpt>
      <trkpt lat="42.341775000" lon="-2.302190000">
        <ele>610.00</ele>
        <time>2013-07-27T11:46:31Z</time>
      </trkpt>
      <trkpt lat="42.341782000" lon="-2.302121000">
        <ele>609.90</ele>
        <time>2013-07-27T11:46:32Z</time>
      </trkpt>
      <trkpt lat="42.341792000" lon="-2.302050000">
        <ele>609.80</ele>
        <time>2013-07-27T11:46:33Z</time>
      </trkpt>
      <trkpt lat="42.341805000" lon="-2.301979000">
        <ele>609.70</ele>
        <time>2013-07-27T11:46:34Z</time>
      </trkpt>
      <trkpt lat="42.341818000" lon="-2.301914000">
        <ele>609.70</ele>
        <time>2013-07-27T11:46:35Z</time>
      </trkpt>
      <trkpt lat="42.341830000" lon="-2.301849000">
        <ele>609.60</ele>
        <time>2013-07-27T11:46:36Z</time>
      </trkpt>
      <trkpt lat="42.341843000" lon="-2.301784000">
        <ele>609.70</ele>
        <time>2013-07-27T11:46:37Z</time>
      </trkpt>
      <trkpt lat="42.341858000" lon="-2.301723000">
        <ele>609.70</ele>
        <time>2013-07-27T11:46:38Z</time>
      </trkpt>
      <trkpt lat="42.341870000" lon="-2.301664000">
        <ele>609.20</ele>
        <time>2013-07-27T11:46:39Z</time>
      </trkpt>
      <trkpt lat="42.341881000" lon="-2.301609000">
        <ele>608.80</ele>
        <time>2013-07-27T11:46:40Z</time>
      </trkpt>
      <trkpt lat="42.341891000" lon="-2.301553000">
        <ele>608.60</ele>
        <time>2013-07-27T11:46:41Z</time>
      </trkpt>
      <trkpt lat="42.341899000" lon="-2.301496000">
        <ele>608.40</ele>
        <time>2013-07-27T11:46:42Z</time>
      </trkpt>
      <trkpt lat="42.341900000" lon="-2.301436000">
        <ele>608.20</ele>
        <time>2013-07-27T11:46:43Z</time>
      </trkpt>
      <trkpt lat="42.341899000" lon="-2.301375000">
        <ele>608.00</ele>
        <time>2013-07-27T11:46:44Z</time>
      </trkpt>
      <trkpt lat="42.341899000" lon="-2.301314000">
        <ele>607.70</ele>
        <time>2013-07-27T11:46:45Z</time>
      </trkpt>
      <trkpt lat="42.341894000" lon="-2.301263000">
        <ele>607.50</ele>
        <time>2013-07-27T11:46:46Z</time>
      </trkpt>
      <trkpt lat="42.341880000" lon="-2.301218000">
        <ele>607.30</ele>
        <time>2013-07-27T11:46:47Z</time>
      </trkpt>
      <trkpt lat="42.341865000" lon="-2.301179000">
        <ele>607.10</ele>
        <time>2013-07-27T11:46:48Z</time>
      </trkpt>
      <trkpt lat="42.341855000" lon="-2.301143000">
        <ele>607.00</ele>
        <time>2013-07-27T11:46:49Z</time>
      </trkpt>
      <trkpt lat="42.341851000" lon="-2.301104000">
        <ele>606.90</ele>
        <time>2013-07-27T11:46:50Z</time>
      </trkpt>
      <trkpt lat="42.341858000" lon="-2.301056000">
        <ele>606.90</ele>
        <time>2013-07-27T11:46:51Z</time>
      </trkpt>
      <trkpt lat="42.341874000" lon="-2.301004000">
        <ele>606.80</ele>
        <time>2013-07-27T11:46:52Z</time>
      </trkpt>
      <trkpt lat="42.341898000" lon="-2.300948000">
        <ele>606.40</ele>
        <time>2013-07-27T11:46:53Z</time>
      </trkpt>
      <trkpt lat="42.341929000" lon="-2.300895000">
        <ele>606.10</ele>
        <time>2013-07-27T11:46:54Z</time>
      </trkpt>
      <trkpt lat="42.341965000" lon="-2.300846000">
        <ele>605.40</ele>
        <time>2013-07-27T11:46:55Z</time>
      </trkpt>
      <trkpt lat="42.342007000" lon="-2.300802000">
        <ele>604.90</ele>
        <time>2013-07-27T11:46:56Z</time>
      </trkpt>
      <trkpt lat="42.342055000" lon="-2.300761000">
        <ele>604.30</ele>
        <time>2013-07-27T11:46:57Z</time>
      </trkpt>
      <trkpt lat="42.342106000" lon="-2.300720000">
        <ele>603.90</ele>
        <time>2013-07-27T11:46:58Z</time>
      </trkpt>
      <trkpt lat="42.342160000" lon="-2.300681000">
        <ele>602.90</ele>
        <time>2013-07-27T11:46:59Z</time>
      </trkpt>
      <trkpt lat="42.342215000" lon="-2.300645000">
        <ele>602.20</ele>
        <time>2013-07-27T11:47:00Z</time>
      </trkpt>
      <trkpt lat="42.342271000" lon="-2.300608000">
        <ele>601.20</ele>
        <time>2013-07-27T11:47:01Z</time>
      </trkpt>
      <trkpt lat="42.342326000" lon="-2.300572000">
        <ele>600.40</ele>
        <time>2013-07-27T11:47:02Z</time>
      </trkpt>
      <trkpt lat="42.342384000" lon="-2.300537000">
        <ele>599.70</ele>
        <time>2013-07-27T11:47:03Z</time>
      </trkpt>
      <trkpt lat="42.342443000" lon="-2.300499000">
        <ele>599.20</ele>
        <time>2013-07-27T11:47:04Z</time>
      </trkpt>
      <trkpt lat="42.342505000" lon="-2.300462000">
        <ele>598.30</ele>
        <time>2013-07-27T11:47:05Z</time>
      </trkpt>
      <trkpt lat="42.342566000" lon="-2.300424000">
        <ele>597.70</ele>
        <time>2013-07-27T11:47:06Z</time>
      </trkpt>
      <trkpt lat="42.342632000" lon="-2.300388000">
        <ele>597.00</ele>
        <time>2013-07-27T11:47:07Z</time>
      </trkpt>
      <trkpt lat="42.342697000" lon="-2.300349000">
        <ele>596.40</ele>
        <time>2013-07-27T11:47:08Z</time>
      </trkpt>
      <trkpt lat="42.342766000" lon="-2.300303000">
        <ele>595.70</ele>
        <time>2013-07-27T11:47:09Z</time>
      </trkpt>
      <trkpt lat="42.342838000" lon="-2.300255000">
        <ele>595.20</ele>
        <time>2013-07-27T11:47:10Z</time>
      </trkpt>
      <trkpt lat="42.342913000" lon="-2.300203000">
        <ele>594.20</ele>
        <time>2013-07-27T11:47:11Z</time>
      </trkpt>
      <trkpt lat="42.342990000" lon="-2.300145000">
        <ele>593.40</ele>
        <time>2013-07-27T11:47:12Z</time>
      </trkpt>
      <trkpt lat="42.343069000" lon="-2.300084000">
        <ele>592.70</ele>
        <time>2013-07-27T11:47:13Z</time>
      </trkpt>
      <trkpt lat="42.343149000" lon="-2.300018000">
        <ele>592.20</ele>
        <time>2013-07-27T11:47:14Z</time>
      </trkpt>
      <trkpt lat="42.343226000" lon="-2.299948000">
        <ele>591.30</ele>
        <time>2013-07-27T11:47:15Z</time>
      </trkpt>
      <trkpt lat="42.343295000" lon="-2.299871000">
        <ele>590.60</ele>
        <time>2013-07-27T11:47:16Z</time>
      </trkpt>
      <trkpt lat="42.343362000" lon="-2.299790000">
        <ele>589.80</ele>
        <time>2013-07-27T11:47:17Z</time>
      </trkpt>
      <trkpt lat="42.343429000" lon="-2.299708000">
        <ele>589.20</ele>
        <time>2013-07-27T11:47:18Z</time>
      </trkpt>
      <trkpt lat="42.343493000" lon="-2.299623000">
        <ele>587.40</ele>
        <time>2013-07-27T11:47:19Z</time>
      </trkpt>
      <trkpt lat="42.343550000" lon="-2.299542000">
        <ele>586.00</ele>
        <time>2013-07-27T11:47:20Z</time>
      </trkpt>
      <trkpt lat="42.343602000" lon="-2.299464000">
        <ele>584.40</ele>
        <time>2013-07-27T11:47:21Z</time>
      </trkpt>
      <trkpt lat="42.343650000" lon="-2.299393000">
        <ele>583.20</ele>
        <time>2013-07-27T11:47:22Z</time>
      </trkpt>
      <trkpt lat="42.343696000" lon="-2.299325000">
        <ele>582.00</ele>
        <time>2013-07-27T11:47:23Z</time>
      </trkpt>
      <trkpt lat="42.343735000" lon="-2.299259000">
        <ele>581.10</ele>
        <time>2013-07-27T11:47:24Z</time>
      </trkpt>
      <trkpt lat="42.343769000" lon="-2.299188000">
        <ele>579.60</ele>
        <time>2013-07-27T11:47:25Z</time>
      </trkpt>
      <trkpt lat="42.343801000" lon="-2.299114000">
        <ele>578.50</ele>
        <time>2013-07-27T11:47:26Z</time>
      </trkpt>
      <trkpt lat="42.343829000" lon="-2.299033000">
        <ele>577.60</ele>
        <time>2013-07-27T11:47:27Z</time>
      </trkpt>
      <trkpt lat="42.343853000" lon="-2.298948000">
        <ele>577.00</ele>
        <time>2013-07-27T11:47:28Z</time>
      </trkpt>
      <trkpt lat="42.343873000" lon="-2.298853000">
        <ele>575.60</ele>
        <time>2013-07-27T11:47:29Z</time>
      </trkpt>
      <trkpt lat="42.343894000" lon="-2.298760000">
        <ele>574.60</ele>
        <time>2013-07-27T11:47:30Z</time>
      </trkpt>
      <trkpt lat="42.343917000" lon="-2.298670000">
        <ele>573.50</ele>
        <time>2013-07-27T11:47:31Z</time>
      </trkpt>
      <trkpt lat="42.343943000" lon="-2.298580000">
        <ele>572.70</ele>
        <time>2013-07-27T11:47:32Z</time>
      </trkpt>
      <trkpt lat="42.343975000" lon="-2.298499000">
        <ele>571.50</ele>
        <time>2013-07-27T11:47:33Z</time>
      </trkpt>
      <trkpt lat="42.344011000" lon="-2.298427000">
        <ele>570.60</ele>
        <time>2013-07-27T11:47:34Z</time>
      </trkpt>
      <trkpt lat="42.344050000" lon="-2.298358000">
        <ele>569.70</ele>
        <time>2013-07-27T11:47:35Z</time>
      </trkpt>
      <trkpt lat="42.344091000" lon="-2.298292000">
        <ele>569.00</ele>
        <time>2013-07-27T11:47:36Z</time>
      </trkpt>
      <trkpt lat="42.344133000" lon="-2.298224000">
        <ele>568.20</ele>
        <time>2013-07-27T11:47:37Z</time>
      </trkpt>
      <trkpt lat="42.344177000" lon="-2.298154000">
        <ele>567.60</ele>
        <time>2013-07-27T11:47:38Z</time>
      </trkpt>
      <trkpt lat="42.344221000" lon="-2.298087000">
        <ele>566.50</ele>
        <time>2013-07-27T11:47:39Z</time>
      </trkpt>
      <trkpt lat="42.344266000" lon="-2.298019000">
        <ele>565.60</ele>
        <time>2013-07-27T11:47:40Z</time>
      </trkpt>
      <trkpt lat="42.344310000" lon="-2.297951000">
        <ele>564.60</ele>
        <time>2013-07-27T11:47:41Z</time>
      </trkpt>
      <trkpt lat="42.344355000" lon="-2.297887000">
        <ele>563.80</ele>
        <time>2013-07-27T11:47:42Z</time>
      </trkpt>
      <trkpt lat="42.344400000" lon="-2.297823000">
        <ele>563.00</ele>
        <time>2013-07-27T11:47:43Z</time>
      </trkpt>
      <trkpt lat="42.344444000" lon="-2.297759000">
        <ele>562.40</ele>
        <time>2013-07-27T11:47:44Z</time>
      </trkpt>
      <trkpt lat="42.344488000" lon="-2.297699000">
        <ele>561.20</ele>
        <time>2013-07-27T11:47:45Z</time>
      </trkpt>
      <trkpt lat="42.344529000" lon="-2.297636000">
        <ele>560.40</ele>
        <time>2013-07-27T11:47:46Z</time>
      </trkpt>
      <trkpt lat="42.344567000" lon="-2.297573000">
        <ele>559.50</ele>
        <time>2013-07-27T11:47:47Z</time>
      </trkpt>
      <trkpt lat="42.344605000" lon="-2.297511000">
        <ele>558.80</ele>
        <time>2013-07-27T11:47:48Z</time>
      </trkpt>
      <trkpt lat="42.344640000" lon="-2.297453000">
        <ele>558.10</ele>
        <time>2013-07-27T11:47:49Z</time>
      </trkpt>
      <trkpt lat="42.344670000" lon="-2.297391000">
        <ele>557.60</ele>
        <time>2013-07-27T11:47:50Z</time>
      </trkpt>
      <trkpt lat="42.344699000" lon="-2.297331000">
        <ele>556.70</ele>
        <time>2013-07-27T11:47:51Z</time>
      </trkpt>
      <trkpt lat="42.344724000" lon="-2.297271000">
        <ele>556.00</ele>
        <time>2013-07-27T11:47:52Z</time>
      </trkpt>
      <trkpt lat="42.344746000" lon="-2.297217000">
        <ele>555.20</ele>
        <time>2013-07-27T11:47:53Z</time>
      </trkpt>
      <trkpt lat="42.344763000" lon="-2.297173000">
        <ele>554.70</ele>
        <time>2013-07-27T11:47:54Z</time>
      </trkpt>
      <trkpt lat="42.344779000" lon="-2.297139000">
        <ele>554.30</ele>
        <time>2013-07-27T11:47:55Z</time>
      </trkpt>
      <trkpt lat="42.344794000" lon="-2.297115000">
        <ele>554.00</ele>
        <time>2013-07-27T11:47:56Z</time>
      </trkpt>
      <trkpt lat="42.344816000" lon="-2.297099000">
        <ele>553.10</ele>
        <time>2013-07-27T11:47:57Z</time>
      </trkpt>
      <trkpt lat="42.344843000" lon="-2.297091000">
        <ele>552.40</ele>
        <time>2013-07-27T11:47:58Z</time>
      </trkpt>
      <trkpt lat="42.344874000" lon="-2.297091000">
        <ele>551.90</ele>
        <time>2013-07-27T11:47:59Z</time>
      </trkpt>
      <trkpt lat="42.344907000" lon="-2.297098000">
        <ele>551.50</ele>
        <time>2013-07-27T11:48:00Z</time>
      </trkpt>
      <trkpt lat="42.344940000" lon="-2.297111000">
        <ele>551.50</ele>
        <time>2013-07-27T11:48:01Z</time>
      </trkpt>
      <trkpt lat="42.344973000" lon="-2.297131000">
        <ele>551.40</ele>
        <time>2013-07-27T11:48:02Z</time>
      </trkpt>
      <trkpt lat="42.345006000" lon="-2.297149000">
        <ele>551.40</ele>
        <time>2013-07-27T11:48:03Z</time>
      </trkpt>
      <trkpt lat="42.345038000" lon="-2.297168000">
        <ele>551.30</ele>
        <time>2013-07-27T11:48:04Z</time>
      </trkpt>
      <trkpt lat="42.345071000" lon="-2.297188000">
        <ele>551.30</ele>
        <time>2013-07-27T11:48:05Z</time>
      </trkpt>
      <trkpt lat="42.345106000" lon="-2.297208000">
        <ele>551.30</ele>
        <time>2013-07-27T11:48:06Z</time>
      </trkpt>
      <trkpt lat="42.345140000" lon="-2.297229000">
        <ele>551.30</ele>
        <time>2013-07-27T11:48:07Z</time>
      </trkpt>
      <trkpt lat="42.345172000" lon="-2.297246000">
        <ele>551.40</ele>
        <time>2013-07-27T11:48:08Z</time>
      </trkpt>
      <trkpt lat="42.345206000" lon="-2.297266000">
        <ele>551.40</ele>
        <time>2013-07-27T11:48:09Z</time>
      </trkpt>
      <trkpt lat="42.345240000" lon="-2.297285000">
        <ele>551.40</ele>
        <time>2013-07-27T11:48:10Z</time>
      </trkpt>
      <trkpt lat="42.345272000" lon="-2.297306000">
        <ele>551.20</ele>
        <time>2013-07-27T11:48:11Z</time>
      </trkpt>
      <trkpt lat="42.345305000" lon="-2.297323000">
        <ele>551.10</ele>
        <time>2013-07-27T11:48:12Z</time>
      </trkpt>
      <trkpt lat="42.345337000" lon="-2.297342000">
        <ele>550.90</ele>
        <time>2013-07-27T11:48:13Z</time>
      </trkpt>
      <trkpt lat="42.345369000" lon="-2.297364000">
        <ele>550.90</ele>
        <time>2013-07-27T11:48:14Z</time>
      </trkpt>
      <trkpt lat="42.345399000" lon="-2.297385000">
        <ele>550.80</ele>
        <time>2013-07-27T11:48:15Z</time>
      </trkpt>
      <trkpt lat="42.345430000" lon="-2.297408000">
        <ele>550.70</ele>
        <time>2013-07-27T11:48:16Z</time>
      </trkpt>
      <trkpt lat="42.345461000" lon="-2.297429000">
        <ele>550.80</ele>
        <time>2013-07-27T11:48:17Z</time>
      </trkpt>
      <trkpt lat="42.345490000" lon="-2.297452000">
        <ele>550.80</ele>
        <time>2013-07-27T11:48:18Z</time>
      </trkpt>
      <trkpt lat="42.345520000" lon="-2.297476000">
        <ele>550.80</ele>
        <time>2013-07-27T11:48:19Z</time>
      </trkpt>
      <trkpt lat="42.345550000" lon="-2.297496000">
        <ele>550.80</ele>
        <time>2013-07-27T11:48:20Z</time>
      </trkpt>
      <trkpt lat="42.345579000" lon="-2.297522000">
        <ele>551.00</ele>
        <time>2013-07-27T11:48:21Z</time>
      </trkpt>
      <trkpt lat="42.345606000" lon="-2.297550000">
        <ele>551.20</ele>
        <time>2013-07-27T11:48:22Z</time>
      </trkpt>
      <trkpt lat="42.345633000" lon="-2.297577000">
        <ele>551.20</ele>
        <time>2013-07-27T11:48:23Z</time>
      </trkpt>
      <trkpt lat="42.345659000" lon="-2.297601000">
        <ele>551.10</ele>
        <time>2013-07-27T11:48:24Z</time>
      </trkpt>
      <trkpt lat="42.345685000" lon="-2.297629000">
        <ele>551.30</ele>
        <time>2013-07-27T11:48:25Z</time>
      </trkpt>
      <trkpt lat="42.345711000" lon="-2.297658000">
        <ele>551.40</ele>
        <time>2013-07-27T11:48:26Z</time>
      </trkpt>
      <trkpt lat="42.345735000" lon="-2.297685000">
        <ele>551.30</ele>
        <time>2013-07-27T11:48:27Z</time>
      </trkpt>
      <trkpt lat="42.345757000" lon="-2.297715000">
        <ele>551.30</ele>
        <time>2013-07-27T11:48:28Z</time>
      </trkpt>
      <trkpt lat="42.345783000" lon="-2.297743000">
        <ele>551.60</ele>
        <time>2013-07-27T11:48:29Z</time>
      </trkpt>
      <trkpt lat="42.345807000" lon="-2.297771000">
        <ele>551.70</ele>
        <time>2013-07-27T11:48:30Z</time>
      </trkpt>
      <trkpt lat="42.345831000" lon="-2.297799000">
        <ele>551.90</ele>
        <time>2013-07-27T11:48:31Z</time>
      </trkpt>
      <trkpt lat="42.345856000" lon="-2.297830000">
        <ele>552.10</ele>
        <time>2013-07-27T11:48:32Z</time>
      </trkpt>
      <trkpt lat="42.345876000" lon="-2.297863000">
        <ele>552.20</ele>
        <time>2013-07-27T11:48:33Z</time>
      </trkpt>
      <trkpt lat="42.345901000" lon="-2.297895000">
        <ele>552.30</ele>
        <time>2013-07-27T11:48:34Z</time>
      </trkpt>
      <trkpt lat="42.345926000" lon="-2.297924000">
        <ele>552.40</ele>
        <time>2013-07-27T11:48:35Z</time>
      </trkpt>
      <trkpt lat="42.345949000" lon="-2.297951000">
        <ele>552.50</ele>
        <time>2013-07-27T11:48:36Z</time>
      </trkpt>
      <trkpt lat="42.345971000" lon="-2.297980000">
        <ele>552.70</ele>
        <time>2013-07-27T11:48:37Z</time>
      </trkpt>
      <trkpt lat="42.345993000" lon="-2.298007000">
        <ele>552.80</ele>
        <time>2013-07-27T11:48:38Z</time>
      </trkpt>
      <trkpt lat="42.346017000" lon="-2.298038000">
        <ele>552.90</ele>
        <time>2013-07-27T11:48:39Z</time>
      </trkpt>
      <trkpt lat="42.346041000" lon="-2.298068000">
        <ele>553.00</ele>
        <time>2013-07-27T11:48:40Z</time>
      </trkpt>
      <trkpt lat="42.346063000" lon="-2.298102000">
        <ele>553.20</ele>
        <time>2013-07-27T11:48:41Z</time>
      </trkpt>
      <trkpt lat="42.346087000" lon="-2.298131000">
        <ele>553.40</ele>
        <time>2013-07-27T11:48:42Z</time>
      </trkpt>
      <trkpt lat="42.346112000" lon="-2.298163000">
        <ele>553.50</ele>
        <time>2013-07-27T11:48:43Z</time>
      </trkpt>
      <trkpt lat="42.346136000" lon="-2.298196000">
        <ele>553.60</ele>
        <time>2013-07-27T11:48:44Z</time>
      </trkpt>
      <trkpt lat="42.346159000" lon="-2.298228000">
        <ele>553.70</ele>
        <time>2013-07-27T11:48:45Z</time>
      </trkpt>
      <trkpt lat="42.346181000" lon="-2.298260000">
        <ele>553.70</ele>
        <time>2013-07-27T11:48:46Z</time>
      </trkpt>
      <trkpt lat="42.346200000" lon="-2.298297000">
        <ele>553.80</ele>
        <time>2013-07-27T11:48:47Z</time>
      </trkpt>
      <trkpt lat="42.346221000" lon="-2.298334000">
        <ele>553.90</ele>
        <time>2013-07-27T11:48:48Z</time>
      </trkpt>
      <trkpt lat="42.346242000" lon="-2.298368000">
        <ele>553.90</ele>
        <time>2013-07-27T11:48:49Z</time>
      </trkpt>
      <trkpt lat="42.346261000" lon="-2.298404000">
        <ele>553.90</ele>
        <time>2013-07-27T11:48:50Z</time>
      </trkpt>
      <trkpt lat="42.346280000" lon="-2.298440000">
        <ele>554.00</ele>
        <time>2013-07-27T11:48:51Z</time>
      </trkpt>
      <trkpt lat="42.346299000" lon="-2.298474000">
        <ele>554.10</ele>
        <time>2013-07-27T11:48:52Z</time>
      </trkpt>
      <trkpt lat="42.346316000" lon="-2.298512000">
        <ele>554.10</ele>
        <time>2013-07-27T11:48:53Z</time>
      </trkpt>
      <trkpt lat="42.346332000" lon="-2.298549000">
        <ele>554.20</ele>
        <time>2013-07-27T11:48:54Z</time>
      </trkpt>
      <trkpt lat="42.346349000" lon="-2.298588000">
        <ele>554.30</ele>
        <time>2013-07-27T11:48:55Z</time>
      </trkpt>
      <trkpt lat="42.346367000" lon="-2.298628000">
        <ele>554.40</ele>
        <time>2013-07-27T11:48:56Z</time>
      </trkpt>
      <trkpt lat="42.346384000" lon="-2.298665000">
        <ele>554.50</ele>
        <time>2013-07-27T11:48:57Z</time>
      </trkpt>
      <trkpt lat="42.346401000" lon="-2.298707000">
        <ele>554.70</ele>
        <time>2013-07-27T11:48:58Z</time>
      </trkpt>
      <trkpt lat="42.346418000" lon="-2.298746000">
        <ele>554.90</ele>
        <time>2013-07-27T11:48:59Z</time>
      </trkpt>
      <trkpt lat="42.346436000" lon="-2.298786000">
        <ele>555.10</ele>
        <time>2013-07-27T11:49:00Z</time>
      </trkpt>
      <trkpt lat="42.346454000" lon="-2.298828000">
        <ele>555.10</ele>
        <time>2013-07-27T11:49:01Z</time>
      </trkpt>
      <trkpt lat="42.346471000" lon="-2.298869000">
        <ele>555.10</ele>
        <time>2013-07-27T11:49:02Z</time>
      </trkpt>
      <trkpt lat="42.346487000" lon="-2.298912000">
        <ele>555.30</ele>
        <time>2013-07-27T11:49:03Z</time>
      </trkpt>
      <trkpt lat="42.346503000" lon="-2.298954000">
        <ele>555.40</ele>
        <time>2013-07-27T11:49:04Z</time>
      </trkpt>
      <trkpt lat="42.346516000" lon="-2.298998000">
        <ele>555.20</ele>
        <time>2013-07-27T11:49:05Z</time>
      </trkpt>
      <trkpt lat="42.346529000" lon="-2.299043000">
        <ele>555.00</ele>
        <time>2013-07-27T11:49:06Z</time>
      </trkpt>
      <trkpt lat="42.346544000" lon="-2.299086000">
        <ele>555.00</ele>
        <time>2013-07-27T11:49:07Z</time>
      </trkpt>
      <trkpt lat="42.346557000" lon="-2.299128000">
        <ele>555.00</ele>
        <time>2013-07-27T11:49:08Z</time>
      </trkpt>
      <trkpt lat="42.346567000" lon="-2.299172000">
        <ele>555.00</ele>
        <time>2013-07-27T11:49:09Z</time>
      </trkpt>
      <trkpt lat="42.346576000" lon="-2.299214000">
        <ele>555.00</ele>
        <time>2013-07-27T11:49:10Z</time>
      </trkpt>
      <trkpt lat="42.346585000" lon="-2.299255000">
        <ele>555.30</ele>
        <time>2013-07-27T11:49:11Z</time>
      </trkpt>
      <trkpt lat="42.346588000" lon="-2.299296000">
        <ele>555.60</ele>
        <time>2013-07-27T11:49:12Z</time>
      </trkpt>
      <trkpt lat="42.346593000" lon="-2.299338000">
        <ele>555.80</ele>
        <time>2013-07-27T11:49:13Z</time>
      </trkpt>
      <trkpt lat="42.346600000" lon="-2.299381000">
        <ele>555.90</ele>
        <time>2013-07-27T11:49:14Z</time>
      </trkpt>
      <trkpt lat="42.346605000" lon="-2.299424000">
        <ele>556.00</ele>
        <time>2013-07-27T11:49:15Z</time>
      </trkpt>
      <trkpt lat="42.346608000" lon="-2.299470000">
        <ele>556.00</ele>
        <time>2013-07-27T11:49:16Z</time>
      </trkpt>
      <trkpt lat="42.346610000" lon="-2.299518000">
        <ele>556.00</ele>
        <time>2013-07-27T11:49:17Z</time>
      </trkpt>
      <trkpt lat="42.346611000" lon="-2.299564000">
        <ele>556.00</ele>
        <time>2013-07-27T11:49:18Z</time>
      </trkpt>
      <trkpt lat="42.346609000" lon="-2.299611000">
        <ele>556.20</ele>
        <time>2013-07-27T11:49:19Z</time>
      </trkpt>
      <trkpt lat="42.346605000" lon="-2.299662000">
        <ele>556.40</ele>
        <time>2013-07-27T11:49:20Z</time>
      </trkpt>
      <trkpt lat="42.346601000" lon="-2.299713000">
        <ele>556.50</ele>
        <time>2013-07-27T11:49:21Z</time>
      </trkpt>
      <trkpt lat="42.346594000" lon="-2.299764000">
        <ele>556.60</ele>
        <time>2013-07-27T11:49:22Z</time>
      </trkpt>
      <trkpt lat="42.346585000" lon="-2.299815000">
        <ele>556.80</ele>
        <time>2013-07-27T11:49:23Z</time>
      </trkpt>
      <trkpt lat="42.346573000" lon="-2.299868000">
        <ele>556.90</ele>
        <time>2013-07-27T11:49:24Z</time>
      </trkpt>
      <trkpt lat="42.346558000" lon="-2.299920000">
        <ele>556.90</ele>
        <time>2013-07-27T11:49:25Z</time>
      </trkpt>
      <trkpt lat="42.346540000" lon="-2.299967000">
        <ele>556.80</ele>
        <time>2013-07-27T11:49:26Z</time>
      </trkpt>
      <trkpt lat="42.346524000" lon="-2.300014000">
        <ele>556.70</ele>
        <time>2013-07-27T11:49:27Z</time>
      </trkpt>
      <trkpt lat="42.346509000" lon="-2.300062000">
        <ele>556.60</ele>
        <time>2013-07-27T11:49:28Z</time>
      </trkpt>
      <trkpt lat="42.346492000" lon="-2.300107000">
        <ele>556.40</ele>
        <time>2013-07-27T11:49:29Z</time>
      </trkpt>
      <trkpt lat="42.346472000" lon="-2.300151000">
        <ele>556.30</ele>
        <time>2013-07-27T11:49:30Z</time>
      </trkpt>
      <trkpt lat="42.346453000" lon="-2.300196000">
        <ele>556.20</ele>
        <time>2013-07-27T11:49:31Z</time>
      </trkpt>
      <trkpt lat="42.346431000" lon="-2.300240000">
        <ele>556.00</ele>
        <time>2013-07-27T11:49:32Z</time>
      </trkpt>
      <trkpt lat="42.346410000" lon="-2.300287000">
        <ele>556.00</ele>
        <time>2013-07-27T11:49:33Z</time>
      </trkpt>
      <trkpt lat="42.346387000" lon="-2.300337000">
        <ele>555.90</ele>
        <time>2013-07-27T11:49:34Z</time>
      </trkpt>
      <trkpt lat="42.346363000" lon="-2.300382000">
        <ele>555.80</ele>
        <time>2013-07-27T11:49:35Z</time>
      </trkpt>
      <trkpt lat="42.346338000" lon="-2.300425000">
        <ele>555.70</ele>
        <time>2013-07-27T11:49:36Z</time>
      </trkpt>
      <trkpt lat="42.346312000" lon="-2.300470000">
        <ele>555.50</ele>
        <time>2013-07-27T11:49:37Z</time>
      </trkpt>
      <trkpt lat="42.346283000" lon="-2.300516000">
        <ele>555.30</ele>
        <time>2013-07-27T11:49:38Z</time>
      </trkpt>
      <trkpt lat="42.346251000" lon="-2.300564000">
        <ele>555.20</ele>
        <time>2013-07-27T11:49:39Z</time>
      </trkpt>
      <trkpt lat="42.346217000" lon="-2.300612000">
        <ele>555.10</ele>
        <time>2013-07-27T11:49:40Z</time>
      </trkpt>
      <trkpt lat="42.346177000" lon="-2.300655000">
        <ele>555.00</ele>
        <time>2013-07-27T11:49:41Z</time>
      </trkpt>
      <trkpt lat="42.346135000" lon="-2.300702000">
        <ele>555.00</ele>
        <time>2013-07-27T11:49:42Z</time>
      </trkpt>
      <trkpt lat="42.346089000" lon="-2.300752000">
        <ele>554.80</ele>
        <time>2013-07-27T11:49:43Z</time>
      </trkpt>
      <trkpt lat="42.346044000" lon="-2.300813000">
        <ele>554.60</ele>
        <time>2013-07-27T11:49:44Z</time>
      </trkpt>
      <trkpt lat="42.346003000" lon="-2.300882000">
        <ele>554.40</ele>
        <time>2013-07-27T11:49:45Z</time>
      </trkpt>
      <trkpt lat="42.345965000" lon="-2.300957000">
        <ele>554.20</ele>
        <time>2013-07-27T11:49:46Z</time>
      </trkpt>
      <trkpt lat="42.345935000" lon="-2.301040000">
        <ele>554.00</ele>
        <time>2013-07-27T11:49:47Z</time>
      </trkpt>
      <trkpt lat="42.345906000" lon="-2.301125000">
        <ele>553.80</ele>
        <time>2013-07-27T11:49:48Z</time>
      </trkpt>
      <trkpt lat="42.345878000" lon="-2.301208000">
        <ele>553.50</ele>
        <time>2013-07-27T11:49:49Z</time>
      </trkpt>
      <trkpt lat="42.345849000" lon="-2.301293000">
        <ele>553.40</ele>
        <time>2013-07-27T11:49:50Z</time>
      </trkpt>
      <trkpt lat="42.345819000" lon="-2.301378000">
        <ele>553.30</ele>
        <time>2013-07-27T11:49:51Z</time>
      </trkpt>
      <trkpt lat="42.345789000" lon="-2.301457000">
        <ele>553.20</ele>
        <time>2013-07-27T11:49:52Z</time>
      </trkpt>
      <trkpt lat="42.345758000" lon="-2.301533000">
        <ele>552.80</ele>
        <time>2013-07-27T11:49:53Z</time>
      </trkpt>
      <trkpt lat="42.345724000" lon="-2.301610000">
        <ele>552.50</ele>
        <time>2013-07-27T11:49:54Z</time>
      </trkpt>
      <trkpt lat="42.345690000" lon="-2.301683000">
        <ele>551.90</ele>
        <time>2013-07-27T11:49:55Z</time>
      </trkpt>
      <trkpt lat="42.345655000" lon="-2.301756000">
        <ele>551.40</ele>
        <time>2013-07-27T11:49:56Z</time>
      </trkpt>
      <trkpt lat="42.345619000" lon="-2.301826000">
        <ele>551.30</ele>
        <time>2013-07-27T11:49:57Z</time>
      </trkpt>
      <trkpt lat="42.345582000" lon="-2.301896000">
        <ele>551.20</ele>
        <time>2013-07-27T11:49:58Z</time>
      </trkpt>
      <trkpt lat="42.345543000" lon="-2.301963000">
        <ele>551.10</ele>
        <time>2013-07-27T11:49:59Z</time>
      </trkpt>
      <trkpt lat="42.345504000" lon="-2.302035000">
        <ele>550.90</ele>
        <time>2013-07-27T11:50:00Z</time>
      </trkpt>
      <trkpt lat="42.345462000" lon="-2.302106000">
        <ele>550.80</ele>
        <time>2013-07-27T11:50:01Z</time>
      </trkpt>
      <trkpt lat="42.345420000" lon="-2.302172000">
        <ele>550.70</ele>
        <time>2013-07-27T11:50:02Z</time>
      </trkpt>
      <trkpt lat="42.345380000" lon="-2.302230000">
        <ele>550.40</ele>
        <time>2013-07-27T11:50:03Z</time>
      </trkpt>
      <trkpt lat="42.345345000" lon="-2.302281000">
        <ele>550.10</ele>
        <time>2013-07-27T11:50:04Z</time>
      </trkpt>
      <trkpt lat="42.345313000" lon="-2.302326000">
        <ele>549.80</ele>
        <time>2013-07-27T11:50:05Z</time>
      </trkpt>
      <trkpt lat="42.345287000" lon="-2.302366000">
        <ele>549.70</ele>
        <time>2013-07-27T11:50:06Z</time>
      </trkpt>
      <trkpt lat="42.345262000" lon="-2.302404000">
        <ele>549.40</ele>
        <time>2013-07-27T11:50:07Z</time>
      </trkpt>
      <trkpt lat="42.345240000" lon="-2.302442000">
        <ele>549.20</ele>
        <time>2013-07-27T11:50:08Z</time>
      </trkpt>
      <trkpt lat="42.345221000" lon="-2.302484000">
        <ele>548.90</ele>
        <time>2013-07-27T11:50:09Z</time>
      </trkpt>
      <trkpt lat="42.345208000" lon="-2.302532000">
        <ele>548.70</ele>
        <time>2013-07-27T11:50:10Z</time>
      </trkpt>
      <trkpt lat="42.345202000" lon="-2.302581000">
        <ele>548.30</ele>
        <time>2013-07-27T11:50:11Z</time>
      </trkpt>
      <trkpt lat="42.345210000" lon="-2.302636000">
        <ele>548.10</ele>
        <time>2013-07-27T11:50:12Z</time>
      </trkpt>
      <trkpt lat="42.345223000" lon="-2.302696000">
        <ele>547.90</ele>
        <time>2013-07-27T11:50:13Z</time>
      </trkpt>
      <trkpt lat="42.345243000" lon="-2.302756000">
        <ele>547.70</ele>
        <time>2013-07-27T11:50:14Z</time>
      </trkpt>
      <trkpt lat="42.345262000" lon="-2.302818000">
        <ele>547.50</ele>
        <time>2013-07-27T11:50:15Z</time>
      </trkpt>
      <trkpt lat="42.345283000" lon="-2.302874000">
        <ele>547.40</ele>
        <time>2013-07-27T11:50:16Z</time>
      </trkpt>
      <trkpt lat="42.345315000" lon="-2.302907000">
        <ele>547.40</ele>
        <time>2013-07-27T11:50:17Z</time>
      </trkpt>
      <trkpt lat="42.345351000" lon="-2.302923000">
        <ele>547.30</ele>
        <time>2013-07-27T11:50:18Z</time>
      </trkpt>
      <trkpt lat="42.345388000" lon="-2.302922000">
        <ele>547.30</ele>
        <time>2013-07-27T11:50:19Z</time>
      </trkpt>
      <trkpt lat="42.345424000" lon="-2.302898000">
        <ele>547.30</ele>
        <time>2013-07-27T11:50:20Z</time>
      </trkpt>
      <trkpt lat="42.345459000" lon="-2.302865000">
        <ele>547.30</ele>
        <time>2013-07-27T11:50:21Z</time>
      </trkpt>
      <trkpt lat="42.345494000" lon="-2.302833000">
        <ele>547.30</ele>
        <time>2013-07-27T11:50:22Z</time>
      </trkpt>
      <trkpt lat="42.345530000" lon="-2.302806000">
        <ele>547.40</ele>
        <time>2013-07-27T11:50:23Z</time>
      </trkpt>
      <trkpt lat="42.345568000" lon="-2.302780000">
        <ele>547.50</ele>
        <time>2013-07-27T11:50:24Z</time>
      </trkpt>
      <trkpt lat="42.345603000" lon="-2.302751000">
        <ele>547.60</ele>
        <time>2013-07-27T11:50:25Z</time>
      </trkpt>
      <trkpt lat="42.345638000" lon="-2.302721000">
        <ele>547.80</ele>
        <time>2013-07-27T11:50:26Z</time>
      </trkpt>
      <trkpt lat="42.345673000" lon="-2.302689000">
        <ele>547.90</ele>
        <time>2013-07-27T11:50:27Z</time>
      </trkpt>
      <trkpt lat="42.345708000" lon="-2.302659000">
        <ele>548.00</ele>
        <time>2013-07-27T11:50:28Z</time>
      </trkpt>
      <trkpt lat="42.345742000" lon="-2.302631000">
        <ele>548.10</ele>
        <time>2013-07-27T11:50:29Z</time>
      </trkpt>
      <trkpt lat="42.345775000" lon="-2.302599000">
        <ele>548.20</ele>
        <time>2013-07-27T11:50:30Z</time>
      </trkpt>
      <trkpt lat="42.345807000" lon="-2.302567000">
        <ele>548.10</ele>
        <time>2013-07-27T11:50:31Z</time>
      </trkpt>
      <trkpt lat="42.345839000" lon="-2.302533000">
        <ele>548.00</ele>
        <time>2013-07-27T11:50:32Z</time>
      </trkpt>
      <trkpt lat="42.345874000" lon="-2.302497000">
        <ele>548.10</ele>
        <time>2013-07-27T11:50:33Z</time>
      </trkpt>
      <trkpt lat="42.345910000" lon="-2.302464000">
        <ele>548.20</ele>
        <time>2013-07-27T11:50:34Z</time>
      </trkpt>
      <trkpt lat="42.345947000" lon="-2.302430000">
        <ele>548.40</ele>
        <time>2013-07-27T11:50:35Z</time>
      </trkpt>
      <trkpt lat="42.345985000" lon="-2.302399000">
        <ele>548.60</ele>
        <time>2013-07-27T11:50:36Z</time>
      </trkpt>
      <trkpt lat="42.346023000" lon="-2.302367000">
        <ele>548.70</ele>
        <time>2013-07-27T11:50:37Z</time>
      </trkpt>
      <trkpt lat="42.346062000" lon="-2.302345000">
        <ele>548.90</ele>
        <time>2013-07-27T11:50:38Z</time>
      </trkpt>
      <trkpt lat="42.346102000" lon="-2.302326000">
        <ele>549.00</ele>
        <time>2013-07-27T11:50:39Z</time>
      </trkpt>
      <trkpt lat="42.346142000" lon="-2.302307000">
        <ele>549.20</ele>
        <time>2013-07-27T11:50:40Z</time>
      </trkpt>
      <trkpt lat="42.346182000" lon="-2.302293000">
        <ele>549.50</ele>
        <time>2013-07-27T11:50:41Z</time>
      </trkpt>
      <trkpt lat="42.346222000" lon="-2.302279000">
        <ele>549.80</ele>
        <time>2013-07-27T11:50:42Z</time>
      </trkpt>
      <trkpt lat="42.346263000" lon="-2.302262000">
        <ele>550.10</ele>
        <time>2013-07-27T11:50:43Z</time>
      </trkpt>
      <trkpt lat="42.346304000" lon="-2.302246000">
        <ele>550.30</ele>
        <time>2013-07-27T11:50:44Z</time>
      </trkpt>
      <trkpt lat="42.346341000" lon="-2.302232000">
        <ele>550.40</ele>
        <time>2013-07-27T11:50:45Z</time>
      </trkpt>
      <trkpt lat="42.346379000" lon="-2.302220000">
        <ele>550.50</ele>
        <time>2013-07-27T11:50:46Z</time>
      </trkpt>
      <trkpt lat="42.346418000" lon="-2.302210000">
        <ele>550.70</ele>
        <time>2013-07-27T11:50:47Z</time>
      </trkpt>
      <trkpt lat="42.346457000" lon="-2.302198000">
        <ele>550.90</ele>
        <time>2013-07-27T11:50:48Z</time>
      </trkpt>
      <trkpt lat="42.346495000" lon="-2.302189000">
        <ele>551.10</ele>
        <time>2013-07-27T11:50:49Z</time>
      </trkpt>
      <trkpt lat="42.346533000" lon="-2.302173000">
        <ele>551.20</ele>
        <time>2013-07-27T11:50:50Z</time>
      </trkpt>
      <trkpt lat="42.346571000" lon="-2.302157000">
        <ele>551.30</ele>
        <time>2013-07-27T11:50:51Z</time>
      </trkpt>
      <trkpt lat="42.346608000" lon="-2.302144000">
        <ele>551.40</ele>
        <time>2013-07-27T11:50:52Z</time>
      </trkpt>
      <trkpt lat="42.346643000" lon="-2.302130000">
        <ele>551.60</ele>
        <time>2013-07-27T11:50:53Z</time>
      </trkpt>
      <trkpt lat="42.346679000" lon="-2.302120000">
        <ele>551.80</ele>
        <time>2013-07-27T11:50:54Z</time>
      </trkpt>
      <trkpt lat="42.346717000" lon="-2.302109000">
        <ele>552.20</ele>
        <time>2013-07-27T11:50:55Z</time>
      </trkpt>
      <trkpt lat="42.346754000" lon="-2.302100000">
        <ele>552.60</ele>
        <time>2013-07-27T11:50:56Z</time>
      </trkpt>
      <trkpt lat="42.346792000" lon="-2.302091000">
        <ele>552.80</ele>
        <time>2013-07-27T11:50:57Z</time>
      </trkpt>
      <trkpt lat="42.346830000" lon="-2.302082000">
        <ele>553.00</ele>
        <time>2013-07-27T11:50:58Z</time>
      </trkpt>
      <trkpt lat="42.346867000" lon="-2.302075000">
        <ele>553.10</ele>
        <time>2013-07-27T11:50:59Z</time>
      </trkpt>
      <trkpt lat="42.346903000" lon="-2.302070000">
        <ele>553.20</ele>
        <time>2013-07-27T11:51:00Z</time>
      </trkpt>
      <trkpt lat="42.346940000" lon="-2.302061000">
        <ele>553.20</ele>
        <time>2013-07-27T11:51:01Z</time>
      </trkpt>
      <trkpt lat="42.346975000" lon="-2.302054000">
        <ele>553.20</ele>
        <time>2013-07-27T11:51:02Z</time>
      </trkpt>
      <trkpt lat="42.347011000" lon="-2.302046000">
        <ele>553.50</ele>
        <time>2013-07-27T11:51:03Z</time>
      </trkpt>
      <trkpt lat="42.347046000" lon="-2.302041000">
        <ele>553.80</ele>
        <time>2013-07-27T11:51:04Z</time>
      </trkpt>
      <trkpt lat="42.347083000" lon="-2.302037000">
        <ele>554.00</ele>
        <time>2013-07-27T11:51:05Z</time>
      </trkpt>
      <trkpt lat="42.347121000" lon="-2.302035000">
        <ele>554.20</ele>
        <time>2013-07-27T11:51:06Z</time>
      </trkpt>
      <trkpt lat="42.347158000" lon="-2.302030000">
        <ele>554.30</ele>
        <time>2013-07-27T11:51:07Z</time>
      </trkpt>
      <trkpt lat="42.347195000" lon="-2.302024000">
        <ele>554.40</ele>
        <time>2013-07-27T11:51:08Z</time>
      </trkpt>
      <trkpt lat="42.347230000" lon="-2.302015000">
        <ele>554.60</ele>
        <time>2013-07-27T11:51:09Z</time>
      </trkpt>
      <trkpt lat="42.347265000" lon="-2.302013000">
        <ele>554.70</ele>
        <time>2013-07-27T11:51:10Z</time>
      </trkpt>
      <trkpt lat="42.347299000" lon="-2.302008000">
        <ele>554.80</ele>
        <time>2013-07-27T11:51:11Z</time>
      </trkpt>
      <trkpt lat="42.347333000" lon="-2.302003000">
        <ele>555.20</ele>
        <time>2013-07-27T11:51:12Z</time>
      </trkpt>
      <trkpt lat="42.347368000" lon="-2.301997000">
        <ele>555.50</ele>
        <time>2013-07-27T11:51:13Z</time>
      </trkpt>
      <trkpt lat="42.347403000" lon="-2.301992000">
        <ele>555.60</ele>
        <time>2013-07-27T11:51:14Z</time>
      </trkpt>
      <trkpt lat="42.347440000" lon="-2.301986000">
        <ele>555.80</ele>
        <time>2013-07-27T11:51:15Z</time>
      </trkpt>
      <trkpt lat="42.347475000" lon="-2.301980000">
        <ele>555.90</ele>
        <time>2013-07-27T11:51:16Z</time>
      </trkpt>
      <trkpt lat="42.347510000" lon="-2.301976000">
        <ele>556.00</ele>
        <time>2013-07-27T11:51:17Z</time>
      </trkpt>
      <trkpt lat="42.347545000" lon="-2.301971000">
        <ele>556.00</ele>
        <time>2013-07-27T11:51:18Z</time>
      </trkpt>
      <trkpt lat="42.347580000" lon="-2.301970000">
        <ele>556.00</ele>
        <time>2013-07-27T11:51:19Z</time>
      </trkpt>
      <trkpt lat="42.347614000" lon="-2.301965000">
        <ele>556.40</ele>
        <time>2013-07-27T11:51:20Z</time>
      </trkpt>
      <trkpt lat="42.347649000" lon="-2.301961000">
        <ele>556.70</ele>
        <time>2013-07-27T11:51:21Z</time>
      </trkpt>
      <trkpt lat="42.347684000" lon="-2.301954000">
        <ele>557.00</ele>
        <time>2013-07-27T11:51:22Z</time>
      </trkpt>
      <trkpt lat="42.347721000" lon="-2.301944000">
        <ele>557.30</ele>
        <time>2013-07-27T11:51:23Z</time>
      </trkpt>
      <trkpt lat="42.347756000" lon="-2.301938000">
        <ele>557.60</ele>
        <time>2013-07-27T11:51:24Z</time>
      </trkpt>
      <trkpt lat="42.347794000" lon="-2.301934000">
        <ele>557.80</ele>
        <time>2013-07-27T11:51:25Z</time>
      </trkpt>
      <trkpt lat="42.347831000" lon="-2.301925000">
        <ele>558.20</ele>
        <time>2013-07-27T11:51:26Z</time>
      </trkpt>
      <trkpt lat="42.347867000" lon="-2.301924000">
        <ele>558.50</ele>
        <time>2013-07-27T11:51:27Z</time>
      </trkpt>
      <trkpt lat="42.347902000" lon="-2.301920000">
        <ele>558.70</ele>
        <time>2013-07-27T11:51:28Z</time>
      </trkpt>
      <trkpt lat="42.347938000" lon="-2.301916000">
        <ele>558.80</ele>
        <time>2013-07-27T11:51:29Z</time>
      </trkpt>
      <trkpt lat="42.347973000" lon="-2.301908000">
        <ele>558.90</ele>
        <time>2013-07-27T11:51:30Z</time>
      </trkpt>
      <trkpt lat="42.348009000" lon="-2.301897000">
        <ele>559.00</ele>
        <time>2013-07-27T11:51:31Z</time>
      </trkpt>
      <trkpt lat="42.348047000" lon="-2.301891000">
        <ele>559.30</ele>
        <time>2013-07-27T11:51:32Z</time>
      </trkpt>
      <trkpt lat="42.348083000" lon="-2.301886000">
        <ele>559.50</ele>
        <time>2013-07-27T11:51:33Z</time>
      </trkpt>
      <trkpt lat="42.348123000" lon="-2.301880000">
        <ele>559.70</ele>
        <time>2013-07-27T11:51:34Z</time>
      </trkpt>
      <trkpt lat="42.348161000" lon="-2.301877000">
        <ele>559.90</ele>
        <time>2013-07-27T11:51:35Z</time>
      </trkpt>
      <trkpt lat="42.348201000" lon="-2.301874000">
        <ele>560.20</ele>
        <time>2013-07-27T11:51:36Z</time>
      </trkpt>
      <trkpt lat="42.348236000" lon="-2.301868000">
        <ele>560.30</ele>
        <time>2013-07-27T11:51:37Z</time>
      </trkpt>
      <trkpt lat="42.348273000" lon="-2.301864000">
        <ele>560.70</ele>
        <time>2013-07-27T11:51:38Z</time>
      </trkpt>
      <trkpt lat="42.348310000" lon="-2.301862000">
        <ele>560.90</ele>
        <time>2013-07-27T11:51:39Z</time>
      </trkpt>
      <trkpt lat="42.348345000" lon="-2.301859000">
        <ele>561.20</ele>
        <time>2013-07-27T11:51:40Z</time>
      </trkpt>
      <trkpt lat="42.348378000" lon="-2.301851000">
        <ele>561.50</ele>
        <time>2013-07-27T11:51:41Z</time>
      </trkpt>
      <trkpt lat="42.348414000" lon="-2.301843000">
        <ele>561.60</ele>
        <time>2013-07-27T11:51:42Z</time>
      </trkpt>
      <trkpt lat="42.348450000" lon="-2.301836000">
        <ele>561.80</ele>
        <time>2013-07-27T11:51:43Z</time>
      </trkpt>
      <trkpt lat="42.348487000" lon="-2.301828000">
        <ele>561.90</ele>
        <time>2013-07-27T11:51:44Z</time>
      </trkpt>
      <trkpt lat="42.348524000" lon="-2.301823000">
        <ele>561.90</ele>
        <time>2013-07-27T11:51:45Z</time>
      </trkpt>
      <trkpt lat="42.348561000" lon="-2.301822000">
        <ele>562.40</ele>
        <time>2013-07-27T11:51:46Z</time>
      </trkpt>
      <trkpt lat="42.348597000" lon="-2.301818000">
        <ele>562.70</ele>
        <time>2013-07-27T11:51:47Z</time>
      </trkpt>
      <trkpt lat="42.348635000" lon="-2.301811000">
        <ele>563.10</ele>
        <time>2013-07-27T11:51:48Z</time>
      </trkpt>
      <trkpt lat="42.348669000" lon="-2.301805000">
        <ele>563.30</ele>
        <time>2013-07-27T11:51:49Z</time>
      </trkpt>
      <trkpt lat="42.348701000" lon="-2.301800000">
        <ele>563.50</ele>
        <time>2013-07-27T11:51:50Z</time>
      </trkpt>
      <trkpt lat="42.348733000" lon="-2.301796000">
        <ele>563.60</ele>
        <time>2013-07-27T11:51:51Z</time>
      </trkpt>
      <trkpt lat="42.348764000" lon="-2.301797000">
        <ele>563.70</ele>
        <time>2013-07-27T11:51:52Z</time>
      </trkpt>
      <trkpt lat="42.348795000" lon="-2.301803000">
        <ele>563.80</ele>
        <time>2013-07-27T11:51:53Z</time>
      </trkpt>
      <trkpt lat="42.348826000" lon="-2.301807000">
        <ele>564.20</ele>
        <time>2013-07-27T11:51:54Z</time>
      </trkpt>
      <trkpt lat="42.348853000" lon="-2.301811000">
        <ele>564.50</ele>
        <time>2013-07-27T11:51:55Z</time>
      </trkpt>
      <trkpt lat="42.348879000" lon="-2.301816000">
        <ele>564.90</ele>
        <time>2013-07-27T11:51:56Z</time>
      </trkpt>
      <trkpt lat="42.348904000" lon="-2.301821000">
        <ele>565.20</ele>
        <time>2013-07-27T11:51:57Z</time>
      </trkpt>
      <trkpt lat="42.348930000" lon="-2.301828000">
        <ele>565.40</ele>
        <time>2013-07-27T11:51:58Z</time>
      </trkpt>
      <trkpt lat="42.348956000" lon="-2.301831000">
        <ele>565.60</ele>
        <time>2013-07-27T11:51:59Z</time>
      </trkpt>
      <trkpt lat="42.348980000" lon="-2.301834000">
        <ele>565.70</ele>
        <time>2013-07-27T11:52:00Z</time>
      </trkpt>
      <trkpt lat="42.349003000" lon="-2.301838000">
        <ele>565.80</ele>
        <time>2013-07-27T11:52:01Z</time>
      </trkpt>
      <trkpt lat="42.349025000" lon="-2.301844000">
        <ele>565.90</ele>
        <time>2013-07-27T11:52:02Z</time>
      </trkpt>
      <trkpt lat="42.349043000" lon="-2.301851000">
        <ele>565.90</ele>
        <time>2013-07-27T11:52:03Z</time>
      </trkpt>
      <trkpt lat="42.349061000" lon="-2.301850000">
        <ele>566.20</ele>
        <time>2013-07-27T11:52:04Z</time>
      </trkpt>
      <trkpt lat="42.349085000" lon="-2.301845000">
        <ele>566.40</ele>
        <time>2013-07-27T11:52:05Z</time>
      </trkpt>
      <trkpt lat="42.349107000" lon="-2.301840000">
        <ele>566.50</ele>
        <time>2013-07-27T11:52:06Z</time>
      </trkpt>
      <trkpt lat="42.349132000" lon="-2.301842000">
        <ele>566.70</ele>
        <time>2013-07-27T11:52:07Z</time>
      </trkpt>
      <trkpt lat="42.349158000" lon="-2.301842000">
        <ele>567.00</ele>
        <time>2013-07-27T11:52:08Z</time>
      </trkpt>
      <trkpt lat="42.349182000" lon="-2.301840000">
        <ele>567.20</ele>
        <time>2013-07-27T11:52:09Z</time>
      </trkpt>
      <trkpt lat="42.349205000" lon="-2.301837000">
        <ele>567.20</ele>
        <time>2013-07-27T11:52:10Z</time>
      </trkpt>
      <trkpt lat="42.349229000" lon="-2.301839000">
        <ele>567.20</ele>
        <time>2013-07-27T11:52:11Z</time>
      </trkpt>
      <trkpt lat="42.349253000" lon="-2.301847000">
        <ele>567.20</ele>
        <time>2013-07-27T11:52:12Z</time>
      </trkpt>
      <trkpt lat="42.349277000" lon="-2.301856000">
        <ele>567.10</ele>
        <time>2013-07-27T11:52:13Z</time>
      </trkpt>
      <trkpt lat="42.349299000" lon="-2.301866000">
        <ele>567.10</ele>
        <time>2013-07-27T11:52:14Z</time>
      </trkpt>
      <trkpt lat="42.349322000" lon="-2.301872000">
        <ele>567.00</ele>
        <time>2013-07-27T11:52:15Z</time>
      </trkpt>
      <trkpt lat="42.349347000" lon="-2.301876000">
        <ele>566.80</ele>
        <time>2013-07-27T11:52:16Z</time>
      </trkpt>
      <trkpt lat="42.349370000" lon="-2.301882000">
        <ele>566.60</ele>
        <time>2013-07-27T11:52:17Z</time>
      </trkpt>
      <trkpt lat="42.349392000" lon="-2.301893000">
        <ele>566.50</ele>
        <time>2013-07-27T11:52:18Z</time>
      </trkpt>
      <trkpt lat="42.349410000" lon="-2.301902000">
        <ele>566.40</ele>
        <time>2013-07-27T11:52:19Z</time>
      </trkpt>
      <trkpt lat="42.349427000" lon="-2.301909000">
        <ele>566.30</ele>
        <time>2013-07-27T11:52:20Z</time>
      </trkpt>
      <trkpt lat="42.349439000" lon="-2.301915000">
        <ele>566.20</ele>
        <time>2013-07-27T11:52:21Z</time>
      </trkpt>
      <trkpt lat="42.349450000" lon="-2.301915000">
        <ele>566.20</ele>
        <time>2013-07-27T11:52:22Z</time>
      </trkpt>
      <trkpt lat="42.349459000" lon="-2.301916000">
        <ele>566.10</ele>
        <time>2013-07-27T11:52:23Z</time>
      </trkpt>
      <trkpt lat="42.349466000" lon="-2.301917000">
        <ele>566.10</ele>
        <time>2013-07-27T11:52:24Z</time>
      </trkpt>
      <trkpt lat="42.349476000" lon="-2.301924000">
        <ele>566.10</ele>
        <time>2013-07-27T11:52:25Z</time>
      </trkpt>
      <trkpt lat="42.349485000" lon="-2.301930000">
        <ele>566.00</ele>
        <time>2013-07-27T11:52:26Z</time>
      </trkpt>
      <trkpt lat="42.349490000" lon="-2.301927000">
        <ele>566.00</ele>
        <time>2013-07-27T11:52:27Z</time>
      </trkpt>
      <trkpt lat="42.349496000" lon="-2.301936000">
        <ele>565.90</ele>
        <time>2013-07-27T11:52:28Z</time>
      </trkpt>
      <trkpt lat="42.349499000" lon="-2.301938000">
        <ele>565.90</ele>
        <time>2013-07-27T11:52:29Z</time>
      </trkpt>
      <trkpt lat="42.349502000" lon="-2.301940000">
        <ele>565.80</ele>
        <time>2013-07-27T11:52:30Z</time>
      </trkpt>
      <trkpt lat="42.349504000" lon="-2.301949000">
        <ele>565.70</ele>
        <time>2013-07-27T11:52:31Z</time>
      </trkpt>
      <trkpt lat="42.349506000" lon="-2.301952000">
        <ele>565.60</ele>
        <time>2013-07-27T11:52:32Z</time>
      </trkpt>
      <trkpt lat="42.349507000" lon="-2.301956000">
        <ele>565.60</ele>
        <time>2013-07-27T11:52:33Z</time>
      </trkpt>
      <trkpt lat="42.349507000" lon="-2.301960000">
        <ele>565.50</ele>
        <time>2013-07-27T11:52:34Z</time>
      </trkpt>
      <trkpt lat="42.349512000" lon="-2.301961000">
        <ele>565.50</ele>
        <time>2013-07-27T11:52:35Z</time>
      </trkpt>
      <trkpt lat="42.349515000" lon="-2.301966000">
        <ele>565.40</ele>
        <time>2013-07-27T11:52:36Z</time>
      </trkpt>
      <trkpt lat="42.349518000" lon="-2.301968000">
        <ele>565.30</ele>
        <time>2013-07-27T11:52:37Z</time>
      </trkpt>
      <trkpt lat="42.349516000" lon="-2.301975000">
        <ele>565.20</ele>
        <time>2013-07-27T11:52:38Z</time>
      </trkpt>
      <trkpt lat="42.349517000" lon="-2.301978000">
        <ele>565.10</ele>
        <time>2013-07-27T11:52:39Z</time>
      </trkpt>
      <trkpt lat="42.349517000" lon="-2.301982000">
        <ele>565.00</ele>
        <time>2013-07-27T11:52:40Z</time>
      </trkpt>
      <trkpt lat="42.349518000" lon="-2.301986000">
        <ele>565.00</ele>
        <time>2013-07-27T11:52:41Z</time>
      </trkpt>
      <trkpt lat="42.349520000" lon="-2.301985000">
        <ele>564.90</ele>
        <time>2013-07-27T11:52:42Z</time>
      </trkpt>
      <trkpt lat="42.349519000" lon="-2.301989000">
        <ele>564.90</ele>
        <time>2013-07-27T11:52:43Z</time>
      </trkpt>
      <trkpt lat="42.349518000" lon="-2.301992000">
        <ele>564.90</ele>
        <time>2013-07-27T11:52:44Z</time>
      </trkpt>
      <trkpt lat="42.349521000" lon="-2.301992000">
        <ele>564.90</ele>
        <time>2013-07-27T11:52:45Z</time>
      </trkpt>
      <trkpt lat="42.349522000" lon="-2.301992000">
        <ele>564.80</ele>
        <time>2013-07-27T11:52:46Z</time>
      </trkpt>
      <trkpt lat="42.349523000" lon="-2.301993000">
        <ele>564.80</ele>
        <time>2013-07-27T11:52:47Z</time>
      </trkpt>
      <trkpt lat="42.349522000" lon="-2.301991000">
        <ele>564.70</ele>
        <time>2013-07-27T11:52:48Z</time>
      </trkpt>
      <trkpt lat="42.349524000" lon="-2.301993000">
        <ele>564.60</ele>
        <time>2013-07-27T11:52:49Z</time>
      </trkpt>
      <trkpt lat="42.349525000" lon="-2.301993000">
        <ele>564.50</ele>
        <time>2013-07-27T11:52:50Z</time>
      </trkpt>
      <trkpt lat="42.349524000" lon="-2.301994000">
        <ele>564.50</ele>
        <time>2013-07-27T11:52:51Z</time>
      </trkpt>
      <trkpt lat="42.349524000" lon="-2.301997000">
        <ele>564.60</ele>
        <time>2013-07-27T11:52:52Z</time>
      </trkpt>
      <trkpt lat="42.349524000" lon="-2.302000000">
        <ele>564.70</ele>
        <time>2013-07-27T11:52:53Z</time>
      </trkpt>
      <trkpt lat="42.349522000" lon="-2.302004000">
        <ele>564.80</ele>
        <time>2013-07-27T11:52:54Z</time>
      </trkpt>
      <trkpt lat="42.349522000" lon="-2.302005000">
        <ele>564.80</ele>
        <time>2013-07-27T11:52:55Z</time>
      </trkpt>
      <trkpt lat="42.349522000" lon="-2.302005000">
        <ele>564.80</ele>
        <time>2013-07-27T11:52:56Z</time>
      </trkpt>
      <trkpt lat="42.349520000" lon="-2.302003000">
        <ele>564.80</ele>
        <time>2013-07-27T11:52:57Z</time>
      </trkpt>
      <trkpt lat="42.349518000" lon="-2.302005000">
        <ele>564.70</ele>
        <time>2013-07-27T11:52:58Z</time>
      </trkpt>
      <trkpt lat="42.349517000" lon="-2.302005000">
        <ele>564.60</ele>
        <time>2013-07-27T11:52:59Z</time>
      </trkpt>
      <trkpt lat="42.349517000" lon="-2.302003000">
        <ele>564.60</ele>
        <time>2013-07-27T11:53:00Z</time>
      </trkpt>
      <trkpt lat="42.349517000" lon="-2.302003000">
        <ele>564.60</ele>
        <time>2013-07-27T11:53:01Z</time>
      </trkpt>
      <trkpt lat="42.349516000" lon="-2.302004000">
        <ele>564.40</ele>
        <time>2013-07-27T11:53:02Z</time>
      </trkpt>
      <trkpt lat="42.349515000" lon="-2.302004000">
        <ele>564.40</ele>
        <time>2013-07-27T11:53:03Z</time>
      </trkpt>
      <trkpt lat="42.349512000" lon="-2.302008000">
        <ele>564.30</ele>
        <time>2013-07-27T11:53:04Z</time>
      </trkpt>
      <trkpt lat="42.349512000" lon="-2.302008000">
        <ele>564.20</ele>
        <time>2013-07-27T11:53:05Z</time>
      </trkpt>
      <trkpt lat="42.349510000" lon="-2.302010000">
        <ele>564.20</ele>
        <time>2013-07-27T11:53:06Z</time>
      </trkpt>
      <trkpt lat="42.349510000" lon="-2.302011000">
        <ele>564.20</ele>
        <time>2013-07-27T11:53:07Z</time>
      </trkpt>
      <trkpt lat="42.349510000" lon="-2.302013000">
        <ele>564.20</ele>
        <time>2013-07-27T11:53:08Z</time>
      </trkpt>
      <trkpt lat="42.349511000" lon="-2.302015000">
        <ele>564.30</ele>
        <time>2013-07-27T11:53:09Z</time>
      </trkpt>
      <trkpt lat="42.349510000" lon="-2.302018000">
        <ele>564.30</ele>
        <time>2013-07-27T11:53:10Z</time>
      </trkpt>
      <trkpt lat="42.349511000" lon="-2.302021000">
        <ele>564.30</ele>
        <time>2013-07-27T11:53:11Z</time>
      </trkpt>
      <trkpt lat="42.349512000" lon="-2.302020000">
        <ele>564.30</ele>
        <time>2013-07-27T11:53:12Z</time>
      </trkpt>
      <trkpt lat="42.349511000" lon="-2.302017000">
        <ele>564.30</ele>
        <time>2013-07-27T11:53:13Z</time>
      </trkpt>
      <trkpt lat="42.349510000" lon="-2.302015000">
        <ele>564.20</ele>
        <time>2013-07-27T11:53:14Z</time>
      </trkpt>
      <trkpt lat="42.349508000" lon="-2.302014000">
        <ele>564.10</ele>
        <time>2013-07-27T11:53:15Z</time>
      </trkpt>
      <trkpt lat="42.349507000" lon="-2.302013000">
        <ele>564.00</ele>
        <time>2013-07-27T11:53:16Z</time>
      </trkpt>
      <trkpt lat="42.349506000" lon="-2.302010000">
        <ele>563.80</ele>
        <time>2013-07-27T11:53:17Z</time>
      </trkpt>
      <trkpt lat="42.349505000" lon="-2.302010000">
        <ele>563.80</ele>
        <time>2013-07-27T11:53:18Z</time>
      </trkpt>
      <trkpt lat="42.349506000" lon="-2.302008000">
        <ele>563.70</ele>
        <time>2013-07-27T11:53:19Z</time>
      </trkpt>
      <trkpt lat="42.349506000" lon="-2.302005000">
        <ele>563.60</ele>
        <time>2013-07-27T11:53:20Z</time>
      </trkpt>
      <trkpt lat="42.349506000" lon="-2.302003000">
        <ele>563.60</ele>
        <time>2013-07-27T11:53:21Z</time>
      </trkpt>
      <trkpt lat="42.349505000" lon="-2.302003000">
        <ele>563.60</ele>
        <time>2013-07-27T11:53:22Z</time>
      </trkpt>
      <trkpt lat="42.349505000" lon="-2.302001000">
        <ele>563.50</ele>
        <time>2013-07-27T11:53:23Z</time>
      </trkpt>
      <trkpt lat="42.349506000" lon="-2.302000000">
        <ele>563.80</ele>
        <time>2013-07-27T11:53:24Z</time>
      </trkpt>
      <trkpt lat="42.349507000" lon="-2.301999000">
        <ele>564.00</ele>
        <time>2013-07-27T11:53:25Z</time>
      </trkpt>
      <trkpt lat="42.349508000" lon="-2.301999000">
        <ele>564.00</ele>
        <time>2013-07-27T11:53:26Z</time>
      </trkpt>
      <trkpt lat="42.349509000" lon="-2.301999000">
        <ele>564.00</ele>
        <time>2013-07-27T11:53:27Z</time>
      </trkpt>
      <trkpt lat="42.349507000" lon="-2.301999000">
        <ele>564.00</ele>
        <time>2013-07-27T11:53:28Z</time>
      </trkpt>
      <trkpt lat="42.349506000" lon="-2.301998000">
        <ele>564.00</ele>
        <time>2013-07-27T11:53:29Z</time>
      </trkpt>
      <trkpt lat="42.349505000" lon="-2.302000000">
        <ele>563.90</ele>
        <time>2013-07-27T11:53:30Z</time>
      </trkpt>
      <trkpt lat="42.349504000" lon="-2.301999000">
        <ele>563.90</ele>
        <time>2013-07-27T11:53:31Z</time>
      </trkpt>
      <trkpt lat="42.349508000" lon="-2.302000000">
        <ele>563.90</ele>
        <time>2013-07-27T11:53:32Z</time>
      </trkpt>
      <trkpt lat="42.349510000" lon="-2.302002000">
        <ele>563.80</ele>
        <time>2013-07-27T11:53:33Z</time>
      </trkpt>
      <trkpt lat="42.349513000" lon="-2.302003000">
        <ele>563.90</ele>
        <time>2013-07-27T11:53:34Z</time>
      </trkpt>
      <trkpt lat="42.349514000" lon="-2.302003000">
        <ele>563.90</ele>
        <time>2013-07-27T11:53:35Z</time>
      </trkpt>
      <trkpt lat="42.349515000" lon="-2.302004000">
        <ele>564.00</ele>
        <time>2013-07-27T11:53:36Z</time>
      </trkpt>
      <trkpt lat="42.349517000" lon="-2.302005000">
        <ele>564.10</ele>
        <time>2013-07-27T11:53:37Z</time>
      </trkpt>
      <trkpt lat="42.349518000" lon="-2.302006000">
        <ele>564.10</ele>
        <time>2013-07-27T11:53:38Z</time>
      </trkpt>
      <trkpt lat="42.349518000" lon="-2.302005000">
        <ele>564.00</ele>
        <time>2013-07-27T11:53:39Z</time>
      </trkpt>
      <trkpt lat="42.349517000" lon="-2.302005000">
        <ele>563.90</ele>
        <time>2013-07-27T11:53:40Z</time>
      </trkpt>
      <trkpt lat="42.349518000" lon="-2.302006000">
        <ele>563.80</ele>
        <time>2013-07-27T11:53:41Z</time>
      </trkpt>
      <trkpt lat="42.349520000" lon="-2.302009000">
        <ele>563.60</ele>
        <time>2013-07-27T11:53:42Z</time>
      </trkpt>
      <trkpt lat="42.349522000" lon="-2.302013000">
        <ele>563.50</ele>
        <time>2013-07-27T11:53:43Z</time>
      </trkpt>
      <trkpt lat="42.349523000" lon="-2.302013000">
        <ele>563.40</ele>
        <time>2013-07-27T11:53:44Z</time>
      </trkpt>
      <trkpt lat="42.349523000" lon="-2.302016000">
        <ele>563.40</ele>
        <time>2013-07-27T11:53:45Z</time>
      </trkpt>
      <trkpt lat="42.349526000" lon="-2.302017000">
        <ele>563.30</ele>
        <time>2013-07-27T11:53:46Z</time>
      </trkpt>
      <trkpt lat="42.349528000" lon="-2.302020000">
        <ele>563.30</ele>
        <time>2013-07-27T11:53:47Z</time>
      </trkpt>
      <trkpt lat="42.349530000" lon="-2.302018000">
        <ele>563.30</ele>
        <time>2013-07-27T11:53:48Z</time>
      </trkpt>
      <trkpt lat="42.349532000" lon="-2.302018000">
        <ele>563.30</ele>
        <time>2013-07-27T11:53:49Z</time>
      </trkpt>
      <trkpt lat="42.349532000" lon="-2.302018000">
        <ele>563.30</ele>
        <time>2013-07-27T11:53:50Z</time>
      </trkpt>
      <trkpt lat="42.349532000" lon="-2.302019000">
        <ele>563.30</ele>
        <time>2013-07-27T11:53:51Z</time>
      </trkpt>
      <trkpt lat="42.349533000" lon="-2.302023000">
        <ele>563.40</ele>
        <time>2013-07-27T11:53:52Z</time>
      </trkpt>
      <trkpt lat="42.349532000" lon="-2.302022000">
        <ele>563.50</ele>
        <time>2013-07-27T11:53:53Z</time>
      </trkpt>
      <trkpt lat="42.349532000" lon="-2.302020000">
        <ele>563.60</ele>
        <time>2013-07-27T11:53:54Z</time>
      </trkpt>
      <trkpt lat="42.349532000" lon="-2.302020000">
        <ele>563.70</ele>
        <time>2013-07-27T11:53:55Z</time>
      </trkpt>
      <trkpt lat="42.349530000" lon="-2.302017000">
        <ele>563.70</ele>
        <time>2013-07-27T11:53:56Z</time>
      </trkpt>
      <trkpt lat="42.349530000" lon="-2.302017000">
        <ele>563.70</ele>
        <time>2013-07-27T11:53:57Z</time>
      </trkpt>
      <trkpt lat="42.349530000" lon="-2.302015000">
        <ele>563.70</ele>
        <time>2013-07-27T11:53:58Z</time>
      </trkpt>
      <trkpt lat="42.349530000" lon="-2.302017000">
        <ele>563.70</ele>
        <time>2013-07-27T11:53:59Z</time>
      </trkpt>
      <trkpt lat="42.349529000" lon="-2.302017000">
        <ele>563.50</ele>
        <time>2013-07-27T11:54:00Z</time>
      </trkpt>
      <trkpt lat="42.349526000" lon="-2.302021000">
        <ele>563.40</ele>
        <time>2013-07-27T11:54:01Z</time>
      </trkpt>
      <trkpt lat="42.349530000" lon="-2.302024000">
        <ele>563.30</ele>
        <time>2013-07-27T11:54:02Z</time>
      </trkpt>
      <trkpt lat="42.349539000" lon="-2.302029000">
        <ele>563.20</ele>
        <time>2013-07-27T11:54:03Z</time>
      </trkpt>
      <trkpt lat="42.349552000" lon="-2.302036000">
        <ele>563.10</ele>
        <time>2013-07-27T11:54:04Z</time>
      </trkpt>
      <trkpt lat="42.349566000" lon="-2.302040000">
        <ele>563.00</ele>
        <time>2013-07-27T11:54:05Z</time>
      </trkpt>
      <trkpt lat="42.349578000" lon="-2.302048000">
        <ele>563.10</ele>
        <time>2013-07-27T11:54:06Z</time>
      </trkpt>
      <trkpt lat="42.349590000" lon="-2.302058000">
        <ele>563.20</ele>
        <time>2013-07-27T11:54:07Z</time>
      </trkpt>
      <trkpt lat="42.349600000" lon="-2.302070000">
        <ele>563.10</ele>
        <time>2013-07-27T11:54:08Z</time>
      </trkpt>
      <trkpt lat="42.349616000" lon="-2.302074000">
        <ele>563.10</ele>
        <time>2013-07-27T11:54:09Z</time>
      </trkpt>
      <trkpt lat="42.349635000" lon="-2.302084000">
        <ele>563.10</ele>
        <time>2013-07-27T11:54:10Z</time>
      </trkpt>
      <trkpt lat="42.349659000" lon="-2.302094000">
        <ele>563.20</ele>
        <time>2013-07-27T11:54:11Z</time>
      </trkpt>
      <trkpt lat="42.349682000" lon="-2.302105000">
        <ele>563.20</ele>
        <time>2013-07-27T11:54:12Z</time>
      </trkpt>
      <trkpt lat="42.349703000" lon="-2.302119000">
        <ele>563.20</ele>
        <time>2013-07-27T11:54:13Z</time>
      </trkpt>
      <trkpt lat="42.349723000" lon="-2.302133000">
        <ele>563.30</ele>
        <time>2013-07-27T11:54:14Z</time>
      </trkpt>
      <trkpt lat="42.349745000" lon="-2.302148000">
        <ele>563.30</ele>
        <time>2013-07-27T11:54:15Z</time>
      </trkpt>
      <trkpt lat="42.349767000" lon="-2.302160000">
        <ele>563.20</ele>
        <time>2013-07-27T11:54:16Z</time>
      </trkpt>
      <trkpt lat="42.349786000" lon="-2.302175000">
        <ele>563.10</ele>
        <time>2013-07-27T11:54:17Z</time>
      </trkpt>
      <trkpt lat="42.349804000" lon="-2.302189000">
        <ele>563.10</ele>
        <time>2013-07-27T11:54:18Z</time>
      </trkpt>
      <trkpt lat="42.349822000" lon="-2.302206000">
        <ele>563.10</ele>
        <time>2013-07-27T11:54:19Z</time>
      </trkpt>
      <trkpt lat="42.349840000" lon="-2.302226000">
        <ele>563.00</ele>
        <time>2013-07-27T11:54:20Z</time>
      </trkpt>
      <trkpt lat="42.349860000" lon="-2.302243000">
        <ele>562.90</ele>
        <time>2013-07-27T11:54:21Z</time>
      </trkpt>
      <trkpt lat="42.349876000" lon="-2.302258000">
        <ele>562.90</ele>
        <time>2013-07-27T11:54:22Z</time>
      </trkpt>
      <trkpt lat="42.349894000" lon="-2.302271000">
        <ele>562.90</ele>
        <time>2013-07-27T11:54:23Z</time>
      </trkpt>
      <trkpt lat="42.349913000" lon="-2.302283000">
        <ele>563.00</ele>
        <time>2013-07-27T11:54:24Z</time>
      </trkpt>
      <trkpt lat="42.349934000" lon="-2.302296000">
        <ele>563.10</ele>
        <time>2013-07-27T11:54:25Z</time>
      </trkpt>
      <trkpt lat="42.349954000" lon="-2.302310000">
        <ele>563.10</ele>
        <time>2013-07-27T11:54:26Z</time>
      </trkpt>
      <trkpt lat="42.349973000" lon="-2.302320000">
        <ele>563.10</ele>
        <time>2013-07-27T11:54:27Z</time>
      </trkpt>
      <trkpt lat="42.349988000" lon="-2.302330000">
        <ele>563.20</ele>
        <time>2013-07-27T11:54:28Z</time>
      </trkpt>
      <trkpt lat="42.350001000" lon="-2.302340000">
        <ele>563.30</ele>
        <time>2013-07-27T11:54:29Z</time>
      </trkpt>
      <trkpt lat="42.350013000" lon="-2.302347000">
        <ele>563.20</ele>
        <time>2013-07-27T11:54:30Z</time>
      </trkpt>
      <trkpt lat="42.350024000" lon="-2.302356000">
        <ele>563.10</ele>
        <time>2013-07-27T11:54:31Z</time>
      </trkpt>
      <trkpt lat="42.350034000" lon="-2.302364000">
        <ele>562.90</ele>
        <time>2013-07-27T11:54:32Z</time>
      </trkpt>
      <trkpt lat="42.350043000" lon="-2.302369000">
        <ele>562.70</ele>
        <time>2013-07-27T11:54:33Z</time>
      </trkpt>
      <trkpt lat="42.350053000" lon="-2.302376000">
        <ele>562.50</ele>
        <time>2013-07-27T11:54:34Z</time>
      </trkpt>
      <trkpt lat="42.350059000" lon="-2.302385000">
        <ele>562.40</ele>
        <time>2013-07-27T11:54:35Z</time>
      </trkpt>
      <trkpt lat="42.350067000" lon="-2.302392000">
        <ele>562.30</ele>
        <time>2013-07-27T11:54:36Z</time>
      </trkpt>
      <trkpt lat="42.350072000" lon="-2.302399000">
        <ele>562.30</ele>
        <time>2013-07-27T11:54:37Z</time>
      </trkpt>
      <trkpt lat="42.350079000" lon="-2.302408000">
        <ele>562.30</ele>
        <time>2013-07-27T11:54:38Z</time>
      </trkpt>
      <trkpt lat="42.350082000" lon="-2.302414000">
        <ele>562.30</ele>
        <time>2013-07-27T11:54:39Z</time>
      </trkpt>
      <trkpt lat="42.350087000" lon="-2.302422000">
        <ele>562.30</ele>
        <time>2013-07-27T11:54:40Z</time>
      </trkpt>
      <trkpt lat="42.350096000" lon="-2.302437000">
        <ele>562.30</ele>
        <time>2013-07-27T11:54:41Z</time>
      </trkpt>
      <trkpt lat="42.350102000" lon="-2.302455000">
        <ele>562.20</ele>
        <time>2013-07-27T11:54:42Z</time>
      </trkpt>
      <trkpt lat="42.350098000" lon="-2.302471000">
        <ele>562.10</ele>
        <time>2013-07-27T11:54:43Z</time>
      </trkpt>
      <trkpt lat="42.350097000" lon="-2.302494000">
        <ele>562.00</ele>
        <time>2013-07-27T11:54:44Z</time>
      </trkpt>
      <trkpt lat="42.350099000" lon="-2.302524000">
        <ele>562.00</ele>
        <time>2013-07-27T11:54:45Z</time>
      </trkpt>
      <trkpt lat="42.350112000" lon="-2.302557000">
        <ele>562.00</ele>
        <time>2013-07-27T11:54:46Z</time>
      </trkpt>
      <trkpt lat="42.350133000" lon="-2.302584000">
        <ele>562.00</ele>
        <time>2013-07-27T11:54:47Z</time>
      </trkpt>
      <trkpt lat="42.350159000" lon="-2.302605000">
        <ele>562.00</ele>
        <time>2013-07-27T11:54:48Z</time>
      </trkpt>
      <trkpt lat="42.350187000" lon="-2.302631000">
        <ele>562.00</ele>
        <time>2013-07-27T11:54:49Z</time>
      </trkpt>
      <trkpt lat="42.350215000" lon="-2.302658000">
        <ele>562.00</ele>
        <time>2013-07-27T11:54:50Z</time>
      </trkpt>
      <trkpt lat="42.350245000" lon="-2.302690000">
        <ele>561.90</ele>
        <time>2013-07-27T11:54:51Z</time>
      </trkpt>
      <trkpt lat="42.350278000" lon="-2.302717000">
        <ele>561.80</ele>
        <time>2013-07-27T11:54:52Z</time>
      </trkpt>
      <trkpt lat="42.350310000" lon="-2.302746000">
        <ele>561.70</ele>
        <time>2013-07-27T11:54:53Z</time>
      </trkpt>
      <trkpt lat="42.350345000" lon="-2.302776000">
        <ele>561.60</ele>
        <time>2013-07-27T11:54:54Z</time>
      </trkpt>
      <trkpt lat="42.350380000" lon="-2.302809000">
        <ele>561.50</ele>
        <time>2013-07-27T11:54:55Z</time>
      </trkpt>
      <trkpt lat="42.350418000" lon="-2.302846000">
        <ele>561.40</ele>
        <time>2013-07-27T11:54:56Z</time>
      </trkpt>
      <trkpt lat="42.350456000" lon="-2.302881000">
        <ele>561.40</ele>
        <time>2013-07-27T11:54:57Z</time>
      </trkpt>
      <trkpt lat="42.350494000" lon="-2.302919000">
        <ele>561.10</ele>
        <time>2013-07-27T11:54:58Z</time>
      </trkpt>
      <trkpt lat="42.350534000" lon="-2.302954000">
        <ele>561.00</ele>
        <time>2013-07-27T11:54:59Z</time>
      </trkpt>
      <trkpt lat="42.350572000" lon="-2.302992000">
        <ele>560.70</ele>
        <time>2013-07-27T11:55:00Z</time>
      </trkpt>
      <trkpt lat="42.350610000" lon="-2.303029000">
        <ele>560.50</ele>
        <time>2013-07-27T11:55:01Z</time>
      </trkpt>
      <trkpt lat="42.350651000" lon="-2.303060000">
        <ele>560.20</ele>
        <time>2013-07-27T11:55:02Z</time>
      </trkpt>
      <trkpt lat="42.350691000" lon="-2.303095000">
        <ele>560.00</ele>
        <time>2013-07-27T11:55:03Z</time>
      </trkpt>
      <trkpt lat="42.350728000" lon="-2.303131000">
        <ele>559.90</ele>
        <time>2013-07-27T11:55:04Z</time>
      </trkpt>
      <trkpt lat="42.350765000" lon="-2.303170000">
        <ele>559.80</ele>
        <time>2013-07-27T11:55:05Z</time>
      </trkpt>
      <trkpt lat="42.350802000" lon="-2.303209000">
        <ele>559.60</ele>
        <time>2013-07-27T11:55:06Z</time>
      </trkpt>
      <trkpt lat="42.350838000" lon="-2.303245000">
        <ele>559.40</ele>
        <time>2013-07-27T11:55:07Z</time>
      </trkpt>
      <trkpt lat="42.350877000" lon="-2.303282000">
        <ele>559.40</ele>
        <time>2013-07-27T11:55:08Z</time>
      </trkpt>
      <trkpt lat="42.350919000" lon="-2.303315000">
        <ele>559.40</ele>
        <time>2013-07-27T11:55:09Z</time>
      </trkpt>
      <trkpt lat="42.350961000" lon="-2.303353000">
        <ele>559.40</ele>
        <time>2013-07-27T11:55:10Z</time>
      </trkpt>
      <trkpt lat="42.351003000" lon="-2.303391000">
        <ele>559.40</ele>
        <time>2013-07-27T11:55:11Z</time>
      </trkpt>
      <trkpt lat="42.351043000" lon="-2.303431000">
        <ele>559.40</ele>
        <time>2013-07-27T11:55:12Z</time>
      </trkpt>
      <trkpt lat="42.351083000" lon="-2.303471000">
        <ele>559.50</ele>
        <time>2013-07-27T11:55:13Z</time>
      </trkpt>
      <trkpt lat="42.351126000" lon="-2.303507000">
        <ele>559.50</ele>
        <time>2013-07-27T11:55:14Z</time>
      </trkpt>
      <trkpt lat="42.351168000" lon="-2.303549000">
        <ele>559.50</ele>
        <time>2013-07-27T11:55:15Z</time>
      </trkpt>
      <trkpt lat="42.351210000" lon="-2.303589000">
        <ele>559.60</ele>
        <time>2013-07-27T11:55:16Z</time>
      </trkpt>
      <trkpt lat="42.351250000" lon="-2.303629000">
        <ele>559.70</ele>
        <time>2013-07-27T11:55:17Z</time>
      </trkpt>
      <trkpt lat="42.351290000" lon="-2.303670000">
        <ele>559.40</ele>
        <time>2013-07-27T11:55:18Z</time>
      </trkpt>
      <trkpt lat="42.351332000" lon="-2.303708000">
        <ele>559.20</ele>
        <time>2013-07-27T11:55:19Z</time>
      </trkpt>
      <trkpt lat="42.351376000" lon="-2.303746000">
        <ele>558.90</ele>
        <time>2013-07-27T11:55:20Z</time>
      </trkpt>
      <trkpt lat="42.351421000" lon="-2.303785000">
        <ele>558.70</ele>
        <time>2013-07-27T11:55:21Z</time>
      </trkpt>
      <trkpt lat="42.351464000" lon="-2.303827000">
        <ele>558.60</ele>
        <time>2013-07-27T11:55:22Z</time>
      </trkpt>
      <trkpt lat="42.351505000" lon="-2.303867000">
        <ele>558.40</ele>
        <time>2013-07-27T11:55:23Z</time>
      </trkpt>
      <trkpt lat="42.351548000" lon="-2.303909000">
        <ele>558.30</ele>
        <time>2013-07-27T11:55:24Z</time>
      </trkpt>
      <trkpt lat="42.351589000" lon="-2.303953000">
        <ele>558.30</ele>
        <time>2013-07-27T11:55:25Z</time>
      </trkpt>
      <trkpt lat="42.351634000" lon="-2.303995000">
        <ele>558.30</ele>
        <time>2013-07-27T11:55:26Z</time>
      </trkpt>
      <trkpt lat="42.351679000" lon="-2.304033000">
        <ele>558.30</ele>
        <time>2013-07-27T11:55:27Z</time>
      </trkpt>
      <trkpt lat="42.351722000" lon="-2.304075000">
        <ele>558.30</ele>
        <time>2013-07-27T11:55:28Z</time>
      </trkpt>
      <trkpt lat="42.351764000" lon="-2.304120000">
        <ele>558.30</ele>
        <time>2013-07-27T11:55:29Z</time>
      </trkpt>
      <trkpt lat="42.351809000" lon="-2.304162000">
        <ele>558.30</ele>
        <time>2013-07-27T11:55:30Z</time>
      </trkpt>
      <trkpt lat="42.351851000" lon="-2.304204000">
        <ele>558.30</ele>
        <time>2013-07-27T11:55:31Z</time>
      </trkpt>
      <trkpt lat="42.351894000" lon="-2.304247000">
        <ele>557.80</ele>
        <time>2013-07-27T11:55:32Z</time>
      </trkpt>
      <trkpt lat="42.351939000" lon="-2.304290000">
        <ele>557.50</ele>
        <time>2013-07-27T11:55:33Z</time>
      </trkpt>
      <trkpt lat="42.351988000" lon="-2.304334000">
        <ele>557.10</ele>
        <time>2013-07-27T11:55:34Z</time>
      </trkpt>
      <trkpt lat="42.352036000" lon="-2.304379000">
        <ele>556.80</ele>
        <time>2013-07-27T11:55:35Z</time>
      </trkpt>
      <trkpt lat="42.352086000" lon="-2.304426000">
        <ele>556.30</ele>
        <time>2013-07-27T11:55:36Z</time>
      </trkpt>
      <trkpt lat="42.352137000" lon="-2.304472000">
        <ele>555.70</ele>
        <time>2013-07-27T11:55:37Z</time>
      </trkpt>
      <trkpt lat="42.352189000" lon="-2.304518000">
        <ele>555.30</ele>
        <time>2013-07-27T11:55:38Z</time>
      </trkpt>
      <trkpt lat="42.352240000" lon="-2.304569000">
        <ele>554.80</ele>
        <time>2013-07-27T11:55:39Z</time>
      </trkpt>
      <trkpt lat="42.352292000" lon="-2.304621000">
        <ele>554.50</ele>
        <time>2013-07-27T11:55:40Z</time>
      </trkpt>
      <trkpt lat="42.352346000" lon="-2.304669000">
        <ele>554.20</ele>
        <time>2013-07-27T11:55:41Z</time>
      </trkpt>
      <trkpt lat="42.352403000" lon="-2.304720000">
        <ele>554.00</ele>
        <time>2013-07-27T11:55:42Z</time>
      </trkpt>
      <trkpt lat="42.352457000" lon="-2.304769000">
        <ele>553.90</ele>
        <time>2013-07-27T11:55:43Z</time>
      </trkpt>
      <trkpt lat="42.352512000" lon="-2.304820000">
        <ele>553.80</ele>
        <time>2013-07-27T11:55:44Z</time>
      </trkpt>
      <trkpt lat="42.352566000" lon="-2.304872000">
        <ele>553.80</ele>
        <time>2013-07-27T11:55:45Z</time>
      </trkpt>
      <trkpt lat="42.352619000" lon="-2.304923000">
        <ele>553.90</ele>
        <time>2013-07-27T11:55:46Z</time>
      </trkpt>
      <trkpt lat="42.352671000" lon="-2.304975000">
        <ele>553.40</ele>
        <time>2013-07-27T11:55:47Z</time>
      </trkpt>
      <trkpt lat="42.352724000" lon="-2.305026000">
        <ele>553.10</ele>
        <time>2013-07-27T11:55:48Z</time>
      </trkpt>
      <trkpt lat="42.352779000" lon="-2.305078000">
        <ele>552.70</ele>
        <time>2013-07-27T11:55:49Z</time>
      </trkpt>
      <trkpt lat="42.352834000" lon="-2.305129000">
        <ele>552.40</ele>
        <time>2013-07-27T11:55:50Z</time>
      </trkpt>
      <trkpt lat="42.352890000" lon="-2.305183000">
        <ele>552.20</ele>
        <time>2013-07-27T11:55:51Z</time>
      </trkpt>
      <trkpt lat="42.352945000" lon="-2.305237000">
        <ele>552.00</ele>
        <time>2013-07-27T11:55:52Z</time>
      </trkpt>
      <trkpt lat="42.353002000" lon="-2.305293000">
        <ele>551.90</ele>
        <time>2013-07-27T11:55:53Z</time>
      </trkpt>
      <trkpt lat="42.353060000" lon="-2.305348000">
        <ele>551.80</ele>
        <time>2013-07-27T11:55:54Z</time>
      </trkpt>
      <trkpt lat="42.353116000" lon="-2.305402000">
        <ele>551.80</ele>
        <time>2013-07-27T11:55:55Z</time>
      </trkpt>
      <trkpt lat="42.353174000" lon="-2.305456000">
        <ele>551.70</ele>
        <time>2013-07-27T11:55:56Z</time>
      </trkpt>
      <trkpt lat="42.353232000" lon="-2.305510000">
        <ele>551.30</ele>
        <time>2013-07-27T11:55:57Z</time>
      </trkpt>
      <trkpt lat="42.353291000" lon="-2.305566000">
        <ele>551.00</ele>
        <time>2013-07-27T11:55:58Z</time>
      </trkpt>
      <trkpt lat="42.353352000" lon="-2.305621000">
        <ele>550.80</ele>
        <time>2013-07-27T11:55:59Z</time>
      </trkpt>
      <trkpt lat="42.353415000" lon="-2.305677000">
        <ele>550.70</ele>
        <time>2013-07-27T11:56:00Z</time>
      </trkpt>
      <trkpt lat="42.353474000" lon="-2.305736000">
        <ele>550.50</ele>
        <time>2013-07-27T11:56:01Z</time>
      </trkpt>
      <trkpt lat="42.353536000" lon="-2.305795000">
        <ele>550.40</ele>
        <time>2013-07-27T11:56:02Z</time>
      </trkpt>
      <trkpt lat="42.353598000" lon="-2.305855000">
        <ele>550.20</ele>
        <time>2013-07-27T11:56:03Z</time>
      </trkpt>
      <trkpt lat="42.353660000" lon="-2.305915000">
        <ele>550.00</ele>
        <time>2013-07-27T11:56:04Z</time>
      </trkpt>
      <trkpt lat="42.353722000" lon="-2.305974000">
        <ele>549.20</ele>
        <time>2013-07-27T11:56:05Z</time>
      </trkpt>
      <trkpt lat="42.353782000" lon="-2.306037000">
        <ele>548.70</ele>
        <time>2013-07-27T11:56:06Z</time>
      </trkpt>
      <trkpt lat="42.353844000" lon="-2.306098000">
        <ele>548.20</ele>
        <time>2013-07-27T11:56:07Z</time>
      </trkpt>
      <trkpt lat="42.353906000" lon="-2.306158000">
        <ele>547.90</ele>
        <time>2013-07-27T11:56:08Z</time>
      </trkpt>
      <trkpt lat="42.353970000" lon="-2.306216000">
        <ele>547.60</ele>
        <time>2013-07-27T11:56:09Z</time>
      </trkpt>
      <trkpt lat="42.354033000" lon="-2.306277000">
        <ele>547.40</ele>
        <time>2013-07-27T11:56:10Z</time>
      </trkpt>
      <trkpt lat="42.354095000" lon="-2.306340000">
        <ele>547.20</ele>
        <time>2013-07-27T11:56:11Z</time>
      </trkpt>
      <trkpt lat="42.354158000" lon="-2.306402000">
        <ele>547.00</ele>
        <time>2013-07-27T11:56:12Z</time>
      </trkpt>
      <trkpt lat="42.354222000" lon="-2.306464000">
        <ele>546.70</ele>
        <time>2013-07-27T11:56:13Z</time>
      </trkpt>
      <trkpt lat="42.354287000" lon="-2.306526000">
        <ele>546.50</ele>
        <time>2013-07-27T11:56:14Z</time>
      </trkpt>
      <trkpt lat="42.354351000" lon="-2.306587000">
        <ele>546.30</ele>
        <time>2013-07-27T11:56:15Z</time>
      </trkpt>
      <trkpt lat="42.354416000" lon="-2.306647000">
        <ele>546.20</ele>
        <time>2013-07-27T11:56:16Z</time>
      </trkpt>
      <trkpt lat="42.354481000" lon="-2.306708000">
        <ele>546.10</ele>
        <time>2013-07-27T11:56:17Z</time>
      </trkpt>
      <trkpt lat="42.354548000" lon="-2.306769000">
        <ele>546.00</ele>
        <time>2013-07-27T11:56:18Z</time>
      </trkpt>
      <trkpt lat="42.354614000" lon="-2.306832000">
        <ele>545.70</ele>
        <time>2013-07-27T11:56:19Z</time>
      </trkpt>
      <trkpt lat="42.354677000" lon="-2.306896000">
        <ele>545.50</ele>
        <time>2013-07-27T11:56:20Z</time>
      </trkpt>
      <trkpt lat="42.354744000" lon="-2.306958000">
        <ele>545.00</ele>
        <time>2013-07-27T11:56:21Z</time>
      </trkpt>
      <trkpt lat="42.354809000" lon="-2.307023000">
        <ele>544.60</ele>
        <time>2013-07-27T11:56:22Z</time>
      </trkpt>
      <trkpt lat="42.354874000" lon="-2.307088000">
        <ele>544.50</ele>
        <time>2013-07-27T11:56:23Z</time>
      </trkpt>
      <trkpt lat="42.354939000" lon="-2.307149000">
        <ele>544.40</ele>
        <time>2013-07-27T11:56:24Z</time>
      </trkpt>
      <trkpt lat="42.355001000" lon="-2.307213000">
        <ele>544.00</ele>
        <time>2013-07-27T11:56:25Z</time>
      </trkpt>
      <trkpt lat="42.355062000" lon="-2.307273000">
        <ele>543.70</ele>
        <time>2013-07-27T11:56:26Z</time>
      </trkpt>
      <trkpt lat="42.355124000" lon="-2.307330000">
        <ele>543.40</ele>
        <time>2013-07-27T11:56:27Z</time>
      </trkpt>
      <trkpt lat="42.355186000" lon="-2.307383000">
        <ele>543.20</ele>
        <time>2013-07-27T11:56:28Z</time>
      </trkpt>
      <trkpt lat="42.355246000" lon="-2.307440000">
        <ele>542.80</ele>
        <time>2013-07-27T11:56:29Z</time>
      </trkpt>
      <trkpt lat="42.355306000" lon="-2.307498000">
        <ele>542.50</ele>
        <time>2013-07-27T11:56:30Z</time>
      </trkpt>
      <trkpt lat="42.355366000" lon="-2.307557000">
        <ele>542.10</ele>
        <time>2013-07-27T11:56:31Z</time>
      </trkpt>
      <trkpt lat="42.355426000" lon="-2.307611000">
        <ele>541.80</ele>
        <time>2013-07-27T11:56:32Z</time>
      </trkpt>
      <trkpt lat="42.355486000" lon="-2.307667000">
        <ele>541.50</ele>
        <time>2013-07-27T11:56:33Z</time>
      </trkpt>
      <trkpt lat="42.355545000" lon="-2.307722000">
        <ele>541.20</ele>
        <time>2013-07-27T11:56:34Z</time>
      </trkpt>
      <trkpt lat="42.355606000" lon="-2.307777000">
        <ele>541.00</ele>
        <time>2013-07-27T11:56:35Z</time>
      </trkpt>
      <trkpt lat="42.355667000" lon="-2.307830000">
        <ele>540.80</ele>
        <time>2013-07-27T11:56:36Z</time>
      </trkpt>
      <trkpt lat="42.355726000" lon="-2.307888000">
        <ele>540.40</ele>
        <time>2013-07-27T11:56:37Z</time>
      </trkpt>
      <trkpt lat="42.355777000" lon="-2.307951000">
        <ele>540.20</ele>
        <time>2013-07-27T11:56:38Z</time>
      </trkpt>
      <trkpt lat="42.355825000" lon="-2.308016000">
        <ele>539.80</ele>
        <time>2013-07-27T11:56:39Z</time>
      </trkpt>
      <trkpt lat="42.355871000" lon="-2.308084000">
        <ele>539.50</ele>
        <time>2013-07-27T11:56:40Z</time>
      </trkpt>
      <trkpt lat="42.355916000" lon="-2.308152000">
        <ele>539.20</ele>
        <time>2013-07-27T11:56:41Z</time>
      </trkpt>
      <trkpt lat="42.355965000" lon="-2.308215000">
        <ele>539.00</ele>
        <time>2013-07-27T11:56:42Z</time>
      </trkpt>
      <trkpt lat="42.356018000" lon="-2.308277000">
        <ele>539.00</ele>
        <time>2013-07-27T11:56:43Z</time>
      </trkpt>
      <trkpt lat="42.356072000" lon="-2.308335000">
        <ele>539.00</ele>
        <time>2013-07-27T11:56:44Z</time>
      </trkpt>
      <trkpt lat="42.356127000" lon="-2.308396000">
        <ele>539.00</ele>
        <time>2013-07-27T11:56:45Z</time>
      </trkpt>
      <trkpt lat="42.356183000" lon="-2.308458000">
        <ele>539.00</ele>
        <time>2013-07-27T11:56:46Z</time>
      </trkpt>
      <trkpt lat="42.356243000" lon="-2.308523000">
        <ele>538.60</ele>
        <time>2013-07-27T11:56:47Z</time>
      </trkpt>
      <trkpt lat="42.356304000" lon="-2.308591000">
        <ele>538.20</ele>
        <time>2013-07-27T11:56:48Z</time>
      </trkpt>
      <trkpt lat="42.356361000" lon="-2.308667000">
        <ele>537.80</ele>
        <time>2013-07-27T11:56:49Z</time>
      </trkpt>
      <trkpt lat="42.356414000" lon="-2.308740000">
        <ele>537.40</ele>
        <time>2013-07-27T11:56:50Z</time>
      </trkpt>
      <trkpt lat="42.356466000" lon="-2.308814000">
        <ele>536.60</ele>
        <time>2013-07-27T11:56:51Z</time>
      </trkpt>
      <trkpt lat="42.356522000" lon="-2.308890000">
        <ele>535.90</ele>
        <time>2013-07-27T11:56:52Z</time>
      </trkpt>
      <trkpt lat="42.356579000" lon="-2.308966000">
        <ele>535.40</ele>
        <time>2013-07-27T11:56:53Z</time>
      </trkpt>
      <trkpt lat="42.356633000" lon="-2.309045000">
        <ele>535.00</ele>
        <time>2013-07-27T11:56:54Z</time>
      </trkpt>
      <trkpt lat="42.356687000" lon="-2.309126000">
        <ele>535.10</ele>
        <time>2013-07-27T11:56:55Z</time>
      </trkpt>
      <trkpt lat="42.356741000" lon="-2.309203000">
        <ele>535.10</ele>
        <time>2013-07-27T11:56:56Z</time>
      </trkpt>
      <trkpt lat="42.356795000" lon="-2.309282000">
        <ele>535.20</ele>
        <time>2013-07-27T11:56:57Z</time>
      </trkpt>
      <trkpt lat="42.356850000" lon="-2.309364000">
        <ele>535.20</ele>
        <time>2013-07-27T11:56:58Z</time>
      </trkpt>
      <trkpt lat="42.356909000" lon="-2.309443000">
        <ele>534.70</ele>
        <time>2013-07-27T11:56:59Z</time>
      </trkpt>
      <trkpt lat="42.356968000" lon="-2.309521000">
        <ele>534.30</ele>
        <time>2013-07-27T11:57:00Z</time>
      </trkpt>
      <trkpt lat="42.357029000" lon="-2.309595000">
        <ele>533.90</ele>
        <time>2013-07-27T11:57:01Z</time>
      </trkpt>
      <trkpt lat="42.357091000" lon="-2.309668000">
        <ele>533.60</ele>
        <time>2013-07-27T11:57:02Z</time>
      </trkpt>
      <trkpt lat="42.357154000" lon="-2.309739000">
        <ele>533.20</ele>
        <time>2013-07-27T11:57:03Z</time>
      </trkpt>
      <trkpt lat="42.357215000" lon="-2.309807000">
        <ele>533.00</ele>
        <time>2013-07-27T11:57:04Z</time>
      </trkpt>
      <trkpt lat="42.357274000" lon="-2.309877000">
        <ele>532.70</ele>
        <time>2013-07-27T11:57:05Z</time>
      </trkpt>
      <trkpt lat="42.357334000" lon="-2.309944000">
        <ele>532.50</ele>
        <time>2013-07-27T11:57:06Z</time>
      </trkpt>
      <trkpt lat="42.357392000" lon="-2.310009000">
        <ele>532.20</ele>
        <time>2013-07-27T11:57:07Z</time>
      </trkpt>
      <trkpt lat="42.357452000" lon="-2.310073000">
        <ele>532.00</ele>
        <time>2013-07-27T11:57:08Z</time>
      </trkpt>
      <trkpt lat="42.357514000" lon="-2.310135000">
        <ele>531.90</ele>
        <time>2013-07-27T11:57:09Z</time>
      </trkpt>
      <trkpt lat="42.357577000" lon="-2.310197000">
        <ele>531.90</ele>
        <time>2013-07-27T11:57:10Z</time>
      </trkpt>
      <trkpt lat="42.357640000" lon="-2.310256000">
        <ele>531.60</ele>
        <time>2013-07-27T11:57:11Z</time>
      </trkpt>
      <trkpt lat="42.357702000" lon="-2.310315000">
        <ele>531.30</ele>
        <time>2013-07-27T11:57:12Z</time>
      </trkpt>
      <trkpt lat="42.357763000" lon="-2.310374000">
        <ele>531.10</ele>
        <time>2013-07-27T11:57:13Z</time>
      </trkpt>
      <trkpt lat="42.357824000" lon="-2.310432000">
        <ele>530.90</ele>
        <time>2013-07-27T11:57:14Z</time>
      </trkpt>
      <trkpt lat="42.357887000" lon="-2.310492000">
        <ele>530.80</ele>
        <time>2013-07-27T11:57:15Z</time>
      </trkpt>
      <trkpt lat="42.357950000" lon="-2.310549000">
        <ele>530.80</ele>
        <time>2013-07-27T11:57:16Z</time>
      </trkpt>
      <trkpt lat="42.358015000" lon="-2.310606000">
        <ele>530.70</ele>
        <time>2013-07-27T11:57:17Z</time>
      </trkpt>
      <trkpt lat="42.358078000" lon="-2.310660000">
        <ele>530.70</ele>
        <time>2013-07-27T11:57:18Z</time>
      </trkpt>
      <trkpt lat="42.358139000" lon="-2.310711000">
        <ele>530.70</ele>
        <time>2013-07-27T11:57:19Z</time>
      </trkpt>
      <trkpt lat="42.358201000" lon="-2.310761000">
        <ele>530.70</ele>
        <time>2013-07-27T11:57:20Z</time>
      </trkpt>
      <trkpt lat="42.358262000" lon="-2.310809000">
        <ele>529.90</ele>
        <time>2013-07-27T11:57:21Z</time>
      </trkpt>
      <trkpt lat="42.358324000" lon="-2.310856000">
        <ele>529.30</ele>
        <time>2013-07-27T11:57:22Z</time>
      </trkpt>
      <trkpt lat="42.358387000" lon="-2.310905000">
        <ele>528.80</ele>
        <time>2013-07-27T11:57:23Z</time>
      </trkpt>
      <trkpt lat="42.358447000" lon="-2.310960000">
        <ele>528.10</ele>
        <time>2013-07-27T11:57:24Z</time>
      </trkpt>
      <trkpt lat="42.358506000" lon="-2.311019000">
        <ele>527.70</ele>
        <time>2013-07-27T11:57:25Z</time>
      </trkpt>
      <trkpt lat="42.358563000" lon="-2.311079000">
        <ele>527.20</ele>
        <time>2013-07-27T11:57:26Z</time>
      </trkpt>
      <trkpt lat="42.358622000" lon="-2.311140000">
        <ele>526.90</ele>
        <time>2013-07-27T11:57:27Z</time>
      </trkpt>
      <trkpt lat="42.358679000" lon="-2.311208000">
        <ele>526.80</ele>
        <time>2013-07-27T11:57:28Z</time>
      </trkpt>
      <trkpt lat="42.358738000" lon="-2.311270000">
        <ele>526.60</ele>
        <time>2013-07-27T11:57:29Z</time>
      </trkpt>
      <trkpt lat="42.358794000" lon="-2.311329000">
        <ele>526.90</ele>
        <time>2013-07-27T11:57:30Z</time>
      </trkpt>
      <trkpt lat="42.358852000" lon="-2.311389000">
        <ele>527.10</ele>
        <time>2013-07-27T11:57:31Z</time>
      </trkpt>
      <trkpt lat="42.358909000" lon="-2.311452000">
        <ele>527.30</ele>
        <time>2013-07-27T11:57:32Z</time>
      </trkpt>
      <trkpt lat="42.358966000" lon="-2.311512000">
        <ele>527.40</ele>
        <time>2013-07-27T11:57:33Z</time>
      </trkpt>
      <trkpt lat="42.359020000" lon="-2.311575000">
        <ele>526.40</ele>
        <time>2013-07-27T11:57:34Z</time>
      </trkpt>
      <trkpt lat="42.359077000" lon="-2.311639000">
        <ele>525.60</ele>
        <time>2013-07-27T11:57:35Z</time>
      </trkpt>
      <trkpt lat="42.359136000" lon="-2.311703000">
        <ele>524.80</ele>
        <time>2013-07-27T11:57:36Z</time>
      </trkpt>
      <trkpt lat="42.359196000" lon="-2.311764000">
        <ele>524.20</ele>
        <time>2013-07-27T11:57:37Z</time>
      </trkpt>
      <trkpt lat="42.359254000" lon="-2.311822000">
        <ele>523.80</ele>
        <time>2013-07-27T11:57:38Z</time>
      </trkpt>
      <trkpt lat="42.359312000" lon="-2.311878000">
        <ele>523.40</ele>
        <time>2013-07-27T11:57:39Z</time>
      </trkpt>
      <trkpt lat="42.359369000" lon="-2.311933000">
        <ele>522.70</ele>
        <time>2013-07-27T11:57:40Z</time>
      </trkpt>
      <trkpt lat="42.359424000" lon="-2.311983000">
        <ele>522.20</ele>
        <time>2013-07-27T11:57:41Z</time>
      </trkpt>
      <trkpt lat="42.359476000" lon="-2.312035000">
        <ele>521.60</ele>
        <time>2013-07-27T11:57:42Z</time>
      </trkpt>
      <trkpt lat="42.359525000" lon="-2.312087000">
        <ele>521.20</ele>
        <time>2013-07-27T11:57:43Z</time>
      </trkpt>
      <trkpt lat="42.359573000" lon="-2.312143000">
        <ele>520.90</ele>
        <time>2013-07-27T11:57:44Z</time>
      </trkpt>
      <trkpt lat="42.359618000" lon="-2.312200000">
        <ele>520.60</ele>
        <time>2013-07-27T11:57:45Z</time>
      </trkpt>
      <trkpt lat="42.359662000" lon="-2.312260000">
        <ele>520.30</ele>
        <time>2013-07-27T11:57:46Z</time>
      </trkpt>
      <trkpt lat="42.359707000" lon="-2.312319000">
        <ele>520.00</ele>
        <time>2013-07-27T11:57:47Z</time>
      </trkpt>
      <trkpt lat="42.359751000" lon="-2.312378000">
        <ele>519.90</ele>
        <time>2013-07-27T11:57:48Z</time>
      </trkpt>
      <trkpt lat="42.359799000" lon="-2.312436000">
        <ele>519.90</ele>
        <time>2013-07-27T11:57:49Z</time>
      </trkpt>
      <trkpt lat="42.359847000" lon="-2.312494000">
        <ele>519.60</ele>
        <time>2013-07-27T11:57:50Z</time>
      </trkpt>
      <trkpt lat="42.359894000" lon="-2.312551000">
        <ele>519.30</ele>
        <time>2013-07-27T11:57:51Z</time>
      </trkpt>
      <trkpt lat="42.359944000" lon="-2.312608000">
        <ele>519.20</ele>
        <time>2013-07-27T11:57:52Z</time>
      </trkpt>
      <trkpt lat="42.359994000" lon="-2.312660000">
        <ele>519.00</ele>
        <time>2013-07-27T11:57:53Z</time>
      </trkpt>
      <trkpt lat="42.360039000" lon="-2.312711000">
        <ele>518.80</ele>
        <time>2013-07-27T11:57:54Z</time>
      </trkpt>
      <trkpt lat="42.360080000" lon="-2.312759000">
        <ele>518.60</ele>
        <time>2013-07-27T11:57:55Z</time>
      </trkpt>
      <trkpt lat="42.360119000" lon="-2.312807000">
        <ele>518.20</ele>
        <time>2013-07-27T11:57:56Z</time>
      </trkpt>
      <trkpt lat="42.360159000" lon="-2.312853000">
        <ele>517.90</ele>
        <time>2013-07-27T11:57:57Z</time>
      </trkpt>
      <trkpt lat="42.360199000" lon="-2.312902000">
        <ele>517.60</ele>
        <time>2013-07-27T11:57:58Z</time>
      </trkpt>
      <trkpt lat="42.360239000" lon="-2.312949000">
        <ele>517.00</ele>
        <time>2013-07-27T11:57:59Z</time>
      </trkpt>
      <trkpt lat="42.360279000" lon="-2.312997000">
        <ele>516.50</ele>
        <time>2013-07-27T11:58:00Z</time>
      </trkpt>
      <trkpt lat="42.360320000" lon="-2.313046000">
        <ele>516.20</ele>
        <time>2013-07-27T11:58:01Z</time>
      </trkpt>
      <trkpt lat="42.360364000" lon="-2.313095000">
        <ele>516.00</ele>
        <time>2013-07-27T11:58:02Z</time>
      </trkpt>
      <trkpt lat="42.360406000" lon="-2.313145000">
        <ele>515.80</ele>
        <time>2013-07-27T11:58:03Z</time>
      </trkpt>
      <trkpt lat="42.360451000" lon="-2.313198000">
        <ele>515.60</ele>
        <time>2013-07-27T11:58:04Z</time>
      </trkpt>
      <trkpt lat="42.360495000" lon="-2.313251000">
        <ele>515.30</ele>
        <time>2013-07-27T11:58:05Z</time>
      </trkpt>
      <trkpt lat="42.360537000" lon="-2.313301000">
        <ele>515.10</ele>
        <time>2013-07-27T11:58:06Z</time>
      </trkpt>
      <trkpt lat="42.360578000" lon="-2.313347000">
        <ele>514.90</ele>
        <time>2013-07-27T11:58:07Z</time>
      </trkpt>
      <trkpt lat="42.360617000" lon="-2.313394000">
        <ele>514.70</ele>
        <time>2013-07-27T11:58:08Z</time>
      </trkpt>
      <trkpt lat="42.360657000" lon="-2.313442000">
        <ele>514.50</ele>
        <time>2013-07-27T11:58:09Z</time>
      </trkpt>
      <trkpt lat="42.360701000" lon="-2.313493000">
        <ele>514.40</ele>
        <time>2013-07-27T11:58:10Z</time>
      </trkpt>
      <trkpt lat="42.360742000" lon="-2.313544000">
        <ele>514.40</ele>
        <time>2013-07-27T11:58:11Z</time>
      </trkpt>
      <trkpt lat="42.360784000" lon="-2.313596000">
        <ele>514.30</ele>
        <time>2013-07-27T11:58:12Z</time>
      </trkpt>
      <trkpt lat="42.360828000" lon="-2.313649000">
        <ele>514.50</ele>
        <time>2013-07-27T11:58:13Z</time>
      </trkpt>
      <trkpt lat="42.360872000" lon="-2.313703000">
        <ele>514.70</ele>
        <time>2013-07-27T11:58:14Z</time>
      </trkpt>
      <trkpt lat="42.360918000" lon="-2.313758000">
        <ele>514.40</ele>
        <time>2013-07-27T11:58:15Z</time>
      </trkpt>
      <trkpt lat="42.360964000" lon="-2.313817000">
        <ele>514.20</ele>
        <time>2013-07-27T11:58:16Z</time>
      </trkpt>
      <trkpt lat="42.361010000" lon="-2.313874000">
        <ele>514.10</ele>
        <time>2013-07-27T11:58:17Z</time>
      </trkpt>
      <trkpt lat="42.361059000" lon="-2.313932000">
        <ele>514.10</ele>
        <time>2013-07-27T11:58:18Z</time>
      </trkpt>
      <trkpt lat="42.361111000" lon="-2.313991000">
        <ele>514.00</ele>
        <time>2013-07-27T11:58:19Z</time>
      </trkpt>
      <trkpt lat="42.361168000" lon="-2.314047000">
        <ele>513.90</ele>
        <time>2013-07-27T11:58:20Z</time>
      </trkpt>
      <trkpt lat="42.361229000" lon="-2.314101000">
        <ele>513.60</ele>
        <time>2013-07-27T11:58:21Z</time>
      </trkpt>
      <trkpt lat="42.361285000" lon="-2.314146000">
        <ele>513.40</ele>
        <time>2013-07-27T11:58:22Z</time>
      </trkpt>
      <trkpt lat="42.361328000" lon="-2.314178000">
        <ele>513.20</ele>
        <time>2013-07-27T11:58:23Z</time>
      </trkpt>
      <trkpt lat="42.361372000" lon="-2.314208000">
        <ele>513.10</ele>
        <time>2013-07-27T11:58:24Z</time>
      </trkpt>
      <trkpt lat="42.361417000" lon="-2.314240000">
        <ele>513.00</ele>
        <time>2013-07-27T11:58:25Z</time>
      </trkpt>
      <trkpt lat="42.361458000" lon="-2.314272000">
        <ele>512.90</ele>
        <time>2013-07-27T11:58:26Z</time>
      </trkpt>
      <trkpt lat="42.361499000" lon="-2.314299000">
        <ele>512.40</ele>
        <time>2013-07-27T11:58:27Z</time>
      </trkpt>
      <trkpt lat="42.361538000" lon="-2.314327000">
        <ele>511.90</ele>
        <time>2013-07-27T11:58:28Z</time>
      </trkpt>
      <trkpt lat="42.361578000" lon="-2.314360000">
        <ele>511.60</ele>
        <time>2013-07-27T11:58:29Z</time>
      </trkpt>
      <trkpt lat="42.361615000" lon="-2.314396000">
        <ele>511.40</ele>
        <time>2013-07-27T11:58:30Z</time>
      </trkpt>
      <trkpt lat="42.361654000" lon="-2.314432000">
        <ele>510.90</ele>
        <time>2013-07-27T11:58:31Z</time>
      </trkpt>
      <trkpt lat="42.361696000" lon="-2.314461000">
        <ele>510.60</ele>
        <time>2013-07-27T11:58:32Z</time>
      </trkpt>
      <trkpt lat="42.361738000" lon="-2.314489000">
        <ele>510.20</ele>
        <time>2013-07-27T11:58:33Z</time>
      </trkpt>
      <trkpt lat="42.361779000" lon="-2.314522000">
        <ele>509.90</ele>
        <time>2013-07-27T11:58:34Z</time>
      </trkpt>
      <trkpt lat="42.361822000" lon="-2.314560000">
        <ele>509.70</ele>
        <time>2013-07-27T11:58:35Z</time>
      </trkpt>
      <trkpt lat="42.361866000" lon="-2.314599000">
        <ele>509.50</ele>
        <time>2013-07-27T11:58:36Z</time>
      </trkpt>
      <trkpt lat="42.361911000" lon="-2.314637000">
        <ele>509.30</ele>
        <time>2013-07-27T11:58:37Z</time>
      </trkpt>
      <trkpt lat="42.361953000" lon="-2.314676000">
        <ele>509.10</ele>
        <time>2013-07-27T11:58:38Z</time>
      </trkpt>
      <trkpt lat="42.361996000" lon="-2.314715000">
        <ele>508.80</ele>
        <time>2013-07-27T11:58:39Z</time>
      </trkpt>
      <trkpt lat="42.362039000" lon="-2.314754000">
        <ele>508.50</ele>
        <time>2013-07-27T11:58:40Z</time>
      </trkpt>
      <trkpt lat="42.362082000" lon="-2.314792000">
        <ele>508.40</ele>
        <time>2013-07-27T11:58:41Z</time>
      </trkpt>
      <trkpt lat="42.362124000" lon="-2.314834000">
        <ele>508.30</ele>
        <time>2013-07-27T11:58:42Z</time>
      </trkpt>
      <trkpt lat="42.362168000" lon="-2.314876000">
        <ele>508.20</ele>
        <time>2013-07-27T11:58:43Z</time>
      </trkpt>
      <trkpt lat="42.362211000" lon="-2.314919000">
        <ele>508.10</ele>
        <time>2013-07-27T11:58:44Z</time>
      </trkpt>
      <trkpt lat="42.362254000" lon="-2.314962000">
        <ele>508.10</ele>
        <time>2013-07-27T11:58:45Z</time>
      </trkpt>
      <trkpt lat="42.362296000" lon="-2.315006000">
        <ele>508.00</ele>
        <time>2013-07-27T11:58:46Z</time>
      </trkpt>
      <trkpt lat="42.362339000" lon="-2.315050000">
        <ele>507.60</ele>
        <time>2013-07-27T11:58:47Z</time>
      </trkpt>
      <trkpt lat="42.362385000" lon="-2.315098000">
        <ele>507.30</ele>
        <time>2013-07-27T11:58:48Z</time>
      </trkpt>
      <trkpt lat="42.362433000" lon="-2.315146000">
        <ele>507.00</ele>
        <time>2013-07-27T11:58:49Z</time>
      </trkpt>
      <trkpt lat="42.362481000" lon="-2.315195000">
        <ele>506.70</ele>
        <time>2013-07-27T11:58:50Z</time>
      </trkpt>
      <trkpt lat="42.362528000" lon="-2.315246000">
        <ele>506.50</ele>
        <time>2013-07-27T11:58:51Z</time>
      </trkpt>
      <trkpt lat="42.362576000" lon="-2.315295000">
        <ele>506.30</ele>
        <time>2013-07-27T11:58:52Z</time>
      </trkpt>
      <trkpt lat="42.362624000" lon="-2.315343000">
        <ele>506.20</ele>
        <time>2013-07-27T11:58:53Z</time>
      </trkpt>
      <trkpt lat="42.362672000" lon="-2.315394000">
        <ele>506.10</ele>
        <time>2013-07-27T11:58:54Z</time>
      </trkpt>
      <trkpt lat="42.362721000" lon="-2.315442000">
        <ele>506.10</ele>
        <time>2013-07-27T11:58:55Z</time>
      </trkpt>
      <trkpt lat="42.362771000" lon="-2.315493000">
        <ele>506.10</ele>
        <time>2013-07-27T11:58:56Z</time>
      </trkpt>
      <trkpt lat="42.362821000" lon="-2.315546000">
        <ele>506.00</ele>
        <time>2013-07-27T11:58:57Z</time>
      </trkpt>
      <trkpt lat="42.362872000" lon="-2.315599000">
        <ele>505.90</ele>
        <time>2013-07-27T11:58:58Z</time>
      </trkpt>
      <trkpt lat="42.362923000" lon="-2.315652000">
        <ele>506.00</ele>
        <time>2013-07-27T11:58:59Z</time>
      </trkpt>
      <trkpt lat="42.362973000" lon="-2.315708000">
        <ele>506.10</ele>
        <time>2013-07-27T11:59:00Z</time>
      </trkpt>
      <trkpt lat="42.363024000" lon="-2.315768000">
        <ele>505.70</ele>
        <time>2013-07-27T11:59:01Z</time>
      </trkpt>
      <trkpt lat="42.363075000" lon="-2.315829000">
        <ele>505.50</ele>
        <time>2013-07-27T11:59:02Z</time>
      </trkpt>
      <trkpt lat="42.363128000" lon="-2.315889000">
        <ele>505.00</ele>
        <time>2013-07-27T11:59:03Z</time>
      </trkpt>
      <trkpt lat="42.363181000" lon="-2.315945000">
        <ele>504.60</ele>
        <time>2013-07-27T11:59:04Z</time>
      </trkpt>
      <trkpt lat="42.363234000" lon="-2.316006000">
        <ele>504.30</ele>
        <time>2013-07-27T11:59:05Z</time>
      </trkpt>
      <trkpt lat="42.363285000" lon="-2.316065000">
        <ele>504.10</ele>
        <time>2013-07-27T11:59:06Z</time>
      </trkpt>
      <trkpt lat="42.363337000" lon="-2.316124000">
        <ele>504.00</ele>
        <time>2013-07-27T11:59:07Z</time>
      </trkpt>
      <trkpt lat="42.363388000" lon="-2.316181000">
        <ele>504.40</ele>
        <time>2013-07-27T11:59:08Z</time>
      </trkpt>
      <trkpt lat="42.363439000" lon="-2.316238000">
        <ele>504.70</ele>
        <time>2013-07-27T11:59:09Z</time>
      </trkpt>
      <trkpt lat="42.363487000" lon="-2.316299000">
        <ele>504.50</ele>
        <time>2013-07-27T11:59:10Z</time>
      </trkpt>
      <trkpt lat="42.363531000" lon="-2.316358000">
        <ele>504.40</ele>
        <time>2013-07-27T11:59:11Z</time>
      </trkpt>
      <trkpt lat="42.363572000" lon="-2.316415000">
        <ele>504.30</ele>
        <time>2013-07-27T11:59:12Z</time>
      </trkpt>
      <trkpt lat="42.363612000" lon="-2.316472000">
        <ele>504.20</ele>
        <time>2013-07-27T11:59:13Z</time>
      </trkpt>
      <trkpt lat="42.363651000" lon="-2.316530000">
        <ele>503.90</ele>
        <time>2013-07-27T11:59:14Z</time>
      </trkpt>
      <trkpt lat="42.363688000" lon="-2.316587000">
        <ele>503.70</ele>
        <time>2013-07-27T11:59:15Z</time>
      </trkpt>
      <trkpt lat="42.363725000" lon="-2.316647000">
        <ele>503.50</ele>
        <time>2013-07-27T11:59:16Z</time>
      </trkpt>
      <trkpt lat="42.363765000" lon="-2.316708000">
        <ele>503.30</ele>
        <time>2013-07-27T11:59:17Z</time>
      </trkpt>
      <trkpt lat="42.363806000" lon="-2.316773000">
        <ele>503.10</ele>
        <time>2013-07-27T11:59:18Z</time>
      </trkpt>
      <trkpt lat="42.363851000" lon="-2.316840000">
        <ele>503.00</ele>
        <time>2013-07-27T11:59:19Z</time>
      </trkpt>
      <trkpt lat="42.363894000" lon="-2.316911000">
        <ele>502.80</ele>
        <time>2013-07-27T11:59:20Z</time>
      </trkpt>
      <trkpt lat="42.363938000" lon="-2.316980000">
        <ele>502.60</ele>
        <time>2013-07-27T11:59:21Z</time>
      </trkpt>
      <trkpt lat="42.363982000" lon="-2.317051000">
        <ele>502.50</ele>
        <time>2013-07-27T11:59:22Z</time>
      </trkpt>
      <trkpt lat="42.364028000" lon="-2.317117000">
        <ele>502.40</ele>
        <time>2013-07-27T11:59:23Z</time>
      </trkpt>
      <trkpt lat="42.364073000" lon="-2.317189000">
        <ele>502.30</ele>
        <time>2013-07-27T11:59:24Z</time>
      </trkpt>
      <trkpt lat="42.364119000" lon="-2.317259000">
        <ele>502.30</ele>
        <time>2013-07-27T11:59:25Z</time>
      </trkpt>
      <trkpt lat="42.364163000" lon="-2.317329000">
        <ele>502.30</ele>
        <time>2013-07-27T11:59:26Z</time>
      </trkpt>
      <trkpt lat="42.364208000" lon="-2.317401000">
        <ele>502.30</ele>
        <time>2013-07-27T11:59:27Z</time>
      </trkpt>
      <trkpt lat="42.364253000" lon="-2.317470000">
        <ele>502.30</ele>
        <time>2013-07-27T11:59:28Z</time>
      </trkpt>
      <trkpt lat="42.364295000" lon="-2.317538000">
        <ele>502.30</ele>
        <time>2013-07-27T11:59:29Z</time>
      </trkpt>
      <trkpt lat="42.364337000" lon="-2.317609000">
        <ele>502.10</ele>
        <time>2013-07-27T11:59:30Z</time>
      </trkpt>
      <trkpt lat="42.364379000" lon="-2.317680000">
        <ele>501.90</ele>
        <time>2013-07-27T11:59:31Z</time>
      </trkpt>
      <trkpt lat="42.364423000" lon="-2.317750000">
        <ele>501.40</ele>
        <time>2013-07-27T11:59:32Z</time>
      </trkpt>
      <trkpt lat="42.364465000" lon="-2.317822000">
        <ele>501.10</ele>
        <time>2013-07-27T11:59:33Z</time>
      </trkpt>
      <trkpt lat="42.364506000" lon="-2.317895000">
        <ele>500.80</ele>
        <time>2013-07-27T11:59:34Z</time>
      </trkpt>
      <trkpt lat="42.364550000" lon="-2.317970000">
        <ele>500.60</ele>
        <time>2013-07-27T11:59:35Z</time>
      </trkpt>
      <trkpt lat="42.364594000" lon="-2.318045000">
        <ele>500.20</ele>
        <time>2013-07-27T11:59:36Z</time>
      </trkpt>
      <trkpt lat="42.364639000" lon="-2.318121000">
        <ele>499.90</ele>
        <time>2013-07-27T11:59:37Z</time>
      </trkpt>
      <trkpt lat="42.364682000" lon="-2.318195000">
        <ele>499.50</ele>
        <time>2013-07-27T11:59:38Z</time>
      </trkpt>
      <trkpt lat="42.364723000" lon="-2.318273000">
        <ele>499.20</ele>
        <time>2013-07-27T11:59:39Z</time>
      </trkpt>
      <trkpt lat="42.364766000" lon="-2.318351000">
        <ele>499.00</ele>
        <time>2013-07-27T11:59:40Z</time>
      </trkpt>
      <trkpt lat="42.364810000" lon="-2.318429000">
        <ele>498.80</ele>
        <time>2013-07-27T11:59:41Z</time>
      </trkpt>
      <trkpt lat="42.364855000" lon="-2.318506000">
        <ele>498.70</ele>
        <time>2013-07-27T11:59:42Z</time>
      </trkpt>
      <trkpt lat="42.364900000" lon="-2.318584000">
        <ele>498.70</ele>
        <time>2013-07-27T11:59:43Z</time>
      </trkpt>
      <trkpt lat="42.364943000" lon="-2.318663000">
        <ele>498.60</ele>
        <time>2013-07-27T11:59:44Z</time>
      </trkpt>
      <trkpt lat="42.364990000" lon="-2.318743000">
        <ele>498.50</ele>
        <time>2013-07-27T11:59:45Z</time>
      </trkpt>
      <trkpt lat="42.365036000" lon="-2.318822000">
        <ele>498.40</ele>
        <time>2013-07-27T11:59:46Z</time>
      </trkpt>
      <trkpt lat="42.365083000" lon="-2.318901000">
        <ele>498.30</ele>
        <time>2013-07-27T11:59:47Z</time>
      </trkpt>
      <trkpt lat="42.365130000" lon="-2.318982000">
        <ele>498.10</ele>
        <time>2013-07-27T11:59:48Z</time>
      </trkpt>
      <trkpt lat="42.365175000" lon="-2.319061000">
        <ele>497.90</ele>
        <time>2013-07-27T11:59:49Z</time>
      </trkpt>
      <trkpt lat="42.365222000" lon="-2.319140000">
        <ele>497.30</ele>
        <time>2013-07-27T11:59:50Z</time>
      </trkpt>
      <trkpt lat="42.365269000" lon="-2.319217000">
        <ele>496.80</ele>
        <time>2013-07-27T11:59:51Z</time>
      </trkpt>
      <trkpt lat="42.365316000" lon="-2.319295000">
        <ele>496.50</ele>
        <time>2013-07-27T11:59:52Z</time>
      </trkpt>
      <trkpt lat="42.365365000" lon="-2.319374000">
        <ele>496.20</ele>
        <time>2013-07-27T11:59:53Z</time>
      </trkpt>
      <trkpt lat="42.365413000" lon="-2.319453000">
        <ele>496.00</ele>
        <time>2013-07-27T11:59:54Z</time>
      </trkpt>
      <trkpt lat="42.365459000" lon="-2.319533000">
        <ele>495.90</ele>
        <time>2013-07-27T11:59:55Z</time>
      </trkpt>
      <trkpt lat="42.365506000" lon="-2.319613000">
        <ele>495.80</ele>
        <time>2013-07-27T11:59:56Z</time>
      </trkpt>
      <trkpt lat="42.365556000" lon="-2.319694000">
        <ele>495.70</ele>
        <time>2013-07-27T11:59:57Z</time>
      </trkpt>
      <trkpt lat="42.365603000" lon="-2.319775000">
        <ele>495.10</ele>
        <time>2013-07-27T11:59:58Z</time>
      </trkpt>
      <trkpt lat="42.365648000" lon="-2.319855000">
        <ele>494.60</ele>
        <time>2013-07-27T11:59:59Z</time>
      </trkpt>
      <trkpt lat="42.365691000" lon="-2.319935000">
        <ele>494.30</ele>
        <time>2013-07-27T12:00:00Z</time>
      </trkpt>
      <trkpt lat="42.365734000" lon="-2.320019000">
        <ele>494.00</ele>
        <time>2013-07-27T12:00:01Z</time>
      </trkpt>
      <trkpt lat="42.365780000" lon="-2.320098000">
        <ele>493.80</ele>
        <time>2013-07-27T12:00:02Z</time>
      </trkpt>
      <trkpt lat="42.365829000" lon="-2.320171000">
        <ele>493.60</ele>
        <time>2013-07-27T12:00:03Z</time>
      </trkpt>
      <trkpt lat="42.365877000" lon="-2.320248000">
        <ele>493.40</ele>
        <time>2013-07-27T12:00:04Z</time>
      </trkpt>
      <trkpt lat="42.365924000" lon="-2.320324000">
        <ele>493.30</ele>
        <time>2013-07-27T12:00:05Z</time>
      </trkpt>
      <trkpt lat="42.365972000" lon="-2.320400000">
        <ele>493.30</ele>
        <time>2013-07-27T12:00:06Z</time>
      </trkpt>
      <trkpt lat="42.366021000" lon="-2.320479000">
        <ele>493.30</ele>
        <time>2013-07-27T12:00:07Z</time>
      </trkpt>
      <trkpt lat="42.366071000" lon="-2.320555000">
        <ele>493.30</ele>
        <time>2013-07-27T12:00:08Z</time>
      </trkpt>
      <trkpt lat="42.366124000" lon="-2.320628000">
        <ele>493.30</ele>
        <time>2013-07-27T12:00:09Z</time>
      </trkpt>
      <trkpt lat="42.366173000" lon="-2.320701000">
        <ele>492.80</ele>
        <time>2013-07-27T12:00:10Z</time>
      </trkpt>
      <trkpt lat="42.366223000" lon="-2.320778000">
        <ele>492.50</ele>
        <time>2013-07-27T12:00:11Z</time>
      </trkpt>
      <trkpt lat="42.366274000" lon="-2.320853000">
        <ele>492.20</ele>
        <time>2013-07-27T12:00:12Z</time>
      </trkpt>
      <trkpt lat="42.366327000" lon="-2.320930000">
        <ele>492.00</ele>
        <time>2013-07-27T12:00:13Z</time>
      </trkpt>
      <trkpt lat="42.366381000" lon="-2.321007000">
        <ele>492.10</ele>
        <time>2013-07-27T12:00:14Z</time>
      </trkpt>
      <trkpt lat="42.366434000" lon="-2.321082000">
        <ele>492.20</ele>
        <time>2013-07-27T12:00:15Z</time>
      </trkpt>
      <trkpt lat="42.366489000" lon="-2.321154000">
        <ele>492.30</ele>
        <time>2013-07-27T12:00:16Z</time>
      </trkpt>
      <trkpt lat="42.366542000" lon="-2.321225000">
        <ele>492.30</ele>
        <time>2013-07-27T12:00:17Z</time>
      </trkpt>
      <trkpt lat="42.366595000" lon="-2.321294000">
        <ele>491.90</ele>
        <time>2013-07-27T12:00:18Z</time>
      </trkpt>
      <trkpt lat="42.366648000" lon="-2.321361000">
        <ele>491.60</ele>
        <time>2013-07-27T12:00:19Z</time>
      </trkpt>
      <trkpt lat="42.366699000" lon="-2.321429000">
        <ele>491.20</ele>
        <time>2013-07-27T12:00:20Z</time>
      </trkpt>
      <trkpt lat="42.366750000" lon="-2.321497000">
        <ele>490.90</ele>
        <time>2013-07-27T12:00:21Z</time>
      </trkpt>
      <trkpt lat="42.366801000" lon="-2.321570000">
        <ele>490.60</ele>
        <time>2013-07-27T12:00:22Z</time>
      </trkpt>
      <trkpt lat="42.366851000" lon="-2.321641000">
        <ele>490.30</ele>
        <time>2013-07-27T12:00:23Z</time>
      </trkpt>
      <trkpt lat="42.366903000" lon="-2.321713000">
        <ele>490.30</ele>
        <time>2013-07-27T12:00:24Z</time>
      </trkpt>
      <trkpt lat="42.366955000" lon="-2.321787000">
        <ele>490.20</ele>
        <time>2013-07-27T12:00:25Z</time>
      </trkpt>
      <trkpt lat="42.367003000" lon="-2.321860000">
        <ele>489.70</ele>
        <time>2013-07-27T12:00:26Z</time>
      </trkpt>
      <trkpt lat="42.367053000" lon="-2.321935000">
        <ele>489.20</ele>
        <time>2013-07-27T12:00:27Z</time>
      </trkpt>
      <trkpt lat="42.367102000" lon="-2.322013000">
        <ele>488.80</ele>
        <time>2013-07-27T12:00:28Z</time>
      </trkpt>
      <trkpt lat="42.367152000" lon="-2.322090000">
        <ele>488.50</ele>
        <time>2013-07-27T12:00:29Z</time>
      </trkpt>
      <trkpt lat="42.367202000" lon="-2.322169000">
        <ele>488.20</ele>
        <time>2013-07-27T12:00:30Z</time>
      </trkpt>
      <trkpt lat="42.367253000" lon="-2.322244000">
        <ele>488.00</ele>
        <time>2013-07-27T12:00:31Z</time>
      </trkpt>
      <trkpt lat="42.367304000" lon="-2.322318000">
        <ele>487.90</ele>
        <time>2013-07-27T12:00:32Z</time>
      </trkpt>
      <trkpt lat="42.367353000" lon="-2.322387000">
        <ele>487.90</ele>
        <time>2013-07-27T12:00:33Z</time>
      </trkpt>
      <trkpt lat="42.367403000" lon="-2.322459000">
        <ele>487.80</ele>
        <time>2013-07-27T12:00:34Z</time>
      </trkpt>
      <trkpt lat="42.367455000" lon="-2.322526000">
        <ele>487.80</ele>
        <time>2013-07-27T12:00:35Z</time>
      </trkpt>
      <trkpt lat="42.367508000" lon="-2.322593000">
        <ele>487.20</ele>
        <time>2013-07-27T12:00:36Z</time>
      </trkpt>
      <trkpt lat="42.367561000" lon="-2.322657000">
        <ele>486.70</ele>
        <time>2013-07-27T12:00:37Z</time>
      </trkpt>
      <trkpt lat="42.367613000" lon="-2.322721000">
        <ele>486.40</ele>
        <time>2013-07-27T12:00:38Z</time>
      </trkpt>
      <trkpt lat="42.367663000" lon="-2.322789000">
        <ele>486.10</ele>
        <time>2013-07-27T12:00:39Z</time>
      </trkpt>
      <trkpt lat="42.367713000" lon="-2.322857000">
        <ele>485.90</ele>
        <time>2013-07-27T12:00:40Z</time>
      </trkpt>
      <trkpt lat="42.367762000" lon="-2.322927000">
        <ele>485.80</ele>
        <time>2013-07-27T12:00:41Z</time>
      </trkpt>
      <trkpt lat="42.367813000" lon="-2.322994000">
        <ele>486.10</ele>
        <time>2013-07-27T12:00:42Z</time>
      </trkpt>
      <trkpt lat="42.367862000" lon="-2.323063000">
        <ele>486.40</ele>
        <time>2013-07-27T12:00:43Z</time>
      </trkpt>
      <trkpt lat="42.367911000" lon="-2.323133000">
        <ele>486.60</ele>
        <time>2013-07-27T12:00:44Z</time>
      </trkpt>
      <trkpt lat="42.367961000" lon="-2.323199000">
        <ele>486.80</ele>
        <time>2013-07-27T12:00:45Z</time>
      </trkpt>
      <trkpt lat="42.368011000" lon="-2.323264000">
        <ele>486.40</ele>
        <time>2013-07-27T12:00:46Z</time>
      </trkpt>
      <trkpt lat="42.368062000" lon="-2.323327000">
        <ele>486.20</ele>
        <time>2013-07-27T12:00:47Z</time>
      </trkpt>
      <trkpt lat="42.368114000" lon="-2.323389000">
        <ele>485.70</ele>
        <time>2013-07-27T12:00:48Z</time>
      </trkpt>
      <trkpt lat="42.368165000" lon="-2.323448000">
        <ele>485.30</ele>
        <time>2013-07-27T12:00:49Z</time>
      </trkpt>
      <trkpt lat="42.368221000" lon="-2.323506000">
        <ele>484.70</ele>
        <time>2013-07-27T12:00:50Z</time>
      </trkpt>
      <trkpt lat="42.368276000" lon="-2.323564000">
        <ele>484.30</ele>
        <time>2013-07-27T12:00:51Z</time>
      </trkpt>
      <trkpt lat="42.368328000" lon="-2.323624000">
        <ele>483.90</ele>
        <time>2013-07-27T12:00:52Z</time>
      </trkpt>
      <trkpt lat="42.368382000" lon="-2.323686000">
        <ele>483.70</ele>
        <time>2013-07-27T12:00:53Z</time>
      </trkpt>
      <trkpt lat="42.368436000" lon="-2.323753000">
        <ele>483.60</ele>
        <time>2013-07-27T12:00:54Z</time>
      </trkpt>
      <trkpt lat="42.368491000" lon="-2.323816000">
        <ele>483.50</ele>
        <time>2013-07-27T12:00:55Z</time>
      </trkpt>
      <trkpt lat="42.368546000" lon="-2.323883000">
        <ele>483.40</ele>
        <time>2013-07-27T12:00:56Z</time>
      </trkpt>
      <trkpt lat="42.368600000" lon="-2.323947000">
        <ele>483.40</ele>
        <time>2013-07-27T12:00:57Z</time>
      </trkpt>
      <trkpt lat="42.368655000" lon="-2.324013000">
        <ele>483.00</ele>
        <time>2013-07-27T12:00:58Z</time>
      </trkpt>
      <trkpt lat="42.368710000" lon="-2.324078000">
        <ele>482.60</ele>
        <time>2013-07-27T12:00:59Z</time>
      </trkpt>
      <trkpt lat="42.368766000" lon="-2.324142000">
        <ele>481.80</ele>
        <time>2013-07-27T12:01:00Z</time>
      </trkpt>
      <trkpt lat="42.368822000" lon="-2.324206000">
        <ele>481.20</ele>
        <time>2013-07-27T12:01:01Z</time>
      </trkpt>
      <trkpt lat="42.368877000" lon="-2.324271000">
        <ele>480.70</ele>
        <time>2013-07-27T12:01:02Z</time>
      </trkpt>
      <trkpt lat="42.368933000" lon="-2.324334000">
        <ele>480.40</ele>
        <time>2013-07-27T12:01:03Z</time>
      </trkpt>
      <trkpt lat="42.368987000" lon="-2.324398000">
        <ele>480.40</ele>
        <time>2013-07-27T12:01:04Z</time>
      </trkpt>
      <trkpt lat="42.369041000" lon="-2.324456000">
        <ele>480.50</ele>
        <time>2013-07-27T12:01:05Z</time>
      </trkpt>
      <trkpt lat="42.369096000" lon="-2.324517000">
        <ele>480.50</ele>
        <time>2013-07-27T12:01:06Z</time>
      </trkpt>
      <trkpt lat="42.369149000" lon="-2.324582000">
        <ele>480.50</ele>
        <time>2013-07-27T12:01:07Z</time>
      </trkpt>
      <trkpt lat="42.369203000" lon="-2.324648000">
        <ele>480.00</ele>
        <time>2013-07-27T12:01:08Z</time>
      </trkpt>
      <trkpt lat="42.369254000" lon="-2.324714000">
        <ele>479.60</ele>
        <time>2013-07-27T12:01:09Z</time>
      </trkpt>
      <trkpt lat="42.369309000" lon="-2.324779000">
        <ele>479.30</ele>
        <time>2013-07-27T12:01:10Z</time>
      </trkpt>
      <trkpt lat="42.369363000" lon="-2.324847000">
        <ele>479.10</ele>
        <time>2013-07-27T12:01:11Z</time>
      </trkpt>
      <trkpt lat="42.369417000" lon="-2.324915000">
        <ele>478.90</ele>
        <time>2013-07-27T12:01:12Z</time>
      </trkpt>
      <trkpt lat="42.369470000" lon="-2.324982000">
        <ele>478.70</ele>
        <time>2013-07-27T12:01:13Z</time>
      </trkpt>
      <trkpt lat="42.369524000" lon="-2.325049000">
        <ele>478.50</ele>
        <time>2013-07-27T12:01:14Z</time>
      </trkpt>
      <trkpt lat="42.369576000" lon="-2.325113000">
        <ele>478.30</ele>
        <time>2013-07-27T12:01:15Z</time>
      </trkpt>
      <trkpt lat="42.369632000" lon="-2.325178000">
        <ele>478.10</ele>
        <time>2013-07-27T12:01:16Z</time>
      </trkpt>
      <trkpt lat="42.369686000" lon="-2.325243000">
        <ele>477.90</ele>
        <time>2013-07-27T12:01:17Z</time>
      </trkpt>
      <trkpt lat="42.369738000" lon="-2.325309000">
        <ele>477.80</ele>
        <time>2013-07-27T12:01:18Z</time>
      </trkpt>
      <trkpt lat="42.369793000" lon="-2.325377000">
        <ele>477.70</ele>
        <time>2013-07-27T12:01:19Z</time>
      </trkpt>
      <trkpt lat="42.369848000" lon="-2.325443000">
        <ele>477.60</ele>
        <time>2013-07-27T12:01:20Z</time>
      </trkpt>
      <trkpt lat="42.369902000" lon="-2.325505000">
        <ele>477.60</ele>
        <time>2013-07-27T12:01:21Z</time>
      </trkpt>
      <trkpt lat="42.369955000" lon="-2.325569000">
        <ele>477.40</ele>
        <time>2013-07-27T12:01:22Z</time>
      </trkpt>
      <trkpt lat="42.370009000" lon="-2.325636000">
        <ele>477.40</ele>
        <time>2013-07-27T12:01:23Z</time>
      </trkpt>
      <trkpt lat="42.370061000" lon="-2.325706000">
        <ele>477.20</ele>
        <time>2013-07-27T12:01:24Z</time>
      </trkpt>
      <trkpt lat="42.370114000" lon="-2.325778000">
        <ele>477.10</ele>
        <time>2013-07-27T12:01:25Z</time>
      </trkpt>
      <trkpt lat="42.370163000" lon="-2.325848000">
        <ele>476.90</ele>
        <time>2013-07-27T12:01:26Z</time>
      </trkpt>
      <trkpt lat="42.370210000" lon="-2.325924000">
        <ele>476.80</ele>
        <time>2013-07-27T12:01:27Z</time>
      </trkpt>
      <trkpt lat="42.370258000" lon="-2.326002000">
        <ele>476.40</ele>
        <time>2013-07-27T12:01:28Z</time>
      </trkpt>
      <trkpt lat="42.370304000" lon="-2.326081000">
        <ele>476.00</ele>
        <time>2013-07-27T12:01:29Z</time>
      </trkpt>
      <trkpt lat="42.370351000" lon="-2.326161000">
        <ele>475.80</ele>
        <time>2013-07-27T12:01:30Z</time>
      </trkpt>
      <trkpt lat="42.370393000" lon="-2.326241000">
        <ele>475.60</ele>
        <time>2013-07-27T12:01:31Z</time>
      </trkpt>
      <trkpt lat="42.370438000" lon="-2.326323000">
        <ele>475.10</ele>
        <time>2013-07-27T12:01:32Z</time>
      </trkpt>
      <trkpt lat="42.370482000" lon="-2.326402000">
        <ele>474.70</ele>
        <time>2013-07-27T12:01:33Z</time>
      </trkpt>
      <trkpt lat="42.370526000" lon="-2.326478000">
        <ele>474.40</ele>
        <time>2013-07-27T12:01:34Z</time>
      </trkpt>
      <trkpt lat="42.370574000" lon="-2.326554000">
        <ele>474.10</ele>
        <time>2013-07-27T12:01:35Z</time>
      </trkpt>
      <trkpt lat="42.370620000" lon="-2.326627000">
        <ele>474.00</ele>
        <time>2013-07-27T12:01:36Z</time>
      </trkpt>
      <trkpt lat="42.370666000" lon="-2.326697000">
        <ele>473.80</ele>
        <time>2013-07-27T12:01:37Z</time>
      </trkpt>
      <trkpt lat="42.370713000" lon="-2.326767000">
        <ele>473.70</ele>
        <time>2013-07-27T12:01:38Z</time>
      </trkpt>
      <trkpt lat="42.370758000" lon="-2.326836000">
        <ele>473.70</ele>
        <time>2013-07-27T12:01:39Z</time>
      </trkpt>
      <trkpt lat="42.370803000" lon="-2.326901000">
        <ele>473.70</ele>
        <time>2013-07-27T12:01:40Z</time>
      </trkpt>
      <trkpt lat="42.370848000" lon="-2.326963000">
        <ele>473.70</ele>
        <time>2013-07-27T12:01:41Z</time>
      </trkpt>
      <trkpt lat="42.370893000" lon="-2.327024000">
        <ele>473.40</ele>
        <time>2013-07-27T12:01:42Z</time>
      </trkpt>
      <trkpt lat="42.370934000" lon="-2.327086000">
        <ele>473.10</ele>
        <time>2013-07-27T12:01:43Z</time>
      </trkpt>
      <trkpt lat="42.370971000" lon="-2.327137000">
        <ele>473.10</ele>
        <time>2013-07-27T12:01:44Z</time>
      </trkpt>
      <trkpt lat="42.371010000" lon="-2.327186000">
        <ele>473.10</ele>
        <time>2013-07-27T12:01:45Z</time>
      </trkpt>
      <trkpt lat="42.371053000" lon="-2.327227000">
        <ele>473.00</ele>
        <time>2013-07-27T12:01:46Z</time>
      </trkpt>
      <trkpt lat="42.371103000" lon="-2.327258000">
        <ele>472.80</ele>
        <time>2013-07-27T12:01:47Z</time>
      </trkpt>
      <trkpt lat="42.371157000" lon="-2.327277000">
        <ele>472.60</ele>
        <time>2013-07-27T12:01:48Z</time>
      </trkpt>
      <trkpt lat="42.371216000" lon="-2.327288000">
        <ele>472.50</ele>
        <time>2013-07-27T12:01:49Z</time>
      </trkpt>
      <trkpt lat="42.371277000" lon="-2.327290000">
        <ele>472.20</ele>
        <time>2013-07-27T12:01:50Z</time>
      </trkpt>
      <trkpt lat="42.371340000" lon="-2.327287000">
        <ele>472.00</ele>
        <time>2013-07-27T12:01:51Z</time>
      </trkpt>
      <trkpt lat="42.371396000" lon="-2.327284000">
        <ele>471.50</ele>
        <time>2013-07-27T12:01:52Z</time>
      </trkpt>
      <trkpt lat="42.371445000" lon="-2.327280000">
        <ele>471.10</ele>
        <time>2013-07-27T12:01:53Z</time>
      </trkpt>
      <trkpt lat="42.371486000" lon="-2.327281000">
        <ele>470.90</ele>
        <time>2013-07-27T12:01:54Z</time>
      </trkpt>
      <trkpt lat="42.371526000" lon="-2.327292000">
        <ele>470.60</ele>
        <time>2013-07-27T12:01:55Z</time>
      </trkpt>
      <trkpt lat="42.371564000" lon="-2.327293000">
        <ele>470.30</ele>
        <time>2013-07-27T12:01:56Z</time>
      </trkpt>
      <trkpt lat="42.371603000" lon="-2.327281000">
        <ele>470.00</ele>
        <time>2013-07-27T12:01:57Z</time>
      </trkpt>
      <trkpt lat="42.371644000" lon="-2.327274000">
        <ele>469.30</ele>
        <time>2013-07-27T12:01:58Z</time>
      </trkpt>
      <trkpt lat="42.371691000" lon="-2.327270000">
        <ele>468.70</ele>
        <time>2013-07-27T12:01:59Z</time>
      </trkpt>
      <trkpt lat="42.371737000" lon="-2.327278000">
        <ele>468.70</ele>
        <time>2013-07-27T12:02:00Z</time>
      </trkpt>
      <trkpt lat="42.371783000" lon="-2.327280000">
        <ele>468.70</ele>
        <time>2013-07-27T12:02:01Z</time>
      </trkpt>
      <trkpt lat="42.371832000" lon="-2.327286000">
        <ele>468.60</ele>
        <time>2013-07-27T12:02:02Z</time>
      </trkpt>
      <trkpt lat="42.371880000" lon="-2.327294000">
        <ele>468.50</ele>
        <time>2013-07-27T12:02:03Z</time>
      </trkpt>
      <trkpt lat="42.371926000" lon="-2.327310000">
        <ele>468.60</ele>
        <time>2013-07-27T12:02:04Z</time>
      </trkpt>
      <trkpt lat="42.371970000" lon="-2.327325000">
        <ele>468.60</ele>
        <time>2013-07-27T12:02:05Z</time>
      </trkpt>
      <trkpt lat="42.372014000" lon="-2.327338000">
        <ele>468.50</ele>
        <time>2013-07-27T12:02:06Z</time>
      </trkpt>
      <trkpt lat="42.372059000" lon="-2.327347000">
        <ele>468.50</ele>
        <time>2013-07-27T12:02:07Z</time>
      </trkpt>
      <trkpt lat="42.372102000" lon="-2.327356000">
        <ele>468.30</ele>
        <time>2013-07-27T12:02:08Z</time>
      </trkpt>
      <trkpt lat="42.372146000" lon="-2.327367000">
        <ele>468.20</ele>
        <time>2013-07-27T12:02:09Z</time>
      </trkpt>
      <trkpt lat="42.372188000" lon="-2.327376000">
        <ele>468.10</ele>
        <time>2013-07-27T12:02:10Z</time>
      </trkpt>
      <trkpt lat="42.372231000" lon="-2.327390000">
        <ele>468.00</ele>
        <time>2013-07-27T12:02:11Z</time>
      </trkpt>
      <trkpt lat="42.372274000" lon="-2.327400000">
        <ele>468.30</ele>
        <time>2013-07-27T12:02:12Z</time>
      </trkpt>
      <trkpt lat="42.372317000" lon="-2.327411000">
        <ele>468.40</ele>
        <time>2013-07-27T12:02:13Z</time>
      </trkpt>
      <trkpt lat="42.372361000" lon="-2.327425000">
        <ele>468.50</ele>
        <time>2013-07-27T12:02:14Z</time>
      </trkpt>
      <trkpt lat="42.372407000" lon="-2.327439000">
        <ele>468.60</ele>
        <time>2013-07-27T12:02:15Z</time>
      </trkpt>
      <trkpt lat="42.372458000" lon="-2.327451000">
        <ele>468.10</ele>
        <time>2013-07-27T12:02:16Z</time>
      </trkpt>
      <trkpt lat="42.372510000" lon="-2.327468000">
        <ele>467.70</ele>
        <time>2013-07-27T12:02:17Z</time>
      </trkpt>
      <trkpt lat="42.372565000" lon="-2.327483000">
        <ele>467.40</ele>
        <time>2013-07-27T12:02:18Z</time>
      </trkpt>
      <trkpt lat="42.372619000" lon="-2.327500000">
        <ele>467.20</ele>
        <time>2013-07-27T12:02:19Z</time>
      </trkpt>
      <trkpt lat="42.372676000" lon="-2.327518000">
        <ele>467.00</ele>
        <time>2013-07-27T12:02:20Z</time>
      </trkpt>
      <trkpt lat="42.372733000" lon="-2.327536000">
        <ele>466.90</ele>
        <time>2013-07-27T12:02:21Z</time>
      </trkpt>
      <trkpt lat="42.372788000" lon="-2.327553000">
        <ele>466.90</ele>
        <time>2013-07-27T12:02:22Z</time>
      </trkpt>
      <trkpt lat="42.372844000" lon="-2.327574000">
        <ele>466.80</ele>
        <time>2013-07-27T12:02:23Z</time>
      </trkpt>
      <trkpt lat="42.372901000" lon="-2.327591000">
        <ele>467.00</ele>
        <time>2013-07-27T12:02:24Z</time>
      </trkpt>
      <trkpt lat="42.372958000" lon="-2.327609000">
        <ele>467.20</ele>
        <time>2013-07-27T12:02:25Z</time>
      </trkpt>
      <trkpt lat="42.373016000" lon="-2.327626000">
        <ele>467.30</ele>
        <time>2013-07-27T12:02:26Z</time>
      </trkpt>
      <trkpt lat="42.373073000" lon="-2.327644000">
        <ele>467.30</ele>
        <time>2013-07-27T12:02:27Z</time>
      </trkpt>
      <trkpt lat="42.373128000" lon="-2.327654000">
        <ele>467.20</ele>
        <time>2013-07-27T12:02:28Z</time>
      </trkpt>
      <trkpt lat="42.373177000" lon="-2.327662000">
        <ele>467.10</ele>
        <time>2013-07-27T12:02:29Z</time>
      </trkpt>
      <trkpt lat="42.373217000" lon="-2.327669000">
        <ele>466.90</ele>
        <time>2013-07-27T12:02:30Z</time>
      </trkpt>
      <trkpt lat="42.373259000" lon="-2.327674000">
        <ele>466.70</ele>
        <time>2013-07-27T12:02:31Z</time>
      </trkpt>
      <trkpt lat="42.373301000" lon="-2.327681000">
        <ele>466.50</ele>
        <time>2013-07-27T12:02:32Z</time>
      </trkpt>
      <trkpt lat="42.373345000" lon="-2.327693000">
        <ele>466.30</ele>
        <time>2013-07-27T12:02:33Z</time>
      </trkpt>
      <trkpt lat="42.373391000" lon="-2.327704000">
        <ele>466.20</ele>
        <time>2013-07-27T12:02:34Z</time>
      </trkpt>
      <trkpt lat="42.373437000" lon="-2.327717000">
        <ele>466.10</ele>
        <time>2013-07-27T12:02:35Z</time>
      </trkpt>
      <trkpt lat="42.373482000" lon="-2.327728000">
        <ele>466.00</ele>
        <time>2013-07-27T12:02:36Z</time>
      </trkpt>
      <trkpt lat="42.373525000" lon="-2.327739000">
        <ele>465.90</ele>
        <time>2013-07-27T12:02:37Z</time>
      </trkpt>
      <trkpt lat="42.373572000" lon="-2.327745000">
        <ele>465.60</ele>
        <time>2013-07-27T12:02:38Z</time>
      </trkpt>
      <trkpt lat="42.373624000" lon="-2.327749000">
        <ele>465.40</ele>
        <time>2013-07-27T12:02:39Z</time>
      </trkpt>
      <trkpt lat="42.373678000" lon="-2.327755000">
        <ele>465.20</ele>
        <time>2013-07-27T12:02:40Z</time>
      </trkpt>
      <trkpt lat="42.373735000" lon="-2.327760000">
        <ele>465.10</ele>
        <time>2013-07-27T12:02:41Z</time>
      </trkpt>
      <trkpt lat="42.373792000" lon="-2.327769000">
        <ele>464.70</ele>
        <time>2013-07-27T12:02:42Z</time>
      </trkpt>
      <trkpt lat="42.373849000" lon="-2.327783000">
        <ele>464.40</ele>
        <time>2013-07-27T12:02:43Z</time>
      </trkpt>
      <trkpt lat="42.373906000" lon="-2.327796000">
        <ele>464.10</ele>
        <time>2013-07-27T12:02:44Z</time>
      </trkpt>
      <trkpt lat="42.373961000" lon="-2.327808000">
        <ele>463.90</ele>
        <time>2013-07-27T12:02:45Z</time>
      </trkpt>
      <trkpt lat="42.374017000" lon="-2.327821000">
        <ele>463.70</ele>
        <time>2013-07-27T12:02:46Z</time>
      </trkpt>
      <trkpt lat="42.374072000" lon="-2.327831000">
        <ele>463.60</ele>
        <time>2013-07-27T12:02:47Z</time>
      </trkpt>
      <trkpt lat="42.374125000" lon="-2.327839000">
        <ele>463.30</ele>
        <time>2013-07-27T12:02:48Z</time>
      </trkpt>
      <trkpt lat="42.374178000" lon="-2.327848000">
        <ele>463.10</ele>
        <time>2013-07-27T12:02:49Z</time>
      </trkpt>
      <trkpt lat="42.374232000" lon="-2.327853000">
        <ele>462.90</ele>
        <time>2013-07-27T12:02:50Z</time>
      </trkpt>
      <trkpt lat="42.374283000" lon="-2.327852000">
        <ele>462.80</ele>
        <time>2013-07-27T12:02:51Z</time>
      </trkpt>
      <trkpt lat="42.374337000" lon="-2.327855000">
        <ele>462.40</ele>
        <time>2013-07-27T12:02:52Z</time>
      </trkpt>
      <trkpt lat="42.374384000" lon="-2.327855000">
        <ele>462.20</ele>
        <time>2013-07-27T12:02:53Z</time>
      </trkpt>
      <trkpt lat="42.374432000" lon="-2.327857000">
        <ele>462.00</ele>
        <time>2013-07-27T12:02:54Z</time>
      </trkpt>
      <trkpt lat="42.374473000" lon="-2.327859000">
        <ele>461.80</ele>
        <time>2013-07-27T12:02:55Z</time>
      </trkpt>
      <trkpt lat="42.374505000" lon="-2.327856000">
        <ele>461.80</ele>
        <time>2013-07-27T12:02:56Z</time>
      </trkpt>
      <trkpt lat="42.374530000" lon="-2.327856000">
        <ele>461.70</ele>
        <time>2013-07-27T12:02:57Z</time>
      </trkpt>
      <trkpt lat="42.374552000" lon="-2.327854000">
        <ele>461.70</ele>
        <time>2013-07-27T12:02:58Z</time>
      </trkpt>
      <trkpt lat="42.374577000" lon="-2.327846000">
        <ele>461.70</ele>
        <time>2013-07-27T12:02:59Z</time>
      </trkpt>
      <trkpt lat="42.374612000" lon="-2.327839000">
        <ele>461.60</ele>
        <time>2013-07-27T12:03:00Z</time>
      </trkpt>
      <trkpt lat="42.374648000" lon="-2.327840000">
        <ele>461.50</ele>
        <time>2013-07-27T12:03:01Z</time>
      </trkpt>
      <trkpt lat="42.374684000" lon="-2.327854000">
        <ele>461.40</ele>
        <time>2013-07-27T12:03:02Z</time>
      </trkpt>
      <trkpt lat="42.374729000" lon="-2.327866000">
        <ele>461.30</ele>
        <time>2013-07-27T12:03:03Z</time>
      </trkpt>
      <trkpt lat="42.374783000" lon="-2.327877000">
        <ele>461.30</ele>
        <time>2013-07-27T12:03:04Z</time>
      </trkpt>
      <trkpt lat="42.374842000" lon="-2.327881000">
        <ele>461.30</ele>
        <time>2013-07-27T12:03:05Z</time>
      </trkpt>
      <trkpt lat="42.374899000" lon="-2.327883000">
        <ele>461.20</ele>
        <time>2013-07-27T12:03:06Z</time>
      </trkpt>
      <trkpt lat="42.374956000" lon="-2.327885000">
        <ele>461.10</ele>
        <time>2013-07-27T12:03:07Z</time>
      </trkpt>
      <trkpt lat="42.375014000" lon="-2.327882000">
        <ele>460.70</ele>
        <time>2013-07-27T12:03:08Z</time>
      </trkpt>
      <trkpt lat="42.375070000" lon="-2.327872000">
        <ele>460.50</ele>
        <time>2013-07-27T12:03:09Z</time>
      </trkpt>
      <trkpt lat="42.375128000" lon="-2.327860000">
        <ele>460.20</ele>
        <time>2013-07-27T12:03:10Z</time>
      </trkpt>
      <trkpt lat="42.375183000" lon="-2.327844000">
        <ele>460.00</ele>
        <time>2013-07-27T12:03:11Z</time>
      </trkpt>
      <trkpt lat="42.375233000" lon="-2.327831000">
        <ele>459.60</ele>
        <time>2013-07-27T12:03:12Z</time>
      </trkpt>
      <trkpt lat="42.375281000" lon="-2.327813000">
        <ele>459.20</ele>
        <time>2013-07-27T12:03:13Z</time>
      </trkpt>
      <trkpt lat="42.375326000" lon="-2.327799000">
        <ele>459.00</ele>
        <time>2013-07-27T12:03:14Z</time>
      </trkpt>
      <trkpt lat="42.375370000" lon="-2.327790000">
        <ele>458.80</ele>
        <time>2013-07-27T12:03:15Z</time>
      </trkpt>
      <trkpt lat="42.375410000" lon="-2.327792000">
        <ele>458.70</ele>
        <time>2013-07-27T12:03:16Z</time>
      </trkpt>
      <trkpt lat="42.375446000" lon="-2.327792000">
        <ele>458.60</ele>
        <time>2013-07-27T12:03:17Z</time>
      </trkpt>
      <trkpt lat="42.375483000" lon="-2.327790000">
        <ele>459.10</ele>
        <time>2013-07-27T12:03:18Z</time>
      </trkpt>
      <trkpt lat="42.375518000" lon="-2.327774000">
        <ele>459.50</ele>
        <time>2013-07-27T12:03:19Z</time>
      </trkpt>
      <trkpt lat="42.375553000" lon="-2.327760000">
        <ele>459.80</ele>
        <time>2013-07-27T12:03:20Z</time>
      </trkpt>
      <trkpt lat="42.375591000" lon="-2.327751000">
        <ele>460.00</ele>
        <time>2013-07-27T12:03:21Z</time>
      </trkpt>
      <trkpt lat="42.375627000" lon="-2.327741000">
        <ele>460.30</ele>
        <time>2013-07-27T12:03:22Z</time>
      </trkpt>
      <trkpt lat="42.375663000" lon="-2.327741000">
        <ele>460.50</ele>
        <time>2013-07-27T12:03:23Z</time>
      </trkpt>
      <trkpt lat="42.375695000" lon="-2.327749000">
        <ele>459.80</ele>
        <time>2013-07-27T12:03:24Z</time>
      </trkpt>
      <trkpt lat="42.375732000" lon="-2.327760000">
        <ele>459.30</ele>
        <time>2013-07-27T12:03:25Z</time>
      </trkpt>
      <trkpt lat="42.375769000" lon="-2.327771000">
        <ele>459.20</ele>
        <time>2013-07-27T12:03:26Z</time>
      </trkpt>
      <trkpt lat="42.375811000" lon="-2.327773000">
        <ele>459.20</ele>
        <time>2013-07-27T12:03:27Z</time>
      </trkpt>
      <trkpt lat="42.375855000" lon="-2.327774000">
        <ele>458.80</ele>
        <time>2013-07-27T12:03:28Z</time>
      </trkpt>
      <trkpt lat="42.375898000" lon="-2.327779000">
        <ele>458.60</ele>
        <time>2013-07-27T12:03:29Z</time>
      </trkpt>
      <trkpt lat="42.375939000" lon="-2.327786000">
        <ele>458.70</ele>
        <time>2013-07-27T12:03:30Z</time>
      </trkpt>
      <trkpt lat="42.375980000" lon="-2.327791000">
        <ele>458.80</ele>
        <time>2013-07-27T12:03:31Z</time>
      </trkpt>
      <trkpt lat="42.376019000" lon="-2.327793000">
        <ele>459.20</ele>
        <time>2013-07-27T12:03:32Z</time>
      </trkpt>
      <trkpt lat="42.376057000" lon="-2.327795000">
        <ele>459.50</ele>
        <time>2013-07-27T12:03:33Z</time>
      </trkpt>
      <trkpt lat="42.376097000" lon="-2.327795000">
        <ele>459.70</ele>
        <time>2013-07-27T12:03:34Z</time>
      </trkpt>
      <trkpt lat="42.376144000" lon="-2.327794000">
        <ele>459.90</ele>
        <time>2013-07-27T12:03:35Z</time>
      </trkpt>
      <trkpt lat="42.376192000" lon="-2.327792000">
        <ele>459.40</ele>
        <time>2013-07-27T12:03:36Z</time>
      </trkpt>
      <trkpt lat="42.376241000" lon="-2.327788000">
        <ele>459.10</ele>
        <time>2013-07-27T12:03:37Z</time>
      </trkpt>
      <trkpt lat="42.376292000" lon="-2.327779000">
        <ele>458.80</ele>
        <time>2013-07-27T12:03:38Z</time>
      </trkpt>
      <trkpt lat="42.376339000" lon="-2.327768000">
        <ele>458.50</ele>
        <time>2013-07-27T12:03:39Z</time>
      </trkpt>
      <trkpt lat="42.376385000" lon="-2.327755000">
        <ele>458.40</ele>
        <time>2013-07-27T12:03:40Z</time>
      </trkpt>
      <trkpt lat="42.376431000" lon="-2.327742000">
        <ele>458.20</ele>
        <time>2013-07-27T12:03:41Z</time>
      </trkpt>
      <trkpt lat="42.376477000" lon="-2.327733000">
        <ele>458.10</ele>
        <time>2013-07-27T12:03:42Z</time>
      </trkpt>
      <trkpt lat="42.376523000" lon="-2.327728000">
        <ele>458.10</ele>
        <time>2013-07-27T12:03:43Z</time>
      </trkpt>
      <trkpt lat="42.376570000" lon="-2.327724000">
        <ele>458.20</ele>
        <time>2013-07-27T12:03:44Z</time>
      </trkpt>
      <trkpt lat="42.376617000" lon="-2.327732000">
        <ele>458.30</ele>
        <time>2013-07-27T12:03:45Z</time>
      </trkpt>
      <trkpt lat="42.376666000" lon="-2.327745000">
        <ele>458.50</ele>
        <time>2013-07-27T12:03:46Z</time>
      </trkpt>
      <trkpt lat="42.376713000" lon="-2.327765000">
        <ele>458.60</ele>
        <time>2013-07-27T12:03:47Z</time>
      </trkpt>
      <trkpt lat="42.376760000" lon="-2.327784000">
        <ele>458.90</ele>
        <time>2013-07-27T12:03:48Z</time>
      </trkpt>
      <trkpt lat="42.376807000" lon="-2.327808000">
        <ele>459.20</ele>
        <time>2013-07-27T12:03:49Z</time>
      </trkpt>
      <trkpt lat="42.376854000" lon="-2.327835000">
        <ele>459.10</ele>
        <time>2013-07-27T12:03:50Z</time>
      </trkpt>
      <trkpt lat="42.376900000" lon="-2.327865000">
        <ele>459.10</ele>
        <time>2013-07-27T12:03:51Z</time>
      </trkpt>
      <trkpt lat="42.376951000" lon="-2.327895000">
        <ele>458.60</ele>
        <time>2013-07-27T12:03:52Z</time>
      </trkpt>
      <trkpt lat="42.377003000" lon="-2.327927000">
        <ele>458.30</ele>
        <time>2013-07-27T12:03:53Z</time>
      </trkpt>
      <trkpt lat="42.377054000" lon="-2.327953000">
        <ele>458.10</ele>
        <time>2013-07-27T12:03:54Z</time>
      </trkpt>
      <trkpt lat="42.377106000" lon="-2.327979000">
        <ele>457.90</ele>
        <time>2013-07-27T12:03:55Z</time>
      </trkpt>
      <trkpt lat="42.377154000" lon="-2.327995000">
        <ele>457.80</ele>
        <time>2013-07-27T12:03:56Z</time>
      </trkpt>
      <trkpt lat="42.377201000" lon="-2.328003000">
        <ele>457.80</ele>
        <time>2013-07-27T12:03:57Z</time>
      </trkpt>
      <trkpt lat="42.377244000" lon="-2.327993000">
        <ele>457.70</ele>
        <time>2013-07-27T12:03:58Z</time>
      </trkpt>
      <trkpt lat="42.377285000" lon="-2.327979000">
        <ele>457.70</ele>
        <time>2013-07-27T12:03:59Z</time>
      </trkpt>
      <trkpt lat="42.377325000" lon="-2.327970000">
        <ele>457.30</ele>
        <time>2013-07-27T12:04:00Z</time>
      </trkpt>
      <trkpt lat="42.377365000" lon="-2.327963000">
        <ele>457.10</ele>
        <time>2013-07-27T12:04:01Z</time>
      </trkpt>
      <trkpt lat="42.377409000" lon="-2.327963000">
        <ele>456.90</ele>
        <time>2013-07-27T12:04:02Z</time>
      </trkpt>
      <trkpt lat="42.377455000" lon="-2.327970000">
        <ele>456.70</ele>
        <time>2013-07-27T12:04:03Z</time>
      </trkpt>
      <trkpt lat="42.377505000" lon="-2.327991000">
        <ele>457.20</ele>
        <time>2013-07-27T12:04:04Z</time>
      </trkpt>
      <trkpt lat="42.377556000" lon="-2.328011000">
        <ele>457.50</ele>
        <time>2013-07-27T12:04:05Z</time>
      </trkpt>
      <trkpt lat="42.377606000" lon="-2.328023000">
        <ele>457.80</ele>
        <time>2013-07-27T12:04:06Z</time>
      </trkpt>
      <trkpt lat="42.377647000" lon="-2.328027000">
        <ele>458.00</ele>
        <time>2013-07-27T12:04:07Z</time>
      </trkpt>
      <trkpt lat="42.377683000" lon="-2.328020000">
        <ele>458.20</ele>
        <time>2013-07-27T12:04:08Z</time>
      </trkpt>
      <trkpt lat="42.377722000" lon="-2.328012000">
        <ele>458.30</ele>
        <time>2013-07-27T12:04:09Z</time>
      </trkpt>
      <trkpt lat="42.377764000" lon="-2.328009000">
        <ele>457.80</ele>
        <time>2013-07-27T12:04:10Z</time>
      </trkpt>
      <trkpt lat="42.377809000" lon="-2.328007000">
        <ele>457.50</ele>
        <time>2013-07-27T12:04:11Z</time>
      </trkpt>
      <trkpt lat="42.377856000" lon="-2.328004000">
        <ele>457.20</ele>
        <time>2013-07-27T12:04:12Z</time>
      </trkpt>
      <trkpt lat="42.377902000" lon="-2.327997000">
        <ele>457.00</ele>
        <time>2013-07-27T12:04:13Z</time>
      </trkpt>
      <trkpt lat="42.377948000" lon="-2.327988000">
        <ele>456.80</ele>
        <time>2013-07-27T12:04:14Z</time>
      </trkpt>
      <trkpt lat="42.377994000" lon="-2.327980000">
        <ele>456.70</ele>
        <time>2013-07-27T12:04:15Z</time>
      </trkpt>
      <trkpt lat="42.378043000" lon="-2.327970000">
        <ele>456.70</ele>
        <time>2013-07-27T12:04:16Z</time>
      </trkpt>
      <trkpt lat="42.378088000" lon="-2.327962000">
        <ele>456.70</ele>
        <time>2013-07-27T12:04:17Z</time>
      </trkpt>
      <trkpt lat="42.378133000" lon="-2.327961000">
        <ele>457.10</ele>
        <time>2013-07-27T12:04:18Z</time>
      </trkpt>
      <trkpt lat="42.378178000" lon="-2.327963000">
        <ele>457.40</ele>
        <time>2013-07-27T12:04:19Z</time>
      </trkpt>
      <trkpt lat="42.378228000" lon="-2.327974000">
        <ele>457.70</ele>
        <time>2013-07-27T12:04:20Z</time>
      </trkpt>
      <trkpt lat="42.378280000" lon="-2.327985000">
        <ele>457.90</ele>
        <time>2013-07-27T12:04:21Z</time>
      </trkpt>
      <trkpt lat="42.378334000" lon="-2.327992000">
        <ele>458.00</ele>
        <time>2013-07-27T12:04:22Z</time>
      </trkpt>
      <trkpt lat="42.378385000" lon="-2.327991000">
        <ele>458.10</ele>
        <time>2013-07-27T12:04:23Z</time>
      </trkpt>
      <trkpt lat="42.378438000" lon="-2.327988000">
        <ele>458.00</ele>
        <time>2013-07-27T12:04:24Z</time>
      </trkpt>
      <trkpt lat="42.378494000" lon="-2.327986000">
        <ele>457.80</ele>
        <time>2013-07-27T12:04:25Z</time>
      </trkpt>
      <trkpt lat="42.378549000" lon="-2.327979000">
        <ele>457.70</ele>
        <time>2013-07-27T12:04:26Z</time>
      </trkpt>
      <trkpt lat="42.378603000" lon="-2.327967000">
        <ele>457.70</ele>
        <time>2013-07-27T12:04:27Z</time>
      </trkpt>
      <trkpt lat="42.378656000" lon="-2.327951000">
        <ele>457.90</ele>
        <time>2013-07-27T12:04:28Z</time>
      </trkpt>
      <trkpt lat="42.378709000" lon="-2.327936000">
        <ele>458.10</ele>
        <time>2013-07-27T12:04:29Z</time>
      </trkpt>
      <trkpt lat="42.378764000" lon="-2.327921000">
        <ele>458.30</ele>
        <time>2013-07-27T12:04:30Z</time>
      </trkpt>
      <trkpt lat="42.378818000" lon="-2.327906000">
        <ele>458.50</ele>
        <time>2013-07-27T12:04:31Z</time>
      </trkpt>
      <trkpt lat="42.378873000" lon="-2.327893000">
        <ele>458.60</ele>
        <time>2013-07-27T12:04:32Z</time>
      </trkpt>
      <trkpt lat="42.378932000" lon="-2.327878000">
        <ele>458.60</ele>
        <time>2013-07-27T12:04:33Z</time>
      </trkpt>
      <trkpt lat="42.378990000" lon="-2.327860000">
        <ele>458.50</ele>
        <time>2013-07-27T12:04:34Z</time>
      </trkpt>
      <trkpt lat="42.379048000" lon="-2.327843000">
        <ele>458.40</ele>
        <time>2013-07-27T12:04:35Z</time>
      </trkpt>
      <trkpt lat="42.379106000" lon="-2.327822000">
        <ele>458.30</ele>
        <time>2013-07-27T12:04:36Z</time>
      </trkpt>
      <trkpt lat="42.379163000" lon="-2.327804000">
        <ele>458.10</ele>
        <time>2013-07-27T12:04:37Z</time>
      </trkpt>
      <trkpt lat="42.379222000" lon="-2.327782000">
        <ele>457.80</ele>
        <time>2013-07-27T12:04:38Z</time>
      </trkpt>
      <trkpt lat="42.379282000" lon="-2.327758000">
        <ele>457.60</ele>
        <time>2013-07-27T12:04:39Z</time>
      </trkpt>
      <trkpt lat="42.379341000" lon="-2.327734000">
        <ele>457.20</ele>
        <time>2013-07-27T12:04:40Z</time>
      </trkpt>
      <trkpt lat="42.379402000" lon="-2.327714000">
        <ele>456.90</ele>
        <time>2013-07-27T12:04:41Z</time>
      </trkpt>
      <trkpt lat="42.379459000" lon="-2.327694000">
        <ele>456.70</ele>
        <time>2013-07-27T12:04:42Z</time>
      </trkpt>
      <trkpt lat="42.379516000" lon="-2.327675000">
        <ele>456.50</ele>
        <time>2013-07-27T12:04:43Z</time>
      </trkpt>
      <trkpt lat="42.379575000" lon="-2.327658000">
        <ele>456.30</ele>
        <time>2013-07-27T12:04:44Z</time>
      </trkpt>
      <trkpt lat="42.379632000" lon="-2.327638000">
        <ele>456.20</ele>
        <time>2013-07-27T12:04:45Z</time>
      </trkpt>
      <trkpt lat="42.379687000" lon="-2.327619000">
        <ele>456.70</ele>
        <time>2013-07-27T12:04:46Z</time>
      </trkpt>
      <trkpt lat="42.379744000" lon="-2.327594000">
        <ele>457.10</ele>
        <time>2013-07-27T12:04:47Z</time>
      </trkpt>
      <trkpt lat="42.379801000" lon="-2.327575000">
        <ele>457.40</ele>
        <time>2013-07-27T12:04:48Z</time>
      </trkpt>
      <trkpt lat="42.379860000" lon="-2.327556000">
        <ele>457.60</ele>
        <time>2013-07-27T12:04:49Z</time>
      </trkpt>
      <trkpt lat="42.379918000" lon="-2.327539000">
        <ele>457.10</ele>
        <time>2013-07-27T12:04:50Z</time>
      </trkpt>
      <trkpt lat="42.379976000" lon="-2.327524000">
        <ele>456.60</ele>
        <time>2013-07-27T12:04:51Z</time>
      </trkpt>
      <trkpt lat="42.380032000" lon="-2.327517000">
        <ele>456.30</ele>
        <time>2013-07-27T12:04:52Z</time>
      </trkpt>
      <trkpt lat="42.380092000" lon="-2.327513000">
        <ele>456.10</ele>
        <time>2013-07-27T12:04:53Z</time>
      </trkpt>
      <trkpt lat="42.380152000" lon="-2.327514000">
        <ele>456.50</ele>
        <time>2013-07-27T12:04:54Z</time>
      </trkpt>
      <trkpt lat="42.380211000" lon="-2.327511000">
        <ele>456.80</ele>
        <time>2013-07-27T12:04:55Z</time>
      </trkpt>
      <trkpt lat="42.380272000" lon="-2.327508000">
        <ele>457.10</ele>
        <time>2013-07-27T12:04:56Z</time>
      </trkpt>
      <trkpt lat="42.380332000" lon="-2.327508000">
        <ele>457.20</ele>
        <time>2013-07-27T12:04:57Z</time>
      </trkpt>
      <trkpt lat="42.380393000" lon="-2.327507000">
        <ele>456.80</ele>
        <time>2013-07-27T12:04:58Z</time>
      </trkpt>
      <trkpt lat="42.380455000" lon="-2.327504000">
        <ele>456.40</ele>
        <time>2013-07-27T12:04:59Z</time>
      </trkpt>
      <trkpt lat="42.380515000" lon="-2.327499000">
        <ele>456.20</ele>
        <time>2013-07-27T12:05:00Z</time>
      </trkpt>
      <trkpt lat="42.380576000" lon="-2.327493000">
        <ele>456.00</ele>
        <time>2013-07-27T12:05:01Z</time>
      </trkpt>
      <trkpt lat="42.380639000" lon="-2.327491000">
        <ele>455.90</ele>
        <time>2013-07-27T12:05:02Z</time>
      </trkpt>
      <trkpt lat="42.380700000" lon="-2.327490000">
        <ele>455.70</ele>
        <time>2013-07-27T12:05:03Z</time>
      </trkpt>
      <trkpt lat="42.380761000" lon="-2.327491000">
        <ele>455.70</ele>
        <time>2013-07-27T12:05:04Z</time>
      </trkpt>
      <trkpt lat="42.380820000" lon="-2.327491000">
        <ele>455.60</ele>
        <time>2013-07-27T12:05:05Z</time>
      </trkpt>
      <trkpt lat="42.380880000" lon="-2.327491000">
        <ele>455.60</ele>
        <time>2013-07-27T12:05:06Z</time>
      </trkpt>
      <trkpt lat="42.380941000" lon="-2.327490000">
        <ele>455.50</ele>
        <time>2013-07-27T12:05:07Z</time>
      </trkpt>
      <trkpt lat="42.381003000" lon="-2.327488000">
        <ele>455.40</ele>
        <time>2013-07-27T12:05:08Z</time>
      </trkpt>
      <trkpt lat="42.381064000" lon="-2.327487000">
        <ele>455.40</ele>
        <time>2013-07-27T12:05:09Z</time>
      </trkpt>
      <trkpt lat="42.381125000" lon="-2.327484000">
        <ele>455.30</ele>
        <time>2013-07-27T12:05:10Z</time>
      </trkpt>
      <trkpt lat="42.381188000" lon="-2.327482000">
        <ele>455.30</ele>
        <time>2013-07-27T12:05:11Z</time>
      </trkpt>
      <trkpt lat="42.381250000" lon="-2.327479000">
        <ele>455.20</ele>
        <time>2013-07-27T12:05:12Z</time>
      </trkpt>
      <trkpt lat="42.381313000" lon="-2.327480000">
        <ele>455.20</ele>
        <time>2013-07-27T12:05:13Z</time>
      </trkpt>
      <trkpt lat="42.381377000" lon="-2.327479000">
        <ele>454.80</ele>
        <time>2013-07-27T12:05:14Z</time>
      </trkpt>
      <trkpt lat="42.381443000" lon="-2.327477000">
        <ele>454.50</ele>
        <time>2013-07-27T12:05:15Z</time>
      </trkpt>
      <trkpt lat="42.381510000" lon="-2.327474000">
        <ele>454.30</ele>
        <time>2013-07-27T12:05:16Z</time>
      </trkpt>
      <trkpt lat="42.381577000" lon="-2.327473000">
        <ele>454.10</ele>
        <time>2013-07-27T12:05:17Z</time>
      </trkpt>
      <trkpt lat="42.381644000" lon="-2.327471000">
        <ele>454.00</ele>
        <time>2013-07-27T12:05:18Z</time>
      </trkpt>
      <trkpt lat="42.381712000" lon="-2.327467000">
        <ele>453.90</ele>
        <time>2013-07-27T12:05:19Z</time>
      </trkpt>
      <trkpt lat="42.381780000" lon="-2.327462000">
        <ele>453.50</ele>
        <time>2013-07-27T12:05:20Z</time>
      </trkpt>
      <trkpt lat="42.381849000" lon="-2.327457000">
        <ele>453.30</ele>
        <time>2013-07-27T12:05:21Z</time>
      </trkpt>
      <trkpt lat="42.381918000" lon="-2.327455000">
        <ele>453.30</ele>
        <time>2013-07-27T12:05:22Z</time>
      </trkpt>
      <trkpt lat="42.381987000" lon="-2.327453000">
        <ele>453.30</ele>
        <time>2013-07-27T12:05:23Z</time>
      </trkpt>
      <trkpt lat="42.382056000" lon="-2.327456000">
        <ele>452.50</ele>
        <time>2013-07-27T12:05:24Z</time>
      </trkpt>
      <trkpt lat="42.382125000" lon="-2.327461000">
        <ele>451.90</ele>
        <time>2013-07-27T12:05:25Z</time>
      </trkpt>
      <trkpt lat="42.382195000" lon="-2.327464000">
        <ele>452.30</ele>
        <time>2013-07-27T12:05:26Z</time>
      </trkpt>
      <trkpt lat="42.382264000" lon="-2.327470000">
        <ele>452.50</ele>
        <time>2013-07-27T12:05:27Z</time>
      </trkpt>
      <trkpt lat="42.382333000" lon="-2.327479000">
        <ele>451.80</ele>
        <time>2013-07-27T12:05:28Z</time>
      </trkpt>
      <trkpt lat="42.382401000" lon="-2.327492000">
        <ele>451.20</ele>
        <time>2013-07-27T12:05:29Z</time>
      </trkpt>
      <trkpt lat="42.382470000" lon="-2.327499000">
        <ele>451.80</ele>
        <time>2013-07-27T12:05:30Z</time>
      </trkpt>
      <trkpt lat="42.382536000" lon="-2.327508000">
        <ele>452.30</ele>
        <time>2013-07-27T12:05:31Z</time>
      </trkpt>
      <trkpt lat="42.382604000" lon="-2.327516000">
        <ele>452.50</ele>
        <time>2013-07-27T12:05:32Z</time>
      </trkpt>
      <trkpt lat="42.382673000" lon="-2.327519000">
        <ele>452.50</ele>
        <time>2013-07-27T12:05:33Z</time>
      </trkpt>
      <trkpt lat="42.382739000" lon="-2.327525000">
        <ele>452.60</ele>
        <time>2013-07-27T12:05:34Z</time>
      </trkpt>
      <trkpt lat="42.382805000" lon="-2.327534000">
        <ele>452.70</ele>
        <time>2013-07-27T12:05:35Z</time>
      </trkpt>
      <trkpt lat="42.382872000" lon="-2.327536000">
        <ele>452.60</ele>
        <time>2013-07-27T12:05:36Z</time>
      </trkpt>
      <trkpt lat="42.382937000" lon="-2.327543000">
        <ele>452.50</ele>
        <time>2013-07-27T12:05:37Z</time>
      </trkpt>
      <trkpt lat="42.383002000" lon="-2.327549000">
        <ele>452.10</ele>
        <time>2013-07-27T12:05:38Z</time>
      </trkpt>
      <trkpt lat="42.383067000" lon="-2.327551000">
        <ele>451.80</ele>
        <time>2013-07-27T12:05:39Z</time>
      </trkpt>
      <trkpt lat="42.383130000" lon="-2.327554000">
        <ele>451.60</ele>
        <time>2013-07-27T12:05:40Z</time>
      </trkpt>
      <trkpt lat="42.383195000" lon="-2.327554000">
        <ele>451.40</ele>
        <time>2013-07-27T12:05:41Z</time>
      </trkpt>
      <trkpt lat="42.383257000" lon="-2.327556000">
        <ele>450.80</ele>
        <time>2013-07-27T12:05:42Z</time>
      </trkpt>
      <trkpt lat="42.383317000" lon="-2.327560000">
        <ele>450.30</ele>
        <time>2013-07-27T12:05:43Z</time>
      </trkpt>
      <trkpt lat="42.383378000" lon="-2.327563000">
        <ele>450.40</ele>
        <time>2013-07-27T12:05:44Z</time>
      </trkpt>
      <trkpt lat="42.383438000" lon="-2.327566000">
        <ele>450.50</ele>
        <time>2013-07-27T12:05:45Z</time>
      </trkpt>
      <trkpt lat="42.383500000" lon="-2.327565000">
        <ele>450.10</ele>
        <time>2013-07-27T12:05:46Z</time>
      </trkpt>
      <trkpt lat="42.383560000" lon="-2.327564000">
        <ele>449.80</ele>
        <time>2013-07-27T12:05:47Z</time>
      </trkpt>
      <trkpt lat="42.383617000" lon="-2.327564000">
        <ele>449.90</ele>
        <time>2013-07-27T12:05:48Z</time>
      </trkpt>
      <trkpt lat="42.383674000" lon="-2.327567000">
        <ele>450.10</ele>
        <time>2013-07-27T12:05:49Z</time>
      </trkpt>
      <trkpt lat="42.383730000" lon="-2.327570000">
        <ele>450.20</ele>
        <time>2013-07-27T12:05:50Z</time>
      </trkpt>
      <trkpt lat="42.383786000" lon="-2.327564000">
        <ele>450.20</ele>
        <time>2013-07-27T12:05:51Z</time>
      </trkpt>
      <trkpt lat="42.383842000" lon="-2.327551000">
        <ele>450.30</ele>
        <time>2013-07-27T12:05:52Z</time>
      </trkpt>
      <trkpt lat="42.383900000" lon="-2.327539000">
        <ele>450.30</ele>
        <time>2013-07-27T12:05:53Z</time>
      </trkpt>
      <trkpt lat="42.383961000" lon="-2.327521000">
        <ele>450.00</ele>
        <time>2013-07-27T12:05:54Z</time>
      </trkpt>
      <trkpt lat="42.384023000" lon="-2.327501000">
        <ele>449.80</ele>
        <time>2013-07-27T12:05:55Z</time>
      </trkpt>
      <trkpt lat="42.384084000" lon="-2.327481000">
        <ele>449.60</ele>
        <time>2013-07-27T12:05:56Z</time>
      </trkpt>
      <trkpt lat="42.384146000" lon="-2.327462000">
        <ele>449.50</ele>
        <time>2013-07-27T12:05:57Z</time>
      </trkpt>
      <trkpt lat="42.384207000" lon="-2.327442000">
        <ele>449.70</ele>
        <time>2013-07-27T12:05:58Z</time>
      </trkpt>
      <trkpt lat="42.384269000" lon="-2.327421000">
        <ele>449.90</ele>
        <time>2013-07-27T12:05:59Z</time>
      </trkpt>
      <trkpt lat="42.384332000" lon="-2.327399000">
        <ele>450.00</ele>
        <time>2013-07-27T12:06:00Z</time>
      </trkpt>
      <trkpt lat="42.384392000" lon="-2.327377000">
        <ele>450.10</ele>
        <time>2013-07-27T12:06:01Z</time>
      </trkpt>
      <trkpt lat="42.384456000" lon="-2.327356000">
        <ele>450.20</ele>
        <time>2013-07-27T12:06:02Z</time>
      </trkpt>
      <trkpt lat="42.384517000" lon="-2.327335000">
        <ele>450.20</ele>
        <time>2013-07-27T12:06:03Z</time>
      </trkpt>
      <trkpt lat="42.384578000" lon="-2.327313000">
        <ele>449.80</ele>
        <time>2013-07-27T12:06:04Z</time>
      </trkpt>
      <trkpt lat="42.384641000" lon="-2.327292000">
        <ele>449.50</ele>
        <time>2013-07-27T12:06:05Z</time>
      </trkpt>
      <trkpt lat="42.384701000" lon="-2.327271000">
        <ele>449.70</ele>
        <time>2013-07-27T12:06:06Z</time>
      </trkpt>
      <trkpt lat="42.384763000" lon="-2.327247000">
        <ele>449.90</ele>
        <time>2013-07-27T12:06:07Z</time>
      </trkpt>
      <trkpt lat="42.384825000" lon="-2.327225000">
        <ele>449.60</ele>
        <time>2013-07-27T12:06:08Z</time>
      </trkpt>
      <trkpt lat="42.384888000" lon="-2.327203000">
        <ele>449.30</ele>
        <time>2013-07-27T12:06:09Z</time>
      </trkpt>
      <trkpt lat="42.384948000" lon="-2.327184000">
        <ele>449.10</ele>
        <time>2013-07-27T12:06:10Z</time>
      </trkpt>
      <trkpt lat="42.385009000" lon="-2.327160000">
        <ele>449.00</ele>
        <time>2013-07-27T12:06:11Z</time>
      </trkpt>
      <trkpt lat="42.385068000" lon="-2.327138000">
        <ele>448.80</ele>
        <time>2013-07-27T12:06:12Z</time>
      </trkpt>
      <trkpt lat="42.385125000" lon="-2.327114000">
        <ele>448.70</ele>
        <time>2013-07-27T12:06:13Z</time>
      </trkpt>
      <trkpt lat="42.385182000" lon="-2.327089000">
        <ele>448.60</ele>
        <time>2013-07-27T12:06:14Z</time>
      </trkpt>
      <trkpt lat="42.385236000" lon="-2.327063000">
        <ele>448.50</ele>
        <time>2013-07-27T12:06:15Z</time>
      </trkpt>
      <trkpt lat="42.385291000" lon="-2.327037000">
        <ele>448.40</ele>
        <time>2013-07-27T12:06:16Z</time>
      </trkpt>
      <trkpt lat="42.385348000" lon="-2.327013000">
        <ele>448.40</ele>
        <time>2013-07-27T12:06:17Z</time>
      </trkpt>
      <trkpt lat="42.385405000" lon="-2.326992000">
        <ele>448.40</ele>
        <time>2013-07-27T12:06:18Z</time>
      </trkpt>
      <trkpt lat="42.385461000" lon="-2.326971000">
        <ele>448.30</ele>
        <time>2013-07-27T12:06:19Z</time>
      </trkpt>
      <trkpt lat="42.385520000" lon="-2.326953000">
        <ele>448.20</ele>
        <time>2013-07-27T12:06:20Z</time>
      </trkpt>
      <trkpt lat="42.385581000" lon="-2.326938000">
        <ele>448.10</ele>
        <time>2013-07-27T12:06:21Z</time>
      </trkpt>
      <trkpt lat="42.385637000" lon="-2.326918000">
        <ele>448.20</ele>
        <time>2013-07-27T12:06:22Z</time>
      </trkpt>
      <trkpt lat="42.385694000" lon="-2.326899000">
        <ele>448.30</ele>
        <time>2013-07-27T12:06:23Z</time>
      </trkpt>
      <trkpt lat="42.385751000" lon="-2.326884000">
        <ele>448.40</ele>
        <time>2013-07-27T12:06:24Z</time>
      </trkpt>
      <trkpt lat="42.385806000" lon="-2.326868000">
        <ele>448.50</ele>
        <time>2013-07-27T12:06:25Z</time>
      </trkpt>
      <trkpt lat="42.385861000" lon="-2.326851000">
        <ele>448.60</ele>
        <time>2013-07-27T12:06:26Z</time>
      </trkpt>
      <trkpt lat="42.385915000" lon="-2.326835000">
        <ele>448.60</ele>
        <time>2013-07-27T12:06:27Z</time>
      </trkpt>
      <trkpt lat="42.385968000" lon="-2.326818000">
        <ele>448.30</ele>
        <time>2013-07-27T12:06:28Z</time>
      </trkpt>
      <trkpt lat="42.386021000" lon="-2.326800000">
        <ele>448.00</ele>
        <time>2013-07-27T12:06:29Z</time>
      </trkpt>
      <trkpt lat="42.386073000" lon="-2.326785000">
        <ele>447.70</ele>
        <time>2013-07-27T12:06:30Z</time>
      </trkpt>
      <trkpt lat="42.386124000" lon="-2.326769000">
        <ele>447.40</ele>
        <time>2013-07-27T12:06:31Z</time>
      </trkpt>
      <trkpt lat="42.386174000" lon="-2.326754000">
        <ele>447.40</ele>
        <time>2013-07-27T12:06:32Z</time>
      </trkpt>
      <trkpt lat="42.386226000" lon="-2.326736000">
        <ele>447.30</ele>
        <time>2013-07-27T12:06:33Z</time>
      </trkpt>
      <trkpt lat="42.386277000" lon="-2.326721000">
        <ele>447.30</ele>
        <time>2013-07-27T12:06:34Z</time>
      </trkpt>
      <trkpt lat="42.386331000" lon="-2.326707000">
        <ele>447.30</ele>
        <time>2013-07-27T12:06:35Z</time>
      </trkpt>
      <trkpt lat="42.386384000" lon="-2.326691000">
        <ele>447.30</ele>
        <time>2013-07-27T12:06:36Z</time>
      </trkpt>
      <trkpt lat="42.386437000" lon="-2.326674000">
        <ele>447.20</ele>
        <time>2013-07-27T12:06:37Z</time>
      </trkpt>
      <trkpt lat="42.386488000" lon="-2.326658000">
        <ele>447.20</ele>
        <time>2013-07-27T12:06:38Z</time>
      </trkpt>
      <trkpt lat="42.386542000" lon="-2.326641000">
        <ele>447.20</ele>
        <time>2013-07-27T12:06:39Z</time>
      </trkpt>
      <trkpt lat="42.386601000" lon="-2.326624000">
        <ele>447.20</ele>
        <time>2013-07-27T12:06:40Z</time>
      </trkpt>
      <trkpt lat="42.386660000" lon="-2.326603000">
        <ele>447.10</ele>
        <time>2013-07-27T12:06:41Z</time>
      </trkpt>
      <trkpt lat="42.386720000" lon="-2.326581000">
        <ele>447.20</ele>
        <time>2013-07-27T12:06:42Z</time>
      </trkpt>
      <trkpt lat="42.386780000" lon="-2.326561000">
        <ele>447.30</ele>
        <time>2013-07-27T12:06:43Z</time>
      </trkpt>
      <trkpt lat="42.386840000" lon="-2.326536000">
        <ele>447.40</ele>
        <time>2013-07-27T12:06:44Z</time>
      </trkpt>
      <trkpt lat="42.386900000" lon="-2.326512000">
        <ele>447.50</ele>
        <time>2013-07-27T12:06:45Z</time>
      </trkpt>
      <trkpt lat="42.386961000" lon="-2.326490000">
        <ele>447.70</ele>
        <time>2013-07-27T12:06:46Z</time>
      </trkpt>
      <trkpt lat="42.387023000" lon="-2.326468000">
        <ele>447.80</ele>
        <time>2013-07-27T12:06:47Z</time>
      </trkpt>
      <trkpt lat="42.387084000" lon="-2.326448000">
        <ele>447.80</ele>
        <time>2013-07-27T12:06:48Z</time>
      </trkpt>
      <trkpt lat="42.387143000" lon="-2.326427000">
        <ele>447.80</ele>
        <time>2013-07-27T12:06:49Z</time>
      </trkpt>
      <trkpt lat="42.387204000" lon="-2.326405000">
        <ele>447.70</ele>
        <time>2013-07-27T12:06:50Z</time>
      </trkpt>
      <trkpt lat="42.387264000" lon="-2.326382000">
        <ele>447.70</ele>
        <time>2013-07-27T12:06:51Z</time>
      </trkpt>
      <trkpt lat="42.387322000" lon="-2.326352000">
        <ele>447.40</ele>
        <time>2013-07-27T12:06:52Z</time>
      </trkpt>
      <trkpt lat="42.387377000" lon="-2.326321000">
        <ele>447.10</ele>
        <time>2013-07-27T12:06:53Z</time>
      </trkpt>
      <trkpt lat="42.387433000" lon="-2.326293000">
        <ele>446.90</ele>
        <time>2013-07-27T12:06:54Z</time>
      </trkpt>
      <trkpt lat="42.387493000" lon="-2.326267000">
        <ele>446.70</ele>
        <time>2013-07-27T12:06:55Z</time>
      </trkpt>
      <trkpt lat="42.387552000" lon="-2.326245000">
        <ele>446.60</ele>
        <time>2013-07-27T12:06:56Z</time>
      </trkpt>
      <trkpt lat="42.387612000" lon="-2.326223000">
        <ele>446.50</ele>
        <time>2013-07-27T12:06:57Z</time>
      </trkpt>
      <trkpt lat="42.387672000" lon="-2.326200000">
        <ele>446.70</ele>
        <time>2013-07-27T12:06:58Z</time>
      </trkpt>
      <trkpt lat="42.387732000" lon="-2.326179000">
        <ele>446.80</ele>
        <time>2013-07-27T12:06:59Z</time>
      </trkpt>
      <trkpt lat="42.387793000" lon="-2.326157000">
        <ele>446.90</ele>
        <time>2013-07-27T12:07:00Z</time>
      </trkpt>
      <trkpt lat="42.387850000" lon="-2.326130000">
        <ele>447.00</ele>
        <time>2013-07-27T12:07:01Z</time>
      </trkpt>
      <trkpt lat="42.387908000" lon="-2.326101000">
        <ele>447.10</ele>
        <time>2013-07-27T12:07:02Z</time>
      </trkpt>
      <trkpt lat="42.387965000" lon="-2.326073000">
        <ele>447.10</ele>
        <time>2013-07-27T12:07:03Z</time>
      </trkpt>
      <trkpt lat="42.388022000" lon="-2.326052000">
        <ele>447.10</ele>
        <time>2013-07-27T12:07:04Z</time>
      </trkpt>
      <trkpt lat="42.388079000" lon="-2.326029000">
        <ele>447.10</ele>
        <time>2013-07-27T12:07:05Z</time>
      </trkpt>
      <trkpt lat="42.388137000" lon="-2.326007000">
        <ele>447.10</ele>
        <time>2013-07-27T12:07:06Z</time>
      </trkpt>
      <trkpt lat="42.388196000" lon="-2.325984000">
        <ele>447.10</ele>
        <time>2013-07-27T12:07:07Z</time>
      </trkpt>
      <trkpt lat="42.388257000" lon="-2.325962000">
        <ele>447.10</ele>
        <time>2013-07-27T12:07:08Z</time>
      </trkpt>
      <trkpt lat="42.388317000" lon="-2.325943000">
        <ele>447.10</ele>
        <time>2013-07-27T12:07:09Z</time>
      </trkpt>
      <trkpt lat="42.388375000" lon="-2.325922000">
        <ele>446.70</ele>
        <time>2013-07-27T12:07:10Z</time>
      </trkpt>
      <trkpt lat="42.388436000" lon="-2.325902000">
        <ele>446.50</ele>
        <time>2013-07-27T12:07:11Z</time>
      </trkpt>
      <trkpt lat="42.388496000" lon="-2.325886000">
        <ele>446.20</ele>
        <time>2013-07-27T12:07:12Z</time>
      </trkpt>
      <trkpt lat="42.388559000" lon="-2.325868000">
        <ele>446.00</ele>
        <time>2013-07-27T12:07:13Z</time>
      </trkpt>
      <trkpt lat="42.388617000" lon="-2.325855000">
        <ele>445.90</ele>
        <time>2013-07-27T12:07:14Z</time>
      </trkpt>
      <trkpt lat="42.388675000" lon="-2.325836000">
        <ele>445.80</ele>
        <time>2013-07-27T12:07:15Z</time>
      </trkpt>
      <trkpt lat="42.388731000" lon="-2.325804000">
        <ele>445.70</ele>
        <time>2013-07-27T12:07:16Z</time>
      </trkpt>
      <trkpt lat="42.388791000" lon="-2.325775000">
        <ele>445.60</ele>
        <time>2013-07-27T12:07:17Z</time>
      </trkpt>
      <trkpt lat="42.388854000" lon="-2.325752000">
        <ele>445.70</ele>
        <time>2013-07-27T12:07:18Z</time>
      </trkpt>
      <trkpt lat="42.388920000" lon="-2.325732000">
        <ele>445.80</ele>
        <time>2013-07-27T12:07:19Z</time>
      </trkpt>
      <trkpt lat="42.388987000" lon="-2.325710000">
        <ele>445.60</ele>
        <time>2013-07-27T12:07:20Z</time>
      </trkpt>
      <trkpt lat="42.389054000" lon="-2.325693000">
        <ele>445.50</ele>
        <time>2013-07-27T12:07:21Z</time>
      </trkpt>
      <trkpt lat="42.389122000" lon="-2.325670000">
        <ele>445.60</ele>
        <time>2013-07-27T12:07:22Z</time>
      </trkpt>
      <trkpt lat="42.389188000" lon="-2.325646000">
        <ele>445.70</ele>
        <time>2013-07-27T12:07:23Z</time>
      </trkpt>
      <trkpt lat="42.389257000" lon="-2.325622000">
        <ele>445.20</ele>
        <time>2013-07-27T12:07:24Z</time>
      </trkpt>
      <trkpt lat="42.389323000" lon="-2.325601000">
        <ele>444.80</ele>
        <time>2013-07-27T12:07:25Z</time>
      </trkpt>
      <trkpt lat="42.389390000" lon="-2.325579000">
        <ele>444.20</ele>
        <time>2013-07-27T12:07:26Z</time>
      </trkpt>
      <trkpt lat="42.389455000" lon="-2.325553000">
        <ele>443.70</ele>
        <time>2013-07-27T12:07:27Z</time>
      </trkpt>
      <trkpt lat="42.389520000" lon="-2.325531000">
        <ele>443.40</ele>
        <time>2013-07-27T12:07:28Z</time>
      </trkpt>
      <trkpt lat="42.389584000" lon="-2.325507000">
        <ele>443.10</ele>
        <time>2013-07-27T12:07:29Z</time>
      </trkpt>
      <trkpt lat="42.389650000" lon="-2.325483000">
        <ele>442.70</ele>
        <time>2013-07-27T12:07:30Z</time>
      </trkpt>
      <trkpt lat="42.389717000" lon="-2.325462000">
        <ele>442.40</ele>
        <time>2013-07-27T12:07:31Z</time>
      </trkpt>
      <trkpt lat="42.389783000" lon="-2.325438000">
        <ele>442.70</ele>
        <time>2013-07-27T12:07:32Z</time>
      </trkpt>
      <trkpt lat="42.389849000" lon="-2.325417000">
        <ele>442.90</ele>
        <time>2013-07-27T12:07:33Z</time>
      </trkpt>
      <trkpt lat="42.389914000" lon="-2.325394000">
        <ele>443.10</ele>
        <time>2013-07-27T12:07:34Z</time>
      </trkpt>
      <trkpt lat="42.389978000" lon="-2.325371000">
        <ele>443.20</ele>
        <time>2013-07-27T12:07:35Z</time>
      </trkpt>
      <trkpt lat="42.390046000" lon="-2.325346000">
        <ele>443.30</ele>
        <time>2013-07-27T12:07:36Z</time>
      </trkpt>
      <trkpt lat="42.390113000" lon="-2.325319000">
        <ele>443.40</ele>
        <time>2013-07-27T12:07:37Z</time>
      </trkpt>
      <trkpt lat="42.390179000" lon="-2.325289000">
        <ele>443.20</ele>
        <time>2013-07-27T12:07:38Z</time>
      </trkpt>
      <trkpt lat="42.390245000" lon="-2.325263000">
        <ele>443.10</ele>
        <time>2013-07-27T12:07:39Z</time>
      </trkpt>
      <trkpt lat="42.390314000" lon="-2.325238000">
        <ele>443.00</ele>
        <time>2013-07-27T12:07:40Z</time>
      </trkpt>
      <trkpt lat="42.390382000" lon="-2.325210000">
        <ele>442.90</ele>
        <time>2013-07-27T12:07:41Z</time>
      </trkpt>
      <trkpt lat="42.390450000" lon="-2.325184000">
        <ele>442.80</ele>
        <time>2013-07-27T12:07:42Z</time>
      </trkpt>
      <trkpt lat="42.390515000" lon="-2.325159000">
        <ele>442.90</ele>
        <time>2013-07-27T12:07:43Z</time>
      </trkpt>
      <trkpt lat="42.390583000" lon="-2.325134000">
        <ele>443.00</ele>
        <time>2013-07-27T12:07:44Z</time>
      </trkpt>
      <trkpt lat="42.390649000" lon="-2.325113000">
        <ele>443.00</ele>
        <time>2013-07-27T12:07:45Z</time>
      </trkpt>
      <trkpt lat="42.390717000" lon="-2.325092000">
        <ele>443.00</ele>
        <time>2013-07-27T12:07:46Z</time>
      </trkpt>
      <trkpt lat="42.390785000" lon="-2.325071000">
        <ele>443.10</ele>
        <time>2013-07-27T12:07:47Z</time>
      </trkpt>
      <trkpt lat="42.390852000" lon="-2.325050000">
        <ele>443.20</ele>
        <time>2013-07-27T12:07:48Z</time>
      </trkpt>
      <trkpt lat="42.390918000" lon="-2.325027000">
        <ele>443.10</ele>
        <time>2013-07-27T12:07:49Z</time>
      </trkpt>
      <trkpt lat="42.390982000" lon="-2.325006000">
        <ele>443.10</ele>
        <time>2013-07-27T12:07:50Z</time>
      </trkpt>
      <trkpt lat="42.391043000" lon="-2.324978000">
        <ele>443.00</ele>
        <time>2013-07-27T12:07:51Z</time>
      </trkpt>
      <trkpt lat="42.391102000" lon="-2.324950000">
        <ele>442.90</ele>
        <time>2013-07-27T12:07:52Z</time>
      </trkpt>
      <trkpt lat="42.391163000" lon="-2.324926000">
        <ele>442.80</ele>
        <time>2013-07-27T12:07:53Z</time>
      </trkpt>
      <trkpt lat="42.391221000" lon="-2.324904000">
        <ele>442.80</ele>
        <time>2013-07-27T12:07:54Z</time>
      </trkpt>
      <trkpt lat="42.391276000" lon="-2.324886000">
        <ele>442.40</ele>
        <time>2013-07-27T12:07:55Z</time>
      </trkpt>
      <trkpt lat="42.391335000" lon="-2.324873000">
        <ele>442.20</ele>
        <time>2013-07-27T12:07:56Z</time>
      </trkpt>
      <trkpt lat="42.391388000" lon="-2.324852000">
        <ele>442.00</ele>
        <time>2013-07-27T12:07:57Z</time>
      </trkpt>
      <trkpt lat="42.391441000" lon="-2.324836000">
        <ele>441.80</ele>
        <time>2013-07-27T12:07:58Z</time>
      </trkpt>
      <trkpt lat="42.391497000" lon="-2.324821000">
        <ele>441.70</ele>
        <time>2013-07-27T12:07:59Z</time>
      </trkpt>
      <trkpt lat="42.391554000" lon="-2.324808000">
        <ele>441.60</ele>
        <time>2013-07-27T12:08:00Z</time>
      </trkpt>
      <trkpt lat="42.391612000" lon="-2.324793000">
        <ele>441.40</ele>
        <time>2013-07-27T12:08:01Z</time>
      </trkpt>
      <trkpt lat="42.391671000" lon="-2.324777000">
        <ele>441.30</ele>
        <time>2013-07-27T12:08:02Z</time>
      </trkpt>
      <trkpt lat="42.391730000" lon="-2.324758000">
        <ele>441.40</ele>
        <time>2013-07-27T12:08:03Z</time>
      </trkpt>
      <trkpt lat="42.391788000" lon="-2.324739000">
        <ele>441.40</ele>
        <time>2013-07-27T12:08:04Z</time>
      </trkpt>
      <trkpt lat="42.391845000" lon="-2.324719000">
        <ele>440.80</ele>
        <time>2013-07-27T12:08:05Z</time>
      </trkpt>
      <trkpt lat="42.391900000" lon="-2.324703000">
        <ele>440.30</ele>
        <time>2013-07-27T12:08:06Z</time>
      </trkpt>
      <trkpt lat="42.391957000" lon="-2.324687000">
        <ele>440.60</ele>
        <time>2013-07-27T12:08:07Z</time>
      </trkpt>
      <trkpt lat="42.392015000" lon="-2.324670000">
        <ele>440.90</ele>
        <time>2013-07-27T12:08:08Z</time>
      </trkpt>
      <trkpt lat="42.392072000" lon="-2.324651000">
        <ele>441.00</ele>
        <time>2013-07-27T12:08:09Z</time>
      </trkpt>
      <trkpt lat="42.392129000" lon="-2.324636000">
        <ele>441.10</ele>
        <time>2013-07-27T12:08:10Z</time>
      </trkpt>
      <trkpt lat="42.392182000" lon="-2.324622000">
        <ele>441.20</ele>
        <time>2013-07-27T12:08:11Z</time>
      </trkpt>
      <trkpt lat="42.392234000" lon="-2.324605000">
        <ele>441.20</ele>
        <time>2013-07-27T12:08:12Z</time>
      </trkpt>
      <trkpt lat="42.392287000" lon="-2.324587000">
        <ele>441.00</ele>
        <time>2013-07-27T12:08:13Z</time>
      </trkpt>
      <trkpt lat="42.392343000" lon="-2.324569000">
        <ele>440.90</ele>
        <time>2013-07-27T12:08:14Z</time>
      </trkpt>
      <trkpt lat="42.392400000" lon="-2.324551000">
        <ele>440.80</ele>
        <time>2013-07-27T12:08:15Z</time>
      </trkpt>
      <trkpt lat="42.392454000" lon="-2.324536000">
        <ele>440.80</ele>
        <time>2013-07-27T12:08:16Z</time>
      </trkpt>
      <trkpt lat="42.392511000" lon="-2.324529000">
        <ele>440.80</ele>
        <time>2013-07-27T12:08:17Z</time>
      </trkpt>
      <trkpt lat="42.392569000" lon="-2.324527000">
        <ele>440.80</ele>
        <time>2013-07-27T12:08:18Z</time>
      </trkpt>
      <trkpt lat="42.392625000" lon="-2.324531000">
        <ele>440.90</ele>
        <time>2013-07-27T12:08:19Z</time>
      </trkpt>
      <trkpt lat="42.392683000" lon="-2.324527000">
        <ele>440.90</ele>
        <time>2013-07-27T12:08:20Z</time>
      </trkpt>
      <trkpt lat="42.392740000" lon="-2.324513000">
        <ele>441.00</ele>
        <time>2013-07-27T12:08:21Z</time>
      </trkpt>
      <trkpt lat="42.392797000" lon="-2.324495000">
        <ele>441.00</ele>
        <time>2013-07-27T12:08:22Z</time>
      </trkpt>
      <trkpt lat="42.392855000" lon="-2.324473000">
        <ele>440.70</ele>
        <time>2013-07-27T12:08:23Z</time>
      </trkpt>
      <trkpt lat="42.392914000" lon="-2.324449000">
        <ele>440.40</ele>
        <time>2013-07-27T12:08:24Z</time>
      </trkpt>
      <trkpt lat="42.392973000" lon="-2.324429000">
        <ele>440.00</ele>
        <time>2013-07-27T12:08:25Z</time>
      </trkpt>
      <trkpt lat="42.393028000" lon="-2.324411000">
        <ele>439.60</ele>
        <time>2013-07-27T12:08:26Z</time>
      </trkpt>
      <trkpt lat="42.393083000" lon="-2.324396000">
        <ele>439.40</ele>
        <time>2013-07-27T12:08:27Z</time>
      </trkpt>
      <trkpt lat="42.393137000" lon="-2.324386000">
        <ele>439.20</ele>
        <time>2013-07-27T12:08:28Z</time>
      </trkpt>
      <trkpt lat="42.393193000" lon="-2.324382000">
        <ele>438.50</ele>
        <time>2013-07-27T12:08:29Z</time>
      </trkpt>
      <trkpt lat="42.393248000" lon="-2.324376000">
        <ele>438.00</ele>
        <time>2013-07-27T12:08:30Z</time>
      </trkpt>
      <trkpt lat="42.393300000" lon="-2.324361000">
        <ele>438.30</ele>
        <time>2013-07-27T12:08:31Z</time>
      </trkpt>
      <trkpt lat="42.393354000" lon="-2.324340000">
        <ele>438.50</ele>
        <time>2013-07-27T12:08:32Z</time>
      </trkpt>
      <trkpt lat="42.393412000" lon="-2.324311000">
        <ele>438.80</ele>
        <time>2013-07-27T12:08:33Z</time>
      </trkpt>
      <trkpt lat="42.393473000" lon="-2.324280000">
        <ele>439.00</ele>
        <time>2013-07-27T12:08:34Z</time>
      </trkpt>
      <trkpt lat="42.393535000" lon="-2.324246000">
        <ele>439.20</ele>
        <time>2013-07-27T12:08:35Z</time>
      </trkpt>
      <trkpt lat="42.393600000" lon="-2.324211000">
        <ele>439.30</ele>
        <time>2013-07-27T12:08:36Z</time>
      </trkpt>
      <trkpt lat="42.393664000" lon="-2.324176000">
        <ele>438.40</ele>
        <time>2013-07-27T12:08:37Z</time>
      </trkpt>
      <trkpt lat="42.393730000" lon="-2.324140000">
        <ele>437.70</ele>
        <time>2013-07-27T12:08:38Z</time>
      </trkpt>
      <trkpt lat="42.393795000" lon="-2.324107000">
        <ele>437.20</ele>
        <time>2013-07-27T12:08:39Z</time>
      </trkpt>
      <trkpt lat="42.393862000" lon="-2.324079000">
        <ele>436.80</ele>
        <time>2013-07-27T12:08:40Z</time>
      </trkpt>
      <trkpt lat="42.393928000" lon="-2.324051000">
        <ele>436.20</ele>
        <time>2013-07-27T12:08:41Z</time>
      </trkpt>
      <trkpt lat="42.393993000" lon="-2.324019000">
        <ele>435.80</ele>
        <time>2013-07-27T12:08:42Z</time>
      </trkpt>
      <trkpt lat="42.394058000" lon="-2.323982000">
        <ele>435.10</ele>
        <time>2013-07-27T12:08:43Z</time>
      </trkpt>
      <trkpt lat="42.394128000" lon="-2.323958000">
        <ele>434.70</ele>
        <time>2013-07-27T12:08:44Z</time>
      </trkpt>
      <trkpt lat="42.394203000" lon="-2.323944000">
        <ele>434.20</ele>
        <time>2013-07-27T12:08:45Z</time>
      </trkpt>
      <trkpt lat="42.394280000" lon="-2.323927000">
        <ele>433.90</ele>
        <time>2013-07-27T12:08:46Z</time>
      </trkpt>
      <trkpt lat="42.394356000" lon="-2.323910000">
        <ele>433.60</ele>
        <time>2013-07-27T12:08:47Z</time>
      </trkpt>
      <trkpt lat="42.394437000" lon="-2.323892000">
        <ele>433.40</ele>
        <time>2013-07-27T12:08:48Z</time>
      </trkpt>
      <trkpt lat="42.394522000" lon="-2.323874000">
        <ele>433.10</ele>
        <time>2013-07-27T12:08:49Z</time>
      </trkpt>
      <trkpt lat="42.394604000" lon="-2.323855000">
        <ele>432.90</ele>
        <time>2013-07-27T12:08:50Z</time>
      </trkpt>
      <trkpt lat="42.394682000" lon="-2.323845000">
        <ele>432.60</ele>
        <time>2013-07-27T12:08:51Z</time>
      </trkpt>
      <trkpt lat="42.394757000" lon="-2.323840000">
        <ele>432.50</ele>
        <time>2013-07-27T12:08:52Z</time>
      </trkpt>
      <trkpt lat="42.394826000" lon="-2.323839000">
        <ele>431.90</ele>
        <time>2013-07-27T12:08:53Z</time>
      </trkpt>
      <trkpt lat="42.394889000" lon="-2.323840000">
        <ele>431.50</ele>
        <time>2013-07-27T12:08:54Z</time>
      </trkpt>
      <trkpt lat="42.394951000" lon="-2.323847000">
        <ele>431.20</ele>
        <time>2013-07-27T12:08:55Z</time>
      </trkpt>
      <trkpt lat="42.395011000" lon="-2.323858000">
        <ele>430.90</ele>
        <time>2013-07-27T12:08:56Z</time>
      </trkpt>
      <trkpt lat="42.395066000" lon="-2.323864000">
        <ele>430.70</ele>
        <time>2013-07-27T12:08:57Z</time>
      </trkpt>
      <trkpt lat="42.395114000" lon="-2.323870000">
        <ele>430.60</ele>
        <time>2013-07-27T12:08:58Z</time>
      </trkpt>
      <trkpt lat="42.395159000" lon="-2.323873000">
        <ele>430.30</ele>
        <time>2013-07-27T12:08:59Z</time>
      </trkpt>
      <trkpt lat="42.395199000" lon="-2.323872000">
        <ele>430.00</ele>
        <time>2013-07-27T12:09:00Z</time>
      </trkpt>
      <trkpt lat="42.395237000" lon="-2.323866000">
        <ele>429.50</ele>
        <time>2013-07-27T12:09:01Z</time>
      </trkpt>
      <trkpt lat="42.395271000" lon="-2.323863000">
        <ele>429.00</ele>
        <time>2013-07-27T12:09:02Z</time>
      </trkpt>
      <trkpt lat="42.395293000" lon="-2.323864000">
        <ele>428.60</ele>
        <time>2013-07-27T12:09:03Z</time>
      </trkpt>
      <trkpt lat="42.395301000" lon="-2.323869000">
        <ele>428.20</ele>
        <time>2013-07-27T12:09:04Z</time>
      </trkpt>
      <trkpt lat="42.395303000" lon="-2.323869000">
        <ele>427.70</ele>
        <time>2013-07-27T12:09:05Z</time>
      </trkpt>
      <trkpt lat="42.395307000" lon="-2.323872000">
        <ele>427.30</ele>
        <time>2013-07-27T12:09:06Z</time>
      </trkpt>
      <trkpt lat="42.395309000" lon="-2.323873000">
        <ele>427.00</ele>
        <time>2013-07-27T12:09:07Z</time>
      </trkpt>
      <trkpt lat="42.395309000" lon="-2.323872000">
        <ele>426.70</ele>
        <time>2013-07-27T12:09:08Z</time>
      </trkpt>
      <trkpt lat="42.395309000" lon="-2.323874000">
        <ele>426.50</ele>
        <time>2013-07-27T12:09:09Z</time>
      </trkpt>
      <trkpt lat="42.395312000" lon="-2.323873000">
        <ele>426.40</ele>
        <time>2013-07-27T12:09:10Z</time>
      </trkpt>
      <trkpt lat="42.395315000" lon="-2.323871000">
        <ele>426.20</ele>
        <time>2013-07-27T12:09:11Z</time>
      </trkpt>
      <trkpt lat="42.395318000" lon="-2.323870000">
        <ele>426.20</ele>
        <time>2013-07-27T12:09:12Z</time>
      </trkpt>
      <trkpt lat="42.395319000" lon="-2.323869000">
        <ele>426.10</ele>
        <time>2013-07-27T12:09:13Z</time>
      </trkpt>
      <trkpt lat="42.395320000" lon="-2.323869000">
        <ele>426.10</ele>
        <time>2013-07-27T12:09:14Z</time>
      </trkpt>
      <trkpt lat="42.395321000" lon="-2.323869000">
        <ele>426.00</ele>
        <time>2013-07-27T12:09:15Z</time>
      </trkpt>
      <trkpt lat="42.395322000" lon="-2.323870000">
        <ele>426.00</ele>
        <time>2013-07-27T12:09:16Z</time>
      </trkpt>
      <trkpt lat="42.395322000" lon="-2.323871000">
        <ele>426.00</ele>
        <time>2013-07-27T12:09:17Z</time>
      </trkpt>
      <trkpt lat="42.395323000" lon="-2.323873000">
        <ele>426.00</ele>
        <time>2013-07-27T12:09:18Z</time>
      </trkpt>
      <trkpt lat="42.395324000" lon="-2.323873000">
        <ele>426.00</ele>
        <time>2013-07-27T12:09:19Z</time>
      </trkpt>
      <trkpt lat="42.395325000" lon="-2.323873000">
        <ele>425.90</ele>
        <time>2013-07-27T12:09:20Z</time>
      </trkpt>
      <trkpt lat="42.395325000" lon="-2.323872000">
        <ele>425.80</ele>
        <time>2013-07-27T12:09:21Z</time>
      </trkpt>
      <trkpt lat="42.395325000" lon="-2.323871000">
        <ele>425.70</ele>
        <time>2013-07-27T12:09:22Z</time>
      </trkpt>
      <trkpt lat="42.395324000" lon="-2.323870000">
        <ele>425.60</ele>
        <time>2013-07-27T12:09:23Z</time>
      </trkpt>
      <trkpt lat="42.395325000" lon="-2.323871000">
        <ele>425.60</ele>
        <time>2013-07-27T12:09:24Z</time>
      </trkpt>
      <trkpt lat="42.395325000" lon="-2.323870000">
        <ele>425.60</ele>
        <time>2013-07-27T12:09:25Z</time>
      </trkpt>
      <trkpt lat="42.395325000" lon="-2.323870000">
        <ele>425.50</ele>
        <time>2013-07-27T12:09:26Z</time>
      </trkpt>
      <trkpt lat="42.395325000" lon="-2.323869000">
        <ele>425.40</ele>
        <time>2013-07-27T12:09:27Z</time>
      </trkpt>
      <trkpt lat="42.395325000" lon="-2.323868000">
        <ele>425.40</ele>
        <time>2013-07-27T12:09:28Z</time>
      </trkpt>
      <trkpt lat="42.395325000" lon="-2.323867000">
        <ele>425.30</ele>
        <time>2013-07-27T12:09:29Z</time>
      </trkpt>
      <trkpt lat="42.395325000" lon="-2.323866000">
        <ele>425.30</ele>
        <time>2013-07-27T12:09:30Z</time>
      </trkpt>
      <trkpt lat="42.395325000" lon="-2.323865000">
        <ele>425.20</ele>
        <time>2013-07-27T12:09:31Z</time>
      </trkpt>
      <trkpt lat="42.395324000" lon="-2.323866000">
        <ele>425.40</ele>
        <time>2013-07-27T12:09:32Z</time>
      </trkpt>
      <trkpt lat="42.395323000" lon="-2.323866000">
        <ele>425.50</ele>
        <time>2013-07-27T12:09:33Z</time>
      </trkpt>
      <trkpt lat="42.395323000" lon="-2.323866000">
        <ele>425.60</ele>
        <time>2013-07-27T12:09:34Z</time>
      </trkpt>
      <trkpt lat="42.395323000" lon="-2.323867000">
        <ele>425.70</ele>
        <time>2013-07-27T12:09:35Z</time>
      </trkpt>
      <trkpt lat="42.395322000" lon="-2.323868000">
        <ele>425.70</ele>
        <time>2013-07-27T12:09:36Z</time>
      </trkpt>
      <trkpt lat="42.395322000" lon="-2.323869000">
        <ele>425.70</ele>
        <time>2013-07-27T12:09:37Z</time>
      </trkpt>
      <trkpt lat="42.395322000" lon="-2.323870000">
        <ele>425.90</ele>
        <time>2013-07-27T12:09:38Z</time>
      </trkpt>
      <trkpt lat="42.395322000" lon="-2.323870000">
        <ele>426.00</ele>
        <time>2013-07-27T12:09:39Z</time>
      </trkpt>
      <trkpt lat="42.395322000" lon="-2.323870000">
        <ele>425.80</ele>
        <time>2013-07-27T12:09:40Z</time>
      </trkpt>
      <trkpt lat="42.395322000" lon="-2.323870000">
        <ele>425.80</ele>
        <time>2013-07-27T12:09:41Z</time>
      </trkpt>
      <trkpt lat="42.395322000" lon="-2.323871000">
        <ele>425.70</ele>
        <time>2013-07-27T12:09:42Z</time>
      </trkpt>
      <trkpt lat="42.395323000" lon="-2.323870000">
        <ele>425.60</ele>
        <time>2013-07-27T12:09:43Z</time>
      </trkpt>
      <trkpt lat="42.395323000" lon="-2.323871000">
        <ele>425.60</ele>
        <time>2013-07-27T12:09:44Z</time>
      </trkpt>
      <trkpt lat="42.395323000" lon="-2.323871000">
        <ele>425.60</ele>
        <time>2013-07-27T12:09:45Z</time>
      </trkpt>
      <trkpt lat="42.395323000" lon="-2.323871000">
        <ele>425.60</ele>
        <time>2013-07-27T12:09:46Z</time>
      </trkpt>
      <trkpt lat="42.395324000" lon="-2.323871000">
        <ele>425.60</ele>
        <time>2013-07-27T12:09:47Z</time>
      </trkpt>
      <trkpt lat="42.395324000" lon="-2.323871000">
        <ele>425.70</ele>
        <time>2013-07-27T12:09:48Z</time>
      </trkpt>
      <trkpt lat="42.395326000" lon="-2.323868000">
        <ele>425.80</ele>
        <time>2013-07-27T12:09:49Z</time>
      </trkpt>
      <trkpt lat="42.395334000" lon="-2.323856000">
        <ele>425.90</ele>
        <time>2013-07-27T12:09:50Z</time>
      </trkpt>
      <trkpt lat="42.395340000" lon="-2.323853000">
        <ele>426.00</ele>
        <time>2013-07-27T12:09:51Z</time>
      </trkpt>
      <trkpt lat="42.395345000" lon="-2.323844000">
        <ele>426.10</ele>
        <time>2013-07-27T12:09:52Z</time>
      </trkpt>
      <trkpt lat="42.395362000" lon="-2.323829000">
        <ele>426.20</ele>
        <time>2013-07-27T12:09:53Z</time>
      </trkpt>
      <trkpt lat="42.395388000" lon="-2.323817000">
        <ele>426.20</ele>
        <time>2013-07-27T12:09:54Z</time>
      </trkpt>
      <trkpt lat="42.395417000" lon="-2.323816000">
        <ele>426.20</ele>
        <time>2013-07-27T12:09:55Z</time>
      </trkpt>
      <trkpt lat="42.395447000" lon="-2.323819000">
        <ele>426.20</ele>
        <time>2013-07-27T12:09:56Z</time>
      </trkpt>
      <trkpt lat="42.395481000" lon="-2.323830000">
        <ele>426.20</ele>
        <time>2013-07-27T12:09:57Z</time>
      </trkpt>
      <trkpt lat="42.395519000" lon="-2.323848000">
        <ele>426.20</ele>
        <time>2013-07-27T12:09:58Z</time>
      </trkpt>
      <trkpt lat="42.395559000" lon="-2.323869000">
        <ele>426.10</ele>
        <time>2013-07-27T12:09:59Z</time>
      </trkpt>
      <trkpt lat="42.395601000" lon="-2.323889000">
        <ele>426.10</ele>
        <time>2013-07-27T12:10:00Z</time>
      </trkpt>
      <trkpt lat="42.395648000" lon="-2.323907000">
        <ele>426.10</ele>
        <time>2013-07-27T12:10:01Z</time>
      </trkpt>
      <trkpt lat="42.395696000" lon="-2.323922000">
        <ele>426.10</ele>
        <time>2013-07-27T12:10:02Z</time>
      </trkpt>
      <trkpt lat="42.395744000" lon="-2.323936000">
        <ele>426.10</ele>
        <time>2013-07-27T12:10:03Z</time>
      </trkpt>
      <trkpt lat="42.395794000" lon="-2.323948000">
        <ele>426.10</ele>
        <time>2013-07-27T12:10:04Z</time>
      </trkpt>
      <trkpt lat="42.395846000" lon="-2.323960000">
        <ele>426.10</ele>
        <time>2013-07-27T12:10:05Z</time>
      </trkpt>
      <trkpt lat="42.395898000" lon="-2.323971000">
        <ele>426.00</ele>
        <time>2013-07-27T12:10:06Z</time>
      </trkpt>
      <trkpt lat="42.395952000" lon="-2.323982000">
        <ele>425.90</ele>
        <time>2013-07-27T12:10:07Z</time>
      </trkpt>
      <trkpt lat="42.396005000" lon="-2.323995000">
        <ele>425.80</ele>
        <time>2013-07-27T12:10:08Z</time>
      </trkpt>
      <trkpt lat="42.396060000" lon="-2.324005000">
        <ele>425.80</ele>
        <time>2013-07-27T12:10:09Z</time>
      </trkpt>
      <trkpt lat="42.396117000" lon="-2.324014000">
        <ele>425.60</ele>
        <time>2013-07-27T12:10:10Z</time>
      </trkpt>
      <trkpt lat="42.396174000" lon="-2.324016000">
        <ele>425.50</ele>
        <time>2013-07-27T12:10:11Z</time>
      </trkpt>
      <trkpt lat="42.396234000" lon="-2.324016000">
        <ele>425.40</ele>
        <time>2013-07-27T12:10:12Z</time>
      </trkpt>
      <trkpt lat="42.396298000" lon="-2.324019000">
        <ele>425.30</ele>
        <time>2013-07-27T12:10:13Z</time>
      </trkpt>
      <trkpt lat="42.396366000" lon="-2.324024000">
        <ele>425.20</ele>
        <time>2013-07-27T12:10:14Z</time>
      </trkpt>
      <trkpt lat="42.396435000" lon="-2.324031000">
        <ele>425.10</ele>
        <time>2013-07-27T12:10:15Z</time>
      </trkpt>
      <trkpt lat="42.396507000" lon="-2.324045000">
        <ele>424.80</ele>
        <time>2013-07-27T12:10:16Z</time>
      </trkpt>
      <trkpt lat="42.396584000" lon="-2.324067000">
        <ele>424.60</ele>
        <time>2013-07-27T12:10:17Z</time>
      </trkpt>
      <trkpt lat="42.396666000" lon="-2.324097000">
        <ele>424.10</ele>
        <time>2013-07-27T12:10:18Z</time>
      </trkpt>
      <trkpt lat="42.396754000" lon="-2.324121000">
        <ele>423.80</ele>
        <time>2013-07-27T12:10:19Z</time>
      </trkpt>
      <trkpt lat="42.396841000" lon="-2.324149000">
        <ele>423.50</ele>
        <time>2013-07-27T12:10:20Z</time>
      </trkpt>
      <trkpt lat="42.396928000" lon="-2.324184000">
        <ele>423.30</ele>
        <time>2013-07-27T12:10:21Z</time>
      </trkpt>
      <trkpt lat="42.397021000" lon="-2.324209000">
        <ele>422.90</ele>
        <time>2013-07-27T12:10:22Z</time>
      </trkpt>
      <trkpt lat="42.397120000" lon="-2.324219000">
        <ele>422.50</ele>
        <time>2013-07-27T12:10:23Z</time>
      </trkpt>
      <trkpt lat="42.397224000" lon="-2.324221000">
        <ele>421.70</ele>
        <time>2013-07-27T12:10:24Z</time>
      </trkpt>
      <trkpt lat="42.397326000" lon="-2.324228000">
        <ele>421.20</ele>
        <time>2013-07-27T12:10:25Z</time>
      </trkpt>
      <trkpt lat="42.397429000" lon="-2.324247000">
        <ele>420.30</ele>
        <time>2013-07-27T12:10:26Z</time>
      </trkpt>
      <trkpt lat="42.397530000" lon="-2.324275000">
        <ele>419.70</ele>
        <time>2013-07-27T12:10:27Z</time>
      </trkpt>
      <trkpt lat="42.397636000" lon="-2.324301000">
        <ele>419.00</ele>
        <time>2013-07-27T12:10:28Z</time>
      </trkpt>
      <trkpt lat="42.397739000" lon="-2.324349000">
        <ele>418.50</ele>
        <time>2013-07-27T12:10:29Z</time>
      </trkpt>
      <trkpt lat="42.397842000" lon="-2.324383000">
        <ele>417.90</ele>
        <time>2013-07-27T12:10:30Z</time>
      </trkpt>
      <trkpt lat="42.397941000" lon="-2.324411000">
        <ele>417.50</ele>
        <time>2013-07-27T12:10:31Z</time>
      </trkpt>
      <trkpt lat="42.398040000" lon="-2.324447000">
        <ele>416.50</ele>
        <time>2013-07-27T12:10:32Z</time>
      </trkpt>
      <trkpt lat="42.398138000" lon="-2.324478000">
        <ele>415.70</ele>
        <time>2013-07-27T12:10:33Z</time>
      </trkpt>
      <trkpt lat="42.398231000" lon="-2.324509000">
        <ele>415.20</ele>
        <time>2013-07-27T12:10:34Z</time>
      </trkpt>
      <trkpt lat="42.398325000" lon="-2.324531000">
        <ele>414.70</ele>
        <time>2013-07-27T12:10:35Z</time>
      </trkpt>
      <trkpt lat="42.398419000" lon="-2.324549000">
        <ele>414.30</ele>
        <time>2013-07-27T12:10:36Z</time>
      </trkpt>
      <trkpt lat="42.398509000" lon="-2.324553000">
        <ele>414.00</ele>
        <time>2013-07-27T12:10:37Z</time>
      </trkpt>
      <trkpt lat="42.398601000" lon="-2.324559000">
        <ele>413.50</ele>
        <time>2013-07-27T12:10:38Z</time>
      </trkpt>
      <trkpt lat="42.398691000" lon="-2.324561000">
        <ele>413.10</ele>
        <time>2013-07-27T12:10:39Z</time>
      </trkpt>
      <trkpt lat="42.398781000" lon="-2.324545000">
        <ele>412.80</ele>
        <time>2013-07-27T12:10:40Z</time>
      </trkpt>
      <trkpt lat="42.398867000" lon="-2.324530000">
        <ele>412.50</ele>
        <time>2013-07-27T12:10:41Z</time>
      </trkpt>
      <trkpt lat="42.398950000" lon="-2.324517000">
        <ele>412.10</ele>
        <time>2013-07-27T12:10:42Z</time>
      </trkpt>
      <trkpt lat="42.399043000" lon="-2.324503000">
        <ele>411.70</ele>
        <time>2013-07-27T12:10:43Z</time>
      </trkpt>
      <trkpt lat="42.399123000" lon="-2.324502000">
        <ele>411.40</ele>
        <time>2013-07-27T12:10:44Z</time>
      </trkpt>
      <trkpt lat="42.399204000" lon="-2.324511000">
        <ele>411.20</ele>
        <time>2013-07-27T12:10:45Z</time>
      </trkpt>
      <trkpt lat="42.399284000" lon="-2.324527000">
        <ele>410.60</ele>
        <time>2013-07-27T12:10:46Z</time>
      </trkpt>
      <trkpt lat="42.399363000" lon="-2.324549000">
        <ele>410.10</ele>
        <time>2013-07-27T12:10:47Z</time>
      </trkpt>
      <trkpt lat="42.399439000" lon="-2.324580000">
        <ele>409.70</ele>
        <time>2013-07-27T12:10:48Z</time>
      </trkpt>
      <trkpt lat="42.399515000" lon="-2.324612000">
        <ele>409.40</ele>
        <time>2013-07-27T12:10:49Z</time>
      </trkpt>
      <trkpt lat="42.399587000" lon="-2.324644000">
        <ele>409.10</ele>
        <time>2013-07-27T12:10:50Z</time>
      </trkpt>
      <trkpt lat="42.399656000" lon="-2.324673000">
        <ele>408.90</ele>
        <time>2013-07-27T12:10:51Z</time>
      </trkpt>
      <trkpt lat="42.399728000" lon="-2.324706000">
        <ele>408.80</ele>
        <time>2013-07-27T12:10:52Z</time>
      </trkpt>
      <trkpt lat="42.399805000" lon="-2.324743000">
        <ele>408.70</ele>
        <time>2013-07-27T12:10:53Z</time>
      </trkpt>
      <trkpt lat="42.399875000" lon="-2.324776000">
        <ele>408.30</ele>
        <time>2013-07-27T12:10:54Z</time>
      </trkpt>
      <trkpt lat="42.399946000" lon="-2.324806000">
        <ele>408.10</ele>
        <time>2013-07-27T12:10:55Z</time>
      </trkpt>
      <trkpt lat="42.400014000" lon="-2.324837000">
        <ele>407.80</ele>
        <time>2013-07-27T12:10:56Z</time>
      </trkpt>
      <trkpt lat="42.400081000" lon="-2.324871000">
        <ele>407.60</ele>
        <time>2013-07-27T12:10:57Z</time>
      </trkpt>
      <trkpt lat="42.400148000" lon="-2.324902000">
        <ele>407.50</ele>
        <time>2013-07-27T12:10:58Z</time>
      </trkpt>
      <trkpt lat="42.400209000" lon="-2.324932000">
        <ele>407.40</ele>
        <time>2013-07-27T12:10:59Z</time>
      </trkpt>
      <trkpt lat="42.400272000" lon="-2.324960000">
        <ele>407.20</ele>
        <time>2013-07-27T12:11:00Z</time>
      </trkpt>
      <trkpt lat="42.400332000" lon="-2.324987000">
        <ele>407.00</ele>
        <time>2013-07-27T12:11:01Z</time>
      </trkpt>
      <trkpt lat="42.400387000" lon="-2.325018000">
        <ele>406.60</ele>
        <time>2013-07-27T12:11:02Z</time>
      </trkpt>
      <trkpt lat="42.400440000" lon="-2.325048000">
        <ele>406.40</ele>
        <time>2013-07-27T12:11:03Z</time>
      </trkpt>
      <trkpt lat="42.400493000" lon="-2.325068000">
        <ele>406.20</ele>
        <time>2013-07-27T12:11:04Z</time>
      </trkpt>
      <trkpt lat="42.400553000" lon="-2.325092000">
        <ele>406.10</ele>
        <time>2013-07-27T12:11:05Z</time>
      </trkpt>
      <trkpt lat="42.400607000" lon="-2.325122000">
        <ele>406.00</ele>
        <time>2013-07-27T12:11:06Z</time>
      </trkpt>
      <trkpt lat="42.400656000" lon="-2.325159000">
        <ele>406.00</ele>
        <time>2013-07-27T12:11:07Z</time>
      </trkpt>
      <trkpt lat="42.400708000" lon="-2.325188000">
        <ele>406.00</ele>
        <time>2013-07-27T12:11:08Z</time>
      </trkpt>
      <trkpt lat="42.400759000" lon="-2.325208000">
        <ele>406.00</ele>
        <time>2013-07-27T12:11:09Z</time>
      </trkpt>
      <trkpt lat="42.400801000" lon="-2.325224000">
        <ele>406.00</ele>
        <time>2013-07-27T12:11:10Z</time>
      </trkpt>
      <trkpt lat="42.400836000" lon="-2.325233000">
        <ele>406.00</ele>
        <time>2013-07-27T12:11:11Z</time>
      </trkpt>
      <trkpt lat="42.400865000" lon="-2.325244000">
        <ele>406.00</ele>
        <time>2013-07-27T12:11:12Z</time>
      </trkpt>
      <trkpt lat="42.400888000" lon="-2.325255000">
        <ele>406.00</ele>
        <time>2013-07-27T12:11:13Z</time>
      </trkpt>
      <trkpt lat="42.400912000" lon="-2.325264000">
        <ele>406.00</ele>
        <time>2013-07-27T12:11:14Z</time>
      </trkpt>
      <trkpt lat="42.400939000" lon="-2.325270000">
        <ele>406.00</ele>
        <time>2013-07-27T12:11:15Z</time>
      </trkpt>
      <trkpt lat="42.400955000" lon="-2.325276000">
        <ele>405.90</ele>
        <time>2013-07-27T12:11:16Z</time>
      </trkpt>
      <trkpt lat="42.400965000" lon="-2.325279000">
        <ele>405.90</ele>
        <time>2013-07-27T12:11:17Z</time>
      </trkpt>
      <trkpt lat="42.400970000" lon="-2.325282000">
        <ele>405.50</ele>
        <time>2013-07-27T12:11:18Z</time>
      </trkpt>
      <trkpt lat="42.400974000" lon="-2.325287000">
        <ele>405.20</ele>
        <time>2013-07-27T12:11:19Z</time>
      </trkpt>
      <trkpt lat="42.400977000" lon="-2.325290000">
        <ele>405.00</ele>
        <time>2013-07-27T12:11:20Z</time>
      </trkpt>
      <trkpt lat="42.400982000" lon="-2.325294000">
        <ele>404.80</ele>
        <time>2013-07-27T12:11:21Z</time>
      </trkpt>
      <trkpt lat="42.400987000" lon="-2.325293000">
        <ele>404.70</ele>
        <time>2013-07-27T12:11:22Z</time>
      </trkpt>
      <trkpt lat="42.400989000" lon="-2.325296000">
        <ele>404.60</ele>
        <time>2013-07-27T12:11:23Z</time>
      </trkpt>
      <trkpt lat="42.400991000" lon="-2.325296000">
        <ele>404.70</ele>
        <time>2013-07-27T12:11:24Z</time>
      </trkpt>
      <trkpt lat="42.400991000" lon="-2.325298000">
        <ele>404.70</ele>
        <time>2013-07-27T12:11:25Z</time>
      </trkpt>
      <trkpt lat="42.400994000" lon="-2.325300000">
        <ele>404.80</ele>
        <time>2013-07-27T12:11:26Z</time>
      </trkpt>
      <trkpt lat="42.400997000" lon="-2.325302000">
        <ele>405.00</ele>
        <time>2013-07-27T12:11:27Z</time>
      </trkpt>
      <trkpt lat="42.401001000" lon="-2.325304000">
        <ele>405.10</ele>
        <time>2013-07-27T12:11:28Z</time>
      </trkpt>
      <trkpt lat="42.401004000" lon="-2.325306000">
        <ele>405.20</ele>
        <time>2013-07-27T12:11:29Z</time>
      </trkpt>
      <trkpt lat="42.401008000" lon="-2.325307000">
        <ele>405.30</ele>
        <time>2013-07-27T12:11:30Z</time>
      </trkpt>
      <trkpt lat="42.401011000" lon="-2.325307000">
        <ele>405.40</ele>
        <time>2013-07-27T12:11:31Z</time>
      </trkpt>
      <trkpt lat="42.401014000" lon="-2.325308000">
        <ele>405.40</ele>
        <time>2013-07-27T12:11:32Z</time>
      </trkpt>
      <trkpt lat="42.401017000" lon="-2.325311000">
        <ele>405.40</ele>
        <time>2013-07-27T12:11:33Z</time>
      </trkpt>
      <trkpt lat="42.401022000" lon="-2.325310000">
        <ele>405.30</ele>
        <time>2013-07-27T12:11:34Z</time>
      </trkpt>
      <trkpt lat="42.401021000" lon="-2.325312000">
        <ele>405.30</ele>
        <time>2013-07-27T12:11:35Z</time>
      </trkpt>
      <trkpt lat="42.401022000" lon="-2.325313000">
        <ele>405.20</ele>
        <time>2013-07-27T12:11:36Z</time>
      </trkpt>
      <trkpt lat="42.401023000" lon="-2.325314000">
        <ele>405.20</ele>
        <time>2013-07-27T12:11:37Z</time>
      </trkpt>
      <trkpt lat="42.401025000" lon="-2.325316000">
        <ele>405.00</ele>
        <time>2013-07-27T12:11:38Z</time>
      </trkpt>
      <trkpt lat="42.401028000" lon="-2.325318000">
        <ele>404.90</ele>
        <time>2013-07-27T12:11:39Z</time>
      </trkpt>
      <trkpt lat="42.401033000" lon="-2.325322000">
        <ele>404.80</ele>
        <time>2013-07-27T12:11:40Z</time>
      </trkpt>
      <trkpt lat="42.401038000" lon="-2.325332000">
        <ele>404.80</ele>
        <time>2013-07-27T12:11:41Z</time>
      </trkpt>
      <trkpt lat="42.401048000" lon="-2.325340000">
        <ele>404.70</ele>
        <time>2013-07-27T12:11:42Z</time>
      </trkpt>
      <trkpt lat="42.401056000" lon="-2.325347000">
        <ele>404.70</ele>
        <time>2013-07-27T12:11:43Z</time>
      </trkpt>
      <trkpt lat="42.401054000" lon="-2.325356000">
        <ele>404.70</ele>
        <time>2013-07-27T12:11:44Z</time>
      </trkpt>
      <trkpt lat="42.401058000" lon="-2.325369000">
        <ele>404.80</ele>
        <time>2013-07-27T12:11:45Z</time>
      </trkpt>
      <trkpt lat="42.401061000" lon="-2.325389000">
        <ele>404.80</ele>
        <time>2013-07-27T12:11:46Z</time>
      </trkpt>
      <trkpt lat="42.401066000" lon="-2.325421000">
        <ele>404.80</ele>
        <time>2013-07-27T12:11:47Z</time>
      </trkpt>
      <trkpt lat="42.401068000" lon="-2.325461000">
        <ele>404.70</ele>
        <time>2013-07-27T12:11:48Z</time>
      </trkpt>
      <trkpt lat="42.401074000" lon="-2.325505000">
        <ele>404.60</ele>
        <time>2013-07-27T12:11:49Z</time>
      </trkpt>
      <trkpt lat="42.401084000" lon="-2.325550000">
        <ele>404.50</ele>
        <time>2013-07-27T12:11:50Z</time>
      </trkpt>
      <trkpt lat="42.401092000" lon="-2.325594000">
        <ele>404.40</ele>
        <time>2013-07-27T12:11:51Z</time>
      </trkpt>
      <trkpt lat="42.401098000" lon="-2.325628000">
        <ele>404.40</ele>
        <time>2013-07-27T12:11:52Z</time>
      </trkpt>
      <trkpt lat="42.401101000" lon="-2.325656000">
        <ele>404.40</ele>
        <time>2013-07-27T12:11:53Z</time>
      </trkpt>
      <trkpt lat="42.401100000" lon="-2.325674000">
        <ele>404.30</ele>
        <time>2013-07-27T12:11:54Z</time>
      </trkpt>
      <trkpt lat="42.401105000" lon="-2.325687000">
        <ele>404.30</ele>
        <time>2013-07-27T12:11:55Z</time>
      </trkpt>
      <trkpt lat="42.401108000" lon="-2.325702000">
        <ele>404.40</ele>
        <time>2013-07-27T12:11:56Z</time>
      </trkpt>
      <trkpt lat="42.401106000" lon="-2.325723000">
        <ele>404.40</ele>
        <time>2013-07-27T12:11:57Z</time>
      </trkpt>
      <trkpt lat="42.401108000" lon="-2.325738000">
        <ele>404.40</ele>
        <time>2013-07-27T12:11:58Z</time>
      </trkpt>
      <trkpt lat="42.401109000" lon="-2.325757000">
        <ele>404.30</ele>
        <time>2013-07-27T12:11:59Z</time>
      </trkpt>
      <trkpt lat="42.401110000" lon="-2.325780000">
        <ele>404.20</ele>
        <time>2013-07-27T12:12:00Z</time>
      </trkpt>
      <trkpt lat="42.401104000" lon="-2.325809000">
        <ele>404.10</ele>
        <time>2013-07-27T12:12:01Z</time>
      </trkpt>
      <trkpt lat="42.401100000" lon="-2.325843000">
        <ele>404.00</ele>
        <time>2013-07-27T12:12:02Z</time>
      </trkpt>
      <trkpt lat="42.401096000" lon="-2.325877000">
        <ele>403.90</ele>
        <time>2013-07-27T12:12:03Z</time>
      </trkpt>
      <trkpt lat="42.401087000" lon="-2.325907000">
        <ele>403.80</ele>
        <time>2013-07-27T12:12:04Z</time>
      </trkpt>
      <trkpt lat="42.401076000" lon="-2.325943000">
        <ele>403.70</ele>
        <time>2013-07-27T12:12:05Z</time>
      </trkpt>
      <trkpt lat="42.401064000" lon="-2.325981000">
        <ele>403.60</ele>
        <time>2013-07-27T12:12:06Z</time>
      </trkpt>
      <trkpt lat="42.401050000" lon="-2.326024000">
        <ele>403.50</ele>
        <time>2013-07-27T12:12:07Z</time>
      </trkpt>
      <trkpt lat="42.401040000" lon="-2.326071000">
        <ele>403.50</ele>
        <time>2013-07-27T12:12:08Z</time>
      </trkpt>
      <trkpt lat="42.401027000" lon="-2.326119000">
        <ele>403.50</ele>
        <time>2013-07-27T12:12:09Z</time>
      </trkpt>
      <trkpt lat="42.401013000" lon="-2.326156000">
        <ele>403.40</ele>
        <time>2013-07-27T12:12:10Z</time>
      </trkpt>
      <trkpt lat="42.401002000" lon="-2.326187000">
        <ele>403.40</ele>
        <time>2013-07-27T12:12:11Z</time>
      </trkpt>
      <trkpt lat="42.400993000" lon="-2.326219000">
        <ele>403.30</ele>
        <time>2013-07-27T12:12:12Z</time>
      </trkpt>
      <trkpt lat="42.400984000" lon="-2.326249000">
        <ele>403.20</ele>
        <time>2013-07-27T12:12:13Z</time>
      </trkpt>
      <trkpt lat="42.400975000" lon="-2.326276000">
        <ele>403.10</ele>
        <time>2013-07-27T12:12:14Z</time>
      </trkpt>
      <trkpt lat="42.400970000" lon="-2.326301000">
        <ele>403.00</ele>
        <time>2013-07-27T12:12:15Z</time>
      </trkpt>
      <trkpt lat="42.400962000" lon="-2.326326000">
        <ele>402.80</ele>
        <time>2013-07-27T12:12:16Z</time>
      </trkpt>
      <trkpt lat="42.400952000" lon="-2.326352000">
        <ele>402.60</ele>
        <time>2013-07-27T12:12:17Z</time>
      </trkpt>
      <trkpt lat="42.400938000" lon="-2.326383000">
        <ele>402.40</ele>
        <time>2013-07-27T12:12:18Z</time>
      </trkpt>
      <trkpt lat="42.400926000" lon="-2.326416000">
        <ele>402.30</ele>
        <time>2013-07-27T12:12:19Z</time>
      </trkpt>
      <trkpt lat="42.400913000" lon="-2.326453000">
        <ele>402.00</ele>
        <time>2013-07-27T12:12:20Z</time>
      </trkpt>
      <trkpt lat="42.400895000" lon="-2.326493000">
        <ele>401.80</ele>
        <time>2013-07-27T12:12:21Z</time>
      </trkpt>
      <trkpt lat="42.400880000" lon="-2.326539000">
        <ele>401.70</ele>
        <time>2013-07-27T12:12:22Z</time>
      </trkpt>
      <trkpt lat="42.400863000" lon="-2.326587000">
        <ele>401.50</ele>
        <time>2013-07-27T12:12:23Z</time>
      </trkpt>
      <trkpt lat="42.400852000" lon="-2.326640000">
        <ele>401.30</ele>
        <time>2013-07-27T12:12:24Z</time>
      </trkpt>
      <trkpt lat="42.400846000" lon="-2.326694000">
        <ele>401.10</ele>
        <time>2013-07-27T12:12:25Z</time>
      </trkpt>
      <trkpt lat="42.400843000" lon="-2.326750000">
        <ele>401.00</ele>
        <time>2013-07-27T12:12:26Z</time>
      </trkpt>
      <trkpt lat="42.400845000" lon="-2.326804000">
        <ele>400.90</ele>
        <time>2013-07-27T12:12:27Z</time>
      </trkpt>
      <trkpt lat="42.400851000" lon="-2.326859000">
        <ele>400.70</ele>
        <time>2013-07-27T12:12:28Z</time>
      </trkpt>
      <trkpt lat="42.400855000" lon="-2.326916000">
        <ele>400.60</ele>
        <time>2013-07-27T12:12:29Z</time>
      </trkpt>
      <trkpt lat="42.400856000" lon="-2.326974000">
        <ele>400.60</ele>
        <time>2013-07-27T12:12:30Z</time>
      </trkpt>
      <trkpt lat="42.400858000" lon="-2.327033000">
        <ele>400.50</ele>
        <time>2013-07-27T12:12:31Z</time>
      </trkpt>
      <trkpt lat="42.400863000" lon="-2.327097000">
        <ele>400.50</ele>
        <time>2013-07-27T12:12:32Z</time>
      </trkpt>
      <trkpt lat="42.400866000" lon="-2.327161000">
        <ele>400.50</ele>
        <time>2013-07-27T12:12:33Z</time>
      </trkpt>
      <trkpt lat="42.400871000" lon="-2.327226000">
        <ele>400.60</ele>
        <time>2013-07-27T12:12:34Z</time>
      </trkpt>
      <trkpt lat="42.400879000" lon="-2.327291000">
        <ele>400.70</ele>
        <time>2013-07-27T12:12:35Z</time>
      </trkpt>
      <trkpt lat="42.400886000" lon="-2.327356000">
        <ele>400.80</ele>
        <time>2013-07-27T12:12:36Z</time>
      </trkpt>
      <trkpt lat="42.400893000" lon="-2.327421000">
        <ele>400.90</ele>
        <time>2013-07-27T12:12:37Z</time>
      </trkpt>
      <trkpt lat="42.400900000" lon="-2.327487000">
        <ele>400.90</ele>
        <time>2013-07-27T12:12:38Z</time>
      </trkpt>
      <trkpt lat="42.400908000" lon="-2.327555000">
        <ele>400.90</ele>
        <time>2013-07-27T12:12:39Z</time>
      </trkpt>
      <trkpt lat="42.400917000" lon="-2.327623000">
        <ele>400.90</ele>
        <time>2013-07-27T12:12:40Z</time>
      </trkpt>
      <trkpt lat="42.400924000" lon="-2.327686000">
        <ele>401.00</ele>
        <time>2013-07-27T12:12:41Z</time>
      </trkpt>
      <trkpt lat="42.400934000" lon="-2.327751000">
        <ele>401.00</ele>
        <time>2013-07-27T12:12:42Z</time>
      </trkpt>
      <trkpt lat="42.400947000" lon="-2.327815000">
        <ele>401.00</ele>
        <time>2013-07-27T12:12:43Z</time>
      </trkpt>
      <trkpt lat="42.400957000" lon="-2.327878000">
        <ele>401.00</ele>
        <time>2013-07-27T12:12:44Z</time>
      </trkpt>
      <trkpt lat="42.400960000" lon="-2.327945000">
        <ele>401.00</ele>
        <time>2013-07-27T12:12:45Z</time>
      </trkpt>
      <trkpt lat="42.400969000" lon="-2.328011000">
        <ele>401.00</ele>
        <time>2013-07-27T12:12:46Z</time>
      </trkpt>
      <trkpt lat="42.400977000" lon="-2.328076000">
        <ele>401.00</ele>
        <time>2013-07-27T12:12:47Z</time>
      </trkpt>
      <trkpt lat="42.400985000" lon="-2.328141000">
        <ele>400.80</ele>
        <time>2013-07-27T12:12:48Z</time>
      </trkpt>
      <trkpt lat="42.400995000" lon="-2.328207000">
        <ele>400.60</ele>
        <time>2013-07-27T12:12:49Z</time>
      </trkpt>
      <trkpt lat="42.401003000" lon="-2.328275000">
        <ele>400.40</ele>
        <time>2013-07-27T12:12:50Z</time>
      </trkpt>
      <trkpt lat="42.401015000" lon="-2.328343000">
        <ele>400.30</ele>
        <time>2013-07-27T12:12:51Z</time>
      </trkpt>
      <trkpt lat="42.401024000" lon="-2.328415000">
        <ele>400.20</ele>
        <time>2013-07-27T12:12:52Z</time>
      </trkpt>
      <trkpt lat="42.401033000" lon="-2.328486000">
        <ele>400.20</ele>
        <time>2013-07-27T12:12:53Z</time>
      </trkpt>
      <trkpt lat="42.401044000" lon="-2.328557000">
        <ele>400.10</ele>
        <time>2013-07-27T12:12:54Z</time>
      </trkpt>
      <trkpt lat="42.401049000" lon="-2.328628000">
        <ele>400.10</ele>
        <time>2013-07-27T12:12:55Z</time>
      </trkpt>
      <trkpt lat="42.401055000" lon="-2.328697000">
        <ele>400.00</ele>
        <time>2013-07-27T12:12:56Z</time>
      </trkpt>
      <trkpt lat="42.401058000" lon="-2.328767000">
        <ele>399.90</ele>
        <time>2013-07-27T12:12:57Z</time>
      </trkpt>
      <trkpt lat="42.401062000" lon="-2.328832000">
        <ele>399.70</ele>
        <time>2013-07-27T12:12:58Z</time>
      </trkpt>
      <trkpt lat="42.401065000" lon="-2.328897000">
        <ele>399.50</ele>
        <time>2013-07-27T12:12:59Z</time>
      </trkpt>
      <trkpt lat="42.401066000" lon="-2.328962000">
        <ele>399.40</ele>
        <time>2013-07-27T12:13:00Z</time>
      </trkpt>
      <trkpt lat="42.401067000" lon="-2.329028000">
        <ele>399.30</ele>
        <time>2013-07-27T12:13:01Z</time>
      </trkpt>
      <trkpt lat="42.401068000" lon="-2.329093000">
        <ele>399.00</ele>
        <time>2013-07-27T12:13:02Z</time>
      </trkpt>
      <trkpt lat="42.401070000" lon="-2.329159000">
        <ele>398.90</ele>
        <time>2013-07-27T12:13:03Z</time>
      </trkpt>
      <trkpt lat="42.401076000" lon="-2.329222000">
        <ele>398.90</ele>
        <time>2013-07-27T12:13:04Z</time>
      </trkpt>
      <trkpt lat="42.401081000" lon="-2.329287000">
        <ele>398.90</ele>
        <time>2013-07-27T12:13:05Z</time>
      </trkpt>
      <trkpt lat="42.401087000" lon="-2.329349000">
        <ele>399.00</ele>
        <time>2013-07-27T12:13:06Z</time>
      </trkpt>
      <trkpt lat="42.401093000" lon="-2.329411000">
        <ele>399.10</ele>
        <time>2013-07-27T12:13:07Z</time>
      </trkpt>
      <trkpt lat="42.401097000" lon="-2.329468000">
        <ele>399.10</ele>
        <time>2013-07-27T12:13:08Z</time>
      </trkpt>
      <trkpt lat="42.401106000" lon="-2.329523000">
        <ele>399.20</ele>
        <time>2013-07-27T12:13:09Z</time>
      </trkpt>
      <trkpt lat="42.401111000" lon="-2.329568000">
        <ele>399.50</ele>
        <time>2013-07-27T12:13:10Z</time>
      </trkpt>
      <trkpt lat="42.401116000" lon="-2.329611000">
        <ele>399.80</ele>
        <time>2013-07-27T12:13:11Z</time>
      </trkpt>
      <trkpt lat="42.401119000" lon="-2.329657000">
        <ele>400.10</ele>
        <time>2013-07-27T12:13:12Z</time>
      </trkpt>
      <trkpt lat="42.401126000" lon="-2.329701000">
        <ele>400.30</ele>
        <time>2013-07-27T12:13:13Z</time>
      </trkpt>
      <trkpt lat="42.401127000" lon="-2.329745000">
        <ele>400.40</ele>
        <time>2013-07-27T12:13:14Z</time>
      </trkpt>
      <trkpt lat="42.401131000" lon="-2.329789000">
        <ele>400.60</ele>
        <time>2013-07-27T12:13:15Z</time>
      </trkpt>
      <trkpt lat="42.401133000" lon="-2.329833000">
        <ele>400.70</ele>
        <time>2013-07-27T12:13:16Z</time>
      </trkpt>
      <trkpt lat="42.401136000" lon="-2.329874000">
        <ele>400.80</ele>
        <time>2013-07-27T12:13:17Z</time>
      </trkpt>
      <trkpt lat="42.401143000" lon="-2.329916000">
        <ele>400.90</ele>
        <time>2013-07-27T12:13:18Z</time>
      </trkpt>
      <trkpt lat="42.401146000" lon="-2.329956000">
        <ele>401.00</ele>
        <time>2013-07-27T12:13:19Z</time>
      </trkpt>
      <trkpt lat="42.401148000" lon="-2.329996000">
        <ele>401.20</ele>
        <time>2013-07-27T12:13:20Z</time>
      </trkpt>
      <trkpt lat="42.401147000" lon="-2.330035000">
        <ele>401.30</ele>
        <time>2013-07-27T12:13:21Z</time>
      </trkpt>
      <trkpt lat="42.401148000" lon="-2.330072000">
        <ele>401.40</ele>
        <time>2013-07-27T12:13:22Z</time>
      </trkpt>
      <trkpt lat="42.401150000" lon="-2.330110000">
        <ele>401.50</ele>
        <time>2013-07-27T12:13:23Z</time>
      </trkpt>
      <trkpt lat="42.401151000" lon="-2.330148000">
        <ele>401.60</ele>
        <time>2013-07-27T12:13:24Z</time>
      </trkpt>
      <trkpt lat="42.401153000" lon="-2.330188000">
        <ele>401.70</ele>
        <time>2013-07-27T12:13:25Z</time>
      </trkpt>
      <trkpt lat="42.401155000" lon="-2.330227000">
        <ele>401.80</ele>
        <time>2013-07-27T12:13:26Z</time>
      </trkpt>
      <trkpt lat="42.401157000" lon="-2.330263000">
        <ele>401.90</ele>
        <time>2013-07-27T12:13:27Z</time>
      </trkpt>
      <trkpt lat="42.401157000" lon="-2.330299000">
        <ele>402.00</ele>
        <time>2013-07-27T12:13:28Z</time>
      </trkpt>
      <trkpt lat="42.401156000" lon="-2.330335000">
        <ele>402.10</ele>
        <time>2013-07-27T12:13:29Z</time>
      </trkpt>
      <trkpt lat="42.401155000" lon="-2.330375000">
        <ele>402.20</ele>
        <time>2013-07-27T12:13:30Z</time>
      </trkpt>
      <trkpt lat="42.401154000" lon="-2.330415000">
        <ele>402.30</ele>
        <time>2013-07-27T12:13:31Z</time>
      </trkpt>
      <trkpt lat="42.401153000" lon="-2.330453000">
        <ele>402.30</ele>
        <time>2013-07-27T12:13:32Z</time>
      </trkpt>
      <trkpt lat="42.401152000" lon="-2.330494000">
        <ele>402.40</ele>
        <time>2013-07-27T12:13:33Z</time>
      </trkpt>
      <trkpt lat="42.401150000" lon="-2.330529000">
        <ele>402.40</ele>
        <time>2013-07-27T12:13:34Z</time>
      </trkpt>
      <trkpt lat="42.401145000" lon="-2.330566000">
        <ele>402.50</ele>
        <time>2013-07-27T12:13:35Z</time>
      </trkpt>
      <trkpt lat="42.401144000" lon="-2.330602000">
        <ele>402.70</ele>
        <time>2013-07-27T12:13:36Z</time>
      </trkpt>
      <trkpt lat="42.401140000" lon="-2.330641000">
        <ele>402.80</ele>
        <time>2013-07-27T12:13:37Z</time>
      </trkpt>
      <trkpt lat="42.401137000" lon="-2.330680000">
        <ele>403.10</ele>
        <time>2013-07-27T12:13:38Z</time>
      </trkpt>
      <trkpt lat="42.401132000" lon="-2.330722000">
        <ele>403.30</ele>
        <time>2013-07-27T12:13:39Z</time>
      </trkpt>
      <trkpt lat="42.401125000" lon="-2.330764000">
        <ele>403.50</ele>
        <time>2013-07-27T12:13:40Z</time>
      </trkpt>
      <trkpt lat="42.401116000" lon="-2.330806000">
        <ele>403.60</ele>
        <time>2013-07-27T12:13:41Z</time>
      </trkpt>
      <trkpt lat="42.401109000" lon="-2.330845000">
        <ele>403.90</ele>
        <time>2013-07-27T12:13:42Z</time>
      </trkpt>
      <trkpt lat="42.401103000" lon="-2.330885000">
        <ele>404.10</ele>
        <time>2013-07-27T12:13:43Z</time>
      </trkpt>
      <trkpt lat="42.401096000" lon="-2.330925000">
        <ele>404.10</ele>
        <time>2013-07-27T12:13:44Z</time>
      </trkpt>
      <trkpt lat="42.401091000" lon="-2.330963000">
        <ele>404.20</ele>
        <time>2013-07-27T12:13:45Z</time>
      </trkpt>
      <trkpt lat="42.401084000" lon="-2.331001000">
        <ele>404.20</ele>
        <time>2013-07-27T12:13:46Z</time>
      </trkpt>
      <trkpt lat="42.401077000" lon="-2.331037000">
        <ele>404.20</ele>
        <time>2013-07-27T12:13:47Z</time>
      </trkpt>
      <trkpt lat="42.401069000" lon="-2.331077000">
        <ele>404.30</ele>
        <time>2013-07-27T12:13:48Z</time>
      </trkpt>
      <trkpt lat="42.401062000" lon="-2.331115000">
        <ele>404.30</ele>
        <time>2013-07-27T12:13:49Z</time>
      </trkpt>
      <trkpt lat="42.401056000" lon="-2.331153000">
        <ele>404.50</ele>
        <time>2013-07-27T12:13:50Z</time>
      </trkpt>
      <trkpt lat="42.401047000" lon="-2.331189000">
        <ele>404.70</ele>
        <time>2013-07-27T12:13:51Z</time>
      </trkpt>
      <trkpt lat="42.401037000" lon="-2.331229000">
        <ele>405.00</ele>
        <time>2013-07-27T12:13:52Z</time>
      </trkpt>
      <trkpt lat="42.401027000" lon="-2.331267000">
        <ele>405.30</ele>
        <time>2013-07-27T12:13:53Z</time>
      </trkpt>
      <trkpt lat="42.401016000" lon="-2.331305000">
        <ele>405.40</ele>
        <time>2013-07-27T12:13:54Z</time>
      </trkpt>
      <trkpt lat="42.401004000" lon="-2.331341000">
        <ele>405.60</ele>
        <time>2013-07-27T12:13:55Z</time>
      </trkpt>
      <trkpt lat="42.400995000" lon="-2.331378000">
        <ele>405.60</ele>
        <time>2013-07-27T12:13:56Z</time>
      </trkpt>
      <trkpt lat="42.400985000" lon="-2.331413000">
        <ele>405.70</ele>
        <time>2013-07-27T12:13:57Z</time>
      </trkpt>
      <trkpt lat="42.400978000" lon="-2.331450000">
        <ele>405.70</ele>
        <time>2013-07-27T12:13:58Z</time>
      </trkpt>
      <trkpt lat="42.400971000" lon="-2.331486000">
        <ele>405.70</ele>
        <time>2013-07-27T12:13:59Z</time>
      </trkpt>
      <trkpt lat="42.400961000" lon="-2.331523000">
        <ele>405.90</ele>
        <time>2013-07-27T12:14:00Z</time>
      </trkpt>
      <trkpt lat="42.400952000" lon="-2.331558000">
        <ele>406.10</ele>
        <time>2013-07-27T12:14:01Z</time>
      </trkpt>
      <trkpt lat="42.400939000" lon="-2.331590000">
        <ele>406.40</ele>
        <time>2013-07-27T12:14:02Z</time>
      </trkpt>
      <trkpt lat="42.400927000" lon="-2.331622000">
        <ele>406.70</ele>
        <time>2013-07-27T12:14:03Z</time>
      </trkpt>
      <trkpt lat="42.400915000" lon="-2.331657000">
        <ele>406.80</ele>
        <time>2013-07-27T12:14:04Z</time>
      </trkpt>
      <trkpt lat="42.400900000" lon="-2.331690000">
        <ele>407.00</ele>
        <time>2013-07-27T12:14:05Z</time>
      </trkpt>
      <trkpt lat="42.400887000" lon="-2.331723000">
        <ele>407.10</ele>
        <time>2013-07-27T12:14:06Z</time>
      </trkpt>
      <trkpt lat="42.400874000" lon="-2.331759000">
        <ele>407.20</ele>
        <time>2013-07-27T12:14:07Z</time>
      </trkpt>
      <trkpt lat="42.400861000" lon="-2.331790000">
        <ele>407.40</ele>
        <time>2013-07-27T12:14:08Z</time>
      </trkpt>
      <trkpt lat="42.400845000" lon="-2.331824000">
        <ele>407.50</ele>
        <time>2013-07-27T12:14:09Z</time>
      </trkpt>
      <trkpt lat="42.400828000" lon="-2.331856000">
        <ele>407.60</ele>
        <time>2013-07-27T12:14:10Z</time>
      </trkpt>
      <trkpt lat="42.400813000" lon="-2.331889000">
        <ele>407.70</ele>
        <time>2013-07-27T12:14:11Z</time>
      </trkpt>
      <trkpt lat="42.400798000" lon="-2.331926000">
        <ele>407.80</ele>
        <time>2013-07-27T12:14:12Z</time>
      </trkpt>
      <trkpt lat="42.400780000" lon="-2.331960000">
        <ele>407.90</ele>
        <time>2013-07-27T12:14:13Z</time>
      </trkpt>
      <trkpt lat="42.400764000" lon="-2.331992000">
        <ele>408.10</ele>
        <time>2013-07-27T12:14:14Z</time>
      </trkpt>
      <trkpt lat="42.400744000" lon="-2.332025000">
        <ele>408.30</ele>
        <time>2013-07-27T12:14:15Z</time>
      </trkpt>
      <trkpt lat="42.400725000" lon="-2.332058000">
        <ele>408.50</ele>
        <time>2013-07-27T12:14:16Z</time>
      </trkpt>
      <trkpt lat="42.400705000" lon="-2.332093000">
        <ele>408.70</ele>
        <time>2013-07-27T12:14:17Z</time>
      </trkpt>
      <trkpt lat="42.400684000" lon="-2.332127000">
        <ele>408.80</ele>
        <time>2013-07-27T12:14:18Z</time>
      </trkpt>
      <trkpt lat="42.400662000" lon="-2.332161000">
        <ele>408.90</ele>
        <time>2013-07-27T12:14:19Z</time>
      </trkpt>
      <trkpt lat="42.400641000" lon="-2.332196000">
        <ele>409.10</ele>
        <time>2013-07-27T12:14:20Z</time>
      </trkpt>
      <trkpt lat="42.400615000" lon="-2.332232000">
        <ele>409.20</ele>
        <time>2013-07-27T12:14:21Z</time>
      </trkpt>
      <trkpt lat="42.400593000" lon="-2.332267000">
        <ele>409.30</ele>
        <time>2013-07-27T12:14:22Z</time>
      </trkpt>
      <trkpt lat="42.400572000" lon="-2.332298000">
        <ele>409.40</ele>
        <time>2013-07-27T12:14:23Z</time>
      </trkpt>
      <trkpt lat="42.400553000" lon="-2.332327000">
        <ele>409.40</ele>
        <time>2013-07-27T12:14:24Z</time>
      </trkpt>
      <trkpt lat="42.400536000" lon="-2.332357000">
        <ele>409.40</ele>
        <time>2013-07-27T12:14:25Z</time>
      </trkpt>
      <trkpt lat="42.400517000" lon="-2.332387000">
        <ele>409.60</ele>
        <time>2013-07-27T12:14:26Z</time>
      </trkpt>
      <trkpt lat="42.400497000" lon="-2.332417000">
        <ele>409.80</ele>
        <time>2013-07-27T12:14:27Z</time>
      </trkpt>
      <trkpt lat="42.400475000" lon="-2.332443000">
        <ele>410.00</ele>
        <time>2013-07-27T12:14:28Z</time>
      </trkpt>
      <trkpt lat="42.400458000" lon="-2.332472000">
        <ele>410.20</ele>
        <time>2013-07-27T12:14:29Z</time>
      </trkpt>
      <trkpt lat="42.400438000" lon="-2.332501000">
        <ele>410.60</ele>
        <time>2013-07-27T12:14:30Z</time>
      </trkpt>
      <trkpt lat="42.400418000" lon="-2.332525000">
        <ele>410.80</ele>
        <time>2013-07-27T12:14:31Z</time>
      </trkpt>
      <trkpt lat="42.400402000" lon="-2.332548000">
        <ele>411.10</ele>
        <time>2013-07-27T12:14:32Z</time>
      </trkpt>
      <trkpt lat="42.400387000" lon="-2.332571000">
        <ele>411.20</ele>
        <time>2013-07-27T12:14:33Z</time>
      </trkpt>
      <trkpt lat="42.400369000" lon="-2.332591000">
        <ele>411.20</ele>
        <time>2013-07-27T12:14:34Z</time>
      </trkpt>
      <trkpt lat="42.400351000" lon="-2.332614000">
        <ele>411.20</ele>
        <time>2013-07-27T12:14:35Z</time>
      </trkpt>
      <trkpt lat="42.400330000" lon="-2.332641000">
        <ele>411.10</ele>
        <time>2013-07-27T12:14:36Z</time>
      </trkpt>
      <trkpt lat="42.400303000" lon="-2.332671000">
        <ele>411.10</ele>
        <time>2013-07-27T12:14:37Z</time>
      </trkpt>
      <trkpt lat="42.400282000" lon="-2.332700000">
        <ele>411.10</ele>
        <time>2013-07-27T12:14:38Z</time>
      </trkpt>
      <trkpt lat="42.400260000" lon="-2.332731000">
        <ele>411.00</ele>
        <time>2013-07-27T12:14:39Z</time>
      </trkpt>
      <trkpt lat="42.400240000" lon="-2.332760000">
        <ele>411.20</ele>
        <time>2013-07-27T12:14:40Z</time>
      </trkpt>
      <trkpt lat="42.400218000" lon="-2.332788000">
        <ele>411.40</ele>
        <time>2013-07-27T12:14:41Z</time>
      </trkpt>
      <trkpt lat="42.400195000" lon="-2.332815000">
        <ele>411.50</ele>
        <time>2013-07-27T12:14:42Z</time>
      </trkpt>
      <trkpt lat="42.400175000" lon="-2.332844000">
        <ele>411.60</ele>
        <time>2013-07-27T12:14:43Z</time>
      </trkpt>
      <trkpt lat="42.400152000" lon="-2.332873000">
        <ele>411.60</ele>
        <time>2013-07-27T12:14:44Z</time>
      </trkpt>
      <trkpt lat="42.400130000" lon="-2.332903000">
        <ele>411.70</ele>
        <time>2013-07-27T12:14:45Z</time>
      </trkpt>
      <trkpt lat="42.400106000" lon="-2.332933000">
        <ele>411.70</ele>
        <time>2013-07-27T12:14:46Z</time>
      </trkpt>
      <trkpt lat="42.400085000" lon="-2.332964000">
        <ele>411.70</ele>
        <time>2013-07-27T12:14:47Z</time>
      </trkpt>
      <trkpt lat="42.400065000" lon="-2.332991000">
        <ele>412.00</ele>
        <time>2013-07-27T12:14:48Z</time>
      </trkpt>
      <trkpt lat="42.400044000" lon="-2.333020000">
        <ele>412.10</ele>
        <time>2013-07-27T12:14:49Z</time>
      </trkpt>
      <trkpt lat="42.400022000" lon="-2.333047000">
        <ele>412.30</ele>
        <time>2013-07-27T12:14:50Z</time>
      </trkpt>
      <trkpt lat="42.399999000" lon="-2.333074000">
        <ele>412.40</ele>
        <time>2013-07-27T12:14:51Z</time>
      </trkpt>
      <trkpt lat="42.399978000" lon="-2.333103000">
        <ele>412.50</ele>
        <time>2013-07-27T12:14:52Z</time>
      </trkpt>
      <trkpt lat="42.399957000" lon="-2.333132000">
        <ele>412.50</ele>
        <time>2013-07-27T12:14:53Z</time>
      </trkpt>
      <trkpt lat="42.399935000" lon="-2.333160000">
        <ele>412.80</ele>
        <time>2013-07-27T12:14:54Z</time>
      </trkpt>
      <trkpt lat="42.399911000" lon="-2.333185000">
        <ele>413.00</ele>
        <time>2013-07-27T12:14:55Z</time>
      </trkpt>
      <trkpt lat="42.399891000" lon="-2.333214000">
        <ele>413.20</ele>
        <time>2013-07-27T12:14:56Z</time>
      </trkpt>
      <trkpt lat="42.399873000" lon="-2.333248000">
        <ele>413.40</ele>
        <time>2013-07-27T12:14:57Z</time>
      </trkpt>
      <trkpt lat="42.399852000" lon="-2.333280000">
        <ele>413.60</ele>
        <time>2013-07-27T12:14:58Z</time>
      </trkpt>
      <trkpt lat="42.399829000" lon="-2.333306000">
        <ele>413.80</ele>
        <time>2013-07-27T12:14:59Z</time>
      </trkpt>
      <trkpt lat="42.399811000" lon="-2.333336000">
        <ele>413.90</ele>
        <time>2013-07-27T12:15:00Z</time>
      </trkpt>
      <trkpt lat="42.399790000" lon="-2.333366000">
        <ele>414.00</ele>
        <time>2013-07-27T12:15:01Z</time>
      </trkpt>
      <trkpt lat="42.399771000" lon="-2.333393000">
        <ele>414.10</ele>
        <time>2013-07-27T12:15:02Z</time>
      </trkpt>
      <trkpt lat="42.399752000" lon="-2.333421000">
        <ele>414.20</ele>
        <time>2013-07-27T12:15:03Z</time>
      </trkpt>
      <trkpt lat="42.399735000" lon="-2.333449000">
        <ele>414.30</ele>
        <time>2013-07-27T12:15:04Z</time>
      </trkpt>
      <trkpt lat="42.399717000" lon="-2.333478000">
        <ele>414.50</ele>
        <time>2013-07-27T12:15:05Z</time>
      </trkpt>
      <trkpt lat="42.399695000" lon="-2.333511000">
        <ele>414.60</ele>
        <time>2013-07-27T12:15:06Z</time>
      </trkpt>
      <trkpt lat="42.399675000" lon="-2.333538000">
        <ele>414.70</ele>
        <time>2013-07-27T12:15:07Z</time>
      </trkpt>
      <trkpt lat="42.399658000" lon="-2.333567000">
        <ele>414.90</ele>
        <time>2013-07-27T12:15:08Z</time>
      </trkpt>
      <trkpt lat="42.399635000" lon="-2.333594000">
        <ele>415.00</ele>
        <time>2013-07-27T12:15:09Z</time>
      </trkpt>
      <trkpt lat="42.399613000" lon="-2.333622000">
        <ele>415.20</ele>
        <time>2013-07-27T12:15:10Z</time>
      </trkpt>
      <trkpt lat="42.399593000" lon="-2.333650000">
        <ele>415.30</ele>
        <time>2013-07-27T12:15:11Z</time>
      </trkpt>
      <trkpt lat="42.399572000" lon="-2.333676000">
        <ele>415.70</ele>
        <time>2013-07-27T12:15:12Z</time>
      </trkpt>
      <trkpt lat="42.399552000" lon="-2.333704000">
        <ele>416.00</ele>
        <time>2013-07-27T12:15:13Z</time>
      </trkpt>
      <trkpt lat="42.399531000" lon="-2.333732000">
        <ele>416.30</ele>
        <time>2013-07-27T12:15:14Z</time>
      </trkpt>
      <trkpt lat="42.399509000" lon="-2.333763000">
        <ele>416.50</ele>
        <time>2013-07-27T12:15:15Z</time>
      </trkpt>
      <trkpt lat="42.399486000" lon="-2.333788000">
        <ele>416.80</ele>
        <time>2013-07-27T12:15:16Z</time>
      </trkpt>
      <trkpt lat="42.399463000" lon="-2.333817000">
        <ele>417.00</ele>
        <time>2013-07-27T12:15:17Z</time>
      </trkpt>
      <trkpt lat="42.399442000" lon="-2.333847000">
        <ele>417.10</ele>
        <time>2013-07-27T12:15:18Z</time>
      </trkpt>
      <trkpt lat="42.399422000" lon="-2.333873000">
        <ele>417.20</ele>
        <time>2013-07-27T12:15:19Z</time>
      </trkpt>
      <trkpt lat="42.399398000" lon="-2.333902000">
        <ele>417.30</ele>
        <time>2013-07-27T12:15:20Z</time>
      </trkpt>
      <trkpt lat="42.399375000" lon="-2.333931000">
        <ele>417.40</ele>
        <time>2013-07-27T12:15:21Z</time>
      </trkpt>
      <trkpt lat="42.399353000" lon="-2.333960000">
        <ele>417.40</ele>
        <time>2013-07-27T12:15:22Z</time>
      </trkpt>
      <trkpt lat="42.399333000" lon="-2.333987000">
        <ele>417.50</ele>
        <time>2013-07-27T12:15:23Z</time>
      </trkpt>
      <trkpt lat="42.399315000" lon="-2.334018000">
        <ele>417.50</ele>
        <time>2013-07-27T12:15:24Z</time>
      </trkpt>
      <trkpt lat="42.399297000" lon="-2.334043000">
        <ele>417.50</ele>
        <time>2013-07-27T12:15:25Z</time>
      </trkpt>
      <trkpt lat="42.399276000" lon="-2.334067000">
        <ele>417.60</ele>
        <time>2013-07-27T12:15:26Z</time>
      </trkpt>
      <trkpt lat="42.399255000" lon="-2.334093000">
        <ele>417.80</ele>
        <time>2013-07-27T12:15:27Z</time>
      </trkpt>
      <trkpt lat="42.399235000" lon="-2.334117000">
        <ele>418.20</ele>
        <time>2013-07-27T12:15:28Z</time>
      </trkpt>
      <trkpt lat="42.399214000" lon="-2.334145000">
        <ele>418.50</ele>
        <time>2013-07-27T12:15:29Z</time>
      </trkpt>
      <trkpt lat="42.399195000" lon="-2.334171000">
        <ele>418.70</ele>
        <time>2013-07-27T12:15:30Z</time>
      </trkpt>
      <trkpt lat="42.399176000" lon="-2.334197000">
        <ele>418.90</ele>
        <time>2013-07-27T12:15:31Z</time>
      </trkpt>
      <trkpt lat="42.399155000" lon="-2.334219000">
        <ele>419.10</ele>
        <time>2013-07-27T12:15:32Z</time>
      </trkpt>
      <trkpt lat="42.399133000" lon="-2.334238000">
        <ele>419.20</ele>
        <time>2013-07-27T12:15:33Z</time>
      </trkpt>
      <trkpt lat="42.399112000" lon="-2.334258000">
        <ele>419.40</ele>
        <time>2013-07-27T12:15:34Z</time>
      </trkpt>
      <trkpt lat="42.399092000" lon="-2.334278000">
        <ele>419.60</ele>
        <time>2013-07-27T12:15:35Z</time>
      </trkpt>
      <trkpt lat="42.399071000" lon="-2.334295000">
        <ele>419.80</ele>
        <time>2013-07-27T12:15:36Z</time>
      </trkpt>
      <trkpt lat="42.399051000" lon="-2.334317000">
        <ele>419.90</ele>
        <time>2013-07-27T12:15:37Z</time>
      </trkpt>
      <trkpt lat="42.399030000" lon="-2.334336000">
        <ele>420.10</ele>
        <time>2013-07-27T12:15:38Z</time>
      </trkpt>
      <trkpt lat="42.399009000" lon="-2.334360000">
        <ele>420.20</ele>
        <time>2013-07-27T12:15:39Z</time>
      </trkpt>
      <trkpt lat="42.398985000" lon="-2.334383000">
        <ele>420.30</ele>
        <time>2013-07-27T12:15:40Z</time>
      </trkpt>
      <trkpt lat="42.398960000" lon="-2.334401000">
        <ele>420.40</ele>
        <time>2013-07-27T12:15:41Z</time>
      </trkpt>
      <trkpt lat="42.398933000" lon="-2.334420000">
        <ele>420.60</ele>
        <time>2013-07-27T12:15:42Z</time>
      </trkpt>
      <trkpt lat="42.398906000" lon="-2.334436000">
        <ele>420.70</ele>
        <time>2013-07-27T12:15:43Z</time>
      </trkpt>
      <trkpt lat="42.398880000" lon="-2.334455000">
        <ele>420.90</ele>
        <time>2013-07-27T12:15:44Z</time>
      </trkpt>
      <trkpt lat="42.398853000" lon="-2.334475000">
        <ele>421.10</ele>
        <time>2013-07-27T12:15:45Z</time>
      </trkpt>
      <trkpt lat="42.398825000" lon="-2.334488000">
        <ele>421.40</ele>
        <time>2013-07-27T12:15:46Z</time>
      </trkpt>
      <trkpt lat="42.398796000" lon="-2.334502000">
        <ele>421.50</ele>
        <time>2013-07-27T12:15:47Z</time>
      </trkpt>
      <trkpt lat="42.398768000" lon="-2.334520000">
        <ele>421.60</ele>
        <time>2013-07-27T12:15:48Z</time>
      </trkpt>
      <trkpt lat="42.398740000" lon="-2.334537000">
        <ele>421.60</ele>
        <time>2013-07-27T12:15:49Z</time>
      </trkpt>
      <trkpt lat="42.398713000" lon="-2.334554000">
        <ele>421.90</ele>
        <time>2013-07-27T12:15:50Z</time>
      </trkpt>
      <trkpt lat="42.398687000" lon="-2.334569000">
        <ele>422.20</ele>
        <time>2013-07-27T12:15:51Z</time>
      </trkpt>
      <trkpt lat="42.398660000" lon="-2.334581000">
        <ele>422.30</ele>
        <time>2013-07-27T12:15:52Z</time>
      </trkpt>
      <trkpt lat="42.398634000" lon="-2.334595000">
        <ele>422.40</ele>
        <time>2013-07-27T12:15:53Z</time>
      </trkpt>
      <trkpt lat="42.398607000" lon="-2.334611000">
        <ele>422.50</ele>
        <time>2013-07-27T12:15:54Z</time>
      </trkpt>
      <trkpt lat="42.398580000" lon="-2.334620000">
        <ele>422.70</ele>
        <time>2013-07-27T12:15:55Z</time>
      </trkpt>
      <trkpt lat="42.398555000" lon="-2.334632000">
        <ele>422.90</ele>
        <time>2013-07-27T12:15:56Z</time>
      </trkpt>
      <trkpt lat="42.398530000" lon="-2.334645000">
        <ele>423.00</ele>
        <time>2013-07-27T12:15:57Z</time>
      </trkpt>
      <trkpt lat="42.398505000" lon="-2.334656000">
        <ele>423.10</ele>
        <time>2013-07-27T12:15:58Z</time>
      </trkpt>
      <trkpt lat="42.398480000" lon="-2.334666000">
        <ele>423.20</ele>
        <time>2013-07-27T12:15:59Z</time>
      </trkpt>
      <trkpt lat="42.398455000" lon="-2.334678000">
        <ele>423.30</ele>
        <time>2013-07-27T12:16:00Z</time>
      </trkpt>
      <trkpt lat="42.398428000" lon="-2.334691000">
        <ele>423.40</ele>
        <time>2013-07-27T12:16:01Z</time>
      </trkpt>
      <trkpt lat="42.398400000" lon="-2.334705000">
        <ele>423.70</ele>
        <time>2013-07-27T12:16:02Z</time>
      </trkpt>
      <trkpt lat="42.398377000" lon="-2.334715000">
        <ele>423.90</ele>
        <time>2013-07-27T12:16:03Z</time>
      </trkpt>
      <trkpt lat="42.398352000" lon="-2.334727000">
        <ele>424.10</ele>
        <time>2013-07-27T12:16:04Z</time>
      </trkpt>
      <trkpt lat="42.398327000" lon="-2.334739000">
        <ele>424.20</ele>
        <time>2013-07-27T12:16:05Z</time>
      </trkpt>
      <trkpt lat="42.398300000" lon="-2.334751000">
        <ele>424.30</ele>
        <time>2013-07-27T12:16:06Z</time>
      </trkpt>
      <trkpt lat="42.398272000" lon="-2.334763000">
        <ele>424.40</ele>
        <time>2013-07-27T12:16:07Z</time>
      </trkpt>
      <trkpt lat="42.398247000" lon="-2.334777000">
        <ele>424.40</ele>
        <time>2013-07-27T12:16:08Z</time>
      </trkpt>
      <trkpt lat="42.398220000" lon="-2.334792000">
        <ele>424.50</ele>
        <time>2013-07-27T12:16:09Z</time>
      </trkpt>
      <trkpt lat="42.398193000" lon="-2.334803000">
        <ele>424.70</ele>
        <time>2013-07-27T12:16:10Z</time>
      </trkpt>
      <trkpt lat="42.398166000" lon="-2.334816000">
        <ele>424.90</ele>
        <time>2013-07-27T12:16:11Z</time>
      </trkpt>
      <trkpt lat="42.398140000" lon="-2.334828000">
        <ele>425.00</ele>
        <time>2013-07-27T12:16:12Z</time>
      </trkpt>
      <trkpt lat="42.398110000" lon="-2.334839000">
        <ele>425.10</ele>
        <time>2013-07-27T12:16:13Z</time>
      </trkpt>
      <trkpt lat="42.398084000" lon="-2.334855000">
        <ele>425.30</ele>
        <time>2013-07-27T12:16:14Z</time>
      </trkpt>
      <trkpt lat="42.398054000" lon="-2.334870000">
        <ele>425.40</ele>
        <time>2013-07-27T12:16:15Z</time>
      </trkpt>
      <trkpt lat="42.398023000" lon="-2.334888000">
        <ele>425.70</ele>
        <time>2013-07-27T12:16:16Z</time>
      </trkpt>
      <trkpt lat="42.397996000" lon="-2.334901000">
        <ele>426.00</ele>
        <time>2013-07-27T12:16:17Z</time>
      </trkpt>
      <trkpt lat="42.397968000" lon="-2.334913000">
        <ele>426.20</ele>
        <time>2013-07-27T12:16:18Z</time>
      </trkpt>
      <trkpt lat="42.397942000" lon="-2.334925000">
        <ele>426.30</ele>
        <time>2013-07-27T12:16:19Z</time>
      </trkpt>
      <trkpt lat="42.397915000" lon="-2.334937000">
        <ele>426.50</ele>
        <time>2013-07-27T12:16:20Z</time>
      </trkpt>
      <trkpt lat="42.397889000" lon="-2.334951000">
        <ele>426.70</ele>
        <time>2013-07-27T12:16:21Z</time>
      </trkpt>
      <trkpt lat="42.397863000" lon="-2.334961000">
        <ele>426.80</ele>
        <time>2013-07-27T12:16:22Z</time>
      </trkpt>
      <trkpt lat="42.397836000" lon="-2.334976000">
        <ele>426.90</ele>
        <time>2013-07-27T12:16:23Z</time>
      </trkpt>
      <trkpt lat="42.397808000" lon="-2.334988000">
        <ele>427.00</ele>
        <time>2013-07-27T12:16:24Z</time>
      </trkpt>
      <trkpt lat="42.397779000" lon="-2.334999000">
        <ele>427.20</ele>
        <time>2013-07-27T12:16:25Z</time>
      </trkpt>
      <trkpt lat="42.397751000" lon="-2.335008000">
        <ele>427.50</ele>
        <time>2013-07-27T12:16:26Z</time>
      </trkpt>
      <trkpt lat="42.397727000" lon="-2.335021000">
        <ele>427.70</ele>
        <time>2013-07-27T12:16:27Z</time>
      </trkpt>
      <trkpt lat="42.397704000" lon="-2.335031000">
        <ele>427.90</ele>
        <time>2013-07-27T12:16:28Z</time>
      </trkpt>
      <trkpt lat="42.397679000" lon="-2.335041000">
        <ele>428.00</ele>
        <time>2013-07-27T12:16:29Z</time>
      </trkpt>
      <trkpt lat="42.397655000" lon="-2.335055000">
        <ele>428.10</ele>
        <time>2013-07-27T12:16:30Z</time>
      </trkpt>
      <trkpt lat="42.397633000" lon="-2.335072000">
        <ele>428.20</ele>
        <time>2013-07-27T12:16:31Z</time>
      </trkpt>
      <trkpt lat="42.397611000" lon="-2.335091000">
        <ele>428.50</ele>
        <time>2013-07-27T12:16:32Z</time>
      </trkpt>
      <trkpt lat="42.397589000" lon="-2.335116000">
        <ele>428.70</ele>
        <time>2013-07-27T12:16:33Z</time>
      </trkpt>
      <trkpt lat="42.397571000" lon="-2.335139000">
        <ele>429.00</ele>
        <time>2013-07-27T12:16:34Z</time>
      </trkpt>
      <trkpt lat="42.397556000" lon="-2.335162000">
        <ele>429.20</ele>
        <time>2013-07-27T12:16:35Z</time>
      </trkpt>
      <trkpt lat="42.397541000" lon="-2.335187000">
        <ele>429.50</ele>
        <time>2013-07-27T12:16:36Z</time>
      </trkpt>
      <trkpt lat="42.397534000" lon="-2.335219000">
        <ele>429.80</ele>
        <time>2013-07-27T12:16:37Z</time>
      </trkpt>
      <trkpt lat="42.397531000" lon="-2.335255000">
        <ele>430.00</ele>
        <time>2013-07-27T12:16:38Z</time>
      </trkpt>
      <trkpt lat="42.397538000" lon="-2.335290000">
        <ele>430.20</ele>
        <time>2013-07-27T12:16:39Z</time>
      </trkpt>
      <trkpt lat="42.397554000" lon="-2.335321000">
        <ele>430.50</ele>
        <time>2013-07-27T12:16:40Z</time>
      </trkpt>
      <trkpt lat="42.397578000" lon="-2.335346000">
        <ele>430.70</ele>
        <time>2013-07-27T12:16:41Z</time>
      </trkpt>
      <trkpt lat="42.397605000" lon="-2.335365000">
        <ele>431.10</ele>
        <time>2013-07-27T12:16:42Z</time>
      </trkpt>
      <trkpt lat="42.397636000" lon="-2.335385000">
        <ele>431.40</ele>
        <time>2013-07-27T12:16:43Z</time>
      </trkpt>
      <trkpt lat="42.397665000" lon="-2.335394000">
        <ele>431.90</ele>
        <time>2013-07-27T12:16:44Z</time>
      </trkpt>
      <trkpt lat="42.397692000" lon="-2.335393000">
        <ele>432.20</ele>
        <time>2013-07-27T12:16:45Z</time>
      </trkpt>
      <trkpt lat="42.397717000" lon="-2.335387000">
        <ele>432.70</ele>
        <time>2013-07-27T12:16:46Z</time>
      </trkpt>
      <trkpt lat="42.397741000" lon="-2.335380000">
        <ele>433.00</ele>
        <time>2013-07-27T12:16:47Z</time>
      </trkpt>
      <trkpt lat="42.397768000" lon="-2.335371000">
        <ele>433.50</ele>
        <time>2013-07-27T12:16:48Z</time>
      </trkpt>
      <trkpt lat="42.397800000" lon="-2.335362000">
        <ele>433.80</ele>
        <time>2013-07-27T12:16:49Z</time>
      </trkpt>
      <trkpt lat="42.397831000" lon="-2.335352000">
        <ele>434.10</ele>
        <time>2013-07-27T12:16:50Z</time>
      </trkpt>
      <trkpt lat="42.397863000" lon="-2.335339000">
        <ele>434.40</ele>
        <time>2013-07-27T12:16:51Z</time>
      </trkpt>
      <trkpt lat="42.397896000" lon="-2.335326000">
        <ele>434.80</ele>
        <time>2013-07-27T12:16:52Z</time>
      </trkpt>
      <trkpt lat="42.397926000" lon="-2.335316000">
        <ele>435.20</ele>
        <time>2013-07-27T12:16:53Z</time>
      </trkpt>
      <trkpt lat="42.397955000" lon="-2.335302000">
        <ele>435.50</ele>
        <time>2013-07-27T12:16:54Z</time>
      </trkpt>
      <trkpt lat="42.397986000" lon="-2.335291000">
        <ele>435.80</ele>
        <time>2013-07-27T12:16:55Z</time>
      </trkpt>
      <trkpt lat="42.398013000" lon="-2.335279000">
        <ele>436.10</ele>
        <time>2013-07-27T12:16:56Z</time>
      </trkpt>
      <trkpt lat="42.398040000" lon="-2.335271000">
        <ele>436.30</ele>
        <time>2013-07-27T12:16:57Z</time>
      </trkpt>
      <trkpt lat="42.398070000" lon="-2.335260000">
        <ele>436.50</ele>
        <time>2013-07-27T12:16:58Z</time>
      </trkpt>
      <trkpt lat="42.398100000" lon="-2.335250000">
        <ele>436.60</ele>
        <time>2013-07-27T12:16:59Z</time>
      </trkpt>
      <trkpt lat="42.398132000" lon="-2.335240000">
        <ele>437.20</ele>
        <time>2013-07-27T12:17:00Z</time>
      </trkpt>
      <trkpt lat="42.398162000" lon="-2.335233000">
        <ele>437.60</ele>
        <time>2013-07-27T12:17:01Z</time>
      </trkpt>
      <trkpt lat="42.398191000" lon="-2.335229000">
        <ele>438.00</ele>
        <time>2013-07-27T12:17:02Z</time>
      </trkpt>
      <trkpt lat="42.398221000" lon="-2.335229000">
        <ele>438.20</ele>
        <time>2013-07-27T12:17:03Z</time>
      </trkpt>
      <trkpt lat="42.398246000" lon="-2.335230000">
        <ele>438.30</ele>
        <time>2013-07-27T12:17:04Z</time>
      </trkpt>
      <trkpt lat="42.398269000" lon="-2.335235000">
        <ele>438.40</ele>
        <time>2013-07-27T12:17:05Z</time>
      </trkpt>
      <trkpt lat="42.398294000" lon="-2.335245000">
        <ele>438.50</ele>
        <time>2013-07-27T12:17:06Z</time>
      </trkpt>
      <trkpt lat="42.398318000" lon="-2.335259000">
        <ele>438.50</ele>
        <time>2013-07-27T12:17:07Z</time>
      </trkpt>
      <trkpt lat="42.398342000" lon="-2.335278000">
        <ele>438.80</ele>
        <time>2013-07-27T12:17:08Z</time>
      </trkpt>
      <trkpt lat="42.398363000" lon="-2.335301000">
        <ele>439.00</ele>
        <time>2013-07-27T12:17:09Z</time>
      </trkpt>
      <trkpt lat="42.398379000" lon="-2.335330000">
        <ele>439.30</ele>
        <time>2013-07-27T12:17:10Z</time>
      </trkpt>
      <trkpt lat="42.398391000" lon="-2.335363000">
        <ele>439.50</ele>
        <time>2013-07-27T12:17:11Z</time>
      </trkpt>
      <trkpt lat="42.398404000" lon="-2.335399000">
        <ele>439.80</ele>
        <time>2013-07-27T12:17:12Z</time>
      </trkpt>
      <trkpt lat="42.398414000" lon="-2.335439000">
        <ele>439.90</ele>
        <time>2013-07-27T12:17:13Z</time>
      </trkpt>
      <trkpt lat="42.398421000" lon="-2.335476000">
        <ele>440.10</ele>
        <time>2013-07-27T12:17:14Z</time>
      </trkpt>
      <trkpt lat="42.398423000" lon="-2.335512000">
        <ele>440.20</ele>
        <time>2013-07-27T12:17:15Z</time>
      </trkpt>
      <trkpt lat="42.398421000" lon="-2.335548000">
        <ele>440.30</ele>
        <time>2013-07-27T12:17:16Z</time>
      </trkpt>
      <trkpt lat="42.398411000" lon="-2.335584000">
        <ele>440.30</ele>
        <time>2013-07-27T12:17:17Z</time>
      </trkpt>
      <trkpt lat="42.398403000" lon="-2.335620000">
        <ele>440.90</ele>
        <time>2013-07-27T12:17:18Z</time>
      </trkpt>
      <trkpt lat="42.398394000" lon="-2.335656000">
        <ele>441.30</ele>
        <time>2013-07-27T12:17:19Z</time>
      </trkpt>
      <trkpt lat="42.398386000" lon="-2.335692000">
        <ele>441.80</ele>
        <time>2013-07-27T12:17:20Z</time>
      </trkpt>
      <trkpt lat="42.398376000" lon="-2.335727000">
        <ele>442.20</ele>
        <time>2013-07-27T12:17:21Z</time>
      </trkpt>
      <trkpt lat="42.398367000" lon="-2.335761000">
        <ele>442.50</ele>
        <time>2013-07-27T12:17:22Z</time>
      </trkpt>
      <trkpt lat="42.398358000" lon="-2.335797000">
        <ele>442.80</ele>
        <time>2013-07-27T12:17:23Z</time>
      </trkpt>
      <trkpt lat="42.398346000" lon="-2.335833000">
        <ele>443.20</ele>
        <time>2013-07-27T12:17:24Z</time>
      </trkpt>
      <trkpt lat="42.398335000" lon="-2.335868000">
        <ele>443.50</ele>
        <time>2013-07-27T12:17:25Z</time>
      </trkpt>
      <trkpt lat="42.398327000" lon="-2.335906000">
        <ele>443.70</ele>
        <time>2013-07-27T12:17:26Z</time>
      </trkpt>
      <trkpt lat="42.398322000" lon="-2.335944000">
        <ele>443.90</ele>
        <time>2013-07-27T12:17:27Z</time>
      </trkpt>
      <trkpt lat="42.398314000" lon="-2.335980000">
        <ele>444.20</ele>
        <time>2013-07-27T12:17:28Z</time>
      </trkpt>
      <trkpt lat="42.398310000" lon="-2.336017000">
        <ele>444.50</ele>
        <time>2013-07-27T12:17:29Z</time>
      </trkpt>
      <trkpt lat="42.398309000" lon="-2.336054000">
        <ele>444.70</ele>
        <time>2013-07-27T12:17:30Z</time>
      </trkpt>
      <trkpt lat="42.398311000" lon="-2.336093000">
        <ele>444.90</ele>
        <time>2013-07-27T12:17:31Z</time>
      </trkpt>
      <trkpt lat="42.398311000" lon="-2.336132000">
        <ele>445.10</ele>
        <time>2013-07-27T12:17:32Z</time>
      </trkpt>
      <trkpt lat="42.398313000" lon="-2.336171000">
        <ele>445.20</ele>
        <time>2013-07-27T12:17:33Z</time>
      </trkpt>
      <trkpt lat="42.398318000" lon="-2.336210000">
        <ele>445.30</ele>
        <time>2013-07-27T12:17:34Z</time>
      </trkpt>
      <trkpt lat="42.398322000" lon="-2.336251000">
        <ele>445.40</ele>
        <time>2013-07-27T12:17:35Z</time>
      </trkpt>
      <trkpt lat="42.398328000" lon="-2.336291000">
        <ele>445.60</ele>
        <time>2013-07-27T12:17:36Z</time>
      </trkpt>
      <trkpt lat="42.398334000" lon="-2.336334000">
        <ele>445.80</ele>
        <time>2013-07-27T12:17:37Z</time>
      </trkpt>
      <trkpt lat="42.398343000" lon="-2.336373000">
        <ele>446.00</ele>
        <time>2013-07-27T12:17:38Z</time>
      </trkpt>
      <trkpt lat="42.398351000" lon="-2.336412000">
        <ele>446.20</ele>
        <time>2013-07-27T12:17:39Z</time>
      </trkpt>
      <trkpt lat="42.398362000" lon="-2.336451000">
        <ele>446.50</ele>
        <time>2013-07-27T12:17:40Z</time>
      </trkpt>
      <trkpt lat="42.398373000" lon="-2.336490000">
        <ele>446.70</ele>
        <time>2013-07-27T12:17:41Z</time>
      </trkpt>
      <trkpt lat="42.398386000" lon="-2.336527000">
        <ele>446.90</ele>
        <time>2013-07-27T12:17:42Z</time>
      </trkpt>
      <trkpt lat="42.398400000" lon="-2.336563000">
        <ele>447.10</ele>
        <time>2013-07-27T12:17:43Z</time>
      </trkpt>
      <trkpt lat="42.398417000" lon="-2.336599000">
        <ele>447.40</ele>
        <time>2013-07-27T12:17:44Z</time>
      </trkpt>
      <trkpt lat="42.398431000" lon="-2.336636000">
        <ele>447.70</ele>
        <time>2013-07-27T12:17:45Z</time>
      </trkpt>
      <trkpt lat="42.398445000" lon="-2.336673000">
        <ele>448.10</ele>
        <time>2013-07-27T12:17:46Z</time>
      </trkpt>
      <trkpt lat="42.398464000" lon="-2.336707000">
        <ele>448.40</ele>
        <time>2013-07-27T12:17:47Z</time>
      </trkpt>
      <trkpt lat="42.398481000" lon="-2.336737000">
        <ele>448.80</ele>
        <time>2013-07-27T12:17:48Z</time>
      </trkpt>
      <trkpt lat="42.398499000" lon="-2.336773000">
        <ele>449.10</ele>
        <time>2013-07-27T12:17:49Z</time>
      </trkpt>
      <trkpt lat="42.398515000" lon="-2.336807000">
        <ele>449.50</ele>
        <time>2013-07-27T12:17:50Z</time>
      </trkpt>
      <trkpt lat="42.398532000" lon="-2.336840000">
        <ele>449.80</ele>
        <time>2013-07-27T12:17:51Z</time>
      </trkpt>
      <trkpt lat="42.398548000" lon="-2.336874000">
        <ele>450.00</ele>
        <time>2013-07-27T12:17:52Z</time>
      </trkpt>
      <trkpt lat="42.398566000" lon="-2.336906000">
        <ele>450.20</ele>
        <time>2013-07-27T12:17:53Z</time>
      </trkpt>
      <trkpt lat="42.398584000" lon="-2.336940000">
        <ele>450.30</ele>
        <time>2013-07-27T12:17:54Z</time>
      </trkpt>
      <trkpt lat="42.398600000" lon="-2.336975000">
        <ele>450.40</ele>
        <time>2013-07-27T12:17:55Z</time>
      </trkpt>
      <trkpt lat="42.398617000" lon="-2.337010000">
        <ele>450.80</ele>
        <time>2013-07-27T12:17:56Z</time>
      </trkpt>
      <trkpt lat="42.398632000" lon="-2.337044000">
        <ele>451.00</ele>
        <time>2013-07-27T12:17:57Z</time>
      </trkpt>
      <trkpt lat="42.398648000" lon="-2.337073000">
        <ele>451.30</ele>
        <time>2013-07-27T12:17:58Z</time>
      </trkpt>
      <trkpt lat="42.398663000" lon="-2.337099000">
        <ele>451.50</ele>
        <time>2013-07-27T12:17:59Z</time>
      </trkpt>
      <trkpt lat="42.398678000" lon="-2.337126000">
        <ele>451.70</ele>
        <time>2013-07-27T12:18:00Z</time>
      </trkpt>
      <trkpt lat="42.398692000" lon="-2.337155000">
        <ele>451.90</ele>
        <time>2013-07-27T12:18:01Z</time>
      </trkpt>
      <trkpt lat="42.398705000" lon="-2.337182000">
        <ele>452.10</ele>
        <time>2013-07-27T12:18:02Z</time>
      </trkpt>
      <trkpt lat="42.398720000" lon="-2.337209000">
        <ele>452.20</ele>
        <time>2013-07-27T12:18:03Z</time>
      </trkpt>
      <trkpt lat="42.398737000" lon="-2.337237000">
        <ele>452.40</ele>
        <time>2013-07-27T12:18:04Z</time>
      </trkpt>
      <trkpt lat="42.398752000" lon="-2.337266000">
        <ele>452.60</ele>
        <time>2013-07-27T12:18:05Z</time>
      </trkpt>
      <trkpt lat="42.398766000" lon="-2.337296000">
        <ele>452.70</ele>
        <time>2013-07-27T12:18:06Z</time>
      </trkpt>
      <trkpt lat="42.398781000" lon="-2.337326000">
        <ele>452.80</ele>
        <time>2013-07-27T12:18:07Z</time>
      </trkpt>
      <trkpt lat="42.398796000" lon="-2.337355000">
        <ele>453.00</ele>
        <time>2013-07-27T12:18:08Z</time>
      </trkpt>
      <trkpt lat="42.398811000" lon="-2.337380000">
        <ele>453.10</ele>
        <time>2013-07-27T12:18:09Z</time>
      </trkpt>
      <trkpt lat="42.398824000" lon="-2.337408000">
        <ele>453.20</ele>
        <time>2013-07-27T12:18:10Z</time>
      </trkpt>
      <trkpt lat="42.398837000" lon="-2.337435000">
        <ele>453.30</ele>
        <time>2013-07-27T12:18:11Z</time>
      </trkpt>
      <trkpt lat="42.398851000" lon="-2.337459000">
        <ele>453.50</ele>
        <time>2013-07-27T12:18:12Z</time>
      </trkpt>
      <trkpt lat="42.398866000" lon="-2.337486000">
        <ele>453.70</ele>
        <time>2013-07-27T12:18:13Z</time>
      </trkpt>
      <trkpt lat="42.398875000" lon="-2.337511000">
        <ele>453.90</ele>
        <time>2013-07-27T12:18:14Z</time>
      </trkpt>
      <trkpt lat="42.398888000" lon="-2.337536000">
        <ele>454.10</ele>
        <time>2013-07-27T12:18:15Z</time>
      </trkpt>
      <trkpt lat="42.398903000" lon="-2.337557000">
        <ele>454.20</ele>
        <time>2013-07-27T12:18:16Z</time>
      </trkpt>
      <trkpt lat="42.398913000" lon="-2.337580000">
        <ele>454.30</ele>
        <time>2013-07-27T12:18:17Z</time>
      </trkpt>
      <trkpt lat="42.398926000" lon="-2.337601000">
        <ele>454.40</ele>
        <time>2013-07-27T12:18:18Z</time>
      </trkpt>
      <trkpt lat="42.398937000" lon="-2.337622000">
        <ele>454.40</ele>
        <time>2013-07-27T12:18:19Z</time>
      </trkpt>
      <trkpt lat="42.398948000" lon="-2.337641000">
        <ele>454.50</ele>
        <time>2013-07-27T12:18:20Z</time>
      </trkpt>
      <trkpt lat="42.398959000" lon="-2.337658000">
        <ele>454.60</ele>
        <time>2013-07-27T12:18:21Z</time>
      </trkpt>
      <trkpt lat="42.398970000" lon="-2.337671000">
        <ele>454.70</ele>
        <time>2013-07-27T12:18:22Z</time>
      </trkpt>
      <trkpt lat="42.398981000" lon="-2.337686000">
        <ele>454.80</ele>
        <time>2013-07-27T12:18:23Z</time>
      </trkpt>
      <trkpt lat="42.398994000" lon="-2.337701000">
        <ele>454.90</ele>
        <time>2013-07-27T12:18:24Z</time>
      </trkpt>
      <trkpt lat="42.399007000" lon="-2.337714000">
        <ele>454.90</ele>
        <time>2013-07-27T12:18:25Z</time>
      </trkpt>
      <trkpt lat="42.399011000" lon="-2.337716000">
        <ele>455.10</ele>
        <time>2013-07-27T12:18:26Z</time>
      </trkpt>
      <trkpt lat="42.399015000" lon="-2.337719000">
        <ele>455.20</ele>
        <time>2013-07-27T12:18:27Z</time>
      </trkpt>
      <trkpt lat="42.399016000" lon="-2.337721000">
        <ele>455.20</ele>
        <time>2013-07-27T12:18:28Z</time>
      </trkpt>
      <trkpt lat="42.399018000" lon="-2.337718000">
        <ele>455.10</ele>
        <time>2013-07-27T12:18:29Z</time>
      </trkpt>
      <trkpt lat="42.399020000" lon="-2.337719000">
        <ele>455.10</ele>
        <time>2013-07-27T12:18:30Z</time>
      </trkpt>
      <trkpt lat="42.399023000" lon="-2.337721000">
        <ele>455.00</ele>
        <time>2013-07-27T12:18:31Z</time>
      </trkpt>
      <trkpt lat="42.399024000" lon="-2.337722000">
        <ele>455.00</ele>
        <time>2013-07-27T12:18:32Z</time>
      </trkpt>
      <trkpt lat="42.399026000" lon="-2.337725000">
        <ele>454.90</ele>
        <time>2013-07-27T12:18:33Z</time>
      </trkpt>
      <trkpt lat="42.399032000" lon="-2.337730000">
        <ele>454.80</ele>
        <time>2013-07-27T12:18:34Z</time>
      </trkpt>
      <trkpt lat="42.399033000" lon="-2.337731000">
        <ele>454.80</ele>
        <time>2013-07-27T12:18:35Z</time>
      </trkpt>
      <trkpt lat="42.399034000" lon="-2.337732000">
        <ele>454.80</ele>
        <time>2013-07-27T12:18:36Z</time>
      </trkpt>
      <trkpt lat="42.399036000" lon="-2.337733000">
        <ele>454.80</ele>
        <time>2013-07-27T12:18:37Z</time>
      </trkpt>
      <trkpt lat="42.399036000" lon="-2.337737000">
        <ele>454.70</ele>
        <time>2013-07-27T12:18:38Z</time>
      </trkpt>
      <trkpt lat="42.399034000" lon="-2.337737000">
        <ele>454.70</ele>
        <time>2013-07-27T12:18:39Z</time>
      </trkpt>
      <trkpt lat="42.399034000" lon="-2.337739000">
        <ele>454.60</ele>
        <time>2013-07-27T12:18:40Z</time>
      </trkpt>
      <trkpt lat="42.399033000" lon="-2.337740000">
        <ele>454.60</ele>
        <time>2013-07-27T12:18:41Z</time>
      </trkpt>
      <trkpt lat="42.399032000" lon="-2.337739000">
        <ele>454.60</ele>
        <time>2013-07-27T12:18:42Z</time>
      </trkpt>
      <trkpt lat="42.399033000" lon="-2.337742000">
        <ele>454.60</ele>
        <time>2013-07-27T12:18:43Z</time>
      </trkpt>
      <trkpt lat="42.399036000" lon="-2.337742000">
        <ele>454.70</ele>
        <time>2013-07-27T12:18:44Z</time>
      </trkpt>
      <trkpt lat="42.399036000" lon="-2.337744000">
        <ele>454.80</ele>
        <time>2013-07-27T12:18:45Z</time>
      </trkpt>
      <trkpt lat="42.399038000" lon="-2.337744000">
        <ele>454.90</ele>
        <time>2013-07-27T12:18:46Z</time>
      </trkpt>
      <trkpt lat="42.399040000" lon="-2.337743000">
        <ele>455.00</ele>
        <time>2013-07-27T12:18:47Z</time>
      </trkpt>
      <trkpt lat="42.399039000" lon="-2.337743000">
        <ele>455.00</ele>
        <time>2013-07-27T12:18:48Z</time>
      </trkpt>
      <trkpt lat="42.399039000" lon="-2.337746000">
        <ele>455.10</ele>
        <time>2013-07-27T12:18:49Z</time>
      </trkpt>
      <trkpt lat="42.399040000" lon="-2.337745000">
        <ele>455.00</ele>
        <time>2013-07-27T12:18:50Z</time>
      </trkpt>
      <trkpt lat="42.399038000" lon="-2.337744000">
        <ele>454.90</ele>
        <time>2013-07-27T12:18:51Z</time>
      </trkpt>
      <trkpt lat="42.399037000" lon="-2.337741000">
        <ele>455.00</ele>
        <time>2013-07-27T12:18:52Z</time>
      </trkpt>
      <trkpt lat="42.399040000" lon="-2.337743000">
        <ele>455.00</ele>
        <time>2013-07-27T12:18:53Z</time>
      </trkpt>
      <trkpt lat="42.399045000" lon="-2.337751000">
        <ele>455.00</ele>
        <time>2013-07-27T12:18:54Z</time>
      </trkpt>
      <trkpt lat="42.399047000" lon="-2.337757000">
        <ele>454.90</ele>
        <time>2013-07-27T12:18:55Z</time>
      </trkpt>
      <trkpt lat="42.399048000" lon="-2.337760000">
        <ele>455.00</ele>
        <time>2013-07-27T12:18:56Z</time>
      </trkpt>
      <trkpt lat="42.399046000" lon="-2.337758000">
        <ele>455.00</ele>
        <time>2013-07-27T12:18:57Z</time>
      </trkpt>
      <trkpt lat="42.399045000" lon="-2.337754000">
        <ele>454.90</ele>
        <time>2013-07-27T12:18:58Z</time>
      </trkpt>
      <trkpt lat="42.399045000" lon="-2.337752000">
        <ele>454.90</ele>
        <time>2013-07-27T12:18:59Z</time>
      </trkpt>
      <trkpt lat="42.399046000" lon="-2.337749000">
        <ele>455.00</ele>
        <time>2013-07-27T12:19:00Z</time>
      </trkpt>
      <trkpt lat="42.399046000" lon="-2.337747000">
        <ele>455.00</ele>
        <time>2013-07-27T12:19:01Z</time>
      </trkpt>
      <trkpt lat="42.399048000" lon="-2.337744000">
        <ele>455.10</ele>
        <time>2013-07-27T12:19:02Z</time>
      </trkpt>
      <trkpt lat="42.399049000" lon="-2.337742000">
        <ele>455.10</ele>
        <time>2013-07-27T12:19:03Z</time>
      </trkpt>
      <trkpt lat="42.399050000" lon="-2.337741000">
        <ele>455.20</ele>
        <time>2013-07-27T12:19:04Z</time>
      </trkpt>
      <trkpt lat="42.399050000" lon="-2.337741000">
        <ele>455.20</ele>
        <time>2013-07-27T12:19:05Z</time>
      </trkpt>
      <trkpt lat="42.399052000" lon="-2.337740000">
        <ele>455.30</ele>
        <time>2013-07-27T12:19:06Z</time>
      </trkpt>
      <trkpt lat="42.399053000" lon="-2.337741000">
        <ele>455.30</ele>
        <time>2013-07-27T12:19:07Z</time>
      </trkpt>
      <trkpt lat="42.399057000" lon="-2.337743000">
        <ele>455.30</ele>
        <time>2013-07-27T12:19:08Z</time>
      </trkpt>
      <trkpt lat="42.399057000" lon="-2.337753000">
        <ele>455.40</ele>
        <time>2013-07-27T12:19:09Z</time>
      </trkpt>
      <trkpt lat="42.399058000" lon="-2.337764000">
        <ele>455.30</ele>
        <time>2013-07-27T12:19:10Z</time>
      </trkpt>
      <trkpt lat="42.399058000" lon="-2.337774000">
        <ele>455.30</ele>
        <time>2013-07-27T12:19:11Z</time>
      </trkpt>
      <trkpt lat="42.399056000" lon="-2.337776000">
        <ele>455.20</ele>
        <time>2013-07-27T12:19:12Z</time>
      </trkpt>
      <trkpt lat="42.399055000" lon="-2.337781000">
        <ele>455.20</ele>
        <time>2013-07-27T12:19:13Z</time>
      </trkpt>
      <trkpt lat="42.399053000" lon="-2.337781000">
        <ele>455.20</ele>
        <time>2013-07-27T12:19:14Z</time>
      </trkpt>
      <trkpt lat="42.399054000" lon="-2.337780000">
        <ele>455.20</ele>
        <time>2013-07-27T12:19:15Z</time>
      </trkpt>
      <trkpt lat="42.399053000" lon="-2.337782000">
        <ele>455.20</ele>
        <time>2013-07-27T12:19:16Z</time>
      </trkpt>
      <trkpt lat="42.399052000" lon="-2.337783000">
        <ele>455.20</ele>
        <time>2013-07-27T12:19:17Z</time>
      </trkpt>
      <trkpt lat="42.399052000" lon="-2.337784000">
        <ele>455.20</ele>
        <time>2013-07-27T12:19:18Z</time>
      </trkpt>
      <trkpt lat="42.399054000" lon="-2.337794000">
        <ele>455.30</ele>
        <time>2013-07-27T12:19:19Z</time>
      </trkpt>
      <trkpt lat="42.399055000" lon="-2.337798000">
        <ele>455.30</ele>
        <time>2013-07-27T12:19:20Z</time>
      </trkpt>
      <trkpt lat="42.399056000" lon="-2.337803000">
        <ele>455.30</ele>
        <time>2013-07-27T12:19:21Z</time>
      </trkpt>
      <trkpt lat="42.399057000" lon="-2.337806000">
        <ele>455.40</ele>
        <time>2013-07-27T12:19:22Z</time>
      </trkpt>
      <trkpt lat="42.399055000" lon="-2.337809000">
        <ele>455.40</ele>
        <time>2013-07-27T12:19:23Z</time>
      </trkpt>
      <trkpt lat="42.399056000" lon="-2.337812000">
        <ele>455.30</ele>
        <time>2013-07-27T12:19:24Z</time>
      </trkpt>
      <trkpt lat="42.399056000" lon="-2.337815000">
        <ele>455.20</ele>
        <time>2013-07-27T12:19:25Z</time>
      </trkpt>
      <trkpt lat="42.399059000" lon="-2.337817000">
        <ele>455.10</ele>
        <time>2013-07-27T12:19:26Z</time>
      </trkpt>
      <trkpt lat="42.399062000" lon="-2.337817000">
        <ele>455.00</ele>
        <time>2013-07-27T12:19:27Z</time>
      </trkpt>
      <trkpt lat="42.399062000" lon="-2.337815000">
        <ele>455.00</ele>
        <time>2013-07-27T12:19:28Z</time>
      </trkpt>
      <trkpt lat="42.399059000" lon="-2.337815000">
        <ele>455.00</ele>
        <time>2013-07-27T12:19:29Z</time>
      </trkpt>
      <trkpt lat="42.399056000" lon="-2.337812000">
        <ele>455.00</ele>
        <time>2013-07-27T12:19:30Z</time>
      </trkpt>
      <trkpt lat="42.399056000" lon="-2.337812000">
        <ele>455.10</ele>
        <time>2013-07-27T12:19:31Z</time>
      </trkpt>
      <trkpt lat="42.399056000" lon="-2.337814000">
        <ele>455.10</ele>
        <time>2013-07-27T12:19:32Z</time>
      </trkpt>
      <trkpt lat="42.399057000" lon="-2.337815000">
        <ele>455.10</ele>
        <time>2013-07-27T12:19:33Z</time>
      </trkpt>
      <trkpt lat="42.399057000" lon="-2.337815000">
        <ele>455.10</ele>
        <time>2013-07-27T12:19:34Z</time>
      </trkpt>
      <trkpt lat="42.399057000" lon="-2.337813000">
        <ele>455.10</ele>
        <time>2013-07-27T12:19:35Z</time>
      </trkpt>
      <trkpt lat="42.399057000" lon="-2.337811000">
        <ele>455.20</ele>
        <time>2013-07-27T12:19:36Z</time>
      </trkpt>
      <trkpt lat="42.399056000" lon="-2.337810000">
        <ele>455.30</ele>
        <time>2013-07-27T12:19:37Z</time>
      </trkpt>
      <trkpt lat="42.399053000" lon="-2.337811000">
        <ele>455.30</ele>
        <time>2013-07-27T12:19:38Z</time>
      </trkpt>
      <trkpt lat="42.399051000" lon="-2.337809000">
        <ele>455.30</ele>
        <time>2013-07-27T12:19:39Z</time>
      </trkpt>
      <trkpt lat="42.399049000" lon="-2.337809000">
        <ele>455.30</ele>
        <time>2013-07-27T12:19:40Z</time>
      </trkpt>
      <trkpt lat="42.399048000" lon="-2.337808000">
        <ele>455.40</ele>
        <time>2013-07-27T12:19:41Z</time>
      </trkpt>
      <trkpt lat="42.399045000" lon="-2.337807000">
        <ele>455.30</ele>
        <time>2013-07-27T12:19:42Z</time>
      </trkpt>
      <trkpt lat="42.399045000" lon="-2.337806000">
        <ele>455.30</ele>
        <time>2013-07-27T12:19:43Z</time>
      </trkpt>
      <trkpt lat="42.399045000" lon="-2.337804000">
        <ele>455.20</ele>
        <time>2013-07-27T12:19:44Z</time>
      </trkpt>
      <trkpt lat="42.399046000" lon="-2.337802000">
        <ele>455.20</ele>
        <time>2013-07-27T12:19:45Z</time>
      </trkpt>
      <trkpt lat="42.399046000" lon="-2.337801000">
        <ele>455.20</ele>
        <time>2013-07-27T12:19:46Z</time>
      </trkpt>
      <trkpt lat="42.399045000" lon="-2.337798000">
        <ele>455.20</ele>
        <time>2013-07-27T12:19:47Z</time>
      </trkpt>
      <trkpt lat="42.399047000" lon="-2.337796000">
        <ele>455.10</ele>
        <time>2013-07-27T12:19:48Z</time>
      </trkpt>
      <trkpt lat="42.399047000" lon="-2.337795000">
        <ele>455.10</ele>
        <time>2013-07-27T12:19:49Z</time>
      </trkpt>
      <trkpt lat="42.399048000" lon="-2.337795000">
        <ele>455.00</ele>
        <time>2013-07-27T12:19:50Z</time>
      </trkpt>
      <trkpt lat="42.399049000" lon="-2.337796000">
        <ele>455.00</ele>
        <time>2013-07-27T12:19:51Z</time>
      </trkpt>
      <trkpt lat="42.399051000" lon="-2.337796000">
        <ele>455.00</ele>
        <time>2013-07-27T12:19:52Z</time>
      </trkpt>
      <trkpt lat="42.399050000" lon="-2.337794000">
        <ele>455.10</ele>
        <time>2013-07-27T12:19:53Z</time>
      </trkpt>
      <trkpt lat="42.399050000" lon="-2.337794000">
        <ele>455.20</ele>
        <time>2013-07-27T12:19:54Z</time>
      </trkpt>
      <trkpt lat="42.399050000" lon="-2.337795000">
        <ele>455.30</ele>
        <time>2013-07-27T12:19:55Z</time>
      </trkpt>
      <trkpt lat="42.399053000" lon="-2.337795000">
        <ele>455.20</ele>
        <time>2013-07-27T12:19:56Z</time>
      </trkpt>
      <trkpt lat="42.399053000" lon="-2.337793000">
        <ele>455.20</ele>
        <time>2013-07-27T12:19:57Z</time>
      </trkpt>
      <trkpt lat="42.399054000" lon="-2.337793000">
        <ele>455.30</ele>
        <time>2013-07-27T12:19:58Z</time>
      </trkpt>
      <trkpt lat="42.399054000" lon="-2.337792000">
        <ele>455.30</ele>
        <time>2013-07-27T12:19:59Z</time>
      </trkpt>
      <trkpt lat="42.399053000" lon="-2.337792000">
        <ele>455.40</ele>
        <time>2013-07-27T12:20:00Z</time>
      </trkpt>
      <trkpt lat="42.399053000" lon="-2.337795000">
        <ele>455.50</ele>
        <time>2013-07-27T12:20:01Z</time>
      </trkpt>
      <trkpt lat="42.399054000" lon="-2.337797000">
        <ele>455.60</ele>
        <time>2013-07-27T12:20:02Z</time>
      </trkpt>
      <trkpt lat="42.399055000" lon="-2.337797000">
        <ele>455.60</ele>
        <time>2013-07-27T12:20:03Z</time>
      </trkpt>
      <trkpt lat="42.399055000" lon="-2.337800000">
        <ele>455.70</ele>
        <time>2013-07-27T12:20:04Z</time>
      </trkpt>
      <trkpt lat="42.399054000" lon="-2.337802000">
        <ele>455.70</ele>
        <time>2013-07-27T12:20:05Z</time>
      </trkpt>
      <trkpt lat="42.399051000" lon="-2.337804000">
        <ele>455.60</ele>
        <time>2013-07-27T12:20:06Z</time>
      </trkpt>
      <trkpt lat="42.399050000" lon="-2.337807000">
        <ele>455.60</ele>
        <time>2013-07-27T12:20:07Z</time>
      </trkpt>
      <trkpt lat="42.399050000" lon="-2.337805000">
        <ele>455.50</ele>
        <time>2013-07-27T12:20:08Z</time>
      </trkpt>
      <trkpt lat="42.399050000" lon="-2.337806000">
        <ele>455.50</ele>
        <time>2013-07-27T12:20:09Z</time>
      </trkpt>
      <trkpt lat="42.399054000" lon="-2.337823000">
        <ele>455.40</ele>
        <time>2013-07-27T12:20:10Z</time>
      </trkpt>
      <trkpt lat="42.399060000" lon="-2.337838000">
        <ele>455.40</ele>
        <time>2013-07-27T12:20:11Z</time>
      </trkpt>
      <trkpt lat="42.399066000" lon="-2.337854000">
        <ele>455.40</ele>
        <time>2013-07-27T12:20:12Z</time>
      </trkpt>
      <trkpt lat="42.399079000" lon="-2.337874000">
        <ele>455.40</ele>
        <time>2013-07-27T12:20:13Z</time>
      </trkpt>
      <trkpt lat="42.399093000" lon="-2.337896000">
        <ele>455.40</ele>
        <time>2013-07-27T12:20:14Z</time>
      </trkpt>
      <trkpt lat="42.399109000" lon="-2.337924000">
        <ele>455.50</ele>
        <time>2013-07-27T12:20:15Z</time>
      </trkpt>
      <trkpt lat="42.399127000" lon="-2.337949000">
        <ele>455.50</ele>
        <time>2013-07-27T12:20:16Z</time>
      </trkpt>
      <trkpt lat="42.399141000" lon="-2.337977000">
        <ele>455.50</ele>
        <time>2013-07-27T12:20:17Z</time>
      </trkpt>
      <trkpt lat="42.399157000" lon="-2.338004000">
        <ele>455.70</ele>
        <time>2013-07-27T12:20:18Z</time>
      </trkpt>
      <trkpt lat="42.399172000" lon="-2.338032000">
        <ele>455.80</ele>
        <time>2013-07-27T12:20:19Z</time>
      </trkpt>
      <trkpt lat="42.399189000" lon="-2.338061000">
        <ele>456.00</ele>
        <time>2013-07-27T12:20:20Z</time>
      </trkpt>
      <trkpt lat="42.399204000" lon="-2.338098000">
        <ele>456.20</ele>
        <time>2013-07-27T12:20:21Z</time>
      </trkpt>
      <trkpt lat="42.399223000" lon="-2.338130000">
        <ele>456.30</ele>
        <time>2013-07-27T12:20:22Z</time>
      </trkpt>
      <trkpt lat="42.399240000" lon="-2.338161000">
        <ele>456.50</ele>
        <time>2013-07-27T12:20:23Z</time>
      </trkpt>
      <trkpt lat="42.399259000" lon="-2.338195000">
        <ele>456.60</ele>
        <time>2013-07-27T12:20:24Z</time>
      </trkpt>
      <trkpt lat="42.399279000" lon="-2.338226000">
        <ele>456.70</ele>
        <time>2013-07-27T12:20:25Z</time>
      </trkpt>
      <trkpt lat="42.399298000" lon="-2.338266000">
        <ele>456.60</ele>
        <time>2013-07-27T12:20:26Z</time>
      </trkpt>
      <trkpt lat="42.399317000" lon="-2.338304000">
        <ele>456.60</ele>
        <time>2013-07-27T12:20:27Z</time>
      </trkpt>
      <trkpt lat="42.399338000" lon="-2.338340000">
        <ele>456.40</ele>
        <time>2013-07-27T12:20:28Z</time>
      </trkpt>
      <trkpt lat="42.399361000" lon="-2.338379000">
        <ele>456.30</ele>
        <time>2013-07-27T12:20:29Z</time>
      </trkpt>
      <trkpt lat="42.399384000" lon="-2.338419000">
        <ele>456.20</ele>
        <time>2013-07-27T12:20:30Z</time>
      </trkpt>
      <trkpt lat="42.399405000" lon="-2.338461000">
        <ele>456.10</ele>
        <time>2013-07-27T12:20:31Z</time>
      </trkpt>
      <trkpt lat="42.399427000" lon="-2.338507000">
        <ele>456.20</ele>
        <time>2013-07-27T12:20:32Z</time>
      </trkpt>
      <trkpt lat="42.399451000" lon="-2.338555000">
        <ele>456.20</ele>
        <time>2013-07-27T12:20:33Z</time>
      </trkpt>
      <trkpt lat="42.399473000" lon="-2.338604000">
        <ele>456.30</ele>
        <time>2013-07-27T12:20:34Z</time>
      </trkpt>
      <trkpt lat="42.399498000" lon="-2.338651000">
        <ele>456.30</ele>
        <time>2013-07-27T12:20:35Z</time>
      </trkpt>
      <trkpt lat="42.399523000" lon="-2.338697000">
        <ele>456.30</ele>
        <time>2013-07-27T12:20:36Z</time>
      </trkpt>
      <trkpt lat="42.399550000" lon="-2.338747000">
        <ele>456.30</ele>
        <time>2013-07-27T12:20:37Z</time>
      </trkpt>
      <trkpt lat="42.399578000" lon="-2.338800000">
        <ele>456.40</ele>
        <time>2013-07-27T12:20:38Z</time>
      </trkpt>
      <trkpt lat="42.399604000" lon="-2.338853000">
        <ele>456.40</ele>
        <time>2013-07-27T12:20:39Z</time>
      </trkpt>
      <trkpt lat="42.399632000" lon="-2.338904000">
        <ele>456.40</ele>
        <time>2013-07-27T12:20:40Z</time>
      </trkpt>
      <trkpt lat="42.399660000" lon="-2.338957000">
        <ele>456.40</ele>
        <time>2013-07-27T12:20:41Z</time>
      </trkpt>
      <trkpt lat="42.399688000" lon="-2.339016000">
        <ele>456.20</ele>
        <time>2013-07-27T12:20:42Z</time>
      </trkpt>
      <trkpt lat="42.399718000" lon="-2.339074000">
        <ele>456.10</ele>
        <time>2013-07-27T12:20:43Z</time>
      </trkpt>
      <trkpt lat="42.399747000" lon="-2.339129000">
        <ele>456.00</ele>
        <time>2013-07-27T12:20:44Z</time>
      </trkpt>
      <trkpt lat="42.399771000" lon="-2.339185000">
        <ele>455.90</ele>
        <time>2013-07-27T12:20:45Z</time>
      </trkpt>
      <trkpt lat="42.399800000" lon="-2.339240000">
        <ele>456.10</ele>
        <time>2013-07-27T12:20:46Z</time>
      </trkpt>
      <trkpt lat="42.399827000" lon="-2.339292000">
        <ele>456.20</ele>
        <time>2013-07-27T12:20:47Z</time>
      </trkpt>
      <trkpt lat="42.399856000" lon="-2.339344000">
        <ele>456.20</ele>
        <time>2013-07-27T12:20:48Z</time>
      </trkpt>
      <trkpt lat="42.399885000" lon="-2.339401000">
        <ele>456.30</ele>
        <time>2013-07-27T12:20:49Z</time>
      </trkpt>
      <trkpt lat="42.399912000" lon="-2.339457000">
        <ele>456.20</ele>
        <time>2013-07-27T12:20:50Z</time>
      </trkpt>
      <trkpt lat="42.399943000" lon="-2.339514000">
        <ele>456.10</ele>
        <time>2013-07-27T12:20:51Z</time>
      </trkpt>
      <trkpt lat="42.399972000" lon="-2.339572000">
        <ele>456.00</ele>
        <time>2013-07-27T12:20:52Z</time>
      </trkpt>
      <trkpt lat="42.400002000" lon="-2.339629000">
        <ele>455.80</ele>
        <time>2013-07-27T12:20:53Z</time>
      </trkpt>
      <trkpt lat="42.400031000" lon="-2.339682000">
        <ele>455.70</ele>
        <time>2013-07-27T12:20:54Z</time>
      </trkpt>
      <trkpt lat="42.400060000" lon="-2.339738000">
        <ele>455.60</ele>
        <time>2013-07-27T12:20:55Z</time>
      </trkpt>
      <trkpt lat="42.400089000" lon="-2.339791000">
        <ele>455.50</ele>
        <time>2013-07-27T12:20:56Z</time>
      </trkpt>
      <trkpt lat="42.400117000" lon="-2.339844000">
        <ele>455.40</ele>
        <time>2013-07-27T12:20:57Z</time>
      </trkpt>
      <trkpt lat="42.400143000" lon="-2.339895000">
        <ele>455.40</ele>
        <time>2013-07-27T12:20:58Z</time>
      </trkpt>
      <trkpt lat="42.400172000" lon="-2.339949000">
        <ele>455.40</ele>
        <time>2013-07-27T12:20:59Z</time>
      </trkpt>
      <trkpt lat="42.400201000" lon="-2.340007000">
        <ele>455.40</ele>
        <time>2013-07-27T12:21:00Z</time>
      </trkpt>
      <trkpt lat="42.400231000" lon="-2.340065000">
        <ele>455.40</ele>
        <time>2013-07-27T12:21:01Z</time>
      </trkpt>
      <trkpt lat="42.400262000" lon="-2.340125000">
        <ele>455.40</ele>
        <time>2013-07-27T12:21:02Z</time>
      </trkpt>
      <trkpt lat="42.400293000" lon="-2.340184000">
        <ele>455.40</ele>
        <time>2013-07-27T12:21:03Z</time>
      </trkpt>
      <trkpt lat="42.400325000" lon="-2.340245000">
        <ele>455.20</ele>
        <time>2013-07-27T12:21:04Z</time>
      </trkpt>
      <trkpt lat="42.400358000" lon="-2.340305000">
        <ele>455.10</ele>
        <time>2013-07-27T12:21:05Z</time>
      </trkpt>
      <trkpt lat="42.400392000" lon="-2.340365000">
        <ele>455.00</ele>
        <time>2013-07-27T12:21:06Z</time>
      </trkpt>
      <trkpt lat="42.400426000" lon="-2.340427000">
        <ele>454.90</ele>
        <time>2013-07-27T12:21:07Z</time>
      </trkpt>
      <trkpt lat="42.400458000" lon="-2.340486000">
        <ele>455.00</ele>
        <time>2013-07-27T12:21:08Z</time>
      </trkpt>
      <trkpt lat="42.400487000" lon="-2.340544000">
        <ele>455.20</ele>
        <time>2013-07-27T12:21:09Z</time>
      </trkpt>
      <trkpt lat="42.400515000" lon="-2.340603000">
        <ele>455.20</ele>
        <time>2013-07-27T12:21:10Z</time>
      </trkpt>
      <trkpt lat="42.400542000" lon="-2.340661000">
        <ele>455.30</ele>
        <time>2013-07-27T12:21:11Z</time>
      </trkpt>
      <trkpt lat="42.400569000" lon="-2.340719000">
        <ele>454.90</ele>
        <time>2013-07-27T12:21:12Z</time>
      </trkpt>
      <trkpt lat="42.400598000" lon="-2.340779000">
        <ele>454.60</ele>
        <time>2013-07-27T12:21:13Z</time>
      </trkpt>
      <trkpt lat="42.400627000" lon="-2.340839000">
        <ele>454.40</ele>
        <time>2013-07-27T12:21:14Z</time>
      </trkpt>
      <trkpt lat="42.400653000" lon="-2.340902000">
        <ele>454.20</ele>
        <time>2013-07-27T12:21:15Z</time>
      </trkpt>
      <trkpt lat="42.400682000" lon="-2.340961000">
        <ele>454.10</ele>
        <time>2013-07-27T12:21:16Z</time>
      </trkpt>
      <trkpt lat="42.400708000" lon="-2.341024000">
        <ele>454.10</ele>
        <time>2013-07-27T12:21:17Z</time>
      </trkpt>
      <trkpt lat="42.400735000" lon="-2.341089000">
        <ele>454.00</ele>
        <time>2013-07-27T12:21:18Z</time>
      </trkpt>
      <trkpt lat="42.400759000" lon="-2.341154000">
        <ele>454.00</ele>
        <time>2013-07-27T12:21:19Z</time>
      </trkpt>
      <trkpt lat="42.400782000" lon="-2.341218000">
        <ele>453.90</ele>
        <time>2013-07-27T12:21:20Z</time>
      </trkpt>
      <trkpt lat="42.400802000" lon="-2.341279000">
        <ele>453.80</ele>
        <time>2013-07-27T12:21:21Z</time>
      </trkpt>
      <trkpt lat="42.400821000" lon="-2.341336000">
        <ele>453.70</ele>
        <time>2013-07-27T12:21:22Z</time>
      </trkpt>
      <trkpt lat="42.400839000" lon="-2.341393000">
        <ele>453.60</ele>
        <time>2013-07-27T12:21:23Z</time>
      </trkpt>
      <trkpt lat="42.400855000" lon="-2.341452000">
        <ele>453.60</ele>
        <time>2013-07-27T12:21:24Z</time>
      </trkpt>
      <trkpt lat="42.400873000" lon="-2.341503000">
        <ele>453.60</ele>
        <time>2013-07-27T12:21:25Z</time>
      </trkpt>
      <trkpt lat="42.400889000" lon="-2.341547000">
        <ele>453.50</ele>
        <time>2013-07-27T12:21:26Z</time>
      </trkpt>
      <trkpt lat="42.400903000" lon="-2.341590000">
        <ele>453.50</ele>
        <time>2013-07-27T12:21:27Z</time>
      </trkpt>
      <trkpt lat="42.400920000" lon="-2.341627000">
        <ele>453.50</ele>
        <time>2013-07-27T12:21:28Z</time>
      </trkpt>
      <trkpt lat="42.400945000" lon="-2.341657000">
        <ele>453.50</ele>
        <time>2013-07-27T12:21:29Z</time>
      </trkpt>
      <trkpt lat="42.400975000" lon="-2.341681000">
        <ele>453.40</ele>
        <time>2013-07-27T12:21:30Z</time>
      </trkpt>
      <trkpt lat="42.401003000" lon="-2.341702000">
        <ele>453.40</ele>
        <time>2013-07-27T12:21:31Z</time>
      </trkpt>
      <trkpt lat="42.401028000" lon="-2.341721000">
        <ele>453.20</ele>
        <time>2013-07-27T12:21:32Z</time>
      </trkpt>
      <trkpt lat="42.401040000" lon="-2.341736000">
        <ele>453.10</ele>
        <time>2013-07-27T12:21:33Z</time>
      </trkpt>
      <trkpt lat="42.401043000" lon="-2.341737000">
        <ele>453.00</ele>
        <time>2013-07-27T12:21:34Z</time>
      </trkpt>
      <trkpt lat="42.401048000" lon="-2.341741000">
        <ele>452.90</ele>
        <time>2013-07-27T12:21:35Z</time>
      </trkpt>
      <trkpt lat="42.401052000" lon="-2.341741000">
        <ele>452.80</ele>
        <time>2013-07-27T12:21:36Z</time>
      </trkpt>
      <trkpt lat="42.401053000" lon="-2.341745000">
        <ele>452.60</ele>
        <time>2013-07-27T12:21:37Z</time>
      </trkpt>
      <trkpt lat="42.401052000" lon="-2.341746000">
        <ele>452.50</ele>
        <time>2013-07-27T12:21:38Z</time>
      </trkpt>
      <trkpt lat="42.401051000" lon="-2.341746000">
        <ele>452.50</ele>
        <time>2013-07-27T12:21:39Z</time>
      </trkpt>
      <trkpt lat="42.401052000" lon="-2.341747000">
        <ele>452.50</ele>
        <time>2013-07-27T12:21:40Z</time>
      </trkpt>
      <trkpt lat="42.401052000" lon="-2.341750000">
        <ele>452.50</ele>
        <time>2013-07-27T12:21:41Z</time>
      </trkpt>
      <trkpt lat="42.401053000" lon="-2.341750000">
        <ele>452.50</ele>
        <time>2013-07-27T12:21:42Z</time>
      </trkpt>
      <trkpt lat="42.401054000" lon="-2.341749000">
        <ele>452.50</ele>
        <time>2013-07-27T12:21:43Z</time>
      </trkpt>
      <trkpt lat="42.401055000" lon="-2.341749000">
        <ele>452.40</ele>
        <time>2013-07-27T12:21:44Z</time>
      </trkpt>
      <trkpt lat="42.401056000" lon="-2.341748000">
        <ele>452.30</ele>
        <time>2013-07-27T12:21:45Z</time>
      </trkpt>
      <trkpt lat="42.401057000" lon="-2.341751000">
        <ele>452.20</ele>
        <time>2013-07-27T12:21:46Z</time>
      </trkpt>
      <trkpt lat="42.401058000" lon="-2.341751000">
        <ele>452.20</ele>
        <time>2013-07-27T12:21:47Z</time>
      </trkpt>
      <trkpt lat="42.401057000" lon="-2.341751000">
        <ele>452.30</ele>
        <time>2013-07-27T12:21:48Z</time>
      </trkpt>
      <trkpt lat="42.401056000" lon="-2.341750000">
        <ele>452.40</ele>
        <time>2013-07-27T12:21:49Z</time>
      </trkpt>
      <trkpt lat="42.401056000" lon="-2.341750000">
        <ele>452.50</ele>
        <time>2013-07-27T12:21:50Z</time>
      </trkpt>
      <trkpt lat="42.401056000" lon="-2.341749000">
        <ele>452.60</ele>
        <time>2013-07-27T12:21:51Z</time>
      </trkpt>
      <trkpt lat="42.401055000" lon="-2.341750000">
        <ele>452.70</ele>
        <time>2013-07-27T12:21:52Z</time>
      </trkpt>
      <trkpt lat="42.401056000" lon="-2.341749000">
        <ele>452.70</ele>
        <time>2013-07-27T12:21:53Z</time>
      </trkpt>
      <trkpt lat="42.401061000" lon="-2.341751000">
        <ele>452.60</ele>
        <time>2013-07-27T12:21:54Z</time>
      </trkpt>
      <trkpt lat="42.401073000" lon="-2.341759000">
        <ele>452.50</ele>
        <time>2013-07-27T12:21:55Z</time>
      </trkpt>
      <trkpt lat="42.401088000" lon="-2.341766000">
        <ele>452.50</ele>
        <time>2013-07-27T12:21:56Z</time>
      </trkpt>
      <trkpt lat="42.401104000" lon="-2.341774000">
        <ele>452.40</ele>
        <time>2013-07-27T12:21:57Z</time>
      </trkpt>
      <trkpt lat="42.401128000" lon="-2.341786000">
        <ele>452.30</ele>
        <time>2013-07-27T12:21:58Z</time>
      </trkpt>
      <trkpt lat="42.401152000" lon="-2.341799000">
        <ele>452.20</ele>
        <time>2013-07-27T12:21:59Z</time>
      </trkpt>
      <trkpt lat="42.401178000" lon="-2.341814000">
        <ele>452.00</ele>
        <time>2013-07-27T12:22:00Z</time>
      </trkpt>
      <trkpt lat="42.401207000" lon="-2.341828000">
        <ele>451.90</ele>
        <time>2013-07-27T12:22:01Z</time>
      </trkpt>
      <trkpt lat="42.401239000" lon="-2.341844000">
        <ele>451.80</ele>
        <time>2013-07-27T12:22:02Z</time>
      </trkpt>
      <trkpt lat="42.401273000" lon="-2.341861000">
        <ele>451.80</ele>
        <time>2013-07-27T12:22:03Z</time>
      </trkpt>
      <trkpt lat="42.401307000" lon="-2.341881000">
        <ele>451.90</ele>
        <time>2013-07-27T12:22:04Z</time>
      </trkpt>
      <trkpt lat="42.401341000" lon="-2.341902000">
        <ele>451.90</ele>
        <time>2013-07-27T12:22:05Z</time>
      </trkpt>
      <trkpt lat="42.401374000" lon="-2.341924000">
        <ele>452.00</ele>
        <time>2013-07-27T12:22:06Z</time>
      </trkpt>
      <trkpt lat="42.401410000" lon="-2.341947000">
        <ele>452.00</ele>
        <time>2013-07-27T12:22:07Z</time>
      </trkpt>
      <trkpt lat="42.401443000" lon="-2.341967000">
        <ele>452.10</ele>
        <time>2013-07-27T12:22:08Z</time>
      </trkpt>
      <trkpt lat="42.401476000" lon="-2.341988000">
        <ele>452.20</ele>
        <time>2013-07-27T12:22:09Z</time>
      </trkpt>
      <trkpt lat="42.401507000" lon="-2.342008000">
        <ele>452.20</ele>
        <time>2013-07-27T12:22:10Z</time>
      </trkpt>
      <trkpt lat="42.401539000" lon="-2.342027000">
        <ele>452.30</ele>
        <time>2013-07-27T12:22:11Z</time>
      </trkpt>
      <trkpt lat="42.401566000" lon="-2.342045000">
        <ele>452.30</ele>
        <time>2013-07-27T12:22:12Z</time>
      </trkpt>
      <trkpt lat="42.401590000" lon="-2.342066000">
        <ele>452.30</ele>
        <time>2013-07-27T12:22:13Z</time>
      </trkpt>
      <trkpt lat="42.401616000" lon="-2.342082000">
        <ele>452.40</ele>
        <time>2013-07-27T12:22:14Z</time>
      </trkpt>
      <trkpt lat="42.401643000" lon="-2.342099000">
        <ele>452.40</ele>
        <time>2013-07-27T12:22:15Z</time>
      </trkpt>
      <trkpt lat="42.401669000" lon="-2.342118000">
        <ele>452.50</ele>
        <time>2013-07-27T12:22:16Z</time>
      </trkpt>
      <trkpt lat="42.401696000" lon="-2.342136000">
        <ele>452.60</ele>
        <time>2013-07-27T12:22:17Z</time>
      </trkpt>
      <trkpt lat="42.401724000" lon="-2.342155000">
        <ele>452.70</ele>
        <time>2013-07-27T12:22:18Z</time>
      </trkpt>
      <trkpt lat="42.401753000" lon="-2.342176000">
        <ele>452.70</ele>
        <time>2013-07-27T12:22:19Z</time>
      </trkpt>
      <trkpt lat="42.401783000" lon="-2.342196000">
        <ele>452.80</ele>
        <time>2013-07-27T12:22:20Z</time>
      </trkpt>
      <trkpt lat="42.401813000" lon="-2.342212000">
        <ele>452.80</ele>
        <time>2013-07-27T12:22:21Z</time>
      </trkpt>
      <trkpt lat="42.401844000" lon="-2.342234000">
        <ele>452.80</ele>
        <time>2013-07-27T12:22:22Z</time>
      </trkpt>
      <trkpt lat="42.401877000" lon="-2.342252000">
        <ele>452.80</ele>
        <time>2013-07-27T12:22:23Z</time>
      </trkpt>
      <trkpt lat="42.401908000" lon="-2.342277000">
        <ele>452.80</ele>
        <time>2013-07-27T12:22:24Z</time>
      </trkpt>
      <trkpt lat="42.401942000" lon="-2.342301000">
        <ele>452.80</ele>
        <time>2013-07-27T12:22:25Z</time>
      </trkpt>
      <trkpt lat="42.401974000" lon="-2.342324000">
        <ele>452.80</ele>
        <time>2013-07-27T12:22:26Z</time>
      </trkpt>
      <trkpt lat="42.402009000" lon="-2.342349000">
        <ele>452.80</ele>
        <time>2013-07-27T12:22:27Z</time>
      </trkpt>
      <trkpt lat="42.402047000" lon="-2.342371000">
        <ele>453.10</ele>
        <time>2013-07-27T12:22:28Z</time>
      </trkpt>
      <trkpt lat="42.402082000" lon="-2.342392000">
        <ele>453.40</ele>
        <time>2013-07-27T12:22:29Z</time>
      </trkpt>
      <trkpt lat="42.402115000" lon="-2.342414000">
        <ele>453.60</ele>
        <time>2013-07-27T12:22:30Z</time>
      </trkpt>
      <trkpt lat="42.402149000" lon="-2.342440000">
        <ele>453.70</ele>
        <time>2013-07-27T12:22:31Z</time>
      </trkpt>
      <trkpt lat="42.402183000" lon="-2.342461000">
        <ele>453.80</ele>
        <time>2013-07-27T12:22:32Z</time>
      </trkpt>
      <trkpt lat="42.402216000" lon="-2.342487000">
        <ele>453.90</ele>
        <time>2013-07-27T12:22:33Z</time>
      </trkpt>
      <trkpt lat="42.402252000" lon="-2.342512000">
        <ele>453.70</ele>
        <time>2013-07-27T12:22:34Z</time>
      </trkpt>
      <trkpt lat="42.402286000" lon="-2.342538000">
        <ele>453.50</ele>
        <time>2013-07-27T12:22:35Z</time>
      </trkpt>
      <trkpt lat="42.402322000" lon="-2.342563000">
        <ele>453.30</ele>
        <time>2013-07-27T12:22:36Z</time>
      </trkpt>
      <trkpt lat="42.402360000" lon="-2.342582000">
        <ele>453.20</ele>
        <time>2013-07-27T12:22:37Z</time>
      </trkpt>
      <trkpt lat="42.402400000" lon="-2.342604000">
        <ele>453.20</ele>
        <time>2013-07-27T12:22:38Z</time>
      </trkpt>
      <trkpt lat="42.402438000" lon="-2.342635000">
        <ele>453.20</ele>
        <time>2013-07-27T12:22:39Z</time>
      </trkpt>
      <trkpt lat="42.402474000" lon="-2.342665000">
        <ele>453.20</ele>
        <time>2013-07-27T12:22:40Z</time>
      </trkpt>
      <trkpt lat="42.402511000" lon="-2.342692000">
        <ele>453.20</ele>
        <time>2013-07-27T12:22:41Z</time>
      </trkpt>
      <trkpt lat="42.402544000" lon="-2.342717000">
        <ele>453.10</ele>
        <time>2013-07-27T12:22:42Z</time>
      </trkpt>
      <trkpt lat="42.402584000" lon="-2.342745000">
        <ele>453.10</ele>
        <time>2013-07-27T12:22:43Z</time>
      </trkpt>
      <trkpt lat="42.402624000" lon="-2.342774000">
        <ele>453.10</ele>
        <time>2013-07-27T12:22:44Z</time>
      </trkpt>
      <trkpt lat="42.402663000" lon="-2.342807000">
        <ele>453.00</ele>
        <time>2013-07-27T12:22:45Z</time>
      </trkpt>
      <trkpt lat="42.402703000" lon="-2.342836000">
        <ele>453.40</ele>
        <time>2013-07-27T12:22:46Z</time>
      </trkpt>
      <trkpt lat="42.402743000" lon="-2.342867000">
        <ele>453.70</ele>
        <time>2013-07-27T12:22:47Z</time>
      </trkpt>
      <trkpt lat="42.402783000" lon="-2.342898000">
        <ele>454.10</ele>
        <time>2013-07-27T12:22:48Z</time>
      </trkpt>
      <trkpt lat="42.402822000" lon="-2.342930000">
        <ele>454.40</ele>
        <time>2013-07-27T12:22:49Z</time>
      </trkpt>
      <trkpt lat="42.402865000" lon="-2.342958000">
        <ele>454.40</ele>
        <time>2013-07-27T12:22:50Z</time>
      </trkpt>
      <trkpt lat="42.402907000" lon="-2.342985000">
        <ele>454.50</ele>
        <time>2013-07-27T12:22:51Z</time>
      </trkpt>
      <trkpt lat="42.402948000" lon="-2.343018000">
        <ele>454.30</ele>
        <time>2013-07-27T12:22:52Z</time>
      </trkpt>
      <trkpt lat="42.402987000" lon="-2.343053000">
        <ele>454.10</ele>
        <time>2013-07-27T12:22:53Z</time>
      </trkpt>
      <trkpt lat="42.403028000" lon="-2.343079000">
        <ele>454.00</ele>
        <time>2013-07-27T12:22:54Z</time>
      </trkpt>
      <trkpt lat="42.403066000" lon="-2.343106000">
        <ele>453.90</ele>
        <time>2013-07-27T12:22:55Z</time>
      </trkpt>
      <trkpt lat="42.403104000" lon="-2.343136000">
        <ele>454.00</ele>
        <time>2013-07-27T12:22:56Z</time>
      </trkpt>
      <trkpt lat="42.403142000" lon="-2.343168000">
        <ele>454.10</ele>
        <time>2013-07-27T12:22:57Z</time>
      </trkpt>
      <trkpt lat="42.403180000" lon="-2.343199000">
        <ele>454.50</ele>
        <time>2013-07-27T12:22:58Z</time>
      </trkpt>
      <trkpt lat="42.403216000" lon="-2.343230000">
        <ele>454.80</ele>
        <time>2013-07-27T12:22:59Z</time>
      </trkpt>
      <trkpt lat="42.403252000" lon="-2.343259000">
        <ele>454.70</ele>
        <time>2013-07-27T12:23:00Z</time>
      </trkpt>
      <trkpt lat="42.403288000" lon="-2.343290000">
        <ele>454.60</ele>
        <time>2013-07-27T12:23:01Z</time>
      </trkpt>
      <trkpt lat="42.403323000" lon="-2.343318000">
        <ele>454.80</ele>
        <time>2013-07-27T12:23:02Z</time>
      </trkpt>
      <trkpt lat="42.403359000" lon="-2.343351000">
        <ele>454.90</ele>
        <time>2013-07-27T12:23:03Z</time>
      </trkpt>
      <trkpt lat="42.403396000" lon="-2.343380000">
        <ele>454.60</ele>
        <time>2013-07-27T12:23:04Z</time>
      </trkpt>
      <trkpt lat="42.403431000" lon="-2.343414000">
        <ele>454.40</ele>
        <time>2013-07-27T12:23:05Z</time>
      </trkpt>
      <trkpt lat="42.403466000" lon="-2.343451000">
        <ele>454.30</ele>
        <time>2013-07-27T12:23:06Z</time>
      </trkpt>
      <trkpt lat="42.403501000" lon="-2.343487000">
        <ele>454.20</ele>
        <time>2013-07-27T12:23:07Z</time>
      </trkpt>
      <trkpt lat="42.403540000" lon="-2.343520000">
        <ele>454.20</ele>
        <time>2013-07-27T12:23:08Z</time>
      </trkpt>
      <trkpt lat="42.403576000" lon="-2.343555000">
        <ele>454.10</ele>
        <time>2013-07-27T12:23:09Z</time>
      </trkpt>
      <trkpt lat="42.403614000" lon="-2.343586000">
        <ele>454.10</ele>
        <time>2013-07-27T12:23:10Z</time>
      </trkpt>
      <trkpt lat="42.403651000" lon="-2.343621000">
        <ele>454.10</ele>
        <time>2013-07-27T12:23:11Z</time>
      </trkpt>
      <trkpt lat="42.403689000" lon="-2.343655000">
        <ele>454.20</ele>
        <time>2013-07-27T12:23:12Z</time>
      </trkpt>
      <trkpt lat="42.403729000" lon="-2.343686000">
        <ele>454.30</ele>
        <time>2013-07-27T12:23:13Z</time>
      </trkpt>
      <trkpt lat="42.403769000" lon="-2.343715000">
        <ele>454.40</ele>
        <time>2013-07-27T12:23:14Z</time>
      </trkpt>
      <trkpt lat="42.403809000" lon="-2.343744000">
        <ele>454.40</ele>
        <time>2013-07-27T12:23:15Z</time>
      </trkpt>
      <trkpt lat="42.403846000" lon="-2.343773000">
        <ele>454.50</ele>
        <time>2013-07-27T12:23:16Z</time>
      </trkpt>
      <trkpt lat="42.403886000" lon="-2.343802000">
        <ele>454.50</ele>
        <time>2013-07-27T12:23:17Z</time>
      </trkpt>
      <trkpt lat="42.403925000" lon="-2.343835000">
        <ele>454.30</ele>
        <time>2013-07-27T12:23:18Z</time>
      </trkpt>
      <trkpt lat="42.403968000" lon="-2.343860000">
        <ele>454.20</ele>
        <time>2013-07-27T12:23:19Z</time>
      </trkpt>
      <trkpt lat="42.404013000" lon="-2.343890000">
        <ele>454.10</ele>
        <time>2013-07-27T12:23:20Z</time>
      </trkpt>
      <trkpt lat="42.404059000" lon="-2.343919000">
        <ele>454.10</ele>
        <time>2013-07-27T12:23:21Z</time>
      </trkpt>
      <trkpt lat="42.404106000" lon="-2.343948000">
        <ele>454.00</ele>
        <time>2013-07-27T12:23:22Z</time>
      </trkpt>
      <trkpt lat="42.404152000" lon="-2.343981000">
        <ele>454.00</ele>
        <time>2013-07-27T12:23:23Z</time>
      </trkpt>
      <trkpt lat="42.404197000" lon="-2.344012000">
        <ele>453.90</ele>
        <time>2013-07-27T12:23:24Z</time>
      </trkpt>
      <trkpt lat="42.404243000" lon="-2.344039000">
        <ele>453.90</ele>
        <time>2013-07-27T12:23:25Z</time>
      </trkpt>
      <trkpt lat="42.404290000" lon="-2.344070000">
        <ele>453.90</ele>
        <time>2013-07-27T12:23:26Z</time>
      </trkpt>
      <trkpt lat="42.404336000" lon="-2.344099000">
        <ele>453.90</ele>
        <time>2013-07-27T12:23:27Z</time>
      </trkpt>
      <trkpt lat="42.404382000" lon="-2.344128000">
        <ele>454.00</ele>
        <time>2013-07-27T12:23:28Z</time>
      </trkpt>
      <trkpt lat="42.404428000" lon="-2.344158000">
        <ele>454.10</ele>
        <time>2013-07-27T12:23:29Z</time>
      </trkpt>
      <trkpt lat="42.404475000" lon="-2.344181000">
        <ele>454.00</ele>
        <time>2013-07-27T12:23:30Z</time>
      </trkpt>
      <trkpt lat="42.404524000" lon="-2.344202000">
        <ele>453.90</ele>
        <time>2013-07-27T12:23:31Z</time>
      </trkpt>
      <trkpt lat="42.404575000" lon="-2.344220000">
        <ele>453.60</ele>
        <time>2013-07-27T12:23:32Z</time>
      </trkpt>
      <trkpt lat="42.404624000" lon="-2.344233000">
        <ele>453.30</ele>
        <time>2013-07-27T12:23:33Z</time>
      </trkpt>
      <trkpt lat="42.404673000" lon="-2.344239000">
        <ele>453.20</ele>
        <time>2013-07-27T12:23:34Z</time>
      </trkpt>
      <trkpt lat="42.404720000" lon="-2.344245000">
        <ele>453.00</ele>
        <time>2013-07-27T12:23:35Z</time>
      </trkpt>
      <trkpt lat="42.404763000" lon="-2.344240000">
        <ele>453.20</ele>
        <time>2013-07-27T12:23:36Z</time>
      </trkpt>
      <trkpt lat="42.404807000" lon="-2.344237000">
        <ele>453.30</ele>
        <time>2013-07-27T12:23:37Z</time>
      </trkpt>
      <trkpt lat="42.404856000" lon="-2.344240000">
        <ele>453.70</ele>
        <time>2013-07-27T12:23:38Z</time>
      </trkpt>
      <trkpt lat="42.404898000" lon="-2.344244000">
        <ele>453.90</ele>
        <time>2013-07-27T12:23:39Z</time>
      </trkpt>
      <trkpt lat="42.404941000" lon="-2.344251000">
        <ele>454.20</ele>
        <time>2013-07-27T12:23:40Z</time>
      </trkpt>
      <trkpt lat="42.404983000" lon="-2.344257000">
        <ele>454.30</ele>
        <time>2013-07-27T12:23:41Z</time>
      </trkpt>
      <trkpt lat="42.405028000" lon="-2.344267000">
        <ele>454.50</ele>
        <time>2013-07-27T12:23:42Z</time>
      </trkpt>
      <trkpt lat="42.405071000" lon="-2.344274000">
        <ele>454.60</ele>
        <time>2013-07-27T12:23:43Z</time>
      </trkpt>
      <trkpt lat="42.405115000" lon="-2.344283000">
        <ele>454.40</ele>
        <time>2013-07-27T12:23:44Z</time>
      </trkpt>
      <trkpt lat="42.405156000" lon="-2.344295000">
        <ele>454.30</ele>
        <time>2013-07-27T12:23:45Z</time>
      </trkpt>
      <trkpt lat="42.405204000" lon="-2.344308000">
        <ele>454.20</ele>
        <time>2013-07-27T12:23:46Z</time>
      </trkpt>
      <trkpt lat="42.405248000" lon="-2.344319000">
        <ele>454.10</ele>
        <time>2013-07-27T12:23:47Z</time>
      </trkpt>
      <trkpt lat="42.405294000" lon="-2.344330000">
        <ele>454.00</ele>
        <time>2013-07-27T12:23:48Z</time>
      </trkpt>
      <trkpt lat="42.405340000" lon="-2.344344000">
        <ele>453.90</ele>
        <time>2013-07-27T12:23:49Z</time>
      </trkpt>
      <trkpt lat="42.405383000" lon="-2.344361000">
        <ele>454.10</ele>
        <time>2013-07-27T12:23:50Z</time>
      </trkpt>
      <trkpt lat="42.405433000" lon="-2.344374000">
        <ele>454.20</ele>
        <time>2013-07-27T12:23:51Z</time>
      </trkpt>
      <trkpt lat="42.405484000" lon="-2.344389000">
        <ele>454.30</ele>
        <time>2013-07-27T12:23:52Z</time>
      </trkpt>
      <trkpt lat="42.405534000" lon="-2.344403000">
        <ele>454.40</ele>
        <time>2013-07-27T12:23:53Z</time>
      </trkpt>
      <trkpt lat="42.405585000" lon="-2.344416000">
        <ele>454.30</ele>
        <time>2013-07-27T12:23:54Z</time>
      </trkpt>
      <trkpt lat="42.405638000" lon="-2.344427000">
        <ele>454.30</ele>
        <time>2013-07-27T12:23:55Z</time>
      </trkpt>
      <trkpt lat="42.405694000" lon="-2.344438000">
        <ele>454.10</ele>
        <time>2013-07-27T12:23:56Z</time>
      </trkpt>
      <trkpt lat="42.405749000" lon="-2.344447000">
        <ele>454.10</ele>
        <time>2013-07-27T12:23:57Z</time>
      </trkpt>
      <trkpt lat="42.405808000" lon="-2.344445000">
        <ele>454.10</ele>
        <time>2013-07-27T12:23:58Z</time>
      </trkpt>
      <trkpt lat="42.405865000" lon="-2.344440000">
        <ele>454.10</ele>
        <time>2013-07-27T12:23:59Z</time>
      </trkpt>
      <trkpt lat="42.405922000" lon="-2.344433000">
        <ele>454.10</ele>
        <time>2013-07-27T12:24:00Z</time>
      </trkpt>
      <trkpt lat="42.405977000" lon="-2.344423000">
        <ele>454.10</ele>
        <time>2013-07-27T12:24:01Z</time>
      </trkpt>
      <trkpt lat="42.406032000" lon="-2.344422000">
        <ele>454.10</ele>
        <time>2013-07-27T12:24:02Z</time>
      </trkpt>
      <trkpt lat="42.406086000" lon="-2.344423000">
        <ele>454.10</ele>
        <time>2013-07-27T12:24:03Z</time>
      </trkpt>
      <trkpt lat="42.406141000" lon="-2.344426000">
        <ele>453.80</ele>
        <time>2013-07-27T12:24:04Z</time>
      </trkpt>
      <trkpt lat="42.406197000" lon="-2.344431000">
        <ele>453.50</ele>
        <time>2013-07-27T12:24:05Z</time>
      </trkpt>
      <trkpt lat="42.406254000" lon="-2.344439000">
        <ele>453.30</ele>
        <time>2013-07-27T12:24:06Z</time>
      </trkpt>
      <trkpt lat="42.406313000" lon="-2.344448000">
        <ele>453.20</ele>
        <time>2013-07-27T12:24:07Z</time>
      </trkpt>
      <trkpt lat="42.406370000" lon="-2.344456000">
        <ele>453.10</ele>
        <time>2013-07-27T12:24:08Z</time>
      </trkpt>
      <trkpt lat="42.406428000" lon="-2.344465000">
        <ele>453.00</ele>
        <time>2013-07-27T12:24:09Z</time>
      </trkpt>
      <trkpt lat="42.406485000" lon="-2.344475000">
        <ele>453.00</ele>
        <time>2013-07-27T12:24:10Z</time>
      </trkpt>
      <trkpt lat="42.406540000" lon="-2.344485000">
        <ele>452.90</ele>
        <time>2013-07-27T12:24:11Z</time>
      </trkpt>
      <trkpt lat="42.406591000" lon="-2.344494000">
        <ele>452.50</ele>
        <time>2013-07-27T12:24:12Z</time>
      </trkpt>
      <trkpt lat="42.406643000" lon="-2.344504000">
        <ele>452.10</ele>
        <time>2013-07-27T12:24:13Z</time>
      </trkpt>
      <trkpt lat="42.406694000" lon="-2.344514000">
        <ele>451.70</ele>
        <time>2013-07-27T12:24:14Z</time>
      </trkpt>
      <trkpt lat="42.406742000" lon="-2.344523000">
        <ele>451.40</ele>
        <time>2013-07-27T12:24:15Z</time>
      </trkpt>
      <trkpt lat="42.406790000" lon="-2.344533000">
        <ele>451.10</ele>
        <time>2013-07-27T12:24:16Z</time>
      </trkpt>
      <trkpt lat="42.406837000" lon="-2.344541000">
        <ele>450.90</ele>
        <time>2013-07-27T12:24:17Z</time>
      </trkpt>
      <trkpt lat="42.406886000" lon="-2.344550000">
        <ele>450.80</ele>
        <time>2013-07-27T12:24:18Z</time>
      </trkpt>
      <trkpt lat="42.406934000" lon="-2.344562000">
        <ele>450.70</ele>
        <time>2013-07-27T12:24:19Z</time>
      </trkpt>
      <trkpt lat="42.406987000" lon="-2.344569000">
        <ele>450.30</ele>
        <time>2013-07-27T12:24:20Z</time>
      </trkpt>
      <trkpt lat="42.407040000" lon="-2.344579000">
        <ele>450.10</ele>
        <time>2013-07-27T12:24:21Z</time>
      </trkpt>
      <trkpt lat="42.407099000" lon="-2.344597000">
        <ele>449.80</ele>
        <time>2013-07-27T12:24:22Z</time>
      </trkpt>
      <trkpt lat="42.407157000" lon="-2.344618000">
        <ele>449.70</ele>
        <time>2013-07-27T12:24:23Z</time>
      </trkpt>
      <trkpt lat="42.407220000" lon="-2.344633000">
        <ele>449.50</ele>
        <time>2013-07-27T12:24:24Z</time>
      </trkpt>
      <trkpt lat="42.407281000" lon="-2.344649000">
        <ele>449.40</ele>
        <time>2013-07-27T12:24:25Z</time>
      </trkpt>
      <trkpt lat="42.407342000" lon="-2.344667000">
        <ele>449.60</ele>
        <time>2013-07-27T12:24:26Z</time>
      </trkpt>
      <trkpt lat="42.407401000" lon="-2.344687000">
        <ele>449.70</ele>
        <time>2013-07-27T12:24:27Z</time>
      </trkpt>
      <trkpt lat="42.407457000" lon="-2.344712000">
        <ele>449.60</ele>
        <time>2013-07-27T12:24:28Z</time>
      </trkpt>
      <trkpt lat="42.407512000" lon="-2.344738000">
        <ele>449.40</ele>
        <time>2013-07-27T12:24:29Z</time>
      </trkpt>
      <trkpt lat="42.407560000" lon="-2.344769000">
        <ele>449.50</ele>
        <time>2013-07-27T12:24:30Z</time>
      </trkpt>
      <trkpt lat="42.407614000" lon="-2.344799000">
        <ele>449.60</ele>
        <time>2013-07-27T12:24:31Z</time>
      </trkpt>
      <trkpt lat="42.407668000" lon="-2.344830000">
        <ele>449.50</ele>
        <time>2013-07-27T12:24:32Z</time>
      </trkpt>
      <trkpt lat="42.407724000" lon="-2.344862000">
        <ele>449.40</ele>
        <time>2013-07-27T12:24:33Z</time>
      </trkpt>
      <trkpt lat="42.407781000" lon="-2.344889000">
        <ele>449.40</ele>
        <time>2013-07-27T12:24:34Z</time>
      </trkpt>
      <trkpt lat="42.407842000" lon="-2.344906000">
        <ele>449.40</ele>
        <time>2013-07-27T12:24:35Z</time>
      </trkpt>
      <trkpt lat="42.407905000" lon="-2.344921000">
        <ele>449.10</ele>
        <time>2013-07-27T12:24:36Z</time>
      </trkpt>
      <trkpt lat="42.407969000" lon="-2.344928000">
        <ele>448.90</ele>
        <time>2013-07-27T12:24:37Z</time>
      </trkpt>
      <trkpt lat="42.408030000" lon="-2.344925000">
        <ele>448.60</ele>
        <time>2013-07-27T12:24:38Z</time>
      </trkpt>
      <trkpt lat="42.408090000" lon="-2.344914000">
        <ele>448.30</ele>
        <time>2013-07-27T12:24:39Z</time>
      </trkpt>
      <trkpt lat="42.408147000" lon="-2.344900000">
        <ele>448.20</ele>
        <time>2013-07-27T12:24:40Z</time>
      </trkpt>
      <trkpt lat="42.408199000" lon="-2.344882000">
        <ele>448.00</ele>
        <time>2013-07-27T12:24:41Z</time>
      </trkpt>
      <trkpt lat="42.408247000" lon="-2.344864000">
        <ele>448.00</ele>
        <time>2013-07-27T12:24:42Z</time>
      </trkpt>
      <trkpt lat="42.408294000" lon="-2.344846000">
        <ele>447.90</ele>
        <time>2013-07-27T12:24:43Z</time>
      </trkpt>
      <trkpt lat="42.408340000" lon="-2.344830000">
        <ele>447.80</ele>
        <time>2013-07-27T12:24:44Z</time>
      </trkpt>
      <trkpt lat="42.408384000" lon="-2.344812000">
        <ele>447.80</ele>
        <time>2013-07-27T12:24:45Z</time>
      </trkpt>
      <trkpt lat="42.408426000" lon="-2.344795000">
        <ele>448.10</ele>
        <time>2013-07-27T12:24:46Z</time>
      </trkpt>
      <trkpt lat="42.408469000" lon="-2.344772000">
        <ele>448.40</ele>
        <time>2013-07-27T12:24:47Z</time>
      </trkpt>
      <trkpt lat="42.408512000" lon="-2.344750000">
        <ele>448.30</ele>
        <time>2013-07-27T12:24:48Z</time>
      </trkpt>
      <trkpt lat="42.408554000" lon="-2.344734000">
        <ele>448.30</ele>
        <time>2013-07-27T12:24:49Z</time>
      </trkpt>
      <trkpt lat="42.408595000" lon="-2.344712000">
        <ele>448.60</ele>
        <time>2013-07-27T12:24:50Z</time>
      </trkpt>
      <trkpt lat="42.408636000" lon="-2.344683000">
        <ele>448.80</ele>
        <time>2013-07-27T12:24:51Z</time>
      </trkpt>
      <trkpt lat="42.408677000" lon="-2.344658000">
        <ele>448.60</ele>
        <time>2013-07-27T12:24:52Z</time>
      </trkpt>
      <trkpt lat="42.408720000" lon="-2.344635000">
        <ele>448.50</ele>
        <time>2013-07-27T12:24:53Z</time>
      </trkpt>
      <trkpt lat="42.408764000" lon="-2.344613000">
        <ele>448.60</ele>
        <time>2013-07-27T12:24:54Z</time>
      </trkpt>
      <trkpt lat="42.408808000" lon="-2.344593000">
        <ele>448.70</ele>
        <time>2013-07-27T12:24:55Z</time>
      </trkpt>
      <trkpt lat="42.408851000" lon="-2.344579000">
        <ele>448.70</ele>
        <time>2013-07-27T12:24:56Z</time>
      </trkpt>
      <trkpt lat="42.408894000" lon="-2.344563000">
        <ele>448.70</ele>
        <time>2013-07-27T12:24:57Z</time>
      </trkpt>
      <trkpt lat="42.408937000" lon="-2.344546000">
        <ele>448.90</ele>
        <time>2013-07-27T12:24:58Z</time>
      </trkpt>
      <trkpt lat="42.408981000" lon="-2.344532000">
        <ele>449.00</ele>
        <time>2013-07-27T12:24:59Z</time>
      </trkpt>
      <trkpt lat="42.409025000" lon="-2.344520000">
        <ele>449.10</ele>
        <time>2013-07-27T12:25:00Z</time>
      </trkpt>
      <trkpt lat="42.409071000" lon="-2.344511000">
        <ele>449.10</ele>
        <time>2013-07-27T12:25:01Z</time>
      </trkpt>
      <trkpt lat="42.409118000" lon="-2.344502000">
        <ele>449.20</ele>
        <time>2013-07-27T12:25:02Z</time>
      </trkpt>
      <trkpt lat="42.409165000" lon="-2.344497000">
        <ele>449.20</ele>
        <time>2013-07-27T12:25:03Z</time>
      </trkpt>
      <trkpt lat="42.409214000" lon="-2.344495000">
        <ele>448.90</ele>
        <time>2013-07-27T12:25:04Z</time>
      </trkpt>
      <trkpt lat="42.409263000" lon="-2.344489000">
        <ele>448.70</ele>
        <time>2013-07-27T12:25:05Z</time>
      </trkpt>
      <trkpt lat="42.409311000" lon="-2.344485000">
        <ele>448.40</ele>
        <time>2013-07-27T12:25:06Z</time>
      </trkpt>
      <trkpt lat="42.409359000" lon="-2.344479000">
        <ele>448.20</ele>
        <time>2013-07-27T12:25:07Z</time>
      </trkpt>
      <trkpt lat="42.409409000" lon="-2.344472000">
        <ele>448.00</ele>
        <time>2013-07-27T12:25:08Z</time>
      </trkpt>
      <trkpt lat="42.409459000" lon="-2.344463000">
        <ele>447.90</ele>
        <time>2013-07-27T12:25:09Z</time>
      </trkpt>
      <trkpt lat="42.409509000" lon="-2.344452000">
        <ele>448.50</ele>
        <time>2013-07-27T12:25:10Z</time>
      </trkpt>
      <trkpt lat="42.409560000" lon="-2.344442000">
        <ele>448.90</ele>
        <time>2013-07-27T12:25:11Z</time>
      </trkpt>
      <trkpt lat="42.409609000" lon="-2.344432000">
        <ele>449.20</ele>
        <time>2013-07-27T12:25:12Z</time>
      </trkpt>
      <trkpt lat="42.409662000" lon="-2.344421000">
        <ele>449.50</ele>
        <time>2013-07-27T12:25:13Z</time>
      </trkpt>
      <trkpt lat="42.409714000" lon="-2.344408000">
        <ele>449.40</ele>
        <time>2013-07-27T12:25:14Z</time>
      </trkpt>
      <trkpt lat="42.409767000" lon="-2.344394000">
        <ele>449.30</ele>
        <time>2013-07-27T12:25:15Z</time>
      </trkpt>
      <trkpt lat="42.409819000" lon="-2.344381000">
        <ele>449.20</ele>
        <time>2013-07-27T12:25:16Z</time>
      </trkpt>
      <trkpt lat="42.409870000" lon="-2.344370000">
        <ele>449.00</ele>
        <time>2013-07-27T12:25:17Z</time>
      </trkpt>
      <trkpt lat="42.409923000" lon="-2.344357000">
        <ele>449.10</ele>
        <time>2013-07-27T12:25:18Z</time>
      </trkpt>
      <trkpt lat="42.409975000" lon="-2.344345000">
        <ele>449.10</ele>
        <time>2013-07-27T12:25:19Z</time>
      </trkpt>
      <trkpt lat="42.410028000" lon="-2.344332000">
        <ele>449.00</ele>
        <time>2013-07-27T12:25:20Z</time>
      </trkpt>
      <trkpt lat="42.410081000" lon="-2.344321000">
        <ele>448.90</ele>
        <time>2013-07-27T12:25:21Z</time>
      </trkpt>
      <trkpt lat="42.410132000" lon="-2.344310000">
        <ele>449.00</ele>
        <time>2013-07-27T12:25:22Z</time>
      </trkpt>
      <trkpt lat="42.410183000" lon="-2.344294000">
        <ele>449.00</ele>
        <time>2013-07-27T12:25:23Z</time>
      </trkpt>
      <trkpt lat="42.410234000" lon="-2.344279000">
        <ele>449.00</ele>
        <time>2013-07-27T12:25:24Z</time>
      </trkpt>
      <trkpt lat="42.410287000" lon="-2.344264000">
        <ele>449.00</ele>
        <time>2013-07-27T12:25:25Z</time>
      </trkpt>
      <trkpt lat="42.410338000" lon="-2.344246000">
        <ele>449.00</ele>
        <time>2013-07-27T12:25:26Z</time>
      </trkpt>
      <trkpt lat="42.410389000" lon="-2.344228000">
        <ele>449.00</ele>
        <time>2013-07-27T12:25:27Z</time>
      </trkpt>
      <trkpt lat="42.410441000" lon="-2.344211000">
        <ele>448.70</ele>
        <time>2013-07-27T12:25:28Z</time>
      </trkpt>
      <trkpt lat="42.410493000" lon="-2.344194000">
        <ele>448.50</ele>
        <time>2013-07-27T12:25:29Z</time>
      </trkpt>
      <trkpt lat="42.410545000" lon="-2.344178000">
        <ele>448.40</ele>
        <time>2013-07-27T12:25:30Z</time>
      </trkpt>
      <trkpt lat="42.410598000" lon="-2.344158000">
        <ele>448.20</ele>
        <time>2013-07-27T12:25:31Z</time>
      </trkpt>
      <trkpt lat="42.410650000" lon="-2.344138000">
        <ele>448.10</ele>
        <time>2013-07-27T12:25:32Z</time>
      </trkpt>
      <trkpt lat="42.410701000" lon="-2.344119000">
        <ele>448.10</ele>
        <time>2013-07-27T12:25:33Z</time>
      </trkpt>
      <trkpt lat="42.410754000" lon="-2.344100000">
        <ele>448.00</ele>
        <time>2013-07-27T12:25:34Z</time>
      </trkpt>
      <trkpt lat="42.410805000" lon="-2.344080000">
        <ele>448.00</ele>
        <time>2013-07-27T12:25:35Z</time>
      </trkpt>
      <trkpt lat="42.410860000" lon="-2.344061000">
        <ele>448.00</ele>
        <time>2013-07-27T12:25:36Z</time>
      </trkpt>
      <trkpt lat="42.410914000" lon="-2.344049000">
        <ele>447.90</ele>
        <time>2013-07-27T12:25:37Z</time>
      </trkpt>
      <trkpt lat="42.410967000" lon="-2.344041000">
        <ele>447.90</ele>
        <time>2013-07-27T12:25:38Z</time>
      </trkpt>
      <trkpt lat="42.411021000" lon="-2.344035000">
        <ele>447.90</ele>
        <time>2013-07-27T12:25:39Z</time>
      </trkpt>
      <trkpt lat="42.411074000" lon="-2.344032000">
        <ele>447.90</ele>
        <time>2013-07-27T12:25:40Z</time>
      </trkpt>
      <trkpt lat="42.411128000" lon="-2.344031000">
        <ele>447.90</ele>
        <time>2013-07-27T12:25:41Z</time>
      </trkpt>
      <trkpt lat="42.411179000" lon="-2.344031000">
        <ele>447.90</ele>
        <time>2013-07-27T12:25:42Z</time>
      </trkpt>
      <trkpt lat="42.411230000" lon="-2.344035000">
        <ele>447.90</ele>
        <time>2013-07-27T12:25:43Z</time>
      </trkpt>
      <trkpt lat="42.411286000" lon="-2.344038000">
        <ele>447.90</ele>
        <time>2013-07-27T12:25:44Z</time>
      </trkpt>
      <trkpt lat="42.411342000" lon="-2.344039000">
        <ele>447.90</ele>
        <time>2013-07-27T12:25:45Z</time>
      </trkpt>
      <trkpt lat="42.411397000" lon="-2.344042000">
        <ele>447.70</ele>
        <time>2013-07-27T12:25:46Z</time>
      </trkpt>
      <trkpt lat="42.411452000" lon="-2.344039000">
        <ele>447.60</ele>
        <time>2013-07-27T12:25:47Z</time>
      </trkpt>
      <trkpt lat="42.411509000" lon="-2.344034000">
        <ele>447.40</ele>
        <time>2013-07-27T12:25:48Z</time>
      </trkpt>
      <trkpt lat="42.411564000" lon="-2.344029000">
        <ele>447.20</ele>
        <time>2013-07-27T12:25:49Z</time>
      </trkpt>
      <trkpt lat="42.411617000" lon="-2.344020000">
        <ele>447.00</ele>
        <time>2013-07-27T12:25:50Z</time>
      </trkpt>
      <trkpt lat="42.411668000" lon="-2.344016000">
        <ele>446.80</ele>
        <time>2013-07-27T12:25:51Z</time>
      </trkpt>
      <trkpt lat="42.411722000" lon="-2.344013000">
        <ele>446.80</ele>
        <time>2013-07-27T12:25:52Z</time>
      </trkpt>
      <trkpt lat="42.411777000" lon="-2.344005000">
        <ele>446.80</ele>
        <time>2013-07-27T12:25:53Z</time>
      </trkpt>
      <trkpt lat="42.411828000" lon="-2.344001000">
        <ele>446.70</ele>
        <time>2013-07-27T12:25:54Z</time>
      </trkpt>
      <trkpt lat="42.411880000" lon="-2.343995000">
        <ele>446.70</ele>
        <time>2013-07-27T12:25:55Z</time>
      </trkpt>
      <trkpt lat="42.411933000" lon="-2.343993000">
        <ele>446.80</ele>
        <time>2013-07-27T12:25:56Z</time>
      </trkpt>
      <trkpt lat="42.411985000" lon="-2.343988000">
        <ele>446.80</ele>
        <time>2013-07-27T12:25:57Z</time>
      </trkpt>
      <trkpt lat="42.412040000" lon="-2.343982000">
        <ele>446.80</ele>
        <time>2013-07-27T12:25:58Z</time>
      </trkpt>
      <trkpt lat="42.412092000" lon="-2.343977000">
        <ele>446.70</ele>
        <time>2013-07-27T12:25:59Z</time>
      </trkpt>
      <trkpt lat="42.412148000" lon="-2.343974000">
        <ele>446.90</ele>
        <time>2013-07-27T12:26:00Z</time>
      </trkpt>
      <trkpt lat="42.412200000" lon="-2.343968000">
        <ele>447.10</ele>
        <time>2013-07-27T12:26:01Z</time>
      </trkpt>
      <trkpt lat="42.412252000" lon="-2.343964000">
        <ele>447.20</ele>
        <time>2013-07-27T12:26:02Z</time>
      </trkpt>
      <trkpt lat="42.412305000" lon="-2.343962000">
        <ele>447.40</ele>
        <time>2013-07-27T12:26:03Z</time>
      </trkpt>
      <trkpt lat="42.412359000" lon="-2.343959000">
        <ele>447.50</ele>
        <time>2013-07-27T12:26:04Z</time>
      </trkpt>
      <trkpt lat="42.412414000" lon="-2.343955000">
        <ele>447.70</ele>
        <time>2013-07-27T12:26:05Z</time>
      </trkpt>
      <trkpt lat="42.412466000" lon="-2.343950000">
        <ele>447.80</ele>
        <time>2013-07-27T12:26:06Z</time>
      </trkpt>
      <trkpt lat="42.412519000" lon="-2.343943000">
        <ele>447.80</ele>
        <time>2013-07-27T12:26:07Z</time>
      </trkpt>
      <trkpt lat="42.412569000" lon="-2.343936000">
        <ele>447.90</ele>
        <time>2013-07-27T12:26:08Z</time>
      </trkpt>
      <trkpt lat="42.412619000" lon="-2.343928000">
        <ele>447.90</ele>
        <time>2013-07-27T12:26:09Z</time>
      </trkpt>
      <trkpt lat="42.412671000" lon="-2.343916000">
        <ele>447.50</ele>
        <time>2013-07-27T12:26:10Z</time>
      </trkpt>
      <trkpt lat="42.412723000" lon="-2.343906000">
        <ele>447.20</ele>
        <time>2013-07-27T12:26:11Z</time>
      </trkpt>
      <trkpt lat="42.412775000" lon="-2.343897000">
        <ele>446.90</ele>
        <time>2013-07-27T12:26:12Z</time>
      </trkpt>
      <trkpt lat="42.412826000" lon="-2.343889000">
        <ele>446.70</ele>
        <time>2013-07-27T12:26:13Z</time>
      </trkpt>
      <trkpt lat="42.412878000" lon="-2.343883000">
        <ele>446.90</ele>
        <time>2013-07-27T12:26:14Z</time>
      </trkpt>
      <trkpt lat="42.412928000" lon="-2.343878000">
        <ele>447.00</ele>
        <time>2013-07-27T12:26:15Z</time>
      </trkpt>
      <trkpt lat="42.412979000" lon="-2.343879000">
        <ele>447.40</ele>
        <time>2013-07-27T12:26:16Z</time>
      </trkpt>
      <trkpt lat="42.413027000" lon="-2.343878000">
        <ele>447.70</ele>
        <time>2013-07-27T12:26:17Z</time>
      </trkpt>
      <trkpt lat="42.413076000" lon="-2.343881000">
        <ele>447.60</ele>
        <time>2013-07-27T12:26:18Z</time>
      </trkpt>
      <trkpt lat="42.413126000" lon="-2.343883000">
        <ele>447.50</ele>
        <time>2013-07-27T12:26:19Z</time>
      </trkpt>
      <trkpt lat="42.413176000" lon="-2.343882000">
        <ele>447.40</ele>
        <time>2013-07-27T12:26:20Z</time>
      </trkpt>
      <trkpt lat="42.413226000" lon="-2.343879000">
        <ele>447.30</ele>
        <time>2013-07-27T12:26:21Z</time>
      </trkpt>
      <trkpt lat="42.413275000" lon="-2.343877000">
        <ele>447.20</ele>
        <time>2013-07-27T12:26:22Z</time>
      </trkpt>
      <trkpt lat="42.413325000" lon="-2.343865000">
        <ele>447.20</ele>
        <time>2013-07-27T12:26:23Z</time>
      </trkpt>
      <trkpt lat="42.413375000" lon="-2.343854000">
        <ele>447.10</ele>
        <time>2013-07-27T12:26:24Z</time>
      </trkpt>
      <trkpt lat="42.413425000" lon="-2.343842000">
        <ele>447.10</ele>
        <time>2013-07-27T12:26:25Z</time>
      </trkpt>
      <trkpt lat="42.413475000" lon="-2.343831000">
        <ele>447.20</ele>
        <time>2013-07-27T12:26:26Z</time>
      </trkpt>
      <trkpt lat="42.413524000" lon="-2.343819000">
        <ele>447.20</ele>
        <time>2013-07-27T12:26:27Z</time>
      </trkpt>
      <trkpt lat="42.413574000" lon="-2.343805000">
        <ele>447.20</ele>
        <time>2013-07-27T12:26:28Z</time>
      </trkpt>
      <trkpt lat="42.413623000" lon="-2.343790000">
        <ele>447.20</ele>
        <time>2013-07-27T12:26:29Z</time>
      </trkpt>
      <trkpt lat="42.413670000" lon="-2.343776000">
        <ele>447.40</ele>
        <time>2013-07-27T12:26:30Z</time>
      </trkpt>
      <trkpt lat="42.413720000" lon="-2.343760000">
        <ele>447.50</ele>
        <time>2013-07-27T12:26:31Z</time>
      </trkpt>
      <trkpt lat="42.413768000" lon="-2.343745000">
        <ele>447.50</ele>
        <time>2013-07-27T12:26:32Z</time>
      </trkpt>
      <trkpt lat="42.413816000" lon="-2.343728000">
        <ele>447.40</ele>
        <time>2013-07-27T12:26:33Z</time>
      </trkpt>
      <trkpt lat="42.413864000" lon="-2.343708000">
        <ele>447.50</ele>
        <time>2013-07-27T12:26:34Z</time>
      </trkpt>
      <trkpt lat="42.413911000" lon="-2.343685000">
        <ele>447.60</ele>
        <time>2013-07-27T12:26:35Z</time>
      </trkpt>
      <trkpt lat="42.413955000" lon="-2.343651000">
        <ele>447.60</ele>
        <time>2013-07-27T12:26:36Z</time>
      </trkpt>
      <trkpt lat="42.413996000" lon="-2.343615000">
        <ele>447.50</ele>
        <time>2013-07-27T12:26:37Z</time>
      </trkpt>
      <trkpt lat="42.414035000" lon="-2.343573000">
        <ele>447.40</ele>
        <time>2013-07-27T12:26:38Z</time>
      </trkpt>
      <trkpt lat="42.414071000" lon="-2.343530000">
        <ele>447.30</ele>
        <time>2013-07-27T12:26:39Z</time>
      </trkpt>
      <trkpt lat="42.414102000" lon="-2.343478000">
        <ele>447.20</ele>
        <time>2013-07-27T12:26:40Z</time>
      </trkpt>
      <trkpt lat="42.414131000" lon="-2.343426000">
        <ele>447.20</ele>
        <time>2013-07-27T12:26:41Z</time>
      </trkpt>
      <trkpt lat="42.414155000" lon="-2.343371000">
        <ele>447.10</ele>
        <time>2013-07-27T12:26:42Z</time>
      </trkpt>
      <trkpt lat="42.414179000" lon="-2.343314000">
        <ele>447.10</ele>
        <time>2013-07-27T12:26:43Z</time>
      </trkpt>
      <trkpt lat="42.414204000" lon="-2.343259000">
        <ele>447.30</ele>
        <time>2013-07-27T12:26:44Z</time>
      </trkpt>
      <trkpt lat="42.414228000" lon="-2.343201000">
        <ele>447.40</ele>
        <time>2013-07-27T12:26:45Z</time>
      </trkpt>
      <trkpt lat="42.414254000" lon="-2.343147000">
        <ele>447.60</ele>
        <time>2013-07-27T12:26:46Z</time>
      </trkpt>
      <trkpt lat="42.414283000" lon="-2.343097000">
        <ele>447.70</ele>
        <time>2013-07-27T12:26:47Z</time>
      </trkpt>
      <trkpt lat="42.414321000" lon="-2.343054000">
        <ele>447.80</ele>
        <time>2013-07-27T12:26:48Z</time>
      </trkpt>
      <trkpt lat="42.414363000" lon="-2.343020000">
        <ele>447.90</ele>
        <time>2013-07-27T12:26:49Z</time>
      </trkpt>
      <trkpt lat="42.414408000" lon="-2.342990000">
        <ele>447.90</ele>
        <time>2013-07-27T12:26:50Z</time>
      </trkpt>
      <trkpt lat="42.414455000" lon="-2.342963000">
        <ele>447.90</ele>
        <time>2013-07-27T12:26:51Z</time>
      </trkpt>
      <trkpt lat="42.414501000" lon="-2.342939000">
        <ele>447.90</ele>
        <time>2013-07-27T12:26:52Z</time>
      </trkpt>
      <trkpt lat="42.414549000" lon="-2.342913000">
        <ele>447.90</ele>
        <time>2013-07-27T12:26:53Z</time>
      </trkpt>
      <trkpt lat="42.414596000" lon="-2.342886000">
        <ele>448.00</ele>
        <time>2013-07-27T12:26:54Z</time>
      </trkpt>
      <trkpt lat="42.414643000" lon="-2.342857000">
        <ele>448.10</ele>
        <time>2013-07-27T12:26:55Z</time>
      </trkpt>
      <trkpt lat="42.414691000" lon="-2.342823000">
        <ele>448.20</ele>
        <time>2013-07-27T12:26:56Z</time>
      </trkpt>
      <trkpt lat="42.414737000" lon="-2.342788000">
        <ele>448.30</ele>
        <time>2013-07-27T12:26:57Z</time>
      </trkpt>
      <trkpt lat="42.414783000" lon="-2.342749000">
        <ele>448.60</ele>
        <time>2013-07-27T12:26:58Z</time>
      </trkpt>
      <trkpt lat="42.414829000" lon="-2.342713000">
        <ele>448.70</ele>
        <time>2013-07-27T12:26:59Z</time>
      </trkpt>
      <trkpt lat="42.414872000" lon="-2.342675000">
        <ele>448.90</ele>
        <time>2013-07-27T12:27:00Z</time>
      </trkpt>
      <trkpt lat="42.414916000" lon="-2.342636000">
        <ele>449.00</ele>
        <time>2013-07-27T12:27:01Z</time>
      </trkpt>
      <trkpt lat="42.414956000" lon="-2.342591000">
        <ele>448.90</ele>
        <time>2013-07-27T12:27:02Z</time>
      </trkpt>
      <trkpt lat="42.414990000" lon="-2.342539000">
        <ele>448.80</ele>
        <time>2013-07-27T12:27:03Z</time>
      </trkpt>
      <trkpt lat="42.415021000" lon="-2.342483000">
        <ele>448.70</ele>
        <time>2013-07-27T12:27:04Z</time>
      </trkpt>
      <trkpt lat="42.415048000" lon="-2.342431000">
        <ele>448.60</ele>
        <time>2013-07-27T12:27:05Z</time>
      </trkpt>
      <trkpt lat="42.415073000" lon="-2.342372000">
        <ele>448.50</ele>
        <time>2013-07-27T12:27:06Z</time>
      </trkpt>
      <trkpt lat="42.415097000" lon="-2.342313000">
        <ele>448.50</ele>
        <time>2013-07-27T12:27:07Z</time>
      </trkpt>
      <trkpt lat="42.415123000" lon="-2.342254000">
        <ele>448.40</ele>
        <time>2013-07-27T12:27:08Z</time>
      </trkpt>
      <trkpt lat="42.415151000" lon="-2.342197000">
        <ele>448.40</ele>
        <time>2013-07-27T12:27:09Z</time>
      </trkpt>
      <trkpt lat="42.415179000" lon="-2.342142000">
        <ele>448.30</ele>
        <time>2013-07-27T12:27:10Z</time>
      </trkpt>
      <trkpt lat="42.415216000" lon="-2.342102000">
        <ele>448.30</ele>
        <time>2013-07-27T12:27:11Z</time>
      </trkpt>
      <trkpt lat="42.415255000" lon="-2.342062000">
        <ele>448.20</ele>
        <time>2013-07-27T12:27:12Z</time>
      </trkpt>
      <trkpt lat="42.415293000" lon="-2.342017000">
        <ele>448.10</ele>
        <time>2013-07-27T12:27:13Z</time>
      </trkpt>
      <trkpt lat="42.415328000" lon="-2.341963000">
        <ele>447.90</ele>
        <time>2013-07-27T12:27:14Z</time>
      </trkpt>
      <trkpt lat="42.415364000" lon="-2.341911000">
        <ele>447.80</ele>
        <time>2013-07-27T12:27:15Z</time>
      </trkpt>
      <trkpt lat="42.415400000" lon="-2.341857000">
        <ele>447.70</ele>
        <time>2013-07-27T12:27:16Z</time>
      </trkpt>
      <trkpt lat="42.415438000" lon="-2.341806000">
        <ele>447.70</ele>
        <time>2013-07-27T12:27:17Z</time>
      </trkpt>
      <trkpt lat="42.415479000" lon="-2.341761000">
        <ele>447.30</ele>
        <time>2013-07-27T12:27:18Z</time>
      </trkpt>
      <trkpt lat="42.415525000" lon="-2.341723000">
        <ele>447.00</ele>
        <time>2013-07-27T12:27:19Z</time>
      </trkpt>
      <trkpt lat="42.415577000" lon="-2.341695000">
        <ele>447.10</ele>
        <time>2013-07-27T12:27:20Z</time>
      </trkpt>
      <trkpt lat="42.415628000" lon="-2.341671000">
        <ele>447.10</ele>
        <time>2013-07-27T12:27:21Z</time>
      </trkpt>
      <trkpt lat="42.415677000" lon="-2.341644000">
        <ele>446.90</ele>
        <time>2013-07-27T12:27:22Z</time>
      </trkpt>
      <trkpt lat="42.415726000" lon="-2.341617000">
        <ele>446.80</ele>
        <time>2013-07-27T12:27:23Z</time>
      </trkpt>
      <trkpt lat="42.415776000" lon="-2.341586000">
        <ele>446.90</ele>
        <time>2013-07-27T12:27:24Z</time>
      </trkpt>
      <trkpt lat="42.415827000" lon="-2.341553000">
        <ele>447.00</ele>
        <time>2013-07-27T12:27:25Z</time>
      </trkpt>
      <trkpt lat="42.415880000" lon="-2.341524000">
        <ele>446.90</ele>
        <time>2013-07-27T12:27:26Z</time>
      </trkpt>
      <trkpt lat="42.415929000" lon="-2.341491000">
        <ele>446.70</ele>
        <time>2013-07-27T12:27:27Z</time>
      </trkpt>
      <trkpt lat="42.415977000" lon="-2.341456000">
        <ele>446.70</ele>
        <time>2013-07-27T12:27:28Z</time>
      </trkpt>
      <trkpt lat="42.416023000" lon="-2.341420000">
        <ele>446.60</ele>
        <time>2013-07-27T12:27:29Z</time>
      </trkpt>
      <trkpt lat="42.416064000" lon="-2.341387000">
        <ele>446.60</ele>
        <time>2013-07-27T12:27:30Z</time>
      </trkpt>
      <trkpt lat="42.416106000" lon="-2.341358000">
        <ele>446.50</ele>
        <time>2013-07-27T12:27:31Z</time>
      </trkpt>
      <trkpt lat="42.416147000" lon="-2.341332000">
        <ele>446.60</ele>
        <time>2013-07-27T12:27:32Z</time>
      </trkpt>
      <trkpt lat="42.416189000" lon="-2.341322000">
        <ele>446.60</ele>
        <time>2013-07-27T12:27:33Z</time>
      </trkpt>
      <trkpt lat="42.416228000" lon="-2.341316000">
        <ele>446.60</ele>
        <time>2013-07-27T12:27:34Z</time>
      </trkpt>
      <trkpt lat="42.416269000" lon="-2.341320000">
        <ele>446.70</ele>
        <time>2013-07-27T12:27:35Z</time>
      </trkpt>
      <trkpt lat="42.416308000" lon="-2.341334000">
        <ele>446.40</ele>
        <time>2013-07-27T12:27:36Z</time>
      </trkpt>
      <trkpt lat="42.416346000" lon="-2.341363000">
        <ele>446.20</ele>
        <time>2013-07-27T12:27:37Z</time>
      </trkpt>
      <trkpt lat="42.416382000" lon="-2.341406000">
        <ele>446.10</ele>
        <time>2013-07-27T12:27:38Z</time>
      </trkpt>
      <trkpt lat="42.416415000" lon="-2.341450000">
        <ele>446.00</ele>
        <time>2013-07-27T12:27:39Z</time>
      </trkpt>
      <trkpt lat="42.416447000" lon="-2.341502000">
        <ele>445.90</ele>
        <time>2013-07-27T12:27:40Z</time>
      </trkpt>
      <trkpt lat="42.416479000" lon="-2.341559000">
        <ele>445.90</ele>
        <time>2013-07-27T12:27:41Z</time>
      </trkpt>
      <trkpt lat="42.416514000" lon="-2.341617000">
        <ele>446.10</ele>
        <time>2013-07-27T12:27:42Z</time>
      </trkpt>
      <trkpt lat="42.416551000" lon="-2.341674000">
        <ele>446.30</ele>
        <time>2013-07-27T12:27:43Z</time>
      </trkpt>
      <trkpt lat="42.416587000" lon="-2.341731000">
        <ele>445.90</ele>
        <time>2013-07-27T12:27:44Z</time>
      </trkpt>
      <trkpt lat="42.416622000" lon="-2.341788000">
        <ele>445.70</ele>
        <time>2013-07-27T12:27:45Z</time>
      </trkpt>
      <trkpt lat="42.416663000" lon="-2.341842000">
        <ele>446.10</ele>
        <time>2013-07-27T12:27:46Z</time>
      </trkpt>
      <trkpt lat="42.416707000" lon="-2.341901000">
        <ele>446.40</ele>
        <time>2013-07-27T12:27:47Z</time>
      </trkpt>
      <trkpt lat="42.416749000" lon="-2.341959000">
        <ele>446.00</ele>
        <time>2013-07-27T12:27:48Z</time>
      </trkpt>
      <trkpt lat="42.416791000" lon="-2.342021000">
        <ele>445.80</ele>
        <time>2013-07-27T12:27:49Z</time>
      </trkpt>
      <trkpt lat="42.416832000" lon="-2.342081000">
        <ele>444.90</ele>
        <time>2013-07-27T12:27:50Z</time>
      </trkpt>
      <trkpt lat="42.416870000" lon="-2.342148000">
        <ele>444.20</ele>
        <time>2013-07-27T12:27:51Z</time>
      </trkpt>
      <trkpt lat="42.416904000" lon="-2.342214000">
        <ele>443.80</ele>
        <time>2013-07-27T12:27:52Z</time>
      </trkpt>
      <trkpt lat="42.416940000" lon="-2.342281000">
        <ele>443.40</ele>
        <time>2013-07-27T12:27:53Z</time>
      </trkpt>
      <trkpt lat="42.416972000" lon="-2.342351000">
        <ele>443.50</ele>
        <time>2013-07-27T12:27:54Z</time>
      </trkpt>
      <trkpt lat="42.417006000" lon="-2.342423000">
        <ele>443.60</ele>
        <time>2013-07-27T12:27:55Z</time>
      </trkpt>
      <trkpt lat="42.417037000" lon="-2.342494000">
        <ele>444.00</ele>
        <time>2013-07-27T12:27:56Z</time>
      </trkpt>
      <trkpt lat="42.417066000" lon="-2.342566000">
        <ele>444.40</ele>
        <time>2013-07-27T12:27:57Z</time>
      </trkpt>
      <trkpt lat="42.417097000" lon="-2.342636000">
        <ele>444.30</ele>
        <time>2013-07-27T12:27:58Z</time>
      </trkpt>
      <trkpt lat="42.417125000" lon="-2.342708000">
        <ele>444.20</ele>
        <time>2013-07-27T12:27:59Z</time>
      </trkpt>
      <trkpt lat="42.417154000" lon="-2.342779000">
        <ele>443.90</ele>
        <time>2013-07-27T12:28:00Z</time>
      </trkpt>
      <trkpt lat="42.417184000" lon="-2.342852000">
        <ele>443.70</ele>
        <time>2013-07-27T12:28:01Z</time>
      </trkpt>
      <trkpt lat="42.417213000" lon="-2.342926000">
        <ele>442.90</ele>
        <time>2013-07-27T12:28:02Z</time>
      </trkpt>
      <trkpt lat="42.417239000" lon="-2.342999000">
        <ele>442.20</ele>
        <time>2013-07-27T12:28:03Z</time>
      </trkpt>
      <trkpt lat="42.417264000" lon="-2.343075000">
        <ele>442.00</ele>
        <time>2013-07-27T12:28:04Z</time>
      </trkpt>
      <trkpt lat="42.417293000" lon="-2.343145000">
        <ele>441.80</ele>
        <time>2013-07-27T12:28:05Z</time>
      </trkpt>
      <trkpt lat="42.417325000" lon="-2.343212000">
        <ele>441.40</ele>
        <time>2013-07-27T12:28:06Z</time>
      </trkpt>
      <trkpt lat="42.417360000" lon="-2.343275000">
        <ele>441.10</ele>
        <time>2013-07-27T12:28:07Z</time>
      </trkpt>
      <trkpt lat="42.417396000" lon="-2.343335000">
        <ele>440.70</ele>
        <time>2013-07-27T12:28:08Z</time>
      </trkpt>
      <trkpt lat="42.417431000" lon="-2.343394000">
        <ele>440.40</ele>
        <time>2013-07-27T12:28:09Z</time>
      </trkpt>
      <trkpt lat="42.417464000" lon="-2.343453000">
        <ele>440.20</ele>
        <time>2013-07-27T12:28:10Z</time>
      </trkpt>
      <trkpt lat="42.417493000" lon="-2.343512000">
        <ele>440.00</ele>
        <time>2013-07-27T12:28:11Z</time>
      </trkpt>
      <trkpt lat="42.417517000" lon="-2.343573000">
        <ele>440.00</ele>
        <time>2013-07-27T12:28:12Z</time>
      </trkpt>
      <trkpt lat="42.417543000" lon="-2.343633000">
        <ele>440.00</ele>
        <time>2013-07-27T12:28:13Z</time>
      </trkpt>
      <trkpt lat="42.417569000" lon="-2.343696000">
        <ele>440.00</ele>
        <time>2013-07-27T12:28:14Z</time>
      </trkpt>
      <trkpt lat="42.417591000" lon="-2.343760000">
        <ele>440.00</ele>
        <time>2013-07-27T12:28:15Z</time>
      </trkpt>
      <trkpt lat="42.417613000" lon="-2.343824000">
        <ele>440.00</ele>
        <time>2013-07-27T12:28:16Z</time>
      </trkpt>
      <trkpt lat="42.417635000" lon="-2.343889000">
        <ele>440.10</ele>
        <time>2013-07-27T12:28:17Z</time>
      </trkpt>
      <trkpt lat="42.417656000" lon="-2.343955000">
        <ele>440.10</ele>
        <time>2013-07-27T12:28:18Z</time>
      </trkpt>
      <trkpt lat="42.417680000" lon="-2.344017000">
        <ele>440.10</ele>
        <time>2013-07-27T12:28:19Z</time>
      </trkpt>
      <trkpt lat="42.417706000" lon="-2.344079000">
        <ele>440.30</ele>
        <time>2013-07-27T12:28:20Z</time>
      </trkpt>
      <trkpt lat="42.417732000" lon="-2.344139000">
        <ele>440.40</ele>
        <time>2013-07-27T12:28:21Z</time>
      </trkpt>
      <trkpt lat="42.417760000" lon="-2.344197000">
        <ele>440.30</ele>
        <time>2013-07-27T12:28:22Z</time>
      </trkpt>
      <trkpt lat="42.417788000" lon="-2.344255000">
        <ele>440.30</ele>
        <time>2013-07-27T12:28:23Z</time>
      </trkpt>
      <trkpt lat="42.417820000" lon="-2.344312000">
        <ele>440.40</ele>
        <time>2013-07-27T12:28:24Z</time>
      </trkpt>
      <trkpt lat="42.417849000" lon="-2.344368000">
        <ele>440.40</ele>
        <time>2013-07-27T12:28:25Z</time>
      </trkpt>
      <trkpt lat="42.417877000" lon="-2.344425000">
        <ele>440.40</ele>
        <time>2013-07-27T12:28:26Z</time>
      </trkpt>
      <trkpt lat="42.417909000" lon="-2.344480000">
        <ele>440.30</ele>
        <time>2013-07-27T12:28:27Z</time>
      </trkpt>
      <trkpt lat="42.417937000" lon="-2.344533000">
        <ele>440.30</ele>
        <time>2013-07-27T12:28:28Z</time>
      </trkpt>
      <trkpt lat="42.417966000" lon="-2.344587000">
        <ele>440.30</ele>
        <time>2013-07-27T12:28:29Z</time>
      </trkpt>
      <trkpt lat="42.417998000" lon="-2.344637000">
        <ele>440.40</ele>
        <time>2013-07-27T12:28:30Z</time>
      </trkpt>
      <trkpt lat="42.418033000" lon="-2.344687000">
        <ele>440.40</ele>
        <time>2013-07-27T12:28:31Z</time>
      </trkpt>
      <trkpt lat="42.418072000" lon="-2.344733000">
        <ele>440.40</ele>
        <time>2013-07-27T12:28:32Z</time>
      </trkpt>
      <trkpt lat="42.418116000" lon="-2.344772000">
        <ele>440.40</ele>
        <time>2013-07-27T12:28:33Z</time>
      </trkpt>
      <trkpt lat="42.418161000" lon="-2.344808000">
        <ele>440.00</ele>
        <time>2013-07-27T12:28:34Z</time>
      </trkpt>
      <trkpt lat="42.418211000" lon="-2.344839000">
        <ele>439.70</ele>
        <time>2013-07-27T12:28:35Z</time>
      </trkpt>
      <trkpt lat="42.418261000" lon="-2.344865000">
        <ele>439.20</ele>
        <time>2013-07-27T12:28:36Z</time>
      </trkpt>
      <trkpt lat="42.418313000" lon="-2.344888000">
        <ele>438.70</ele>
        <time>2013-07-27T12:28:37Z</time>
      </trkpt>
      <trkpt lat="42.418366000" lon="-2.344906000">
        <ele>438.40</ele>
        <time>2013-07-27T12:28:38Z</time>
      </trkpt>
      <trkpt lat="42.418419000" lon="-2.344924000">
        <ele>438.20</ele>
        <time>2013-07-27T12:28:39Z</time>
      </trkpt>
      <trkpt lat="42.418471000" lon="-2.344942000">
        <ele>438.10</ele>
        <time>2013-07-27T12:28:40Z</time>
      </trkpt>
      <trkpt lat="42.418522000" lon="-2.344962000">
        <ele>438.10</ele>
        <time>2013-07-27T12:28:41Z</time>
      </trkpt>
      <trkpt lat="42.418574000" lon="-2.344987000">
        <ele>438.40</ele>
        <time>2013-07-27T12:28:42Z</time>
      </trkpt>
      <trkpt lat="42.418627000" lon="-2.345013000">
        <ele>438.70</ele>
        <time>2013-07-27T12:28:43Z</time>
      </trkpt>
      <trkpt lat="42.418679000" lon="-2.345039000">
        <ele>438.90</ele>
        <time>2013-07-27T12:28:44Z</time>
      </trkpt>
      <trkpt lat="42.418730000" lon="-2.345067000">
        <ele>439.00</ele>
        <time>2013-07-27T12:28:45Z</time>
      </trkpt>
      <trkpt lat="42.418777000" lon="-2.345101000">
        <ele>438.30</ele>
        <time>2013-07-27T12:28:46Z</time>
      </trkpt>
      <trkpt lat="42.418823000" lon="-2.345139000">
        <ele>437.70</ele>
        <time>2013-07-27T12:28:47Z</time>
      </trkpt>
      <trkpt lat="42.418864000" lon="-2.345182000">
        <ele>437.30</ele>
        <time>2013-07-27T12:28:48Z</time>
      </trkpt>
      <trkpt lat="42.418901000" lon="-2.345232000">
        <ele>437.00</ele>
        <time>2013-07-27T12:28:49Z</time>
      </trkpt>
      <trkpt lat="42.418936000" lon="-2.345287000">
        <ele>436.80</ele>
        <time>2013-07-27T12:28:50Z</time>
      </trkpt>
      <trkpt lat="42.418972000" lon="-2.345341000">
        <ele>436.60</ele>
        <time>2013-07-27T12:28:51Z</time>
      </trkpt>
      <trkpt lat="42.419005000" lon="-2.345395000">
        <ele>436.50</ele>
        <time>2013-07-27T12:28:52Z</time>
      </trkpt>
      <trkpt lat="42.419038000" lon="-2.345450000">
        <ele>436.50</ele>
        <time>2013-07-27T12:28:53Z</time>
      </trkpt>
      <trkpt lat="42.419071000" lon="-2.345501000">
        <ele>436.40</ele>
        <time>2013-07-27T12:28:54Z</time>
      </trkpt>
      <trkpt lat="42.419105000" lon="-2.345550000">
        <ele>436.40</ele>
        <time>2013-07-27T12:28:55Z</time>
      </trkpt>
      <trkpt lat="42.419142000" lon="-2.345603000">
        <ele>436.00</ele>
        <time>2013-07-27T12:28:56Z</time>
      </trkpt>
      <trkpt lat="42.419184000" lon="-2.345653000">
        <ele>435.70</ele>
        <time>2013-07-27T12:28:57Z</time>
      </trkpt>
      <trkpt lat="42.419223000" lon="-2.345697000">
        <ele>435.40</ele>
        <time>2013-07-27T12:28:58Z</time>
      </trkpt>
      <trkpt lat="42.419267000" lon="-2.345742000">
        <ele>435.30</ele>
        <time>2013-07-27T12:28:59Z</time>
      </trkpt>
      <trkpt lat="42.419314000" lon="-2.345781000">
        <ele>435.20</ele>
        <time>2013-07-27T12:29:00Z</time>
      </trkpt>
      <trkpt lat="42.419360000" lon="-2.345818000">
        <ele>435.10</ele>
        <time>2013-07-27T12:29:01Z</time>
      </trkpt>
      <trkpt lat="42.419410000" lon="-2.345851000">
        <ele>435.60</ele>
        <time>2013-07-27T12:29:02Z</time>
      </trkpt>
      <trkpt lat="42.419459000" lon="-2.345884000">
        <ele>435.90</ele>
        <time>2013-07-27T12:29:03Z</time>
      </trkpt>
      <trkpt lat="42.419510000" lon="-2.345914000">
        <ele>435.70</ele>
        <time>2013-07-27T12:29:04Z</time>
      </trkpt>
      <trkpt lat="42.419561000" lon="-2.345943000">
        <ele>435.50</ele>
        <time>2013-07-27T12:29:05Z</time>
      </trkpt>
      <trkpt lat="42.419610000" lon="-2.345972000">
        <ele>435.70</ele>
        <time>2013-07-27T12:29:06Z</time>
      </trkpt>
      <trkpt lat="42.419662000" lon="-2.345996000">
        <ele>435.80</ele>
        <time>2013-07-27T12:29:07Z</time>
      </trkpt>
      <trkpt lat="42.419716000" lon="-2.346020000">
        <ele>435.60</ele>
        <time>2013-07-27T12:29:08Z</time>
      </trkpt>
      <trkpt lat="42.419770000" lon="-2.346041000">
        <ele>435.50</ele>
        <time>2013-07-27T12:29:09Z</time>
      </trkpt>
      <trkpt lat="42.419824000" lon="-2.346053000">
        <ele>435.40</ele>
        <time>2013-07-27T12:29:10Z</time>
      </trkpt>
      <trkpt lat="42.419875000" lon="-2.346071000">
        <ele>435.30</ele>
        <time>2013-07-27T12:29:11Z</time>
      </trkpt>
      <trkpt lat="42.419922000" lon="-2.346090000">
        <ele>435.20</ele>
        <time>2013-07-27T12:29:12Z</time>
      </trkpt>
      <trkpt lat="42.419966000" lon="-2.346107000">
        <ele>435.20</ele>
        <time>2013-07-27T12:29:13Z</time>
      </trkpt>
      <trkpt lat="42.420007000" lon="-2.346121000">
        <ele>435.20</ele>
        <time>2013-07-27T12:29:14Z</time>
      </trkpt>
      <trkpt lat="42.420039000" lon="-2.346133000">
        <ele>435.10</ele>
        <time>2013-07-27T12:29:15Z</time>
      </trkpt>
      <trkpt lat="42.420069000" lon="-2.346142000">
        <ele>435.20</ele>
        <time>2013-07-27T12:29:16Z</time>
      </trkpt>
      <trkpt lat="42.420094000" lon="-2.346149000">
        <ele>435.20</ele>
        <time>2013-07-27T12:29:17Z</time>
      </trkpt>
      <trkpt lat="42.420112000" lon="-2.346156000">
        <ele>435.10</ele>
        <time>2013-07-27T12:29:18Z</time>
      </trkpt>
      <trkpt lat="42.420122000" lon="-2.346173000">
        <ele>434.90</ele>
        <time>2013-07-27T12:29:19Z</time>
      </trkpt>
      <trkpt lat="42.420126000" lon="-2.346192000">
        <ele>434.60</ele>
        <time>2013-07-27T12:29:20Z</time>
      </trkpt>
      <trkpt lat="42.420126000" lon="-2.346216000">
        <ele>434.30</ele>
        <time>2013-07-27T12:29:21Z</time>
      </trkpt>
      <trkpt lat="42.420120000" lon="-2.346239000">
        <ele>434.00</ele>
        <time>2013-07-27T12:29:22Z</time>
      </trkpt>
      <trkpt lat="42.420110000" lon="-2.346268000">
        <ele>433.80</ele>
        <time>2013-07-27T12:29:23Z</time>
      </trkpt>
      <trkpt lat="42.420093000" lon="-2.346294000">
        <ele>433.60</ele>
        <time>2013-07-27T12:29:24Z</time>
      </trkpt>
      <trkpt lat="42.420074000" lon="-2.346324000">
        <ele>433.40</ele>
        <time>2013-07-27T12:29:25Z</time>
      </trkpt>
      <trkpt lat="42.420056000" lon="-2.346363000">
        <ele>433.70</ele>
        <time>2013-07-27T12:29:26Z</time>
      </trkpt>
      <trkpt lat="42.420038000" lon="-2.346408000">
        <ele>434.00</ele>
        <time>2013-07-27T12:29:27Z</time>
      </trkpt>
      <trkpt lat="42.420018000" lon="-2.346453000">
        <ele>434.10</ele>
        <time>2013-07-27T12:29:28Z</time>
      </trkpt>
      <trkpt lat="42.419997000" lon="-2.346499000">
        <ele>434.20</ele>
        <time>2013-07-27T12:29:29Z</time>
      </trkpt>
      <trkpt lat="42.419977000" lon="-2.346545000">
        <ele>434.20</ele>
        <time>2013-07-27T12:29:30Z</time>
      </trkpt>
      <trkpt lat="42.419956000" lon="-2.346592000">
        <ele>434.20</ele>
        <time>2013-07-27T12:29:31Z</time>
      </trkpt>
      <trkpt lat="42.419937000" lon="-2.346638000">
        <ele>433.90</ele>
        <time>2013-07-27T12:29:32Z</time>
      </trkpt>
      <trkpt lat="42.419920000" lon="-2.346693000">
        <ele>433.70</ele>
        <time>2013-07-27T12:29:33Z</time>
      </trkpt>
      <trkpt lat="42.419903000" lon="-2.346747000">
        <ele>433.40</ele>
        <time>2013-07-27T12:29:34Z</time>
      </trkpt>
      <trkpt lat="42.419886000" lon="-2.346805000">
        <ele>433.20</ele>
        <time>2013-07-27T12:29:35Z</time>
      </trkpt>
      <trkpt lat="42.419868000" lon="-2.346865000">
        <ele>432.90</ele>
        <time>2013-07-27T12:29:36Z</time>
      </trkpt>
      <trkpt lat="42.419852000" lon="-2.346931000">
        <ele>432.70</ele>
        <time>2013-07-27T12:29:37Z</time>
      </trkpt>
      <trkpt lat="42.419838000" lon="-2.346998000">
        <ele>432.30</ele>
        <time>2013-07-27T12:29:38Z</time>
      </trkpt>
      <trkpt lat="42.419826000" lon="-2.347063000">
        <ele>432.00</ele>
        <time>2013-07-27T12:29:39Z</time>
      </trkpt>
      <trkpt lat="42.419820000" lon="-2.347130000">
        <ele>431.60</ele>
        <time>2013-07-27T12:29:40Z</time>
      </trkpt>
      <trkpt lat="42.419815000" lon="-2.347190000">
        <ele>431.30</ele>
        <time>2013-07-27T12:29:41Z</time>
      </trkpt>
      <trkpt lat="42.419814000" lon="-2.347242000">
        <ele>431.00</ele>
        <time>2013-07-27T12:29:42Z</time>
      </trkpt>
      <trkpt lat="42.419810000" lon="-2.347297000">
        <ele>430.70</ele>
        <time>2013-07-27T12:29:43Z</time>
      </trkpt>
      <trkpt lat="42.419807000" lon="-2.347357000">
        <ele>430.40</ele>
        <time>2013-07-27T12:29:44Z</time>
      </trkpt>
      <trkpt lat="42.419803000" lon="-2.347423000">
        <ele>430.10</ele>
        <time>2013-07-27T12:29:45Z</time>
      </trkpt>
      <trkpt lat="42.419796000" lon="-2.347495000">
        <ele>430.00</ele>
        <time>2013-07-27T12:29:46Z</time>
      </trkpt>
      <trkpt lat="42.419793000" lon="-2.347565000">
        <ele>429.80</ele>
        <time>2013-07-27T12:29:47Z</time>
      </trkpt>
      <trkpt lat="42.419789000" lon="-2.347635000">
        <ele>429.60</ele>
        <time>2013-07-27T12:29:48Z</time>
      </trkpt>
      <trkpt lat="42.419785000" lon="-2.347704000">
        <ele>429.40</ele>
        <time>2013-07-27T12:29:49Z</time>
      </trkpt>
      <trkpt lat="42.419783000" lon="-2.347773000">
        <ele>429.30</ele>
        <time>2013-07-27T12:29:50Z</time>
      </trkpt>
      <trkpt lat="42.419782000" lon="-2.347836000">
        <ele>429.20</ele>
        <time>2013-07-27T12:29:51Z</time>
      </trkpt>
      <trkpt lat="42.419779000" lon="-2.347900000">
        <ele>429.10</ele>
        <time>2013-07-27T12:29:52Z</time>
      </trkpt>
      <trkpt lat="42.419772000" lon="-2.347966000">
        <ele>429.10</ele>
        <time>2013-07-27T12:29:53Z</time>
      </trkpt>
      <trkpt lat="42.419765000" lon="-2.348027000">
        <ele>429.00</ele>
        <time>2013-07-27T12:29:54Z</time>
      </trkpt>
      <trkpt lat="42.419756000" lon="-2.348087000">
        <ele>428.90</ele>
        <time>2013-07-27T12:29:55Z</time>
      </trkpt>
      <trkpt lat="42.419741000" lon="-2.348149000">
        <ele>429.10</ele>
        <time>2013-07-27T12:29:56Z</time>
      </trkpt>
      <trkpt lat="42.419728000" lon="-2.348216000">
        <ele>429.30</ele>
        <time>2013-07-27T12:29:57Z</time>
      </trkpt>
      <trkpt lat="42.419716000" lon="-2.348292000">
        <ele>428.30</ele>
        <time>2013-07-27T12:29:58Z</time>
      </trkpt>
      <trkpt lat="42.419703000" lon="-2.348369000">
        <ele>427.50</ele>
        <time>2013-07-27T12:29:59Z</time>
      </trkpt>
      <trkpt lat="42.419692000" lon="-2.348446000">
        <ele>426.80</ele>
        <time>2013-07-27T12:30:00Z</time>
      </trkpt>
      <trkpt lat="42.419683000" lon="-2.348521000">
        <ele>426.30</ele>
        <time>2013-07-27T12:30:01Z</time>
      </trkpt>
      <trkpt lat="42.419672000" lon="-2.348596000">
        <ele>425.90</ele>
        <time>2013-07-27T12:30:02Z</time>
      </trkpt>
      <trkpt lat="42.419659000" lon="-2.348666000">
        <ele>425.60</ele>
        <time>2013-07-27T12:30:03Z</time>
      </trkpt>
      <trkpt lat="42.419647000" lon="-2.348737000">
        <ele>425.90</ele>
        <time>2013-07-27T12:30:04Z</time>
      </trkpt>
      <trkpt lat="42.419638000" lon="-2.348805000">
        <ele>426.10</ele>
        <time>2013-07-27T12:30:05Z</time>
      </trkpt>
      <trkpt lat="42.419627000" lon="-2.348875000">
        <ele>426.70</ele>
        <time>2013-07-27T12:30:06Z</time>
      </trkpt>
      <trkpt lat="42.419615000" lon="-2.348941000">
        <ele>427.10</ele>
        <time>2013-07-27T12:30:07Z</time>
      </trkpt>
      <trkpt lat="42.419598000" lon="-2.349006000">
        <ele>427.00</ele>
        <time>2013-07-27T12:30:08Z</time>
      </trkpt>
      <trkpt lat="42.419578000" lon="-2.349068000">
        <ele>427.00</ele>
        <time>2013-07-27T12:30:09Z</time>
      </trkpt>
      <trkpt lat="42.419556000" lon="-2.349130000">
        <ele>426.60</ele>
        <time>2013-07-27T12:30:10Z</time>
      </trkpt>
      <trkpt lat="42.419544000" lon="-2.349196000">
        <ele>426.40</ele>
        <time>2013-07-27T12:30:11Z</time>
      </trkpt>
      <trkpt lat="42.419545000" lon="-2.349264000">
        <ele>426.20</ele>
        <time>2013-07-27T12:30:12Z</time>
      </trkpt>
      <trkpt lat="42.419546000" lon="-2.349328000">
        <ele>426.00</ele>
        <time>2013-07-27T12:30:13Z</time>
      </trkpt>
      <trkpt lat="42.419549000" lon="-2.349389000">
        <ele>426.00</ele>
        <time>2013-07-27T12:30:14Z</time>
      </trkpt>
      <trkpt lat="42.419557000" lon="-2.349452000">
        <ele>425.90</ele>
        <time>2013-07-27T12:30:15Z</time>
      </trkpt>
      <trkpt lat="42.419566000" lon="-2.349511000">
        <ele>425.90</ele>
        <time>2013-07-27T12:30:16Z</time>
      </trkpt>
      <trkpt lat="42.419574000" lon="-2.349572000">
        <ele>425.90</ele>
        <time>2013-07-27T12:30:17Z</time>
      </trkpt>
      <trkpt lat="42.419585000" lon="-2.349634000">
        <ele>425.70</ele>
        <time>2013-07-27T12:30:18Z</time>
      </trkpt>
      <trkpt lat="42.419593000" lon="-2.349698000">
        <ele>425.60</ele>
        <time>2013-07-27T12:30:19Z</time>
      </trkpt>
      <trkpt lat="42.419601000" lon="-2.349762000">
        <ele>425.60</ele>
        <time>2013-07-27T12:30:20Z</time>
      </trkpt>
      <trkpt lat="42.419610000" lon="-2.349826000">
        <ele>425.50</ele>
        <time>2013-07-27T12:30:21Z</time>
      </trkpt>
      <trkpt lat="42.419617000" lon="-2.349893000">
        <ele>425.70</ele>
        <time>2013-07-27T12:30:22Z</time>
      </trkpt>
      <trkpt lat="42.419624000" lon="-2.349961000">
        <ele>425.90</ele>
        <time>2013-07-27T12:30:23Z</time>
      </trkpt>
      <trkpt lat="42.419629000" lon="-2.350025000">
        <ele>426.10</ele>
        <time>2013-07-27T12:30:24Z</time>
      </trkpt>
      <trkpt lat="42.419635000" lon="-2.350092000">
        <ele>426.20</ele>
        <time>2013-07-27T12:30:25Z</time>
      </trkpt>
      <trkpt lat="42.419640000" lon="-2.350160000">
        <ele>426.30</ele>
        <time>2013-07-27T12:30:26Z</time>
      </trkpt>
      <trkpt lat="42.419646000" lon="-2.350229000">
        <ele>426.30</ele>
        <time>2013-07-27T12:30:27Z</time>
      </trkpt>
      <trkpt lat="42.419652000" lon="-2.350297000">
        <ele>426.40</ele>
        <time>2013-07-27T12:30:28Z</time>
      </trkpt>
      <trkpt lat="42.419657000" lon="-2.350364000">
        <ele>426.50</ele>
        <time>2013-07-27T12:30:29Z</time>
      </trkpt>
      <trkpt lat="42.419662000" lon="-2.350431000">
        <ele>426.50</ele>
        <time>2013-07-27T12:30:30Z</time>
      </trkpt>
      <trkpt lat="42.419667000" lon="-2.350501000">
        <ele>426.50</ele>
        <time>2013-07-27T12:30:31Z</time>
      </trkpt>
      <trkpt lat="42.419672000" lon="-2.350567000">
        <ele>426.50</ele>
        <time>2013-07-27T12:30:32Z</time>
      </trkpt>
      <trkpt lat="42.419672000" lon="-2.350634000">
        <ele>426.50</ele>
        <time>2013-07-27T12:30:33Z</time>
      </trkpt>
      <trkpt lat="42.419674000" lon="-2.350702000">
        <ele>426.50</ele>
        <time>2013-07-27T12:30:34Z</time>
      </trkpt>
      <trkpt lat="42.419678000" lon="-2.350771000">
        <ele>426.50</ele>
        <time>2013-07-27T12:30:35Z</time>
      </trkpt>
      <trkpt lat="42.419682000" lon="-2.350840000">
        <ele>426.50</ele>
        <time>2013-07-27T12:30:36Z</time>
      </trkpt>
      <trkpt lat="42.419685000" lon="-2.350908000">
        <ele>426.50</ele>
        <time>2013-07-27T12:30:37Z</time>
      </trkpt>
      <trkpt lat="42.419690000" lon="-2.350978000">
        <ele>426.50</ele>
        <time>2013-07-27T12:30:38Z</time>
      </trkpt>
      <trkpt lat="42.419691000" lon="-2.351049000">
        <ele>426.50</ele>
        <time>2013-07-27T12:30:39Z</time>
      </trkpt>
      <trkpt lat="42.419693000" lon="-2.351118000">
        <ele>426.10</ele>
        <time>2013-07-27T12:30:40Z</time>
      </trkpt>
      <trkpt lat="42.419696000" lon="-2.351189000">
        <ele>425.90</ele>
        <time>2013-07-27T12:30:41Z</time>
      </trkpt>
      <trkpt lat="42.419699000" lon="-2.351261000">
        <ele>425.70</ele>
        <time>2013-07-27T12:30:42Z</time>
      </trkpt>
      <trkpt lat="42.419700000" lon="-2.351332000">
        <ele>425.60</ele>
        <time>2013-07-27T12:30:43Z</time>
      </trkpt>
      <trkpt lat="42.419703000" lon="-2.351404000">
        <ele>425.60</ele>
        <time>2013-07-27T12:30:44Z</time>
      </trkpt>
      <trkpt lat="42.419705000" lon="-2.351476000">
        <ele>425.70</ele>
        <time>2013-07-27T12:30:45Z</time>
      </trkpt>
      <trkpt lat="42.419707000" lon="-2.351547000">
        <ele>425.70</ele>
        <time>2013-07-27T12:30:46Z</time>
      </trkpt>
      <trkpt lat="42.419709000" lon="-2.351619000">
        <ele>425.70</ele>
        <time>2013-07-27T12:30:47Z</time>
      </trkpt>
      <trkpt lat="42.419709000" lon="-2.351689000">
        <ele>425.60</ele>
        <time>2013-07-27T12:30:48Z</time>
      </trkpt>
      <trkpt lat="42.419710000" lon="-2.351761000">
        <ele>425.60</ele>
        <time>2013-07-27T12:30:49Z</time>
      </trkpt>
      <trkpt lat="42.419711000" lon="-2.351830000">
        <ele>425.40</ele>
        <time>2013-07-27T12:30:50Z</time>
      </trkpt>
      <trkpt lat="42.419713000" lon="-2.351898000">
        <ele>425.30</ele>
        <time>2013-07-27T12:30:51Z</time>
      </trkpt>
      <trkpt lat="42.419715000" lon="-2.351967000">
        <ele>425.20</ele>
        <time>2013-07-27T12:30:52Z</time>
      </trkpt>
      <trkpt lat="42.419717000" lon="-2.352036000">
        <ele>425.20</ele>
        <time>2013-07-27T12:30:53Z</time>
      </trkpt>
      <trkpt lat="42.419718000" lon="-2.352105000">
        <ele>424.90</ele>
        <time>2013-07-27T12:30:54Z</time>
      </trkpt>
      <trkpt lat="42.419717000" lon="-2.352172000">
        <ele>424.80</ele>
        <time>2013-07-27T12:30:55Z</time>
      </trkpt>
      <trkpt lat="42.419716000" lon="-2.352241000">
        <ele>424.90</ele>
        <time>2013-07-27T12:30:56Z</time>
      </trkpt>
      <trkpt lat="42.419715000" lon="-2.352306000">
        <ele>425.00</ele>
        <time>2013-07-27T12:30:57Z</time>
      </trkpt>
      <trkpt lat="42.419716000" lon="-2.352370000">
        <ele>424.80</ele>
        <time>2013-07-27T12:30:58Z</time>
      </trkpt>
      <trkpt lat="42.419716000" lon="-2.352432000">
        <ele>424.70</ele>
        <time>2013-07-27T12:30:59Z</time>
      </trkpt>
      <trkpt lat="42.419717000" lon="-2.352493000">
        <ele>424.50</ele>
        <time>2013-07-27T12:31:00Z</time>
      </trkpt>
      <trkpt lat="42.419718000" lon="-2.352556000">
        <ele>424.40</ele>
        <time>2013-07-27T12:31:01Z</time>
      </trkpt>
      <trkpt lat="42.419718000" lon="-2.352620000">
        <ele>424.30</ele>
        <time>2013-07-27T12:31:02Z</time>
      </trkpt>
      <trkpt lat="42.419716000" lon="-2.352683000">
        <ele>424.20</ele>
        <time>2013-07-27T12:31:03Z</time>
      </trkpt>
      <trkpt lat="42.419713000" lon="-2.352745000">
        <ele>423.90</ele>
        <time>2013-07-27T12:31:04Z</time>
      </trkpt>
      <trkpt lat="42.419709000" lon="-2.352808000">
        <ele>423.70</ele>
        <time>2013-07-27T12:31:05Z</time>
      </trkpt>
      <trkpt lat="42.419701000" lon="-2.352872000">
        <ele>423.60</ele>
        <time>2013-07-27T12:31:06Z</time>
      </trkpt>
      <trkpt lat="42.419695000" lon="-2.352934000">
        <ele>423.60</ele>
        <time>2013-07-27T12:31:07Z</time>
      </trkpt>
      <trkpt lat="42.419687000" lon="-2.352994000">
        <ele>423.60</ele>
        <time>2013-07-27T12:31:08Z</time>
      </trkpt>
      <trkpt lat="42.419680000" lon="-2.353056000">
        <ele>423.60</ele>
        <time>2013-07-27T12:31:09Z</time>
      </trkpt>
      <trkpt lat="42.419669000" lon="-2.353118000">
        <ele>423.80</ele>
        <time>2013-07-27T12:31:10Z</time>
      </trkpt>
      <trkpt lat="42.419658000" lon="-2.353181000">
        <ele>424.00</ele>
        <time>2013-07-27T12:31:11Z</time>
      </trkpt>
      <trkpt lat="42.419648000" lon="-2.353247000">
        <ele>424.20</ele>
        <time>2013-07-27T12:31:12Z</time>
      </trkpt>
      <trkpt lat="42.419637000" lon="-2.353314000">
        <ele>424.30</ele>
        <time>2013-07-27T12:31:13Z</time>
      </trkpt>
      <trkpt lat="42.419629000" lon="-2.353379000">
        <ele>424.30</ele>
        <time>2013-07-27T12:31:14Z</time>
      </trkpt>
      <trkpt lat="42.419624000" lon="-2.353444000">
        <ele>424.20</ele>
        <time>2013-07-27T12:31:15Z</time>
      </trkpt>
      <trkpt lat="42.419617000" lon="-2.353508000">
        <ele>423.90</ele>
        <time>2013-07-27T12:31:16Z</time>
      </trkpt>
      <trkpt lat="42.419613000" lon="-2.353569000">
        <ele>423.70</ele>
        <time>2013-07-27T12:31:17Z</time>
      </trkpt>
      <trkpt lat="42.419607000" lon="-2.353630000">
        <ele>423.70</ele>
        <time>2013-07-27T12:31:18Z</time>
      </trkpt>
      <trkpt lat="42.419603000" lon="-2.353689000">
        <ele>423.80</ele>
        <time>2013-07-27T12:31:19Z</time>
      </trkpt>
      <trkpt lat="42.419600000" lon="-2.353745000">
        <ele>423.60</ele>
        <time>2013-07-27T12:31:20Z</time>
      </trkpt>
      <trkpt lat="42.419604000" lon="-2.353805000">
        <ele>423.50</ele>
        <time>2013-07-27T12:31:21Z</time>
      </trkpt>
      <trkpt lat="42.419601000" lon="-2.353864000">
        <ele>423.40</ele>
        <time>2013-07-27T12:31:22Z</time>
      </trkpt>
      <trkpt lat="42.419592000" lon="-2.353924000">
        <ele>423.30</ele>
        <time>2013-07-27T12:31:23Z</time>
      </trkpt>
      <trkpt lat="42.419575000" lon="-2.353985000">
        <ele>423.20</ele>
        <time>2013-07-27T12:31:24Z</time>
      </trkpt>
      <trkpt lat="42.419564000" lon="-2.354051000">
        <ele>423.20</ele>
        <time>2013-07-27T12:31:25Z</time>
      </trkpt>
      <trkpt lat="42.419556000" lon="-2.354118000">
        <ele>423.20</ele>
        <time>2013-07-27T12:31:26Z</time>
      </trkpt>
      <trkpt lat="42.419546000" lon="-2.354189000">
        <ele>423.20</ele>
        <time>2013-07-27T12:31:27Z</time>
      </trkpt>
      <trkpt lat="42.419535000" lon="-2.354261000">
        <ele>423.10</ele>
        <time>2013-07-27T12:31:28Z</time>
      </trkpt>
      <trkpt lat="42.419521000" lon="-2.354332000">
        <ele>423.10</ele>
        <time>2013-07-27T12:31:29Z</time>
      </trkpt>
      <trkpt lat="42.419511000" lon="-2.354403000">
        <ele>423.30</ele>
        <time>2013-07-27T12:31:30Z</time>
      </trkpt>
      <trkpt lat="42.419498000" lon="-2.354473000">
        <ele>423.50</ele>
        <time>2013-07-27T12:31:31Z</time>
      </trkpt>
      <trkpt lat="42.419484000" lon="-2.354541000">
        <ele>423.30</ele>
        <time>2013-07-27T12:31:32Z</time>
      </trkpt>
      <trkpt lat="42.419473000" lon="-2.354610000">
        <ele>423.20</ele>
        <time>2013-07-27T12:31:33Z</time>
      </trkpt>
      <trkpt lat="42.419459000" lon="-2.354679000">
        <ele>423.40</ele>
        <time>2013-07-27T12:31:34Z</time>
      </trkpt>
      <trkpt lat="42.419449000" lon="-2.354746000">
        <ele>423.50</ele>
        <time>2013-07-27T12:31:35Z</time>
      </trkpt>
      <trkpt lat="42.419439000" lon="-2.354813000">
        <ele>423.80</ele>
        <time>2013-07-27T12:31:36Z</time>
      </trkpt>
      <trkpt lat="42.419432000" lon="-2.354879000">
        <ele>424.00</ele>
        <time>2013-07-27T12:31:37Z</time>
      </trkpt>
      <trkpt lat="42.419425000" lon="-2.354947000">
        <ele>424.10</ele>
        <time>2013-07-27T12:31:38Z</time>
      </trkpt>
      <trkpt lat="42.419420000" lon="-2.355012000">
        <ele>424.20</ele>
        <time>2013-07-27T12:31:39Z</time>
      </trkpt>
      <trkpt lat="42.419413000" lon="-2.355079000">
        <ele>424.20</ele>
        <time>2013-07-27T12:31:40Z</time>
      </trkpt>
      <trkpt lat="42.419408000" lon="-2.355146000">
        <ele>424.30</ele>
        <time>2013-07-27T12:31:41Z</time>
      </trkpt>
      <trkpt lat="42.419401000" lon="-2.355212000">
        <ele>424.00</ele>
        <time>2013-07-27T12:31:42Z</time>
      </trkpt>
      <trkpt lat="42.419395000" lon="-2.355277000">
        <ele>423.80</ele>
        <time>2013-07-27T12:31:43Z</time>
      </trkpt>
      <trkpt lat="42.419390000" lon="-2.355340000">
        <ele>423.60</ele>
        <time>2013-07-27T12:31:44Z</time>
      </trkpt>
      <trkpt lat="42.419382000" lon="-2.355403000">
        <ele>423.50</ele>
        <time>2013-07-27T12:31:45Z</time>
      </trkpt>
      <trkpt lat="42.419377000" lon="-2.355468000">
        <ele>423.20</ele>
        <time>2013-07-27T12:31:46Z</time>
      </trkpt>
      <trkpt lat="42.419372000" lon="-2.355535000">
        <ele>422.90</ele>
        <time>2013-07-27T12:31:47Z</time>
      </trkpt>
      <trkpt lat="42.419370000" lon="-2.355599000">
        <ele>422.70</ele>
        <time>2013-07-27T12:31:48Z</time>
      </trkpt>
      <trkpt lat="42.419363000" lon="-2.355665000">
        <ele>422.50</ele>
        <time>2013-07-27T12:31:49Z</time>
      </trkpt>
      <trkpt lat="42.419358000" lon="-2.355731000">
        <ele>422.30</ele>
        <time>2013-07-27T12:31:50Z</time>
      </trkpt>
      <trkpt lat="42.419353000" lon="-2.355797000">
        <ele>422.20</ele>
        <time>2013-07-27T12:31:51Z</time>
      </trkpt>
      <trkpt lat="42.419349000" lon="-2.355864000">
        <ele>422.20</ele>
        <time>2013-07-27T12:31:52Z</time>
      </trkpt>
      <trkpt lat="42.419343000" lon="-2.355933000">
        <ele>422.10</ele>
        <time>2013-07-27T12:31:53Z</time>
      </trkpt>
      <trkpt lat="42.419340000" lon="-2.356003000">
        <ele>422.10</ele>
        <time>2013-07-27T12:31:54Z</time>
      </trkpt>
      <trkpt lat="42.419335000" lon="-2.356071000">
        <ele>422.00</ele>
        <time>2013-07-27T12:31:55Z</time>
      </trkpt>
      <trkpt lat="42.419332000" lon="-2.356137000">
        <ele>422.00</ele>
        <time>2013-07-27T12:31:56Z</time>
      </trkpt>
      <trkpt lat="42.419330000" lon="-2.356202000">
        <ele>422.00</ele>
        <time>2013-07-27T12:31:57Z</time>
      </trkpt>
      <trkpt lat="42.419328000" lon="-2.356269000">
        <ele>422.00</ele>
        <time>2013-07-27T12:31:58Z</time>
      </trkpt>
      <trkpt lat="42.419329000" lon="-2.356334000">
        <ele>422.00</ele>
        <time>2013-07-27T12:31:59Z</time>
      </trkpt>
      <trkpt lat="42.419332000" lon="-2.356401000">
        <ele>421.90</ele>
        <time>2013-07-27T12:32:00Z</time>
      </trkpt>
      <trkpt lat="42.419336000" lon="-2.356472000">
        <ele>421.80</ele>
        <time>2013-07-27T12:32:01Z</time>
      </trkpt>
      <trkpt lat="42.419337000" lon="-2.356543000">
        <ele>421.40</ele>
        <time>2013-07-27T12:32:02Z</time>
      </trkpt>
      <trkpt lat="42.419340000" lon="-2.356612000">
        <ele>421.20</ele>
        <time>2013-07-27T12:32:03Z</time>
      </trkpt>
      <trkpt lat="42.419344000" lon="-2.356683000">
        <ele>421.00</ele>
        <time>2013-07-27T12:32:04Z</time>
      </trkpt>
      <trkpt lat="42.419349000" lon="-2.356752000">
        <ele>420.90</ele>
        <time>2013-07-27T12:32:05Z</time>
      </trkpt>
      <trkpt lat="42.419354000" lon="-2.356820000">
        <ele>421.00</ele>
        <time>2013-07-27T12:32:06Z</time>
      </trkpt>
      <trkpt lat="42.419360000" lon="-2.356890000">
        <ele>421.00</ele>
        <time>2013-07-27T12:32:07Z</time>
      </trkpt>
      <trkpt lat="42.419364000" lon="-2.356956000">
        <ele>421.20</ele>
        <time>2013-07-27T12:32:08Z</time>
      </trkpt>
      <trkpt lat="42.419370000" lon="-2.357024000">
        <ele>421.40</ele>
        <time>2013-07-27T12:32:09Z</time>
      </trkpt>
      <trkpt lat="42.419378000" lon="-2.357093000">
        <ele>421.80</ele>
        <time>2013-07-27T12:32:10Z</time>
      </trkpt>
      <trkpt lat="42.419382000" lon="-2.357162000">
        <ele>422.20</ele>
        <time>2013-07-27T12:32:11Z</time>
      </trkpt>
      <trkpt lat="42.419389000" lon="-2.357230000">
        <ele>422.30</ele>
        <time>2013-07-27T12:32:12Z</time>
      </trkpt>
      <trkpt lat="42.419399000" lon="-2.357299000">
        <ele>422.50</ele>
        <time>2013-07-27T12:32:13Z</time>
      </trkpt>
      <trkpt lat="42.419409000" lon="-2.357362000">
        <ele>422.60</ele>
        <time>2013-07-27T12:32:14Z</time>
      </trkpt>
      <trkpt lat="42.419416000" lon="-2.357419000">
        <ele>422.70</ele>
        <time>2013-07-27T12:32:15Z</time>
      </trkpt>
      <trkpt lat="42.419419000" lon="-2.357479000">
        <ele>422.70</ele>
        <time>2013-07-27T12:32:16Z</time>
      </trkpt>
      <trkpt lat="42.419418000" lon="-2.357539000">
        <ele>422.80</ele>
        <time>2013-07-27T12:32:17Z</time>
      </trkpt>
      <trkpt lat="42.419415000" lon="-2.357599000">
        <ele>422.40</ele>
        <time>2013-07-27T12:32:18Z</time>
      </trkpt>
      <trkpt lat="42.419413000" lon="-2.357657000">
        <ele>422.00</ele>
        <time>2013-07-27T12:32:19Z</time>
      </trkpt>
      <trkpt lat="42.419409000" lon="-2.357715000">
        <ele>421.90</ele>
        <time>2013-07-27T12:32:20Z</time>
      </trkpt>
      <trkpt lat="42.419408000" lon="-2.357771000">
        <ele>421.80</ele>
        <time>2013-07-27T12:32:21Z</time>
      </trkpt>
      <trkpt lat="42.419405000" lon="-2.357828000">
        <ele>421.70</ele>
        <time>2013-07-27T12:32:22Z</time>
      </trkpt>
      <trkpt lat="42.419401000" lon="-2.357886000">
        <ele>421.60</ele>
        <time>2013-07-27T12:32:23Z</time>
      </trkpt>
      <trkpt lat="42.419395000" lon="-2.357945000">
        <ele>421.60</ele>
        <time>2013-07-27T12:32:24Z</time>
      </trkpt>
      <trkpt lat="42.419391000" lon="-2.358004000">
        <ele>421.50</ele>
        <time>2013-07-27T12:32:25Z</time>
      </trkpt>
      <trkpt lat="42.419385000" lon="-2.358064000">
        <ele>421.50</ele>
        <time>2013-07-27T12:32:26Z</time>
      </trkpt>
      <trkpt lat="42.419383000" lon="-2.358124000">
        <ele>421.50</ele>
        <time>2013-07-27T12:32:27Z</time>
      </trkpt>
      <trkpt lat="42.419378000" lon="-2.358183000">
        <ele>421.50</ele>
        <time>2013-07-27T12:32:28Z</time>
      </trkpt>
      <trkpt lat="42.419374000" lon="-2.358242000">
        <ele>421.50</ele>
        <time>2013-07-27T12:32:29Z</time>
      </trkpt>
      <trkpt lat="42.419370000" lon="-2.358302000">
        <ele>421.30</ele>
        <time>2013-07-27T12:32:30Z</time>
      </trkpt>
      <trkpt lat="42.419364000" lon="-2.358362000">
        <ele>421.10</ele>
        <time>2013-07-27T12:32:31Z</time>
      </trkpt>
      <trkpt lat="42.419361000" lon="-2.358422000">
        <ele>420.90</ele>
        <time>2013-07-27T12:32:32Z</time>
      </trkpt>
      <trkpt lat="42.419356000" lon="-2.358480000">
        <ele>420.70</ele>
        <time>2013-07-27T12:32:33Z</time>
      </trkpt>
      <trkpt lat="42.419351000" lon="-2.358543000">
        <ele>420.60</ele>
        <time>2013-07-27T12:32:34Z</time>
      </trkpt>
      <trkpt lat="42.419345000" lon="-2.358602000">
        <ele>420.50</ele>
        <time>2013-07-27T12:32:35Z</time>
      </trkpt>
      <trkpt lat="42.419340000" lon="-2.358665000">
        <ele>420.40</ele>
        <time>2013-07-27T12:32:36Z</time>
      </trkpt>
      <trkpt lat="42.419336000" lon="-2.358730000">
        <ele>420.30</ele>
        <time>2013-07-27T12:32:37Z</time>
      </trkpt>
      <trkpt lat="42.419330000" lon="-2.358796000">
        <ele>420.30</ele>
        <time>2013-07-27T12:32:38Z</time>
      </trkpt>
      <trkpt lat="42.419324000" lon="-2.358860000">
        <ele>420.30</ele>
        <time>2013-07-27T12:32:39Z</time>
      </trkpt>
      <trkpt lat="42.419320000" lon="-2.358924000">
        <ele>420.10</ele>
        <time>2013-07-27T12:32:40Z</time>
      </trkpt>
      <trkpt lat="42.419314000" lon="-2.358988000">
        <ele>420.00</ele>
        <time>2013-07-27T12:32:41Z</time>
      </trkpt>
      <trkpt lat="42.419307000" lon="-2.359050000">
        <ele>419.90</ele>
        <time>2013-07-27T12:32:42Z</time>
      </trkpt>
      <trkpt lat="42.419303000" lon="-2.359113000">
        <ele>419.80</ele>
        <time>2013-07-27T12:32:43Z</time>
      </trkpt>
      <trkpt lat="42.419297000" lon="-2.359178000">
        <ele>419.70</ele>
        <time>2013-07-27T12:32:44Z</time>
      </trkpt>
      <trkpt lat="42.419290000" lon="-2.359243000">
        <ele>419.60</ele>
        <time>2013-07-27T12:32:45Z</time>
      </trkpt>
      <trkpt lat="42.419284000" lon="-2.359306000">
        <ele>419.60</ele>
        <time>2013-07-27T12:32:46Z</time>
      </trkpt>
      <trkpt lat="42.419277000" lon="-2.359370000">
        <ele>419.50</ele>
        <time>2013-07-27T12:32:47Z</time>
      </trkpt>
      <trkpt lat="42.419269000" lon="-2.359434000">
        <ele>419.50</ele>
        <time>2013-07-27T12:32:48Z</time>
      </trkpt>
      <trkpt lat="42.419262000" lon="-2.359499000">
        <ele>419.50</ele>
        <time>2013-07-27T12:32:49Z</time>
      </trkpt>
      <trkpt lat="42.419256000" lon="-2.359564000">
        <ele>419.20</ele>
        <time>2013-07-27T12:32:50Z</time>
      </trkpt>
      <trkpt lat="42.419251000" lon="-2.359628000">
        <ele>418.90</ele>
        <time>2013-07-27T12:32:51Z</time>
      </trkpt>
      <trkpt lat="42.419245000" lon="-2.359690000">
        <ele>419.10</ele>
        <time>2013-07-27T12:32:52Z</time>
      </trkpt>
      <trkpt lat="42.419239000" lon="-2.359754000">
        <ele>419.20</ele>
        <time>2013-07-27T12:32:53Z</time>
      </trkpt>
      <trkpt lat="42.419234000" lon="-2.359820000">
        <ele>418.90</ele>
        <time>2013-07-27T12:32:54Z</time>
      </trkpt>
      <trkpt lat="42.419228000" lon="-2.359885000">
        <ele>418.70</ele>
        <time>2013-07-27T12:32:55Z</time>
      </trkpt>
      <trkpt lat="42.419222000" lon="-2.359949000">
        <ele>418.50</ele>
        <time>2013-07-27T12:32:56Z</time>
      </trkpt>
      <trkpt lat="42.419216000" lon="-2.360011000">
        <ele>418.40</ele>
        <time>2013-07-27T12:32:57Z</time>
      </trkpt>
      <trkpt lat="42.419209000" lon="-2.360074000">
        <ele>418.30</ele>
        <time>2013-07-27T12:32:58Z</time>
      </trkpt>
      <trkpt lat="42.419203000" lon="-2.360139000">
        <ele>418.20</ele>
        <time>2013-07-27T12:32:59Z</time>
      </trkpt>
      <trkpt lat="42.419197000" lon="-2.360204000">
        <ele>418.20</ele>
        <time>2013-07-27T12:33:00Z</time>
      </trkpt>
      <trkpt lat="42.419190000" lon="-2.360270000">
        <ele>418.20</ele>
        <time>2013-07-27T12:33:01Z</time>
      </trkpt>
      <trkpt lat="42.419186000" lon="-2.360335000">
        <ele>418.30</ele>
        <time>2013-07-27T12:33:02Z</time>
      </trkpt>
      <trkpt lat="42.419179000" lon="-2.360397000">
        <ele>418.50</ele>
        <time>2013-07-27T12:33:03Z</time>
      </trkpt>
      <trkpt lat="42.419173000" lon="-2.360459000">
        <ele>418.50</ele>
        <time>2013-07-27T12:33:04Z</time>
      </trkpt>
      <trkpt lat="42.419170000" lon="-2.360518000">
        <ele>418.60</ele>
        <time>2013-07-27T12:33:05Z</time>
      </trkpt>
      <trkpt lat="42.419165000" lon="-2.360575000">
        <ele>418.60</ele>
        <time>2013-07-27T12:33:06Z</time>
      </trkpt>
      <trkpt lat="42.419161000" lon="-2.360634000">
        <ele>418.70</ele>
        <time>2013-07-27T12:33:07Z</time>
      </trkpt>
      <trkpt lat="42.419157000" lon="-2.360692000">
        <ele>418.60</ele>
        <time>2013-07-27T12:33:08Z</time>
      </trkpt>
      <trkpt lat="42.419157000" lon="-2.360751000">
        <ele>418.60</ele>
        <time>2013-07-27T12:33:09Z</time>
      </trkpt>
      <trkpt lat="42.419157000" lon="-2.360812000">
        <ele>418.60</ele>
        <time>2013-07-27T12:33:10Z</time>
      </trkpt>
      <trkpt lat="42.419154000" lon="-2.360874000">
        <ele>418.60</ele>
        <time>2013-07-27T12:33:11Z</time>
      </trkpt>
      <trkpt lat="42.419149000" lon="-2.360934000">
        <ele>418.60</ele>
        <time>2013-07-27T12:33:12Z</time>
      </trkpt>
      <trkpt lat="42.419144000" lon="-2.360992000">
        <ele>418.60</ele>
        <time>2013-07-27T12:33:13Z</time>
      </trkpt>
      <trkpt lat="42.419140000" lon="-2.361050000">
        <ele>418.60</ele>
        <time>2013-07-27T12:33:14Z</time>
      </trkpt>
      <trkpt lat="42.419137000" lon="-2.361111000">
        <ele>418.60</ele>
        <time>2013-07-27T12:33:15Z</time>
      </trkpt>
      <trkpt lat="42.419137000" lon="-2.361175000">
        <ele>418.50</ele>
        <time>2013-07-27T12:33:16Z</time>
      </trkpt>
      <trkpt lat="42.419137000" lon="-2.361237000">
        <ele>418.50</ele>
        <time>2013-07-27T12:33:17Z</time>
      </trkpt>
      <trkpt lat="42.419139000" lon="-2.361300000">
        <ele>418.50</ele>
        <time>2013-07-27T12:33:18Z</time>
      </trkpt>
      <trkpt lat="42.419140000" lon="-2.361366000">
        <ele>418.50</ele>
        <time>2013-07-27T12:33:19Z</time>
      </trkpt>
      <trkpt lat="42.419140000" lon="-2.361433000">
        <ele>418.50</ele>
        <time>2013-07-27T12:33:20Z</time>
      </trkpt>
      <trkpt lat="42.419143000" lon="-2.361500000">
        <ele>418.40</ele>
        <time>2013-07-27T12:33:21Z</time>
      </trkpt>
      <trkpt lat="42.419146000" lon="-2.361567000">
        <ele>418.40</ele>
        <time>2013-07-27T12:33:22Z</time>
      </trkpt>
      <trkpt lat="42.419150000" lon="-2.361633000">
        <ele>418.40</ele>
        <time>2013-07-27T12:33:23Z</time>
      </trkpt>
      <trkpt lat="42.419154000" lon="-2.361700000">
        <ele>418.20</ele>
        <time>2013-07-27T12:33:24Z</time>
      </trkpt>
      <trkpt lat="42.419157000" lon="-2.361767000">
        <ele>418.00</ele>
        <time>2013-07-27T12:33:25Z</time>
      </trkpt>
      <trkpt lat="42.419160000" lon="-2.361832000">
        <ele>418.10</ele>
        <time>2013-07-27T12:33:26Z</time>
      </trkpt>
      <trkpt lat="42.419165000" lon="-2.361898000">
        <ele>418.20</ele>
        <time>2013-07-27T12:33:27Z</time>
      </trkpt>
      <trkpt lat="42.419170000" lon="-2.361962000">
        <ele>418.30</ele>
        <time>2013-07-27T12:33:28Z</time>
      </trkpt>
      <trkpt lat="42.419172000" lon="-2.362029000">
        <ele>418.40</ele>
        <time>2013-07-27T12:33:29Z</time>
      </trkpt>
      <trkpt lat="42.419175000" lon="-2.362095000">
        <ele>418.50</ele>
        <time>2013-07-27T12:33:30Z</time>
      </trkpt>
      <trkpt lat="42.419178000" lon="-2.362163000">
        <ele>418.60</ele>
        <time>2013-07-27T12:33:31Z</time>
      </trkpt>
      <trkpt lat="42.419180000" lon="-2.362231000">
        <ele>418.60</ele>
        <time>2013-07-27T12:33:32Z</time>
      </trkpt>
      <trkpt lat="42.419184000" lon="-2.362299000">
        <ele>418.60</ele>
        <time>2013-07-27T12:33:33Z</time>
      </trkpt>
      <trkpt lat="42.419185000" lon="-2.362366000">
        <ele>418.50</ele>
        <time>2013-07-27T12:33:34Z</time>
      </trkpt>
      <trkpt lat="42.419178000" lon="-2.362433000">
        <ele>418.50</ele>
        <time>2013-07-27T12:33:35Z</time>
      </trkpt>
      <trkpt lat="42.419173000" lon="-2.362498000">
        <ele>418.40</ele>
        <time>2013-07-27T12:33:36Z</time>
      </trkpt>
      <trkpt lat="42.419169000" lon="-2.362563000">
        <ele>418.40</ele>
        <time>2013-07-27T12:33:37Z</time>
      </trkpt>
      <trkpt lat="42.419161000" lon="-2.362625000">
        <ele>418.30</ele>
        <time>2013-07-27T12:33:38Z</time>
      </trkpt>
      <trkpt lat="42.419153000" lon="-2.362687000">
        <ele>418.20</ele>
        <time>2013-07-27T12:33:39Z</time>
      </trkpt>
      <trkpt lat="42.419148000" lon="-2.362745000">
        <ele>418.10</ele>
        <time>2013-07-27T12:33:40Z</time>
      </trkpt>
      <trkpt lat="42.419142000" lon="-2.362802000">
        <ele>418.00</ele>
        <time>2013-07-27T12:33:41Z</time>
      </trkpt>
      <trkpt lat="42.419135000" lon="-2.362861000">
        <ele>417.90</ele>
        <time>2013-07-27T12:33:42Z</time>
      </trkpt>
      <trkpt lat="42.419129000" lon="-2.362920000">
        <ele>417.90</ele>
        <time>2013-07-27T12:33:43Z</time>
      </trkpt>
      <trkpt lat="42.419117000" lon="-2.362980000">
        <ele>417.90</ele>
        <time>2013-07-27T12:33:44Z</time>
      </trkpt>
      <trkpt lat="42.419109000" lon="-2.363038000">
        <ele>417.80</ele>
        <time>2013-07-27T12:33:45Z</time>
      </trkpt>
      <trkpt lat="42.419102000" lon="-2.363098000">
        <ele>417.80</ele>
        <time>2013-07-27T12:33:46Z</time>
      </trkpt>
      <trkpt lat="42.419094000" lon="-2.363160000">
        <ele>417.80</ele>
        <time>2013-07-27T12:33:47Z</time>
      </trkpt>
      <trkpt lat="42.419085000" lon="-2.363221000">
        <ele>417.80</ele>
        <time>2013-07-27T12:33:48Z</time>
      </trkpt>
      <trkpt lat="42.419076000" lon="-2.363282000">
        <ele>417.80</ele>
        <time>2013-07-27T12:33:49Z</time>
      </trkpt>
      <trkpt lat="42.419068000" lon="-2.363342000">
        <ele>417.70</ele>
        <time>2013-07-27T12:33:50Z</time>
      </trkpt>
      <trkpt lat="42.419061000" lon="-2.363404000">
        <ele>417.70</ele>
        <time>2013-07-27T12:33:51Z</time>
      </trkpt>
      <trkpt lat="42.419058000" lon="-2.363466000">
        <ele>417.50</ele>
        <time>2013-07-27T12:33:52Z</time>
      </trkpt>
      <trkpt lat="42.419053000" lon="-2.363524000">
        <ele>417.40</ele>
        <time>2013-07-27T12:33:53Z</time>
      </trkpt>
      <trkpt lat="42.419048000" lon="-2.363572000">
        <ele>417.30</ele>
        <time>2013-07-27T12:33:54Z</time>
      </trkpt>
      <trkpt lat="42.419051000" lon="-2.363617000">
        <ele>417.10</ele>
        <time>2013-07-27T12:33:55Z</time>
      </trkpt>
      <trkpt lat="42.419051000" lon="-2.363664000">
        <ele>417.00</ele>
        <time>2013-07-27T12:33:56Z</time>
      </trkpt>
      <trkpt lat="42.419048000" lon="-2.363712000">
        <ele>416.90</ele>
        <time>2013-07-27T12:33:57Z</time>
      </trkpt>
      <trkpt lat="42.419042000" lon="-2.363759000">
        <ele>416.80</ele>
        <time>2013-07-27T12:33:58Z</time>
      </trkpt>
      <trkpt lat="42.419038000" lon="-2.363804000">
        <ele>416.70</ele>
        <time>2013-07-27T12:33:59Z</time>
      </trkpt>
      <trkpt lat="42.419035000" lon="-2.363851000">
        <ele>416.70</ele>
        <time>2013-07-27T12:34:00Z</time>
      </trkpt>
      <trkpt lat="42.419030000" lon="-2.363902000">
        <ele>416.70</ele>
        <time>2013-07-27T12:34:01Z</time>
      </trkpt>
      <trkpt lat="42.419027000" lon="-2.363953000">
        <ele>416.60</ele>
        <time>2013-07-27T12:34:02Z</time>
      </trkpt>
      <trkpt lat="42.419027000" lon="-2.364005000">
        <ele>416.60</ele>
        <time>2013-07-27T12:34:03Z</time>
      </trkpt>
      <trkpt lat="42.419028000" lon="-2.364057000">
        <ele>416.50</ele>
        <time>2013-07-27T12:34:04Z</time>
      </trkpt>
      <trkpt lat="42.419023000" lon="-2.364110000">
        <ele>416.50</ele>
        <time>2013-07-27T12:34:05Z</time>
      </trkpt>
      <trkpt lat="42.419023000" lon="-2.364166000">
        <ele>416.50</ele>
        <time>2013-07-27T12:34:06Z</time>
      </trkpt>
      <trkpt lat="42.419021000" lon="-2.364222000">
        <ele>416.40</ele>
        <time>2013-07-27T12:34:07Z</time>
      </trkpt>
      <trkpt lat="42.419019000" lon="-2.364281000">
        <ele>416.40</ele>
        <time>2013-07-27T12:34:08Z</time>
      </trkpt>
      <trkpt lat="42.419018000" lon="-2.364341000">
        <ele>416.40</ele>
        <time>2013-07-27T12:34:09Z</time>
      </trkpt>
      <trkpt lat="42.419018000" lon="-2.364400000">
        <ele>416.40</ele>
        <time>2013-07-27T12:34:10Z</time>
      </trkpt>
      <trkpt lat="42.419015000" lon="-2.364458000">
        <ele>416.40</ele>
        <time>2013-07-27T12:34:11Z</time>
      </trkpt>
      <trkpt lat="42.419013000" lon="-2.364508000">
        <ele>416.40</ele>
        <time>2013-07-27T12:34:12Z</time>
      </trkpt>
      <trkpt lat="42.419003000" lon="-2.364550000">
        <ele>416.40</ele>
        <time>2013-07-27T12:34:13Z</time>
      </trkpt>
      <trkpt lat="42.418999000" lon="-2.364590000">
        <ele>416.30</ele>
        <time>2013-07-27T12:34:14Z</time>
      </trkpt>
      <trkpt lat="42.418998000" lon="-2.364638000">
        <ele>416.20</ele>
        <time>2013-07-27T12:34:15Z</time>
      </trkpt>
      <trkpt lat="42.418997000" lon="-2.364689000">
        <ele>416.40</ele>
        <time>2013-07-27T12:34:16Z</time>
      </trkpt>
      <trkpt lat="42.418997000" lon="-2.364744000">
        <ele>416.60</ele>
        <time>2013-07-27T12:34:17Z</time>
      </trkpt>
      <trkpt lat="42.418996000" lon="-2.364796000">
        <ele>416.70</ele>
        <time>2013-07-27T12:34:18Z</time>
      </trkpt>
      <trkpt lat="42.418994000" lon="-2.364849000">
        <ele>416.80</ele>
        <time>2013-07-27T12:34:19Z</time>
      </trkpt>
      <trkpt lat="42.418991000" lon="-2.364905000">
        <ele>416.80</ele>
        <time>2013-07-27T12:34:20Z</time>
      </trkpt>
      <trkpt lat="42.418990000" lon="-2.364960000">
        <ele>416.90</ele>
        <time>2013-07-27T12:34:21Z</time>
      </trkpt>
      <trkpt lat="42.418991000" lon="-2.365017000">
        <ele>416.90</ele>
        <time>2013-07-27T12:34:22Z</time>
      </trkpt>
      <trkpt lat="42.418991000" lon="-2.365075000">
        <ele>416.90</ele>
        <time>2013-07-27T12:34:23Z</time>
      </trkpt>
      <trkpt lat="42.418991000" lon="-2.365134000">
        <ele>417.00</ele>
        <time>2013-07-27T12:34:24Z</time>
      </trkpt>
      <trkpt lat="42.418988000" lon="-2.365192000">
        <ele>417.00</ele>
        <time>2013-07-27T12:34:25Z</time>
      </trkpt>
      <trkpt lat="42.418986000" lon="-2.365251000">
        <ele>416.80</ele>
        <time>2013-07-27T12:34:26Z</time>
      </trkpt>
      <trkpt lat="42.418987000" lon="-2.365310000">
        <ele>416.60</ele>
        <time>2013-07-27T12:34:27Z</time>
      </trkpt>
      <trkpt lat="42.418985000" lon="-2.365373000">
        <ele>416.50</ele>
        <time>2013-07-27T12:34:28Z</time>
      </trkpt>
      <trkpt lat="42.418984000" lon="-2.365438000">
        <ele>416.50</ele>
        <time>2013-07-27T12:34:29Z</time>
      </trkpt>
      <trkpt lat="42.418984000" lon="-2.365502000">
        <ele>416.50</ele>
        <time>2013-07-27T12:34:30Z</time>
      </trkpt>
      <trkpt lat="42.418985000" lon="-2.365569000">
        <ele>416.40</ele>
        <time>2013-07-27T12:34:31Z</time>
      </trkpt>
      <trkpt lat="42.418985000" lon="-2.365634000">
        <ele>416.60</ele>
        <time>2013-07-27T12:34:32Z</time>
      </trkpt>
      <trkpt lat="42.418985000" lon="-2.365702000">
        <ele>416.60</ele>
        <time>2013-07-27T12:34:33Z</time>
      </trkpt>
      <trkpt lat="42.418982000" lon="-2.365765000">
        <ele>416.90</ele>
        <time>2013-07-27T12:34:34Z</time>
      </trkpt>
      <trkpt lat="42.418977000" lon="-2.365825000">
        <ele>417.10</ele>
        <time>2013-07-27T12:34:35Z</time>
      </trkpt>
      <trkpt lat="42.418972000" lon="-2.365886000">
        <ele>417.10</ele>
        <time>2013-07-27T12:34:36Z</time>
      </trkpt>
      <trkpt lat="42.418970000" lon="-2.365941000">
        <ele>417.00</ele>
        <time>2013-07-27T12:34:37Z</time>
      </trkpt>
      <trkpt lat="42.418968000" lon="-2.365997000">
        <ele>416.70</ele>
        <time>2013-07-27T12:34:38Z</time>
      </trkpt>
      <trkpt lat="42.418965000" lon="-2.366058000">
        <ele>416.40</ele>
        <time>2013-07-27T12:34:39Z</time>
      </trkpt>
      <trkpt lat="42.418968000" lon="-2.366116000">
        <ele>416.20</ele>
        <time>2013-07-27T12:34:40Z</time>
      </trkpt>
      <trkpt lat="42.418970000" lon="-2.366172000">
        <ele>416.10</ele>
        <time>2013-07-27T12:34:41Z</time>
      </trkpt>
      <trkpt lat="42.418971000" lon="-2.366227000">
        <ele>416.30</ele>
        <time>2013-07-27T12:34:42Z</time>
      </trkpt>
      <trkpt lat="42.418971000" lon="-2.366284000">
        <ele>416.50</ele>
        <time>2013-07-27T12:34:43Z</time>
      </trkpt>
      <trkpt lat="42.418970000" lon="-2.366342000">
        <ele>416.70</ele>
        <time>2013-07-27T12:34:44Z</time>
      </trkpt>
      <trkpt lat="42.418974000" lon="-2.366397000">
        <ele>416.80</ele>
        <time>2013-07-27T12:34:45Z</time>
      </trkpt>
      <trkpt lat="42.418978000" lon="-2.366450000">
        <ele>416.80</ele>
        <time>2013-07-27T12:34:46Z</time>
      </trkpt>
      <trkpt lat="42.418986000" lon="-2.366500000">
        <ele>416.90</ele>
        <time>2013-07-27T12:34:47Z</time>
      </trkpt>
      <trkpt lat="42.418993000" lon="-2.366544000">
        <ele>416.80</ele>
        <time>2013-07-27T12:34:48Z</time>
      </trkpt>
      <trkpt lat="42.419007000" lon="-2.366580000">
        <ele>416.60</ele>
        <time>2013-07-27T12:34:49Z</time>
      </trkpt>
      <trkpt lat="42.419017000" lon="-2.366620000">
        <ele>416.60</ele>
        <time>2013-07-27T12:34:50Z</time>
      </trkpt>
      <trkpt lat="42.419025000" lon="-2.366666000">
        <ele>416.50</ele>
        <time>2013-07-27T12:34:51Z</time>
      </trkpt>
      <trkpt lat="42.419032000" lon="-2.366716000">
        <ele>416.50</ele>
        <time>2013-07-27T12:34:52Z</time>
      </trkpt>
      <trkpt lat="42.419037000" lon="-2.366766000">
        <ele>416.40</ele>
        <time>2013-07-27T12:34:53Z</time>
      </trkpt>
      <trkpt lat="42.419044000" lon="-2.366815000">
        <ele>416.20</ele>
        <time>2013-07-27T12:34:54Z</time>
      </trkpt>
      <trkpt lat="42.419052000" lon="-2.366864000">
        <ele>416.00</ele>
        <time>2013-07-27T12:34:55Z</time>
      </trkpt>
      <trkpt lat="42.419060000" lon="-2.366912000">
        <ele>415.70</ele>
        <time>2013-07-27T12:34:56Z</time>
      </trkpt>
      <trkpt lat="42.419064000" lon="-2.366948000">
        <ele>415.40</ele>
        <time>2013-07-27T12:34:57Z</time>
      </trkpt>
      <trkpt lat="42.419067000" lon="-2.366982000">
        <ele>415.30</ele>
        <time>2013-07-27T12:34:58Z</time>
      </trkpt>
      <trkpt lat="42.419071000" lon="-2.367024000">
        <ele>415.10</ele>
        <time>2013-07-27T12:34:59Z</time>
      </trkpt>
      <trkpt lat="42.419072000" lon="-2.367067000">
        <ele>415.30</ele>
        <time>2013-07-27T12:35:00Z</time>
      </trkpt>
      <trkpt lat="42.419073000" lon="-2.367112000">
        <ele>415.40</ele>
        <time>2013-07-27T12:35:01Z</time>
      </trkpt>
      <trkpt lat="42.419075000" lon="-2.367160000">
        <ele>415.50</ele>
        <time>2013-07-27T12:35:02Z</time>
      </trkpt>
      <trkpt lat="42.419076000" lon="-2.367212000">
        <ele>415.60</ele>
        <time>2013-07-27T12:35:03Z</time>
      </trkpt>
      <trkpt lat="42.419079000" lon="-2.367266000">
        <ele>415.70</ele>
        <time>2013-07-27T12:35:04Z</time>
      </trkpt>
      <trkpt lat="42.419078000" lon="-2.367321000">
        <ele>415.70</ele>
        <time>2013-07-27T12:35:05Z</time>
      </trkpt>
      <trkpt lat="42.419076000" lon="-2.367378000">
        <ele>415.70</ele>
        <time>2013-07-27T12:35:06Z</time>
      </trkpt>
      <trkpt lat="42.419076000" lon="-2.367433000">
        <ele>415.70</ele>
        <time>2013-07-27T12:35:07Z</time>
      </trkpt>
      <trkpt lat="42.419075000" lon="-2.367486000">
        <ele>415.70</ele>
        <time>2013-07-27T12:35:08Z</time>
      </trkpt>
      <trkpt lat="42.419062000" lon="-2.367541000">
        <ele>415.70</ele>
        <time>2013-07-27T12:35:09Z</time>
      </trkpt>
      <trkpt lat="42.419055000" lon="-2.367596000">
        <ele>415.50</ele>
        <time>2013-07-27T12:35:10Z</time>
      </trkpt>
      <trkpt lat="42.419047000" lon="-2.367653000">
        <ele>415.30</ele>
        <time>2013-07-27T12:35:11Z</time>
      </trkpt>
      <trkpt lat="42.419041000" lon="-2.367710000">
        <ele>415.20</ele>
        <time>2013-07-27T12:35:12Z</time>
      </trkpt>
      <trkpt lat="42.419033000" lon="-2.367767000">
        <ele>415.10</ele>
        <time>2013-07-27T12:35:13Z</time>
      </trkpt>
      <trkpt lat="42.419024000" lon="-2.367824000">
        <ele>415.10</ele>
        <time>2013-07-27T12:35:14Z</time>
      </trkpt>
      <trkpt lat="42.419013000" lon="-2.367880000">
        <ele>415.10</ele>
        <time>2013-07-27T12:35:15Z</time>
      </trkpt>
      <trkpt lat="42.418999000" lon="-2.367939000">
        <ele>415.30</ele>
        <time>2013-07-27T12:35:16Z</time>
      </trkpt>
      <trkpt lat="42.418986000" lon="-2.367997000">
        <ele>415.40</ele>
        <time>2013-07-27T12:35:17Z</time>
      </trkpt>
      <trkpt lat="42.418976000" lon="-2.368054000">
        <ele>415.60</ele>
        <time>2013-07-27T12:35:18Z</time>
      </trkpt>
      <trkpt lat="42.418963000" lon="-2.368112000">
        <ele>415.80</ele>
        <time>2013-07-27T12:35:19Z</time>
      </trkpt>
      <trkpt lat="42.418950000" lon="-2.368169000">
        <ele>416.40</ele>
        <time>2013-07-27T12:35:20Z</time>
      </trkpt>
      <trkpt lat="42.418939000" lon="-2.368227000">
        <ele>416.90</ele>
        <time>2013-07-27T12:35:21Z</time>
      </trkpt>
      <trkpt lat="42.418929000" lon="-2.368285000">
        <ele>417.30</ele>
        <time>2013-07-27T12:35:22Z</time>
      </trkpt>
      <trkpt lat="42.418918000" lon="-2.368342000">
        <ele>417.60</ele>
        <time>2013-07-27T12:35:23Z</time>
      </trkpt>
      <trkpt lat="42.418908000" lon="-2.368398000">
        <ele>417.40</ele>
        <time>2013-07-27T12:35:24Z</time>
      </trkpt>
      <trkpt lat="42.418895000" lon="-2.368455000">
        <ele>417.30</ele>
        <time>2013-07-27T12:35:25Z</time>
      </trkpt>
      <trkpt lat="42.418882000" lon="-2.368511000">
        <ele>417.20</ele>
        <time>2013-07-27T12:35:26Z</time>
      </trkpt>
      <trkpt lat="42.418868000" lon="-2.368565000">
        <ele>417.10</ele>
        <time>2013-07-27T12:35:27Z</time>
      </trkpt>
      <trkpt lat="42.418854000" lon="-2.368619000">
        <ele>417.00</ele>
        <time>2013-07-27T12:35:28Z</time>
      </trkpt>
      <trkpt lat="42.418842000" lon="-2.368675000">
        <ele>417.00</ele>
        <time>2013-07-27T12:35:29Z</time>
      </trkpt>
      <trkpt lat="42.418829000" lon="-2.368731000">
        <ele>417.00</ele>
        <time>2013-07-27T12:35:30Z</time>
      </trkpt>
      <trkpt lat="42.418819000" lon="-2.368786000">
        <ele>417.10</ele>
        <time>2013-07-27T12:35:31Z</time>
      </trkpt>
      <trkpt lat="42.418808000" lon="-2.368841000">
        <ele>416.80</ele>
        <time>2013-07-27T12:35:32Z</time>
      </trkpt>
      <trkpt lat="42.418797000" lon="-2.368895000">
        <ele>416.70</ele>
        <time>2013-07-27T12:35:33Z</time>
      </trkpt>
      <trkpt lat="42.418788000" lon="-2.368950000">
        <ele>416.70</ele>
        <time>2013-07-27T12:35:34Z</time>
      </trkpt>
      <trkpt lat="42.418778000" lon="-2.369003000">
        <ele>416.80</ele>
        <time>2013-07-27T12:35:35Z</time>
      </trkpt>
      <trkpt lat="42.418766000" lon="-2.369054000">
        <ele>416.50</ele>
        <time>2013-07-27T12:35:36Z</time>
      </trkpt>
      <trkpt lat="42.418753000" lon="-2.369107000">
        <ele>416.30</ele>
        <time>2013-07-27T12:35:37Z</time>
      </trkpt>
      <trkpt lat="42.418742000" lon="-2.369162000">
        <ele>416.10</ele>
        <time>2013-07-27T12:35:38Z</time>
      </trkpt>
      <trkpt lat="42.418733000" lon="-2.369218000">
        <ele>416.00</ele>
        <time>2013-07-27T12:35:39Z</time>
      </trkpt>
      <trkpt lat="42.418726000" lon="-2.369271000">
        <ele>415.80</ele>
        <time>2013-07-27T12:35:40Z</time>
      </trkpt>
      <trkpt lat="42.418718000" lon="-2.369324000">
        <ele>415.70</ele>
        <time>2013-07-27T12:35:41Z</time>
      </trkpt>
      <trkpt lat="42.418709000" lon="-2.369377000">
        <ele>415.60</ele>
        <time>2013-07-27T12:35:42Z</time>
      </trkpt>
      <trkpt lat="42.418699000" lon="-2.369424000">
        <ele>415.60</ele>
        <time>2013-07-27T12:35:43Z</time>
      </trkpt>
      <trkpt lat="42.418685000" lon="-2.369474000">
        <ele>415.60</ele>
        <time>2013-07-27T12:35:44Z</time>
      </trkpt>
      <trkpt lat="42.418677000" lon="-2.369525000">
        <ele>415.60</ele>
        <time>2013-07-27T12:35:45Z</time>
      </trkpt>
      <trkpt lat="42.418666000" lon="-2.369575000">
        <ele>416.00</ele>
        <time>2013-07-27T12:35:46Z</time>
      </trkpt>
      <trkpt lat="42.418656000" lon="-2.369627000">
        <ele>416.40</ele>
        <time>2013-07-27T12:35:47Z</time>
      </trkpt>
      <trkpt lat="42.418646000" lon="-2.369678000">
        <ele>416.60</ele>
        <time>2013-07-27T12:35:48Z</time>
      </trkpt>
      <trkpt lat="42.418635000" lon="-2.369729000">
        <ele>416.80</ele>
        <time>2013-07-27T12:35:49Z</time>
      </trkpt>
      <trkpt lat="42.418619000" lon="-2.369777000">
        <ele>416.90</ele>
        <time>2013-07-27T12:35:50Z</time>
      </trkpt>
      <trkpt lat="42.418601000" lon="-2.369824000">
        <ele>417.00</ele>
        <time>2013-07-27T12:35:51Z</time>
      </trkpt>
      <trkpt lat="42.418580000" lon="-2.369863000">
        <ele>417.10</ele>
        <time>2013-07-27T12:35:52Z</time>
      </trkpt>
      <trkpt lat="42.418560000" lon="-2.369901000">
        <ele>417.10</ele>
        <time>2013-07-27T12:35:53Z</time>
      </trkpt>
      <trkpt lat="42.418540000" lon="-2.369943000">
        <ele>417.30</ele>
        <time>2013-07-27T12:35:54Z</time>
      </trkpt>
      <trkpt lat="42.418523000" lon="-2.369988000">
        <ele>417.50</ele>
        <time>2013-07-27T12:35:55Z</time>
      </trkpt>
      <trkpt lat="42.418502000" lon="-2.370034000">
        <ele>417.70</ele>
        <time>2013-07-27T12:35:56Z</time>
      </trkpt>
      <trkpt lat="42.418484000" lon="-2.370080000">
        <ele>417.80</ele>
        <time>2013-07-27T12:35:57Z</time>
      </trkpt>
      <trkpt lat="42.418461000" lon="-2.370121000">
        <ele>417.90</ele>
        <time>2013-07-27T12:35:58Z</time>
      </trkpt>
      <trkpt lat="42.418439000" lon="-2.370168000">
        <ele>418.00</ele>
        <time>2013-07-27T12:35:59Z</time>
      </trkpt>
      <trkpt lat="42.418418000" lon="-2.370212000">
        <ele>417.80</ele>
        <time>2013-07-27T12:36:00Z</time>
      </trkpt>
      <trkpt lat="42.418399000" lon="-2.370260000">
        <ele>417.70</ele>
        <time>2013-07-27T12:36:01Z</time>
      </trkpt>
      <trkpt lat="42.418382000" lon="-2.370310000">
        <ele>417.50</ele>
        <time>2013-07-27T12:36:02Z</time>
      </trkpt>
      <trkpt lat="42.418362000" lon="-2.370360000">
        <ele>417.30</ele>
        <time>2013-07-27T12:36:03Z</time>
      </trkpt>
      <trkpt lat="42.418345000" lon="-2.370412000">
        <ele>417.00</ele>
        <time>2013-07-27T12:36:04Z</time>
      </trkpt>
      <trkpt lat="42.418330000" lon="-2.370463000">
        <ele>416.90</ele>
        <time>2013-07-27T12:36:05Z</time>
      </trkpt>
      <trkpt lat="42.418315000" lon="-2.370516000">
        <ele>416.80</ele>
        <time>2013-07-27T12:36:06Z</time>
      </trkpt>
      <trkpt lat="42.418299000" lon="-2.370567000">
        <ele>416.70</ele>
        <time>2013-07-27T12:36:07Z</time>
      </trkpt>
      <trkpt lat="42.418280000" lon="-2.370618000">
        <ele>416.50</ele>
        <time>2013-07-27T12:36:08Z</time>
      </trkpt>
      <trkpt lat="42.418262000" lon="-2.370671000">
        <ele>416.40</ele>
        <time>2013-07-27T12:36:09Z</time>
      </trkpt>
      <trkpt lat="42.418247000" lon="-2.370726000">
        <ele>416.40</ele>
        <time>2013-07-27T12:36:10Z</time>
      </trkpt>
      <trkpt lat="42.418232000" lon="-2.370782000">
        <ele>416.30</ele>
        <time>2013-07-27T12:36:11Z</time>
      </trkpt>
      <trkpt lat="42.418219000" lon="-2.370844000">
        <ele>416.40</ele>
        <time>2013-07-27T12:36:12Z</time>
      </trkpt>
      <trkpt lat="42.418204000" lon="-2.370901000">
        <ele>416.50</ele>
        <time>2013-07-27T12:36:13Z</time>
      </trkpt>
      <trkpt lat="42.418187000" lon="-2.370958000">
        <ele>416.50</ele>
        <time>2013-07-27T12:36:14Z</time>
      </trkpt>
      <trkpt lat="42.418170000" lon="-2.371016000">
        <ele>416.60</ele>
        <time>2013-07-27T12:36:15Z</time>
      </trkpt>
      <trkpt lat="42.418156000" lon="-2.371071000">
        <ele>416.60</ele>
        <time>2013-07-27T12:36:16Z</time>
      </trkpt>
      <trkpt lat="42.418138000" lon="-2.371123000">
        <ele>416.60</ele>
        <time>2013-07-27T12:36:17Z</time>
      </trkpt>
      <trkpt lat="42.418121000" lon="-2.371179000">
        <ele>416.80</ele>
        <time>2013-07-27T12:36:18Z</time>
      </trkpt>
      <trkpt lat="42.418103000" lon="-2.371234000">
        <ele>416.90</ele>
        <time>2013-07-27T12:36:19Z</time>
      </trkpt>
      <trkpt lat="42.418081000" lon="-2.371290000">
        <ele>417.00</ele>
        <time>2013-07-27T12:36:20Z</time>
      </trkpt>
      <trkpt lat="42.418061000" lon="-2.371345000">
        <ele>417.10</ele>
        <time>2013-07-27T12:36:21Z</time>
      </trkpt>
      <trkpt lat="42.418043000" lon="-2.371400000">
        <ele>417.20</ele>
        <time>2013-07-27T12:36:22Z</time>
      </trkpt>
      <trkpt lat="42.418022000" lon="-2.371453000">
        <ele>417.20</ele>
        <time>2013-07-27T12:36:23Z</time>
      </trkpt>
      <trkpt lat="42.418002000" lon="-2.371505000">
        <ele>417.30</ele>
        <time>2013-07-27T12:36:24Z</time>
      </trkpt>
      <trkpt lat="42.417981000" lon="-2.371561000">
        <ele>417.30</ele>
        <time>2013-07-27T12:36:25Z</time>
      </trkpt>
      <trkpt lat="42.417959000" lon="-2.371614000">
        <ele>417.40</ele>
        <time>2013-07-27T12:36:26Z</time>
      </trkpt>
      <trkpt lat="42.417938000" lon="-2.371669000">
        <ele>417.60</ele>
        <time>2013-07-27T12:36:27Z</time>
      </trkpt>
      <trkpt lat="42.417915000" lon="-2.371723000">
        <ele>417.10</ele>
        <time>2013-07-27T12:36:28Z</time>
      </trkpt>
      <trkpt lat="42.417892000" lon="-2.371779000">
        <ele>416.80</ele>
        <time>2013-07-27T12:36:29Z</time>
      </trkpt>
      <trkpt lat="42.417867000" lon="-2.371835000">
        <ele>416.70</ele>
        <time>2013-07-27T12:36:30Z</time>
      </trkpt>
      <trkpt lat="42.417847000" lon="-2.371897000">
        <ele>416.70</ele>
        <time>2013-07-27T12:36:31Z</time>
      </trkpt>
      <trkpt lat="42.417830000" lon="-2.371962000">
        <ele>416.70</ele>
        <time>2013-07-27T12:36:32Z</time>
      </trkpt>
      <trkpt lat="42.417811000" lon="-2.372026000">
        <ele>416.70</ele>
        <time>2013-07-27T12:36:33Z</time>
      </trkpt>
      <trkpt lat="42.417794000" lon="-2.372091000">
        <ele>416.70</ele>
        <time>2013-07-27T12:36:34Z</time>
      </trkpt>
      <trkpt lat="42.417779000" lon="-2.372157000">
        <ele>416.70</ele>
        <time>2013-07-27T12:36:35Z</time>
      </trkpt>
      <trkpt lat="42.417765000" lon="-2.372222000">
        <ele>416.70</ele>
        <time>2013-07-27T12:36:36Z</time>
      </trkpt>
      <trkpt lat="42.417753000" lon="-2.372287000">
        <ele>416.70</ele>
        <time>2013-07-27T12:36:37Z</time>
      </trkpt>
      <trkpt lat="42.417741000" lon="-2.372351000">
        <ele>416.50</ele>
        <time>2013-07-27T12:36:38Z</time>
      </trkpt>
      <trkpt lat="42.417730000" lon="-2.372414000">
        <ele>416.40</ele>
        <time>2013-07-27T12:36:39Z</time>
      </trkpt>
      <trkpt lat="42.417720000" lon="-2.372475000">
        <ele>416.40</ele>
        <time>2013-07-27T12:36:40Z</time>
      </trkpt>
      <trkpt lat="42.417710000" lon="-2.372537000">
        <ele>416.30</ele>
        <time>2013-07-27T12:36:41Z</time>
      </trkpt>
      <trkpt lat="42.417702000" lon="-2.372597000">
        <ele>416.70</ele>
        <time>2013-07-27T12:36:42Z</time>
      </trkpt>
      <trkpt lat="42.417693000" lon="-2.372658000">
        <ele>417.00</ele>
        <time>2013-07-27T12:36:43Z</time>
      </trkpt>
      <trkpt lat="42.417686000" lon="-2.372720000">
        <ele>417.30</ele>
        <time>2013-07-27T12:36:44Z</time>
      </trkpt>
      <trkpt lat="42.417678000" lon="-2.372782000">
        <ele>417.50</ele>
        <time>2013-07-27T12:36:45Z</time>
      </trkpt>
      <trkpt lat="42.417673000" lon="-2.372842000">
        <ele>417.70</ele>
        <time>2013-07-27T12:36:46Z</time>
      </trkpt>
      <trkpt lat="42.417668000" lon="-2.372900000">
        <ele>417.80</ele>
        <time>2013-07-27T12:36:47Z</time>
      </trkpt>
      <trkpt lat="42.417655000" lon="-2.372956000">
        <ele>417.90</ele>
        <time>2013-07-27T12:36:48Z</time>
      </trkpt>
      <trkpt lat="42.417643000" lon="-2.373014000">
        <ele>418.00</ele>
        <time>2013-07-27T12:36:49Z</time>
      </trkpt>
      <trkpt lat="42.417627000" lon="-2.373075000">
        <ele>418.10</ele>
        <time>2013-07-27T12:36:50Z</time>
      </trkpt>
      <trkpt lat="42.417609000" lon="-2.373134000">
        <ele>418.10</ele>
        <time>2013-07-27T12:36:51Z</time>
      </trkpt>
      <trkpt lat="42.417591000" lon="-2.373193000">
        <ele>418.00</ele>
        <time>2013-07-27T12:36:52Z</time>
      </trkpt>
      <trkpt lat="42.417573000" lon="-2.373251000">
        <ele>417.90</ele>
        <time>2013-07-27T12:36:53Z</time>
      </trkpt>
      <trkpt lat="42.417553000" lon="-2.373307000">
        <ele>417.20</ele>
        <time>2013-07-27T12:36:54Z</time>
      </trkpt>
      <trkpt lat="42.417532000" lon="-2.373363000">
        <ele>416.70</ele>
        <time>2013-07-27T12:36:55Z</time>
      </trkpt>
      <trkpt lat="42.417514000" lon="-2.373423000">
        <ele>416.70</ele>
        <time>2013-07-27T12:36:56Z</time>
      </trkpt>
      <trkpt lat="42.417496000" lon="-2.373483000">
        <ele>416.70</ele>
        <time>2013-07-27T12:36:57Z</time>
      </trkpt>
      <trkpt lat="42.417477000" lon="-2.373542000">
        <ele>416.70</ele>
        <time>2013-07-27T12:36:58Z</time>
      </trkpt>
      <trkpt lat="42.417458000" lon="-2.373603000">
        <ele>416.80</ele>
        <time>2013-07-27T12:36:59Z</time>
      </trkpt>
      <trkpt lat="42.417439000" lon="-2.373663000">
        <ele>416.80</ele>
        <time>2013-07-27T12:37:00Z</time>
      </trkpt>
      <trkpt lat="42.417421000" lon="-2.373723000">
        <ele>416.80</ele>
        <time>2013-07-27T12:37:01Z</time>
      </trkpt>
      <trkpt lat="42.417404000" lon="-2.373783000">
        <ele>417.00</ele>
        <time>2013-07-27T12:37:02Z</time>
      </trkpt>
      <trkpt lat="42.417388000" lon="-2.373844000">
        <ele>417.10</ele>
        <time>2013-07-27T12:37:03Z</time>
      </trkpt>
      <trkpt lat="42.417371000" lon="-2.373905000">
        <ele>417.40</ele>
        <time>2013-07-27T12:37:04Z</time>
      </trkpt>
      <trkpt lat="42.417353000" lon="-2.373964000">
        <ele>417.60</ele>
        <time>2013-07-27T12:37:05Z</time>
      </trkpt>
      <trkpt lat="42.417335000" lon="-2.374022000">
        <ele>417.80</ele>
        <time>2013-07-27T12:37:06Z</time>
      </trkpt>
      <trkpt lat="42.417319000" lon="-2.374085000">
        <ele>417.90</ele>
        <time>2013-07-27T12:37:07Z</time>
      </trkpt>
      <trkpt lat="42.417306000" lon="-2.374148000">
        <ele>418.10</ele>
        <time>2013-07-27T12:37:08Z</time>
      </trkpt>
      <trkpt lat="42.417293000" lon="-2.374205000">
        <ele>418.30</ele>
        <time>2013-07-27T12:37:09Z</time>
      </trkpt>
      <trkpt lat="42.417281000" lon="-2.374262000">
        <ele>418.40</ele>
        <time>2013-07-27T12:37:10Z</time>
      </trkpt>
      <trkpt lat="42.417275000" lon="-2.374316000">
        <ele>418.50</ele>
        <time>2013-07-27T12:37:11Z</time>
      </trkpt>
      <trkpt lat="42.417274000" lon="-2.374367000">
        <ele>418.50</ele>
        <time>2013-07-27T12:37:12Z</time>
      </trkpt>
      <trkpt lat="42.417282000" lon="-2.374411000">
        <ele>418.60</ele>
        <time>2013-07-27T12:37:13Z</time>
      </trkpt>
      <trkpt lat="42.417294000" lon="-2.374446000">
        <ele>418.50</ele>
        <time>2013-07-27T12:37:14Z</time>
      </trkpt>
      <trkpt lat="42.417309000" lon="-2.374475000">
        <ele>418.30</ele>
        <time>2013-07-27T12:37:15Z</time>
      </trkpt>
      <trkpt lat="42.417330000" lon="-2.374503000">
        <ele>418.20</ele>
        <time>2013-07-27T12:37:16Z</time>
      </trkpt>
      <trkpt lat="42.417348000" lon="-2.374529000">
        <ele>418.10</ele>
        <time>2013-07-27T12:37:17Z</time>
      </trkpt>
      <trkpt lat="42.417370000" lon="-2.374549000">
        <ele>418.00</ele>
        <time>2013-07-27T12:37:18Z</time>
      </trkpt>
      <trkpt lat="42.417390000" lon="-2.374564000">
        <ele>417.90</ele>
        <time>2013-07-27T12:37:19Z</time>
      </trkpt>
      <trkpt lat="42.417395000" lon="-2.374574000">
        <ele>417.90</ele>
        <time>2013-07-27T12:37:20Z</time>
      </trkpt>
      <trkpt lat="42.417396000" lon="-2.374577000">
        <ele>417.80</ele>
        <time>2013-07-27T12:37:21Z</time>
      </trkpt>
      <trkpt lat="42.417398000" lon="-2.374577000">
        <ele>417.80</ele>
        <time>2013-07-27T12:37:22Z</time>
      </trkpt>
      <trkpt lat="42.417398000" lon="-2.374577000">
        <ele>417.70</ele>
        <time>2013-07-27T12:37:23Z</time>
      </trkpt>
      <trkpt lat="42.417399000" lon="-2.374577000">
        <ele>417.70</ele>
        <time>2013-07-27T12:37:24Z</time>
      </trkpt>
      <trkpt lat="42.417400000" lon="-2.374576000">
        <ele>417.60</ele>
        <time>2013-07-27T12:37:25Z</time>
      </trkpt>
      <trkpt lat="42.417400000" lon="-2.374577000">
        <ele>417.50</ele>
        <time>2013-07-27T12:37:26Z</time>
      </trkpt>
      <trkpt lat="42.417401000" lon="-2.374577000">
        <ele>417.50</ele>
        <time>2013-07-27T12:37:27Z</time>
      </trkpt>
      <trkpt lat="42.417401000" lon="-2.374576000">
        <ele>417.40</ele>
        <time>2013-07-27T12:37:28Z</time>
      </trkpt>
      <trkpt lat="42.417401000" lon="-2.374574000">
        <ele>417.40</ele>
        <time>2013-07-27T12:37:29Z</time>
      </trkpt>
      <trkpt lat="42.417403000" lon="-2.374574000">
        <ele>417.40</ele>
        <time>2013-07-27T12:37:30Z</time>
      </trkpt>
      <trkpt lat="42.417405000" lon="-2.374573000">
        <ele>417.40</ele>
        <time>2013-07-27T12:37:31Z</time>
      </trkpt>
      <trkpt lat="42.417406000" lon="-2.374572000">
        <ele>417.40</ele>
        <time>2013-07-27T12:37:32Z</time>
      </trkpt>
      <trkpt lat="42.417406000" lon="-2.374571000">
        <ele>417.50</ele>
        <time>2013-07-27T12:37:33Z</time>
      </trkpt>
      <trkpt lat="42.417406000" lon="-2.374571000">
        <ele>417.50</ele>
        <time>2013-07-27T12:37:34Z</time>
      </trkpt>
      <trkpt lat="42.417407000" lon="-2.374572000">
        <ele>417.50</ele>
        <time>2013-07-27T12:37:35Z</time>
      </trkpt>
      <trkpt lat="42.417406000" lon="-2.374572000">
        <ele>417.40</ele>
        <time>2013-07-27T12:37:36Z</time>
      </trkpt>
      <trkpt lat="42.417406000" lon="-2.374572000">
        <ele>417.30</ele>
        <time>2013-07-27T12:37:37Z</time>
      </trkpt>
      <trkpt lat="42.417406000" lon="-2.374572000">
        <ele>417.30</ele>
        <time>2013-07-27T12:37:38Z</time>
      </trkpt>
      <trkpt lat="42.417405000" lon="-2.374573000">
        <ele>417.20</ele>
        <time>2013-07-27T12:37:39Z</time>
      </trkpt>
      <trkpt lat="42.417405000" lon="-2.374573000">
        <ele>417.20</ele>
        <time>2013-07-27T12:37:40Z</time>
      </trkpt>
      <trkpt lat="42.417405000" lon="-2.374572000">
        <ele>417.20</ele>
        <time>2013-07-27T12:37:41Z</time>
      </trkpt>
      <trkpt lat="42.417405000" lon="-2.374572000">
        <ele>417.20</ele>
        <time>2013-07-27T12:37:42Z</time>
      </trkpt>
      <trkpt lat="42.417404000" lon="-2.374572000">
        <ele>417.10</ele>
        <time>2013-07-27T12:37:43Z</time>
      </trkpt>
      <trkpt lat="42.417404000" lon="-2.374573000">
        <ele>417.10</ele>
        <time>2013-07-27T12:37:44Z</time>
      </trkpt>
      <trkpt lat="42.417404000" lon="-2.374574000">
        <ele>417.00</ele>
        <time>2013-07-27T12:37:45Z</time>
      </trkpt>
      <trkpt lat="42.417404000" lon="-2.374574000">
        <ele>417.00</ele>
        <time>2013-07-27T12:37:46Z</time>
      </trkpt>
      <trkpt lat="42.417404000" lon="-2.374574000">
        <ele>417.00</ele>
        <time>2013-07-27T12:37:47Z</time>
      </trkpt>
      <trkpt lat="42.417404000" lon="-2.374574000">
        <ele>417.00</ele>
        <time>2013-07-27T12:37:48Z</time>
      </trkpt>
      <trkpt lat="42.417403000" lon="-2.374574000">
        <ele>417.00</ele>
        <time>2013-07-27T12:37:49Z</time>
      </trkpt>
      <trkpt lat="42.417403000" lon="-2.374574000">
        <ele>417.10</ele>
        <time>2013-07-27T12:37:50Z</time>
      </trkpt>
      <trkpt lat="42.417402000" lon="-2.374574000">
        <ele>417.20</ele>
        <time>2013-07-27T12:37:51Z</time>
      </trkpt>
      <trkpt lat="42.417402000" lon="-2.374575000">
        <ele>417.30</ele>
        <time>2013-07-27T12:37:52Z</time>
      </trkpt>
      <trkpt lat="42.417402000" lon="-2.374574000">
        <ele>417.30</ele>
        <time>2013-07-27T12:37:53Z</time>
      </trkpt>
      <trkpt lat="42.417402000" lon="-2.374574000">
        <ele>417.30</ele>
        <time>2013-07-27T12:37:54Z</time>
      </trkpt>
      <trkpt lat="42.417401000" lon="-2.374574000">
        <ele>417.40</ele>
        <time>2013-07-27T12:37:55Z</time>
      </trkpt>
      <trkpt lat="42.417402000" lon="-2.374575000">
        <ele>417.30</ele>
        <time>2013-07-27T12:37:56Z</time>
      </trkpt>
      <trkpt lat="42.417408000" lon="-2.374575000">
        <ele>417.20</ele>
        <time>2013-07-27T12:37:57Z</time>
      </trkpt>
      <trkpt lat="42.417421000" lon="-2.374578000">
        <ele>417.10</ele>
        <time>2013-07-27T12:37:58Z</time>
      </trkpt>
      <trkpt lat="42.417432000" lon="-2.374584000">
        <ele>417.10</ele>
        <time>2013-07-27T12:37:59Z</time>
      </trkpt>
      <trkpt lat="42.417433000" lon="-2.374590000">
        <ele>417.10</ele>
        <time>2013-07-27T12:38:00Z</time>
      </trkpt>
      <trkpt lat="42.417432000" lon="-2.374589000">
        <ele>417.10</ele>
        <time>2013-07-27T12:38:01Z</time>
      </trkpt>
      <trkpt lat="42.417431000" lon="-2.374590000">
        <ele>417.30</ele>
        <time>2013-07-27T12:38:02Z</time>
      </trkpt>
      <trkpt lat="42.417434000" lon="-2.374590000">
        <ele>417.40</ele>
        <time>2013-07-27T12:38:03Z</time>
      </trkpt>
      <trkpt lat="42.417441000" lon="-2.374592000">
        <ele>417.40</ele>
        <time>2013-07-27T12:38:04Z</time>
      </trkpt>
      <trkpt lat="42.417445000" lon="-2.374592000">
        <ele>417.30</ele>
        <time>2013-07-27T12:38:05Z</time>
      </trkpt>
      <trkpt lat="42.417449000" lon="-2.374595000">
        <ele>417.40</ele>
        <time>2013-07-27T12:38:06Z</time>
      </trkpt>
      <trkpt lat="42.417448000" lon="-2.374591000">
        <ele>417.50</ele>
        <time>2013-07-27T12:38:07Z</time>
      </trkpt>
      <trkpt lat="42.417448000" lon="-2.374592000">
        <ele>417.50</ele>
        <time>2013-07-27T12:38:08Z</time>
      </trkpt>
      <trkpt lat="42.417448000" lon="-2.374591000">
        <ele>417.50</ele>
        <time>2013-07-27T12:38:09Z</time>
      </trkpt>
      <trkpt lat="42.417450000" lon="-2.374589000">
        <ele>417.50</ele>
        <time>2013-07-27T12:38:10Z</time>
      </trkpt>
      <trkpt lat="42.417450000" lon="-2.374589000">
        <ele>417.50</ele>
        <time>2013-07-27T12:38:11Z</time>
      </trkpt>
      <trkpt lat="42.417451000" lon="-2.374587000">
        <ele>417.30</ele>
        <time>2013-07-27T12:38:12Z</time>
      </trkpt>
      <trkpt lat="42.417452000" lon="-2.374586000">
        <ele>417.10</ele>
        <time>2013-07-27T12:38:13Z</time>
      </trkpt>
      <trkpt lat="42.417452000" lon="-2.374586000">
        <ele>416.90</ele>
        <time>2013-07-27T12:38:14Z</time>
      </trkpt>
      <trkpt lat="42.417454000" lon="-2.374586000">
        <ele>416.80</ele>
        <time>2013-07-27T12:38:15Z</time>
      </trkpt>
      <trkpt lat="42.417453000" lon="-2.374588000">
        <ele>417.00</ele>
        <time>2013-07-27T12:38:16Z</time>
      </trkpt>
      <trkpt lat="42.417453000" lon="-2.374589000">
        <ele>417.20</ele>
        <time>2013-07-27T12:38:17Z</time>
      </trkpt>
      <trkpt lat="42.417452000" lon="-2.374589000">
        <ele>417.30</ele>
        <time>2013-07-27T12:38:18Z</time>
      </trkpt>
      <trkpt lat="42.417452000" lon="-2.374589000">
        <ele>417.30</ele>
        <time>2013-07-27T12:38:19Z</time>
      </trkpt>
      <trkpt lat="42.417451000" lon="-2.374590000">
        <ele>417.40</ele>
        <time>2013-07-27T12:38:20Z</time>
      </trkpt>
      <trkpt lat="42.417451000" lon="-2.374591000">
        <ele>417.40</ele>
        <time>2013-07-27T12:38:21Z</time>
      </trkpt>
      <trkpt lat="42.417450000" lon="-2.374591000">
        <ele>417.40</ele>
        <time>2013-07-27T12:38:22Z</time>
      </trkpt>
      <trkpt lat="42.417450000" lon="-2.374592000">
        <ele>417.40</ele>
        <time>2013-07-27T12:38:23Z</time>
      </trkpt>
      <trkpt lat="42.417449000" lon="-2.374592000">
        <ele>417.40</ele>
        <time>2013-07-27T12:38:24Z</time>
      </trkpt>
      <trkpt lat="42.417449000" lon="-2.374593000">
        <ele>417.40</ele>
        <time>2013-07-27T12:38:25Z</time>
      </trkpt>
      <trkpt lat="42.417449000" lon="-2.374593000">
        <ele>417.40</ele>
        <time>2013-07-27T12:38:26Z</time>
      </trkpt>
      <trkpt lat="42.417448000" lon="-2.374594000">
        <ele>417.50</ele>
        <time>2013-07-27T12:38:27Z</time>
      </trkpt>
      <trkpt lat="42.417447000" lon="-2.374593000">
        <ele>417.50</ele>
        <time>2013-07-27T12:38:28Z</time>
      </trkpt>
      <trkpt lat="42.417447000" lon="-2.374592000">
        <ele>417.50</ele>
        <time>2013-07-27T12:38:29Z</time>
      </trkpt>
      <trkpt lat="42.417448000" lon="-2.374591000">
        <ele>417.50</ele>
        <time>2013-07-27T12:38:30Z</time>
      </trkpt>
      <trkpt lat="42.417448000" lon="-2.374591000">
        <ele>417.50</ele>
        <time>2013-07-27T12:38:31Z</time>
      </trkpt>
      <trkpt lat="42.417448000" lon="-2.374590000">
        <ele>417.50</ele>
        <time>2013-07-27T12:38:32Z</time>
      </trkpt>
      <trkpt lat="42.417449000" lon="-2.374590000">
        <ele>417.40</ele>
        <time>2013-07-27T12:38:33Z</time>
      </trkpt>
      <trkpt lat="42.417450000" lon="-2.374589000">
        <ele>417.40</ele>
        <time>2013-07-27T12:38:34Z</time>
      </trkpt>
      <trkpt lat="42.417450000" lon="-2.374589000">
        <ele>417.40</ele>
        <time>2013-07-27T12:38:35Z</time>
      </trkpt>
      <trkpt lat="42.417451000" lon="-2.374589000">
        <ele>417.60</ele>
        <time>2013-07-27T12:38:36Z</time>
      </trkpt>
      <trkpt lat="42.417451000" lon="-2.374589000">
        <ele>417.70</ele>
        <time>2013-07-27T12:38:37Z</time>
      </trkpt>
      <trkpt lat="42.417451000" lon="-2.374589000">
        <ele>417.70</ele>
        <time>2013-07-27T12:38:38Z</time>
      </trkpt>
      <trkpt lat="42.417452000" lon="-2.374589000">
        <ele>417.80</ele>
        <time>2013-07-27T12:38:39Z</time>
      </trkpt>
      <trkpt lat="42.417453000" lon="-2.374590000">
        <ele>417.80</ele>
        <time>2013-07-27T12:38:40Z</time>
      </trkpt>
      <trkpt lat="42.417454000" lon="-2.374589000">
        <ele>417.90</ele>
        <time>2013-07-27T12:38:41Z</time>
      </trkpt>
      <trkpt lat="42.417454000" lon="-2.374589000">
        <ele>417.80</ele>
        <time>2013-07-27T12:38:42Z</time>
      </trkpt>
      <trkpt lat="42.417454000" lon="-2.374589000">
        <ele>417.80</ele>
        <time>2013-07-27T12:38:43Z</time>
      </trkpt>
      <trkpt lat="42.417454000" lon="-2.374588000">
        <ele>417.80</ele>
        <time>2013-07-27T12:38:44Z</time>
      </trkpt>
      <trkpt lat="42.417454000" lon="-2.374588000">
        <ele>417.80</ele>
        <time>2013-07-27T12:38:45Z</time>
      </trkpt>
      <trkpt lat="42.417453000" lon="-2.374588000">
        <ele>417.70</ele>
        <time>2013-07-27T12:38:46Z</time>
      </trkpt>
      <trkpt lat="42.417454000" lon="-2.374588000">
        <ele>417.60</ele>
        <time>2013-07-27T12:38:47Z</time>
      </trkpt>
      <trkpt lat="42.417453000" lon="-2.374588000">
        <ele>417.60</ele>
        <time>2013-07-27T12:38:48Z</time>
      </trkpt>
      <trkpt lat="42.417453000" lon="-2.374589000">
        <ele>417.60</ele>
        <time>2013-07-27T12:38:49Z</time>
      </trkpt>
      <trkpt lat="42.417454000" lon="-2.374589000">
        <ele>417.60</ele>
        <time>2013-07-27T12:38:50Z</time>
      </trkpt>
      <trkpt lat="42.417454000" lon="-2.374589000">
        <ele>417.70</ele>
        <time>2013-07-27T12:38:51Z</time>
      </trkpt>
      <trkpt lat="42.417454000" lon="-2.374588000">
        <ele>417.70</ele>
        <time>2013-07-27T12:38:52Z</time>
      </trkpt>
      <trkpt lat="42.417454000" lon="-2.374589000">
        <ele>417.70</ele>
        <time>2013-07-27T12:38:53Z</time>
      </trkpt>
      <trkpt lat="42.417454000" lon="-2.374589000">
        <ele>417.80</ele>
        <time>2013-07-27T12:38:54Z</time>
      </trkpt>
      <trkpt lat="42.417454000" lon="-2.374590000">
        <ele>417.90</ele>
        <time>2013-07-27T12:38:55Z</time>
      </trkpt>
      <trkpt lat="42.417454000" lon="-2.374591000">
        <ele>417.90</ele>
        <time>2013-07-27T12:38:56Z</time>
      </trkpt>
      <trkpt lat="42.417454000" lon="-2.374592000">
        <ele>417.90</ele>
        <time>2013-07-27T12:38:57Z</time>
      </trkpt>
      <trkpt lat="42.417454000" lon="-2.374592000">
        <ele>418.10</ele>
        <time>2013-07-27T12:38:58Z</time>
      </trkpt>
      <trkpt lat="42.417454000" lon="-2.374593000">
        <ele>418.10</ele>
        <time>2013-07-27T12:38:59Z</time>
      </trkpt>
      <trkpt lat="42.417454000" lon="-2.374593000">
        <ele>418.30</ele>
        <time>2013-07-27T12:39:00Z</time>
      </trkpt>
      <trkpt lat="42.417454000" lon="-2.374593000">
        <ele>418.40</ele>
        <time>2013-07-27T12:39:01Z</time>
      </trkpt>
      <trkpt lat="42.417454000" lon="-2.374593000">
        <ele>418.50</ele>
        <time>2013-07-27T12:39:02Z</time>
      </trkpt>
      <trkpt lat="42.417455000" lon="-2.374593000">
        <ele>418.50</ele>
        <time>2013-07-27T12:39:03Z</time>
      </trkpt>
      <trkpt lat="42.417455000" lon="-2.374593000">
        <ele>418.60</ele>
        <time>2013-07-27T12:39:04Z</time>
      </trkpt>
      <trkpt lat="42.417455000" lon="-2.374593000">
        <ele>418.60</ele>
        <time>2013-07-27T12:39:05Z</time>
      </trkpt>
      <trkpt lat="42.417455000" lon="-2.374592000">
        <ele>418.50</ele>
        <time>2013-07-27T12:39:06Z</time>
      </trkpt>
      <trkpt lat="42.417455000" lon="-2.374592000">
        <ele>418.40</ele>
        <time>2013-07-27T12:39:07Z</time>
      </trkpt>
      <trkpt lat="42.417455000" lon="-2.374592000">
        <ele>418.30</ele>
        <time>2013-07-27T12:39:08Z</time>
      </trkpt>
      <trkpt lat="42.417455000" lon="-2.374592000">
        <ele>418.30</ele>
        <time>2013-07-27T12:39:09Z</time>
      </trkpt>
      <trkpt lat="42.417455000" lon="-2.374592000">
        <ele>418.20</ele>
        <time>2013-07-27T12:39:10Z</time>
      </trkpt>
      <trkpt lat="42.417456000" lon="-2.374592000">
        <ele>418.10</ele>
        <time>2013-07-27T12:39:11Z</time>
      </trkpt>
      <trkpt lat="42.417455000" lon="-2.374592000">
        <ele>418.00</ele>
        <time>2013-07-27T12:39:12Z</time>
      </trkpt>
      <trkpt lat="42.417455000" lon="-2.374592000">
        <ele>418.00</ele>
        <time>2013-07-27T12:39:13Z</time>
      </trkpt>
      <trkpt lat="42.417455000" lon="-2.374591000">
        <ele>418.00</ele>
        <time>2013-07-27T12:39:14Z</time>
      </trkpt>
      <trkpt lat="42.417455000" lon="-2.374591000">
        <ele>418.00</ele>
        <time>2013-07-27T12:39:15Z</time>
      </trkpt>
      <trkpt lat="42.417455000" lon="-2.374590000">
        <ele>417.90</ele>
        <time>2013-07-27T12:39:16Z</time>
      </trkpt>
      <trkpt lat="42.417456000" lon="-2.374590000">
        <ele>417.90</ele>
        <time>2013-07-27T12:39:17Z</time>
      </trkpt>
      <trkpt lat="42.417455000" lon="-2.374590000">
        <ele>417.90</ele>
        <time>2013-07-27T12:39:18Z</time>
      </trkpt>
      <trkpt lat="42.417456000" lon="-2.374590000">
        <ele>417.80</ele>
        <time>2013-07-27T12:39:19Z</time>
      </trkpt>
      <trkpt lat="42.417455000" lon="-2.374590000">
        <ele>417.80</ele>
        <time>2013-07-27T12:39:20Z</time>
      </trkpt>
      <trkpt lat="42.417456000" lon="-2.374590000">
        <ele>417.70</ele>
        <time>2013-07-27T12:39:21Z</time>
      </trkpt>
      <trkpt lat="42.417455000" lon="-2.374590000">
        <ele>417.70</ele>
        <time>2013-07-27T12:39:22Z</time>
      </trkpt>
      <trkpt lat="42.417456000" lon="-2.374589000">
        <ele>417.70</ele>
        <time>2013-07-27T12:39:23Z</time>
      </trkpt>
      <trkpt lat="42.417456000" lon="-2.374589000">
        <ele>417.80</ele>
        <time>2013-07-27T12:39:24Z</time>
      </trkpt>
      <trkpt lat="42.417455000" lon="-2.374589000">
        <ele>417.80</ele>
        <time>2013-07-27T12:39:25Z</time>
      </trkpt>
      <trkpt lat="42.417455000" lon="-2.374589000">
        <ele>417.90</ele>
        <time>2013-07-27T12:39:26Z</time>
      </trkpt>
      <trkpt lat="42.417455000" lon="-2.374587000">
        <ele>417.90</ele>
        <time>2013-07-27T12:39:27Z</time>
      </trkpt>
      <trkpt lat="42.417455000" lon="-2.374587000">
        <ele>418.00</ele>
        <time>2013-07-27T12:39:28Z</time>
      </trkpt>
      <trkpt lat="42.417454000" lon="-2.374586000">
        <ele>418.00</ele>
        <time>2013-07-27T12:39:29Z</time>
      </trkpt>
      <trkpt lat="42.417453000" lon="-2.374586000">
        <ele>418.10</ele>
        <time>2013-07-27T12:39:30Z</time>
      </trkpt>
      <trkpt lat="42.417453000" lon="-2.374586000">
        <ele>418.10</ele>
        <time>2013-07-27T12:39:31Z</time>
      </trkpt>
      <trkpt lat="42.417452000" lon="-2.374585000">
        <ele>418.20</ele>
        <time>2013-07-27T12:39:32Z</time>
      </trkpt>
      <trkpt lat="42.417452000" lon="-2.374585000">
        <ele>418.20</ele>
        <time>2013-07-27T12:39:33Z</time>
      </trkpt>
      <trkpt lat="42.417451000" lon="-2.374586000">
        <ele>418.20</ele>
        <time>2013-07-27T12:39:34Z</time>
      </trkpt>
      <trkpt lat="42.417451000" lon="-2.374585000">
        <ele>418.20</ele>
        <time>2013-07-27T12:39:35Z</time>
      </trkpt>
      <trkpt lat="42.417450000" lon="-2.374585000">
        <ele>418.20</ele>
        <time>2013-07-27T12:39:36Z</time>
      </trkpt>
      <trkpt lat="42.417449000" lon="-2.374586000">
        <ele>418.20</ele>
        <time>2013-07-27T12:39:37Z</time>
      </trkpt>
      <trkpt lat="42.417448000" lon="-2.374586000">
        <ele>418.20</ele>
        <time>2013-07-27T12:39:38Z</time>
      </trkpt>
      <trkpt lat="42.417448000" lon="-2.374587000">
        <ele>418.10</ele>
        <time>2013-07-27T12:39:39Z</time>
      </trkpt>
      <trkpt lat="42.417451000" lon="-2.374586000">
        <ele>418.10</ele>
        <time>2013-07-27T12:39:40Z</time>
      </trkpt>
      <trkpt lat="42.417468000" lon="-2.374592000">
        <ele>418.00</ele>
        <time>2013-07-27T12:39:41Z</time>
      </trkpt>
      <trkpt lat="42.417485000" lon="-2.374600000">
        <ele>418.00</ele>
        <time>2013-07-27T12:39:42Z</time>
      </trkpt>
      <trkpt lat="42.417503000" lon="-2.374616000">
        <ele>418.00</ele>
        <time>2013-07-27T12:39:43Z</time>
      </trkpt>
      <trkpt lat="42.417526000" lon="-2.374628000">
        <ele>418.00</ele>
        <time>2013-07-27T12:39:44Z</time>
      </trkpt>
      <trkpt lat="42.417549000" lon="-2.374647000">
        <ele>418.00</ele>
        <time>2013-07-27T12:39:45Z</time>
      </trkpt>
      <trkpt lat="42.417571000" lon="-2.374663000">
        <ele>418.00</ele>
        <time>2013-07-27T12:39:46Z</time>
      </trkpt>
      <trkpt lat="42.417596000" lon="-2.374684000">
        <ele>418.10</ele>
        <time>2013-07-27T12:39:47Z</time>
      </trkpt>
      <trkpt lat="42.417625000" lon="-2.374704000">
        <ele>418.10</ele>
        <time>2013-07-27T12:39:48Z</time>
      </trkpt>
      <trkpt lat="42.417655000" lon="-2.374722000">
        <ele>418.10</ele>
        <time>2013-07-27T12:39:49Z</time>
      </trkpt>
      <trkpt lat="42.417684000" lon="-2.374741000">
        <ele>418.30</ele>
        <time>2013-07-27T12:39:50Z</time>
      </trkpt>
      <trkpt lat="42.417715000" lon="-2.374764000">
        <ele>418.50</ele>
        <time>2013-07-27T12:39:51Z</time>
      </trkpt>
      <trkpt lat="42.417749000" lon="-2.374787000">
        <ele>418.60</ele>
        <time>2013-07-27T12:39:52Z</time>
      </trkpt>
      <trkpt lat="42.417778000" lon="-2.374805000">
        <ele>418.70</ele>
        <time>2013-07-27T12:39:53Z</time>
      </trkpt>
      <trkpt lat="42.417810000" lon="-2.374821000">
        <ele>418.80</ele>
        <time>2013-07-27T12:39:54Z</time>
      </trkpt>
      <trkpt lat="42.417848000" lon="-2.374845000">
        <ele>418.90</ele>
        <time>2013-07-27T12:39:55Z</time>
      </trkpt>
      <trkpt lat="42.417893000" lon="-2.374869000">
        <ele>419.00</ele>
        <time>2013-07-27T12:39:56Z</time>
      </trkpt>
      <trkpt lat="42.417938000" lon="-2.374892000">
        <ele>419.10</ele>
        <time>2013-07-27T12:39:57Z</time>
      </trkpt>
      <trkpt lat="42.417977000" lon="-2.374917000">
        <ele>419.40</ele>
        <time>2013-07-27T12:39:58Z</time>
      </trkpt>
      <trkpt lat="42.418016000" lon="-2.374940000">
        <ele>419.60</ele>
        <time>2013-07-27T12:39:59Z</time>
      </trkpt>
      <trkpt lat="42.418053000" lon="-2.374962000">
        <ele>419.90</ele>
        <time>2013-07-27T12:40:00Z</time>
      </trkpt>
      <trkpt lat="42.418091000" lon="-2.374984000">
        <ele>420.00</ele>
        <time>2013-07-27T12:40:01Z</time>
      </trkpt>
      <trkpt lat="42.418129000" lon="-2.375007000">
        <ele>420.20</ele>
        <time>2013-07-27T12:40:02Z</time>
      </trkpt>
      <trkpt lat="42.418168000" lon="-2.375032000">
        <ele>420.30</ele>
        <time>2013-07-27T12:40:03Z</time>
      </trkpt>
      <trkpt lat="42.418206000" lon="-2.375059000">
        <ele>420.40</ele>
        <time>2013-07-27T12:40:04Z</time>
      </trkpt>
      <trkpt lat="42.418243000" lon="-2.375091000">
        <ele>420.50</ele>
        <time>2013-07-27T12:40:05Z</time>
      </trkpt>
      <trkpt lat="42.418281000" lon="-2.375124000">
        <ele>420.70</ele>
        <time>2013-07-27T12:40:06Z</time>
      </trkpt>
      <trkpt lat="42.418318000" lon="-2.375158000">
        <ele>420.80</ele>
        <time>2013-07-27T12:40:07Z</time>
      </trkpt>
      <trkpt lat="42.418358000" lon="-2.375190000">
        <ele>421.20</ele>
        <time>2013-07-27T12:40:08Z</time>
      </trkpt>
      <trkpt lat="42.418398000" lon="-2.375221000">
        <ele>421.50</ele>
        <time>2013-07-27T12:40:09Z</time>
      </trkpt>
      <trkpt lat="42.418439000" lon="-2.375254000">
        <ele>421.70</ele>
        <time>2013-07-27T12:40:10Z</time>
      </trkpt>
      <trkpt lat="42.418481000" lon="-2.375292000">
        <ele>421.80</ele>
        <time>2013-07-27T12:40:11Z</time>
      </trkpt>
      <trkpt lat="42.418523000" lon="-2.375331000">
        <ele>421.90</ele>
        <time>2013-07-27T12:40:12Z</time>
      </trkpt>
      <trkpt lat="42.418564000" lon="-2.375368000">
        <ele>422.00</ele>
        <time>2013-07-27T12:40:13Z</time>
      </trkpt>
      <trkpt lat="42.418605000" lon="-2.375405000">
        <ele>422.10</ele>
        <time>2013-07-27T12:40:14Z</time>
      </trkpt>
      <trkpt lat="42.418647000" lon="-2.375440000">
        <ele>422.20</ele>
        <time>2013-07-27T12:40:15Z</time>
      </trkpt>
      <trkpt lat="42.418688000" lon="-2.375475000">
        <ele>422.20</ele>
        <time>2013-07-27T12:40:16Z</time>
      </trkpt>
      <trkpt lat="42.418726000" lon="-2.375512000">
        <ele>422.20</ele>
        <time>2013-07-27T12:40:17Z</time>
      </trkpt>
      <trkpt lat="42.418765000" lon="-2.375549000">
        <ele>422.20</ele>
        <time>2013-07-27T12:40:18Z</time>
      </trkpt>
      <trkpt lat="42.418807000" lon="-2.375584000">
        <ele>422.20</ele>
        <time>2013-07-27T12:40:19Z</time>
      </trkpt>
      <trkpt lat="42.418848000" lon="-2.375618000">
        <ele>422.10</ele>
        <time>2013-07-27T12:40:20Z</time>
      </trkpt>
      <trkpt lat="42.418888000" lon="-2.375654000">
        <ele>422.10</ele>
        <time>2013-07-27T12:40:21Z</time>
      </trkpt>
      <trkpt lat="42.418930000" lon="-2.375689000">
        <ele>422.10</ele>
        <time>2013-07-27T12:40:22Z</time>
      </trkpt>
      <trkpt lat="42.418973000" lon="-2.375725000">
        <ele>422.10</ele>
        <time>2013-07-27T12:40:23Z</time>
      </trkpt>
      <trkpt lat="42.419018000" lon="-2.375760000">
        <ele>422.30</ele>
        <time>2013-07-27T12:40:24Z</time>
      </trkpt>
      <trkpt lat="42.419063000" lon="-2.375796000">
        <ele>422.50</ele>
        <time>2013-07-27T12:40:25Z</time>
      </trkpt>
      <trkpt lat="42.419109000" lon="-2.375833000">
        <ele>422.60</ele>
        <time>2013-07-27T12:40:26Z</time>
      </trkpt>
      <trkpt lat="42.419155000" lon="-2.375870000">
        <ele>422.70</ele>
        <time>2013-07-27T12:40:27Z</time>
      </trkpt>
      <trkpt lat="42.419203000" lon="-2.375910000">
        <ele>422.60</ele>
        <time>2013-07-27T12:40:28Z</time>
      </trkpt>
      <trkpt lat="42.419251000" lon="-2.375951000">
        <ele>422.50</ele>
        <time>2013-07-27T12:40:29Z</time>
      </trkpt>
      <trkpt lat="42.419300000" lon="-2.375992000">
        <ele>422.50</ele>
        <time>2013-07-27T12:40:30Z</time>
      </trkpt>
      <trkpt lat="42.419349000" lon="-2.376031000">
        <ele>422.40</ele>
        <time>2013-07-27T12:40:31Z</time>
      </trkpt>
      <trkpt lat="42.419397000" lon="-2.376075000">
        <ele>422.60</ele>
        <time>2013-07-27T12:40:32Z</time>
      </trkpt>
      <trkpt lat="42.419447000" lon="-2.376118000">
        <ele>422.70</ele>
        <time>2013-07-27T12:40:33Z</time>
      </trkpt>
      <trkpt lat="42.419495000" lon="-2.376162000">
        <ele>422.70</ele>
        <time>2013-07-27T12:40:34Z</time>
      </trkpt>
      <trkpt lat="42.419542000" lon="-2.376204000">
        <ele>422.80</ele>
        <time>2013-07-27T12:40:35Z</time>
      </trkpt>
      <trkpt lat="42.419589000" lon="-2.376249000">
        <ele>422.80</ele>
        <time>2013-07-27T12:40:36Z</time>
      </trkpt>
      <trkpt lat="42.419639000" lon="-2.376292000">
        <ele>422.90</ele>
        <time>2013-07-27T12:40:37Z</time>
      </trkpt>
      <trkpt lat="42.419688000" lon="-2.376335000">
        <ele>422.90</ele>
        <time>2013-07-27T12:40:38Z</time>
      </trkpt>
      <trkpt lat="42.419739000" lon="-2.376375000">
        <ele>422.90</ele>
        <time>2013-07-27T12:40:39Z</time>
      </trkpt>
      <trkpt lat="42.419790000" lon="-2.376416000">
        <ele>422.50</ele>
        <time>2013-07-27T12:40:40Z</time>
      </trkpt>
      <trkpt lat="42.419840000" lon="-2.376457000">
        <ele>422.20</ele>
        <time>2013-07-27T12:40:41Z</time>
      </trkpt>
      <trkpt lat="42.419888000" lon="-2.376497000">
        <ele>422.10</ele>
        <time>2013-07-27T12:40:42Z</time>
      </trkpt>
      <trkpt lat="42.419939000" lon="-2.376534000">
        <ele>422.00</ele>
        <time>2013-07-27T12:40:43Z</time>
      </trkpt>
      <trkpt lat="42.419987000" lon="-2.376574000">
        <ele>421.80</ele>
        <time>2013-07-27T12:40:44Z</time>
      </trkpt>
      <trkpt lat="42.420038000" lon="-2.376612000">
        <ele>421.70</ele>
        <time>2013-07-27T12:40:45Z</time>
      </trkpt>
      <trkpt lat="42.420088000" lon="-2.376650000">
        <ele>421.70</ele>
        <time>2013-07-27T12:40:46Z</time>
      </trkpt>
      <trkpt lat="42.420136000" lon="-2.376688000">
        <ele>421.70</ele>
        <time>2013-07-27T12:40:47Z</time>
      </trkpt>
      <trkpt lat="42.420187000" lon="-2.376725000">
        <ele>421.60</ele>
        <time>2013-07-27T12:40:48Z</time>
      </trkpt>
      <trkpt lat="42.420237000" lon="-2.376763000">
        <ele>421.50</ele>
        <time>2013-07-27T12:40:49Z</time>
      </trkpt>
      <trkpt lat="42.420287000" lon="-2.376801000">
        <ele>421.50</ele>
        <time>2013-07-27T12:40:50Z</time>
      </trkpt>
      <trkpt lat="42.420338000" lon="-2.376841000">
        <ele>421.50</ele>
        <time>2013-07-27T12:40:51Z</time>
      </trkpt>
      <trkpt lat="42.420386000" lon="-2.376881000">
        <ele>421.40</ele>
        <time>2013-07-27T12:40:52Z</time>
      </trkpt>
      <trkpt lat="42.420434000" lon="-2.376920000">
        <ele>421.30</ele>
        <time>2013-07-27T12:40:53Z</time>
      </trkpt>
      <trkpt lat="42.420482000" lon="-2.376957000">
        <ele>421.30</ele>
        <time>2013-07-27T12:40:54Z</time>
      </trkpt>
      <trkpt lat="42.420531000" lon="-2.376993000">
        <ele>421.30</ele>
        <time>2013-07-27T12:40:55Z</time>
      </trkpt>
      <trkpt lat="42.420581000" lon="-2.377033000">
        <ele>421.20</ele>
        <time>2013-07-27T12:40:56Z</time>
      </trkpt>
      <trkpt lat="42.420634000" lon="-2.377071000">
        <ele>421.20</ele>
        <time>2013-07-27T12:40:57Z</time>
      </trkpt>
      <trkpt lat="42.420688000" lon="-2.377112000">
        <ele>421.20</ele>
        <time>2013-07-27T12:40:58Z</time>
      </trkpt>
      <trkpt lat="42.420744000" lon="-2.377160000">
        <ele>421.20</ele>
        <time>2013-07-27T12:40:59Z</time>
      </trkpt>
      <trkpt lat="42.420803000" lon="-2.377208000">
        <ele>421.20</ele>
        <time>2013-07-27T12:41:00Z</time>
      </trkpt>
      <trkpt lat="42.420863000" lon="-2.377257000">
        <ele>421.20</ele>
        <time>2013-07-27T12:41:01Z</time>
      </trkpt>
      <trkpt lat="42.420923000" lon="-2.377306000">
        <ele>421.00</ele>
        <time>2013-07-27T12:41:02Z</time>
      </trkpt>
      <trkpt lat="42.420986000" lon="-2.377355000">
        <ele>420.90</ele>
        <time>2013-07-27T12:41:03Z</time>
      </trkpt>
      <trkpt lat="42.421048000" lon="-2.377401000">
        <ele>420.60</ele>
        <time>2013-07-27T12:41:04Z</time>
      </trkpt>
      <trkpt lat="42.421111000" lon="-2.377443000">
        <ele>420.30</ele>
        <time>2013-07-27T12:41:05Z</time>
      </trkpt>
      <trkpt lat="42.421171000" lon="-2.377490000">
        <ele>420.00</ele>
        <time>2013-07-27T12:41:06Z</time>
      </trkpt>
      <trkpt lat="42.421229000" lon="-2.377538000">
        <ele>419.80</ele>
        <time>2013-07-27T12:41:07Z</time>
      </trkpt>
      <trkpt lat="42.421289000" lon="-2.377587000">
        <ele>419.40</ele>
        <time>2013-07-27T12:41:08Z</time>
      </trkpt>
      <trkpt lat="42.421349000" lon="-2.377633000">
        <ele>419.10</ele>
        <time>2013-07-27T12:41:09Z</time>
      </trkpt>
      <trkpt lat="42.421409000" lon="-2.377680000">
        <ele>418.80</ele>
        <time>2013-07-27T12:41:10Z</time>
      </trkpt>
      <trkpt lat="42.421470000" lon="-2.377724000">
        <ele>418.50</ele>
        <time>2013-07-27T12:41:11Z</time>
      </trkpt>
      <trkpt lat="42.421531000" lon="-2.377769000">
        <ele>418.30</ele>
        <time>2013-07-27T12:41:12Z</time>
      </trkpt>
      <trkpt lat="42.421590000" lon="-2.377814000">
        <ele>418.10</ele>
        <time>2013-07-27T12:41:13Z</time>
      </trkpt>
      <trkpt lat="42.421651000" lon="-2.377858000">
        <ele>417.80</ele>
        <time>2013-07-27T12:41:14Z</time>
      </trkpt>
      <trkpt lat="42.421710000" lon="-2.377898000">
        <ele>417.60</ele>
        <time>2013-07-27T12:41:15Z</time>
      </trkpt>
      <trkpt lat="42.421770000" lon="-2.377933000">
        <ele>417.30</ele>
        <time>2013-07-27T12:41:16Z</time>
      </trkpt>
      <trkpt lat="42.421831000" lon="-2.377962000">
        <ele>417.10</ele>
        <time>2013-07-27T12:41:17Z</time>
      </trkpt>
      <trkpt lat="42.421895000" lon="-2.377989000">
        <ele>416.90</ele>
        <time>2013-07-27T12:41:18Z</time>
      </trkpt>
      <trkpt lat="42.421960000" lon="-2.378008000">
        <ele>416.80</ele>
        <time>2013-07-27T12:41:19Z</time>
      </trkpt>
      <trkpt lat="42.422023000" lon="-2.378031000">
        <ele>416.80</ele>
        <time>2013-07-27T12:41:20Z</time>
      </trkpt>
      <trkpt lat="42.422086000" lon="-2.378052000">
        <ele>416.90</ele>
        <time>2013-07-27T12:41:21Z</time>
      </trkpt>
      <trkpt lat="42.422150000" lon="-2.378077000">
        <ele>416.90</ele>
        <time>2013-07-27T12:41:22Z</time>
      </trkpt>
      <trkpt lat="42.422212000" lon="-2.378106000">
        <ele>417.00</ele>
        <time>2013-07-27T12:41:23Z</time>
      </trkpt>
      <trkpt lat="42.422273000" lon="-2.378139000">
        <ele>417.10</ele>
        <time>2013-07-27T12:41:24Z</time>
      </trkpt>
      <trkpt lat="42.422332000" lon="-2.378178000">
        <ele>417.10</ele>
        <time>2013-07-27T12:41:25Z</time>
      </trkpt>
      <trkpt lat="42.422389000" lon="-2.378219000">
        <ele>416.70</ele>
        <time>2013-07-27T12:41:26Z</time>
      </trkpt>
      <trkpt lat="42.422445000" lon="-2.378260000">
        <ele>416.40</ele>
        <time>2013-07-27T12:41:27Z</time>
      </trkpt>
      <trkpt lat="42.422502000" lon="-2.378304000">
        <ele>416.20</ele>
        <time>2013-07-27T12:41:28Z</time>
      </trkpt>
      <trkpt lat="42.422556000" lon="-2.378351000">
        <ele>416.10</ele>
        <time>2013-07-27T12:41:29Z</time>
      </trkpt>
      <trkpt lat="42.422610000" lon="-2.378396000">
        <ele>416.20</ele>
        <time>2013-07-27T12:41:30Z</time>
      </trkpt>
      <trkpt lat="42.422662000" lon="-2.378444000">
        <ele>416.30</ele>
        <time>2013-07-27T12:41:31Z</time>
      </trkpt>
      <trkpt lat="42.422717000" lon="-2.378495000">
        <ele>416.40</ele>
        <time>2013-07-27T12:41:32Z</time>
      </trkpt>
      <trkpt lat="42.422770000" lon="-2.378543000">
        <ele>416.50</ele>
        <time>2013-07-27T12:41:33Z</time>
      </trkpt>
      <trkpt lat="42.422821000" lon="-2.378592000">
        <ele>416.50</ele>
        <time>2013-07-27T12:41:34Z</time>
      </trkpt>
      <trkpt lat="42.422873000" lon="-2.378639000">
        <ele>416.50</ele>
        <time>2013-07-27T12:41:35Z</time>
      </trkpt>
      <trkpt lat="42.422923000" lon="-2.378685000">
        <ele>416.30</ele>
        <time>2013-07-27T12:41:36Z</time>
      </trkpt>
      <trkpt lat="42.422973000" lon="-2.378730000">
        <ele>416.20</ele>
        <time>2013-07-27T12:41:37Z</time>
      </trkpt>
      <trkpt lat="42.423022000" lon="-2.378775000">
        <ele>416.10</ele>
        <time>2013-07-27T12:41:38Z</time>
      </trkpt>
      <trkpt lat="42.423069000" lon="-2.378820000">
        <ele>416.00</ele>
        <time>2013-07-27T12:41:39Z</time>
      </trkpt>
      <trkpt lat="42.423114000" lon="-2.378864000">
        <ele>415.80</ele>
        <time>2013-07-27T12:41:40Z</time>
      </trkpt>
      <trkpt lat="42.423157000" lon="-2.378913000">
        <ele>415.70</ele>
        <time>2013-07-27T12:41:41Z</time>
      </trkpt>
      <trkpt lat="42.423197000" lon="-2.378968000">
        <ele>415.60</ele>
        <time>2013-07-27T12:41:42Z</time>
      </trkpt>
      <trkpt lat="42.423233000" lon="-2.379032000">
        <ele>415.60</ele>
        <time>2013-07-27T12:41:43Z</time>
      </trkpt>
      <trkpt lat="42.423264000" lon="-2.379101000">
        <ele>415.70</ele>
        <time>2013-07-27T12:41:44Z</time>
      </trkpt>
      <trkpt lat="42.423295000" lon="-2.379172000">
        <ele>415.70</ele>
        <time>2013-07-27T12:41:45Z</time>
      </trkpt>
      <trkpt lat="42.423329000" lon="-2.379240000">
        <ele>415.80</ele>
        <time>2013-07-27T12:41:46Z</time>
      </trkpt>
      <trkpt lat="42.423371000" lon="-2.379299000">
        <ele>415.80</ele>
        <time>2013-07-27T12:41:47Z</time>
      </trkpt>
      <trkpt lat="42.423418000" lon="-2.379350000">
        <ele>415.70</ele>
        <time>2013-07-27T12:41:48Z</time>
      </trkpt>
      <trkpt lat="42.423471000" lon="-2.379393000">
        <ele>415.60</ele>
        <time>2013-07-27T12:41:49Z</time>
      </trkpt>
      <trkpt lat="42.423527000" lon="-2.379428000">
        <ele>415.30</ele>
        <time>2013-07-27T12:41:50Z</time>
      </trkpt>
      <trkpt lat="42.423584000" lon="-2.379458000">
        <ele>415.10</ele>
        <time>2013-07-27T12:41:51Z</time>
      </trkpt>
      <trkpt lat="42.423639000" lon="-2.379486000">
        <ele>414.90</ele>
        <time>2013-07-27T12:41:52Z</time>
      </trkpt>
      <trkpt lat="42.423698000" lon="-2.379495000">
        <ele>414.80</ele>
        <time>2013-07-27T12:41:53Z</time>
      </trkpt>
      <trkpt lat="42.423758000" lon="-2.379483000">
        <ele>414.80</ele>
        <time>2013-07-27T12:41:54Z</time>
      </trkpt>
      <trkpt lat="42.423808000" lon="-2.379463000">
        <ele>414.70</ele>
        <time>2013-07-27T12:41:55Z</time>
      </trkpt>
      <trkpt lat="42.423858000" lon="-2.379438000">
        <ele>414.70</ele>
        <time>2013-07-27T12:41:56Z</time>
      </trkpt>
      <trkpt lat="42.423905000" lon="-2.379406000">
        <ele>414.70</ele>
        <time>2013-07-27T12:41:57Z</time>
      </trkpt>
      <trkpt lat="42.423956000" lon="-2.379379000">
        <ele>414.40</ele>
        <time>2013-07-27T12:41:58Z</time>
      </trkpt>
      <trkpt lat="42.424011000" lon="-2.379363000">
        <ele>414.20</ele>
        <time>2013-07-27T12:41:59Z</time>
      </trkpt>
      <trkpt lat="42.424067000" lon="-2.379357000">
        <ele>414.10</ele>
        <time>2013-07-27T12:42:00Z</time>
      </trkpt>
      <trkpt lat="42.424120000" lon="-2.379357000">
        <ele>413.90</ele>
        <time>2013-07-27T12:42:01Z</time>
      </trkpt>
      <trkpt lat="42.424169000" lon="-2.379366000">
        <ele>413.90</ele>
        <time>2013-07-27T12:42:02Z</time>
      </trkpt>
      <trkpt lat="42.424221000" lon="-2.379391000">
        <ele>413.80</ele>
        <time>2013-07-27T12:42:03Z</time>
      </trkpt>
      <trkpt lat="42.424270000" lon="-2.379427000">
        <ele>413.70</ele>
        <time>2013-07-27T12:42:04Z</time>
      </trkpt>
      <trkpt lat="42.424314000" lon="-2.379474000">
        <ele>413.60</ele>
        <time>2013-07-27T12:42:05Z</time>
      </trkpt>
      <trkpt lat="42.424356000" lon="-2.379522000">
        <ele>413.50</ele>
        <time>2013-07-27T12:42:06Z</time>
      </trkpt>
      <trkpt lat="42.424398000" lon="-2.379574000">
        <ele>413.40</ele>
        <time>2013-07-27T12:42:07Z</time>
      </trkpt>
      <trkpt lat="42.424443000" lon="-2.379629000">
        <ele>413.30</ele>
        <time>2013-07-27T12:42:08Z</time>
      </trkpt>
      <trkpt lat="42.424483000" lon="-2.379690000">
        <ele>413.30</ele>
        <time>2013-07-27T12:42:09Z</time>
      </trkpt>
      <trkpt lat="42.424520000" lon="-2.379750000">
        <ele>413.20</ele>
        <time>2013-07-27T12:42:10Z</time>
      </trkpt>
      <trkpt lat="42.424552000" lon="-2.379818000">
        <ele>413.20</ele>
        <time>2013-07-27T12:42:11Z</time>
      </trkpt>
      <trkpt lat="42.424572000" lon="-2.379893000">
        <ele>413.00</ele>
        <time>2013-07-27T12:42:12Z</time>
      </trkpt>
      <trkpt lat="42.424583000" lon="-2.379973000">
        <ele>412.80</ele>
        <time>2013-07-27T12:42:13Z</time>
      </trkpt>
      <trkpt lat="42.424581000" lon="-2.380056000">
        <ele>412.90</ele>
        <time>2013-07-27T12:42:14Z</time>
      </trkpt>
      <trkpt lat="42.424576000" lon="-2.380137000">
        <ele>412.90</ele>
        <time>2013-07-27T12:42:15Z</time>
      </trkpt>
      <trkpt lat="42.424572000" lon="-2.380218000">
        <ele>412.80</ele>
        <time>2013-07-27T12:42:16Z</time>
      </trkpt>
      <trkpt lat="42.424567000" lon="-2.380297000">
        <ele>412.80</ele>
        <time>2013-07-27T12:42:17Z</time>
      </trkpt>
      <trkpt lat="42.424562000" lon="-2.380371000">
        <ele>412.80</ele>
        <time>2013-07-27T12:42:18Z</time>
      </trkpt>
      <trkpt lat="42.424555000" lon="-2.380439000">
        <ele>412.90</ele>
        <time>2013-07-27T12:42:19Z</time>
      </trkpt>
      <trkpt lat="42.424553000" lon="-2.380499000">
        <ele>413.20</ele>
        <time>2013-07-27T12:42:20Z</time>
      </trkpt>
      <trkpt lat="42.424554000" lon="-2.380550000">
        <ele>413.40</ele>
        <time>2013-07-27T12:42:21Z</time>
      </trkpt>
      <trkpt lat="42.424556000" lon="-2.380594000">
        <ele>413.50</ele>
        <time>2013-07-27T12:42:22Z</time>
      </trkpt>
      <trkpt lat="42.424566000" lon="-2.380626000">
        <ele>413.60</ele>
        <time>2013-07-27T12:42:23Z</time>
      </trkpt>
      <trkpt lat="42.424577000" lon="-2.380650000">
        <ele>413.70</ele>
        <time>2013-07-27T12:42:24Z</time>
      </trkpt>
      <trkpt lat="42.424584000" lon="-2.380676000">
        <ele>413.80</ele>
        <time>2013-07-27T12:42:25Z</time>
      </trkpt>
      <trkpt lat="42.424589000" lon="-2.380702000">
        <ele>414.20</ele>
        <time>2013-07-27T12:42:26Z</time>
      </trkpt>
      <trkpt lat="42.424583000" lon="-2.380732000">
        <ele>414.50</ele>
        <time>2013-07-27T12:42:27Z</time>
      </trkpt>
      <trkpt lat="42.424569000" lon="-2.380767000">
        <ele>414.80</ele>
        <time>2013-07-27T12:42:28Z</time>
      </trkpt>
      <trkpt lat="42.424556000" lon="-2.380797000">
        <ele>415.00</ele>
        <time>2013-07-27T12:42:29Z</time>
      </trkpt>
      <trkpt lat="42.424547000" lon="-2.380831000">
        <ele>414.90</ele>
        <time>2013-07-27T12:42:30Z</time>
      </trkpt>
      <trkpt lat="42.424540000" lon="-2.380863000">
        <ele>414.90</ele>
        <time>2013-07-27T12:42:31Z</time>
      </trkpt>
      <trkpt lat="42.424536000" lon="-2.380897000">
        <ele>414.90</ele>
        <time>2013-07-27T12:42:32Z</time>
      </trkpt>
      <trkpt lat="42.424533000" lon="-2.380929000">
        <ele>414.90</ele>
        <time>2013-07-27T12:42:33Z</time>
      </trkpt>
      <trkpt lat="42.424530000" lon="-2.380957000">
        <ele>415.10</ele>
        <time>2013-07-27T12:42:34Z</time>
      </trkpt>
      <trkpt lat="42.424529000" lon="-2.380980000">
        <ele>415.30</ele>
        <time>2013-07-27T12:42:35Z</time>
      </trkpt>
      <trkpt lat="42.424525000" lon="-2.381001000">
        <ele>415.60</ele>
        <time>2013-07-27T12:42:36Z</time>
      </trkpt>
      <trkpt lat="42.424524000" lon="-2.381018000">
        <ele>415.80</ele>
        <time>2013-07-27T12:42:37Z</time>
      </trkpt>
      <trkpt lat="42.424522000" lon="-2.381036000">
        <ele>415.90</ele>
        <time>2013-07-27T12:42:38Z</time>
      </trkpt>
      <trkpt lat="42.424524000" lon="-2.381058000">
        <ele>416.00</ele>
        <time>2013-07-27T12:42:39Z</time>
      </trkpt>
      <trkpt lat="42.424523000" lon="-2.381083000">
        <ele>416.10</ele>
        <time>2013-07-27T12:42:40Z</time>
      </trkpt>
      <trkpt lat="42.424519000" lon="-2.381115000">
        <ele>416.20</ele>
        <time>2013-07-27T12:42:41Z</time>
      </trkpt>
      <trkpt lat="42.424508000" lon="-2.381150000">
        <ele>416.40</ele>
        <time>2013-07-27T12:42:42Z</time>
      </trkpt>
      <trkpt lat="42.424501000" lon="-2.381190000">
        <ele>416.60</ele>
        <time>2013-07-27T12:42:43Z</time>
      </trkpt>
      <trkpt lat="42.424496000" lon="-2.381238000">
        <ele>416.60</ele>
        <time>2013-07-27T12:42:44Z</time>
      </trkpt>
      <trkpt lat="42.424486000" lon="-2.381289000">
        <ele>416.60</ele>
        <time>2013-07-27T12:42:45Z</time>
      </trkpt>
      <trkpt lat="42.424473000" lon="-2.381347000">
        <ele>416.70</ele>
        <time>2013-07-27T12:42:46Z</time>
      </trkpt>
      <trkpt lat="42.424458000" lon="-2.381407000">
        <ele>416.80</ele>
        <time>2013-07-27T12:42:47Z</time>
      </trkpt>
      <trkpt lat="42.424443000" lon="-2.381469000">
        <ele>416.90</ele>
        <time>2013-07-27T12:42:48Z</time>
      </trkpt>
      <trkpt lat="42.424428000" lon="-2.381535000">
        <ele>416.90</ele>
        <time>2013-07-27T12:42:49Z</time>
      </trkpt>
      <trkpt lat="42.424411000" lon="-2.381602000">
        <ele>417.00</ele>
        <time>2013-07-27T12:42:50Z</time>
      </trkpt>
      <trkpt lat="42.424394000" lon="-2.381669000">
        <ele>417.00</ele>
        <time>2013-07-27T12:42:51Z</time>
      </trkpt>
      <trkpt lat="42.424378000" lon="-2.381740000">
        <ele>417.00</ele>
        <time>2013-07-27T12:42:52Z</time>
      </trkpt>
      <trkpt lat="42.424359000" lon="-2.381810000">
        <ele>416.90</ele>
        <time>2013-07-27T12:42:53Z</time>
      </trkpt>
      <trkpt lat="42.424339000" lon="-2.381879000">
        <ele>416.90</ele>
        <time>2013-07-27T12:42:54Z</time>
      </trkpt>
      <trkpt lat="42.424323000" lon="-2.381949000">
        <ele>416.80</ele>
        <time>2013-07-27T12:42:55Z</time>
      </trkpt>
      <trkpt lat="42.424306000" lon="-2.382018000">
        <ele>416.80</ele>
        <time>2013-07-27T12:42:56Z</time>
      </trkpt>
      <trkpt lat="42.424286000" lon="-2.382082000">
        <ele>416.80</ele>
        <time>2013-07-27T12:42:57Z</time>
      </trkpt>
      <trkpt lat="42.424265000" lon="-2.382149000">
        <ele>416.80</ele>
        <time>2013-07-27T12:42:58Z</time>
      </trkpt>
      <trkpt lat="42.424244000" lon="-2.382219000">
        <ele>416.70</ele>
        <time>2013-07-27T12:42:59Z</time>
      </trkpt>
      <trkpt lat="42.424223000" lon="-2.382287000">
        <ele>416.40</ele>
        <time>2013-07-27T12:43:00Z</time>
      </trkpt>
      <trkpt lat="42.424203000" lon="-2.382358000">
        <ele>416.20</ele>
        <time>2013-07-27T12:43:01Z</time>
      </trkpt>
      <trkpt lat="42.424181000" lon="-2.382427000">
        <ele>416.00</ele>
        <time>2013-07-27T12:43:02Z</time>
      </trkpt>
      <trkpt lat="42.424157000" lon="-2.382494000">
        <ele>415.90</ele>
        <time>2013-07-27T12:43:03Z</time>
      </trkpt>
      <trkpt lat="42.424132000" lon="-2.382557000">
        <ele>415.50</ele>
        <time>2013-07-27T12:43:04Z</time>
      </trkpt>
      <trkpt lat="42.424105000" lon="-2.382621000">
        <ele>415.20</ele>
        <time>2013-07-27T12:43:05Z</time>
      </trkpt>
      <trkpt lat="42.424079000" lon="-2.382684000">
        <ele>415.00</ele>
        <time>2013-07-27T12:43:06Z</time>
      </trkpt>
      <trkpt lat="42.424053000" lon="-2.382746000">
        <ele>414.80</ele>
        <time>2013-07-27T12:43:07Z</time>
      </trkpt>
      <trkpt lat="42.424025000" lon="-2.382805000">
        <ele>414.70</ele>
        <time>2013-07-27T12:43:08Z</time>
      </trkpt>
      <trkpt lat="42.423997000" lon="-2.382863000">
        <ele>414.60</ele>
        <time>2013-07-27T12:43:09Z</time>
      </trkpt>
      <trkpt lat="42.423972000" lon="-2.382923000">
        <ele>414.50</ele>
        <time>2013-07-27T12:43:10Z</time>
      </trkpt>
      <trkpt lat="42.423945000" lon="-2.382982000">
        <ele>414.40</ele>
        <time>2013-07-27T12:43:11Z</time>
      </trkpt>
      <trkpt lat="42.423920000" lon="-2.383042000">
        <ele>414.30</ele>
        <time>2013-07-27T12:43:12Z</time>
      </trkpt>
      <trkpt lat="42.423893000" lon="-2.383101000">
        <ele>414.30</ele>
        <time>2013-07-27T12:43:13Z</time>
      </trkpt>
      <trkpt lat="42.423866000" lon="-2.383161000">
        <ele>414.30</ele>
        <time>2013-07-27T12:43:14Z</time>
      </trkpt>
      <trkpt lat="42.423840000" lon="-2.383219000">
        <ele>414.30</ele>
        <time>2013-07-27T12:43:15Z</time>
      </trkpt>
      <trkpt lat="42.423814000" lon="-2.383276000">
        <ele>414.90</ele>
        <time>2013-07-27T12:43:16Z</time>
      </trkpt>
      <trkpt lat="42.423789000" lon="-2.383334000">
        <ele>415.30</ele>
        <time>2013-07-27T12:43:17Z</time>
      </trkpt>
      <trkpt lat="42.423766000" lon="-2.383395000">
        <ele>415.60</ele>
        <time>2013-07-27T12:43:18Z</time>
      </trkpt>
      <trkpt lat="42.423742000" lon="-2.383454000">
        <ele>415.90</ele>
        <time>2013-07-27T12:43:19Z</time>
      </trkpt>
      <trkpt lat="42.423718000" lon="-2.383511000">
        <ele>416.30</ele>
        <time>2013-07-27T12:43:20Z</time>
      </trkpt>
      <trkpt lat="42.423692000" lon="-2.383569000">
        <ele>416.60</ele>
        <time>2013-07-27T12:43:21Z</time>
      </trkpt>
      <trkpt lat="42.423666000" lon="-2.383625000">
        <ele>416.80</ele>
        <time>2013-07-27T12:43:22Z</time>
      </trkpt>
      <trkpt lat="42.423641000" lon="-2.383682000">
        <ele>417.00</ele>
        <time>2013-07-27T12:43:23Z</time>
      </trkpt>
      <trkpt lat="42.423617000" lon="-2.383739000">
        <ele>417.10</ele>
        <time>2013-07-27T12:43:24Z</time>
      </trkpt>
      <trkpt lat="42.423596000" lon="-2.383797000">
        <ele>417.20</ele>
        <time>2013-07-27T12:43:25Z</time>
      </trkpt>
      <trkpt lat="42.423573000" lon="-2.383856000">
        <ele>417.40</ele>
        <time>2013-07-27T12:43:26Z</time>
      </trkpt>
      <trkpt lat="42.423551000" lon="-2.383914000">
        <ele>417.50</ele>
        <time>2013-07-27T12:43:27Z</time>
      </trkpt>
      <trkpt lat="42.423531000" lon="-2.383972000">
        <ele>417.70</ele>
        <time>2013-07-27T12:43:28Z</time>
      </trkpt>
      <trkpt lat="42.423512000" lon="-2.384031000">
        <ele>417.90</ele>
        <time>2013-07-27T12:43:29Z</time>
      </trkpt>
      <trkpt lat="42.423498000" lon="-2.384092000">
        <ele>418.00</ele>
        <time>2013-07-27T12:43:30Z</time>
      </trkpt>
      <trkpt lat="42.423487000" lon="-2.384153000">
        <ele>418.20</ele>
        <time>2013-07-27T12:43:31Z</time>
      </trkpt>
      <trkpt lat="42.423474000" lon="-2.384217000">
        <ele>418.40</ele>
        <time>2013-07-27T12:43:32Z</time>
      </trkpt>
      <trkpt lat="42.423461000" lon="-2.384280000">
        <ele>418.60</ele>
        <time>2013-07-27T12:43:33Z</time>
      </trkpt>
      <trkpt lat="42.423449000" lon="-2.384342000">
        <ele>418.80</ele>
        <time>2013-07-27T12:43:34Z</time>
      </trkpt>
      <trkpt lat="42.423439000" lon="-2.384405000">
        <ele>419.00</ele>
        <time>2013-07-27T12:43:35Z</time>
      </trkpt>
      <trkpt lat="42.423431000" lon="-2.384469000">
        <ele>419.20</ele>
        <time>2013-07-27T12:43:36Z</time>
      </trkpt>
      <trkpt lat="42.423422000" lon="-2.384530000">
        <ele>419.40</ele>
        <time>2013-07-27T12:43:37Z</time>
      </trkpt>
      <trkpt lat="42.423413000" lon="-2.384589000">
        <ele>419.70</ele>
        <time>2013-07-27T12:43:38Z</time>
      </trkpt>
      <trkpt lat="42.423403000" lon="-2.384650000">
        <ele>420.00</ele>
        <time>2013-07-27T12:43:39Z</time>
      </trkpt>
      <trkpt lat="42.423395000" lon="-2.384709000">
        <ele>420.30</ele>
        <time>2013-07-27T12:43:40Z</time>
      </trkpt>
      <trkpt lat="42.423386000" lon="-2.384771000">
        <ele>420.50</ele>
        <time>2013-07-27T12:43:41Z</time>
      </trkpt>
      <trkpt lat="42.423379000" lon="-2.384834000">
        <ele>420.70</ele>
        <time>2013-07-27T12:43:42Z</time>
      </trkpt>
      <trkpt lat="42.423374000" lon="-2.384895000">
        <ele>420.80</ele>
        <time>2013-07-27T12:43:43Z</time>
      </trkpt>
      <trkpt lat="42.423366000" lon="-2.384960000">
        <ele>420.90</ele>
        <time>2013-07-27T12:43:44Z</time>
      </trkpt>
      <trkpt lat="42.423356000" lon="-2.385021000">
        <ele>421.00</ele>
        <time>2013-07-27T12:43:45Z</time>
      </trkpt>
      <trkpt lat="42.423348000" lon="-2.385084000">
        <ele>421.20</ele>
        <time>2013-07-27T12:43:46Z</time>
      </trkpt>
      <trkpt lat="42.423340000" lon="-2.385144000">
        <ele>421.30</ele>
        <time>2013-07-27T12:43:47Z</time>
      </trkpt>
      <trkpt lat="42.423331000" lon="-2.385205000">
        <ele>421.80</ele>
        <time>2013-07-27T12:43:48Z</time>
      </trkpt>
      <trkpt lat="42.423324000" lon="-2.385267000">
        <ele>422.20</ele>
        <time>2013-07-27T12:43:49Z</time>
      </trkpt>
      <trkpt lat="42.423313000" lon="-2.385325000">
        <ele>422.50</ele>
        <time>2013-07-27T12:43:50Z</time>
      </trkpt>
      <trkpt lat="42.423304000" lon="-2.385386000">
        <ele>422.70</ele>
        <time>2013-07-27T12:43:51Z</time>
      </trkpt>
      <trkpt lat="42.423294000" lon="-2.385446000">
        <ele>422.80</ele>
        <time>2013-07-27T12:43:52Z</time>
      </trkpt>
      <trkpt lat="42.423284000" lon="-2.385505000">
        <ele>422.90</ele>
        <time>2013-07-27T12:43:53Z</time>
      </trkpt>
      <trkpt lat="42.423276000" lon="-2.385566000">
        <ele>422.90</ele>
        <time>2013-07-27T12:43:54Z</time>
      </trkpt>
      <trkpt lat="42.423268000" lon="-2.385625000">
        <ele>423.00</ele>
        <time>2013-07-27T12:43:55Z</time>
      </trkpt>
      <trkpt lat="42.423260000" lon="-2.385683000">
        <ele>423.00</ele>
        <time>2013-07-27T12:43:56Z</time>
      </trkpt>
      <trkpt lat="42.423252000" lon="-2.385743000">
        <ele>423.10</ele>
        <time>2013-07-27T12:43:57Z</time>
      </trkpt>
      <trkpt lat="42.423242000" lon="-2.385804000">
        <ele>423.10</ele>
        <time>2013-07-27T12:43:58Z</time>
      </trkpt>
      <trkpt lat="42.423233000" lon="-2.385866000">
        <ele>423.20</ele>
        <time>2013-07-27T12:43:59Z</time>
      </trkpt>
      <trkpt lat="42.423228000" lon="-2.385927000">
        <ele>423.50</ele>
        <time>2013-07-27T12:44:00Z</time>
      </trkpt>
      <trkpt lat="42.423229000" lon="-2.385989000">
        <ele>423.60</ele>
        <time>2013-07-27T12:44:01Z</time>
      </trkpt>
      <trkpt lat="42.423231000" lon="-2.386046000">
        <ele>423.80</ele>
        <time>2013-07-27T12:44:02Z</time>
      </trkpt>
      <trkpt lat="42.423231000" lon="-2.386102000">
        <ele>424.00</ele>
        <time>2013-07-27T12:44:03Z</time>
      </trkpt>
      <trkpt lat="42.423229000" lon="-2.386155000">
        <ele>424.20</ele>
        <time>2013-07-27T12:44:04Z</time>
      </trkpt>
      <trkpt lat="42.423228000" lon="-2.386209000">
        <ele>424.30</ele>
        <time>2013-07-27T12:44:05Z</time>
      </trkpt>
      <trkpt lat="42.423227000" lon="-2.386262000">
        <ele>424.40</ele>
        <time>2013-07-27T12:44:06Z</time>
      </trkpt>
      <trkpt lat="42.423222000" lon="-2.386314000">
        <ele>424.50</ele>
        <time>2013-07-27T12:44:07Z</time>
      </trkpt>
      <trkpt lat="42.423221000" lon="-2.386365000">
        <ele>424.60</ele>
        <time>2013-07-27T12:44:08Z</time>
      </trkpt>
      <trkpt lat="42.423220000" lon="-2.386412000">
        <ele>424.60</ele>
        <time>2013-07-27T12:44:09Z</time>
      </trkpt>
      <trkpt lat="42.423217000" lon="-2.386461000">
        <ele>424.80</ele>
        <time>2013-07-27T12:44:10Z</time>
      </trkpt>
      <trkpt lat="42.423217000" lon="-2.386509000">
        <ele>425.00</ele>
        <time>2013-07-27T12:44:11Z</time>
      </trkpt>
      <trkpt lat="42.423218000" lon="-2.386557000">
        <ele>424.90</ele>
        <time>2013-07-27T12:44:12Z</time>
      </trkpt>
      <trkpt lat="42.423217000" lon="-2.386604000">
        <ele>424.90</ele>
        <time>2013-07-27T12:44:13Z</time>
      </trkpt>
      <trkpt lat="42.423215000" lon="-2.386652000">
        <ele>424.70</ele>
        <time>2013-07-27T12:44:14Z</time>
      </trkpt>
      <trkpt lat="42.423212000" lon="-2.386703000">
        <ele>424.50</ele>
        <time>2013-07-27T12:44:15Z</time>
      </trkpt>
      <trkpt lat="42.423208000" lon="-2.386753000">
        <ele>424.40</ele>
        <time>2013-07-27T12:44:16Z</time>
      </trkpt>
      <trkpt lat="42.423208000" lon="-2.386802000">
        <ele>424.30</ele>
        <time>2013-07-27T12:44:17Z</time>
      </trkpt>
      <trkpt lat="42.423208000" lon="-2.386852000">
        <ele>424.40</ele>
        <time>2013-07-27T12:44:18Z</time>
      </trkpt>
      <trkpt lat="42.423207000" lon="-2.386902000">
        <ele>424.40</ele>
        <time>2013-07-27T12:44:19Z</time>
      </trkpt>
      <trkpt lat="42.423206000" lon="-2.386951000">
        <ele>424.90</ele>
        <time>2013-07-27T12:44:20Z</time>
      </trkpt>
      <trkpt lat="42.423203000" lon="-2.387002000">
        <ele>425.20</ele>
        <time>2013-07-27T12:44:21Z</time>
      </trkpt>
      <trkpt lat="42.423201000" lon="-2.387053000">
        <ele>425.60</ele>
        <time>2013-07-27T12:44:22Z</time>
      </trkpt>
      <trkpt lat="42.423200000" lon="-2.387102000">
        <ele>425.80</ele>
        <time>2013-07-27T12:44:23Z</time>
      </trkpt>
      <trkpt lat="42.423198000" lon="-2.387150000">
        <ele>426.00</ele>
        <time>2013-07-27T12:44:24Z</time>
      </trkpt>
      <trkpt lat="42.423197000" lon="-2.387202000">
        <ele>426.10</ele>
        <time>2013-07-27T12:44:25Z</time>
      </trkpt>
      <trkpt lat="42.423197000" lon="-2.387255000">
        <ele>426.00</ele>
        <time>2013-07-27T12:44:26Z</time>
      </trkpt>
      <trkpt lat="42.423196000" lon="-2.387309000">
        <ele>426.00</ele>
        <time>2013-07-27T12:44:27Z</time>
      </trkpt>
      <trkpt lat="42.423194000" lon="-2.387360000">
        <ele>425.80</ele>
        <time>2013-07-27T12:44:28Z</time>
      </trkpt>
      <trkpt lat="42.423194000" lon="-2.387413000">
        <ele>425.70</ele>
        <time>2013-07-27T12:44:29Z</time>
      </trkpt>
      <trkpt lat="42.423191000" lon="-2.387465000">
        <ele>425.70</ele>
        <time>2013-07-27T12:44:30Z</time>
      </trkpt>
      <trkpt lat="42.423187000" lon="-2.387513000">
        <ele>425.80</ele>
        <time>2013-07-27T12:44:31Z</time>
      </trkpt>
      <trkpt lat="42.423183000" lon="-2.387566000">
        <ele>425.80</ele>
        <time>2013-07-27T12:44:32Z</time>
      </trkpt>
      <trkpt lat="42.423180000" lon="-2.387618000">
        <ele>425.90</ele>
        <time>2013-07-27T12:44:33Z</time>
      </trkpt>
      <trkpt lat="42.423177000" lon="-2.387669000">
        <ele>426.00</ele>
        <time>2013-07-27T12:44:34Z</time>
      </trkpt>
      <trkpt lat="42.423179000" lon="-2.387720000">
        <ele>426.10</ele>
        <time>2013-07-27T12:44:35Z</time>
      </trkpt>
      <trkpt lat="42.423177000" lon="-2.387773000">
        <ele>426.10</ele>
        <time>2013-07-27T12:44:36Z</time>
      </trkpt>
      <trkpt lat="42.423176000" lon="-2.387826000">
        <ele>426.10</ele>
        <time>2013-07-27T12:44:37Z</time>
      </trkpt>
      <trkpt lat="42.423175000" lon="-2.387880000">
        <ele>426.20</ele>
        <time>2013-07-27T12:44:38Z</time>
      </trkpt>
      <trkpt lat="42.423174000" lon="-2.387937000">
        <ele>426.30</ele>
        <time>2013-07-27T12:44:39Z</time>
      </trkpt>
      <trkpt lat="42.423171000" lon="-2.387993000">
        <ele>426.10</ele>
        <time>2013-07-27T12:44:40Z</time>
      </trkpt>
      <trkpt lat="42.423169000" lon="-2.388048000">
        <ele>426.10</ele>
        <time>2013-07-27T12:44:41Z</time>
      </trkpt>
      <trkpt lat="42.423168000" lon="-2.388105000">
        <ele>426.20</ele>
        <time>2013-07-27T12:44:42Z</time>
      </trkpt>
      <trkpt lat="42.423168000" lon="-2.388163000">
        <ele>426.20</ele>
        <time>2013-07-27T12:44:43Z</time>
      </trkpt>
      <trkpt lat="42.423167000" lon="-2.388220000">
        <ele>426.40</ele>
        <time>2013-07-27T12:44:44Z</time>
      </trkpt>
      <trkpt lat="42.423167000" lon="-2.388277000">
        <ele>426.60</ele>
        <time>2013-07-27T12:44:45Z</time>
      </trkpt>
      <trkpt lat="42.423165000" lon="-2.388333000">
        <ele>426.70</ele>
        <time>2013-07-27T12:44:46Z</time>
      </trkpt>
      <trkpt lat="42.423162000" lon="-2.388388000">
        <ele>426.70</ele>
        <time>2013-07-27T12:44:47Z</time>
      </trkpt>
      <trkpt lat="42.423158000" lon="-2.388442000">
        <ele>426.80</ele>
        <time>2013-07-27T12:44:48Z</time>
      </trkpt>
      <trkpt lat="42.423155000" lon="-2.388498000">
        <ele>426.90</ele>
        <time>2013-07-27T12:44:49Z</time>
      </trkpt>
      <trkpt lat="42.423151000" lon="-2.388557000">
        <ele>427.00</ele>
        <time>2013-07-27T12:44:50Z</time>
      </trkpt>
      <trkpt lat="42.423148000" lon="-2.388611000">
        <ele>427.10</ele>
        <time>2013-07-27T12:44:51Z</time>
      </trkpt>
      <trkpt lat="42.423147000" lon="-2.388667000">
        <ele>427.20</ele>
        <time>2013-07-27T12:44:52Z</time>
      </trkpt>
      <trkpt lat="42.423144000" lon="-2.388722000">
        <ele>427.30</ele>
        <time>2013-07-27T12:44:53Z</time>
      </trkpt>
      <trkpt lat="42.423142000" lon="-2.388779000">
        <ele>427.40</ele>
        <time>2013-07-27T12:44:54Z</time>
      </trkpt>
      <trkpt lat="42.423141000" lon="-2.388835000">
        <ele>427.40</ele>
        <time>2013-07-27T12:44:55Z</time>
      </trkpt>
      <trkpt lat="42.423139000" lon="-2.388889000">
        <ele>427.60</ele>
        <time>2013-07-27T12:44:56Z</time>
      </trkpt>
      <trkpt lat="42.423139000" lon="-2.388944000">
        <ele>427.70</ele>
        <time>2013-07-27T12:44:57Z</time>
      </trkpt>
      <trkpt lat="42.423140000" lon="-2.389001000">
        <ele>427.80</ele>
        <time>2013-07-27T12:44:58Z</time>
      </trkpt>
      <trkpt lat="42.423135000" lon="-2.389056000">
        <ele>428.00</ele>
        <time>2013-07-27T12:44:59Z</time>
      </trkpt>
      <trkpt lat="42.423132000" lon="-2.389113000">
        <ele>428.10</ele>
        <time>2013-07-27T12:45:00Z</time>
      </trkpt>
      <trkpt lat="42.423131000" lon="-2.389170000">
        <ele>428.20</ele>
        <time>2013-07-27T12:45:01Z</time>
      </trkpt>
      <trkpt lat="42.423131000" lon="-2.389229000">
        <ele>428.30</ele>
        <time>2013-07-27T12:45:02Z</time>
      </trkpt>
      <trkpt lat="42.423131000" lon="-2.389287000">
        <ele>428.40</ele>
        <time>2013-07-27T12:45:03Z</time>
      </trkpt>
      <trkpt lat="42.423133000" lon="-2.389345000">
        <ele>428.40</ele>
        <time>2013-07-27T12:45:04Z</time>
      </trkpt>
      <trkpt lat="42.423135000" lon="-2.389402000">
        <ele>428.50</ele>
        <time>2013-07-27T12:45:05Z</time>
      </trkpt>
      <trkpt lat="42.423134000" lon="-2.389461000">
        <ele>428.50</ele>
        <time>2013-07-27T12:45:06Z</time>
      </trkpt>
      <trkpt lat="42.423133000" lon="-2.389522000">
        <ele>428.50</ele>
        <time>2013-07-27T12:45:07Z</time>
      </trkpt>
      <trkpt lat="42.423132000" lon="-2.389585000">
        <ele>428.60</ele>
        <time>2013-07-27T12:45:08Z</time>
      </trkpt>
      <trkpt lat="42.423132000" lon="-2.389647000">
        <ele>428.70</ele>
        <time>2013-07-27T12:45:09Z</time>
      </trkpt>
      <trkpt lat="42.423131000" lon="-2.389710000">
        <ele>428.60</ele>
        <time>2013-07-27T12:45:10Z</time>
      </trkpt>
      <trkpt lat="42.423127000" lon="-2.389773000">
        <ele>428.60</ele>
        <time>2013-07-27T12:45:11Z</time>
      </trkpt>
      <trkpt lat="42.423125000" lon="-2.389836000">
        <ele>428.80</ele>
        <time>2013-07-27T12:45:12Z</time>
      </trkpt>
      <trkpt lat="42.423122000" lon="-2.389898000">
        <ele>428.80</ele>
        <time>2013-07-27T12:45:13Z</time>
      </trkpt>
      <trkpt lat="42.423114000" lon="-2.389959000">
        <ele>429.00</ele>
        <time>2013-07-27T12:45:14Z</time>
      </trkpt>
      <trkpt lat="42.423107000" lon="-2.390021000">
        <ele>429.10</ele>
        <time>2013-07-27T12:45:15Z</time>
      </trkpt>
      <trkpt lat="42.423100000" lon="-2.390081000">
        <ele>429.20</ele>
        <time>2013-07-27T12:45:16Z</time>
      </trkpt>
      <trkpt lat="42.423094000" lon="-2.390143000">
        <ele>429.20</ele>
        <time>2013-07-27T12:45:17Z</time>
      </trkpt>
      <trkpt lat="42.423089000" lon="-2.390208000">
        <ele>429.20</ele>
        <time>2013-07-27T12:45:18Z</time>
      </trkpt>
      <trkpt lat="42.423083000" lon="-2.390276000">
        <ele>429.20</ele>
        <time>2013-07-27T12:45:19Z</time>
      </trkpt>
      <trkpt lat="42.423074000" lon="-2.390345000">
        <ele>429.20</ele>
        <time>2013-07-27T12:45:20Z</time>
      </trkpt>
      <trkpt lat="42.423063000" lon="-2.390410000">
        <ele>429.20</ele>
        <time>2013-07-27T12:45:21Z</time>
      </trkpt>
      <trkpt lat="42.423048000" lon="-2.390477000">
        <ele>429.20</ele>
        <time>2013-07-27T12:45:22Z</time>
      </trkpt>
      <trkpt lat="42.423033000" lon="-2.390543000">
        <ele>429.20</ele>
        <time>2013-07-27T12:45:23Z</time>
      </trkpt>
      <trkpt lat="42.423018000" lon="-2.390609000">
        <ele>429.60</ele>
        <time>2013-07-27T12:45:24Z</time>
      </trkpt>
      <trkpt lat="42.423006000" lon="-2.390677000">
        <ele>430.00</ele>
        <time>2013-07-27T12:45:25Z</time>
      </trkpt>
      <trkpt lat="42.422993000" lon="-2.390741000">
        <ele>430.20</ele>
        <time>2013-07-27T12:45:26Z</time>
      </trkpt>
      <trkpt lat="42.422978000" lon="-2.390804000">
        <ele>430.40</ele>
        <time>2013-07-27T12:45:27Z</time>
      </trkpt>
      <trkpt lat="42.422961000" lon="-2.390868000">
        <ele>430.40</ele>
        <time>2013-07-27T12:45:28Z</time>
      </trkpt>
      <trkpt lat="42.422951000" lon="-2.390933000">
        <ele>430.40</ele>
        <time>2013-07-27T12:45:29Z</time>
      </trkpt>
      <trkpt lat="42.422943000" lon="-2.391000000">
        <ele>430.40</ele>
        <time>2013-07-27T12:45:30Z</time>
      </trkpt>
      <trkpt lat="42.422931000" lon="-2.391067000">
        <ele>430.40</ele>
        <time>2013-07-27T12:45:31Z</time>
      </trkpt>
      <trkpt lat="42.422919000" lon="-2.391131000">
        <ele>430.40</ele>
        <time>2013-07-27T12:45:32Z</time>
      </trkpt>
      <trkpt lat="42.422912000" lon="-2.391195000">
        <ele>430.40</ele>
        <time>2013-07-27T12:45:33Z</time>
      </trkpt>
      <trkpt lat="42.422907000" lon="-2.391258000">
        <ele>430.50</ele>
        <time>2013-07-27T12:45:34Z</time>
      </trkpt>
      <trkpt lat="42.422902000" lon="-2.391322000">
        <ele>430.50</ele>
        <time>2013-07-27T12:45:35Z</time>
      </trkpt>
      <trkpt lat="42.422891000" lon="-2.391386000">
        <ele>430.70</ele>
        <time>2013-07-27T12:45:36Z</time>
      </trkpt>
      <trkpt lat="42.422877000" lon="-2.391451000">
        <ele>430.80</ele>
        <time>2013-07-27T12:45:37Z</time>
      </trkpt>
      <trkpt lat="42.422865000" lon="-2.391515000">
        <ele>430.80</ele>
        <time>2013-07-27T12:45:38Z</time>
      </trkpt>
      <trkpt lat="42.422858000" lon="-2.391580000">
        <ele>430.80</ele>
        <time>2013-07-27T12:45:39Z</time>
      </trkpt>
      <trkpt lat="42.422851000" lon="-2.391646000">
        <ele>430.80</ele>
        <time>2013-07-27T12:45:40Z</time>
      </trkpt>
      <trkpt lat="42.422844000" lon="-2.391711000">
        <ele>430.80</ele>
        <time>2013-07-27T12:45:41Z</time>
      </trkpt>
      <trkpt lat="42.422837000" lon="-2.391776000">
        <ele>430.80</ele>
        <time>2013-07-27T12:45:42Z</time>
      </trkpt>
      <trkpt lat="42.422830000" lon="-2.391844000">
        <ele>430.80</ele>
        <time>2013-07-27T12:45:43Z</time>
      </trkpt>
      <trkpt lat="42.422822000" lon="-2.391907000">
        <ele>430.80</ele>
        <time>2013-07-27T12:45:44Z</time>
      </trkpt>
      <trkpt lat="42.422813000" lon="-2.391972000">
        <ele>430.80</ele>
        <time>2013-07-27T12:45:45Z</time>
      </trkpt>
      <trkpt lat="42.422803000" lon="-2.392038000">
        <ele>430.90</ele>
        <time>2013-07-27T12:45:46Z</time>
      </trkpt>
      <trkpt lat="42.422798000" lon="-2.392107000">
        <ele>430.90</ele>
        <time>2013-07-27T12:45:47Z</time>
      </trkpt>
      <trkpt lat="42.422788000" lon="-2.392173000">
        <ele>430.90</ele>
        <time>2013-07-27T12:45:48Z</time>
      </trkpt>
      <trkpt lat="42.422773000" lon="-2.392240000">
        <ele>430.90</ele>
        <time>2013-07-27T12:45:49Z</time>
      </trkpt>
      <trkpt lat="42.422758000" lon="-2.392302000">
        <ele>431.00</ele>
        <time>2013-07-27T12:45:50Z</time>
      </trkpt>
      <trkpt lat="42.422742000" lon="-2.392365000">
        <ele>431.00</ele>
        <time>2013-07-27T12:45:51Z</time>
      </trkpt>
      <trkpt lat="42.422727000" lon="-2.392428000">
        <ele>431.10</ele>
        <time>2013-07-27T12:45:52Z</time>
      </trkpt>
      <trkpt lat="42.422713000" lon="-2.392491000">
        <ele>431.20</ele>
        <time>2013-07-27T12:45:53Z</time>
      </trkpt>
      <trkpt lat="42.422697000" lon="-2.392553000">
        <ele>431.50</ele>
        <time>2013-07-27T12:45:54Z</time>
      </trkpt>
      <trkpt lat="42.422681000" lon="-2.392615000">
        <ele>431.80</ele>
        <time>2013-07-27T12:45:55Z</time>
      </trkpt>
      <trkpt lat="42.422668000" lon="-2.392678000">
        <ele>432.00</ele>
        <time>2013-07-27T12:45:56Z</time>
      </trkpt>
      <trkpt lat="42.422653000" lon="-2.392740000">
        <ele>432.20</ele>
        <time>2013-07-27T12:45:57Z</time>
      </trkpt>
      <trkpt lat="42.422637000" lon="-2.392803000">
        <ele>432.30</ele>
        <time>2013-07-27T12:45:58Z</time>
      </trkpt>
      <trkpt lat="42.422626000" lon="-2.392867000">
        <ele>432.30</ele>
        <time>2013-07-27T12:45:59Z</time>
      </trkpt>
      <trkpt lat="42.422615000" lon="-2.392928000">
        <ele>432.30</ele>
        <time>2013-07-27T12:46:00Z</time>
      </trkpt>
      <trkpt lat="42.422604000" lon="-2.392990000">
        <ele>432.40</ele>
        <time>2013-07-27T12:46:01Z</time>
      </trkpt>
      <trkpt lat="42.422595000" lon="-2.393052000">
        <ele>432.40</ele>
        <time>2013-07-27T12:46:02Z</time>
      </trkpt>
      <trkpt lat="42.422584000" lon="-2.393112000">
        <ele>432.40</ele>
        <time>2013-07-27T12:46:03Z</time>
      </trkpt>
      <trkpt lat="42.422573000" lon="-2.393173000">
        <ele>432.30</ele>
        <time>2013-07-27T12:46:04Z</time>
      </trkpt>
      <trkpt lat="42.422562000" lon="-2.393234000">
        <ele>432.20</ele>
        <time>2013-07-27T12:46:05Z</time>
      </trkpt>
      <trkpt lat="42.422552000" lon="-2.393295000">
        <ele>432.30</ele>
        <time>2013-07-27T12:46:06Z</time>
      </trkpt>
      <trkpt lat="42.422544000" lon="-2.393356000">
        <ele>432.40</ele>
        <time>2013-07-27T12:46:07Z</time>
      </trkpt>
      <trkpt lat="42.422535000" lon="-2.393421000">
        <ele>432.50</ele>
        <time>2013-07-27T12:46:08Z</time>
      </trkpt>
      <trkpt lat="42.422527000" lon="-2.393484000">
        <ele>432.50</ele>
        <time>2013-07-27T12:46:09Z</time>
      </trkpt>
      <trkpt lat="42.422518000" lon="-2.393546000">
        <ele>432.60</ele>
        <time>2013-07-27T12:46:10Z</time>
      </trkpt>
      <trkpt lat="42.422510000" lon="-2.393608000">
        <ele>432.70</ele>
        <time>2013-07-27T12:46:11Z</time>
      </trkpt>
      <trkpt lat="42.422502000" lon="-2.393670000">
        <ele>432.80</ele>
        <time>2013-07-27T12:46:12Z</time>
      </trkpt>
      <trkpt lat="42.422494000" lon="-2.393730000">
        <ele>432.90</ele>
        <time>2013-07-27T12:46:13Z</time>
      </trkpt>
      <trkpt lat="42.422485000" lon="-2.393792000">
        <ele>432.90</ele>
        <time>2013-07-27T12:46:14Z</time>
      </trkpt>
      <trkpt lat="42.422475000" lon="-2.393851000">
        <ele>432.90</ele>
        <time>2013-07-27T12:46:15Z</time>
      </trkpt>
      <trkpt lat="42.422466000" lon="-2.393912000">
        <ele>433.20</ele>
        <time>2013-07-27T12:46:16Z</time>
      </trkpt>
      <trkpt lat="42.422459000" lon="-2.393973000">
        <ele>433.40</ele>
        <time>2013-07-27T12:46:17Z</time>
      </trkpt>
      <trkpt lat="42.422452000" lon="-2.394030000">
        <ele>433.40</ele>
        <time>2013-07-27T12:46:18Z</time>
      </trkpt>
      <trkpt lat="42.422445000" lon="-2.394093000">
        <ele>433.50</ele>
        <time>2013-07-27T12:46:19Z</time>
      </trkpt>
      <trkpt lat="42.422436000" lon="-2.394155000">
        <ele>433.50</ele>
        <time>2013-07-27T12:46:20Z</time>
      </trkpt>
      <trkpt lat="42.422424000" lon="-2.394218000">
        <ele>433.50</ele>
        <time>2013-07-27T12:46:21Z</time>
      </trkpt>
      <trkpt lat="42.422415000" lon="-2.394280000">
        <ele>433.50</ele>
        <time>2013-07-27T12:46:22Z</time>
      </trkpt>
      <trkpt lat="42.422409000" lon="-2.394343000">
        <ele>433.50</ele>
        <time>2013-07-27T12:46:23Z</time>
      </trkpt>
      <trkpt lat="42.422401000" lon="-2.394405000">
        <ele>433.60</ele>
        <time>2013-07-27T12:46:24Z</time>
      </trkpt>
      <trkpt lat="42.422394000" lon="-2.394466000">
        <ele>433.60</ele>
        <time>2013-07-27T12:46:25Z</time>
      </trkpt>
      <trkpt lat="42.422387000" lon="-2.394529000">
        <ele>433.70</ele>
        <time>2013-07-27T12:46:26Z</time>
      </trkpt>
      <trkpt lat="42.422381000" lon="-2.394592000">
        <ele>433.70</ele>
        <time>2013-07-27T12:46:27Z</time>
      </trkpt>
      <trkpt lat="42.422376000" lon="-2.394657000">
        <ele>433.70</ele>
        <time>2013-07-27T12:46:28Z</time>
      </trkpt>
      <trkpt lat="42.422368000" lon="-2.394725000">
        <ele>433.60</ele>
        <time>2013-07-27T12:46:29Z</time>
      </trkpt>
      <trkpt lat="42.422358000" lon="-2.394793000">
        <ele>433.60</ele>
        <time>2013-07-27T12:46:30Z</time>
      </trkpt>
      <trkpt lat="42.422348000" lon="-2.394865000">
        <ele>433.60</ele>
        <time>2013-07-27T12:46:31Z</time>
      </trkpt>
      <trkpt lat="42.422336000" lon="-2.394938000">
        <ele>433.60</ele>
        <time>2013-07-27T12:46:32Z</time>
      </trkpt>
      <trkpt lat="42.422327000" lon="-2.395014000">
        <ele>433.60</ele>
        <time>2013-07-27T12:46:33Z</time>
      </trkpt>
      <trkpt lat="42.422319000" lon="-2.395089000">
        <ele>433.70</ele>
        <time>2013-07-27T12:46:34Z</time>
      </trkpt>
      <trkpt lat="42.422314000" lon="-2.395164000">
        <ele>433.80</ele>
        <time>2013-07-27T12:46:35Z</time>
      </trkpt>
      <trkpt lat="42.422308000" lon="-2.395237000">
        <ele>433.80</ele>
        <time>2013-07-27T12:46:36Z</time>
      </trkpt>
      <trkpt lat="42.422305000" lon="-2.395310000">
        <ele>433.70</ele>
        <time>2013-07-27T12:46:37Z</time>
      </trkpt>
      <trkpt lat="42.422302000" lon="-2.395380000">
        <ele>433.60</ele>
        <time>2013-07-27T12:46:38Z</time>
      </trkpt>
      <trkpt lat="42.422298000" lon="-2.395450000">
        <ele>433.40</ele>
        <time>2013-07-27T12:46:39Z</time>
      </trkpt>
      <trkpt lat="42.422294000" lon="-2.395519000">
        <ele>433.10</ele>
        <time>2013-07-27T12:46:40Z</time>
      </trkpt>
      <trkpt lat="42.422294000" lon="-2.395588000">
        <ele>432.90</ele>
        <time>2013-07-27T12:46:41Z</time>
      </trkpt>
      <trkpt lat="42.422291000" lon="-2.395656000">
        <ele>432.70</ele>
        <time>2013-07-27T12:46:42Z</time>
      </trkpt>
      <trkpt lat="42.422287000" lon="-2.395722000">
        <ele>432.60</ele>
        <time>2013-07-27T12:46:43Z</time>
      </trkpt>
      <trkpt lat="42.422283000" lon="-2.395788000">
        <ele>432.60</ele>
        <time>2013-07-27T12:46:44Z</time>
      </trkpt>
      <trkpt lat="42.422283000" lon="-2.395852000">
        <ele>432.60</ele>
        <time>2013-07-27T12:46:45Z</time>
      </trkpt>
      <trkpt lat="42.422281000" lon="-2.395920000">
        <ele>432.60</ele>
        <time>2013-07-27T12:46:46Z</time>
      </trkpt>
      <trkpt lat="42.422278000" lon="-2.395988000">
        <ele>432.70</ele>
        <time>2013-07-27T12:46:47Z</time>
      </trkpt>
      <trkpt lat="42.422275000" lon="-2.396057000">
        <ele>432.80</ele>
        <time>2013-07-27T12:46:48Z</time>
      </trkpt>
      <trkpt lat="42.422273000" lon="-2.396125000">
        <ele>433.00</ele>
        <time>2013-07-27T12:46:49Z</time>
      </trkpt>
      <trkpt lat="42.422270000" lon="-2.396196000">
        <ele>433.10</ele>
        <time>2013-07-27T12:46:50Z</time>
      </trkpt>
      <trkpt lat="42.422268000" lon="-2.396263000">
        <ele>433.20</ele>
        <time>2013-07-27T12:46:51Z</time>
      </trkpt>
      <trkpt lat="42.422265000" lon="-2.396331000">
        <ele>433.30</ele>
        <time>2013-07-27T12:46:52Z</time>
      </trkpt>
      <trkpt lat="42.422263000" lon="-2.396401000">
        <ele>433.40</ele>
        <time>2013-07-27T12:46:53Z</time>
      </trkpt>
      <trkpt lat="42.422265000" lon="-2.396473000">
        <ele>433.60</ele>
        <time>2013-07-27T12:46:54Z</time>
      </trkpt>
      <trkpt lat="42.422265000" lon="-2.396546000">
        <ele>433.70</ele>
        <time>2013-07-27T12:46:55Z</time>
      </trkpt>
      <trkpt lat="42.422263000" lon="-2.396621000">
        <ele>433.80</ele>
        <time>2013-07-27T12:46:56Z</time>
      </trkpt>
      <trkpt lat="42.422262000" lon="-2.396698000">
        <ele>433.90</ele>
        <time>2013-07-27T12:46:57Z</time>
      </trkpt>
      <trkpt lat="42.422260000" lon="-2.396777000">
        <ele>433.90</ele>
        <time>2013-07-27T12:46:58Z</time>
      </trkpt>
      <trkpt lat="42.422257000" lon="-2.396858000">
        <ele>433.90</ele>
        <time>2013-07-27T12:46:59Z</time>
      </trkpt>
      <trkpt lat="42.422253000" lon="-2.396940000">
        <ele>433.70</ele>
        <time>2013-07-27T12:47:00Z</time>
      </trkpt>
      <trkpt lat="42.422252000" lon="-2.397020000">
        <ele>433.50</ele>
        <time>2013-07-27T12:47:01Z</time>
      </trkpt>
      <trkpt lat="42.422248000" lon="-2.397098000">
        <ele>433.40</ele>
        <time>2013-07-27T12:47:02Z</time>
      </trkpt>
      <trkpt lat="42.422245000" lon="-2.397177000">
        <ele>433.30</ele>
        <time>2013-07-27T12:47:03Z</time>
      </trkpt>
      <trkpt lat="42.422241000" lon="-2.397257000">
        <ele>433.30</ele>
        <time>2013-07-27T12:47:04Z</time>
      </trkpt>
      <trkpt lat="42.422241000" lon="-2.397336000">
        <ele>433.30</ele>
        <time>2013-07-27T12:47:05Z</time>
      </trkpt>
      <trkpt lat="42.422241000" lon="-2.397413000">
        <ele>433.40</ele>
        <time>2013-07-27T12:47:06Z</time>
      </trkpt>
      <trkpt lat="42.422240000" lon="-2.397490000">
        <ele>433.50</ele>
        <time>2013-07-27T12:47:07Z</time>
      </trkpt>
      <trkpt lat="42.422237000" lon="-2.397564000">
        <ele>433.50</ele>
        <time>2013-07-27T12:47:08Z</time>
      </trkpt>
      <trkpt lat="42.422233000" lon="-2.397640000">
        <ele>433.50</ele>
        <time>2013-07-27T12:47:09Z</time>
      </trkpt>
      <trkpt lat="42.422230000" lon="-2.397715000">
        <ele>433.10</ele>
        <time>2013-07-27T12:47:10Z</time>
      </trkpt>
      <trkpt lat="42.422226000" lon="-2.397787000">
        <ele>432.80</ele>
        <time>2013-07-27T12:47:11Z</time>
      </trkpt>
      <trkpt lat="42.422222000" lon="-2.397859000">
        <ele>432.50</ele>
        <time>2013-07-27T12:47:12Z</time>
      </trkpt>
      <trkpt lat="42.422217000" lon="-2.397932000">
        <ele>432.30</ele>
        <time>2013-07-27T12:47:13Z</time>
      </trkpt>
      <trkpt lat="42.422210000" lon="-2.398002000">
        <ele>432.20</ele>
        <time>2013-07-27T12:47:14Z</time>
      </trkpt>
      <trkpt lat="42.422197000" lon="-2.398069000">
        <ele>432.10</ele>
        <time>2013-07-27T12:47:15Z</time>
      </trkpt>
      <trkpt lat="42.422182000" lon="-2.398136000">
        <ele>432.10</ele>
        <time>2013-07-27T12:47:16Z</time>
      </trkpt>
      <trkpt lat="42.422165000" lon="-2.398199000">
        <ele>432.10</ele>
        <time>2013-07-27T12:47:17Z</time>
      </trkpt>
      <trkpt lat="42.422144000" lon="-2.398260000">
        <ele>432.40</ele>
        <time>2013-07-27T12:47:18Z</time>
      </trkpt>
      <trkpt lat="42.422117000" lon="-2.398312000">
        <ele>432.60</ele>
        <time>2013-07-27T12:47:19Z</time>
      </trkpt>
      <trkpt lat="42.422089000" lon="-2.398365000">
        <ele>432.70</ele>
        <time>2013-07-27T12:47:20Z</time>
      </trkpt>
      <trkpt lat="42.422059000" lon="-2.398417000">
        <ele>432.80</ele>
        <time>2013-07-27T12:47:21Z</time>
      </trkpt>
      <trkpt lat="42.422030000" lon="-2.398467000">
        <ele>432.90</ele>
        <time>2013-07-27T12:47:22Z</time>
      </trkpt>
      <trkpt lat="42.421997000" lon="-2.398519000">
        <ele>433.00</ele>
        <time>2013-07-27T12:47:23Z</time>
      </trkpt>
      <trkpt lat="42.421968000" lon="-2.398572000">
        <ele>433.40</ele>
        <time>2013-07-27T12:47:24Z</time>
      </trkpt>
      <trkpt lat="42.421942000" lon="-2.398627000">
        <ele>433.80</ele>
        <time>2013-07-27T12:47:25Z</time>
      </trkpt>
      <trkpt lat="42.421921000" lon="-2.398685000">
        <ele>434.10</ele>
        <time>2013-07-27T12:47:26Z</time>
      </trkpt>
      <trkpt lat="42.421901000" lon="-2.398744000">
        <ele>434.30</ele>
        <time>2013-07-27T12:47:27Z</time>
      </trkpt>
      <trkpt lat="42.421882000" lon="-2.398801000">
        <ele>434.70</ele>
        <time>2013-07-27T12:47:28Z</time>
      </trkpt>
      <trkpt lat="42.421862000" lon="-2.398857000">
        <ele>435.00</ele>
        <time>2013-07-27T12:47:29Z</time>
      </trkpt>
      <trkpt lat="42.421843000" lon="-2.398913000">
        <ele>435.30</ele>
        <time>2013-07-27T12:47:30Z</time>
      </trkpt>
      <trkpt lat="42.421822000" lon="-2.398969000">
        <ele>435.50</ele>
        <time>2013-07-27T12:47:31Z</time>
      </trkpt>
      <trkpt lat="42.421800000" lon="-2.399028000">
        <ele>435.90</ele>
        <time>2013-07-27T12:47:32Z</time>
      </trkpt>
      <trkpt lat="42.421781000" lon="-2.399086000">
        <ele>436.30</ele>
        <time>2013-07-27T12:47:33Z</time>
      </trkpt>
      <trkpt lat="42.421762000" lon="-2.399145000">
        <ele>436.60</ele>
        <time>2013-07-27T12:47:34Z</time>
      </trkpt>
      <trkpt lat="42.421741000" lon="-2.399201000">
        <ele>436.80</ele>
        <time>2013-07-27T12:47:35Z</time>
      </trkpt>
      <trkpt lat="42.421721000" lon="-2.399258000">
        <ele>437.00</ele>
        <time>2013-07-27T12:47:36Z</time>
      </trkpt>
      <trkpt lat="42.421700000" lon="-2.399313000">
        <ele>437.10</ele>
        <time>2013-07-27T12:47:37Z</time>
      </trkpt>
      <trkpt lat="42.421680000" lon="-2.399370000">
        <ele>437.20</ele>
        <time>2013-07-27T12:47:38Z</time>
      </trkpt>
      <trkpt lat="42.421659000" lon="-2.399426000">
        <ele>437.40</ele>
        <time>2013-07-27T12:47:39Z</time>
      </trkpt>
      <trkpt lat="42.421641000" lon="-2.399479000">
        <ele>437.60</ele>
        <time>2013-07-27T12:47:40Z</time>
      </trkpt>
      <trkpt lat="42.421622000" lon="-2.399527000">
        <ele>437.70</ele>
        <time>2013-07-27T12:47:41Z</time>
      </trkpt>
      <trkpt lat="42.421607000" lon="-2.399576000">
        <ele>438.00</ele>
        <time>2013-07-27T12:47:42Z</time>
      </trkpt>
      <trkpt lat="42.421592000" lon="-2.399621000">
        <ele>438.20</ele>
        <time>2013-07-27T12:47:43Z</time>
      </trkpt>
      <trkpt lat="42.421578000" lon="-2.399661000">
        <ele>438.60</ele>
        <time>2013-07-27T12:47:44Z</time>
      </trkpt>
      <trkpt lat="42.421562000" lon="-2.399700000">
        <ele>438.80</ele>
        <time>2013-07-27T12:47:45Z</time>
      </trkpt>
      <trkpt lat="42.421546000" lon="-2.399737000">
        <ele>439.10</ele>
        <time>2013-07-27T12:47:46Z</time>
      </trkpt>
      <trkpt lat="42.421531000" lon="-2.399774000">
        <ele>439.30</ele>
        <time>2013-07-27T12:47:47Z</time>
      </trkpt>
      <trkpt lat="42.421518000" lon="-2.399814000">
        <ele>439.60</ele>
        <time>2013-07-27T12:47:48Z</time>
      </trkpt>
      <trkpt lat="42.421506000" lon="-2.399855000">
        <ele>439.80</ele>
        <time>2013-07-27T12:47:49Z</time>
      </trkpt>
      <trkpt lat="42.421490000" lon="-2.399895000">
        <ele>439.90</ele>
        <time>2013-07-27T12:47:50Z</time>
      </trkpt>
      <trkpt lat="42.421476000" lon="-2.399933000">
        <ele>440.00</ele>
        <time>2013-07-27T12:47:51Z</time>
      </trkpt>
      <trkpt lat="42.421460000" lon="-2.399968000">
        <ele>440.30</ele>
        <time>2013-07-27T12:47:52Z</time>
      </trkpt>
      <trkpt lat="42.421447000" lon="-2.399999000">
        <ele>440.60</ele>
        <time>2013-07-27T12:47:53Z</time>
      </trkpt>
      <trkpt lat="42.421432000" lon="-2.400027000">
        <ele>440.90</ele>
        <time>2013-07-27T12:47:54Z</time>
      </trkpt>
      <trkpt lat="42.421422000" lon="-2.400058000">
        <ele>441.10</ele>
        <time>2013-07-27T12:47:55Z</time>
      </trkpt>
      <trkpt lat="42.421417000" lon="-2.400091000">
        <ele>441.50</ele>
        <time>2013-07-27T12:47:56Z</time>
      </trkpt>
      <trkpt lat="42.421416000" lon="-2.400123000">
        <ele>441.80</ele>
        <time>2013-07-27T12:47:57Z</time>
      </trkpt>
      <trkpt lat="42.421419000" lon="-2.400157000">
        <ele>442.00</ele>
        <time>2013-07-27T12:47:58Z</time>
      </trkpt>
      <trkpt lat="42.421428000" lon="-2.400188000">
        <ele>442.10</ele>
        <time>2013-07-27T12:47:59Z</time>
      </trkpt>
      <trkpt lat="42.421438000" lon="-2.400220000">
        <ele>442.50</ele>
        <time>2013-07-27T12:48:00Z</time>
      </trkpt>
      <trkpt lat="42.421445000" lon="-2.400254000">
        <ele>442.80</ele>
        <time>2013-07-27T12:48:01Z</time>
      </trkpt>
      <trkpt lat="42.421453000" lon="-2.400288000">
        <ele>443.00</ele>
        <time>2013-07-27T12:48:02Z</time>
      </trkpt>
      <trkpt lat="42.421463000" lon="-2.400326000">
        <ele>443.20</ele>
        <time>2013-07-27T12:48:03Z</time>
      </trkpt>
      <trkpt lat="42.421472000" lon="-2.400364000">
        <ele>443.50</ele>
        <time>2013-07-27T12:48:04Z</time>
      </trkpt>
      <trkpt lat="42.421481000" lon="-2.400401000">
        <ele>443.60</ele>
        <time>2013-07-27T12:48:05Z</time>
      </trkpt>
      <trkpt lat="42.421490000" lon="-2.400441000">
        <ele>443.80</ele>
        <time>2013-07-27T12:48:06Z</time>
      </trkpt>
      <trkpt lat="42.421498000" lon="-2.400481000">
        <ele>443.90</ele>
        <time>2013-07-27T12:48:07Z</time>
      </trkpt>
      <trkpt lat="42.421506000" lon="-2.400522000">
        <ele>444.10</ele>
        <time>2013-07-27T12:48:08Z</time>
      </trkpt>
      <trkpt lat="42.421515000" lon="-2.400561000">
        <ele>444.30</ele>
        <time>2013-07-27T12:48:09Z</time>
      </trkpt>
      <trkpt lat="42.421522000" lon="-2.400599000">
        <ele>444.50</ele>
        <time>2013-07-27T12:48:10Z</time>
      </trkpt>
      <trkpt lat="42.421530000" lon="-2.400638000">
        <ele>444.60</ele>
        <time>2013-07-27T12:48:11Z</time>
      </trkpt>
      <trkpt lat="42.421541000" lon="-2.400679000">
        <ele>444.70</ele>
        <time>2013-07-27T12:48:12Z</time>
      </trkpt>
      <trkpt lat="42.421549000" lon="-2.400719000">
        <ele>444.80</ele>
        <time>2013-07-27T12:48:13Z</time>
      </trkpt>
      <trkpt lat="42.421558000" lon="-2.400759000">
        <ele>444.80</ele>
        <time>2013-07-27T12:48:14Z</time>
      </trkpt>
      <trkpt lat="42.421566000" lon="-2.400797000">
        <ele>444.90</ele>
        <time>2013-07-27T12:48:15Z</time>
      </trkpt>
      <trkpt lat="42.421575000" lon="-2.400835000">
        <ele>445.10</ele>
        <time>2013-07-27T12:48:16Z</time>
      </trkpt>
      <trkpt lat="42.421581000" lon="-2.400873000">
        <ele>445.40</ele>
        <time>2013-07-27T12:48:17Z</time>
      </trkpt>
      <trkpt lat="42.421587000" lon="-2.400908000">
        <ele>445.50</ele>
        <time>2013-07-27T12:48:18Z</time>
      </trkpt>
      <trkpt lat="42.421593000" lon="-2.400944000">
        <ele>445.70</ele>
        <time>2013-07-27T12:48:19Z</time>
      </trkpt>
      <trkpt lat="42.421597000" lon="-2.400979000">
        <ele>445.90</ele>
        <time>2013-07-27T12:48:20Z</time>
      </trkpt>
      <trkpt lat="42.421604000" lon="-2.401011000">
        <ele>446.10</ele>
        <time>2013-07-27T12:48:21Z</time>
      </trkpt>
      <trkpt lat="42.421611000" lon="-2.401044000">
        <ele>446.50</ele>
        <time>2013-07-27T12:48:22Z</time>
      </trkpt>
      <trkpt lat="42.421617000" lon="-2.401079000">
        <ele>446.70</ele>
        <time>2013-07-27T12:48:23Z</time>
      </trkpt>
      <trkpt lat="42.421622000" lon="-2.401113000">
        <ele>447.00</ele>
        <time>2013-07-27T12:48:24Z</time>
      </trkpt>
      <trkpt lat="42.421625000" lon="-2.401148000">
        <ele>447.10</ele>
        <time>2013-07-27T12:48:25Z</time>
      </trkpt>
      <trkpt lat="42.421630000" lon="-2.401184000">
        <ele>447.30</ele>
        <time>2013-07-27T12:48:26Z</time>
      </trkpt>
      <trkpt lat="42.421637000" lon="-2.401219000">
        <ele>447.40</ele>
        <time>2013-07-27T12:48:27Z</time>
      </trkpt>
      <trkpt lat="42.421642000" lon="-2.401253000">
        <ele>447.50</ele>
        <time>2013-07-27T12:48:28Z</time>
      </trkpt>
      <trkpt lat="42.421648000" lon="-2.401292000">
        <ele>447.60</ele>
        <time>2013-07-27T12:48:29Z</time>
      </trkpt>
      <trkpt lat="42.421653000" lon="-2.401334000">
        <ele>447.80</ele>
        <time>2013-07-27T12:48:30Z</time>
      </trkpt>
      <trkpt lat="42.421659000" lon="-2.401377000">
        <ele>447.90</ele>
        <time>2013-07-27T12:48:31Z</time>
      </trkpt>
      <trkpt lat="42.421664000" lon="-2.401421000">
        <ele>448.00</ele>
        <time>2013-07-27T12:48:32Z</time>
      </trkpt>
      <trkpt lat="42.421669000" lon="-2.401464000">
        <ele>448.00</ele>
        <time>2013-07-27T12:48:33Z</time>
      </trkpt>
      <trkpt lat="42.421674000" lon="-2.401508000">
        <ele>448.30</ele>
        <time>2013-07-27T12:48:34Z</time>
      </trkpt>
      <trkpt lat="42.421678000" lon="-2.401552000">
        <ele>448.50</ele>
        <time>2013-07-27T12:48:35Z</time>
      </trkpt>
      <trkpt lat="42.421683000" lon="-2.401596000">
        <ele>449.00</ele>
        <time>2013-07-27T12:48:36Z</time>
      </trkpt>
      <trkpt lat="42.421690000" lon="-2.401639000">
        <ele>449.30</ele>
        <time>2013-07-27T12:48:37Z</time>
      </trkpt>
      <trkpt lat="42.421696000" lon="-2.401683000">
        <ele>449.80</ele>
        <time>2013-07-27T12:48:38Z</time>
      </trkpt>
      <trkpt lat="42.421702000" lon="-2.401726000">
        <ele>450.10</ele>
        <time>2013-07-27T12:48:39Z</time>
      </trkpt>
      <trkpt lat="42.421706000" lon="-2.401771000">
        <ele>450.40</ele>
        <time>2013-07-27T12:48:40Z</time>
      </trkpt>
      <trkpt lat="42.421707000" lon="-2.401820000">
        <ele>450.70</ele>
        <time>2013-07-27T12:48:41Z</time>
      </trkpt>
      <trkpt lat="42.421712000" lon="-2.401866000">
        <ele>451.00</ele>
        <time>2013-07-27T12:48:42Z</time>
      </trkpt>
      <trkpt lat="42.421714000" lon="-2.401913000">
        <ele>451.20</ele>
        <time>2013-07-27T12:48:43Z</time>
      </trkpt>
      <trkpt lat="42.421717000" lon="-2.401958000">
        <ele>451.50</ele>
        <time>2013-07-27T12:48:44Z</time>
      </trkpt>
      <trkpt lat="42.421724000" lon="-2.402002000">
        <ele>451.80</ele>
        <time>2013-07-27T12:48:45Z</time>
      </trkpt>
      <trkpt lat="42.421727000" lon="-2.402043000">
        <ele>452.00</ele>
        <time>2013-07-27T12:48:46Z</time>
      </trkpt>
      <trkpt lat="42.421731000" lon="-2.402086000">
        <ele>452.20</ele>
        <time>2013-07-27T12:48:47Z</time>
      </trkpt>
      <trkpt lat="42.421730000" lon="-2.402128000">
        <ele>452.40</ele>
        <time>2013-07-27T12:48:48Z</time>
      </trkpt>
      <trkpt lat="42.421731000" lon="-2.402170000">
        <ele>452.60</ele>
        <time>2013-07-27T12:48:49Z</time>
      </trkpt>
      <trkpt lat="42.421735000" lon="-2.402215000">
        <ele>452.70</ele>
        <time>2013-07-27T12:48:50Z</time>
      </trkpt>
      <trkpt lat="42.421737000" lon="-2.402255000">
        <ele>452.80</ele>
        <time>2013-07-27T12:48:51Z</time>
      </trkpt>
      <trkpt lat="42.421740000" lon="-2.402296000">
        <ele>453.10</ele>
        <time>2013-07-27T12:48:52Z</time>
      </trkpt>
      <trkpt lat="42.421740000" lon="-2.402337000">
        <ele>453.30</ele>
        <time>2013-07-27T12:48:53Z</time>
      </trkpt>
      <trkpt lat="42.421741000" lon="-2.402379000">
        <ele>453.60</ele>
        <time>2013-07-27T12:48:54Z</time>
      </trkpt>
      <trkpt lat="42.421739000" lon="-2.402429000">
        <ele>453.80</ele>
        <time>2013-07-27T12:48:55Z</time>
      </trkpt>
      <trkpt lat="42.421740000" lon="-2.402478000">
        <ele>454.00</ele>
        <time>2013-07-27T12:48:56Z</time>
      </trkpt>
      <trkpt lat="42.421741000" lon="-2.402524000">
        <ele>454.20</ele>
        <time>2013-07-27T12:48:57Z</time>
      </trkpt>
      <trkpt lat="42.421743000" lon="-2.402568000">
        <ele>454.30</ele>
        <time>2013-07-27T12:48:58Z</time>
      </trkpt>
      <trkpt lat="42.421742000" lon="-2.402614000">
        <ele>454.40</ele>
        <time>2013-07-27T12:48:59Z</time>
      </trkpt>
      <trkpt lat="42.421744000" lon="-2.402660000">
        <ele>454.40</ele>
        <time>2013-07-27T12:49:00Z</time>
      </trkpt>
      <trkpt lat="42.421742000" lon="-2.402705000">
        <ele>454.50</ele>
        <time>2013-07-27T12:49:01Z</time>
      </trkpt>
      <trkpt lat="42.421742000" lon="-2.402753000">
        <ele>455.00</ele>
        <time>2013-07-27T12:49:02Z</time>
      </trkpt>
      <trkpt lat="42.421741000" lon="-2.402797000">
        <ele>455.40</ele>
        <time>2013-07-27T12:49:03Z</time>
      </trkpt>
      <trkpt lat="42.421743000" lon="-2.402845000">
        <ele>455.70</ele>
        <time>2013-07-27T12:49:04Z</time>
      </trkpt>
      <trkpt lat="42.421741000" lon="-2.402894000">
        <ele>455.90</ele>
        <time>2013-07-27T12:49:05Z</time>
      </trkpt>
      <trkpt lat="42.421739000" lon="-2.402945000">
        <ele>456.10</ele>
        <time>2013-07-27T12:49:06Z</time>
      </trkpt>
      <trkpt lat="42.421738000" lon="-2.402992000">
        <ele>456.20</ele>
        <time>2013-07-27T12:49:07Z</time>
      </trkpt>
      <trkpt lat="42.421738000" lon="-2.403040000">
        <ele>456.70</ele>
        <time>2013-07-27T12:49:08Z</time>
      </trkpt>
      <trkpt lat="42.421735000" lon="-2.403087000">
        <ele>457.10</ele>
        <time>2013-07-27T12:49:09Z</time>
      </trkpt>
      <trkpt lat="42.421732000" lon="-2.403136000">
        <ele>457.40</ele>
        <time>2013-07-27T12:49:10Z</time>
      </trkpt>
      <trkpt lat="42.421732000" lon="-2.403184000">
        <ele>457.60</ele>
        <time>2013-07-27T12:49:11Z</time>
      </trkpt>
      <trkpt lat="42.421730000" lon="-2.403233000">
        <ele>457.80</ele>
        <time>2013-07-27T12:49:12Z</time>
      </trkpt>
      <trkpt lat="42.421729000" lon="-2.403280000">
        <ele>457.90</ele>
        <time>2013-07-27T12:49:13Z</time>
      </trkpt>
      <trkpt lat="42.421725000" lon="-2.403329000">
        <ele>458.20</ele>
        <time>2013-07-27T12:49:14Z</time>
      </trkpt>
      <trkpt lat="42.421726000" lon="-2.403376000">
        <ele>458.50</ele>
        <time>2013-07-27T12:49:15Z</time>
      </trkpt>
      <trkpt lat="42.421722000" lon="-2.403426000">
        <ele>458.70</ele>
        <time>2013-07-27T12:49:16Z</time>
      </trkpt>
      <trkpt lat="42.421721000" lon="-2.403474000">
        <ele>458.80</ele>
        <time>2013-07-27T12:49:17Z</time>
      </trkpt>
      <trkpt lat="42.421719000" lon="-2.403524000">
        <ele>459.00</ele>
        <time>2013-07-27T12:49:18Z</time>
      </trkpt>
      <trkpt lat="42.421716000" lon="-2.403576000">
        <ele>459.10</ele>
        <time>2013-07-27T12:49:19Z</time>
      </trkpt>
      <trkpt lat="42.421713000" lon="-2.403626000">
        <ele>459.10</ele>
        <time>2013-07-27T12:49:20Z</time>
      </trkpt>
      <trkpt lat="42.421710000" lon="-2.403675000">
        <ele>459.10</ele>
        <time>2013-07-27T12:49:21Z</time>
      </trkpt>
      <trkpt lat="42.421710000" lon="-2.403727000">
        <ele>459.30</ele>
        <time>2013-07-27T12:49:22Z</time>
      </trkpt>
      <trkpt lat="42.421709000" lon="-2.403775000">
        <ele>459.40</ele>
        <time>2013-07-27T12:49:23Z</time>
      </trkpt>
      <trkpt lat="42.421709000" lon="-2.403827000">
        <ele>459.40</ele>
        <time>2013-07-27T12:49:24Z</time>
      </trkpt>
      <trkpt lat="42.421706000" lon="-2.403878000">
        <ele>459.30</ele>
        <time>2013-07-27T12:49:25Z</time>
      </trkpt>
      <trkpt lat="42.421703000" lon="-2.403932000">
        <ele>459.40</ele>
        <time>2013-07-27T12:49:26Z</time>
      </trkpt>
      <trkpt lat="42.421698000" lon="-2.403983000">
        <ele>459.40</ele>
        <time>2013-07-27T12:49:27Z</time>
      </trkpt>
      <trkpt lat="42.421697000" lon="-2.404035000">
        <ele>459.40</ele>
        <time>2013-07-27T12:49:28Z</time>
      </trkpt>
      <trkpt lat="42.421695000" lon="-2.404087000">
        <ele>459.50</ele>
        <time>2013-07-27T12:49:29Z</time>
      </trkpt>
      <trkpt lat="42.421694000" lon="-2.404137000">
        <ele>459.70</ele>
        <time>2013-07-27T12:49:30Z</time>
      </trkpt>
      <trkpt lat="42.421689000" lon="-2.404191000">
        <ele>459.80</ele>
        <time>2013-07-27T12:49:31Z</time>
      </trkpt>
      <trkpt lat="42.421685000" lon="-2.404246000">
        <ele>460.00</ele>
        <time>2013-07-27T12:49:32Z</time>
      </trkpt>
      <trkpt lat="42.421684000" lon="-2.404301000">
        <ele>460.10</ele>
        <time>2013-07-27T12:49:33Z</time>
      </trkpt>
      <trkpt lat="42.421682000" lon="-2.404355000">
        <ele>460.20</ele>
        <time>2013-07-27T12:49:34Z</time>
      </trkpt>
      <trkpt lat="42.421679000" lon="-2.404409000">
        <ele>460.30</ele>
        <time>2013-07-27T12:49:35Z</time>
      </trkpt>
      <trkpt lat="42.421673000" lon="-2.404466000">
        <ele>460.50</ele>
        <time>2013-07-27T12:49:36Z</time>
      </trkpt>
      <trkpt lat="42.421671000" lon="-2.404523000">
        <ele>460.70</ele>
        <time>2013-07-27T12:49:37Z</time>
      </trkpt>
      <trkpt lat="42.421670000" lon="-2.404580000">
        <ele>460.90</ele>
        <time>2013-07-27T12:49:38Z</time>
      </trkpt>
      <trkpt lat="42.421667000" lon="-2.404634000">
        <ele>461.10</ele>
        <time>2013-07-27T12:49:39Z</time>
      </trkpt>
      <trkpt lat="42.421664000" lon="-2.404691000">
        <ele>461.60</ele>
        <time>2013-07-27T12:49:40Z</time>
      </trkpt>
      <trkpt lat="42.421654000" lon="-2.404745000">
        <ele>461.90</ele>
        <time>2013-07-27T12:49:41Z</time>
      </trkpt>
      <trkpt lat="42.421652000" lon="-2.404802000">
        <ele>462.10</ele>
        <time>2013-07-27T12:49:42Z</time>
      </trkpt>
      <trkpt lat="42.421652000" lon="-2.404859000">
        <ele>462.30</ele>
        <time>2013-07-27T12:49:43Z</time>
      </trkpt>
      <trkpt lat="42.421652000" lon="-2.404918000">
        <ele>462.40</ele>
        <time>2013-07-27T12:49:44Z</time>
      </trkpt>
      <trkpt lat="42.421648000" lon="-2.404978000">
        <ele>462.40</ele>
        <time>2013-07-27T12:49:45Z</time>
      </trkpt>
      <trkpt lat="42.421645000" lon="-2.405037000">
        <ele>462.30</ele>
        <time>2013-07-27T12:49:46Z</time>
      </trkpt>
      <trkpt lat="42.421643000" lon="-2.405099000">
        <ele>462.20</ele>
        <time>2013-07-27T12:49:47Z</time>
      </trkpt>
      <trkpt lat="42.421639000" lon="-2.405160000">
        <ele>462.30</ele>
        <time>2013-07-27T12:49:48Z</time>
      </trkpt>
      <trkpt lat="42.421636000" lon="-2.405220000">
        <ele>462.40</ele>
        <time>2013-07-27T12:49:49Z</time>
      </trkpt>
      <trkpt lat="42.421635000" lon="-2.405278000">
        <ele>462.40</ele>
        <time>2013-07-27T12:49:50Z</time>
      </trkpt>
      <trkpt lat="42.421634000" lon="-2.405338000">
        <ele>462.50</ele>
        <time>2013-07-27T12:49:51Z</time>
      </trkpt>
      <trkpt lat="42.421635000" lon="-2.405397000">
        <ele>462.50</ele>
        <time>2013-07-27T12:49:52Z</time>
      </trkpt>
      <trkpt lat="42.421632000" lon="-2.405459000">
        <ele>462.50</ele>
        <time>2013-07-27T12:49:53Z</time>
      </trkpt>
      <trkpt lat="42.421631000" lon="-2.405525000">
        <ele>462.60</ele>
        <time>2013-07-27T12:49:54Z</time>
      </trkpt>
      <trkpt lat="42.421626000" lon="-2.405590000">
        <ele>462.60</ele>
        <time>2013-07-27T12:49:55Z</time>
      </trkpt>
      <trkpt lat="42.421624000" lon="-2.405655000">
        <ele>462.60</ele>
        <time>2013-07-27T12:49:56Z</time>
      </trkpt>
      <trkpt lat="42.421619000" lon="-2.405719000">
        <ele>462.60</ele>
        <time>2013-07-27T12:49:57Z</time>
      </trkpt>
      <trkpt lat="42.421615000" lon="-2.405782000">
        <ele>462.80</ele>
        <time>2013-07-27T12:49:58Z</time>
      </trkpt>
      <trkpt lat="42.421612000" lon="-2.405847000">
        <ele>462.90</ele>
        <time>2013-07-27T12:49:59Z</time>
      </trkpt>
      <trkpt lat="42.421609000" lon="-2.405913000">
        <ele>462.90</ele>
        <time>2013-07-27T12:50:00Z</time>
      </trkpt>
      <trkpt lat="42.421605000" lon="-2.405978000">
        <ele>463.00</ele>
        <time>2013-07-27T12:50:01Z</time>
      </trkpt>
      <trkpt lat="42.421600000" lon="-2.406045000">
        <ele>463.10</ele>
        <time>2013-07-27T12:50:02Z</time>
      </trkpt>
      <trkpt lat="42.421596000" lon="-2.406109000">
        <ele>463.10</ele>
        <time>2013-07-27T12:50:03Z</time>
      </trkpt>
      <trkpt lat="42.421593000" lon="-2.406172000">
        <ele>463.50</ele>
        <time>2013-07-27T12:50:04Z</time>
      </trkpt>
      <trkpt lat="42.421590000" lon="-2.406237000">
        <ele>463.80</ele>
        <time>2013-07-27T12:50:05Z</time>
      </trkpt>
      <trkpt lat="42.421588000" lon="-2.406302000">
        <ele>464.10</ele>
        <time>2013-07-27T12:50:06Z</time>
      </trkpt>
      <trkpt lat="42.421585000" lon="-2.406363000">
        <ele>464.30</ele>
        <time>2013-07-27T12:50:07Z</time>
      </trkpt>
      <trkpt lat="42.421583000" lon="-2.406427000">
        <ele>464.50</ele>
        <time>2013-07-27T12:50:08Z</time>
      </trkpt>
      <trkpt lat="42.421579000" lon="-2.406489000">
        <ele>464.60</ele>
        <time>2013-07-27T12:50:09Z</time>
      </trkpt>
      <trkpt lat="42.421574000" lon="-2.406553000">
        <ele>464.40</ele>
        <time>2013-07-27T12:50:10Z</time>
      </trkpt>
      <trkpt lat="42.421573000" lon="-2.406614000">
        <ele>464.30</ele>
        <time>2013-07-27T12:50:11Z</time>
      </trkpt>
      <trkpt lat="42.421568000" lon="-2.406673000">
        <ele>464.50</ele>
        <time>2013-07-27T12:50:12Z</time>
      </trkpt>
      <trkpt lat="42.421561000" lon="-2.406736000">
        <ele>464.60</ele>
        <time>2013-07-27T12:50:13Z</time>
      </trkpt>
      <trkpt lat="42.421557000" lon="-2.406799000">
        <ele>464.40</ele>
        <time>2013-07-27T12:50:14Z</time>
      </trkpt>
      <trkpt lat="42.421554000" lon="-2.406864000">
        <ele>464.30</ele>
        <time>2013-07-27T12:50:15Z</time>
      </trkpt>
      <trkpt lat="42.421550000" lon="-2.406928000">
        <ele>464.30</ele>
        <time>2013-07-27T12:50:16Z</time>
      </trkpt>
      <trkpt lat="42.421545000" lon="-2.406993000">
        <ele>464.30</ele>
        <time>2013-07-27T12:50:17Z</time>
      </trkpt>
      <trkpt lat="42.421540000" lon="-2.407057000">
        <ele>464.00</ele>
        <time>2013-07-27T12:50:18Z</time>
      </trkpt>
      <trkpt lat="42.421539000" lon="-2.407122000">
        <ele>463.90</ele>
        <time>2013-07-27T12:50:19Z</time>
      </trkpt>
      <trkpt lat="42.421539000" lon="-2.407188000">
        <ele>464.00</ele>
        <time>2013-07-27T12:50:20Z</time>
      </trkpt>
      <trkpt lat="42.421535000" lon="-2.407250000">
        <ele>464.10</ele>
        <time>2013-07-27T12:50:21Z</time>
      </trkpt>
      <trkpt lat="42.421535000" lon="-2.407314000">
        <ele>464.20</ele>
        <time>2013-07-27T12:50:22Z</time>
      </trkpt>
      <trkpt lat="42.421534000" lon="-2.407377000">
        <ele>464.20</ele>
        <time>2013-07-27T12:50:23Z</time>
      </trkpt>
      <trkpt lat="42.421538000" lon="-2.407440000">
        <ele>464.30</ele>
        <time>2013-07-27T12:50:24Z</time>
      </trkpt>
      <trkpt lat="42.421537000" lon="-2.407504000">
        <ele>464.40</ele>
        <time>2013-07-27T12:50:25Z</time>
      </trkpt>
      <trkpt lat="42.421536000" lon="-2.407566000">
        <ele>464.50</ele>
        <time>2013-07-27T12:50:26Z</time>
      </trkpt>
      <trkpt lat="42.421531000" lon="-2.407630000">
        <ele>464.60</ele>
        <time>2013-07-27T12:50:27Z</time>
      </trkpt>
      <trkpt lat="42.421526000" lon="-2.407691000">
        <ele>464.80</ele>
        <time>2013-07-27T12:50:28Z</time>
      </trkpt>
      <trkpt lat="42.421518000" lon="-2.407753000">
        <ele>464.90</ele>
        <time>2013-07-27T12:50:29Z</time>
      </trkpt>
      <trkpt lat="42.421514000" lon="-2.407816000">
        <ele>464.90</ele>
        <time>2013-07-27T12:50:30Z</time>
      </trkpt>
      <trkpt lat="42.421510000" lon="-2.407879000">
        <ele>464.90</ele>
        <time>2013-07-27T12:50:31Z</time>
      </trkpt>
      <trkpt lat="42.421506000" lon="-2.407941000">
        <ele>464.80</ele>
        <time>2013-07-27T12:50:32Z</time>
      </trkpt>
      <trkpt lat="42.421503000" lon="-2.408005000">
        <ele>464.80</ele>
        <time>2013-07-27T12:50:33Z</time>
      </trkpt>
      <trkpt lat="42.421500000" lon="-2.408068000">
        <ele>464.80</ele>
        <time>2013-07-27T12:50:34Z</time>
      </trkpt>
      <trkpt lat="42.421496000" lon="-2.408127000">
        <ele>464.80</ele>
        <time>2013-07-27T12:50:35Z</time>
      </trkpt>
      <trkpt lat="42.421494000" lon="-2.408190000">
        <ele>464.90</ele>
        <time>2013-07-27T12:50:36Z</time>
      </trkpt>
      <trkpt lat="42.421490000" lon="-2.408251000">
        <ele>465.00</ele>
        <time>2013-07-27T12:50:37Z</time>
      </trkpt>
      <trkpt lat="42.421487000" lon="-2.408316000">
        <ele>465.00</ele>
        <time>2013-07-27T12:50:38Z</time>
      </trkpt>
      <trkpt lat="42.421485000" lon="-2.408381000">
        <ele>465.10</ele>
        <time>2013-07-27T12:50:39Z</time>
      </trkpt>
      <trkpt lat="42.421482000" lon="-2.408444000">
        <ele>465.30</ele>
        <time>2013-07-27T12:50:40Z</time>
      </trkpt>
      <trkpt lat="42.421479000" lon="-2.408508000">
        <ele>465.50</ele>
        <time>2013-07-27T12:50:41Z</time>
      </trkpt>
      <trkpt lat="42.421477000" lon="-2.408573000">
        <ele>465.60</ele>
        <time>2013-07-27T12:50:42Z</time>
      </trkpt>
      <trkpt lat="42.421474000" lon="-2.408637000">
        <ele>465.70</ele>
        <time>2013-07-27T12:50:43Z</time>
      </trkpt>
      <trkpt lat="42.421472000" lon="-2.408702000">
        <ele>465.90</ele>
        <time>2013-07-27T12:50:44Z</time>
      </trkpt>
      <trkpt lat="42.421467000" lon="-2.408765000">
        <ele>466.00</ele>
        <time>2013-07-27T12:50:45Z</time>
      </trkpt>
      <trkpt lat="42.421465000" lon="-2.408827000">
        <ele>466.10</ele>
        <time>2013-07-27T12:50:46Z</time>
      </trkpt>
      <trkpt lat="42.421462000" lon="-2.408890000">
        <ele>466.20</ele>
        <time>2013-07-27T12:50:47Z</time>
      </trkpt>
      <trkpt lat="42.421458000" lon="-2.408955000">
        <ele>466.30</ele>
        <time>2013-07-27T12:50:48Z</time>
      </trkpt>
      <trkpt lat="42.421456000" lon="-2.409018000">
        <ele>466.40</ele>
        <time>2013-07-27T12:50:49Z</time>
      </trkpt>
      <trkpt lat="42.421453000" lon="-2.409079000">
        <ele>466.40</ele>
        <time>2013-07-27T12:50:50Z</time>
      </trkpt>
      <trkpt lat="42.421448000" lon="-2.409140000">
        <ele>466.50</ele>
        <time>2013-07-27T12:50:51Z</time>
      </trkpt>
      <trkpt lat="42.421445000" lon="-2.409202000">
        <ele>466.60</ele>
        <time>2013-07-27T12:50:52Z</time>
      </trkpt>
      <trkpt lat="42.421443000" lon="-2.409267000">
        <ele>466.70</ele>
        <time>2013-07-27T12:50:53Z</time>
      </trkpt>
      <trkpt lat="42.421438000" lon="-2.409330000">
        <ele>466.70</ele>
        <time>2013-07-27T12:50:54Z</time>
      </trkpt>
      <trkpt lat="42.421434000" lon="-2.409395000">
        <ele>466.80</ele>
        <time>2013-07-27T12:50:55Z</time>
      </trkpt>
      <trkpt lat="42.421431000" lon="-2.409459000">
        <ele>466.80</ele>
        <time>2013-07-27T12:50:56Z</time>
      </trkpt>
      <trkpt lat="42.421428000" lon="-2.409522000">
        <ele>466.80</ele>
        <time>2013-07-27T12:50:57Z</time>
      </trkpt>
      <trkpt lat="42.421423000" lon="-2.409586000">
        <ele>466.90</ele>
        <time>2013-07-27T12:50:58Z</time>
      </trkpt>
      <trkpt lat="42.421418000" lon="-2.409650000">
        <ele>466.90</ele>
        <time>2013-07-27T12:50:59Z</time>
      </trkpt>
      <trkpt lat="42.421415000" lon="-2.409714000">
        <ele>467.20</ele>
        <time>2013-07-27T12:51:00Z</time>
      </trkpt>
      <trkpt lat="42.421412000" lon="-2.409779000">
        <ele>467.40</ele>
        <time>2013-07-27T12:51:01Z</time>
      </trkpt>
      <trkpt lat="42.421410000" lon="-2.409844000">
        <ele>467.50</ele>
        <time>2013-07-27T12:51:02Z</time>
      </trkpt>
      <trkpt lat="42.421408000" lon="-2.409911000">
        <ele>467.60</ele>
        <time>2013-07-27T12:51:03Z</time>
      </trkpt>
      <trkpt lat="42.421404000" lon="-2.409978000">
        <ele>467.70</ele>
        <time>2013-07-27T12:51:04Z</time>
      </trkpt>
      <trkpt lat="42.421399000" lon="-2.410043000">
        <ele>467.80</ele>
        <time>2013-07-27T12:51:05Z</time>
      </trkpt>
      <trkpt lat="42.421395000" lon="-2.410108000">
        <ele>467.80</ele>
        <time>2013-07-27T12:51:06Z</time>
      </trkpt>
      <trkpt lat="42.421392000" lon="-2.410177000">
        <ele>467.90</ele>
        <time>2013-07-27T12:51:07Z</time>
      </trkpt>
      <trkpt lat="42.421391000" lon="-2.410245000">
        <ele>467.90</ele>
        <time>2013-07-27T12:51:08Z</time>
      </trkpt>
      <trkpt lat="42.421391000" lon="-2.410316000">
        <ele>467.90</ele>
        <time>2013-07-27T12:51:09Z</time>
      </trkpt>
      <trkpt lat="42.421388000" lon="-2.410386000">
        <ele>467.90</ele>
        <time>2013-07-27T12:51:10Z</time>
      </trkpt>
      <trkpt lat="42.421385000" lon="-2.410459000">
        <ele>468.00</ele>
        <time>2013-07-27T12:51:11Z</time>
      </trkpt>
      <trkpt lat="42.421383000" lon="-2.410531000">
        <ele>468.00</ele>
        <time>2013-07-27T12:51:12Z</time>
      </trkpt>
      <trkpt lat="42.421381000" lon="-2.410606000">
        <ele>468.00</ele>
        <time>2013-07-27T12:51:13Z</time>
      </trkpt>
      <trkpt lat="42.421380000" lon="-2.410683000">
        <ele>468.00</ele>
        <time>2013-07-27T12:51:14Z</time>
      </trkpt>
      <trkpt lat="42.421380000" lon="-2.410760000">
        <ele>468.00</ele>
        <time>2013-07-27T12:51:15Z</time>
      </trkpt>
      <trkpt lat="42.421379000" lon="-2.410839000">
        <ele>467.60</ele>
        <time>2013-07-27T12:51:16Z</time>
      </trkpt>
      <trkpt lat="42.421379000" lon="-2.410921000">
        <ele>467.30</ele>
        <time>2013-07-27T12:51:17Z</time>
      </trkpt>
      <trkpt lat="42.421380000" lon="-2.411003000">
        <ele>467.00</ele>
        <time>2013-07-27T12:51:18Z</time>
      </trkpt>
      <trkpt lat="42.421382000" lon="-2.411085000">
        <ele>466.90</ele>
        <time>2013-07-27T12:51:19Z</time>
      </trkpt>
      <trkpt lat="42.421384000" lon="-2.411169000">
        <ele>466.90</ele>
        <time>2013-07-27T12:51:20Z</time>
      </trkpt>
      <trkpt lat="42.421387000" lon="-2.411255000">
        <ele>467.00</ele>
        <time>2013-07-27T12:51:21Z</time>
      </trkpt>
      <trkpt lat="42.421391000" lon="-2.411340000">
        <ele>467.00</ele>
        <time>2013-07-27T12:51:22Z</time>
      </trkpt>
      <trkpt lat="42.421396000" lon="-2.411428000">
        <ele>467.00</ele>
        <time>2013-07-27T12:51:23Z</time>
      </trkpt>
      <trkpt lat="42.421400000" lon="-2.411516000">
        <ele>466.90</ele>
        <time>2013-07-27T12:51:24Z</time>
      </trkpt>
      <trkpt lat="42.421405000" lon="-2.411602000">
        <ele>466.80</ele>
        <time>2013-07-27T12:51:25Z</time>
      </trkpt>
      <trkpt lat="42.421411000" lon="-2.411688000">
        <ele>466.50</ele>
        <time>2013-07-27T12:51:26Z</time>
      </trkpt>
      <trkpt lat="42.421414000" lon="-2.411776000">
        <ele>466.30</ele>
        <time>2013-07-27T12:51:27Z</time>
      </trkpt>
      <trkpt lat="42.421417000" lon="-2.411863000">
        <ele>466.00</ele>
        <time>2013-07-27T12:51:28Z</time>
      </trkpt>
      <trkpt lat="42.421424000" lon="-2.411950000">
        <ele>465.80</ele>
        <time>2013-07-27T12:51:29Z</time>
      </trkpt>
      <trkpt lat="42.421429000" lon="-2.412042000">
        <ele>465.50</ele>
        <time>2013-07-27T12:51:30Z</time>
      </trkpt>
      <trkpt lat="42.421435000" lon="-2.412131000">
        <ele>465.30</ele>
        <time>2013-07-27T12:51:31Z</time>
      </trkpt>
      <trkpt lat="42.421440000" lon="-2.412222000">
        <ele>465.10</ele>
        <time>2013-07-27T12:51:32Z</time>
      </trkpt>
      <trkpt lat="42.421446000" lon="-2.412315000">
        <ele>464.90</ele>
        <time>2013-07-27T12:51:33Z</time>
      </trkpt>
      <trkpt lat="42.421454000" lon="-2.412406000">
        <ele>464.80</ele>
        <time>2013-07-27T12:51:34Z</time>
      </trkpt>
      <trkpt lat="42.421461000" lon="-2.412491000">
        <ele>464.70</ele>
        <time>2013-07-27T12:51:35Z</time>
      </trkpt>
      <trkpt lat="42.421473000" lon="-2.412569000">
        <ele>464.50</ele>
        <time>2013-07-27T12:51:36Z</time>
      </trkpt>
      <trkpt lat="42.421486000" lon="-2.412630000">
        <ele>464.40</ele>
        <time>2013-07-27T12:51:37Z</time>
      </trkpt>
      <trkpt lat="42.421500000" lon="-2.412687000">
        <ele>464.00</ele>
        <time>2013-07-27T12:51:38Z</time>
      </trkpt>
      <trkpt lat="42.421517000" lon="-2.412746000">
        <ele>463.80</ele>
        <time>2013-07-27T12:51:39Z</time>
      </trkpt>
      <trkpt lat="42.421539000" lon="-2.412812000">
        <ele>463.20</ele>
        <time>2013-07-27T12:51:40Z</time>
      </trkpt>
      <trkpt lat="42.421570000" lon="-2.412879000">
        <ele>462.80</ele>
        <time>2013-07-27T12:51:41Z</time>
      </trkpt>
      <trkpt lat="42.421605000" lon="-2.412951000">
        <ele>462.40</ele>
        <time>2013-07-27T12:51:42Z</time>
      </trkpt>
      <trkpt lat="42.421642000" lon="-2.413022000">
        <ele>462.00</ele>
        <time>2013-07-27T12:51:43Z</time>
      </trkpt>
      <trkpt lat="42.421684000" lon="-2.413093000">
        <ele>461.60</ele>
        <time>2013-07-27T12:51:44Z</time>
      </trkpt>
      <trkpt lat="42.421727000" lon="-2.413164000">
        <ele>461.30</ele>
        <time>2013-07-27T12:51:45Z</time>
      </trkpt>
      <trkpt lat="42.421772000" lon="-2.413234000">
        <ele>461.10</ele>
        <time>2013-07-27T12:51:46Z</time>
      </trkpt>
      <trkpt lat="42.421822000" lon="-2.413304000">
        <ele>461.00</ele>
        <time>2013-07-27T12:51:47Z</time>
      </trkpt>
      <trkpt lat="42.421872000" lon="-2.413371000">
        <ele>460.80</ele>
        <time>2013-07-27T12:51:48Z</time>
      </trkpt>
      <trkpt lat="42.421926000" lon="-2.413436000">
        <ele>460.80</ele>
        <time>2013-07-27T12:51:49Z</time>
      </trkpt>
      <trkpt lat="42.421982000" lon="-2.413501000">
        <ele>460.40</ele>
        <time>2013-07-27T12:51:50Z</time>
      </trkpt>
      <trkpt lat="42.422037000" lon="-2.413567000">
        <ele>460.10</ele>
        <time>2013-07-27T12:51:51Z</time>
      </trkpt>
      <trkpt lat="42.422088000" lon="-2.413631000">
        <ele>459.90</ele>
        <time>2013-07-27T12:51:52Z</time>
      </trkpt>
      <trkpt lat="42.422140000" lon="-2.413699000">
        <ele>459.70</ele>
        <time>2013-07-27T12:51:53Z</time>
      </trkpt>
      <trkpt lat="42.422193000" lon="-2.413762000">
        <ele>459.30</ele>
        <time>2013-07-27T12:51:54Z</time>
      </trkpt>
      <trkpt lat="42.422243000" lon="-2.413826000">
        <ele>459.00</ele>
        <time>2013-07-27T12:51:55Z</time>
      </trkpt>
      <trkpt lat="42.422291000" lon="-2.413886000">
        <ele>458.60</ele>
        <time>2013-07-27T12:51:56Z</time>
      </trkpt>
      <trkpt lat="42.422338000" lon="-2.413945000">
        <ele>458.40</ele>
        <time>2013-07-27T12:51:57Z</time>
      </trkpt>
      <trkpt lat="42.422384000" lon="-2.414002000">
        <ele>458.20</ele>
        <time>2013-07-27T12:51:58Z</time>
      </trkpt>
      <trkpt lat="42.422429000" lon="-2.414056000">
        <ele>458.00</ele>
        <time>2013-07-27T12:51:59Z</time>
      </trkpt>
      <trkpt lat="42.422473000" lon="-2.414106000">
        <ele>457.90</ele>
        <time>2013-07-27T12:52:00Z</time>
      </trkpt>
      <trkpt lat="42.422516000" lon="-2.414157000">
        <ele>457.80</ele>
        <time>2013-07-27T12:52:01Z</time>
      </trkpt>
      <trkpt lat="42.422556000" lon="-2.414203000">
        <ele>457.70</ele>
        <time>2013-07-27T12:52:02Z</time>
      </trkpt>
      <trkpt lat="42.422593000" lon="-2.414249000">
        <ele>457.50</ele>
        <time>2013-07-27T12:52:03Z</time>
      </trkpt>
      <trkpt lat="42.422629000" lon="-2.414295000">
        <ele>457.30</ele>
        <time>2013-07-27T12:52:04Z</time>
      </trkpt>
      <trkpt lat="42.422662000" lon="-2.414340000">
        <ele>457.20</ele>
        <time>2013-07-27T12:52:05Z</time>
      </trkpt>
      <trkpt lat="42.422694000" lon="-2.414382000">
        <ele>457.10</ele>
        <time>2013-07-27T12:52:06Z</time>
      </trkpt>
      <trkpt lat="42.422725000" lon="-2.414421000">
        <ele>457.00</ele>
        <time>2013-07-27T12:52:07Z</time>
      </trkpt>
      <trkpt lat="42.422758000" lon="-2.414460000">
        <ele>456.90</ele>
        <time>2013-07-27T12:52:08Z</time>
      </trkpt>
      <trkpt lat="42.422790000" lon="-2.414505000">
        <ele>456.90</ele>
        <time>2013-07-27T12:52:09Z</time>
      </trkpt>
      <trkpt lat="42.422824000" lon="-2.414549000">
        <ele>456.80</ele>
        <time>2013-07-27T12:52:10Z</time>
      </trkpt>
      <trkpt lat="42.422859000" lon="-2.414587000">
        <ele>456.80</ele>
        <time>2013-07-27T12:52:11Z</time>
      </trkpt>
      <trkpt lat="42.422894000" lon="-2.414626000">
        <ele>457.00</ele>
        <time>2013-07-27T12:52:12Z</time>
      </trkpt>
      <trkpt lat="42.422927000" lon="-2.414667000">
        <ele>457.10</ele>
        <time>2013-07-27T12:52:13Z</time>
      </trkpt>
      <trkpt lat="42.422963000" lon="-2.414703000">
        <ele>457.50</ele>
        <time>2013-07-27T12:52:14Z</time>
      </trkpt>
      <trkpt lat="42.422997000" lon="-2.414740000">
        <ele>457.80</ele>
        <time>2013-07-27T12:52:15Z</time>
      </trkpt>
      <trkpt lat="42.423026000" lon="-2.414776000">
        <ele>458.10</ele>
        <time>2013-07-27T12:52:16Z</time>
      </trkpt>
      <trkpt lat="42.423055000" lon="-2.414815000">
        <ele>458.30</ele>
        <time>2013-07-27T12:52:17Z</time>
      </trkpt>
      <trkpt lat="42.423085000" lon="-2.414853000">
        <ele>458.40</ele>
        <time>2013-07-27T12:52:18Z</time>
      </trkpt>
      <trkpt lat="42.423114000" lon="-2.414886000">
        <ele>458.50</ele>
        <time>2013-07-27T12:52:19Z</time>
      </trkpt>
      <trkpt lat="42.423138000" lon="-2.414912000">
        <ele>458.60</ele>
        <time>2013-07-27T12:52:20Z</time>
      </trkpt>
      <trkpt lat="42.423159000" lon="-2.414937000">
        <ele>458.60</ele>
        <time>2013-07-27T12:52:21Z</time>
      </trkpt>
      <trkpt lat="42.423172000" lon="-2.414966000">
        <ele>458.70</ele>
        <time>2013-07-27T12:52:22Z</time>
      </trkpt>
      <trkpt lat="42.423190000" lon="-2.414994000">
        <ele>458.70</ele>
        <time>2013-07-27T12:52:23Z</time>
      </trkpt>
      <trkpt lat="42.423209000" lon="-2.415025000">
        <ele>458.70</ele>
        <time>2013-07-27T12:52:24Z</time>
      </trkpt>
      <trkpt lat="42.423229000" lon="-2.415055000">
        <ele>458.80</ele>
        <time>2013-07-27T12:52:25Z</time>
      </trkpt>
      <trkpt lat="42.423249000" lon="-2.415081000">
        <ele>459.00</ele>
        <time>2013-07-27T12:52:26Z</time>
      </trkpt>
      <trkpt lat="42.423271000" lon="-2.415110000">
        <ele>459.20</ele>
        <time>2013-07-27T12:52:27Z</time>
      </trkpt>
      <trkpt lat="42.423295000" lon="-2.415136000">
        <ele>459.40</ele>
        <time>2013-07-27T12:52:28Z</time>
      </trkpt>
      <trkpt lat="42.423318000" lon="-2.415162000">
        <ele>459.50</ele>
        <time>2013-07-27T12:52:29Z</time>
      </trkpt>
      <trkpt lat="42.423339000" lon="-2.415188000">
        <ele>459.50</ele>
        <time>2013-07-27T12:52:30Z</time>
      </trkpt>
      <trkpt lat="42.423360000" lon="-2.415216000">
        <ele>459.50</ele>
        <time>2013-07-27T12:52:31Z</time>
      </trkpt>
      <trkpt lat="42.423384000" lon="-2.415239000">
        <ele>459.50</ele>
        <time>2013-07-27T12:52:32Z</time>
      </trkpt>
      <trkpt lat="42.423406000" lon="-2.415263000">
        <ele>459.50</ele>
        <time>2013-07-27T12:52:33Z</time>
      </trkpt>
      <trkpt lat="42.423425000" lon="-2.415290000">
        <ele>459.50</ele>
        <time>2013-07-27T12:52:34Z</time>
      </trkpt>
      <trkpt lat="42.423447000" lon="-2.415326000">
        <ele>459.50</ele>
        <time>2013-07-27T12:52:35Z</time>
      </trkpt>
      <trkpt lat="42.423472000" lon="-2.415355000">
        <ele>459.60</ele>
        <time>2013-07-27T12:52:36Z</time>
      </trkpt>
      <trkpt lat="42.423495000" lon="-2.415378000">
        <ele>459.70</ele>
        <time>2013-07-27T12:52:37Z</time>
      </trkpt>
      <trkpt lat="42.423513000" lon="-2.415400000">
        <ele>459.60</ele>
        <time>2013-07-27T12:52:38Z</time>
      </trkpt>
      <trkpt lat="42.423531000" lon="-2.415418000">
        <ele>459.60</ele>
        <time>2013-07-27T12:52:39Z</time>
      </trkpt>
      <trkpt lat="42.423549000" lon="-2.415434000">
        <ele>459.80</ele>
        <time>2013-07-27T12:52:40Z</time>
      </trkpt>
      <trkpt lat="42.423569000" lon="-2.415451000">
        <ele>459.90</ele>
        <time>2013-07-27T12:52:41Z</time>
      </trkpt>
      <trkpt lat="42.423583000" lon="-2.415476000">
        <ele>459.70</ele>
        <time>2013-07-27T12:52:42Z</time>
      </trkpt>
      <trkpt lat="42.423593000" lon="-2.415501000">
        <ele>459.60</ele>
        <time>2013-07-27T12:52:43Z</time>
      </trkpt>
      <trkpt lat="42.423600000" lon="-2.415527000">
        <ele>459.90</ele>
        <time>2013-07-27T12:52:44Z</time>
      </trkpt>
      <trkpt lat="42.423610000" lon="-2.415556000">
        <ele>460.00</ele>
        <time>2013-07-27T12:52:45Z</time>
      </trkpt>
      <trkpt lat="42.423624000" lon="-2.415583000">
        <ele>459.80</ele>
        <time>2013-07-27T12:52:46Z</time>
      </trkpt>
      <trkpt lat="42.423633000" lon="-2.415610000">
        <ele>459.70</ele>
        <time>2013-07-27T12:52:47Z</time>
      </trkpt>
      <trkpt lat="42.423639000" lon="-2.415629000">
        <ele>459.80</ele>
        <time>2013-07-27T12:52:48Z</time>
      </trkpt>
      <trkpt lat="42.423637000" lon="-2.415631000">
        <ele>460.00</ele>
        <time>2013-07-27T12:52:49Z</time>
      </trkpt>
      <trkpt lat="42.423637000" lon="-2.415630000">
        <ele>459.80</ele>
        <time>2013-07-27T12:52:50Z</time>
      </trkpt>
      <trkpt lat="42.423634000" lon="-2.415625000">
        <ele>459.70</ele>
        <time>2013-07-27T12:52:51Z</time>
      </trkpt>
      <trkpt lat="42.423634000" lon="-2.415628000">
        <ele>459.60</ele>
        <time>2013-07-27T12:52:52Z</time>
      </trkpt>
      <trkpt lat="42.423632000" lon="-2.415636000">
        <ele>459.50</ele>
        <time>2013-07-27T12:52:53Z</time>
      </trkpt>
      <trkpt lat="42.423629000" lon="-2.415636000">
        <ele>459.40</ele>
        <time>2013-07-27T12:52:54Z</time>
      </trkpt>
      <trkpt lat="42.423627000" lon="-2.415635000">
        <ele>459.40</ele>
        <time>2013-07-27T12:52:55Z</time>
      </trkpt>
      <trkpt lat="42.423622000" lon="-2.415632000">
        <ele>459.30</ele>
        <time>2013-07-27T12:52:56Z</time>
      </trkpt>
      <trkpt lat="42.423621000" lon="-2.415628000">
        <ele>459.20</ele>
        <time>2013-07-27T12:52:57Z</time>
      </trkpt>
      <trkpt lat="42.423620000" lon="-2.415625000">
        <ele>459.30</ele>
        <time>2013-07-27T12:52:58Z</time>
      </trkpt>
      <trkpt lat="42.423620000" lon="-2.415624000">
        <ele>459.30</ele>
        <time>2013-07-27T12:52:59Z</time>
      </trkpt>
      <trkpt lat="42.423619000" lon="-2.415624000">
        <ele>459.30</ele>
        <time>2013-07-27T12:53:00Z</time>
      </trkpt>
      <trkpt lat="42.423619000" lon="-2.415625000">
        <ele>459.30</ele>
        <time>2013-07-27T12:53:01Z</time>
      </trkpt>
      <trkpt lat="42.423619000" lon="-2.415626000">
        <ele>459.30</ele>
        <time>2013-07-27T12:53:02Z</time>
      </trkpt>
      <trkpt lat="42.423619000" lon="-2.415627000">
        <ele>459.30</ele>
        <time>2013-07-27T12:53:03Z</time>
      </trkpt>
      <trkpt lat="42.423618000" lon="-2.415628000">
        <ele>459.20</ele>
        <time>2013-07-27T12:53:04Z</time>
      </trkpt>
      <trkpt lat="42.423617000" lon="-2.415629000">
        <ele>459.10</ele>
        <time>2013-07-27T12:53:05Z</time>
      </trkpt>
      <trkpt lat="42.423617000" lon="-2.415629000">
        <ele>458.90</ele>
        <time>2013-07-27T12:53:06Z</time>
      </trkpt>
      <trkpt lat="42.423617000" lon="-2.415630000">
        <ele>458.80</ele>
        <time>2013-07-27T12:53:07Z</time>
      </trkpt>
      <trkpt lat="42.423618000" lon="-2.415629000">
        <ele>458.80</ele>
        <time>2013-07-27T12:53:08Z</time>
      </trkpt>
      <trkpt lat="42.423618000" lon="-2.415629000">
        <ele>458.80</ele>
        <time>2013-07-27T12:53:09Z</time>
      </trkpt>
      <trkpt lat="42.423618000" lon="-2.415629000">
        <ele>459.00</ele>
        <time>2013-07-27T12:53:10Z</time>
      </trkpt>
      <trkpt lat="42.423619000" lon="-2.415629000">
        <ele>459.10</ele>
        <time>2013-07-27T12:53:11Z</time>
      </trkpt>
      <trkpt lat="42.423618000" lon="-2.415629000">
        <ele>459.20</ele>
        <time>2013-07-27T12:53:12Z</time>
      </trkpt>
      <trkpt lat="42.423618000" lon="-2.415629000">
        <ele>459.30</ele>
        <time>2013-07-27T12:53:13Z</time>
      </trkpt>
      <trkpt lat="42.423617000" lon="-2.415629000">
        <ele>459.30</ele>
        <time>2013-07-27T12:53:14Z</time>
      </trkpt>
      <trkpt lat="42.423617000" lon="-2.415630000">
        <ele>459.30</ele>
        <time>2013-07-27T12:53:15Z</time>
      </trkpt>
      <trkpt lat="42.423616000" lon="-2.415630000">
        <ele>459.30</ele>
        <time>2013-07-27T12:53:16Z</time>
      </trkpt>
      <trkpt lat="42.423615000" lon="-2.415630000">
        <ele>459.30</ele>
        <time>2013-07-27T12:53:17Z</time>
      </trkpt>
      <trkpt lat="42.423613000" lon="-2.415631000">
        <ele>459.30</ele>
        <time>2013-07-27T12:53:18Z</time>
      </trkpt>
      <trkpt lat="42.423613000" lon="-2.415631000">
        <ele>459.30</ele>
        <time>2013-07-27T12:53:19Z</time>
      </trkpt>
      <trkpt lat="42.423612000" lon="-2.415631000">
        <ele>459.30</ele>
        <time>2013-07-27T12:53:20Z</time>
      </trkpt>
      <trkpt lat="42.423611000" lon="-2.415631000">
        <ele>459.30</ele>
        <time>2013-07-27T12:53:21Z</time>
      </trkpt>
      <trkpt lat="42.423609000" lon="-2.415631000">
        <ele>459.30</ele>
        <time>2013-07-27T12:53:22Z</time>
      </trkpt>
      <trkpt lat="42.423608000" lon="-2.415631000">
        <ele>459.30</ele>
        <time>2013-07-27T12:53:23Z</time>
      </trkpt>
      <trkpt lat="42.423607000" lon="-2.415630000">
        <ele>459.20</ele>
        <time>2013-07-27T12:53:24Z</time>
      </trkpt>
      <trkpt lat="42.423606000" lon="-2.415630000">
        <ele>459.10</ele>
        <time>2013-07-27T12:53:25Z</time>
      </trkpt>
      <trkpt lat="42.423604000" lon="-2.415631000">
        <ele>459.10</ele>
        <time>2013-07-27T12:53:26Z</time>
      </trkpt>
      <trkpt lat="42.423603000" lon="-2.415631000">
        <ele>459.10</ele>
        <time>2013-07-27T12:53:27Z</time>
      </trkpt>
      <trkpt lat="42.423603000" lon="-2.415632000">
        <ele>459.10</ele>
        <time>2013-07-27T12:53:28Z</time>
      </trkpt>
      <trkpt lat="42.423602000" lon="-2.415631000">
        <ele>459.00</ele>
        <time>2013-07-27T12:53:29Z</time>
      </trkpt>
      <trkpt lat="42.423602000" lon="-2.415631000">
        <ele>459.00</ele>
        <time>2013-07-27T12:53:30Z</time>
      </trkpt>
      <trkpt lat="42.423601000" lon="-2.415631000">
        <ele>458.90</ele>
        <time>2013-07-27T12:53:31Z</time>
      </trkpt>
      <trkpt lat="42.423601000" lon="-2.415632000">
        <ele>458.90</ele>
        <time>2013-07-27T12:53:32Z</time>
      </trkpt>
      <trkpt lat="42.423601000" lon="-2.415632000">
        <ele>458.90</ele>
        <time>2013-07-27T12:53:33Z</time>
      </trkpt>
      <trkpt lat="42.423601000" lon="-2.415632000">
        <ele>458.90</ele>
        <time>2013-07-27T12:53:34Z</time>
      </trkpt>
      <trkpt lat="42.423600000" lon="-2.415633000">
        <ele>458.90</ele>
        <time>2013-07-27T12:53:35Z</time>
      </trkpt>
      <trkpt lat="42.423600000" lon="-2.415633000">
        <ele>459.00</ele>
        <time>2013-07-27T12:53:36Z</time>
      </trkpt>
      <trkpt lat="42.423600000" lon="-2.415633000">
        <ele>459.00</ele>
        <time>2013-07-27T12:53:37Z</time>
      </trkpt>
      <trkpt lat="42.423600000" lon="-2.415633000">
        <ele>459.10</ele>
        <time>2013-07-27T12:53:38Z</time>
      </trkpt>
      <trkpt lat="42.423601000" lon="-2.415633000">
        <ele>459.10</ele>
        <time>2013-07-27T12:53:39Z</time>
      </trkpt>
      <trkpt lat="42.423601000" lon="-2.415632000">
        <ele>459.10</ele>
        <time>2013-07-27T12:53:40Z</time>
      </trkpt>
      <trkpt lat="42.423601000" lon="-2.415633000">
        <ele>459.10</ele>
        <time>2013-07-27T12:53:41Z</time>
      </trkpt>
      <trkpt lat="42.423601000" lon="-2.415633000">
        <ele>459.00</ele>
        <time>2013-07-27T12:53:42Z</time>
      </trkpt>
      <trkpt lat="42.423602000" lon="-2.415633000">
        <ele>459.00</ele>
        <time>2013-07-27T12:53:43Z</time>
      </trkpt>
      <trkpt lat="42.423602000" lon="-2.415632000">
        <ele>459.00</ele>
        <time>2013-07-27T12:53:44Z</time>
      </trkpt>
      <trkpt lat="42.423602000" lon="-2.415632000">
        <ele>458.90</ele>
        <time>2013-07-27T12:53:45Z</time>
      </trkpt>
      <trkpt lat="42.423601000" lon="-2.415631000">
        <ele>458.90</ele>
        <time>2013-07-27T12:53:46Z</time>
      </trkpt>
      <trkpt lat="42.423601000" lon="-2.415631000">
        <ele>458.90</ele>
        <time>2013-07-27T12:53:47Z</time>
      </trkpt>
      <trkpt lat="42.423601000" lon="-2.415631000">
        <ele>458.80</ele>
        <time>2013-07-27T12:53:48Z</time>
      </trkpt>
      <trkpt lat="42.423601000" lon="-2.415630000">
        <ele>458.70</ele>
        <time>2013-07-27T12:53:49Z</time>
      </trkpt>
      <trkpt lat="42.423602000" lon="-2.415629000">
        <ele>458.70</ele>
        <time>2013-07-27T12:53:50Z</time>
      </trkpt>
      <trkpt lat="42.423602000" lon="-2.415630000">
        <ele>458.70</ele>
        <time>2013-07-27T12:53:51Z</time>
      </trkpt>
      <trkpt lat="42.423602000" lon="-2.415630000">
        <ele>458.60</ele>
        <time>2013-07-27T12:53:52Z</time>
      </trkpt>
      <trkpt lat="42.423602000" lon="-2.415631000">
        <ele>458.60</ele>
        <time>2013-07-27T12:53:53Z</time>
      </trkpt>
      <trkpt lat="42.423602000" lon="-2.415631000">
        <ele>458.70</ele>
        <time>2013-07-27T12:53:54Z</time>
      </trkpt>
      <trkpt lat="42.423602000" lon="-2.415631000">
        <ele>458.70</ele>
        <time>2013-07-27T12:53:55Z</time>
      </trkpt>
      <trkpt lat="42.423603000" lon="-2.415631000">
        <ele>458.80</ele>
        <time>2013-07-27T12:53:56Z</time>
      </trkpt>
      <trkpt lat="42.423603000" lon="-2.415631000">
        <ele>458.80</ele>
        <time>2013-07-27T12:53:57Z</time>
      </trkpt>
      <trkpt lat="42.423603000" lon="-2.415632000">
        <ele>458.90</ele>
        <time>2013-07-27T12:53:58Z</time>
      </trkpt>
      <trkpt lat="42.423603000" lon="-2.415632000">
        <ele>459.00</ele>
        <time>2013-07-27T12:53:59Z</time>
      </trkpt>
      <trkpt lat="42.423603000" lon="-2.415632000">
        <ele>459.10</ele>
        <time>2013-07-27T12:54:00Z</time>
      </trkpt>
      <trkpt lat="42.423603000" lon="-2.415632000">
        <ele>459.10</ele>
        <time>2013-07-27T12:54:01Z</time>
      </trkpt>
      <trkpt lat="42.423603000" lon="-2.415632000">
        <ele>459.20</ele>
        <time>2013-07-27T12:54:02Z</time>
      </trkpt>
      <trkpt lat="42.423603000" lon="-2.415633000">
        <ele>459.20</ele>
        <time>2013-07-27T12:54:03Z</time>
      </trkpt>
      <trkpt lat="42.423603000" lon="-2.415633000">
        <ele>459.20</ele>
        <time>2013-07-27T12:54:04Z</time>
      </trkpt>
      <trkpt lat="42.423603000" lon="-2.415633000">
        <ele>459.20</ele>
        <time>2013-07-27T12:54:05Z</time>
      </trkpt>
      <trkpt lat="42.423604000" lon="-2.415634000">
        <ele>459.00</ele>
        <time>2013-07-27T12:54:06Z</time>
      </trkpt>
      <trkpt lat="42.423604000" lon="-2.415634000">
        <ele>458.90</ele>
        <time>2013-07-27T12:54:07Z</time>
      </trkpt>
      <trkpt lat="42.423604000" lon="-2.415635000">
        <ele>458.80</ele>
        <time>2013-07-27T12:54:08Z</time>
      </trkpt>
      <trkpt lat="42.423604000" lon="-2.415636000">
        <ele>458.80</ele>
        <time>2013-07-27T12:54:09Z</time>
      </trkpt>
      <trkpt lat="42.423604000" lon="-2.415637000">
        <ele>458.60</ele>
        <time>2013-07-27T12:54:10Z</time>
      </trkpt>
      <trkpt lat="42.423605000" lon="-2.415638000">
        <ele>458.60</ele>
        <time>2013-07-27T12:54:11Z</time>
      </trkpt>
      <trkpt lat="42.423605000" lon="-2.415639000">
        <ele>458.60</ele>
        <time>2013-07-27T12:54:12Z</time>
      </trkpt>
      <trkpt lat="42.423604000" lon="-2.415640000">
        <ele>458.70</ele>
        <time>2013-07-27T12:54:13Z</time>
      </trkpt>
      <trkpt lat="42.423605000" lon="-2.415642000">
        <ele>458.70</ele>
        <time>2013-07-27T12:54:14Z</time>
      </trkpt>
      <trkpt lat="42.423605000" lon="-2.415643000">
        <ele>458.70</ele>
        <time>2013-07-27T12:54:15Z</time>
      </trkpt>
      <trkpt lat="42.423604000" lon="-2.415644000">
        <ele>458.80</ele>
        <time>2013-07-27T12:54:16Z</time>
      </trkpt>
      <trkpt lat="42.423604000" lon="-2.415644000">
        <ele>458.80</ele>
        <time>2013-07-27T12:54:17Z</time>
      </trkpt>
      <trkpt lat="42.423604000" lon="-2.415645000">
        <ele>458.60</ele>
        <time>2013-07-27T12:54:18Z</time>
      </trkpt>
      <trkpt lat="42.423604000" lon="-2.415645000">
        <ele>458.40</ele>
        <time>2013-07-27T12:54:19Z</time>
      </trkpt>
      <trkpt lat="42.423604000" lon="-2.415646000">
        <ele>458.30</ele>
        <time>2013-07-27T12:54:20Z</time>
      </trkpt>
      <trkpt lat="42.423604000" lon="-2.415645000">
        <ele>458.30</ele>
        <time>2013-07-27T12:54:21Z</time>
      </trkpt>
      <trkpt lat="42.423604000" lon="-2.415645000">
        <ele>458.20</ele>
        <time>2013-07-27T12:54:22Z</time>
      </trkpt>
      <trkpt lat="42.423604000" lon="-2.415644000">
        <ele>458.20</ele>
        <time>2013-07-27T12:54:23Z</time>
      </trkpt>
      <trkpt lat="42.423604000" lon="-2.415644000">
        <ele>458.30</ele>
        <time>2013-07-27T12:54:24Z</time>
      </trkpt>
      <trkpt lat="42.423605000" lon="-2.415644000">
        <ele>458.40</ele>
        <time>2013-07-27T12:54:25Z</time>
      </trkpt>
      <trkpt lat="42.423605000" lon="-2.415645000">
        <ele>458.50</ele>
        <time>2013-07-27T12:54:26Z</time>
      </trkpt>
      <trkpt lat="42.423604000" lon="-2.415645000">
        <ele>458.60</ele>
        <time>2013-07-27T12:54:27Z</time>
      </trkpt>
      <trkpt lat="42.423604000" lon="-2.415646000">
        <ele>458.70</ele>
        <time>2013-07-27T12:54:28Z</time>
      </trkpt>
      <trkpt lat="42.423604000" lon="-2.415646000">
        <ele>458.80</ele>
        <time>2013-07-27T12:54:29Z</time>
      </trkpt>
      <trkpt lat="42.423605000" lon="-2.415647000">
        <ele>458.80</ele>
        <time>2013-07-27T12:54:30Z</time>
      </trkpt>
      <trkpt lat="42.423605000" lon="-2.415646000">
        <ele>458.80</ele>
        <time>2013-07-27T12:54:31Z</time>
      </trkpt>
      <trkpt lat="42.423605000" lon="-2.415645000">
        <ele>458.80</ele>
        <time>2013-07-27T12:54:32Z</time>
      </trkpt>
      <trkpt lat="42.423606000" lon="-2.415645000">
        <ele>458.70</ele>
        <time>2013-07-27T12:54:33Z</time>
      </trkpt>
      <trkpt lat="42.423606000" lon="-2.415645000">
        <ele>458.70</ele>
        <time>2013-07-27T12:54:34Z</time>
      </trkpt>
      <trkpt lat="42.423606000" lon="-2.415644000">
        <ele>458.70</ele>
        <time>2013-07-27T12:54:35Z</time>
      </trkpt>
      <trkpt lat="42.423607000" lon="-2.415644000">
        <ele>458.70</ele>
        <time>2013-07-27T12:54:36Z</time>
      </trkpt>
      <trkpt lat="42.423608000" lon="-2.415644000">
        <ele>458.70</ele>
        <time>2013-07-27T12:54:37Z</time>
      </trkpt>
      <trkpt lat="42.423608000" lon="-2.415645000">
        <ele>458.70</ele>
        <time>2013-07-27T12:54:38Z</time>
      </trkpt>
      <trkpt lat="42.423608000" lon="-2.415645000">
        <ele>458.70</ele>
        <time>2013-07-27T12:54:39Z</time>
      </trkpt>
      <trkpt lat="42.423608000" lon="-2.415646000">
        <ele>458.70</ele>
        <time>2013-07-27T12:54:40Z</time>
      </trkpt>
      <trkpt lat="42.423608000" lon="-2.415647000">
        <ele>458.80</ele>
        <time>2013-07-27T12:54:41Z</time>
      </trkpt>
      <trkpt lat="42.423608000" lon="-2.415648000">
        <ele>458.60</ele>
        <time>2013-07-27T12:54:42Z</time>
      </trkpt>
      <trkpt lat="42.423608000" lon="-2.415648000">
        <ele>458.50</ele>
        <time>2013-07-27T12:54:43Z</time>
      </trkpt>
      <trkpt lat="42.423607000" lon="-2.415649000">
        <ele>458.30</ele>
        <time>2013-07-27T12:54:44Z</time>
      </trkpt>
      <trkpt lat="42.423607000" lon="-2.415649000">
        <ele>458.20</ele>
        <time>2013-07-27T12:54:45Z</time>
      </trkpt>
      <trkpt lat="42.423607000" lon="-2.415650000">
        <ele>458.10</ele>
        <time>2013-07-27T12:54:46Z</time>
      </trkpt>
      <trkpt lat="42.423607000" lon="-2.415651000">
        <ele>458.10</ele>
        <time>2013-07-27T12:54:47Z</time>
      </trkpt>
      <trkpt lat="42.423607000" lon="-2.415652000">
        <ele>458.30</ele>
        <time>2013-07-27T12:54:48Z</time>
      </trkpt>
      <trkpt lat="42.423607000" lon="-2.415652000">
        <ele>458.40</ele>
        <time>2013-07-27T12:54:49Z</time>
      </trkpt>
      <trkpt lat="42.423607000" lon="-2.415654000">
        <ele>458.50</ele>
        <time>2013-07-27T12:54:50Z</time>
      </trkpt>
      <trkpt lat="42.423606000" lon="-2.415655000">
        <ele>458.60</ele>
        <time>2013-07-27T12:54:51Z</time>
      </trkpt>
      <trkpt lat="42.423606000" lon="-2.415655000">
        <ele>458.70</ele>
        <time>2013-07-27T12:54:52Z</time>
      </trkpt>
      <trkpt lat="42.423605000" lon="-2.415657000">
        <ele>458.80</ele>
        <time>2013-07-27T12:54:53Z</time>
      </trkpt>
      <trkpt lat="42.423605000" lon="-2.415658000">
        <ele>458.70</ele>
        <time>2013-07-27T12:54:54Z</time>
      </trkpt>
      <trkpt lat="42.423604000" lon="-2.415658000">
        <ele>458.60</ele>
        <time>2013-07-27T12:54:55Z</time>
      </trkpt>
      <trkpt lat="42.423604000" lon="-2.415659000">
        <ele>458.70</ele>
        <time>2013-07-27T12:54:56Z</time>
      </trkpt>
      <trkpt lat="42.423604000" lon="-2.415661000">
        <ele>458.70</ele>
        <time>2013-07-27T12:54:57Z</time>
      </trkpt>
      <trkpt lat="42.423603000" lon="-2.415663000">
        <ele>458.60</ele>
        <time>2013-07-27T12:54:58Z</time>
      </trkpt>
      <trkpt lat="42.423603000" lon="-2.415665000">
        <ele>458.60</ele>
        <time>2013-07-27T12:54:59Z</time>
      </trkpt>
      <trkpt lat="42.423602000" lon="-2.415666000">
        <ele>458.60</ele>
        <time>2013-07-27T12:55:00Z</time>
      </trkpt>
      <trkpt lat="42.423603000" lon="-2.415667000">
        <ele>458.60</ele>
        <time>2013-07-27T12:55:01Z</time>
      </trkpt>
      <trkpt lat="42.423603000" lon="-2.415668000">
        <ele>458.70</ele>
        <time>2013-07-27T12:55:02Z</time>
      </trkpt>
      <trkpt lat="42.423603000" lon="-2.415668000">
        <ele>458.80</ele>
        <time>2013-07-27T12:55:03Z</time>
      </trkpt>
      <trkpt lat="42.423603000" lon="-2.415669000">
        <ele>458.80</ele>
        <time>2013-07-27T12:55:04Z</time>
      </trkpt>
      <trkpt lat="42.423603000" lon="-2.415668000">
        <ele>458.80</ele>
        <time>2013-07-27T12:55:05Z</time>
      </trkpt>
      <trkpt lat="42.423602000" lon="-2.415667000">
        <ele>458.80</ele>
        <time>2013-07-27T12:55:06Z</time>
      </trkpt>
      <trkpt lat="42.423602000" lon="-2.415666000">
        <ele>458.80</ele>
        <time>2013-07-27T12:55:07Z</time>
      </trkpt>
      <trkpt lat="42.423603000" lon="-2.415665000">
        <ele>458.70</ele>
        <time>2013-07-27T12:55:08Z</time>
      </trkpt>
      <trkpt lat="42.423603000" lon="-2.415662000">
        <ele>458.60</ele>
        <time>2013-07-27T12:55:09Z</time>
      </trkpt>
      <trkpt lat="42.423603000" lon="-2.415660000">
        <ele>458.70</ele>
        <time>2013-07-27T12:55:10Z</time>
      </trkpt>
      <trkpt lat="42.423603000" lon="-2.415658000">
        <ele>458.70</ele>
        <time>2013-07-27T12:55:11Z</time>
      </trkpt>
      <trkpt lat="42.423602000" lon="-2.415657000">
        <ele>458.60</ele>
        <time>2013-07-27T12:55:12Z</time>
      </trkpt>
      <trkpt lat="42.423602000" lon="-2.415657000">
        <ele>458.60</ele>
        <time>2013-07-27T12:55:13Z</time>
      </trkpt>
      <trkpt lat="42.423601000" lon="-2.415657000">
        <ele>458.40</ele>
        <time>2013-07-27T12:55:14Z</time>
      </trkpt>
      <trkpt lat="42.423601000" lon="-2.415657000">
        <ele>458.30</ele>
        <time>2013-07-27T12:55:15Z</time>
      </trkpt>
      <trkpt lat="42.423600000" lon="-2.415657000">
        <ele>458.30</ele>
        <time>2013-07-27T12:55:16Z</time>
      </trkpt>
      <trkpt lat="42.423599000" lon="-2.415658000">
        <ele>458.20</ele>
        <time>2013-07-27T12:55:17Z</time>
      </trkpt>
      <trkpt lat="42.423599000" lon="-2.415657000">
        <ele>458.20</ele>
        <time>2013-07-27T12:55:18Z</time>
      </trkpt>
      <trkpt lat="42.423599000" lon="-2.415657000">
        <ele>458.10</ele>
        <time>2013-07-27T12:55:19Z</time>
      </trkpt>
      <trkpt lat="42.423598000" lon="-2.415656000">
        <ele>458.20</ele>
        <time>2013-07-27T12:55:20Z</time>
      </trkpt>
      <trkpt lat="42.423599000" lon="-2.415656000">
        <ele>458.20</ele>
        <time>2013-07-27T12:55:21Z</time>
      </trkpt>
      <trkpt lat="42.423598000" lon="-2.415656000">
        <ele>458.40</ele>
        <time>2013-07-27T12:55:22Z</time>
      </trkpt>
      <trkpt lat="42.423598000" lon="-2.415655000">
        <ele>458.50</ele>
        <time>2013-07-27T12:55:23Z</time>
      </trkpt>
      <trkpt lat="42.423598000" lon="-2.415656000">
        <ele>458.50</ele>
        <time>2013-07-27T12:55:24Z</time>
      </trkpt>
      <trkpt lat="42.423597000" lon="-2.415656000">
        <ele>458.50</ele>
        <time>2013-07-27T12:55:25Z</time>
      </trkpt>
      <trkpt lat="42.423597000" lon="-2.415657000">
        <ele>458.50</ele>
        <time>2013-07-27T12:55:26Z</time>
      </trkpt>
      <trkpt lat="42.423596000" lon="-2.415657000">
        <ele>458.50</ele>
        <time>2013-07-27T12:55:27Z</time>
      </trkpt>
      <trkpt lat="42.423596000" lon="-2.415657000">
        <ele>458.40</ele>
        <time>2013-07-27T12:55:28Z</time>
      </trkpt>
      <trkpt lat="42.423596000" lon="-2.415656000">
        <ele>458.30</ele>
        <time>2013-07-27T12:55:29Z</time>
      </trkpt>
      <trkpt lat="42.423596000" lon="-2.415655000">
        <ele>458.20</ele>
        <time>2013-07-27T12:55:30Z</time>
      </trkpt>
      <trkpt lat="42.423597000" lon="-2.415654000">
        <ele>458.20</ele>
        <time>2013-07-27T12:55:31Z</time>
      </trkpt>
      <trkpt lat="42.423597000" lon="-2.415653000">
        <ele>458.20</ele>
        <time>2013-07-27T12:55:32Z</time>
      </trkpt>
      <trkpt lat="42.423597000" lon="-2.415652000">
        <ele>458.30</ele>
        <time>2013-07-27T12:55:33Z</time>
      </trkpt>
      <trkpt lat="42.423597000" lon="-2.415652000">
        <ele>458.30</ele>
        <time>2013-07-27T12:55:34Z</time>
      </trkpt>
      <trkpt lat="42.423597000" lon="-2.415650000">
        <ele>458.30</ele>
        <time>2013-07-27T12:55:35Z</time>
      </trkpt>
      <trkpt lat="42.423597000" lon="-2.415649000">
        <ele>458.30</ele>
        <time>2013-07-27T12:55:36Z</time>
      </trkpt>
      <trkpt lat="42.423597000" lon="-2.415648000">
        <ele>458.30</ele>
        <time>2013-07-27T12:55:37Z</time>
      </trkpt>
      <trkpt lat="42.423597000" lon="-2.415647000">
        <ele>458.40</ele>
        <time>2013-07-27T12:55:38Z</time>
      </trkpt>
      <trkpt lat="42.423597000" lon="-2.415647000">
        <ele>458.40</ele>
        <time>2013-07-27T12:55:39Z</time>
      </trkpt>
      <trkpt lat="42.423597000" lon="-2.415647000">
        <ele>458.30</ele>
        <time>2013-07-27T12:55:40Z</time>
      </trkpt>
      <trkpt lat="42.423597000" lon="-2.415646000">
        <ele>458.30</ele>
        <time>2013-07-27T12:55:41Z</time>
      </trkpt>
      <trkpt lat="42.423597000" lon="-2.415645000">
        <ele>458.20</ele>
        <time>2013-07-27T12:55:42Z</time>
      </trkpt>
      <trkpt lat="42.423597000" lon="-2.415645000">
        <ele>458.20</ele>
        <time>2013-07-27T12:55:43Z</time>
      </trkpt>
      <trkpt lat="42.423597000" lon="-2.415645000">
        <ele>458.20</ele>
        <time>2013-07-27T12:55:44Z</time>
      </trkpt>
      <trkpt lat="42.423596000" lon="-2.415645000">
        <ele>458.20</ele>
        <time>2013-07-27T12:55:45Z</time>
      </trkpt>
      <trkpt lat="42.423596000" lon="-2.415646000">
        <ele>458.20</ele>
        <time>2013-07-27T12:55:46Z</time>
      </trkpt>
      <trkpt lat="42.423595000" lon="-2.415646000">
        <ele>458.30</ele>
        <time>2013-07-27T12:55:47Z</time>
      </trkpt>
      <trkpt lat="42.423595000" lon="-2.415647000">
        <ele>458.40</ele>
        <time>2013-07-27T12:55:48Z</time>
      </trkpt>
      <trkpt lat="42.423595000" lon="-2.415648000">
        <ele>458.50</ele>
        <time>2013-07-27T12:55:49Z</time>
      </trkpt>
      <trkpt lat="42.423595000" lon="-2.415648000">
        <ele>458.50</ele>
        <time>2013-07-27T12:55:50Z</time>
      </trkpt>
      <trkpt lat="42.423596000" lon="-2.415647000">
        <ele>458.60</ele>
        <time>2013-07-27T12:55:51Z</time>
      </trkpt>
      <trkpt lat="42.423596000" lon="-2.415647000">
        <ele>458.60</ele>
        <time>2013-07-27T12:55:52Z</time>
      </trkpt>
      <trkpt lat="42.423596000" lon="-2.415647000">
        <ele>458.50</ele>
        <time>2013-07-27T12:55:53Z</time>
      </trkpt>
      <trkpt lat="42.423596000" lon="-2.415648000">
        <ele>458.50</ele>
        <time>2013-07-27T12:55:54Z</time>
      </trkpt>
      <trkpt lat="42.423596000" lon="-2.415649000">
        <ele>458.50</ele>
        <time>2013-07-27T12:55:55Z</time>
      </trkpt>
      <trkpt lat="42.423595000" lon="-2.415649000">
        <ele>458.50</ele>
        <time>2013-07-27T12:55:56Z</time>
      </trkpt>
      <trkpt lat="42.423595000" lon="-2.415651000">
        <ele>458.50</ele>
        <time>2013-07-27T12:55:57Z</time>
      </trkpt>
      <trkpt lat="42.423595000" lon="-2.415651000">
        <ele>458.50</ele>
        <time>2013-07-27T12:55:58Z</time>
      </trkpt>
      <trkpt lat="42.423594000" lon="-2.415652000">
        <ele>458.50</ele>
        <time>2013-07-27T12:55:59Z</time>
      </trkpt>
      <trkpt lat="42.423594000" lon="-2.415653000">
        <ele>458.50</ele>
        <time>2013-07-27T12:56:00Z</time>
      </trkpt>
      <trkpt lat="42.423594000" lon="-2.415653000">
        <ele>458.50</ele>
        <time>2013-07-27T12:56:01Z</time>
      </trkpt>
      <trkpt lat="42.423594000" lon="-2.415654000">
        <ele>458.60</ele>
        <time>2013-07-27T12:56:02Z</time>
      </trkpt>
      <trkpt lat="42.423593000" lon="-2.415655000">
        <ele>458.70</ele>
        <time>2013-07-27T12:56:03Z</time>
      </trkpt>
      <trkpt lat="42.423593000" lon="-2.415656000">
        <ele>458.80</ele>
        <time>2013-07-27T12:56:04Z</time>
      </trkpt>
      <trkpt lat="42.423593000" lon="-2.415656000">
        <ele>458.80</ele>
        <time>2013-07-27T12:56:05Z</time>
      </trkpt>
      <trkpt lat="42.423592000" lon="-2.415657000">
        <ele>458.80</ele>
        <time>2013-07-27T12:56:06Z</time>
      </trkpt>
      <trkpt lat="42.423592000" lon="-2.415658000">
        <ele>458.80</ele>
        <time>2013-07-27T12:56:07Z</time>
      </trkpt>
      <trkpt lat="42.423591000" lon="-2.415659000">
        <ele>458.80</ele>
        <time>2013-07-27T12:56:08Z</time>
      </trkpt>
      <trkpt lat="42.423591000" lon="-2.415660000">
        <ele>458.80</ele>
        <time>2013-07-27T12:56:09Z</time>
      </trkpt>
      <trkpt lat="42.423591000" lon="-2.415661000">
        <ele>458.80</ele>
        <time>2013-07-27T12:56:10Z</time>
      </trkpt>
      <trkpt lat="42.423591000" lon="-2.415662000">
        <ele>458.80</ele>
        <time>2013-07-27T12:56:11Z</time>
      </trkpt>
      <trkpt lat="42.423591000" lon="-2.415662000">
        <ele>458.80</ele>
        <time>2013-07-27T12:56:12Z</time>
      </trkpt>
      <trkpt lat="42.423591000" lon="-2.415663000">
        <ele>458.80</ele>
        <time>2013-07-27T12:56:13Z</time>
      </trkpt>
      <trkpt lat="42.423591000" lon="-2.415664000">
        <ele>458.90</ele>
        <time>2013-07-27T12:56:14Z</time>
      </trkpt>
      <trkpt lat="42.423591000" lon="-2.415664000">
        <ele>459.00</ele>
        <time>2013-07-27T12:56:15Z</time>
      </trkpt>
      <trkpt lat="42.423591000" lon="-2.415665000">
        <ele>459.10</ele>
        <time>2013-07-27T12:56:16Z</time>
      </trkpt>
      <trkpt lat="42.423591000" lon="-2.415666000">
        <ele>459.20</ele>
        <time>2013-07-27T12:56:17Z</time>
      </trkpt>
      <trkpt lat="42.423592000" lon="-2.415665000">
        <ele>459.20</ele>
        <time>2013-07-27T12:56:18Z</time>
      </trkpt>
      <trkpt lat="42.423592000" lon="-2.415665000">
        <ele>459.10</ele>
        <time>2013-07-27T12:56:19Z</time>
      </trkpt>
      <trkpt lat="42.423591000" lon="-2.415665000">
        <ele>459.00</ele>
        <time>2013-07-27T12:56:20Z</time>
      </trkpt>
      <trkpt lat="42.423592000" lon="-2.415665000">
        <ele>458.90</ele>
        <time>2013-07-27T12:56:21Z</time>
      </trkpt>
      <trkpt lat="42.423592000" lon="-2.415664000">
        <ele>458.80</ele>
        <time>2013-07-27T12:56:22Z</time>
      </trkpt>
      <trkpt lat="42.423593000" lon="-2.415663000">
        <ele>458.80</ele>
        <time>2013-07-27T12:56:23Z</time>
      </trkpt>
      <trkpt lat="42.423593000" lon="-2.415661000">
        <ele>458.80</ele>
        <time>2013-07-27T12:56:24Z</time>
      </trkpt>
      <trkpt lat="42.423593000" lon="-2.415660000">
        <ele>458.70</ele>
        <time>2013-07-27T12:56:25Z</time>
      </trkpt>
      <trkpt lat="42.423594000" lon="-2.415659000">
        <ele>458.60</ele>
        <time>2013-07-27T12:56:26Z</time>
      </trkpt>
      <trkpt lat="42.423594000" lon="-2.415657000">
        <ele>458.60</ele>
        <time>2013-07-27T12:56:27Z</time>
      </trkpt>
      <trkpt lat="42.423595000" lon="-2.415656000">
        <ele>458.50</ele>
        <time>2013-07-27T12:56:28Z</time>
      </trkpt>
      <trkpt lat="42.423595000" lon="-2.415655000">
        <ele>458.40</ele>
        <time>2013-07-27T12:56:29Z</time>
      </trkpt>
      <trkpt lat="42.423596000" lon="-2.415654000">
        <ele>458.40</ele>
        <time>2013-07-27T12:56:30Z</time>
      </trkpt>
      <trkpt lat="42.423596000" lon="-2.415653000">
        <ele>458.40</ele>
        <time>2013-07-27T12:56:31Z</time>
      </trkpt>
      <trkpt lat="42.423597000" lon="-2.415652000">
        <ele>458.40</ele>
        <time>2013-07-27T12:56:32Z</time>
      </trkpt>
      <trkpt lat="42.423598000" lon="-2.415651000">
        <ele>458.40</ele>
        <time>2013-07-27T12:56:33Z</time>
      </trkpt>
      <trkpt lat="42.423598000" lon="-2.415649000">
        <ele>458.50</ele>
        <time>2013-07-27T12:56:34Z</time>
      </trkpt>
      <trkpt lat="42.423599000" lon="-2.415647000">
        <ele>458.60</ele>
        <time>2013-07-27T12:56:35Z</time>
      </trkpt>
      <trkpt lat="42.423600000" lon="-2.415645000">
        <ele>458.70</ele>
        <time>2013-07-27T12:56:36Z</time>
      </trkpt>
      <trkpt lat="42.423600000" lon="-2.415643000">
        <ele>458.70</ele>
        <time>2013-07-27T12:56:37Z</time>
      </trkpt>
      <trkpt lat="42.423601000" lon="-2.415641000">
        <ele>458.70</ele>
        <time>2013-07-27T12:56:38Z</time>
      </trkpt>
      <trkpt lat="42.423601000" lon="-2.415640000">
        <ele>458.70</ele>
        <time>2013-07-27T12:56:39Z</time>
      </trkpt>
      <trkpt lat="42.423601000" lon="-2.415638000">
        <ele>458.70</ele>
        <time>2013-07-27T12:56:40Z</time>
      </trkpt>
      <trkpt lat="42.423602000" lon="-2.415637000">
        <ele>458.70</ele>
        <time>2013-07-27T12:56:41Z</time>
      </trkpt>
      <trkpt lat="42.423601000" lon="-2.415636000">
        <ele>458.70</ele>
        <time>2013-07-27T12:56:42Z</time>
      </trkpt>
      <trkpt lat="42.423601000" lon="-2.415636000">
        <ele>458.60</ele>
        <time>2013-07-27T12:56:43Z</time>
      </trkpt>
      <trkpt lat="42.423601000" lon="-2.415636000">
        <ele>458.50</ele>
        <time>2013-07-27T12:56:44Z</time>
      </trkpt>
      <trkpt lat="42.423601000" lon="-2.415636000">
        <ele>458.50</ele>
        <time>2013-07-27T12:56:45Z</time>
      </trkpt>
      <trkpt lat="42.423601000" lon="-2.415636000">
        <ele>458.40</ele>
        <time>2013-07-27T12:56:46Z</time>
      </trkpt>
      <trkpt lat="42.423600000" lon="-2.415636000">
        <ele>458.40</ele>
        <time>2013-07-27T12:56:47Z</time>
      </trkpt>
      <trkpt lat="42.423600000" lon="-2.415637000">
        <ele>458.40</ele>
        <time>2013-07-27T12:56:48Z</time>
      </trkpt>
      <trkpt lat="42.423600000" lon="-2.415637000">
        <ele>458.50</ele>
        <time>2013-07-27T12:56:49Z</time>
      </trkpt>
      <trkpt lat="42.423599000" lon="-2.415637000">
        <ele>458.50</ele>
        <time>2013-07-27T12:56:50Z</time>
      </trkpt>
      <trkpt lat="42.423599000" lon="-2.415638000">
        <ele>458.50</ele>
        <time>2013-07-27T12:56:51Z</time>
      </trkpt>
      <trkpt lat="42.423599000" lon="-2.415639000">
        <ele>458.50</ele>
        <time>2013-07-27T12:56:52Z</time>
      </trkpt>
      <trkpt lat="42.423598000" lon="-2.415640000">
        <ele>458.40</ele>
        <time>2013-07-27T12:56:53Z</time>
      </trkpt>
      <trkpt lat="42.423598000" lon="-2.415641000">
        <ele>458.30</ele>
        <time>2013-07-27T12:56:54Z</time>
      </trkpt>
      <trkpt lat="42.423598000" lon="-2.415642000">
        <ele>458.20</ele>
        <time>2013-07-27T12:56:55Z</time>
      </trkpt>
      <trkpt lat="42.423598000" lon="-2.415643000">
        <ele>458.20</ele>
        <time>2013-07-27T12:56:56Z</time>
      </trkpt>
      <trkpt lat="42.423598000" lon="-2.415643000">
        <ele>458.20</ele>
        <time>2013-07-27T12:56:57Z</time>
      </trkpt>
      <trkpt lat="42.423597000" lon="-2.415643000">
        <ele>458.10</ele>
        <time>2013-07-27T12:56:58Z</time>
      </trkpt>
      <trkpt lat="42.423597000" lon="-2.415642000">
        <ele>458.10</ele>
        <time>2013-07-27T12:56:59Z</time>
      </trkpt>
      <trkpt lat="42.423597000" lon="-2.415642000">
        <ele>458.10</ele>
        <time>2013-07-27T12:57:00Z</time>
      </trkpt>
      <trkpt lat="42.423597000" lon="-2.415642000">
        <ele>458.10</ele>
        <time>2013-07-27T12:57:01Z</time>
      </trkpt>
      <trkpt lat="42.423596000" lon="-2.415643000">
        <ele>458.10</ele>
        <time>2013-07-27T12:57:02Z</time>
      </trkpt>
      <trkpt lat="42.423596000" lon="-2.415643000">
        <ele>458.00</ele>
        <time>2013-07-27T12:57:03Z</time>
      </trkpt>
      <trkpt lat="42.423596000" lon="-2.415644000">
        <ele>458.00</ele>
        <time>2013-07-27T12:57:04Z</time>
      </trkpt>
      <trkpt lat="42.423596000" lon="-2.415644000">
        <ele>457.90</ele>
        <time>2013-07-27T12:57:05Z</time>
      </trkpt>
      <trkpt lat="42.423596000" lon="-2.415644000">
        <ele>458.10</ele>
        <time>2013-07-27T12:57:06Z</time>
      </trkpt>
      <trkpt lat="42.423596000" lon="-2.415644000">
        <ele>458.10</ele>
        <time>2013-07-27T12:57:07Z</time>
      </trkpt>
      <trkpt lat="42.423596000" lon="-2.415645000">
        <ele>458.20</ele>
        <time>2013-07-27T12:57:08Z</time>
      </trkpt>
      <trkpt lat="42.423596000" lon="-2.415644000">
        <ele>458.20</ele>
        <time>2013-07-27T12:57:09Z</time>
      </trkpt>
      <trkpt lat="42.423596000" lon="-2.415644000">
        <ele>458.30</ele>
        <time>2013-07-27T12:57:10Z</time>
      </trkpt>
      <trkpt lat="42.423595000" lon="-2.415645000">
        <ele>458.30</ele>
        <time>2013-07-27T12:57:11Z</time>
      </trkpt>
      <trkpt lat="42.423595000" lon="-2.415645000">
        <ele>458.30</ele>
        <time>2013-07-27T12:57:12Z</time>
      </trkpt>
      <trkpt lat="42.423595000" lon="-2.415645000">
        <ele>458.20</ele>
        <time>2013-07-27T12:57:13Z</time>
      </trkpt>
      <trkpt lat="42.423595000" lon="-2.415645000">
        <ele>458.20</ele>
        <time>2013-07-27T12:57:14Z</time>
      </trkpt>
      <trkpt lat="42.423595000" lon="-2.415645000">
        <ele>458.20</ele>
        <time>2013-07-27T12:57:15Z</time>
      </trkpt>
      <trkpt lat="42.423595000" lon="-2.415646000">
        <ele>458.20</ele>
        <time>2013-07-27T12:57:16Z</time>
      </trkpt>
      <trkpt lat="42.423594000" lon="-2.415646000">
        <ele>458.20</ele>
        <time>2013-07-27T12:57:17Z</time>
      </trkpt>
      <trkpt lat="42.423594000" lon="-2.415646000">
        <ele>458.20</ele>
        <time>2013-07-27T12:57:18Z</time>
      </trkpt>
      <trkpt lat="42.423594000" lon="-2.415646000">
        <ele>458.20</ele>
        <time>2013-07-27T12:57:19Z</time>
      </trkpt>
      <trkpt lat="42.423594000" lon="-2.415646000">
        <ele>458.20</ele>
        <time>2013-07-27T12:57:20Z</time>
      </trkpt>
      <trkpt lat="42.423594000" lon="-2.415646000">
        <ele>458.20</ele>
        <time>2013-07-27T12:57:21Z</time>
      </trkpt>
      <trkpt lat="42.423594000" lon="-2.415647000">
        <ele>458.20</ele>
        <time>2013-07-27T12:57:22Z</time>
      </trkpt>
      <trkpt lat="42.423593000" lon="-2.415647000">
        <ele>458.20</ele>
        <time>2013-07-27T12:57:23Z</time>
      </trkpt>
      <trkpt lat="42.423593000" lon="-2.415647000">
        <ele>458.10</ele>
        <time>2013-07-27T12:57:24Z</time>
      </trkpt>
      <trkpt lat="42.423592000" lon="-2.415647000">
        <ele>458.10</ele>
        <time>2013-07-27T12:57:25Z</time>
      </trkpt>
      <trkpt lat="42.423592000" lon="-2.415646000">
        <ele>458.10</ele>
        <time>2013-07-27T12:57:26Z</time>
      </trkpt>
      <trkpt lat="42.423591000" lon="-2.415646000">
        <ele>458.00</ele>
        <time>2013-07-27T12:57:27Z</time>
      </trkpt>
      <trkpt lat="42.423591000" lon="-2.415645000">
        <ele>458.10</ele>
        <time>2013-07-27T12:57:28Z</time>
      </trkpt>
      <trkpt lat="42.423591000" lon="-2.415645000">
        <ele>458.20</ele>
        <time>2013-07-27T12:57:29Z</time>
      </trkpt>
      <trkpt lat="42.423590000" lon="-2.415644000">
        <ele>458.30</ele>
        <time>2013-07-27T12:57:30Z</time>
      </trkpt>
      <trkpt lat="42.423590000" lon="-2.415643000">
        <ele>458.30</ele>
        <time>2013-07-27T12:57:31Z</time>
      </trkpt>
      <trkpt lat="42.423590000" lon="-2.415643000">
        <ele>458.40</ele>
        <time>2013-07-27T12:57:32Z</time>
      </trkpt>
      <trkpt lat="42.423590000" lon="-2.415644000">
        <ele>458.40</ele>
        <time>2013-07-27T12:57:33Z</time>
      </trkpt>
      <trkpt lat="42.423589000" lon="-2.415643000">
        <ele>458.40</ele>
        <time>2013-07-27T12:57:34Z</time>
      </trkpt>
      <trkpt lat="42.423589000" lon="-2.415641000">
        <ele>458.50</ele>
        <time>2013-07-27T12:57:35Z</time>
      </trkpt>
      <trkpt lat="42.423588000" lon="-2.415640000">
        <ele>458.50</ele>
        <time>2013-07-27T12:57:36Z</time>
      </trkpt>
      <trkpt lat="42.423588000" lon="-2.415639000">
        <ele>458.50</ele>
        <time>2013-07-27T12:57:37Z</time>
      </trkpt>
      <trkpt lat="42.423587000" lon="-2.415639000">
        <ele>458.50</ele>
        <time>2013-07-27T12:57:38Z</time>
      </trkpt>
      <trkpt lat="42.423587000" lon="-2.415637000">
        <ele>458.50</ele>
        <time>2013-07-27T12:57:39Z</time>
      </trkpt>
      <trkpt lat="42.423587000" lon="-2.415635000">
        <ele>458.50</ele>
        <time>2013-07-27T12:57:40Z</time>
      </trkpt>
      <trkpt lat="42.423587000" lon="-2.415635000">
        <ele>458.40</ele>
        <time>2013-07-27T12:57:41Z</time>
      </trkpt>
      <trkpt lat="42.423587000" lon="-2.415634000">
        <ele>458.40</ele>
        <time>2013-07-27T12:57:42Z</time>
      </trkpt>
      <trkpt lat="42.423587000" lon="-2.415633000">
        <ele>458.40</ele>
        <time>2013-07-27T12:57:43Z</time>
      </trkpt>
      <trkpt lat="42.423587000" lon="-2.415634000">
        <ele>458.30</ele>
        <time>2013-07-27T12:57:44Z</time>
      </trkpt>
      <trkpt lat="42.423587000" lon="-2.415633000">
        <ele>458.20</ele>
        <time>2013-07-27T12:57:45Z</time>
      </trkpt>
      <trkpt lat="42.423587000" lon="-2.415633000">
        <ele>458.20</ele>
        <time>2013-07-27T12:57:46Z</time>
      </trkpt>
      <trkpt lat="42.423587000" lon="-2.415633000">
        <ele>458.10</ele>
        <time>2013-07-27T12:57:47Z</time>
      </trkpt>
      <trkpt lat="42.423587000" lon="-2.415633000">
        <ele>458.20</ele>
        <time>2013-07-27T12:57:48Z</time>
      </trkpt>
      <trkpt lat="42.423587000" lon="-2.415632000">
        <ele>458.20</ele>
        <time>2013-07-27T12:57:49Z</time>
      </trkpt>
      <trkpt lat="42.423587000" lon="-2.415632000">
        <ele>458.30</ele>
        <time>2013-07-27T12:57:50Z</time>
      </trkpt>
      <trkpt lat="42.423586000" lon="-2.415633000">
        <ele>458.40</ele>
        <time>2013-07-27T12:57:51Z</time>
      </trkpt>
      <trkpt lat="42.423586000" lon="-2.415634000">
        <ele>458.50</ele>
        <time>2013-07-27T12:57:52Z</time>
      </trkpt>
      <trkpt lat="42.423585000" lon="-2.415634000">
        <ele>458.70</ele>
        <time>2013-07-27T12:57:53Z</time>
      </trkpt>
      <trkpt lat="42.423585000" lon="-2.415635000">
        <ele>458.80</ele>
        <time>2013-07-27T12:57:54Z</time>
      </trkpt>
      <trkpt lat="42.423584000" lon="-2.415635000">
        <ele>458.90</ele>
        <time>2013-07-27T12:57:55Z</time>
      </trkpt>
      <trkpt lat="42.423584000" lon="-2.415636000">
        <ele>458.90</ele>
        <time>2013-07-27T12:57:56Z</time>
      </trkpt>
      <trkpt lat="42.423584000" lon="-2.415638000">
        <ele>459.00</ele>
        <time>2013-07-27T12:57:57Z</time>
      </trkpt>
      <trkpt lat="42.423583000" lon="-2.415639000">
        <ele>458.90</ele>
        <time>2013-07-27T12:57:58Z</time>
      </trkpt>
      <trkpt lat="42.423583000" lon="-2.415640000">
        <ele>458.90</ele>
        <time>2013-07-27T12:57:59Z</time>
      </trkpt>
      <trkpt lat="42.423582000" lon="-2.415642000">
        <ele>459.00</ele>
        <time>2013-07-27T12:58:00Z</time>
      </trkpt>
      <trkpt lat="42.423582000" lon="-2.415643000">
        <ele>459.00</ele>
        <time>2013-07-27T12:58:01Z</time>
      </trkpt>
      <trkpt lat="42.423581000" lon="-2.415644000">
        <ele>459.00</ele>
        <time>2013-07-27T12:58:02Z</time>
      </trkpt>
      <trkpt lat="42.423581000" lon="-2.415644000">
        <ele>459.00</ele>
        <time>2013-07-27T12:58:03Z</time>
      </trkpt>
      <trkpt lat="42.423581000" lon="-2.415644000">
        <ele>458.90</ele>
        <time>2013-07-27T12:58:04Z</time>
      </trkpt>
      <trkpt lat="42.423581000" lon="-2.415645000">
        <ele>458.90</ele>
        <time>2013-07-27T12:58:05Z</time>
      </trkpt>
      <trkpt lat="42.423580000" lon="-2.415645000">
        <ele>458.90</ele>
        <time>2013-07-27T12:58:06Z</time>
      </trkpt>
      <trkpt lat="42.423580000" lon="-2.415645000">
        <ele>458.80</ele>
        <time>2013-07-27T12:58:07Z</time>
      </trkpt>
      <trkpt lat="42.423581000" lon="-2.415645000">
        <ele>458.80</ele>
        <time>2013-07-27T12:58:08Z</time>
      </trkpt>
      <trkpt lat="42.423581000" lon="-2.415644000">
        <ele>458.80</ele>
        <time>2013-07-27T12:58:09Z</time>
      </trkpt>
      <trkpt lat="42.423581000" lon="-2.415645000">
        <ele>458.80</ele>
        <time>2013-07-27T12:58:10Z</time>
      </trkpt>
      <trkpt lat="42.423580000" lon="-2.415646000">
        <ele>458.80</ele>
        <time>2013-07-27T12:58:11Z</time>
      </trkpt>
      <trkpt lat="42.423580000" lon="-2.415647000">
        <ele>458.60</ele>
        <time>2013-07-27T12:58:12Z</time>
      </trkpt>
      <trkpt lat="42.423580000" lon="-2.415648000">
        <ele>458.50</ele>
        <time>2013-07-27T12:58:13Z</time>
      </trkpt>
      <trkpt lat="42.423580000" lon="-2.415649000">
        <ele>458.60</ele>
        <time>2013-07-27T12:58:14Z</time>
      </trkpt>
      <trkpt lat="42.423580000" lon="-2.415650000">
        <ele>458.60</ele>
        <time>2013-07-27T12:58:15Z</time>
      </trkpt>
      <trkpt lat="42.423580000" lon="-2.415652000">
        <ele>458.60</ele>
        <time>2013-07-27T12:58:16Z</time>
      </trkpt>
      <trkpt lat="42.423579000" lon="-2.415652000">
        <ele>458.50</ele>
        <time>2013-07-27T12:58:17Z</time>
      </trkpt>
      <trkpt lat="42.423580000" lon="-2.415653000">
        <ele>458.50</ele>
        <time>2013-07-27T12:58:18Z</time>
      </trkpt>
      <trkpt lat="42.423580000" lon="-2.415654000">
        <ele>458.50</ele>
        <time>2013-07-27T12:58:19Z</time>
      </trkpt>
      <trkpt lat="42.423580000" lon="-2.415655000">
        <ele>458.50</ele>
        <time>2013-07-27T12:58:20Z</time>
      </trkpt>
      <trkpt lat="42.423580000" lon="-2.415656000">
        <ele>458.50</ele>
        <time>2013-07-27T12:58:21Z</time>
      </trkpt>
      <trkpt lat="42.423580000" lon="-2.415656000">
        <ele>458.40</ele>
        <time>2013-07-27T12:58:22Z</time>
      </trkpt>
      <trkpt lat="42.423581000" lon="-2.415656000">
        <ele>458.40</ele>
        <time>2013-07-27T12:58:23Z</time>
      </trkpt>
      <trkpt lat="42.423581000" lon="-2.415656000">
        <ele>458.40</ele>
        <time>2013-07-27T12:58:24Z</time>
      </trkpt>
      <trkpt lat="42.423581000" lon="-2.415656000">
        <ele>458.50</ele>
        <time>2013-07-27T12:58:25Z</time>
      </trkpt>
      <trkpt lat="42.423581000" lon="-2.415655000">
        <ele>458.50</ele>
        <time>2013-07-27T12:58:26Z</time>
      </trkpt>
      <trkpt lat="42.423582000" lon="-2.415655000">
        <ele>458.50</ele>
        <time>2013-07-27T12:58:27Z</time>
      </trkpt>
      <trkpt lat="42.423582000" lon="-2.415654000">
        <ele>458.50</ele>
        <time>2013-07-27T12:58:28Z</time>
      </trkpt>
      <trkpt lat="42.423582000" lon="-2.415655000">
        <ele>458.50</ele>
        <time>2013-07-27T12:58:29Z</time>
      </trkpt>
      <trkpt lat="42.423583000" lon="-2.415654000">
        <ele>458.50</ele>
        <time>2013-07-27T12:58:30Z</time>
      </trkpt>
      <trkpt lat="42.423583000" lon="-2.415654000">
        <ele>458.40</ele>
        <time>2013-07-27T12:58:31Z</time>
      </trkpt>
      <trkpt lat="42.423582000" lon="-2.415653000">
        <ele>458.40</ele>
        <time>2013-07-27T12:58:32Z</time>
      </trkpt>
      <trkpt lat="42.423583000" lon="-2.415653000">
        <ele>458.40</ele>
        <time>2013-07-27T12:58:33Z</time>
      </trkpt>
      <trkpt lat="42.423582000" lon="-2.415651000">
        <ele>458.50</ele>
        <time>2013-07-27T12:58:34Z</time>
      </trkpt>
      <trkpt lat="42.423583000" lon="-2.415651000">
        <ele>458.60</ele>
        <time>2013-07-27T12:58:35Z</time>
      </trkpt>
      <trkpt lat="42.423583000" lon="-2.415651000">
        <ele>458.70</ele>
        <time>2013-07-27T12:58:36Z</time>
      </trkpt>
      <trkpt lat="42.423582000" lon="-2.415650000">
        <ele>458.70</ele>
        <time>2013-07-27T12:58:37Z</time>
      </trkpt>
      <trkpt lat="42.423582000" lon="-2.415650000">
        <ele>458.80</ele>
        <time>2013-07-27T12:58:38Z</time>
      </trkpt>
      <trkpt lat="42.423582000" lon="-2.415649000">
        <ele>458.80</ele>
        <time>2013-07-27T12:58:39Z</time>
      </trkpt>
      <trkpt lat="42.423582000" lon="-2.415649000">
        <ele>458.70</ele>
        <time>2013-07-27T12:58:40Z</time>
      </trkpt>
      <trkpt lat="42.423582000" lon="-2.415649000">
        <ele>458.60</ele>
        <time>2013-07-27T12:58:41Z</time>
      </trkpt>
      <trkpt lat="42.423582000" lon="-2.415649000">
        <ele>458.70</ele>
        <time>2013-07-27T12:58:42Z</time>
      </trkpt>
      <trkpt lat="42.423581000" lon="-2.415649000">
        <ele>458.70</ele>
        <time>2013-07-27T12:58:43Z</time>
      </trkpt>
      <trkpt lat="42.423581000" lon="-2.415649000">
        <ele>458.70</ele>
        <time>2013-07-27T12:58:44Z</time>
      </trkpt>
      <trkpt lat="42.423581000" lon="-2.415649000">
        <ele>458.60</ele>
        <time>2013-07-27T12:58:45Z</time>
      </trkpt>
      <trkpt lat="42.423581000" lon="-2.415649000">
        <ele>458.60</ele>
        <time>2013-07-27T12:58:46Z</time>
      </trkpt>
      <trkpt lat="42.423581000" lon="-2.415649000">
        <ele>458.60</ele>
        <time>2013-07-27T12:58:47Z</time>
      </trkpt>
      <trkpt lat="42.423581000" lon="-2.415650000">
        <ele>458.50</ele>
        <time>2013-07-27T12:58:48Z</time>
      </trkpt>
      <trkpt lat="42.423581000" lon="-2.415650000">
        <ele>458.50</ele>
        <time>2013-07-27T12:58:49Z</time>
      </trkpt>
      <trkpt lat="42.423581000" lon="-2.415649000">
        <ele>458.50</ele>
        <time>2013-07-27T12:58:50Z</time>
      </trkpt>
      <trkpt lat="42.423581000" lon="-2.415648000">
        <ele>458.50</ele>
        <time>2013-07-27T12:58:51Z</time>
      </trkpt>
      <trkpt lat="42.423581000" lon="-2.415646000">
        <ele>458.70</ele>
        <time>2013-07-27T12:58:52Z</time>
      </trkpt>
      <trkpt lat="42.423580000" lon="-2.415646000">
        <ele>458.80</ele>
        <time>2013-07-27T12:58:53Z</time>
      </trkpt>
      <trkpt lat="42.423580000" lon="-2.415645000">
        <ele>458.80</ele>
        <time>2013-07-27T12:58:54Z</time>
      </trkpt>
      <trkpt lat="42.423581000" lon="-2.415644000">
        <ele>458.80</ele>
        <time>2013-07-27T12:58:55Z</time>
      </trkpt>
      <trkpt lat="42.423581000" lon="-2.415643000">
        <ele>458.80</ele>
        <time>2013-07-27T12:58:56Z</time>
      </trkpt>
      <trkpt lat="42.423581000" lon="-2.415643000">
        <ele>458.70</ele>
        <time>2013-07-27T12:58:57Z</time>
      </trkpt>
      <trkpt lat="42.423580000" lon="-2.415642000">
        <ele>458.70</ele>
        <time>2013-07-27T12:58:58Z</time>
      </trkpt>
      <trkpt lat="42.423580000" lon="-2.415642000">
        <ele>458.70</ele>
        <time>2013-07-27T12:58:59Z</time>
      </trkpt>
      <trkpt lat="42.423580000" lon="-2.415642000">
        <ele>458.80</ele>
        <time>2013-07-27T12:59:00Z</time>
      </trkpt>
      <trkpt lat="42.423580000" lon="-2.415642000">
        <ele>458.90</ele>
        <time>2013-07-27T12:59:01Z</time>
      </trkpt>
      <trkpt lat="42.423579000" lon="-2.415642000">
        <ele>458.90</ele>
        <time>2013-07-27T12:59:02Z</time>
      </trkpt>
      <trkpt lat="42.423579000" lon="-2.415642000">
        <ele>458.90</ele>
        <time>2013-07-27T12:59:03Z</time>
      </trkpt>
      <trkpt lat="42.423580000" lon="-2.415642000">
        <ele>458.90</ele>
        <time>2013-07-27T12:59:04Z</time>
      </trkpt>
      <trkpt lat="42.423580000" lon="-2.415642000">
        <ele>458.90</ele>
        <time>2013-07-27T12:59:05Z</time>
      </trkpt>
      <trkpt lat="42.423580000" lon="-2.415643000">
        <ele>458.80</ele>
        <time>2013-07-27T12:59:06Z</time>
      </trkpt>
      <trkpt lat="42.423580000" lon="-2.415643000">
        <ele>458.70</ele>
        <time>2013-07-27T12:59:07Z</time>
      </trkpt>
      <trkpt lat="42.423581000" lon="-2.415643000">
        <ele>458.80</ele>
        <time>2013-07-27T12:59:08Z</time>
      </trkpt>
      <trkpt lat="42.423581000" lon="-2.415644000">
        <ele>458.80</ele>
        <time>2013-07-27T12:59:09Z</time>
      </trkpt>
      <trkpt lat="42.423581000" lon="-2.415645000">
        <ele>458.80</ele>
        <time>2013-07-27T12:59:10Z</time>
      </trkpt>
      <trkpt lat="42.423581000" lon="-2.415645000">
        <ele>458.80</ele>
        <time>2013-07-27T12:59:11Z</time>
      </trkpt>
      <trkpt lat="42.423582000" lon="-2.415644000">
        <ele>458.80</ele>
        <time>2013-07-27T12:59:12Z</time>
      </trkpt>
      <trkpt lat="42.423582000" lon="-2.415644000">
        <ele>458.90</ele>
        <time>2013-07-27T12:59:13Z</time>
      </trkpt>
      <trkpt lat="42.423582000" lon="-2.415643000">
        <ele>458.90</ele>
        <time>2013-07-27T12:59:14Z</time>
      </trkpt>
      <trkpt lat="42.423583000" lon="-2.415643000">
        <ele>458.90</ele>
        <time>2013-07-27T12:59:15Z</time>
      </trkpt>
      <trkpt lat="42.423583000" lon="-2.415642000">
        <ele>459.00</ele>
        <time>2013-07-27T12:59:16Z</time>
      </trkpt>
      <trkpt lat="42.423582000" lon="-2.415641000">
        <ele>459.10</ele>
        <time>2013-07-27T12:59:17Z</time>
      </trkpt>
      <trkpt lat="42.423582000" lon="-2.415641000">
        <ele>459.00</ele>
        <time>2013-07-27T12:59:18Z</time>
      </trkpt>
      <trkpt lat="42.423582000" lon="-2.415641000">
        <ele>459.00</ele>
        <time>2013-07-27T12:59:19Z</time>
      </trkpt>
      <trkpt lat="42.423582000" lon="-2.415640000">
        <ele>459.10</ele>
        <time>2013-07-27T12:59:20Z</time>
      </trkpt>
      <trkpt lat="42.423581000" lon="-2.415640000">
        <ele>459.20</ele>
        <time>2013-07-27T12:59:21Z</time>
      </trkpt>
      <trkpt lat="42.423581000" lon="-2.415640000">
        <ele>459.10</ele>
        <time>2013-07-27T12:59:22Z</time>
      </trkpt>
      <trkpt lat="42.423581000" lon="-2.415640000">
        <ele>459.00</ele>
        <time>2013-07-27T12:59:23Z</time>
      </trkpt>
      <trkpt lat="42.423581000" lon="-2.415641000">
        <ele>459.10</ele>
        <time>2013-07-27T12:59:24Z</time>
      </trkpt>
      <trkpt lat="42.423581000" lon="-2.415642000">
        <ele>459.20</ele>
        <time>2013-07-27T12:59:25Z</time>
      </trkpt>
      <trkpt lat="42.423581000" lon="-2.415643000">
        <ele>459.00</ele>
        <time>2013-07-27T12:59:26Z</time>
      </trkpt>
      <trkpt lat="42.423581000" lon="-2.415643000">
        <ele>458.90</ele>
        <time>2013-07-27T12:59:27Z</time>
      </trkpt>
      <trkpt lat="42.423580000" lon="-2.415644000">
        <ele>458.90</ele>
        <time>2013-07-27T12:59:28Z</time>
      </trkpt>
      <trkpt lat="42.423580000" lon="-2.415644000">
        <ele>458.90</ele>
        <time>2013-07-27T12:59:29Z</time>
      </trkpt>
      <trkpt lat="42.423580000" lon="-2.415645000">
        <ele>458.90</ele>
        <time>2013-07-27T12:59:30Z</time>
      </trkpt>
      <trkpt lat="42.423580000" lon="-2.415645000">
        <ele>458.90</ele>
        <time>2013-07-27T12:59:31Z</time>
      </trkpt>
      <trkpt lat="42.423580000" lon="-2.415645000">
        <ele>458.90</ele>
        <time>2013-07-27T12:59:32Z</time>
      </trkpt>
      <trkpt lat="42.423580000" lon="-2.415645000">
        <ele>458.90</ele>
        <time>2013-07-27T12:59:33Z</time>
      </trkpt>
      <trkpt lat="42.423581000" lon="-2.415645000">
        <ele>459.00</ele>
        <time>2013-07-27T12:59:34Z</time>
      </trkpt>
      <trkpt lat="42.423581000" lon="-2.415645000">
        <ele>459.10</ele>
        <time>2013-07-27T12:59:35Z</time>
      </trkpt>
      <trkpt lat="42.423581000" lon="-2.415646000">
        <ele>459.10</ele>
        <time>2013-07-27T12:59:36Z</time>
      </trkpt>
      <trkpt lat="42.423581000" lon="-2.415646000">
        <ele>459.00</ele>
        <time>2013-07-27T12:59:37Z</time>
      </trkpt>
      <trkpt lat="42.423581000" lon="-2.415645000">
        <ele>459.10</ele>
        <time>2013-07-27T12:59:38Z</time>
      </trkpt>
      <trkpt lat="42.423582000" lon="-2.415645000">
        <ele>459.10</ele>
        <time>2013-07-27T12:59:39Z</time>
      </trkpt>
      <trkpt lat="42.423582000" lon="-2.415644000">
        <ele>459.10</ele>
        <time>2013-07-27T12:59:40Z</time>
      </trkpt>
      <trkpt lat="42.423582000" lon="-2.415645000">
        <ele>459.10</ele>
        <time>2013-07-27T12:59:41Z</time>
      </trkpt>
      <trkpt lat="42.423582000" lon="-2.415644000">
        <ele>459.20</ele>
        <time>2013-07-27T12:59:42Z</time>
      </trkpt>
      <trkpt lat="42.423582000" lon="-2.415644000">
        <ele>459.30</ele>
        <time>2013-07-27T12:59:43Z</time>
      </trkpt>
      <trkpt lat="42.423582000" lon="-2.415644000">
        <ele>459.30</ele>
        <time>2013-07-27T12:59:44Z</time>
      </trkpt>
      <trkpt lat="42.423582000" lon="-2.415644000">
        <ele>459.30</ele>
        <time>2013-07-27T12:59:45Z</time>
      </trkpt>
      <trkpt lat="42.423582000" lon="-2.415644000">
        <ele>459.40</ele>
        <time>2013-07-27T12:59:46Z</time>
      </trkpt>
      <trkpt lat="42.423582000" lon="-2.415645000">
        <ele>459.40</ele>
        <time>2013-07-27T12:59:47Z</time>
      </trkpt>
      <trkpt lat="42.423582000" lon="-2.415645000">
        <ele>459.50</ele>
        <time>2013-07-27T12:59:48Z</time>
      </trkpt>
      <trkpt lat="42.423582000" lon="-2.415644000">
        <ele>459.60</ele>
        <time>2013-07-27T12:59:49Z</time>
      </trkpt>
      <trkpt lat="42.423583000" lon="-2.415644000">
        <ele>459.60</ele>
        <time>2013-07-27T12:59:50Z</time>
      </trkpt>
      <trkpt lat="42.423583000" lon="-2.415644000">
        <ele>459.70</ele>
        <time>2013-07-27T12:59:51Z</time>
      </trkpt>
      <trkpt lat="42.423583000" lon="-2.415644000">
        <ele>459.60</ele>
        <time>2013-07-27T12:59:52Z</time>
      </trkpt>
      <trkpt lat="42.423583000" lon="-2.415645000">
        <ele>459.50</ele>
        <time>2013-07-27T12:59:53Z</time>
      </trkpt>
      <trkpt lat="42.423583000" lon="-2.415646000">
        <ele>459.40</ele>
        <time>2013-07-27T12:59:54Z</time>
      </trkpt>
      <trkpt lat="42.423583000" lon="-2.415646000">
        <ele>459.40</ele>
        <time>2013-07-27T12:59:55Z</time>
      </trkpt>
      <trkpt lat="42.423583000" lon="-2.415647000">
        <ele>459.40</ele>
        <time>2013-07-27T12:59:56Z</time>
      </trkpt>
      <trkpt lat="42.423583000" lon="-2.415647000">
        <ele>459.30</ele>
        <time>2013-07-27T12:59:57Z</time>
      </trkpt>
      <trkpt lat="42.423582000" lon="-2.415647000">
        <ele>459.20</ele>
        <time>2013-07-27T12:59:58Z</time>
      </trkpt>
      <trkpt lat="42.423582000" lon="-2.415647000">
        <ele>459.20</ele>
        <time>2013-07-27T12:59:59Z</time>
      </trkpt>
      <trkpt lat="42.423582000" lon="-2.415647000">
        <ele>459.10</ele>
        <time>2013-07-27T13:00:00Z</time>
      </trkpt>
      <trkpt lat="42.423582000" lon="-2.415647000">
        <ele>459.10</ele>
        <time>2013-07-27T13:00:01Z</time>
      </trkpt>
      <trkpt lat="42.423582000" lon="-2.415646000">
        <ele>459.10</ele>
        <time>2013-07-27T13:00:02Z</time>
      </trkpt>
      <trkpt lat="42.423582000" lon="-2.415646000">
        <ele>459.10</ele>
        <time>2013-07-27T13:00:03Z</time>
      </trkpt>
      <trkpt lat="42.423584000" lon="-2.415643000">
        <ele>459.00</ele>
        <time>2013-07-27T13:00:04Z</time>
      </trkpt>
      <trkpt lat="42.423580000" lon="-2.415635000">
        <ele>459.00</ele>
        <time>2013-07-27T13:00:05Z</time>
      </trkpt>
      <trkpt lat="42.423576000" lon="-2.415624000">
        <ele>459.00</ele>
        <time>2013-07-27T13:00:06Z</time>
      </trkpt>
      <trkpt lat="42.423575000" lon="-2.415624000">
        <ele>459.00</ele>
        <time>2013-07-27T13:00:07Z</time>
      </trkpt>
      <trkpt lat="42.423578000" lon="-2.415630000">
        <ele>458.90</ele>
        <time>2013-07-27T13:00:08Z</time>
      </trkpt>
      <trkpt lat="42.423579000" lon="-2.415633000">
        <ele>458.80</ele>
        <time>2013-07-27T13:00:09Z</time>
      </trkpt>
      <trkpt lat="42.423580000" lon="-2.415633000">
        <ele>458.80</ele>
        <time>2013-07-27T13:00:10Z</time>
      </trkpt>
      <trkpt lat="42.423580000" lon="-2.415631000">
        <ele>458.90</ele>
        <time>2013-07-27T13:00:11Z</time>
      </trkpt>
      <trkpt lat="42.423585000" lon="-2.415626000">
        <ele>458.80</ele>
        <time>2013-07-27T13:00:12Z</time>
      </trkpt>
      <trkpt lat="42.423591000" lon="-2.415619000">
        <ele>458.80</ele>
        <time>2013-07-27T13:00:13Z</time>
      </trkpt>
      <trkpt lat="42.423610000" lon="-2.415600000">
        <ele>458.70</ele>
        <time>2013-07-27T13:00:14Z</time>
      </trkpt>
      <trkpt lat="42.423629000" lon="-2.415586000">
        <ele>458.60</ele>
        <time>2013-07-27T13:00:15Z</time>
      </trkpt>
      <trkpt lat="42.423648000" lon="-2.415580000">
        <ele>458.60</ele>
        <time>2013-07-27T13:00:16Z</time>
      </trkpt>
      <trkpt lat="42.423671000" lon="-2.415588000">
        <ele>458.60</ele>
        <time>2013-07-27T13:00:17Z</time>
      </trkpt>
      <trkpt lat="42.423692000" lon="-2.415603000">
        <ele>458.50</ele>
        <time>2013-07-27T13:00:18Z</time>
      </trkpt>
      <trkpt lat="42.423716000" lon="-2.415617000">
        <ele>458.50</ele>
        <time>2013-07-27T13:00:19Z</time>
      </trkpt>
      <trkpt lat="42.423742000" lon="-2.415633000">
        <ele>458.60</ele>
        <time>2013-07-27T13:00:20Z</time>
      </trkpt>
      <trkpt lat="42.423769000" lon="-2.415645000">
        <ele>458.60</ele>
        <time>2013-07-27T13:00:21Z</time>
      </trkpt>
      <trkpt lat="42.423792000" lon="-2.415651000">
        <ele>458.60</ele>
        <time>2013-07-27T13:00:22Z</time>
      </trkpt>
      <trkpt lat="42.423821000" lon="-2.415660000">
        <ele>458.70</ele>
        <time>2013-07-27T13:00:23Z</time>
      </trkpt>
      <trkpt lat="42.423850000" lon="-2.415675000">
        <ele>458.80</ele>
        <time>2013-07-27T13:00:24Z</time>
      </trkpt>
      <trkpt lat="42.423884000" lon="-2.415683000">
        <ele>458.90</ele>
        <time>2013-07-27T13:00:25Z</time>
      </trkpt>
      <trkpt lat="42.423916000" lon="-2.415692000">
        <ele>459.00</ele>
        <time>2013-07-27T13:00:26Z</time>
      </trkpt>
      <trkpt lat="42.423951000" lon="-2.415701000">
        <ele>459.20</ele>
        <time>2013-07-27T13:00:27Z</time>
      </trkpt>
      <trkpt lat="42.423993000" lon="-2.415709000">
        <ele>459.20</ele>
        <time>2013-07-27T13:00:28Z</time>
      </trkpt>
      <trkpt lat="42.424034000" lon="-2.415712000">
        <ele>459.30</ele>
        <time>2013-07-27T13:00:29Z</time>
      </trkpt>
      <trkpt lat="42.424077000" lon="-2.415713000">
        <ele>459.40</ele>
        <time>2013-07-27T13:00:30Z</time>
      </trkpt>
      <trkpt lat="42.424119000" lon="-2.415710000">
        <ele>459.40</ele>
        <time>2013-07-27T13:00:31Z</time>
      </trkpt>
      <trkpt lat="42.424159000" lon="-2.415702000">
        <ele>459.40</ele>
        <time>2013-07-27T13:00:32Z</time>
      </trkpt>
      <trkpt lat="42.424196000" lon="-2.415700000">
        <ele>459.50</ele>
        <time>2013-07-27T13:00:33Z</time>
      </trkpt>
      <trkpt lat="42.424232000" lon="-2.415689000">
        <ele>459.40</ele>
        <time>2013-07-27T13:00:34Z</time>
      </trkpt>
      <trkpt lat="42.424262000" lon="-2.415678000">
        <ele>459.40</ele>
        <time>2013-07-27T13:00:35Z</time>
      </trkpt>
      <trkpt lat="42.424290000" lon="-2.415672000">
        <ele>459.30</ele>
        <time>2013-07-27T13:00:36Z</time>
      </trkpt>
      <trkpt lat="42.424317000" lon="-2.415668000">
        <ele>459.30</ele>
        <time>2013-07-27T13:00:37Z</time>
      </trkpt>
      <trkpt lat="42.424343000" lon="-2.415665000">
        <ele>459.30</ele>
        <time>2013-07-27T13:00:38Z</time>
      </trkpt>
      <trkpt lat="42.424369000" lon="-2.415666000">
        <ele>459.30</ele>
        <time>2013-07-27T13:00:39Z</time>
      </trkpt>
      <trkpt lat="42.424394000" lon="-2.415665000">
        <ele>459.10</ele>
        <time>2013-07-27T13:00:40Z</time>
      </trkpt>
      <trkpt lat="42.424420000" lon="-2.415664000">
        <ele>459.00</ele>
        <time>2013-07-27T13:00:41Z</time>
      </trkpt>
      <trkpt lat="42.424444000" lon="-2.415661000">
        <ele>458.70</ele>
        <time>2013-07-27T13:00:42Z</time>
      </trkpt>
      <trkpt lat="42.424466000" lon="-2.415653000">
        <ele>458.60</ele>
        <time>2013-07-27T13:00:43Z</time>
      </trkpt>
      <trkpt lat="42.424487000" lon="-2.415651000">
        <ele>458.40</ele>
        <time>2013-07-27T13:00:44Z</time>
      </trkpt>
      <trkpt lat="42.424509000" lon="-2.415644000">
        <ele>458.20</ele>
        <time>2013-07-27T13:00:45Z</time>
      </trkpt>
      <trkpt lat="42.424528000" lon="-2.415636000">
        <ele>458.00</ele>
        <time>2013-07-27T13:00:46Z</time>
      </trkpt>
      <trkpt lat="42.424543000" lon="-2.415619000">
        <ele>457.80</ele>
        <time>2013-07-27T13:00:47Z</time>
      </trkpt>
      <trkpt lat="42.424557000" lon="-2.415604000">
        <ele>457.60</ele>
        <time>2013-07-27T13:00:48Z</time>
      </trkpt>
      <trkpt lat="42.424574000" lon="-2.415597000">
        <ele>457.40</ele>
        <time>2013-07-27T13:00:49Z</time>
      </trkpt>
      <trkpt lat="42.424594000" lon="-2.415596000">
        <ele>457.30</ele>
        <time>2013-07-27T13:00:50Z</time>
      </trkpt>
      <trkpt lat="42.424613000" lon="-2.415591000">
        <ele>457.20</ele>
        <time>2013-07-27T13:00:51Z</time>
      </trkpt>
      <trkpt lat="42.424634000" lon="-2.415590000">
        <ele>457.10</ele>
        <time>2013-07-27T13:00:52Z</time>
      </trkpt>
      <trkpt lat="42.424653000" lon="-2.415596000">
        <ele>457.10</ele>
        <time>2013-07-27T13:00:53Z</time>
      </trkpt>
      <trkpt lat="42.424664000" lon="-2.415610000">
        <ele>457.20</ele>
        <time>2013-07-27T13:00:54Z</time>
      </trkpt>
      <trkpt lat="42.424668000" lon="-2.415630000">
        <ele>457.40</ele>
        <time>2013-07-27T13:00:55Z</time>
      </trkpt>
      <trkpt lat="42.424660000" lon="-2.415641000">
        <ele>457.50</ele>
        <time>2013-07-27T13:00:56Z</time>
      </trkpt>
      <trkpt lat="42.424651000" lon="-2.415647000">
        <ele>457.50</ele>
        <time>2013-07-27T13:00:57Z</time>
      </trkpt>
      <trkpt lat="42.424648000" lon="-2.415656000">
        <ele>457.60</ele>
        <time>2013-07-27T13:00:58Z</time>
      </trkpt>
      <trkpt lat="42.424648000" lon="-2.415667000">
        <ele>457.60</ele>
        <time>2013-07-27T13:00:59Z</time>
      </trkpt>
      <trkpt lat="42.424650000" lon="-2.415680000">
        <ele>457.60</ele>
        <time>2013-07-27T13:01:00Z</time>
      </trkpt>
      <trkpt lat="42.424652000" lon="-2.415694000">
        <ele>457.60</ele>
        <time>2013-07-27T13:01:01Z</time>
      </trkpt>
      <trkpt lat="42.424657000" lon="-2.415707000">
        <ele>457.60</ele>
        <time>2013-07-27T13:01:02Z</time>
      </trkpt>
      <trkpt lat="42.424658000" lon="-2.415719000">
        <ele>457.70</ele>
        <time>2013-07-27T13:01:03Z</time>
      </trkpt>
      <trkpt lat="42.424657000" lon="-2.415735000">
        <ele>457.60</ele>
        <time>2013-07-27T13:01:04Z</time>
      </trkpt>
      <trkpt lat="42.424652000" lon="-2.415737000">
        <ele>457.60</ele>
        <time>2013-07-27T13:01:05Z</time>
      </trkpt>
      <trkpt lat="42.424647000" lon="-2.415736000">
        <ele>457.60</ele>
        <time>2013-07-27T13:01:06Z</time>
      </trkpt>
      <trkpt lat="42.424645000" lon="-2.415740000">
        <ele>457.60</ele>
        <time>2013-07-27T13:01:07Z</time>
      </trkpt>
      <trkpt lat="42.424643000" lon="-2.415739000">
        <ele>457.50</ele>
        <time>2013-07-27T13:01:08Z</time>
      </trkpt>
      <trkpt lat="42.424641000" lon="-2.415739000">
        <ele>457.50</ele>
        <time>2013-07-27T13:01:09Z</time>
      </trkpt>
      <trkpt lat="42.424634000" lon="-2.415739000">
        <ele>457.40</ele>
        <time>2013-07-27T13:01:10Z</time>
      </trkpt>
      <trkpt lat="42.424629000" lon="-2.415737000">
        <ele>457.40</ele>
        <time>2013-07-27T13:01:11Z</time>
      </trkpt>
      <trkpt lat="42.424626000" lon="-2.415734000">
        <ele>457.40</ele>
        <time>2013-07-27T13:01:12Z</time>
      </trkpt>
      <trkpt lat="42.424623000" lon="-2.415735000">
        <ele>457.40</ele>
        <time>2013-07-27T13:01:13Z</time>
      </trkpt>
      <trkpt lat="42.424618000" lon="-2.415733000">
        <ele>457.40</ele>
        <time>2013-07-27T13:01:14Z</time>
      </trkpt>
      <trkpt lat="42.424613000" lon="-2.415734000">
        <ele>457.40</ele>
        <time>2013-07-27T13:01:15Z</time>
      </trkpt>
      <trkpt lat="42.424612000" lon="-2.415732000">
        <ele>457.40</ele>
        <time>2013-07-27T13:01:16Z</time>
      </trkpt>
      <trkpt lat="42.424609000" lon="-2.415732000">
        <ele>457.50</ele>
        <time>2013-07-27T13:01:17Z</time>
      </trkpt>
      <trkpt lat="42.424608000" lon="-2.415737000">
        <ele>457.60</ele>
        <time>2013-07-27T13:01:18Z</time>
      </trkpt>
      <trkpt lat="42.424606000" lon="-2.415741000">
        <ele>457.60</ele>
        <time>2013-07-27T13:01:19Z</time>
      </trkpt>
      <trkpt lat="42.424605000" lon="-2.415741000">
        <ele>457.70</ele>
        <time>2013-07-27T13:01:20Z</time>
      </trkpt>
      <trkpt lat="42.424602000" lon="-2.415743000">
        <ele>457.70</ele>
        <time>2013-07-27T13:01:21Z</time>
      </trkpt>
      <trkpt lat="42.424603000" lon="-2.415746000">
        <ele>457.80</ele>
        <time>2013-07-27T13:01:22Z</time>
      </trkpt>
      <trkpt lat="42.424602000" lon="-2.415750000">
        <ele>457.80</ele>
        <time>2013-07-27T13:01:23Z</time>
      </trkpt>
      <trkpt lat="42.424606000" lon="-2.415752000">
        <ele>457.80</ele>
        <time>2013-07-27T13:01:24Z</time>
      </trkpt>
      <trkpt lat="42.424608000" lon="-2.415756000">
        <ele>457.80</ele>
        <time>2013-07-27T13:01:25Z</time>
      </trkpt>
      <trkpt lat="42.424609000" lon="-2.415757000">
        <ele>457.90</ele>
        <time>2013-07-27T13:01:26Z</time>
      </trkpt>
      <trkpt lat="42.424609000" lon="-2.415760000">
        <ele>457.90</ele>
        <time>2013-07-27T13:01:27Z</time>
      </trkpt>
      <trkpt lat="42.424610000" lon="-2.415765000">
        <ele>458.00</ele>
        <time>2013-07-27T13:01:28Z</time>
      </trkpt>
      <trkpt lat="42.424609000" lon="-2.415770000">
        <ele>458.00</ele>
        <time>2013-07-27T13:01:29Z</time>
      </trkpt>
      <trkpt lat="42.424607000" lon="-2.415774000">
        <ele>458.00</ele>
        <time>2013-07-27T13:01:30Z</time>
      </trkpt>
      <trkpt lat="42.424607000" lon="-2.415777000">
        <ele>458.10</ele>
        <time>2013-07-27T13:01:31Z</time>
      </trkpt>
      <trkpt lat="42.424605000" lon="-2.415781000">
        <ele>457.90</ele>
        <time>2013-07-27T13:01:32Z</time>
      </trkpt>
      <trkpt lat="42.424606000" lon="-2.415785000">
        <ele>457.80</ele>
        <time>2013-07-27T13:01:33Z</time>
      </trkpt>
      <trkpt lat="42.424605000" lon="-2.415787000">
        <ele>457.70</ele>
        <time>2013-07-27T13:01:34Z</time>
      </trkpt>
      <trkpt lat="42.424605000" lon="-2.415787000">
        <ele>457.60</ele>
        <time>2013-07-27T13:01:35Z</time>
      </trkpt>
      <trkpt lat="42.424607000" lon="-2.415788000">
        <ele>457.50</ele>
        <time>2013-07-27T13:01:36Z</time>
      </trkpt>
      <trkpt lat="42.424607000" lon="-2.415787000">
        <ele>457.40</ele>
        <time>2013-07-27T13:01:37Z</time>
      </trkpt>
      <trkpt lat="42.424607000" lon="-2.415787000">
        <ele>457.40</ele>
        <time>2013-07-27T13:01:38Z</time>
      </trkpt>
      <trkpt lat="42.424607000" lon="-2.415788000">
        <ele>457.30</ele>
        <time>2013-07-27T13:01:39Z</time>
      </trkpt>
      <trkpt lat="42.424607000" lon="-2.415788000">
        <ele>457.50</ele>
        <time>2013-07-27T13:01:40Z</time>
      </trkpt>
      <trkpt lat="42.424608000" lon="-2.415787000">
        <ele>457.60</ele>
        <time>2013-07-27T13:01:41Z</time>
      </trkpt>
      <trkpt lat="42.424609000" lon="-2.415787000">
        <ele>457.50</ele>
        <time>2013-07-27T13:01:42Z</time>
      </trkpt>
      <trkpt lat="42.424612000" lon="-2.415785000">
        <ele>457.50</ele>
        <time>2013-07-27T13:01:43Z</time>
      </trkpt>
      <trkpt lat="42.424612000" lon="-2.415782000">
        <ele>457.50</ele>
        <time>2013-07-27T13:01:44Z</time>
      </trkpt>
      <trkpt lat="42.424609000" lon="-2.415778000">
        <ele>457.50</ele>
        <time>2013-07-27T13:01:45Z</time>
      </trkpt>
      <trkpt lat="42.424607000" lon="-2.415775000">
        <ele>457.50</ele>
        <time>2013-07-27T13:01:46Z</time>
      </trkpt>
      <trkpt lat="42.424607000" lon="-2.415774000">
        <ele>457.50</ele>
        <time>2013-07-27T13:01:47Z</time>
      </trkpt>
      <trkpt lat="42.424604000" lon="-2.415783000">
        <ele>457.60</ele>
        <time>2013-07-27T13:01:48Z</time>
      </trkpt>
      <trkpt lat="42.424599000" lon="-2.415802000">
        <ele>457.60</ele>
        <time>2013-07-27T13:01:49Z</time>
      </trkpt>
      <trkpt lat="42.424597000" lon="-2.415826000">
        <ele>457.70</ele>
        <time>2013-07-27T13:01:50Z</time>
      </trkpt>
      <trkpt lat="42.424596000" lon="-2.415854000">
        <ele>457.70</ele>
        <time>2013-07-27T13:01:51Z</time>
      </trkpt>
      <trkpt lat="42.424594000" lon="-2.415887000">
        <ele>457.80</ele>
        <time>2013-07-27T13:01:52Z</time>
      </trkpt>
      <trkpt lat="42.424594000" lon="-2.415918000">
        <ele>457.80</ele>
        <time>2013-07-27T13:01:53Z</time>
      </trkpt>
      <trkpt lat="42.424602000" lon="-2.415951000">
        <ele>457.80</ele>
        <time>2013-07-27T13:01:54Z</time>
      </trkpt>
      <trkpt lat="42.424605000" lon="-2.415986000">
        <ele>457.70</ele>
        <time>2013-07-27T13:01:55Z</time>
      </trkpt>
      <trkpt lat="42.424609000" lon="-2.416023000">
        <ele>457.70</ele>
        <time>2013-07-27T13:01:56Z</time>
      </trkpt>
      <trkpt lat="42.424614000" lon="-2.416063000">
        <ele>457.60</ele>
        <time>2013-07-27T13:01:57Z</time>
      </trkpt>
      <trkpt lat="42.424612000" lon="-2.416102000">
        <ele>457.50</ele>
        <time>2013-07-27T13:01:58Z</time>
      </trkpt>
      <trkpt lat="42.424609000" lon="-2.416141000">
        <ele>457.40</ele>
        <time>2013-07-27T13:01:59Z</time>
      </trkpt>
      <trkpt lat="42.424605000" lon="-2.416182000">
        <ele>457.40</ele>
        <time>2013-07-27T13:02:00Z</time>
      </trkpt>
      <trkpt lat="42.424600000" lon="-2.416224000">
        <ele>457.30</ele>
        <time>2013-07-27T13:02:01Z</time>
      </trkpt>
      <trkpt lat="42.424598000" lon="-2.416267000">
        <ele>457.30</ele>
        <time>2013-07-27T13:02:02Z</time>
      </trkpt>
      <trkpt lat="42.424599000" lon="-2.416309000">
        <ele>457.30</ele>
        <time>2013-07-27T13:02:03Z</time>
      </trkpt>
      <trkpt lat="42.424600000" lon="-2.416357000">
        <ele>457.30</ele>
        <time>2013-07-27T13:02:04Z</time>
      </trkpt>
      <trkpt lat="42.424606000" lon="-2.416405000">
        <ele>457.10</ele>
        <time>2013-07-27T13:02:05Z</time>
      </trkpt>
      <trkpt lat="42.424617000" lon="-2.416448000">
        <ele>456.90</ele>
        <time>2013-07-27T13:02:06Z</time>
      </trkpt>
      <trkpt lat="42.424630000" lon="-2.416495000">
        <ele>456.60</ele>
        <time>2013-07-27T13:02:07Z</time>
      </trkpt>
      <trkpt lat="42.424642000" lon="-2.416543000">
        <ele>456.40</ele>
        <time>2013-07-27T13:02:08Z</time>
      </trkpt>
      <trkpt lat="42.424658000" lon="-2.416591000">
        <ele>456.30</ele>
        <time>2013-07-27T13:02:09Z</time>
      </trkpt>
      <trkpt lat="42.424674000" lon="-2.416637000">
        <ele>456.20</ele>
        <time>2013-07-27T13:02:10Z</time>
      </trkpt>
      <trkpt lat="42.424687000" lon="-2.416682000">
        <ele>456.10</ele>
        <time>2013-07-27T13:02:11Z</time>
      </trkpt>
      <trkpt lat="42.424703000" lon="-2.416725000">
        <ele>456.00</ele>
        <time>2013-07-27T13:02:12Z</time>
      </trkpt>
      <trkpt lat="42.424717000" lon="-2.416770000">
        <ele>455.90</ele>
        <time>2013-07-27T13:02:13Z</time>
      </trkpt>
      <trkpt lat="42.424731000" lon="-2.416818000">
        <ele>455.80</ele>
        <time>2013-07-27T13:02:14Z</time>
      </trkpt>
      <trkpt lat="42.424749000" lon="-2.416863000">
        <ele>455.80</ele>
        <time>2013-07-27T13:02:15Z</time>
      </trkpt>
      <trkpt lat="42.424766000" lon="-2.416910000">
        <ele>455.70</ele>
        <time>2013-07-27T13:02:16Z</time>
      </trkpt>
      <trkpt lat="42.424781000" lon="-2.416961000">
        <ele>455.70</ele>
        <time>2013-07-27T13:02:17Z</time>
      </trkpt>
      <trkpt lat="42.424800000" lon="-2.417010000">
        <ele>455.70</ele>
        <time>2013-07-27T13:02:18Z</time>
      </trkpt>
      <trkpt lat="42.424818000" lon="-2.417058000">
        <ele>455.60</ele>
        <time>2013-07-27T13:02:19Z</time>
      </trkpt>
      <trkpt lat="42.424835000" lon="-2.417108000">
        <ele>455.50</ele>
        <time>2013-07-27T13:02:20Z</time>
      </trkpt>
      <trkpt lat="42.424852000" lon="-2.417159000">
        <ele>455.50</ele>
        <time>2013-07-27T13:02:21Z</time>
      </trkpt>
      <trkpt lat="42.424869000" lon="-2.417213000">
        <ele>455.40</ele>
        <time>2013-07-27T13:02:22Z</time>
      </trkpt>
      <trkpt lat="42.424897000" lon="-2.417272000">
        <ele>455.40</ele>
        <time>2013-07-27T13:02:23Z</time>
      </trkpt>
      <trkpt lat="42.424926000" lon="-2.417335000">
        <ele>455.40</ele>
        <time>2013-07-27T13:02:24Z</time>
      </trkpt>
      <trkpt lat="42.424956000" lon="-2.417399000">
        <ele>455.30</ele>
        <time>2013-07-27T13:02:25Z</time>
      </trkpt>
      <trkpt lat="42.424985000" lon="-2.417467000">
        <ele>455.30</ele>
        <time>2013-07-27T13:02:26Z</time>
      </trkpt>
      <trkpt lat="42.425016000" lon="-2.417538000">
        <ele>455.30</ele>
        <time>2013-07-27T13:02:27Z</time>
      </trkpt>
      <trkpt lat="42.425047000" lon="-2.417612000">
        <ele>455.30</ele>
        <time>2013-07-27T13:02:28Z</time>
      </trkpt>
      <trkpt lat="42.425086000" lon="-2.417678000">
        <ele>455.10</ele>
        <time>2013-07-27T13:02:29Z</time>
      </trkpt>
      <trkpt lat="42.425122000" lon="-2.417745000">
        <ele>454.90</ele>
        <time>2013-07-27T13:02:30Z</time>
      </trkpt>
      <trkpt lat="42.425155000" lon="-2.417815000">
        <ele>454.10</ele>
        <time>2013-07-27T13:02:31Z</time>
      </trkpt>
      <trkpt lat="42.425187000" lon="-2.417885000">
        <ele>453.50</ele>
        <time>2013-07-27T13:02:32Z</time>
      </trkpt>
      <trkpt lat="42.425220000" lon="-2.417951000">
        <ele>453.10</ele>
        <time>2013-07-27T13:02:33Z</time>
      </trkpt>
      <trkpt lat="42.425253000" lon="-2.418010000">
        <ele>452.80</ele>
        <time>2013-07-27T13:02:34Z</time>
      </trkpt>
      <trkpt lat="42.425287000" lon="-2.418071000">
        <ele>452.70</ele>
        <time>2013-07-27T13:02:35Z</time>
      </trkpt>
      <trkpt lat="42.425323000" lon="-2.418130000">
        <ele>452.70</ele>
        <time>2013-07-27T13:02:36Z</time>
      </trkpt>
      <trkpt lat="42.425361000" lon="-2.418188000">
        <ele>452.60</ele>
        <time>2013-07-27T13:02:37Z</time>
      </trkpt>
      <trkpt lat="42.425400000" lon="-2.418247000">
        <ele>452.60</ele>
        <time>2013-07-27T13:02:38Z</time>
      </trkpt>
      <trkpt lat="42.425436000" lon="-2.418299000">
        <ele>452.40</ele>
        <time>2013-07-27T13:02:39Z</time>
      </trkpt>
      <trkpt lat="42.425466000" lon="-2.418344000">
        <ele>452.20</ele>
        <time>2013-07-27T13:02:40Z</time>
      </trkpt>
      <trkpt lat="42.425493000" lon="-2.418387000">
        <ele>451.90</ele>
        <time>2013-07-27T13:02:41Z</time>
      </trkpt>
      <trkpt lat="42.425531000" lon="-2.418425000">
        <ele>451.70</ele>
        <time>2013-07-27T13:02:42Z</time>
      </trkpt>
      <trkpt lat="42.425571000" lon="-2.418457000">
        <ele>451.10</ele>
        <time>2013-07-27T13:02:43Z</time>
      </trkpt>
      <trkpt lat="42.425615000" lon="-2.418493000">
        <ele>450.70</ele>
        <time>2013-07-27T13:02:44Z</time>
      </trkpt>
      <trkpt lat="42.425659000" lon="-2.418526000">
        <ele>450.50</ele>
        <time>2013-07-27T13:02:45Z</time>
      </trkpt>
      <trkpt lat="42.425706000" lon="-2.418551000">
        <ele>450.30</ele>
        <time>2013-07-27T13:02:46Z</time>
      </trkpt>
      <trkpt lat="42.425757000" lon="-2.418579000">
        <ele>450.20</ele>
        <time>2013-07-27T13:02:47Z</time>
      </trkpt>
      <trkpt lat="42.425813000" lon="-2.418609000">
        <ele>450.10</ele>
        <time>2013-07-27T13:02:48Z</time>
      </trkpt>
      <trkpt lat="42.425863000" lon="-2.418640000">
        <ele>450.00</ele>
        <time>2013-07-27T13:02:49Z</time>
      </trkpt>
      <trkpt lat="42.425917000" lon="-2.418672000">
        <ele>450.00</ele>
        <time>2013-07-27T13:02:50Z</time>
      </trkpt>
      <trkpt lat="42.425973000" lon="-2.418707000">
        <ele>449.80</ele>
        <time>2013-07-27T13:02:51Z</time>
      </trkpt>
      <trkpt lat="42.426028000" lon="-2.418756000">
        <ele>449.60</ele>
        <time>2013-07-27T13:02:52Z</time>
      </trkpt>
      <trkpt lat="42.426085000" lon="-2.418809000">
        <ele>449.40</ele>
        <time>2013-07-27T13:02:53Z</time>
      </trkpt>
      <trkpt lat="42.426148000" lon="-2.418854000">
        <ele>449.20</ele>
        <time>2013-07-27T13:02:54Z</time>
      </trkpt>
      <trkpt lat="42.426207000" lon="-2.418902000">
        <ele>448.50</ele>
        <time>2013-07-27T13:02:55Z</time>
      </trkpt>
      <trkpt lat="42.426264000" lon="-2.418949000">
        <ele>448.10</ele>
        <time>2013-07-27T13:02:56Z</time>
      </trkpt>
      <trkpt lat="42.426317000" lon="-2.418996000">
        <ele>447.70</ele>
        <time>2013-07-27T13:02:57Z</time>
      </trkpt>
      <trkpt lat="42.426365000" lon="-2.419036000">
        <ele>447.50</ele>
        <time>2013-07-27T13:02:58Z</time>
      </trkpt>
      <trkpt lat="42.426414000" lon="-2.419071000">
        <ele>446.90</ele>
        <time>2013-07-27T13:02:59Z</time>
      </trkpt>
      <trkpt lat="42.426465000" lon="-2.419094000">
        <ele>446.50</ele>
        <time>2013-07-27T13:03:00Z</time>
      </trkpt>
      <trkpt lat="42.426519000" lon="-2.419105000">
        <ele>446.20</ele>
        <time>2013-07-27T13:03:01Z</time>
      </trkpt>
      <trkpt lat="42.426571000" lon="-2.419096000">
        <ele>446.00</ele>
        <time>2013-07-27T13:03:02Z</time>
      </trkpt>
      <trkpt lat="42.426617000" lon="-2.419080000">
        <ele>445.80</ele>
        <time>2013-07-27T13:03:03Z</time>
      </trkpt>
      <trkpt lat="42.426660000" lon="-2.419052000">
        <ele>445.70</ele>
        <time>2013-07-27T13:03:04Z</time>
      </trkpt>
      <trkpt lat="42.426701000" lon="-2.419012000">
        <ele>445.70</ele>
        <time>2013-07-27T13:03:05Z</time>
      </trkpt>
      <trkpt lat="42.426746000" lon="-2.418975000">
        <ele>445.70</ele>
        <time>2013-07-27T13:03:06Z</time>
      </trkpt>
      <trkpt lat="42.426790000" lon="-2.418936000">
        <ele>445.90</ele>
        <time>2013-07-27T13:03:07Z</time>
      </trkpt>
      <trkpt lat="42.426839000" lon="-2.418905000">
        <ele>446.00</ele>
        <time>2013-07-27T13:03:08Z</time>
      </trkpt>
      <trkpt lat="42.426889000" lon="-2.418876000">
        <ele>446.00</ele>
        <time>2013-07-27T13:03:09Z</time>
      </trkpt>
      <trkpt lat="42.426940000" lon="-2.418840000">
        <ele>445.90</ele>
        <time>2013-07-27T13:03:10Z</time>
      </trkpt>
      <trkpt lat="42.426994000" lon="-2.418802000">
        <ele>445.60</ele>
        <time>2013-07-27T13:03:11Z</time>
      </trkpt>
      <trkpt lat="42.427048000" lon="-2.418764000">
        <ele>445.40</ele>
        <time>2013-07-27T13:03:12Z</time>
      </trkpt>
      <trkpt lat="42.427104000" lon="-2.418733000">
        <ele>445.30</ele>
        <time>2013-07-27T13:03:13Z</time>
      </trkpt>
      <trkpt lat="42.427164000" lon="-2.418695000">
        <ele>445.10</ele>
        <time>2013-07-27T13:03:14Z</time>
      </trkpt>
      <trkpt lat="42.427222000" lon="-2.418648000">
        <ele>445.10</ele>
        <time>2013-07-27T13:03:15Z</time>
      </trkpt>
      <trkpt lat="42.427283000" lon="-2.418602000">
        <ele>445.20</ele>
        <time>2013-07-27T13:03:16Z</time>
      </trkpt>
      <trkpt lat="42.427345000" lon="-2.418553000">
        <ele>445.20</ele>
        <time>2013-07-27T13:03:17Z</time>
      </trkpt>
      <trkpt lat="42.427413000" lon="-2.418498000">
        <ele>445.20</ele>
        <time>2013-07-27T13:03:18Z</time>
      </trkpt>
      <trkpt lat="42.427480000" lon="-2.418448000">
        <ele>444.50</ele>
        <time>2013-07-27T13:03:19Z</time>
      </trkpt>
      <trkpt lat="42.427552000" lon="-2.418401000">
        <ele>443.90</ele>
        <time>2013-07-27T13:03:20Z</time>
      </trkpt>
      <trkpt lat="42.427627000" lon="-2.418360000">
        <ele>443.50</ele>
        <time>2013-07-27T13:03:21Z</time>
      </trkpt>
      <trkpt lat="42.427703000" lon="-2.418318000">
        <ele>443.20</ele>
        <time>2013-07-27T13:03:22Z</time>
      </trkpt>
      <trkpt lat="42.427783000" lon="-2.418276000">
        <ele>442.70</ele>
        <time>2013-07-27T13:03:23Z</time>
      </trkpt>
      <trkpt lat="42.427863000" lon="-2.418231000">
        <ele>442.40</ele>
        <time>2013-07-27T13:03:24Z</time>
      </trkpt>
      <trkpt lat="42.427946000" lon="-2.418187000">
        <ele>442.00</ele>
        <time>2013-07-27T13:03:25Z</time>
      </trkpt>
      <trkpt lat="42.428032000" lon="-2.418141000">
        <ele>441.70</ele>
        <time>2013-07-27T13:03:26Z</time>
      </trkpt>
      <trkpt lat="42.428119000" lon="-2.418096000">
        <ele>441.40</ele>
        <time>2013-07-27T13:03:27Z</time>
      </trkpt>
      <trkpt lat="42.428208000" lon="-2.418053000">
        <ele>441.20</ele>
        <time>2013-07-27T13:03:28Z</time>
      </trkpt>
      <trkpt lat="42.428296000" lon="-2.418007000">
        <ele>441.10</ele>
        <time>2013-07-27T13:03:29Z</time>
      </trkpt>
      <trkpt lat="42.428387000" lon="-2.417957000">
        <ele>441.00</ele>
        <time>2013-07-27T13:03:30Z</time>
      </trkpt>
      <trkpt lat="42.428479000" lon="-2.417911000">
        <ele>440.30</ele>
        <time>2013-07-27T13:03:31Z</time>
      </trkpt>
      <trkpt lat="42.428573000" lon="-2.417863000">
        <ele>439.80</ele>
        <time>2013-07-27T13:03:32Z</time>
      </trkpt>
      <trkpt lat="42.428671000" lon="-2.417823000">
        <ele>439.20</ele>
        <time>2013-07-27T13:03:33Z</time>
      </trkpt>
      <trkpt lat="42.428770000" lon="-2.417792000">
        <ele>438.80</ele>
        <time>2013-07-27T13:03:34Z</time>
      </trkpt>
      <trkpt lat="42.428872000" lon="-2.417766000">
        <ele>437.30</ele>
        <time>2013-07-27T13:03:35Z</time>
      </trkpt>
      <trkpt lat="42.428978000" lon="-2.417754000">
        <ele>436.20</ele>
        <time>2013-07-27T13:03:36Z</time>
      </trkpt>
      <trkpt lat="42.429090000" lon="-2.417748000">
        <ele>435.30</ele>
        <time>2013-07-27T13:03:37Z</time>
      </trkpt>
      <trkpt lat="42.429201000" lon="-2.417743000">
        <ele>434.50</ele>
        <time>2013-07-27T13:03:38Z</time>
      </trkpt>
      <trkpt lat="42.429309000" lon="-2.417733000">
        <ele>434.10</ele>
        <time>2013-07-27T13:03:39Z</time>
      </trkpt>
      <trkpt lat="42.429417000" lon="-2.417724000">
        <ele>433.70</ele>
        <time>2013-07-27T13:03:40Z</time>
      </trkpt>
      <trkpt lat="42.429525000" lon="-2.417720000">
        <ele>433.40</ele>
        <time>2013-07-27T13:03:41Z</time>
      </trkpt>
      <trkpt lat="42.429638000" lon="-2.417718000">
        <ele>433.10</ele>
        <time>2013-07-27T13:03:42Z</time>
      </trkpt>
      <trkpt lat="42.429748000" lon="-2.417713000">
        <ele>432.40</ele>
        <time>2013-07-27T13:03:43Z</time>
      </trkpt>
      <trkpt lat="42.429858000" lon="-2.417712000">
        <ele>431.90</ele>
        <time>2013-07-27T13:03:44Z</time>
      </trkpt>
      <trkpt lat="42.429968000" lon="-2.417712000">
        <ele>431.30</ele>
        <time>2013-07-27T13:03:45Z</time>
      </trkpt>
      <trkpt lat="42.430075000" lon="-2.417709000">
        <ele>430.90</ele>
        <time>2013-07-27T13:03:46Z</time>
      </trkpt>
      <trkpt lat="42.430179000" lon="-2.417706000">
        <ele>430.30</ele>
        <time>2013-07-27T13:03:47Z</time>
      </trkpt>
      <trkpt lat="42.430283000" lon="-2.417699000">
        <ele>429.80</ele>
        <time>2013-07-27T13:03:48Z</time>
      </trkpt>
      <trkpt lat="42.430385000" lon="-2.417694000">
        <ele>429.10</ele>
        <time>2013-07-27T13:03:49Z</time>
      </trkpt>
      <trkpt lat="42.430486000" lon="-2.417690000">
        <ele>428.50</ele>
        <time>2013-07-27T13:03:50Z</time>
      </trkpt>
      <trkpt lat="42.430588000" lon="-2.417687000">
        <ele>427.90</ele>
        <time>2013-07-27T13:03:51Z</time>
      </trkpt>
      <trkpt lat="42.430686000" lon="-2.417681000">
        <ele>427.50</ele>
        <time>2013-07-27T13:03:52Z</time>
      </trkpt>
      <trkpt lat="42.430781000" lon="-2.417678000">
        <ele>426.80</ele>
        <time>2013-07-27T13:03:53Z</time>
      </trkpt>
      <trkpt lat="42.430871000" lon="-2.417678000">
        <ele>426.30</ele>
        <time>2013-07-27T13:03:54Z</time>
      </trkpt>
      <trkpt lat="42.430957000" lon="-2.417677000">
        <ele>425.90</ele>
        <time>2013-07-27T13:03:55Z</time>
      </trkpt>
      <trkpt lat="42.431042000" lon="-2.417668000">
        <ele>425.70</ele>
        <time>2013-07-27T13:03:56Z</time>
      </trkpt>
      <trkpt lat="42.431124000" lon="-2.417648000">
        <ele>425.40</ele>
        <time>2013-07-27T13:03:57Z</time>
      </trkpt>
      <trkpt lat="42.431206000" lon="-2.417628000">
        <ele>425.20</ele>
        <time>2013-07-27T13:03:58Z</time>
      </trkpt>
      <trkpt lat="42.431287000" lon="-2.417615000">
        <ele>424.80</ele>
        <time>2013-07-27T13:03:59Z</time>
      </trkpt>
      <trkpt lat="42.431366000" lon="-2.417592000">
        <ele>424.50</ele>
        <time>2013-07-27T13:04:00Z</time>
      </trkpt>
      <trkpt lat="42.431443000" lon="-2.417555000">
        <ele>424.10</ele>
        <time>2013-07-27T13:04:01Z</time>
      </trkpt>
      <trkpt lat="42.431519000" lon="-2.417501000">
        <ele>423.70</ele>
        <time>2013-07-27T13:04:02Z</time>
      </trkpt>
      <trkpt lat="42.431591000" lon="-2.417450000">
        <ele>423.10</ele>
        <time>2013-07-27T13:04:03Z</time>
      </trkpt>
      <trkpt lat="42.431666000" lon="-2.417399000">
        <ele>422.70</ele>
        <time>2013-07-27T13:04:04Z</time>
      </trkpt>
      <trkpt lat="42.431743000" lon="-2.417357000">
        <ele>422.20</ele>
        <time>2013-07-27T13:04:05Z</time>
      </trkpt>
      <trkpt lat="42.431812000" lon="-2.417313000">
        <ele>421.90</ele>
        <time>2013-07-27T13:04:06Z</time>
      </trkpt>
      <trkpt lat="42.431877000" lon="-2.417269000">
        <ele>421.60</ele>
        <time>2013-07-27T13:04:07Z</time>
      </trkpt>
      <trkpt lat="42.431939000" lon="-2.417225000">
        <ele>421.40</ele>
        <time>2013-07-27T13:04:08Z</time>
      </trkpt>
      <trkpt lat="42.432000000" lon="-2.417183000">
        <ele>421.20</ele>
        <time>2013-07-27T13:04:09Z</time>
      </trkpt>
      <trkpt lat="42.432062000" lon="-2.417148000">
        <ele>421.10</ele>
        <time>2013-07-27T13:04:10Z</time>
      </trkpt>
      <trkpt lat="42.432125000" lon="-2.417117000">
        <ele>420.80</ele>
        <time>2013-07-27T13:04:11Z</time>
      </trkpt>
      <trkpt lat="42.432189000" lon="-2.417090000">
        <ele>420.60</ele>
        <time>2013-07-27T13:04:12Z</time>
      </trkpt>
      <trkpt lat="42.432250000" lon="-2.417065000">
        <ele>420.70</ele>
        <time>2013-07-27T13:04:13Z</time>
      </trkpt>
      <trkpt lat="42.432311000" lon="-2.417043000">
        <ele>420.70</ele>
        <time>2013-07-27T13:04:14Z</time>
      </trkpt>
      <trkpt lat="42.432371000" lon="-2.417022000">
        <ele>420.50</ele>
        <time>2013-07-27T13:04:15Z</time>
      </trkpt>
      <trkpt lat="42.432430000" lon="-2.417000000">
        <ele>420.30</ele>
        <time>2013-07-27T13:04:16Z</time>
      </trkpt>
      <trkpt lat="42.432489000" lon="-2.416986000">
        <ele>420.30</ele>
        <time>2013-07-27T13:04:17Z</time>
      </trkpt>
      <trkpt lat="42.432545000" lon="-2.416968000">
        <ele>420.20</ele>
        <time>2013-07-27T13:04:18Z</time>
      </trkpt>
      <trkpt lat="42.432602000" lon="-2.416953000">
        <ele>420.10</ele>
        <time>2013-07-27T13:04:19Z</time>
      </trkpt>
      <trkpt lat="42.432660000" lon="-2.416938000">
        <ele>419.90</ele>
        <time>2013-07-27T13:04:20Z</time>
      </trkpt>
      <trkpt lat="42.432718000" lon="-2.416919000">
        <ele>419.80</ele>
        <time>2013-07-27T13:04:21Z</time>
      </trkpt>
      <trkpt lat="42.432777000" lon="-2.416900000">
        <ele>419.70</ele>
        <time>2013-07-27T13:04:22Z</time>
      </trkpt>
      <trkpt lat="42.432838000" lon="-2.416881000">
        <ele>419.70</ele>
        <time>2013-07-27T13:04:23Z</time>
      </trkpt>
      <trkpt lat="42.432899000" lon="-2.416864000">
        <ele>419.60</ele>
        <time>2013-07-27T13:04:24Z</time>
      </trkpt>
      <trkpt lat="42.432960000" lon="-2.416849000">
        <ele>419.50</ele>
        <time>2013-07-27T13:04:25Z</time>
      </trkpt>
      <trkpt lat="42.433022000" lon="-2.416833000">
        <ele>419.50</ele>
        <time>2013-07-27T13:04:26Z</time>
      </trkpt>
      <trkpt lat="42.433082000" lon="-2.416816000">
        <ele>419.40</ele>
        <time>2013-07-27T13:04:27Z</time>
      </trkpt>
      <trkpt lat="42.433141000" lon="-2.416801000">
        <ele>419.40</ele>
        <time>2013-07-27T13:04:28Z</time>
      </trkpt>
      <trkpt lat="42.433199000" lon="-2.416787000">
        <ele>419.30</ele>
        <time>2013-07-27T13:04:29Z</time>
      </trkpt>
      <trkpt lat="42.433255000" lon="-2.416767000">
        <ele>419.30</ele>
        <time>2013-07-27T13:04:30Z</time>
      </trkpt>
      <trkpt lat="42.433312000" lon="-2.416752000">
        <ele>419.20</ele>
        <time>2013-07-27T13:04:31Z</time>
      </trkpt>
      <trkpt lat="42.433366000" lon="-2.416736000">
        <ele>419.20</ele>
        <time>2013-07-27T13:04:32Z</time>
      </trkpt>
      <trkpt lat="42.433419000" lon="-2.416723000">
        <ele>419.10</ele>
        <time>2013-07-27T13:04:33Z</time>
      </trkpt>
      <trkpt lat="42.433471000" lon="-2.416709000">
        <ele>419.10</ele>
        <time>2013-07-27T13:04:34Z</time>
      </trkpt>
      <trkpt lat="42.433523000" lon="-2.416696000">
        <ele>419.00</ele>
        <time>2013-07-27T13:04:35Z</time>
      </trkpt>
      <trkpt lat="42.433574000" lon="-2.416684000">
        <ele>419.00</ele>
        <time>2013-07-27T13:04:36Z</time>
      </trkpt>
      <trkpt lat="42.433624000" lon="-2.416671000">
        <ele>419.00</ele>
        <time>2013-07-27T13:04:37Z</time>
      </trkpt>
      <trkpt lat="42.433673000" lon="-2.416654000">
        <ele>418.90</ele>
        <time>2013-07-27T13:04:38Z</time>
      </trkpt>
      <trkpt lat="42.433723000" lon="-2.416641000">
        <ele>418.80</ele>
        <time>2013-07-27T13:04:39Z</time>
      </trkpt>
      <trkpt lat="42.433772000" lon="-2.416627000">
        <ele>418.70</ele>
        <time>2013-07-27T13:04:40Z</time>
      </trkpt>
      <trkpt lat="42.433820000" lon="-2.416614000">
        <ele>418.50</ele>
        <time>2013-07-27T13:04:41Z</time>
      </trkpt>
      <trkpt lat="42.433866000" lon="-2.416598000">
        <ele>418.30</ele>
        <time>2013-07-27T13:04:42Z</time>
      </trkpt>
      <trkpt lat="42.433912000" lon="-2.416584000">
        <ele>418.30</ele>
        <time>2013-07-27T13:04:43Z</time>
      </trkpt>
      <trkpt lat="42.433953000" lon="-2.416567000">
        <ele>418.30</ele>
        <time>2013-07-27T13:04:44Z</time>
      </trkpt>
      <trkpt lat="42.433990000" lon="-2.416550000">
        <ele>418.40</ele>
        <time>2013-07-27T13:04:45Z</time>
      </trkpt>
      <trkpt lat="42.434028000" lon="-2.416533000">
        <ele>418.40</ele>
        <time>2013-07-27T13:04:46Z</time>
      </trkpt>
      <trkpt lat="42.434066000" lon="-2.416520000">
        <ele>418.50</ele>
        <time>2013-07-27T13:04:47Z</time>
      </trkpt>
      <trkpt lat="42.434102000" lon="-2.416505000">
        <ele>418.50</ele>
        <time>2013-07-27T13:04:48Z</time>
      </trkpt>
      <trkpt lat="42.434135000" lon="-2.416492000">
        <ele>418.30</ele>
        <time>2013-07-27T13:04:49Z</time>
      </trkpt>
      <trkpt lat="42.434170000" lon="-2.416478000">
        <ele>418.20</ele>
        <time>2013-07-27T13:04:50Z</time>
      </trkpt>
      <trkpt lat="42.434206000" lon="-2.416464000">
        <ele>418.00</ele>
        <time>2013-07-27T13:04:51Z</time>
      </trkpt>
      <trkpt lat="42.434241000" lon="-2.416454000">
        <ele>417.80</ele>
        <time>2013-07-27T13:04:52Z</time>
      </trkpt>
      <trkpt lat="42.434273000" lon="-2.416441000">
        <ele>417.70</ele>
        <time>2013-07-27T13:04:53Z</time>
      </trkpt>
      <trkpt lat="42.434302000" lon="-2.416428000">
        <ele>417.60</ele>
        <time>2013-07-27T13:04:54Z</time>
      </trkpt>
      <trkpt lat="42.434332000" lon="-2.416415000">
        <ele>417.50</ele>
        <time>2013-07-27T13:04:55Z</time>
      </trkpt>
      <trkpt lat="42.434360000" lon="-2.416399000">
        <ele>417.40</ele>
        <time>2013-07-27T13:04:56Z</time>
      </trkpt>
      <trkpt lat="42.434388000" lon="-2.416386000">
        <ele>417.50</ele>
        <time>2013-07-27T13:04:57Z</time>
      </trkpt>
      <trkpt lat="42.434417000" lon="-2.416372000">
        <ele>417.50</ele>
        <time>2013-07-27T13:04:58Z</time>
      </trkpt>
      <trkpt lat="42.434443000" lon="-2.416359000">
        <ele>417.60</ele>
        <time>2013-07-27T13:04:59Z</time>
      </trkpt>
      <trkpt lat="42.434470000" lon="-2.416345000">
        <ele>417.60</ele>
        <time>2013-07-27T13:05:00Z</time>
      </trkpt>
      <trkpt lat="42.434497000" lon="-2.416334000">
        <ele>417.50</ele>
        <time>2013-07-27T13:05:01Z</time>
      </trkpt>
      <trkpt lat="42.434526000" lon="-2.416321000">
        <ele>417.40</ele>
        <time>2013-07-27T13:05:02Z</time>
      </trkpt>
      <trkpt lat="42.434553000" lon="-2.416307000">
        <ele>417.20</ele>
        <time>2013-07-27T13:05:03Z</time>
      </trkpt>
      <trkpt lat="42.434581000" lon="-2.416299000">
        <ele>417.00</ele>
        <time>2013-07-27T13:05:04Z</time>
      </trkpt>
      <trkpt lat="42.434608000" lon="-2.416290000">
        <ele>416.90</ele>
        <time>2013-07-27T13:05:05Z</time>
      </trkpt>
      <trkpt lat="42.434632000" lon="-2.416280000">
        <ele>416.80</ele>
        <time>2013-07-27T13:05:06Z</time>
      </trkpt>
      <trkpt lat="42.434657000" lon="-2.416267000">
        <ele>416.80</ele>
        <time>2013-07-27T13:05:07Z</time>
      </trkpt>
      <trkpt lat="42.434683000" lon="-2.416259000">
        <ele>416.90</ele>
        <time>2013-07-27T13:05:08Z</time>
      </trkpt>
      <trkpt lat="42.434711000" lon="-2.416257000">
        <ele>416.90</ele>
        <time>2013-07-27T13:05:09Z</time>
      </trkpt>
      <trkpt lat="42.434739000" lon="-2.416248000">
        <ele>416.90</ele>
        <time>2013-07-27T13:05:10Z</time>
      </trkpt>
      <trkpt lat="42.434764000" lon="-2.416236000">
        <ele>416.80</ele>
        <time>2013-07-27T13:05:11Z</time>
      </trkpt>
      <trkpt lat="42.434788000" lon="-2.416228000">
        <ele>416.70</ele>
        <time>2013-07-27T13:05:12Z</time>
      </trkpt>
      <trkpt lat="42.434809000" lon="-2.416218000">
        <ele>416.60</ele>
        <time>2013-07-27T13:05:13Z</time>
      </trkpt>
      <trkpt lat="42.434825000" lon="-2.416207000">
        <ele>416.60</ele>
        <time>2013-07-27T13:05:14Z</time>
      </trkpt>
      <trkpt lat="42.434846000" lon="-2.416196000">
        <ele>416.50</ele>
        <time>2013-07-27T13:05:15Z</time>
      </trkpt>
      <trkpt lat="42.434865000" lon="-2.416191000">
        <ele>416.50</ele>
        <time>2013-07-27T13:05:16Z</time>
      </trkpt>
      <trkpt lat="42.434885000" lon="-2.416178000">
        <ele>416.60</ele>
        <time>2013-07-27T13:05:17Z</time>
      </trkpt>
      <trkpt lat="42.434907000" lon="-2.416165000">
        <ele>416.70</ele>
        <time>2013-07-27T13:05:18Z</time>
      </trkpt>
      <trkpt lat="42.434928000" lon="-2.416150000">
        <ele>416.70</ele>
        <time>2013-07-27T13:05:19Z</time>
      </trkpt>
      <trkpt lat="42.434949000" lon="-2.416136000">
        <ele>416.80</ele>
        <time>2013-07-27T13:05:20Z</time>
      </trkpt>
      <trkpt lat="42.434970000" lon="-2.416124000">
        <ele>416.80</ele>
        <time>2013-07-27T13:05:21Z</time>
      </trkpt>
      <trkpt lat="42.434992000" lon="-2.416116000">
        <ele>416.80</ele>
        <time>2013-07-27T13:05:22Z</time>
      </trkpt>
      <trkpt lat="42.435010000" lon="-2.416101000">
        <ele>416.80</ele>
        <time>2013-07-27T13:05:23Z</time>
      </trkpt>
      <trkpt lat="42.435029000" lon="-2.416087000">
        <ele>416.80</ele>
        <time>2013-07-27T13:05:24Z</time>
      </trkpt>
      <trkpt lat="42.435048000" lon="-2.416070000">
        <ele>416.80</ele>
        <time>2013-07-27T13:05:25Z</time>
      </trkpt>
      <trkpt lat="42.435067000" lon="-2.416054000">
        <ele>416.80</ele>
        <time>2013-07-27T13:05:26Z</time>
      </trkpt>
      <trkpt lat="42.435074000" lon="-2.416053000">
        <ele>416.80</ele>
        <time>2013-07-27T13:05:27Z</time>
      </trkpt>
      <trkpt lat="42.435076000" lon="-2.416053000">
        <ele>416.80</ele>
        <time>2013-07-27T13:05:28Z</time>
      </trkpt>
      <trkpt lat="42.435077000" lon="-2.416055000">
        <ele>416.70</ele>
        <time>2013-07-27T13:05:29Z</time>
      </trkpt>
      <trkpt lat="42.435081000" lon="-2.416051000">
        <ele>416.60</ele>
        <time>2013-07-27T13:05:30Z</time>
      </trkpt>
      <trkpt lat="42.435081000" lon="-2.416051000">
        <ele>416.60</ele>
        <time>2013-07-27T13:05:31Z</time>
      </trkpt>
      <trkpt lat="42.435081000" lon="-2.416051000">
        <ele>416.60</ele>
        <time>2013-07-27T13:05:32Z</time>
      </trkpt>
      <trkpt lat="42.435081000" lon="-2.416051000">
        <ele>416.50</ele>
        <time>2013-07-27T13:05:33Z</time>
      </trkpt>
      <trkpt lat="42.435080000" lon="-2.416050000">
        <ele>416.40</ele>
        <time>2013-07-27T13:05:34Z</time>
      </trkpt>
      <trkpt lat="42.435079000" lon="-2.416050000">
        <ele>416.50</ele>
        <time>2013-07-27T13:05:35Z</time>
      </trkpt>
      <trkpt lat="42.435079000" lon="-2.416048000">
        <ele>416.50</ele>
        <time>2013-07-27T13:05:36Z</time>
      </trkpt>
      <trkpt lat="42.435078000" lon="-2.416049000">
        <ele>416.40</ele>
        <time>2013-07-27T13:05:37Z</time>
      </trkpt>
      <trkpt lat="42.435077000" lon="-2.416049000">
        <ele>416.30</ele>
        <time>2013-07-27T13:05:38Z</time>
      </trkpt>
      <trkpt lat="42.435077000" lon="-2.416049000">
        <ele>416.20</ele>
        <time>2013-07-27T13:05:39Z</time>
      </trkpt>
      <trkpt lat="42.435078000" lon="-2.416047000">
        <ele>416.20</ele>
        <time>2013-07-27T13:05:40Z</time>
      </trkpt>
      <trkpt lat="42.435077000" lon="-2.416045000">
        <ele>416.10</ele>
        <time>2013-07-27T13:05:41Z</time>
      </trkpt>
      <trkpt lat="42.435076000" lon="-2.416045000">
        <ele>416.10</ele>
        <time>2013-07-27T13:05:42Z</time>
      </trkpt>
      <trkpt lat="42.435079000" lon="-2.416043000">
        <ele>416.10</ele>
        <time>2013-07-27T13:05:43Z</time>
      </trkpt>
      <trkpt lat="42.435086000" lon="-2.416038000">
        <ele>416.10</ele>
        <time>2013-07-27T13:05:44Z</time>
      </trkpt>
      <trkpt lat="42.435096000" lon="-2.416035000">
        <ele>416.10</ele>
        <time>2013-07-27T13:05:45Z</time>
      </trkpt>
      <trkpt lat="42.435116000" lon="-2.416029000">
        <ele>416.20</ele>
        <time>2013-07-27T13:05:46Z</time>
      </trkpt>
      <trkpt lat="42.435134000" lon="-2.416027000">
        <ele>416.20</ele>
        <time>2013-07-27T13:05:47Z</time>
      </trkpt>
      <trkpt lat="42.435152000" lon="-2.416025000">
        <ele>416.20</ele>
        <time>2013-07-27T13:05:48Z</time>
      </trkpt>
      <trkpt lat="42.435171000" lon="-2.416013000">
        <ele>416.20</ele>
        <time>2013-07-27T13:05:49Z</time>
      </trkpt>
      <trkpt lat="42.435196000" lon="-2.415999000">
        <ele>416.20</ele>
        <time>2013-07-27T13:05:50Z</time>
      </trkpt>
      <trkpt lat="42.435225000" lon="-2.415989000">
        <ele>416.10</ele>
        <time>2013-07-27T13:05:51Z</time>
      </trkpt>
      <trkpt lat="42.435257000" lon="-2.415981000">
        <ele>416.00</ele>
        <time>2013-07-27T13:05:52Z</time>
      </trkpt>
      <trkpt lat="42.435290000" lon="-2.415965000">
        <ele>415.90</ele>
        <time>2013-07-27T13:05:53Z</time>
      </trkpt>
      <trkpt lat="42.435323000" lon="-2.415949000">
        <ele>415.80</ele>
        <time>2013-07-27T13:05:54Z</time>
      </trkpt>
      <trkpt lat="42.435357000" lon="-2.415931000">
        <ele>415.80</ele>
        <time>2013-07-27T13:05:55Z</time>
      </trkpt>
      <trkpt lat="42.435395000" lon="-2.415913000">
        <ele>415.80</ele>
        <time>2013-07-27T13:05:56Z</time>
      </trkpt>
      <trkpt lat="42.435433000" lon="-2.415897000">
        <ele>415.80</ele>
        <time>2013-07-27T13:05:57Z</time>
      </trkpt>
      <trkpt lat="42.435471000" lon="-2.415881000">
        <ele>415.70</ele>
        <time>2013-07-27T13:05:58Z</time>
      </trkpt>
      <trkpt lat="42.435512000" lon="-2.415863000">
        <ele>415.70</ele>
        <time>2013-07-27T13:05:59Z</time>
      </trkpt>
      <trkpt lat="42.435554000" lon="-2.415848000">
        <ele>415.70</ele>
        <time>2013-07-27T13:06:00Z</time>
      </trkpt>
      <trkpt lat="42.435597000" lon="-2.415829000">
        <ele>415.80</ele>
        <time>2013-07-27T13:06:01Z</time>
      </trkpt>
      <trkpt lat="42.435636000" lon="-2.415807000">
        <ele>415.90</ele>
        <time>2013-07-27T13:06:02Z</time>
      </trkpt>
      <trkpt lat="42.435679000" lon="-2.415791000">
        <ele>416.20</ele>
        <time>2013-07-27T13:06:03Z</time>
      </trkpt>
      <trkpt lat="42.435720000" lon="-2.415771000">
        <ele>416.40</ele>
        <time>2013-07-27T13:06:04Z</time>
      </trkpt>
      <trkpt lat="42.435761000" lon="-2.415753000">
        <ele>416.50</ele>
        <time>2013-07-27T13:06:05Z</time>
      </trkpt>
      <trkpt lat="42.435804000" lon="-2.415736000">
        <ele>416.70</ele>
        <time>2013-07-27T13:06:06Z</time>
      </trkpt>
      <trkpt lat="42.435848000" lon="-2.415721000">
        <ele>416.70</ele>
        <time>2013-07-27T13:06:07Z</time>
      </trkpt>
      <trkpt lat="42.435894000" lon="-2.415708000">
        <ele>416.80</ele>
        <time>2013-07-27T13:06:08Z</time>
      </trkpt>
      <trkpt lat="42.435939000" lon="-2.415693000">
        <ele>416.70</ele>
        <time>2013-07-27T13:06:09Z</time>
      </trkpt>
      <trkpt lat="42.435983000" lon="-2.415680000">
        <ele>416.50</ele>
        <time>2013-07-27T13:06:10Z</time>
      </trkpt>
      <trkpt lat="42.436027000" lon="-2.415666000">
        <ele>416.50</ele>
        <time>2013-07-27T13:06:11Z</time>
      </trkpt>
      <trkpt lat="42.436069000" lon="-2.415652000">
        <ele>416.40</ele>
        <time>2013-07-27T13:06:12Z</time>
      </trkpt>
      <trkpt lat="42.436109000" lon="-2.415638000">
        <ele>416.30</ele>
        <time>2013-07-27T13:06:13Z</time>
      </trkpt>
      <trkpt lat="42.436148000" lon="-2.415624000">
        <ele>416.30</ele>
        <time>2013-07-27T13:06:14Z</time>
      </trkpt>
      <trkpt lat="42.436190000" lon="-2.415610000">
        <ele>416.30</ele>
        <time>2013-07-27T13:06:15Z</time>
      </trkpt>
      <trkpt lat="42.436232000" lon="-2.415597000">
        <ele>416.20</ele>
        <time>2013-07-27T13:06:16Z</time>
      </trkpt>
      <trkpt lat="42.436274000" lon="-2.415586000">
        <ele>416.30</ele>
        <time>2013-07-27T13:06:17Z</time>
      </trkpt>
      <trkpt lat="42.436315000" lon="-2.415578000">
        <ele>416.30</ele>
        <time>2013-07-27T13:06:18Z</time>
      </trkpt>
      <trkpt lat="42.436355000" lon="-2.415569000">
        <ele>416.30</ele>
        <time>2013-07-27T13:06:19Z</time>
      </trkpt>
      <trkpt lat="42.436391000" lon="-2.415556000">
        <ele>416.30</ele>
        <time>2013-07-27T13:06:20Z</time>
      </trkpt>
      <trkpt lat="42.436430000" lon="-2.415547000">
        <ele>416.40</ele>
        <time>2013-07-27T13:06:21Z</time>
      </trkpt>
      <trkpt lat="42.436471000" lon="-2.415539000">
        <ele>416.50</ele>
        <time>2013-07-27T13:06:22Z</time>
      </trkpt>
      <trkpt lat="42.436515000" lon="-2.415527000">
        <ele>416.60</ele>
        <time>2013-07-27T13:06:23Z</time>
      </trkpt>
      <trkpt lat="42.436558000" lon="-2.415518000">
        <ele>416.80</ele>
        <time>2013-07-27T13:06:24Z</time>
      </trkpt>
      <trkpt lat="42.436603000" lon="-2.415509000">
        <ele>416.90</ele>
        <time>2013-07-27T13:06:25Z</time>
      </trkpt>
      <trkpt lat="42.436644000" lon="-2.415501000">
        <ele>416.90</ele>
        <time>2013-07-27T13:06:26Z</time>
      </trkpt>
      <trkpt lat="42.436692000" lon="-2.415491000">
        <ele>417.00</ele>
        <time>2013-07-27T13:06:27Z</time>
      </trkpt>
      <trkpt lat="42.436742000" lon="-2.415480000">
        <ele>417.00</ele>
        <time>2013-07-27T13:06:28Z</time>
      </trkpt>
      <trkpt lat="42.436792000" lon="-2.415466000">
        <ele>416.90</ele>
        <time>2013-07-27T13:06:29Z</time>
      </trkpt>
      <trkpt lat="42.436841000" lon="-2.415454000">
        <ele>416.80</ele>
        <time>2013-07-27T13:06:30Z</time>
      </trkpt>
      <trkpt lat="42.436891000" lon="-2.415441000">
        <ele>416.70</ele>
        <time>2013-07-27T13:06:31Z</time>
      </trkpt>
      <trkpt lat="42.436941000" lon="-2.415430000">
        <ele>416.60</ele>
        <time>2013-07-27T13:06:32Z</time>
      </trkpt>
      <trkpt lat="42.436989000" lon="-2.415418000">
        <ele>416.60</ele>
        <time>2013-07-27T13:06:33Z</time>
      </trkpt>
      <trkpt lat="42.437038000" lon="-2.415406000">
        <ele>416.60</ele>
        <time>2013-07-27T13:06:34Z</time>
      </trkpt>
      <trkpt lat="42.437087000" lon="-2.415395000">
        <ele>416.80</ele>
        <time>2013-07-27T13:06:35Z</time>
      </trkpt>
      <trkpt lat="42.437138000" lon="-2.415384000">
        <ele>417.00</ele>
        <time>2013-07-27T13:06:36Z</time>
      </trkpt>
      <trkpt lat="42.437189000" lon="-2.415370000">
        <ele>417.20</ele>
        <time>2013-07-27T13:06:37Z</time>
      </trkpt>
      <trkpt lat="42.437240000" lon="-2.415358000">
        <ele>417.30</ele>
        <time>2013-07-27T13:06:38Z</time>
      </trkpt>
      <trkpt lat="42.437292000" lon="-2.415344000">
        <ele>416.90</ele>
        <time>2013-07-27T13:06:39Z</time>
      </trkpt>
      <trkpt lat="42.437343000" lon="-2.415330000">
        <ele>416.60</ele>
        <time>2013-07-27T13:06:40Z</time>
      </trkpt>
      <trkpt lat="42.437395000" lon="-2.415318000">
        <ele>416.40</ele>
        <time>2013-07-27T13:06:41Z</time>
      </trkpt>
      <trkpt lat="42.437447000" lon="-2.415302000">
        <ele>416.20</ele>
        <time>2013-07-27T13:06:42Z</time>
      </trkpt>
      <trkpt lat="42.437504000" lon="-2.415288000">
        <ele>416.10</ele>
        <time>2013-07-27T13:06:43Z</time>
      </trkpt>
      <trkpt lat="42.437560000" lon="-2.415275000">
        <ele>416.00</ele>
        <time>2013-07-27T13:06:44Z</time>
      </trkpt>
      <trkpt lat="42.437616000" lon="-2.415262000">
        <ele>416.00</ele>
        <time>2013-07-27T13:06:45Z</time>
      </trkpt>
      <trkpt lat="42.437672000" lon="-2.415251000">
        <ele>416.10</ele>
        <time>2013-07-27T13:06:46Z</time>
      </trkpt>
      <trkpt lat="42.437726000" lon="-2.415239000">
        <ele>416.10</ele>
        <time>2013-07-27T13:06:47Z</time>
      </trkpt>
      <trkpt lat="42.437782000" lon="-2.415224000">
        <ele>416.10</ele>
        <time>2013-07-27T13:06:48Z</time>
      </trkpt>
      <trkpt lat="42.437838000" lon="-2.415212000">
        <ele>416.00</ele>
        <time>2013-07-27T13:06:49Z</time>
      </trkpt>
      <trkpt lat="42.437894000" lon="-2.415201000">
        <ele>415.90</ele>
        <time>2013-07-27T13:06:50Z</time>
      </trkpt>
      <trkpt lat="42.437950000" lon="-2.415190000">
        <ele>415.80</ele>
        <time>2013-07-27T13:06:51Z</time>
      </trkpt>
      <trkpt lat="42.438006000" lon="-2.415178000">
        <ele>415.80</ele>
        <time>2013-07-27T13:06:52Z</time>
      </trkpt>
      <trkpt lat="42.438063000" lon="-2.415161000">
        <ele>415.70</ele>
        <time>2013-07-27T13:06:53Z</time>
      </trkpt>
      <trkpt lat="42.438122000" lon="-2.415148000">
        <ele>415.70</ele>
        <time>2013-07-27T13:06:54Z</time>
      </trkpt>
      <trkpt lat="42.438181000" lon="-2.415133000">
        <ele>415.70</ele>
        <time>2013-07-27T13:06:55Z</time>
      </trkpt>
      <trkpt lat="42.438242000" lon="-2.415121000">
        <ele>415.80</ele>
        <time>2013-07-27T13:06:56Z</time>
      </trkpt>
      <trkpt lat="42.438303000" lon="-2.415102000">
        <ele>415.90</ele>
        <time>2013-07-27T13:06:57Z</time>
      </trkpt>
      <trkpt lat="42.438366000" lon="-2.415089000">
        <ele>415.90</ele>
        <time>2013-07-27T13:06:58Z</time>
      </trkpt>
      <trkpt lat="42.438425000" lon="-2.415074000">
        <ele>416.00</ele>
        <time>2013-07-27T13:06:59Z</time>
      </trkpt>
      <trkpt lat="42.438481000" lon="-2.415060000">
        <ele>416.10</ele>
        <time>2013-07-27T13:07:00Z</time>
      </trkpt>
      <trkpt lat="42.438534000" lon="-2.415043000">
        <ele>416.10</ele>
        <time>2013-07-27T13:07:01Z</time>
      </trkpt>
      <trkpt lat="42.438587000" lon="-2.415030000">
        <ele>416.20</ele>
        <time>2013-07-27T13:07:02Z</time>
      </trkpt>
      <trkpt lat="42.438637000" lon="-2.415014000">
        <ele>416.10</ele>
        <time>2013-07-27T13:07:03Z</time>
      </trkpt>
      <trkpt lat="42.438689000" lon="-2.415005000">
        <ele>416.00</ele>
        <time>2013-07-27T13:07:04Z</time>
      </trkpt>
      <trkpt lat="42.438743000" lon="-2.415000000">
        <ele>415.90</ele>
        <time>2013-07-27T13:07:05Z</time>
      </trkpt>
      <trkpt lat="42.438800000" lon="-2.414990000">
        <ele>415.90</ele>
        <time>2013-07-27T13:07:06Z</time>
      </trkpt>
      <trkpt lat="42.438855000" lon="-2.414986000">
        <ele>415.90</ele>
        <time>2013-07-27T13:07:07Z</time>
      </trkpt>
      <trkpt lat="42.438909000" lon="-2.414981000">
        <ele>415.80</ele>
        <time>2013-07-27T13:07:08Z</time>
      </trkpt>
      <trkpt lat="42.438963000" lon="-2.414981000">
        <ele>415.90</ele>
        <time>2013-07-27T13:07:09Z</time>
      </trkpt>
      <trkpt lat="42.439020000" lon="-2.414979000">
        <ele>415.90</ele>
        <time>2013-07-27T13:07:10Z</time>
      </trkpt>
      <trkpt lat="42.439077000" lon="-2.414979000">
        <ele>415.90</ele>
        <time>2013-07-27T13:07:11Z</time>
      </trkpt>
      <trkpt lat="42.439135000" lon="-2.414982000">
        <ele>415.90</ele>
        <time>2013-07-27T13:07:12Z</time>
      </trkpt>
      <trkpt lat="42.439193000" lon="-2.414988000">
        <ele>416.00</ele>
        <time>2013-07-27T13:07:13Z</time>
      </trkpt>
      <trkpt lat="42.439252000" lon="-2.414995000">
        <ele>416.10</ele>
        <time>2013-07-27T13:07:14Z</time>
      </trkpt>
      <trkpt lat="42.439310000" lon="-2.415002000">
        <ele>416.10</ele>
        <time>2013-07-27T13:07:15Z</time>
      </trkpt>
      <trkpt lat="42.439370000" lon="-2.415006000">
        <ele>416.10</ele>
        <time>2013-07-27T13:07:16Z</time>
      </trkpt>
      <trkpt lat="42.439430000" lon="-2.415010000">
        <ele>416.10</ele>
        <time>2013-07-27T13:07:17Z</time>
      </trkpt>
      <trkpt lat="42.439491000" lon="-2.415010000">
        <ele>416.20</ele>
        <time>2013-07-27T13:07:18Z</time>
      </trkpt>
      <trkpt lat="42.439550000" lon="-2.415006000">
        <ele>416.00</ele>
        <time>2013-07-27T13:07:19Z</time>
      </trkpt>
      <trkpt lat="42.439603000" lon="-2.414993000">
        <ele>416.00</ele>
        <time>2013-07-27T13:07:20Z</time>
      </trkpt>
      <trkpt lat="42.439657000" lon="-2.414979000">
        <ele>415.90</ele>
        <time>2013-07-27T13:07:21Z</time>
      </trkpt>
      <trkpt lat="42.439708000" lon="-2.414959000">
        <ele>415.80</ele>
        <time>2013-07-27T13:07:22Z</time>
      </trkpt>
      <trkpt lat="42.439759000" lon="-2.414936000">
        <ele>415.70</ele>
        <time>2013-07-27T13:07:23Z</time>
      </trkpt>
      <trkpt lat="42.439808000" lon="-2.414911000">
        <ele>415.70</ele>
        <time>2013-07-27T13:07:24Z</time>
      </trkpt>
      <trkpt lat="42.439859000" lon="-2.414884000">
        <ele>415.70</ele>
        <time>2013-07-27T13:07:25Z</time>
      </trkpt>
      <trkpt lat="42.439912000" lon="-2.414860000">
        <ele>415.70</ele>
        <time>2013-07-27T13:07:26Z</time>
      </trkpt>
      <trkpt lat="42.439962000" lon="-2.414832000">
        <ele>415.60</ele>
        <time>2013-07-27T13:07:27Z</time>
      </trkpt>
      <trkpt lat="42.440013000" lon="-2.414803000">
        <ele>415.60</ele>
        <time>2013-07-27T13:07:28Z</time>
      </trkpt>
      <trkpt lat="42.440069000" lon="-2.414776000">
        <ele>415.40</ele>
        <time>2013-07-27T13:07:29Z</time>
      </trkpt>
      <trkpt lat="42.440126000" lon="-2.414753000">
        <ele>415.30</ele>
        <time>2013-07-27T13:07:30Z</time>
      </trkpt>
      <trkpt lat="42.440187000" lon="-2.414738000">
        <ele>415.40</ele>
        <time>2013-07-27T13:07:31Z</time>
      </trkpt>
      <trkpt lat="42.440249000" lon="-2.414729000">
        <ele>415.40</ele>
        <time>2013-07-27T13:07:32Z</time>
      </trkpt>
      <trkpt lat="42.440311000" lon="-2.414726000">
        <ele>415.60</ele>
        <time>2013-07-27T13:07:33Z</time>
      </trkpt>
      <trkpt lat="42.440370000" lon="-2.414728000">
        <ele>415.70</ele>
        <time>2013-07-27T13:07:34Z</time>
      </trkpt>
      <trkpt lat="42.440428000" lon="-2.414736000">
        <ele>415.80</ele>
        <time>2013-07-27T13:07:35Z</time>
      </trkpt>
      <trkpt lat="42.440484000" lon="-2.414744000">
        <ele>415.80</ele>
        <time>2013-07-27T13:07:36Z</time>
      </trkpt>
      <trkpt lat="42.440536000" lon="-2.414753000">
        <ele>415.90</ele>
        <time>2013-07-27T13:07:37Z</time>
      </trkpt>
      <trkpt lat="42.440588000" lon="-2.414762000">
        <ele>416.00</ele>
        <time>2013-07-27T13:07:38Z</time>
      </trkpt>
      <trkpt lat="42.440638000" lon="-2.414772000">
        <ele>415.90</ele>
        <time>2013-07-27T13:07:39Z</time>
      </trkpt>
      <trkpt lat="42.440687000" lon="-2.414782000">
        <ele>415.90</ele>
        <time>2013-07-27T13:07:40Z</time>
      </trkpt>
      <trkpt lat="42.440736000" lon="-2.414784000">
        <ele>416.00</ele>
        <time>2013-07-27T13:07:41Z</time>
      </trkpt>
      <trkpt lat="42.440784000" lon="-2.414782000">
        <ele>416.10</ele>
        <time>2013-07-27T13:07:42Z</time>
      </trkpt>
      <trkpt lat="42.440835000" lon="-2.414778000">
        <ele>416.00</ele>
        <time>2013-07-27T13:07:43Z</time>
      </trkpt>
      <trkpt lat="42.440883000" lon="-2.414773000">
        <ele>415.90</ele>
        <time>2013-07-27T13:07:44Z</time>
      </trkpt>
      <trkpt lat="42.440932000" lon="-2.414765000">
        <ele>415.80</ele>
        <time>2013-07-27T13:07:45Z</time>
      </trkpt>
      <trkpt lat="42.440984000" lon="-2.414755000">
        <ele>415.80</ele>
        <time>2013-07-27T13:07:46Z</time>
      </trkpt>
      <trkpt lat="42.441036000" lon="-2.414745000">
        <ele>415.80</ele>
        <time>2013-07-27T13:07:47Z</time>
      </trkpt>
      <trkpt lat="42.441079000" lon="-2.414740000">
        <ele>415.80</ele>
        <time>2013-07-27T13:07:48Z</time>
      </trkpt>
      <trkpt lat="42.441120000" lon="-2.414736000">
        <ele>415.90</ele>
        <time>2013-07-27T13:07:49Z</time>
      </trkpt>
      <trkpt lat="42.441161000" lon="-2.414731000">
        <ele>415.90</ele>
        <time>2013-07-27T13:07:50Z</time>
      </trkpt>
      <trkpt lat="42.441198000" lon="-2.414727000">
        <ele>416.00</ele>
        <time>2013-07-27T13:07:51Z</time>
      </trkpt>
      <trkpt lat="42.441234000" lon="-2.414724000">
        <ele>416.10</ele>
        <time>2013-07-27T13:07:52Z</time>
      </trkpt>
      <trkpt lat="42.441268000" lon="-2.414723000">
        <ele>415.70</ele>
        <time>2013-07-27T13:07:53Z</time>
      </trkpt>
      <trkpt lat="42.441303000" lon="-2.414718000">
        <ele>415.50</ele>
        <time>2013-07-27T13:07:54Z</time>
      </trkpt>
      <trkpt lat="42.441339000" lon="-2.414712000">
        <ele>415.30</ele>
        <time>2013-07-27T13:07:55Z</time>
      </trkpt>
      <trkpt lat="42.441373000" lon="-2.414713000">
        <ele>415.10</ele>
        <time>2013-07-27T13:07:56Z</time>
      </trkpt>
      <trkpt lat="42.441405000" lon="-2.414718000">
        <ele>415.00</ele>
        <time>2013-07-27T13:07:57Z</time>
      </trkpt>
      <trkpt lat="42.441440000" lon="-2.414719000">
        <ele>414.90</ele>
        <time>2013-07-27T13:07:58Z</time>
      </trkpt>
      <trkpt lat="42.441477000" lon="-2.414717000">
        <ele>414.90</ele>
        <time>2013-07-27T13:07:59Z</time>
      </trkpt>
      <trkpt lat="42.441515000" lon="-2.414722000">
        <ele>414.90</ele>
        <time>2013-07-27T13:08:00Z</time>
      </trkpt>
      <trkpt lat="42.441551000" lon="-2.414728000">
        <ele>414.90</ele>
        <time>2013-07-27T13:08:01Z</time>
      </trkpt>
      <trkpt lat="42.441589000" lon="-2.414735000">
        <ele>414.90</ele>
        <time>2013-07-27T13:08:02Z</time>
      </trkpt>
      <trkpt lat="42.441625000" lon="-2.414748000">
        <ele>415.00</ele>
        <time>2013-07-27T13:08:03Z</time>
      </trkpt>
      <trkpt lat="42.441661000" lon="-2.414764000">
        <ele>415.00</ele>
        <time>2013-07-27T13:08:04Z</time>
      </trkpt>
      <trkpt lat="42.441694000" lon="-2.414784000">
        <ele>415.00</ele>
        <time>2013-07-27T13:08:05Z</time>
      </trkpt>
      <trkpt lat="42.441724000" lon="-2.414805000">
        <ele>415.00</ele>
        <time>2013-07-27T13:08:06Z</time>
      </trkpt>
      <trkpt lat="42.441760000" lon="-2.414827000">
        <ele>415.00</ele>
        <time>2013-07-27T13:08:07Z</time>
      </trkpt>
      <trkpt lat="42.441795000" lon="-2.414849000">
        <ele>415.00</ele>
        <time>2013-07-27T13:08:08Z</time>
      </trkpt>
      <trkpt lat="42.441832000" lon="-2.414870000">
        <ele>415.00</ele>
        <time>2013-07-27T13:08:09Z</time>
      </trkpt>
      <trkpt lat="42.441866000" lon="-2.414892000">
        <ele>415.00</ele>
        <time>2013-07-27T13:08:10Z</time>
      </trkpt>
      <trkpt lat="42.441902000" lon="-2.414914000">
        <ele>415.10</ele>
        <time>2013-07-27T13:08:11Z</time>
      </trkpt>
      <trkpt lat="42.441933000" lon="-2.414941000">
        <ele>415.20</ele>
        <time>2013-07-27T13:08:12Z</time>
      </trkpt>
      <trkpt lat="42.441965000" lon="-2.414968000">
        <ele>415.20</ele>
        <time>2013-07-27T13:08:13Z</time>
      </trkpt>
      <trkpt lat="42.441997000" lon="-2.414992000">
        <ele>415.30</ele>
        <time>2013-07-27T13:08:14Z</time>
      </trkpt>
      <trkpt lat="42.442025000" lon="-2.415016000">
        <ele>415.30</ele>
        <time>2013-07-27T13:08:15Z</time>
      </trkpt>
      <trkpt lat="42.442052000" lon="-2.415040000">
        <ele>415.20</ele>
        <time>2013-07-27T13:08:16Z</time>
      </trkpt>
      <trkpt lat="42.442076000" lon="-2.415059000">
        <ele>415.20</ele>
        <time>2013-07-27T13:08:17Z</time>
      </trkpt>
      <trkpt lat="42.442094000" lon="-2.415075000">
        <ele>415.20</ele>
        <time>2013-07-27T13:08:18Z</time>
      </trkpt>
      <trkpt lat="42.442112000" lon="-2.415088000">
        <ele>415.10</ele>
        <time>2013-07-27T13:08:19Z</time>
      </trkpt>
      <trkpt lat="42.442127000" lon="-2.415093000">
        <ele>415.10</ele>
        <time>2013-07-27T13:08:20Z</time>
      </trkpt>
      <trkpt lat="42.442140000" lon="-2.415100000">
        <ele>415.20</ele>
        <time>2013-07-27T13:08:21Z</time>
      </trkpt>
      <trkpt lat="42.442152000" lon="-2.415109000">
        <ele>415.30</ele>
        <time>2013-07-27T13:08:22Z</time>
      </trkpt>
      <trkpt lat="42.442169000" lon="-2.415121000">
        <ele>415.50</ele>
        <time>2013-07-27T13:08:23Z</time>
      </trkpt>
      <trkpt lat="42.442190000" lon="-2.415132000">
        <ele>415.60</ele>
        <time>2013-07-27T13:08:24Z</time>
      </trkpt>
      <trkpt lat="42.442218000" lon="-2.415153000">
        <ele>415.70</ele>
        <time>2013-07-27T13:08:25Z</time>
      </trkpt>
      <trkpt lat="42.442248000" lon="-2.415176000">
        <ele>415.80</ele>
        <time>2013-07-27T13:08:26Z</time>
      </trkpt>
      <trkpt lat="42.442280000" lon="-2.415198000">
        <ele>415.80</ele>
        <time>2013-07-27T13:08:27Z</time>
      </trkpt>
      <trkpt lat="42.442317000" lon="-2.415219000">
        <ele>415.80</ele>
        <time>2013-07-27T13:08:28Z</time>
      </trkpt>
      <trkpt lat="42.442359000" lon="-2.415227000">
        <ele>415.90</ele>
        <time>2013-07-27T13:08:29Z</time>
      </trkpt>
      <trkpt lat="42.442406000" lon="-2.415239000">
        <ele>416.00</ele>
        <time>2013-07-27T13:08:30Z</time>
      </trkpt>
      <trkpt lat="42.442448000" lon="-2.415250000">
        <ele>415.70</ele>
        <time>2013-07-27T13:08:31Z</time>
      </trkpt>
      <trkpt lat="42.442489000" lon="-2.415265000">
        <ele>415.60</ele>
        <time>2013-07-27T13:08:32Z</time>
      </trkpt>
      <trkpt lat="42.442529000" lon="-2.415278000">
        <ele>415.70</ele>
        <time>2013-07-27T13:08:33Z</time>
      </trkpt>
      <trkpt lat="42.442571000" lon="-2.415291000">
        <ele>415.80</ele>
        <time>2013-07-27T13:08:34Z</time>
      </trkpt>
      <trkpt lat="42.442615000" lon="-2.415302000">
        <ele>415.30</ele>
        <time>2013-07-27T13:08:35Z</time>
      </trkpt>
      <trkpt lat="42.442658000" lon="-2.415311000">
        <ele>414.90</ele>
        <time>2013-07-27T13:08:36Z</time>
      </trkpt>
      <trkpt lat="42.442703000" lon="-2.415313000">
        <ele>414.70</ele>
        <time>2013-07-27T13:08:37Z</time>
      </trkpt>
      <trkpt lat="42.442749000" lon="-2.415322000">
        <ele>414.50</ele>
        <time>2013-07-27T13:08:38Z</time>
      </trkpt>
      <trkpt lat="42.442795000" lon="-2.415336000">
        <ele>414.20</ele>
        <time>2013-07-27T13:08:39Z</time>
      </trkpt>
      <trkpt lat="42.442839000" lon="-2.415352000">
        <ele>413.90</ele>
        <time>2013-07-27T13:08:40Z</time>
      </trkpt>
      <trkpt lat="42.442882000" lon="-2.415364000">
        <ele>413.80</ele>
        <time>2013-07-27T13:08:41Z</time>
      </trkpt>
      <trkpt lat="42.442926000" lon="-2.415376000">
        <ele>413.80</ele>
        <time>2013-07-27T13:08:42Z</time>
      </trkpt>
      <trkpt lat="42.442971000" lon="-2.415389000">
        <ele>413.70</ele>
        <time>2013-07-27T13:08:43Z</time>
      </trkpt>
      <trkpt lat="42.443013000" lon="-2.415403000">
        <ele>413.70</ele>
        <time>2013-07-27T13:08:44Z</time>
      </trkpt>
      <trkpt lat="42.443057000" lon="-2.415418000">
        <ele>413.70</ele>
        <time>2013-07-27T13:08:45Z</time>
      </trkpt>
      <trkpt lat="42.443103000" lon="-2.415429000">
        <ele>413.70</ele>
        <time>2013-07-27T13:08:46Z</time>
      </trkpt>
      <trkpt lat="42.443152000" lon="-2.415443000">
        <ele>413.60</ele>
        <time>2013-07-27T13:08:47Z</time>
      </trkpt>
      <trkpt lat="42.443203000" lon="-2.415461000">
        <ele>413.50</ele>
        <time>2013-07-27T13:08:48Z</time>
      </trkpt>
      <trkpt lat="42.443256000" lon="-2.415480000">
        <ele>413.40</ele>
        <time>2013-07-27T13:08:49Z</time>
      </trkpt>
      <trkpt lat="42.443311000" lon="-2.415497000">
        <ele>413.30</ele>
        <time>2013-07-27T13:08:50Z</time>
      </trkpt>
      <trkpt lat="42.443366000" lon="-2.415517000">
        <ele>413.20</ele>
        <time>2013-07-27T13:08:51Z</time>
      </trkpt>
      <trkpt lat="42.443422000" lon="-2.415537000">
        <ele>413.10</ele>
        <time>2013-07-27T13:08:52Z</time>
      </trkpt>
      <trkpt lat="42.443481000" lon="-2.415550000">
        <ele>413.00</ele>
        <time>2013-07-27T13:08:53Z</time>
      </trkpt>
      <trkpt lat="42.443543000" lon="-2.415564000">
        <ele>412.80</ele>
        <time>2013-07-27T13:08:54Z</time>
      </trkpt>
      <trkpt lat="42.443608000" lon="-2.415578000">
        <ele>412.30</ele>
        <time>2013-07-27T13:08:55Z</time>
      </trkpt>
      <trkpt lat="42.443674000" lon="-2.415591000">
        <ele>412.00</ele>
        <time>2013-07-27T13:08:56Z</time>
      </trkpt>
      <trkpt lat="42.443742000" lon="-2.415600000">
        <ele>411.30</ele>
        <time>2013-07-27T13:08:57Z</time>
      </trkpt>
      <trkpt lat="42.443807000" lon="-2.415618000">
        <ele>410.90</ele>
        <time>2013-07-27T13:08:58Z</time>
      </trkpt>
      <trkpt lat="42.443866000" lon="-2.415637000">
        <ele>410.40</ele>
        <time>2013-07-27T13:08:59Z</time>
      </trkpt>
      <trkpt lat="42.443917000" lon="-2.415660000">
        <ele>410.10</ele>
        <time>2013-07-27T13:09:00Z</time>
      </trkpt>
      <trkpt lat="42.443954000" lon="-2.415689000">
        <ele>409.80</ele>
        <time>2013-07-27T13:09:01Z</time>
      </trkpt>
      <trkpt lat="42.443983000" lon="-2.415715000">
        <ele>409.60</ele>
        <time>2013-07-27T13:09:02Z</time>
      </trkpt>
      <trkpt lat="42.444005000" lon="-2.415750000">
        <ele>409.50</ele>
        <time>2013-07-27T13:09:03Z</time>
      </trkpt>
      <trkpt lat="42.444023000" lon="-2.415791000">
        <ele>409.50</ele>
        <time>2013-07-27T13:09:04Z</time>
      </trkpt>
      <trkpt lat="42.444041000" lon="-2.415835000">
        <ele>409.60</ele>
        <time>2013-07-27T13:09:05Z</time>
      </trkpt>
      <trkpt lat="42.444061000" lon="-2.415881000">
        <ele>409.60</ele>
        <time>2013-07-27T13:09:06Z</time>
      </trkpt>
      <trkpt lat="42.444085000" lon="-2.415925000">
        <ele>409.50</ele>
        <time>2013-07-27T13:09:07Z</time>
      </trkpt>
      <trkpt lat="42.444108000" lon="-2.415969000">
        <ele>409.50</ele>
        <time>2013-07-27T13:09:08Z</time>
      </trkpt>
      <trkpt lat="42.444129000" lon="-2.416012000">
        <ele>409.30</ele>
        <time>2013-07-27T13:09:09Z</time>
      </trkpt>
      <trkpt lat="42.444151000" lon="-2.416054000">
        <ele>409.10</ele>
        <time>2013-07-27T13:09:10Z</time>
      </trkpt>
      <trkpt lat="42.444170000" lon="-2.416099000">
        <ele>409.00</ele>
        <time>2013-07-27T13:09:11Z</time>
      </trkpt>
      <trkpt lat="42.444190000" lon="-2.416147000">
        <ele>408.90</ele>
        <time>2013-07-27T13:09:12Z</time>
      </trkpt>
      <trkpt lat="42.444213000" lon="-2.416194000">
        <ele>408.90</ele>
        <time>2013-07-27T13:09:13Z</time>
      </trkpt>
      <trkpt lat="42.444237000" lon="-2.416241000">
        <ele>408.90</ele>
        <time>2013-07-27T13:09:14Z</time>
      </trkpt>
      <trkpt lat="42.444261000" lon="-2.416290000">
        <ele>408.90</ele>
        <time>2013-07-27T13:09:15Z</time>
      </trkpt>
      <trkpt lat="42.444286000" lon="-2.416342000">
        <ele>408.80</ele>
        <time>2013-07-27T13:09:16Z</time>
      </trkpt>
      <trkpt lat="42.444312000" lon="-2.416395000">
        <ele>408.80</ele>
        <time>2013-07-27T13:09:17Z</time>
      </trkpt>
      <trkpt lat="42.444345000" lon="-2.416447000">
        <ele>408.80</ele>
        <time>2013-07-27T13:09:18Z</time>
      </trkpt>
      <trkpt lat="42.444382000" lon="-2.416503000">
        <ele>407.80</ele>
        <time>2013-07-27T13:09:19Z</time>
      </trkpt>
      <trkpt lat="42.444423000" lon="-2.416555000">
        <ele>407.00</ele>
        <time>2013-07-27T13:09:20Z</time>
      </trkpt>
      <trkpt lat="42.444472000" lon="-2.416611000">
        <ele>406.40</ele>
        <time>2013-07-27T13:09:21Z</time>
      </trkpt>
      <trkpt lat="42.444525000" lon="-2.416668000">
        <ele>406.00</ele>
        <time>2013-07-27T13:09:22Z</time>
      </trkpt>
      <trkpt lat="42.444586000" lon="-2.416724000">
        <ele>405.40</ele>
        <time>2013-07-27T13:09:23Z</time>
      </trkpt>
      <trkpt lat="42.444653000" lon="-2.416776000">
        <ele>405.00</ele>
        <time>2013-07-27T13:09:24Z</time>
      </trkpt>
      <trkpt lat="42.444726000" lon="-2.416829000">
        <ele>405.10</ele>
        <time>2013-07-27T13:09:25Z</time>
      </trkpt>
      <trkpt lat="42.444801000" lon="-2.416878000">
        <ele>405.10</ele>
        <time>2013-07-27T13:09:26Z</time>
      </trkpt>
      <trkpt lat="42.444879000" lon="-2.416923000">
        <ele>404.80</ele>
        <time>2013-07-27T13:09:27Z</time>
      </trkpt>
      <trkpt lat="42.444957000" lon="-2.416971000">
        <ele>404.60</ele>
        <time>2013-07-27T13:09:28Z</time>
      </trkpt>
      <trkpt lat="42.445038000" lon="-2.417017000">
        <ele>403.80</ele>
        <time>2013-07-27T13:09:29Z</time>
      </trkpt>
      <trkpt lat="42.445119000" lon="-2.417068000">
        <ele>403.20</ele>
        <time>2013-07-27T13:09:30Z</time>
      </trkpt>
      <trkpt lat="42.445203000" lon="-2.417117000">
        <ele>402.30</ele>
        <time>2013-07-27T13:09:31Z</time>
      </trkpt>
      <trkpt lat="42.445289000" lon="-2.417174000">
        <ele>401.60</ele>
        <time>2013-07-27T13:09:32Z</time>
      </trkpt>
      <trkpt lat="42.445368000" lon="-2.417235000">
        <ele>401.60</ele>
        <time>2013-07-27T13:09:33Z</time>
      </trkpt>
      <trkpt lat="42.445444000" lon="-2.417301000">
        <ele>401.60</ele>
        <time>2013-07-27T13:09:34Z</time>
      </trkpt>
      <trkpt lat="42.445516000" lon="-2.417375000">
        <ele>401.60</ele>
        <time>2013-07-27T13:09:35Z</time>
      </trkpt>
      <trkpt lat="42.445581000" lon="-2.417454000">
        <ele>401.60</ele>
        <time>2013-07-27T13:09:36Z</time>
      </trkpt>
      <trkpt lat="42.445635000" lon="-2.417546000">
        <ele>401.60</ele>
        <time>2013-07-27T13:09:37Z</time>
      </trkpt>
      <trkpt lat="42.445685000" lon="-2.417636000">
        <ele>401.70</ele>
        <time>2013-07-27T13:09:38Z</time>
      </trkpt>
      <trkpt lat="42.445734000" lon="-2.417723000">
        <ele>400.30</ele>
        <time>2013-07-27T13:09:39Z</time>
      </trkpt>
      <trkpt lat="42.445787000" lon="-2.417802000">
        <ele>399.40</ele>
        <time>2013-07-27T13:09:40Z</time>
      </trkpt>
      <trkpt lat="42.445847000" lon="-2.417866000">
        <ele>398.40</ele>
        <time>2013-07-27T13:09:41Z</time>
      </trkpt>
      <trkpt lat="42.445913000" lon="-2.417916000">
        <ele>397.60</ele>
        <time>2013-07-27T13:09:42Z</time>
      </trkpt>
      <trkpt lat="42.445981000" lon="-2.417955000">
        <ele>396.90</ele>
        <time>2013-07-27T13:09:43Z</time>
      </trkpt>
      <trkpt lat="42.446054000" lon="-2.417983000">
        <ele>396.40</ele>
        <time>2013-07-27T13:09:44Z</time>
      </trkpt>
      <trkpt lat="42.446127000" lon="-2.418000000">
        <ele>395.90</ele>
        <time>2013-07-27T13:09:45Z</time>
      </trkpt>
      <trkpt lat="42.446199000" lon="-2.418012000">
        <ele>395.60</ele>
        <time>2013-07-27T13:09:46Z</time>
      </trkpt>
      <trkpt lat="42.446270000" lon="-2.418032000">
        <ele>395.30</ele>
        <time>2013-07-27T13:09:47Z</time>
      </trkpt>
      <trkpt lat="42.446344000" lon="-2.418060000">
        <ele>395.00</ele>
        <time>2013-07-27T13:09:48Z</time>
      </trkpt>
      <trkpt lat="42.446413000" lon="-2.418096000">
        <ele>394.40</ele>
        <time>2013-07-27T13:09:49Z</time>
      </trkpt>
      <trkpt lat="42.446480000" lon="-2.418141000">
        <ele>394.00</ele>
        <time>2013-07-27T13:09:50Z</time>
      </trkpt>
      <trkpt lat="42.446541000" lon="-2.418197000">
        <ele>393.60</ele>
        <time>2013-07-27T13:09:51Z</time>
      </trkpt>
      <trkpt lat="42.446598000" lon="-2.418262000">
        <ele>393.30</ele>
        <time>2013-07-27T13:09:52Z</time>
      </trkpt>
      <trkpt lat="42.446654000" lon="-2.418317000">
        <ele>393.00</ele>
        <time>2013-07-27T13:09:53Z</time>
      </trkpt>
      <trkpt lat="42.446713000" lon="-2.418354000">
        <ele>392.80</ele>
        <time>2013-07-27T13:09:54Z</time>
      </trkpt>
      <trkpt lat="42.446773000" lon="-2.418395000">
        <ele>392.60</ele>
        <time>2013-07-27T13:09:55Z</time>
      </trkpt>
      <trkpt lat="42.446832000" lon="-2.418439000">
        <ele>392.50</ele>
        <time>2013-07-27T13:09:56Z</time>
      </trkpt>
      <trkpt lat="42.446886000" lon="-2.418487000">
        <ele>392.40</ele>
        <time>2013-07-27T13:09:57Z</time>
      </trkpt>
      <trkpt lat="42.446937000" lon="-2.418541000">
        <ele>392.30</ele>
        <time>2013-07-27T13:09:58Z</time>
      </trkpt>
      <trkpt lat="42.446979000" lon="-2.418600000">
        <ele>392.20</ele>
        <time>2013-07-27T13:09:59Z</time>
      </trkpt>
      <trkpt lat="42.447012000" lon="-2.418658000">
        <ele>392.10</ele>
        <time>2013-07-27T13:10:00Z</time>
      </trkpt>
      <trkpt lat="42.447049000" lon="-2.418710000">
        <ele>391.70</ele>
        <time>2013-07-27T13:10:01Z</time>
      </trkpt>
      <trkpt lat="42.447084000" lon="-2.418761000">
        <ele>391.50</ele>
        <time>2013-07-27T13:10:02Z</time>
      </trkpt>
      <trkpt lat="42.447115000" lon="-2.418802000">
        <ele>391.30</ele>
        <time>2013-07-27T13:10:03Z</time>
      </trkpt>
      <trkpt lat="42.447142000" lon="-2.418839000">
        <ele>391.20</ele>
        <time>2013-07-27T13:10:04Z</time>
      </trkpt>
      <trkpt lat="42.447170000" lon="-2.418876000">
        <ele>391.10</ele>
        <time>2013-07-27T13:10:05Z</time>
      </trkpt>
      <trkpt lat="42.447201000" lon="-2.418911000">
        <ele>391.00</ele>
        <time>2013-07-27T13:10:06Z</time>
      </trkpt>
      <trkpt lat="42.447236000" lon="-2.418940000">
        <ele>390.70</ele>
        <time>2013-07-27T13:10:07Z</time>
      </trkpt>
      <trkpt lat="42.447271000" lon="-2.418968000">
        <ele>390.50</ele>
        <time>2013-07-27T13:10:08Z</time>
      </trkpt>
      <trkpt lat="42.447305000" lon="-2.418999000">
        <ele>390.40</ele>
        <time>2013-07-27T13:10:09Z</time>
      </trkpt>
      <trkpt lat="42.447338000" lon="-2.419031000">
        <ele>390.30</ele>
        <time>2013-07-27T13:10:10Z</time>
      </trkpt>
      <trkpt lat="42.447369000" lon="-2.419070000">
        <ele>390.20</ele>
        <time>2013-07-27T13:10:11Z</time>
      </trkpt>
      <trkpt lat="42.447399000" lon="-2.419111000">
        <ele>390.00</ele>
        <time>2013-07-27T13:10:12Z</time>
      </trkpt>
      <trkpt lat="42.447428000" lon="-2.419151000">
        <ele>390.00</ele>
        <time>2013-07-27T13:10:13Z</time>
      </trkpt>
      <trkpt lat="42.447454000" lon="-2.419191000">
        <ele>389.90</ele>
        <time>2013-07-27T13:10:14Z</time>
      </trkpt>
      <trkpt lat="42.447474000" lon="-2.419233000">
        <ele>390.00</ele>
        <time>2013-07-27T13:10:15Z</time>
      </trkpt>
      <trkpt lat="42.447501000" lon="-2.419277000">
        <ele>390.20</ele>
        <time>2013-07-27T13:10:16Z</time>
      </trkpt>
      <trkpt lat="42.447536000" lon="-2.419314000">
        <ele>390.20</ele>
        <time>2013-07-27T13:10:17Z</time>
      </trkpt>
      <trkpt lat="42.447578000" lon="-2.419346000">
        <ele>390.30</ele>
        <time>2013-07-27T13:10:18Z</time>
      </trkpt>
      <trkpt lat="42.447622000" lon="-2.419374000">
        <ele>390.10</ele>
        <time>2013-07-27T13:10:19Z</time>
      </trkpt>
      <trkpt lat="42.447667000" lon="-2.419399000">
        <ele>390.00</ele>
        <time>2013-07-27T13:10:20Z</time>
      </trkpt>
      <trkpt lat="42.447715000" lon="-2.419423000">
        <ele>389.90</ele>
        <time>2013-07-27T13:10:21Z</time>
      </trkpt>
      <trkpt lat="42.447765000" lon="-2.419445000">
        <ele>389.80</ele>
        <time>2013-07-27T13:10:22Z</time>
      </trkpt>
      <trkpt lat="42.447809000" lon="-2.419463000">
        <ele>389.80</ele>
        <time>2013-07-27T13:10:23Z</time>
      </trkpt>
      <trkpt lat="42.447847000" lon="-2.419479000">
        <ele>389.70</ele>
        <time>2013-07-27T13:10:24Z</time>
      </trkpt>
      <trkpt lat="42.447886000" lon="-2.419488000">
        <ele>389.80</ele>
        <time>2013-07-27T13:10:25Z</time>
      </trkpt>
      <trkpt lat="42.447931000" lon="-2.419490000">
        <ele>389.80</ele>
        <time>2013-07-27T13:10:26Z</time>
      </trkpt>
      <trkpt lat="42.447978000" lon="-2.419491000">
        <ele>389.80</ele>
        <time>2013-07-27T13:10:27Z</time>
      </trkpt>
      <trkpt lat="42.448029000" lon="-2.419492000">
        <ele>389.70</ele>
        <time>2013-07-27T13:10:28Z</time>
      </trkpt>
      <trkpt lat="42.448082000" lon="-2.419492000">
        <ele>389.60</ele>
        <time>2013-07-27T13:10:29Z</time>
      </trkpt>
      <trkpt lat="42.448136000" lon="-2.419492000">
        <ele>389.50</ele>
        <time>2013-07-27T13:10:30Z</time>
      </trkpt>
      <trkpt lat="42.448190000" lon="-2.419490000">
        <ele>389.40</ele>
        <time>2013-07-27T13:10:31Z</time>
      </trkpt>
      <trkpt lat="42.448246000" lon="-2.419488000">
        <ele>389.30</ele>
        <time>2013-07-27T13:10:32Z</time>
      </trkpt>
      <trkpt lat="42.448303000" lon="-2.419484000">
        <ele>389.30</ele>
        <time>2013-07-27T13:10:33Z</time>
      </trkpt>
      <trkpt lat="42.448359000" lon="-2.419482000">
        <ele>389.30</ele>
        <time>2013-07-27T13:10:34Z</time>
      </trkpt>
      <trkpt lat="42.448416000" lon="-2.419477000">
        <ele>389.30</ele>
        <time>2013-07-27T13:10:35Z</time>
      </trkpt>
      <trkpt lat="42.448469000" lon="-2.419469000">
        <ele>389.30</ele>
        <time>2013-07-27T13:10:36Z</time>
      </trkpt>
      <trkpt lat="42.448522000" lon="-2.419457000">
        <ele>389.20</ele>
        <time>2013-07-27T13:10:37Z</time>
      </trkpt>
      <trkpt lat="42.448577000" lon="-2.419446000">
        <ele>389.10</ele>
        <time>2013-07-27T13:10:38Z</time>
      </trkpt>
      <trkpt lat="42.448635000" lon="-2.419438000">
        <ele>389.00</ele>
        <time>2013-07-27T13:10:39Z</time>
      </trkpt>
      <trkpt lat="42.448689000" lon="-2.419427000">
        <ele>388.90</ele>
        <time>2013-07-27T13:10:40Z</time>
      </trkpt>
      <trkpt lat="42.448749000" lon="-2.419420000">
        <ele>388.90</ele>
        <time>2013-07-27T13:10:41Z</time>
      </trkpt>
      <trkpt lat="42.448803000" lon="-2.419407000">
        <ele>388.90</ele>
        <time>2013-07-27T13:10:42Z</time>
      </trkpt>
      <trkpt lat="42.448867000" lon="-2.419408000">
        <ele>388.60</ele>
        <time>2013-07-27T13:10:43Z</time>
      </trkpt>
      <trkpt lat="42.448930000" lon="-2.419409000">
        <ele>388.50</ele>
        <time>2013-07-27T13:10:44Z</time>
      </trkpt>
      <trkpt lat="42.448996000" lon="-2.419415000">
        <ele>388.40</ele>
        <time>2013-07-27T13:10:45Z</time>
      </trkpt>
      <trkpt lat="42.449058000" lon="-2.419414000">
        <ele>388.30</ele>
        <time>2013-07-27T13:10:46Z</time>
      </trkpt>
      <trkpt lat="42.449118000" lon="-2.419414000">
        <ele>388.20</ele>
        <time>2013-07-27T13:10:47Z</time>
      </trkpt>
      <trkpt lat="42.449177000" lon="-2.419414000">
        <ele>388.20</ele>
        <time>2013-07-27T13:10:48Z</time>
      </trkpt>
      <trkpt lat="42.449234000" lon="-2.419415000">
        <ele>388.30</ele>
        <time>2013-07-27T13:10:49Z</time>
      </trkpt>
      <trkpt lat="42.449291000" lon="-2.419415000">
        <ele>388.40</ele>
        <time>2013-07-27T13:10:50Z</time>
      </trkpt>
      <trkpt lat="42.449350000" lon="-2.419416000">
        <ele>388.40</ele>
        <time>2013-07-27T13:10:51Z</time>
      </trkpt>
      <trkpt lat="42.449409000" lon="-2.419415000">
        <ele>388.30</ele>
        <time>2013-07-27T13:10:52Z</time>
      </trkpt>
      <trkpt lat="42.449469000" lon="-2.419415000">
        <ele>388.40</ele>
        <time>2013-07-27T13:10:53Z</time>
      </trkpt>
      <trkpt lat="42.449529000" lon="-2.419414000">
        <ele>388.50</ele>
        <time>2013-07-27T13:10:54Z</time>
      </trkpt>
      <trkpt lat="42.449592000" lon="-2.419414000">
        <ele>388.50</ele>
        <time>2013-07-27T13:10:55Z</time>
      </trkpt>
      <trkpt lat="42.449653000" lon="-2.419412000">
        <ele>388.60</ele>
        <time>2013-07-27T13:10:56Z</time>
      </trkpt>
      <trkpt lat="42.449714000" lon="-2.419409000">
        <ele>388.60</ele>
        <time>2013-07-27T13:10:57Z</time>
      </trkpt>
      <trkpt lat="42.449777000" lon="-2.419406000">
        <ele>388.60</ele>
        <time>2013-07-27T13:10:58Z</time>
      </trkpt>
      <trkpt lat="42.449841000" lon="-2.419406000">
        <ele>388.60</ele>
        <time>2013-07-27T13:10:59Z</time>
      </trkpt>
      <trkpt lat="42.449903000" lon="-2.419410000">
        <ele>388.60</ele>
        <time>2013-07-27T13:11:00Z</time>
      </trkpt>
      <trkpt lat="42.449965000" lon="-2.419414000">
        <ele>388.60</ele>
        <time>2013-07-27T13:11:01Z</time>
      </trkpt>
      <trkpt lat="42.450026000" lon="-2.419421000">
        <ele>388.50</ele>
        <time>2013-07-27T13:11:02Z</time>
      </trkpt>
      <trkpt lat="42.450086000" lon="-2.419430000">
        <ele>388.40</ele>
        <time>2013-07-27T13:11:03Z</time>
      </trkpt>
      <trkpt lat="42.450145000" lon="-2.419440000">
        <ele>388.40</ele>
        <time>2013-07-27T13:11:04Z</time>
      </trkpt>
      <trkpt lat="42.450204000" lon="-2.419448000">
        <ele>388.30</ele>
        <time>2013-07-27T13:11:05Z</time>
      </trkpt>
      <trkpt lat="42.450263000" lon="-2.419455000">
        <ele>388.20</ele>
        <time>2013-07-27T13:11:06Z</time>
      </trkpt>
      <trkpt lat="42.450321000" lon="-2.419461000">
        <ele>388.20</ele>
        <time>2013-07-27T13:11:07Z</time>
      </trkpt>
      <trkpt lat="42.450379000" lon="-2.419469000">
        <ele>388.10</ele>
        <time>2013-07-27T13:11:08Z</time>
      </trkpt>
      <trkpt lat="42.450434000" lon="-2.419475000">
        <ele>388.00</ele>
        <time>2013-07-27T13:11:09Z</time>
      </trkpt>
      <trkpt lat="42.450488000" lon="-2.419478000">
        <ele>388.00</ele>
        <time>2013-07-27T13:11:10Z</time>
      </trkpt>
      <trkpt lat="42.450541000" lon="-2.419478000">
        <ele>387.90</ele>
        <time>2013-07-27T13:11:11Z</time>
      </trkpt>
      <trkpt lat="42.450595000" lon="-2.419470000">
        <ele>387.90</ele>
        <time>2013-07-27T13:11:12Z</time>
      </trkpt>
      <trkpt lat="42.450647000" lon="-2.419455000">
        <ele>387.80</ele>
        <time>2013-07-27T13:11:13Z</time>
      </trkpt>
      <trkpt lat="42.450695000" lon="-2.419435000">
        <ele>387.70</ele>
        <time>2013-07-27T13:11:14Z</time>
      </trkpt>
      <trkpt lat="42.450742000" lon="-2.419415000">
        <ele>387.80</ele>
        <time>2013-07-27T13:11:15Z</time>
      </trkpt>
      <trkpt lat="42.450787000" lon="-2.419396000">
        <ele>387.80</ele>
        <time>2013-07-27T13:11:16Z</time>
      </trkpt>
      <trkpt lat="42.450829000" lon="-2.419381000">
        <ele>387.80</ele>
        <time>2013-07-27T13:11:17Z</time>
      </trkpt>
      <trkpt lat="42.450869000" lon="-2.419367000">
        <ele>387.80</ele>
        <time>2013-07-27T13:11:18Z</time>
      </trkpt>
      <trkpt lat="42.450906000" lon="-2.419354000">
        <ele>387.90</ele>
        <time>2013-07-27T13:11:19Z</time>
      </trkpt>
      <trkpt lat="42.450944000" lon="-2.419342000">
        <ele>387.90</ele>
        <time>2013-07-27T13:11:20Z</time>
      </trkpt>
      <trkpt lat="42.450982000" lon="-2.419330000">
        <ele>387.90</ele>
        <time>2013-07-27T13:11:21Z</time>
      </trkpt>
      <trkpt lat="42.451019000" lon="-2.419314000">
        <ele>388.00</ele>
        <time>2013-07-27T13:11:22Z</time>
      </trkpt>
      <trkpt lat="42.451056000" lon="-2.419292000">
        <ele>388.10</ele>
        <time>2013-07-27T13:11:23Z</time>
      </trkpt>
      <trkpt lat="42.451092000" lon="-2.419264000">
        <ele>388.10</ele>
        <time>2013-07-27T13:11:24Z</time>
      </trkpt>
      <trkpt lat="42.451126000" lon="-2.419221000">
        <ele>388.20</ele>
        <time>2013-07-27T13:11:25Z</time>
      </trkpt>
      <trkpt lat="42.451151000" lon="-2.419162000">
        <ele>388.30</ele>
        <time>2013-07-27T13:11:26Z</time>
      </trkpt>
      <trkpt lat="42.451177000" lon="-2.419097000">
        <ele>388.40</ele>
        <time>2013-07-27T13:11:27Z</time>
      </trkpt>
      <trkpt lat="42.451205000" lon="-2.419029000">
        <ele>388.40</ele>
        <time>2013-07-27T13:11:28Z</time>
      </trkpt>
      <trkpt lat="42.451236000" lon="-2.418962000">
        <ele>388.50</ele>
        <time>2013-07-27T13:11:29Z</time>
      </trkpt>
      <trkpt lat="42.451279000" lon="-2.418906000">
        <ele>388.50</ele>
        <time>2013-07-27T13:11:30Z</time>
      </trkpt>
      <trkpt lat="42.451327000" lon="-2.418857000">
        <ele>388.40</ele>
        <time>2013-07-27T13:11:31Z</time>
      </trkpt>
      <trkpt lat="42.451383000" lon="-2.418822000">
        <ele>388.40</ele>
        <time>2013-07-27T13:11:32Z</time>
      </trkpt>
      <trkpt lat="42.451443000" lon="-2.418804000">
        <ele>388.40</ele>
        <time>2013-07-27T13:11:33Z</time>
      </trkpt>
      <trkpt lat="42.451505000" lon="-2.418793000">
        <ele>388.30</ele>
        <time>2013-07-27T13:11:34Z</time>
      </trkpt>
      <trkpt lat="42.451565000" lon="-2.418790000">
        <ele>388.00</ele>
        <time>2013-07-27T13:11:35Z</time>
      </trkpt>
      <trkpt lat="42.451620000" lon="-2.418811000">
        <ele>387.80</ele>
        <time>2013-07-27T13:11:36Z</time>
      </trkpt>
      <trkpt lat="42.451668000" lon="-2.418842000">
        <ele>387.70</ele>
        <time>2013-07-27T13:11:37Z</time>
      </trkpt>
      <trkpt lat="42.451710000" lon="-2.418879000">
        <ele>387.60</ele>
        <time>2013-07-27T13:11:38Z</time>
      </trkpt>
      <trkpt lat="42.451747000" lon="-2.418916000">
        <ele>387.50</ele>
        <time>2013-07-27T13:11:39Z</time>
      </trkpt>
      <trkpt lat="42.451775000" lon="-2.418948000">
        <ele>387.40</ele>
        <time>2013-07-27T13:11:40Z</time>
      </trkpt>
      <trkpt lat="42.451791000" lon="-2.418970000">
        <ele>387.40</ele>
        <time>2013-07-27T13:11:41Z</time>
      </trkpt>
      <trkpt lat="42.451803000" lon="-2.418984000">
        <ele>387.30</ele>
        <time>2013-07-27T13:11:42Z</time>
      </trkpt>
      <trkpt lat="42.451804000" lon="-2.418991000">
        <ele>387.40</ele>
        <time>2013-07-27T13:11:43Z</time>
      </trkpt>
      <trkpt lat="42.451808000" lon="-2.418992000">
        <ele>387.40</ele>
        <time>2013-07-27T13:11:44Z</time>
      </trkpt>
      <trkpt lat="42.451817000" lon="-2.419000000">
        <ele>387.50</ele>
        <time>2013-07-27T13:11:45Z</time>
      </trkpt>
      <trkpt lat="42.451824000" lon="-2.419013000">
        <ele>387.60</ele>
        <time>2013-07-27T13:11:46Z</time>
      </trkpt>
      <trkpt lat="42.451825000" lon="-2.419022000">
        <ele>387.70</ele>
        <time>2013-07-27T13:11:47Z</time>
      </trkpt>
      <trkpt lat="42.451832000" lon="-2.419031000">
        <ele>387.80</ele>
        <time>2013-07-27T13:11:48Z</time>
      </trkpt>
      <trkpt lat="42.451841000" lon="-2.419034000">
        <ele>387.80</ele>
        <time>2013-07-27T13:11:49Z</time>
      </trkpt>
      <trkpt lat="42.451854000" lon="-2.419039000">
        <ele>387.90</ele>
        <time>2013-07-27T13:11:50Z</time>
      </trkpt>
      <trkpt lat="42.451866000" lon="-2.419046000">
        <ele>387.90</ele>
        <time>2013-07-27T13:11:51Z</time>
      </trkpt>
      <trkpt lat="42.451883000" lon="-2.419057000">
        <ele>387.90</ele>
        <time>2013-07-27T13:11:52Z</time>
      </trkpt>
      <trkpt lat="42.451901000" lon="-2.419072000">
        <ele>387.90</ele>
        <time>2013-07-27T13:11:53Z</time>
      </trkpt>
      <trkpt lat="42.451924000" lon="-2.419088000">
        <ele>387.90</ele>
        <time>2013-07-27T13:11:54Z</time>
      </trkpt>
      <trkpt lat="42.451951000" lon="-2.419096000">
        <ele>388.00</ele>
        <time>2013-07-27T13:11:55Z</time>
      </trkpt>
      <trkpt lat="42.451980000" lon="-2.419090000">
        <ele>388.00</ele>
        <time>2013-07-27T13:11:56Z</time>
      </trkpt>
      <trkpt lat="42.452012000" lon="-2.419067000">
        <ele>388.00</ele>
        <time>2013-07-27T13:11:57Z</time>
      </trkpt>
      <trkpt lat="42.452047000" lon="-2.419034000">
        <ele>388.00</ele>
        <time>2013-07-27T13:11:58Z</time>
      </trkpt>
      <trkpt lat="42.452082000" lon="-2.418996000">
        <ele>388.00</ele>
        <time>2013-07-27T13:11:59Z</time>
      </trkpt>
      <trkpt lat="42.452119000" lon="-2.418951000">
        <ele>388.00</ele>
        <time>2013-07-27T13:12:00Z</time>
      </trkpt>
      <trkpt lat="42.452158000" lon="-2.418904000">
        <ele>388.00</ele>
        <time>2013-07-27T13:12:01Z</time>
      </trkpt>
      <trkpt lat="42.452195000" lon="-2.418854000">
        <ele>388.00</ele>
        <time>2013-07-27T13:12:02Z</time>
      </trkpt>
      <trkpt lat="42.452232000" lon="-2.418807000">
        <ele>387.80</ele>
        <time>2013-07-27T13:12:03Z</time>
      </trkpt>
      <trkpt lat="42.452270000" lon="-2.418762000">
        <ele>387.60</ele>
        <time>2013-07-27T13:12:04Z</time>
      </trkpt>
      <trkpt lat="42.452309000" lon="-2.418717000">
        <ele>387.50</ele>
        <time>2013-07-27T13:12:05Z</time>
      </trkpt>
      <trkpt lat="42.452350000" lon="-2.418677000">
        <ele>387.40</ele>
        <time>2013-07-27T13:12:06Z</time>
      </trkpt>
      <trkpt lat="42.452395000" lon="-2.418633000">
        <ele>387.30</ele>
        <time>2013-07-27T13:12:07Z</time>
      </trkpt>
      <trkpt lat="42.452440000" lon="-2.418592000">
        <ele>387.30</ele>
        <time>2013-07-27T13:12:08Z</time>
      </trkpt>
      <trkpt lat="42.452488000" lon="-2.418555000">
        <ele>387.30</ele>
        <time>2013-07-27T13:12:09Z</time>
      </trkpt>
      <trkpt lat="42.452538000" lon="-2.418515000">
        <ele>387.30</ele>
        <time>2013-07-27T13:12:10Z</time>
      </trkpt>
      <trkpt lat="42.452584000" lon="-2.418478000">
        <ele>387.30</ele>
        <time>2013-07-27T13:12:11Z</time>
      </trkpt>
      <trkpt lat="42.452633000" lon="-2.418436000">
        <ele>387.30</ele>
        <time>2013-07-27T13:12:12Z</time>
      </trkpt>
      <trkpt lat="42.452678000" lon="-2.418396000">
        <ele>387.30</ele>
        <time>2013-07-27T13:12:13Z</time>
      </trkpt>
      <trkpt lat="42.452719000" lon="-2.418358000">
        <ele>387.20</ele>
        <time>2013-07-27T13:12:14Z</time>
      </trkpt>
      <trkpt lat="42.452759000" lon="-2.418314000">
        <ele>387.20</ele>
        <time>2013-07-27T13:12:15Z</time>
      </trkpt>
      <trkpt lat="42.452800000" lon="-2.418268000">
        <ele>387.20</ele>
        <time>2013-07-27T13:12:16Z</time>
      </trkpt>
      <trkpt lat="42.452841000" lon="-2.418220000">
        <ele>387.20</ele>
        <time>2013-07-27T13:12:17Z</time>
      </trkpt>
      <trkpt lat="42.452880000" lon="-2.418170000">
        <ele>387.20</ele>
        <time>2013-07-27T13:12:18Z</time>
      </trkpt>
      <trkpt lat="42.452921000" lon="-2.418121000">
        <ele>387.00</ele>
        <time>2013-07-27T13:12:19Z</time>
      </trkpt>
      <trkpt lat="42.452962000" lon="-2.418075000">
        <ele>386.90</ele>
        <time>2013-07-27T13:12:20Z</time>
      </trkpt>
      <trkpt lat="42.453003000" lon="-2.418027000">
        <ele>386.80</ele>
        <time>2013-07-27T13:12:21Z</time>
      </trkpt>
      <trkpt lat="42.453043000" lon="-2.417983000">
        <ele>386.80</ele>
        <time>2013-07-27T13:12:22Z</time>
      </trkpt>
      <trkpt lat="42.453085000" lon="-2.417938000">
        <ele>386.70</ele>
        <time>2013-07-27T13:12:23Z</time>
      </trkpt>
      <trkpt lat="42.453128000" lon="-2.417896000">
        <ele>386.70</ele>
        <time>2013-07-27T13:12:24Z</time>
      </trkpt>
      <trkpt lat="42.453172000" lon="-2.417855000">
        <ele>386.80</ele>
        <time>2013-07-27T13:12:25Z</time>
      </trkpt>
      <trkpt lat="42.453218000" lon="-2.417813000">
        <ele>386.80</ele>
        <time>2013-07-27T13:12:26Z</time>
      </trkpt>
      <trkpt lat="42.453260000" lon="-2.417773000">
        <ele>386.90</ele>
        <time>2013-07-27T13:12:27Z</time>
      </trkpt>
      <trkpt lat="42.453301000" lon="-2.417732000">
        <ele>386.90</ele>
        <time>2013-07-27T13:12:28Z</time>
      </trkpt>
      <trkpt lat="42.453342000" lon="-2.417688000">
        <ele>386.90</ele>
        <time>2013-07-27T13:12:29Z</time>
      </trkpt>
      <trkpt lat="42.453387000" lon="-2.417647000">
        <ele>387.00</ele>
        <time>2013-07-27T13:12:30Z</time>
      </trkpt>
      <trkpt lat="42.453433000" lon="-2.417606000">
        <ele>386.90</ele>
        <time>2013-07-27T13:12:31Z</time>
      </trkpt>
      <trkpt lat="42.453474000" lon="-2.417566000">
        <ele>386.90</ele>
        <time>2013-07-27T13:12:32Z</time>
      </trkpt>
      <trkpt lat="42.453512000" lon="-2.417531000">
        <ele>386.60</ele>
        <time>2013-07-27T13:12:33Z</time>
      </trkpt>
      <trkpt lat="42.453543000" lon="-2.417503000">
        <ele>386.40</ele>
        <time>2013-07-27T13:12:34Z</time>
      </trkpt>
      <trkpt lat="42.453566000" lon="-2.417481000">
        <ele>386.20</ele>
        <time>2013-07-27T13:12:35Z</time>
      </trkpt>
      <trkpt lat="42.453586000" lon="-2.417459000">
        <ele>386.10</ele>
        <time>2013-07-27T13:12:36Z</time>
      </trkpt>
      <trkpt lat="42.453601000" lon="-2.417435000">
        <ele>385.90</ele>
        <time>2013-07-27T13:12:37Z</time>
      </trkpt>
      <trkpt lat="42.453611000" lon="-2.417415000">
        <ele>385.70</ele>
        <time>2013-07-27T13:12:38Z</time>
      </trkpt>
      <trkpt lat="42.453618000" lon="-2.417395000">
        <ele>385.70</ele>
        <time>2013-07-27T13:12:39Z</time>
      </trkpt>
      <trkpt lat="42.453631000" lon="-2.417377000">
        <ele>385.70</ele>
        <time>2013-07-27T13:12:40Z</time>
      </trkpt>
      <trkpt lat="42.453649000" lon="-2.417365000">
        <ele>385.70</ele>
        <time>2013-07-27T13:12:41Z</time>
      </trkpt>
      <trkpt lat="42.453673000" lon="-2.417355000">
        <ele>385.70</ele>
        <time>2013-07-27T13:12:42Z</time>
      </trkpt>
      <trkpt lat="42.453699000" lon="-2.417350000">
        <ele>385.70</ele>
        <time>2013-07-27T13:12:43Z</time>
      </trkpt>
      <trkpt lat="42.453729000" lon="-2.417346000">
        <ele>385.70</ele>
        <time>2013-07-27T13:12:44Z</time>
      </trkpt>
      <trkpt lat="42.453767000" lon="-2.417346000">
        <ele>385.50</ele>
        <time>2013-07-27T13:12:45Z</time>
      </trkpt>
      <trkpt lat="42.453809000" lon="-2.417351000">
        <ele>385.40</ele>
        <time>2013-07-27T13:12:46Z</time>
      </trkpt>
      <trkpt lat="42.453853000" lon="-2.417352000">
        <ele>385.10</ele>
        <time>2013-07-27T13:12:47Z</time>
      </trkpt>
      <trkpt lat="42.453901000" lon="-2.417355000">
        <ele>384.80</ele>
        <time>2013-07-27T13:12:48Z</time>
      </trkpt>
      <trkpt lat="42.453948000" lon="-2.417358000">
        <ele>384.60</ele>
        <time>2013-07-27T13:12:49Z</time>
      </trkpt>
      <trkpt lat="42.453995000" lon="-2.417358000">
        <ele>384.50</ele>
        <time>2013-07-27T13:12:50Z</time>
      </trkpt>
      <trkpt lat="42.454043000" lon="-2.417346000">
        <ele>384.30</ele>
        <time>2013-07-27T13:12:51Z</time>
      </trkpt>
      <trkpt lat="42.454088000" lon="-2.417324000">
        <ele>384.10</ele>
        <time>2013-07-27T13:12:52Z</time>
      </trkpt>
      <trkpt lat="42.454131000" lon="-2.417296000">
        <ele>384.00</ele>
        <time>2013-07-27T13:12:53Z</time>
      </trkpt>
      <trkpt lat="42.454173000" lon="-2.417264000">
        <ele>383.90</ele>
        <time>2013-07-27T13:12:54Z</time>
      </trkpt>
      <trkpt lat="42.454212000" lon="-2.417227000">
        <ele>383.80</ele>
        <time>2013-07-27T13:12:55Z</time>
      </trkpt>
      <trkpt lat="42.454248000" lon="-2.417190000">
        <ele>383.70</ele>
        <time>2013-07-27T13:12:56Z</time>
      </trkpt>
      <trkpt lat="42.454285000" lon="-2.417152000">
        <ele>383.60</ele>
        <time>2013-07-27T13:12:57Z</time>
      </trkpt>
      <trkpt lat="42.454318000" lon="-2.417119000">
        <ele>383.50</ele>
        <time>2013-07-27T13:12:58Z</time>
      </trkpt>
      <trkpt lat="42.454349000" lon="-2.417092000">
        <ele>383.50</ele>
        <time>2013-07-27T13:12:59Z</time>
      </trkpt>
      <trkpt lat="42.454379000" lon="-2.417073000">
        <ele>383.40</ele>
        <time>2013-07-27T13:13:00Z</time>
      </trkpt>
      <trkpt lat="42.454410000" lon="-2.417073000">
        <ele>383.40</ele>
        <time>2013-07-27T13:13:01Z</time>
      </trkpt>
      <trkpt lat="42.454437000" lon="-2.417093000">
        <ele>383.40</ele>
        <time>2013-07-27T13:13:02Z</time>
      </trkpt>
      <trkpt lat="42.454462000" lon="-2.417122000">
        <ele>383.30</ele>
        <time>2013-07-27T13:13:03Z</time>
      </trkpt>
      <trkpt lat="42.454490000" lon="-2.417156000">
        <ele>383.20</ele>
        <time>2013-07-27T13:13:04Z</time>
      </trkpt>
      <trkpt lat="42.454526000" lon="-2.417185000">
        <ele>383.10</ele>
        <time>2013-07-27T13:13:05Z</time>
      </trkpt>
      <trkpt lat="42.454571000" lon="-2.417209000">
        <ele>383.10</ele>
        <time>2013-07-27T13:13:06Z</time>
      </trkpt>
      <trkpt lat="42.454615000" lon="-2.417230000">
        <ele>382.70</ele>
        <time>2013-07-27T13:13:07Z</time>
      </trkpt>
      <trkpt lat="42.454664000" lon="-2.417247000">
        <ele>382.40</ele>
        <time>2013-07-27T13:13:08Z</time>
      </trkpt>
      <trkpt lat="42.454707000" lon="-2.417256000">
        <ele>382.20</ele>
        <time>2013-07-27T13:13:09Z</time>
      </trkpt>
      <trkpt lat="42.454760000" lon="-2.417257000">
        <ele>382.00</ele>
        <time>2013-07-27T13:13:10Z</time>
      </trkpt>
      <trkpt lat="42.454811000" lon="-2.417255000">
        <ele>381.90</ele>
        <time>2013-07-27T13:13:11Z</time>
      </trkpt>
      <trkpt lat="42.454861000" lon="-2.417258000">
        <ele>381.80</ele>
        <time>2013-07-27T13:13:12Z</time>
      </trkpt>
      <trkpt lat="42.454914000" lon="-2.417270000">
        <ele>381.00</ele>
        <time>2013-07-27T13:13:13Z</time>
      </trkpt>
      <trkpt lat="42.454964000" lon="-2.417280000">
        <ele>380.50</ele>
        <time>2013-07-27T13:13:14Z</time>
      </trkpt>
      <trkpt lat="42.455017000" lon="-2.417284000">
        <ele>380.00</ele>
        <time>2013-07-27T13:13:15Z</time>
      </trkpt>
      <trkpt lat="42.455072000" lon="-2.417294000">
        <ele>379.70</ele>
        <time>2013-07-27T13:13:16Z</time>
      </trkpt>
      <trkpt lat="42.455125000" lon="-2.417311000">
        <ele>379.40</ele>
        <time>2013-07-27T13:13:17Z</time>
      </trkpt>
      <trkpt lat="42.455188000" lon="-2.417323000">
        <ele>379.10</ele>
        <time>2013-07-27T13:13:18Z</time>
      </trkpt>
      <trkpt lat="42.455251000" lon="-2.417326000">
        <ele>379.60</ele>
        <time>2013-07-27T13:13:19Z</time>
      </trkpt>
      <trkpt lat="42.455317000" lon="-2.417328000">
        <ele>379.90</ele>
        <time>2013-07-27T13:13:20Z</time>
      </trkpt>
      <trkpt lat="42.455382000" lon="-2.417332000">
        <ele>380.20</ele>
        <time>2013-07-27T13:13:21Z</time>
      </trkpt>
      <trkpt lat="42.455452000" lon="-2.417341000">
        <ele>380.40</ele>
        <time>2013-07-27T13:13:22Z</time>
      </trkpt>
      <trkpt lat="42.455520000" lon="-2.417356000">
        <ele>380.60</ele>
        <time>2013-07-27T13:13:23Z</time>
      </trkpt>
      <trkpt lat="42.455582000" lon="-2.417377000">
        <ele>380.70</ele>
        <time>2013-07-27T13:13:24Z</time>
      </trkpt>
      <trkpt lat="42.455641000" lon="-2.417395000">
        <ele>380.80</ele>
        <time>2013-07-27T13:13:25Z</time>
      </trkpt>
      <trkpt lat="42.455697000" lon="-2.417411000">
        <ele>380.90</ele>
        <time>2013-07-27T13:13:26Z</time>
      </trkpt>
      <trkpt lat="42.455752000" lon="-2.417434000">
        <ele>381.00</ele>
        <time>2013-07-27T13:13:27Z</time>
      </trkpt>
      <trkpt lat="42.455805000" lon="-2.417466000">
        <ele>381.00</ele>
        <time>2013-07-27T13:13:28Z</time>
      </trkpt>
      <trkpt lat="42.455856000" lon="-2.417496000">
        <ele>381.00</ele>
        <time>2013-07-27T13:13:29Z</time>
      </trkpt>
      <trkpt lat="42.455907000" lon="-2.417516000">
        <ele>381.10</ele>
        <time>2013-07-27T13:13:30Z</time>
      </trkpt>
      <trkpt lat="42.455959000" lon="-2.417537000">
        <ele>381.00</ele>
        <time>2013-07-27T13:13:31Z</time>
      </trkpt>
      <trkpt lat="42.456014000" lon="-2.417556000">
        <ele>381.00</ele>
        <time>2013-07-27T13:13:32Z</time>
      </trkpt>
      <trkpt lat="42.456068000" lon="-2.417572000">
        <ele>381.00</ele>
        <time>2013-07-27T13:13:33Z</time>
      </trkpt>
      <trkpt lat="42.456121000" lon="-2.417578000">
        <ele>380.90</ele>
        <time>2013-07-27T13:13:34Z</time>
      </trkpt>
      <trkpt lat="42.456175000" lon="-2.417584000">
        <ele>380.90</ele>
        <time>2013-07-27T13:13:35Z</time>
      </trkpt>
      <trkpt lat="42.456230000" lon="-2.417584000">
        <ele>380.80</ele>
        <time>2013-07-27T13:13:36Z</time>
      </trkpt>
      <trkpt lat="42.456280000" lon="-2.417573000">
        <ele>380.60</ele>
        <time>2013-07-27T13:13:37Z</time>
      </trkpt>
      <trkpt lat="42.456325000" lon="-2.417543000">
        <ele>380.40</ele>
        <time>2013-07-27T13:13:38Z</time>
      </trkpt>
      <trkpt lat="42.456366000" lon="-2.417506000">
        <ele>380.20</ele>
        <time>2013-07-27T13:13:39Z</time>
      </trkpt>
      <trkpt lat="42.456412000" lon="-2.417464000">
        <ele>380.00</ele>
        <time>2013-07-27T13:13:40Z</time>
      </trkpt>
      <trkpt lat="42.456455000" lon="-2.417418000">
        <ele>380.00</ele>
        <time>2013-07-27T13:13:41Z</time>
      </trkpt>
      <trkpt lat="42.456496000" lon="-2.417368000">
        <ele>380.00</ele>
        <time>2013-07-27T13:13:42Z</time>
      </trkpt>
      <trkpt lat="42.456534000" lon="-2.417321000">
        <ele>379.90</ele>
        <time>2013-07-27T13:13:43Z</time>
      </trkpt>
      <trkpt lat="42.456565000" lon="-2.417274000">
        <ele>379.90</ele>
        <time>2013-07-27T13:13:44Z</time>
      </trkpt>
      <trkpt lat="42.456601000" lon="-2.417233000">
        <ele>379.90</ele>
        <time>2013-07-27T13:13:45Z</time>
      </trkpt>
      <trkpt lat="42.456641000" lon="-2.417188000">
        <ele>379.80</ele>
        <time>2013-07-27T13:13:46Z</time>
      </trkpt>
      <trkpt lat="42.456689000" lon="-2.417142000">
        <ele>379.50</ele>
        <time>2013-07-27T13:13:47Z</time>
      </trkpt>
      <trkpt lat="42.456743000" lon="-2.417089000">
        <ele>379.20</ele>
        <time>2013-07-27T13:13:48Z</time>
      </trkpt>
      <trkpt lat="42.456798000" lon="-2.417042000">
        <ele>379.00</ele>
        <time>2013-07-27T13:13:49Z</time>
      </trkpt>
      <trkpt lat="42.456850000" lon="-2.416992000">
        <ele>378.90</ele>
        <time>2013-07-27T13:13:50Z</time>
      </trkpt>
      <trkpt lat="42.456905000" lon="-2.416941000">
        <ele>379.00</ele>
        <time>2013-07-27T13:13:51Z</time>
      </trkpt>
      <trkpt lat="42.456958000" lon="-2.416885000">
        <ele>379.00</ele>
        <time>2013-07-27T13:13:52Z</time>
      </trkpt>
      <trkpt lat="42.457010000" lon="-2.416827000">
        <ele>379.10</ele>
        <time>2013-07-27T13:13:53Z</time>
      </trkpt>
      <trkpt lat="42.457058000" lon="-2.416773000">
        <ele>379.10</ele>
        <time>2013-07-27T13:13:54Z</time>
      </trkpt>
      <trkpt lat="42.457105000" lon="-2.416717000">
        <ele>379.10</ele>
        <time>2013-07-27T13:13:55Z</time>
      </trkpt>
      <trkpt lat="42.457149000" lon="-2.416664000">
        <ele>379.00</ele>
        <time>2013-07-27T13:13:56Z</time>
      </trkpt>
      <trkpt lat="42.457194000" lon="-2.416614000">
        <ele>378.90</ele>
        <time>2013-07-27T13:13:57Z</time>
      </trkpt>
      <trkpt lat="42.457234000" lon="-2.416560000">
        <ele>378.80</ele>
        <time>2013-07-27T13:13:58Z</time>
      </trkpt>
      <trkpt lat="42.457273000" lon="-2.416508000">
        <ele>378.80</ele>
        <time>2013-07-27T13:13:59Z</time>
      </trkpt>
      <trkpt lat="42.457309000" lon="-2.416452000">
        <ele>378.70</ele>
        <time>2013-07-27T13:14:00Z</time>
      </trkpt>
      <trkpt lat="42.457345000" lon="-2.416395000">
        <ele>378.70</ele>
        <time>2013-07-27T13:14:01Z</time>
      </trkpt>
      <trkpt lat="42.457376000" lon="-2.416334000">
        <ele>378.70</ele>
        <time>2013-07-27T13:14:02Z</time>
      </trkpt>
      <trkpt lat="42.457402000" lon="-2.416266000">
        <ele>378.70</ele>
        <time>2013-07-27T13:14:03Z</time>
      </trkpt>
      <trkpt lat="42.457420000" lon="-2.416192000">
        <ele>378.70</ele>
        <time>2013-07-27T13:14:04Z</time>
      </trkpt>
      <trkpt lat="42.457431000" lon="-2.416113000">
        <ele>378.60</ele>
        <time>2013-07-27T13:14:05Z</time>
      </trkpt>
      <trkpt lat="42.457439000" lon="-2.416032000">
        <ele>378.60</ele>
        <time>2013-07-27T13:14:06Z</time>
      </trkpt>
      <trkpt lat="42.457452000" lon="-2.415950000">
        <ele>378.80</ele>
        <time>2013-07-27T13:14:07Z</time>
      </trkpt>
      <trkpt lat="42.457475000" lon="-2.415873000">
        <ele>379.00</ele>
        <time>2013-07-27T13:14:08Z</time>
      </trkpt>
      <trkpt lat="42.457503000" lon="-2.415802000">
        <ele>379.10</ele>
        <time>2013-07-27T13:14:09Z</time>
      </trkpt>
      <trkpt lat="42.457538000" lon="-2.415739000">
        <ele>379.20</ele>
        <time>2013-07-27T13:14:10Z</time>
      </trkpt>
      <trkpt lat="42.457576000" lon="-2.415683000">
        <ele>379.20</ele>
        <time>2013-07-27T13:14:11Z</time>
      </trkpt>
      <trkpt lat="42.457619000" lon="-2.415626000">
        <ele>379.20</ele>
        <time>2013-07-27T13:14:12Z</time>
      </trkpt>
      <trkpt lat="42.457664000" lon="-2.415573000">
        <ele>378.70</ele>
        <time>2013-07-27T13:14:13Z</time>
      </trkpt>
      <trkpt lat="42.457711000" lon="-2.415523000">
        <ele>378.40</ele>
        <time>2013-07-27T13:14:14Z</time>
      </trkpt>
      <trkpt lat="42.457760000" lon="-2.415475000">
        <ele>378.20</ele>
        <time>2013-07-27T13:14:15Z</time>
      </trkpt>
      <trkpt lat="42.457812000" lon="-2.415434000">
        <ele>378.00</ele>
        <time>2013-07-27T13:14:16Z</time>
      </trkpt>
      <trkpt lat="42.457856000" lon="-2.415392000">
        <ele>378.00</ele>
        <time>2013-07-27T13:14:17Z</time>
      </trkpt>
      <trkpt lat="42.457899000" lon="-2.415350000">
        <ele>378.00</ele>
        <time>2013-07-27T13:14:18Z</time>
      </trkpt>
      <trkpt lat="42.457939000" lon="-2.415306000">
        <ele>378.00</ele>
        <time>2013-07-27T13:14:19Z</time>
      </trkpt>
      <trkpt lat="42.457975000" lon="-2.415262000">
        <ele>378.00</ele>
        <time>2013-07-27T13:14:20Z</time>
      </trkpt>
      <trkpt lat="42.458008000" lon="-2.415217000">
        <ele>377.60</ele>
        <time>2013-07-27T13:14:21Z</time>
      </trkpt>
      <trkpt lat="42.458038000" lon="-2.415172000">
        <ele>377.30</ele>
        <time>2013-07-27T13:14:22Z</time>
      </trkpt>
      <trkpt lat="42.458068000" lon="-2.415128000">
        <ele>377.10</ele>
        <time>2013-07-27T13:14:23Z</time>
      </trkpt>
      <trkpt lat="42.458097000" lon="-2.415081000">
        <ele>376.90</ele>
        <time>2013-07-27T13:14:24Z</time>
      </trkpt>
      <trkpt lat="42.458128000" lon="-2.415036000">
        <ele>376.80</ele>
        <time>2013-07-27T13:14:25Z</time>
      </trkpt>
      <trkpt lat="42.458159000" lon="-2.414987000">
        <ele>376.70</ele>
        <time>2013-07-27T13:14:26Z</time>
      </trkpt>
      <trkpt lat="42.458192000" lon="-2.414943000">
        <ele>376.90</ele>
        <time>2013-07-27T13:14:27Z</time>
      </trkpt>
      <trkpt lat="42.458229000" lon="-2.414901000">
        <ele>377.10</ele>
        <time>2013-07-27T13:14:28Z</time>
      </trkpt>
      <trkpt lat="42.458266000" lon="-2.414858000">
        <ele>377.20</ele>
        <time>2013-07-27T13:14:29Z</time>
      </trkpt>
      <trkpt lat="42.458301000" lon="-2.414817000">
        <ele>377.30</ele>
        <time>2013-07-27T13:14:30Z</time>
      </trkpt>
      <trkpt lat="42.458337000" lon="-2.414776000">
        <ele>377.20</ele>
        <time>2013-07-27T13:14:31Z</time>
      </trkpt>
      <trkpt lat="42.458372000" lon="-2.414732000">
        <ele>377.10</ele>
        <time>2013-07-27T13:14:32Z</time>
      </trkpt>
      <trkpt lat="42.458409000" lon="-2.414691000">
        <ele>377.10</ele>
        <time>2013-07-27T13:14:33Z</time>
      </trkpt>
      <trkpt lat="42.458446000" lon="-2.414653000">
        <ele>377.10</ele>
        <time>2013-07-27T13:14:34Z</time>
      </trkpt>
      <trkpt lat="42.458487000" lon="-2.414619000">
        <ele>377.00</ele>
        <time>2013-07-27T13:14:35Z</time>
      </trkpt>
      <trkpt lat="42.458528000" lon="-2.414580000">
        <ele>377.00</ele>
        <time>2013-07-27T13:14:36Z</time>
      </trkpt>
      <trkpt lat="42.458567000" lon="-2.414539000">
        <ele>377.30</ele>
        <time>2013-07-27T13:14:37Z</time>
      </trkpt>
      <trkpt lat="42.458600000" lon="-2.414502000">
        <ele>377.60</ele>
        <time>2013-07-27T13:14:38Z</time>
      </trkpt>
      <trkpt lat="42.458634000" lon="-2.414462000">
        <ele>377.70</ele>
        <time>2013-07-27T13:14:39Z</time>
      </trkpt>
      <trkpt lat="42.458662000" lon="-2.414419000">
        <ele>377.90</ele>
        <time>2013-07-27T13:14:40Z</time>
      </trkpt>
      <trkpt lat="42.458689000" lon="-2.414378000">
        <ele>377.60</ele>
        <time>2013-07-27T13:14:41Z</time>
      </trkpt>
      <trkpt lat="42.458717000" lon="-2.414333000">
        <ele>377.40</ele>
        <time>2013-07-27T13:14:42Z</time>
      </trkpt>
      <trkpt lat="42.458745000" lon="-2.414295000">
        <ele>377.30</ele>
        <time>2013-07-27T13:14:43Z</time>
      </trkpt>
      <trkpt lat="42.458783000" lon="-2.414270000">
        <ele>377.20</ele>
        <time>2013-07-27T13:14:44Z</time>
      </trkpt>
      <trkpt lat="42.458825000" lon="-2.414256000">
        <ele>376.90</ele>
        <time>2013-07-27T13:14:45Z</time>
      </trkpt>
      <trkpt lat="42.458871000" lon="-2.414247000">
        <ele>376.70</ele>
        <time>2013-07-27T13:14:46Z</time>
      </trkpt>
      <trkpt lat="42.458914000" lon="-2.414239000">
        <ele>376.90</ele>
        <time>2013-07-27T13:14:47Z</time>
      </trkpt>
      <trkpt lat="42.458969000" lon="-2.414225000">
        <ele>377.00</ele>
        <time>2013-07-27T13:14:48Z</time>
      </trkpt>
      <trkpt lat="42.459029000" lon="-2.414211000">
        <ele>376.80</ele>
        <time>2013-07-27T13:14:49Z</time>
      </trkpt>
      <trkpt lat="42.459082000" lon="-2.414197000">
        <ele>376.60</ele>
        <time>2013-07-27T13:14:50Z</time>
      </trkpt>
      <trkpt lat="42.459128000" lon="-2.414185000">
        <ele>376.40</ele>
        <time>2013-07-27T13:14:51Z</time>
      </trkpt>
      <trkpt lat="42.459172000" lon="-2.414189000">
        <ele>376.20</ele>
        <time>2013-07-27T13:14:52Z</time>
      </trkpt>
      <trkpt lat="42.459216000" lon="-2.414204000">
        <ele>376.10</ele>
        <time>2013-07-27T13:14:53Z</time>
      </trkpt>
      <trkpt lat="42.459257000" lon="-2.414216000">
        <ele>376.00</ele>
        <time>2013-07-27T13:14:54Z</time>
      </trkpt>
      <trkpt lat="42.459306000" lon="-2.414235000">
        <ele>375.90</ele>
        <time>2013-07-27T13:14:55Z</time>
      </trkpt>
      <trkpt lat="42.459354000" lon="-2.414260000">
        <ele>375.80</ele>
        <time>2013-07-27T13:14:56Z</time>
      </trkpt>
      <trkpt lat="42.459401000" lon="-2.414287000">
        <ele>375.80</ele>
        <time>2013-07-27T13:14:57Z</time>
      </trkpt>
      <trkpt lat="42.459446000" lon="-2.414307000">
        <ele>375.80</ele>
        <time>2013-07-27T13:14:58Z</time>
      </trkpt>
      <trkpt lat="42.459483000" lon="-2.414323000">
        <ele>375.80</ele>
        <time>2013-07-27T13:14:59Z</time>
      </trkpt>
      <trkpt lat="42.459515000" lon="-2.414334000">
        <ele>375.80</ele>
        <time>2013-07-27T13:15:00Z</time>
      </trkpt>
      <trkpt lat="42.459545000" lon="-2.414341000">
        <ele>375.80</ele>
        <time>2013-07-27T13:15:01Z</time>
      </trkpt>
      <trkpt lat="42.459581000" lon="-2.414340000">
        <ele>375.80</ele>
        <time>2013-07-27T13:15:02Z</time>
      </trkpt>
      <trkpt lat="42.459623000" lon="-2.414311000">
        <ele>375.80</ele>
        <time>2013-07-27T13:15:03Z</time>
      </trkpt>
      <trkpt lat="42.459658000" lon="-2.414269000">
        <ele>375.80</ele>
        <time>2013-07-27T13:15:04Z</time>
      </trkpt>
      <trkpt lat="42.459710000" lon="-2.414232000">
        <ele>375.70</ele>
        <time>2013-07-27T13:15:05Z</time>
      </trkpt>
      <trkpt lat="42.459764000" lon="-2.414200000">
        <ele>375.70</ele>
        <time>2013-07-27T13:15:06Z</time>
      </trkpt>
      <trkpt lat="42.459819000" lon="-2.414181000">
        <ele>375.40</ele>
        <time>2013-07-27T13:15:07Z</time>
      </trkpt>
      <trkpt lat="42.459871000" lon="-2.414163000">
        <ele>375.20</ele>
        <time>2013-07-27T13:15:08Z</time>
      </trkpt>
      <trkpt lat="42.459924000" lon="-2.414143000">
        <ele>375.00</ele>
        <time>2013-07-27T13:15:09Z</time>
      </trkpt>
      <trkpt lat="42.459973000" lon="-2.414125000">
        <ele>374.80</ele>
        <time>2013-07-27T13:15:10Z</time>
      </trkpt>
      <trkpt lat="42.460012000" lon="-2.414114000">
        <ele>374.70</ele>
        <time>2013-07-27T13:15:11Z</time>
      </trkpt>
      <trkpt lat="42.460040000" lon="-2.414105000">
        <ele>374.60</ele>
        <time>2013-07-27T13:15:12Z</time>
      </trkpt>
      <trkpt lat="42.460064000" lon="-2.414096000">
        <ele>374.60</ele>
        <time>2013-07-27T13:15:13Z</time>
      </trkpt>
      <trkpt lat="42.460089000" lon="-2.414085000">
        <ele>374.60</ele>
        <time>2013-07-27T13:15:14Z</time>
      </trkpt>
      <trkpt lat="42.460119000" lon="-2.414072000">
        <ele>374.60</ele>
        <time>2013-07-27T13:15:15Z</time>
      </trkpt>
      <trkpt lat="42.460151000" lon="-2.414060000">
        <ele>374.60</ele>
        <time>2013-07-27T13:15:16Z</time>
      </trkpt>
      <trkpt lat="42.460181000" lon="-2.414045000">
        <ele>374.30</ele>
        <time>2013-07-27T13:15:17Z</time>
      </trkpt>
      <trkpt lat="42.460223000" lon="-2.414022000">
        <ele>374.10</ele>
        <time>2013-07-27T13:15:18Z</time>
      </trkpt>
      <trkpt lat="42.460263000" lon="-2.413985000">
        <ele>374.00</ele>
        <time>2013-07-27T13:15:19Z</time>
      </trkpt>
      <trkpt lat="42.460305000" lon="-2.413940000">
        <ele>373.80</ele>
        <time>2013-07-27T13:15:20Z</time>
      </trkpt>
      <trkpt lat="42.460346000" lon="-2.413896000">
        <ele>374.10</ele>
        <time>2013-07-27T13:15:21Z</time>
      </trkpt>
      <trkpt lat="42.460394000" lon="-2.413861000">
        <ele>374.30</ele>
        <time>2013-07-27T13:15:22Z</time>
      </trkpt>
      <trkpt lat="42.460450000" lon="-2.413838000">
        <ele>374.40</ele>
        <time>2013-07-27T13:15:23Z</time>
      </trkpt>
      <trkpt lat="42.460507000" lon="-2.413827000">
        <ele>374.50</ele>
        <time>2013-07-27T13:15:24Z</time>
      </trkpt>
      <trkpt lat="42.460557000" lon="-2.413812000">
        <ele>374.60</ele>
        <time>2013-07-27T13:15:25Z</time>
      </trkpt>
      <trkpt lat="42.460603000" lon="-2.413791000">
        <ele>374.60</ele>
        <time>2013-07-27T13:15:26Z</time>
      </trkpt>
      <trkpt lat="42.460655000" lon="-2.413774000">
        <ele>374.50</ele>
        <time>2013-07-27T13:15:27Z</time>
      </trkpt>
      <trkpt lat="42.460709000" lon="-2.413758000">
        <ele>374.50</ele>
        <time>2013-07-27T13:15:28Z</time>
      </trkpt>
      <trkpt lat="42.460766000" lon="-2.413749000">
        <ele>374.40</ele>
        <time>2013-07-27T13:15:29Z</time>
      </trkpt>
      <trkpt lat="42.460824000" lon="-2.413739000">
        <ele>374.30</ele>
        <time>2013-07-27T13:15:30Z</time>
      </trkpt>
      <trkpt lat="42.460878000" lon="-2.413734000">
        <ele>374.20</ele>
        <time>2013-07-27T13:15:31Z</time>
      </trkpt>
      <trkpt lat="42.460938000" lon="-2.413730000">
        <ele>374.20</ele>
        <time>2013-07-27T13:15:32Z</time>
      </trkpt>
      <trkpt lat="42.460999000" lon="-2.413729000">
        <ele>374.10</ele>
        <time>2013-07-27T13:15:33Z</time>
      </trkpt>
      <trkpt lat="42.461060000" lon="-2.413721000">
        <ele>374.10</ele>
        <time>2013-07-27T13:15:34Z</time>
      </trkpt>
      <trkpt lat="42.461127000" lon="-2.413705000">
        <ele>374.20</ele>
        <time>2013-07-27T13:15:35Z</time>
      </trkpt>
      <trkpt lat="42.461186000" lon="-2.413693000">
        <ele>374.30</ele>
        <time>2013-07-27T13:15:36Z</time>
      </trkpt>
      <trkpt lat="42.461247000" lon="-2.413678000">
        <ele>374.20</ele>
        <time>2013-07-27T13:15:37Z</time>
      </trkpt>
      <trkpt lat="42.461302000" lon="-2.413667000">
        <ele>374.10</ele>
        <time>2013-07-27T13:15:38Z</time>
      </trkpt>
      <trkpt lat="42.461354000" lon="-2.413653000">
        <ele>373.80</ele>
        <time>2013-07-27T13:15:39Z</time>
      </trkpt>
      <trkpt lat="42.461404000" lon="-2.413647000">
        <ele>373.60</ele>
        <time>2013-07-27T13:15:40Z</time>
      </trkpt>
      <trkpt lat="42.461453000" lon="-2.413644000">
        <ele>373.40</ele>
        <time>2013-07-27T13:15:41Z</time>
      </trkpt>
      <trkpt lat="42.461501000" lon="-2.413636000">
        <ele>373.30</ele>
        <time>2013-07-27T13:15:42Z</time>
      </trkpt>
      <trkpt lat="42.461551000" lon="-2.413621000">
        <ele>373.10</ele>
        <time>2013-07-27T13:15:43Z</time>
      </trkpt>
      <trkpt lat="42.461597000" lon="-2.413608000">
        <ele>373.00</ele>
        <time>2013-07-27T13:15:44Z</time>
      </trkpt>
      <trkpt lat="42.461643000" lon="-2.413585000">
        <ele>373.00</ele>
        <time>2013-07-27T13:15:45Z</time>
      </trkpt>
      <trkpt lat="42.461689000" lon="-2.413567000">
        <ele>373.00</ele>
        <time>2013-07-27T13:15:46Z</time>
      </trkpt>
      <trkpt lat="42.461737000" lon="-2.413541000">
        <ele>372.90</ele>
        <time>2013-07-27T13:15:47Z</time>
      </trkpt>
      <trkpt lat="42.461782000" lon="-2.413514000">
        <ele>372.80</ele>
        <time>2013-07-27T13:15:48Z</time>
      </trkpt>
      <trkpt lat="42.461826000" lon="-2.413494000">
        <ele>372.70</ele>
        <time>2013-07-27T13:15:49Z</time>
      </trkpt>
      <trkpt lat="42.461872000" lon="-2.413475000">
        <ele>372.60</ele>
        <time>2013-07-27T13:15:50Z</time>
      </trkpt>
      <trkpt lat="42.461926000" lon="-2.413456000">
        <ele>372.40</ele>
        <time>2013-07-27T13:15:51Z</time>
      </trkpt>
      <trkpt lat="42.461982000" lon="-2.413441000">
        <ele>372.30</ele>
        <time>2013-07-27T13:15:52Z</time>
      </trkpt>
      <trkpt lat="42.462040000" lon="-2.413425000">
        <ele>372.20</ele>
        <time>2013-07-27T13:15:53Z</time>
      </trkpt>
      <trkpt lat="42.462102000" lon="-2.413408000">
        <ele>372.10</ele>
        <time>2013-07-27T13:15:54Z</time>
      </trkpt>
      <trkpt lat="42.462157000" lon="-2.413389000">
        <ele>372.00</ele>
        <time>2013-07-27T13:15:55Z</time>
      </trkpt>
      <trkpt lat="42.462204000" lon="-2.413372000">
        <ele>372.00</ele>
        <time>2013-07-27T13:15:56Z</time>
      </trkpt>
      <trkpt lat="42.462252000" lon="-2.413350000">
        <ele>372.00</ele>
        <time>2013-07-27T13:15:57Z</time>
      </trkpt>
      <trkpt lat="42.462299000" lon="-2.413331000">
        <ele>371.90</ele>
        <time>2013-07-27T13:15:58Z</time>
      </trkpt>
      <trkpt lat="42.462345000" lon="-2.413314000">
        <ele>372.00</ele>
        <time>2013-07-27T13:15:59Z</time>
      </trkpt>
      <trkpt lat="42.462388000" lon="-2.413293000">
        <ele>372.00</ele>
        <time>2013-07-27T13:16:00Z</time>
      </trkpt>
      <trkpt lat="42.462430000" lon="-2.413267000">
        <ele>372.10</ele>
        <time>2013-07-27T13:16:01Z</time>
      </trkpt>
      <trkpt lat="42.462472000" lon="-2.413242000">
        <ele>372.10</ele>
        <time>2013-07-27T13:16:02Z</time>
      </trkpt>
      <trkpt lat="42.462517000" lon="-2.413217000">
        <ele>372.20</ele>
        <time>2013-07-27T13:16:03Z</time>
      </trkpt>
      <trkpt lat="42.462564000" lon="-2.413198000">
        <ele>372.20</ele>
        <time>2013-07-27T13:16:04Z</time>
      </trkpt>
      <trkpt lat="42.462613000" lon="-2.413178000">
        <ele>372.20</ele>
        <time>2013-07-27T13:16:05Z</time>
      </trkpt>
      <trkpt lat="42.462660000" lon="-2.413162000">
        <ele>372.10</ele>
        <time>2013-07-27T13:16:06Z</time>
      </trkpt>
      <trkpt lat="42.462703000" lon="-2.413136000">
        <ele>371.90</ele>
        <time>2013-07-27T13:16:07Z</time>
      </trkpt>
      <trkpt lat="42.462752000" lon="-2.413099000">
        <ele>371.70</ele>
        <time>2013-07-27T13:16:08Z</time>
      </trkpt>
      <trkpt lat="42.462802000" lon="-2.413055000">
        <ele>371.40</ele>
        <time>2013-07-27T13:16:09Z</time>
      </trkpt>
      <trkpt lat="42.462852000" lon="-2.413007000">
        <ele>371.20</ele>
        <time>2013-07-27T13:16:10Z</time>
      </trkpt>
      <trkpt lat="42.462894000" lon="-2.412950000">
        <ele>371.00</ele>
        <time>2013-07-27T13:16:11Z</time>
      </trkpt>
      <trkpt lat="42.462928000" lon="-2.412894000">
        <ele>370.90</ele>
        <time>2013-07-27T13:16:12Z</time>
      </trkpt>
      <trkpt lat="42.462962000" lon="-2.412845000">
        <ele>371.20</ele>
        <time>2013-07-27T13:16:13Z</time>
      </trkpt>
      <trkpt lat="42.462994000" lon="-2.412806000">
        <ele>371.40</ele>
        <time>2013-07-27T13:16:14Z</time>
      </trkpt>
      <trkpt lat="42.463037000" lon="-2.412782000">
        <ele>371.60</ele>
        <time>2013-07-27T13:16:15Z</time>
      </trkpt>
      <trkpt lat="42.463082000" lon="-2.412762000">
        <ele>371.80</ele>
        <time>2013-07-27T13:16:16Z</time>
      </trkpt>
      <trkpt lat="42.463129000" lon="-2.412742000">
        <ele>371.90</ele>
        <time>2013-07-27T13:16:17Z</time>
      </trkpt>
      <trkpt lat="42.463178000" lon="-2.412723000">
        <ele>372.00</ele>
        <time>2013-07-27T13:16:18Z</time>
      </trkpt>
      <trkpt lat="42.463226000" lon="-2.412701000">
        <ele>372.10</ele>
        <time>2013-07-27T13:16:19Z</time>
      </trkpt>
      <trkpt lat="42.463274000" lon="-2.412676000">
        <ele>372.10</ele>
        <time>2013-07-27T13:16:20Z</time>
      </trkpt>
      <trkpt lat="42.463323000" lon="-2.412660000">
        <ele>372.00</ele>
        <time>2013-07-27T13:16:21Z</time>
      </trkpt>
      <trkpt lat="42.463373000" lon="-2.412643000">
        <ele>371.90</ele>
        <time>2013-07-27T13:16:22Z</time>
      </trkpt>
      <trkpt lat="42.463423000" lon="-2.412624000">
        <ele>372.00</ele>
        <time>2013-07-27T13:16:23Z</time>
      </trkpt>
      <trkpt lat="42.463474000" lon="-2.412602000">
        <ele>372.10</ele>
        <time>2013-07-27T13:16:24Z</time>
      </trkpt>
      <trkpt lat="42.463522000" lon="-2.412580000">
        <ele>372.00</ele>
        <time>2013-07-27T13:16:25Z</time>
      </trkpt>
      <trkpt lat="42.463570000" lon="-2.412555000">
        <ele>371.90</ele>
        <time>2013-07-27T13:16:26Z</time>
      </trkpt>
      <trkpt lat="42.463612000" lon="-2.412528000">
        <ele>372.00</ele>
        <time>2013-07-27T13:16:27Z</time>
      </trkpt>
      <trkpt lat="42.463648000" lon="-2.412503000">
        <ele>372.10</ele>
        <time>2013-07-27T13:16:28Z</time>
      </trkpt>
      <trkpt lat="42.463672000" lon="-2.412483000">
        <ele>372.00</ele>
        <time>2013-07-27T13:16:29Z</time>
      </trkpt>
      <trkpt lat="42.463692000" lon="-2.412467000">
        <ele>372.00</ele>
        <time>2013-07-27T13:16:30Z</time>
      </trkpt>
      <trkpt lat="42.463710000" lon="-2.412450000">
        <ele>371.90</ele>
        <time>2013-07-27T13:16:31Z</time>
      </trkpt>
      <trkpt lat="42.463730000" lon="-2.412436000">
        <ele>371.90</ele>
        <time>2013-07-27T13:16:32Z</time>
      </trkpt>
      <trkpt lat="42.463756000" lon="-2.412425000">
        <ele>371.80</ele>
        <time>2013-07-27T13:16:33Z</time>
      </trkpt>
      <trkpt lat="42.463781000" lon="-2.412415000">
        <ele>371.70</ele>
        <time>2013-07-27T13:16:34Z</time>
      </trkpt>
      <trkpt lat="42.463802000" lon="-2.412409000">
        <ele>371.60</ele>
        <time>2013-07-27T13:16:35Z</time>
      </trkpt>
      <trkpt lat="42.463820000" lon="-2.412415000">
        <ele>371.60</ele>
        <time>2013-07-27T13:16:36Z</time>
      </trkpt>
      <trkpt lat="42.463827000" lon="-2.412436000">
        <ele>371.60</ele>
        <time>2013-07-27T13:16:37Z</time>
      </trkpt>
      <trkpt lat="42.463832000" lon="-2.412477000">
        <ele>371.70</ele>
        <time>2013-07-27T13:16:38Z</time>
      </trkpt>
      <trkpt lat="42.463837000" lon="-2.412521000">
        <ele>371.80</ele>
        <time>2013-07-27T13:16:39Z</time>
      </trkpt>
      <trkpt lat="42.463840000" lon="-2.412571000">
        <ele>371.90</ele>
        <time>2013-07-27T13:16:40Z</time>
      </trkpt>
      <trkpt lat="42.463844000" lon="-2.412623000">
        <ele>372.20</ele>
        <time>2013-07-27T13:16:41Z</time>
      </trkpt>
      <trkpt lat="42.463849000" lon="-2.412676000">
        <ele>372.30</ele>
        <time>2013-07-27T13:16:42Z</time>
      </trkpt>
      <trkpt lat="42.463848000" lon="-2.412725000">
        <ele>372.40</ele>
        <time>2013-07-27T13:16:43Z</time>
      </trkpt>
      <trkpt lat="42.463852000" lon="-2.412771000">
        <ele>372.50</ele>
        <time>2013-07-27T13:16:44Z</time>
      </trkpt>
      <trkpt lat="42.463856000" lon="-2.412812000">
        <ele>372.80</ele>
        <time>2013-07-27T13:16:45Z</time>
      </trkpt>
      <trkpt lat="42.463861000" lon="-2.412847000">
        <ele>373.00</ele>
        <time>2013-07-27T13:16:46Z</time>
      </trkpt>
      <trkpt lat="42.463866000" lon="-2.412879000">
        <ele>373.10</ele>
        <time>2013-07-27T13:16:47Z</time>
      </trkpt>
      <trkpt lat="42.463872000" lon="-2.412911000">
        <ele>373.30</ele>
        <time>2013-07-27T13:16:48Z</time>
      </trkpt>
      <trkpt lat="42.463881000" lon="-2.412944000">
        <ele>373.50</ele>
        <time>2013-07-27T13:16:49Z</time>
      </trkpt>
      <trkpt lat="42.463891000" lon="-2.412982000">
        <ele>373.70</ele>
        <time>2013-07-27T13:16:50Z</time>
      </trkpt>
      <trkpt lat="42.463899000" lon="-2.413026000">
        <ele>374.00</ele>
        <time>2013-07-27T13:16:51Z</time>
      </trkpt>
      <trkpt lat="42.463906000" lon="-2.413077000">
        <ele>374.20</ele>
        <time>2013-07-27T13:16:52Z</time>
      </trkpt>
      <trkpt lat="42.463914000" lon="-2.413136000">
        <ele>374.40</ele>
        <time>2013-07-27T13:16:53Z</time>
      </trkpt>
      <trkpt lat="42.463926000" lon="-2.413203000">
        <ele>374.50</ele>
        <time>2013-07-27T13:16:54Z</time>
      </trkpt>
      <trkpt lat="42.463940000" lon="-2.413276000">
        <ele>374.60</ele>
        <time>2013-07-27T13:16:55Z</time>
      </trkpt>
      <trkpt lat="42.463954000" lon="-2.413355000">
        <ele>374.70</ele>
        <time>2013-07-27T13:16:56Z</time>
      </trkpt>
      <trkpt lat="42.463967000" lon="-2.413437000">
        <ele>374.60</ele>
        <time>2013-07-27T13:16:57Z</time>
      </trkpt>
      <trkpt lat="42.463982000" lon="-2.413518000">
        <ele>374.60</ele>
        <time>2013-07-27T13:16:58Z</time>
      </trkpt>
      <trkpt lat="42.463995000" lon="-2.413594000">
        <ele>374.40</ele>
        <time>2013-07-27T13:16:59Z</time>
      </trkpt>
      <trkpt lat="42.464008000" lon="-2.413652000">
        <ele>374.40</ele>
        <time>2013-07-27T13:17:00Z</time>
      </trkpt>
      <trkpt lat="42.464017000" lon="-2.413706000">
        <ele>373.90</ele>
        <time>2013-07-27T13:17:01Z</time>
      </trkpt>
      <trkpt lat="42.464027000" lon="-2.413758000">
        <ele>373.60</ele>
        <time>2013-07-27T13:17:02Z</time>
      </trkpt>
      <trkpt lat="42.464039000" lon="-2.413813000">
        <ele>373.30</ele>
        <time>2013-07-27T13:17:03Z</time>
      </trkpt>
      <trkpt lat="42.464051000" lon="-2.413869000">
        <ele>373.10</ele>
        <time>2013-07-27T13:17:04Z</time>
      </trkpt>
      <trkpt lat="42.464059000" lon="-2.413918000">
        <ele>372.70</ele>
        <time>2013-07-27T13:17:05Z</time>
      </trkpt>
      <trkpt lat="42.464061000" lon="-2.413962000">
        <ele>372.40</ele>
        <time>2013-07-27T13:17:06Z</time>
      </trkpt>
      <trkpt lat="42.464065000" lon="-2.413996000">
        <ele>372.10</ele>
        <time>2013-07-27T13:17:07Z</time>
      </trkpt>
      <trkpt lat="42.464071000" lon="-2.414030000">
        <ele>371.90</ele>
        <time>2013-07-27T13:17:08Z</time>
      </trkpt>
      <trkpt lat="42.464088000" lon="-2.414057000">
        <ele>371.60</ele>
        <time>2013-07-27T13:17:09Z</time>
      </trkpt>
      <trkpt lat="42.464115000" lon="-2.414073000">
        <ele>371.30</ele>
        <time>2013-07-27T13:17:10Z</time>
      </trkpt>
      <trkpt lat="42.464150000" lon="-2.414065000">
        <ele>371.00</ele>
        <time>2013-07-27T13:17:11Z</time>
      </trkpt>
      <trkpt lat="42.464188000" lon="-2.414035000">
        <ele>370.80</ele>
        <time>2013-07-27T13:17:12Z</time>
      </trkpt>
      <trkpt lat="42.464229000" lon="-2.414011000">
        <ele>370.60</ele>
        <time>2013-07-27T13:17:13Z</time>
      </trkpt>
      <trkpt lat="42.464274000" lon="-2.413994000">
        <ele>370.40</ele>
        <time>2013-07-27T13:17:14Z</time>
      </trkpt>
      <trkpt lat="42.464325000" lon="-2.413982000">
        <ele>370.30</ele>
        <time>2013-07-27T13:17:15Z</time>
      </trkpt>
      <trkpt lat="42.464375000" lon="-2.413976000">
        <ele>370.20</ele>
        <time>2013-07-27T13:17:16Z</time>
      </trkpt>
      <trkpt lat="42.464427000" lon="-2.413966000">
        <ele>370.10</ele>
        <time>2013-07-27T13:17:17Z</time>
      </trkpt>
      <trkpt lat="42.464480000" lon="-2.413961000">
        <ele>370.00</ele>
        <time>2013-07-27T13:17:18Z</time>
      </trkpt>
      <trkpt lat="42.464532000" lon="-2.413953000">
        <ele>370.00</ele>
        <time>2013-07-27T13:17:19Z</time>
      </trkpt>
      <trkpt lat="42.464583000" lon="-2.413940000">
        <ele>370.00</ele>
        <time>2013-07-27T13:17:20Z</time>
      </trkpt>
      <trkpt lat="42.464636000" lon="-2.413929000">
        <ele>369.90</ele>
        <time>2013-07-27T13:17:21Z</time>
      </trkpt>
      <trkpt lat="42.464690000" lon="-2.413916000">
        <ele>369.90</ele>
        <time>2013-07-27T13:17:22Z</time>
      </trkpt>
      <trkpt lat="42.464742000" lon="-2.413905000">
        <ele>369.90</ele>
        <time>2013-07-27T13:17:23Z</time>
      </trkpt>
      <trkpt lat="42.464791000" lon="-2.413894000">
        <ele>369.90</ele>
        <time>2013-07-27T13:17:24Z</time>
      </trkpt>
      <trkpt lat="42.464840000" lon="-2.413883000">
        <ele>369.60</ele>
        <time>2013-07-27T13:17:25Z</time>
      </trkpt>
      <trkpt lat="42.464889000" lon="-2.413873000">
        <ele>369.40</ele>
        <time>2013-07-27T13:17:26Z</time>
      </trkpt>
      <trkpt lat="42.464936000" lon="-2.413867000">
        <ele>369.30</ele>
        <time>2013-07-27T13:17:27Z</time>
      </trkpt>
      <trkpt lat="42.464985000" lon="-2.413860000">
        <ele>369.20</ele>
        <time>2013-07-27T13:17:28Z</time>
      </trkpt>
      <trkpt lat="42.465035000" lon="-2.413859000">
        <ele>369.10</ele>
        <time>2013-07-27T13:17:29Z</time>
      </trkpt>
      <trkpt lat="42.465083000" lon="-2.413859000">
        <ele>369.00</ele>
        <time>2013-07-27T13:17:30Z</time>
      </trkpt>
      <trkpt lat="42.465132000" lon="-2.413866000">
        <ele>369.00</ele>
        <time>2013-07-27T13:17:31Z</time>
      </trkpt>
      <trkpt lat="42.465182000" lon="-2.413874000">
        <ele>369.10</ele>
        <time>2013-07-27T13:17:32Z</time>
      </trkpt>
      <trkpt lat="42.465234000" lon="-2.413879000">
        <ele>369.20</ele>
        <time>2013-07-27T13:17:33Z</time>
      </trkpt>
      <trkpt lat="42.465286000" lon="-2.413882000">
        <ele>369.30</ele>
        <time>2013-07-27T13:17:34Z</time>
      </trkpt>
      <trkpt lat="42.465337000" lon="-2.413881000">
        <ele>369.20</ele>
        <time>2013-07-27T13:17:35Z</time>
      </trkpt>
      <trkpt lat="42.465387000" lon="-2.413877000">
        <ele>369.20</ele>
        <time>2013-07-27T13:17:36Z</time>
      </trkpt>
      <trkpt lat="42.465437000" lon="-2.413872000">
        <ele>369.10</ele>
        <time>2013-07-27T13:17:37Z</time>
      </trkpt>
      <trkpt lat="42.465485000" lon="-2.413867000">
        <ele>369.00</ele>
        <time>2013-07-27T13:17:38Z</time>
      </trkpt>
      <trkpt lat="42.465527000" lon="-2.413859000">
        <ele>369.00</ele>
        <time>2013-07-27T13:17:39Z</time>
      </trkpt>
      <trkpt lat="42.465569000" lon="-2.413857000">
        <ele>369.00</ele>
        <time>2013-07-27T13:17:40Z</time>
      </trkpt>
      <trkpt lat="42.465619000" lon="-2.413853000">
        <ele>369.40</ele>
        <time>2013-07-27T13:17:41Z</time>
      </trkpt>
      <trkpt lat="42.465668000" lon="-2.413849000">
        <ele>369.70</ele>
        <time>2013-07-27T13:17:42Z</time>
      </trkpt>
      <trkpt lat="42.465713000" lon="-2.413864000">
        <ele>369.90</ele>
        <time>2013-07-27T13:17:43Z</time>
      </trkpt>
      <trkpt lat="42.465747000" lon="-2.413899000">
        <ele>370.10</ele>
        <time>2013-07-27T13:17:44Z</time>
      </trkpt>
      <trkpt lat="42.465776000" lon="-2.413946000">
        <ele>370.20</ele>
        <time>2013-07-27T13:17:45Z</time>
      </trkpt>
      <trkpt lat="42.465807000" lon="-2.413997000">
        <ele>370.20</ele>
        <time>2013-07-27T13:17:46Z</time>
      </trkpt>
      <trkpt lat="42.465834000" lon="-2.414050000">
        <ele>369.90</ele>
        <time>2013-07-27T13:17:47Z</time>
      </trkpt>
      <trkpt lat="42.465853000" lon="-2.414106000">
        <ele>369.70</ele>
        <time>2013-07-27T13:17:48Z</time>
      </trkpt>
      <trkpt lat="42.465870000" lon="-2.414169000">
        <ele>369.70</ele>
        <time>2013-07-27T13:17:49Z</time>
      </trkpt>
      <trkpt lat="42.465885000" lon="-2.414233000">
        <ele>369.70</ele>
        <time>2013-07-27T13:17:50Z</time>
      </trkpt>
      <trkpt lat="42.465901000" lon="-2.414292000">
        <ele>369.70</ele>
        <time>2013-07-27T13:17:51Z</time>
      </trkpt>
      <trkpt lat="42.465915000" lon="-2.414354000">
        <ele>369.70</ele>
        <time>2013-07-27T13:17:52Z</time>
      </trkpt>
      <trkpt lat="42.465929000" lon="-2.414421000">
        <ele>369.60</ele>
        <time>2013-07-27T13:17:53Z</time>
      </trkpt>
      <trkpt lat="42.465944000" lon="-2.414485000">
        <ele>369.60</ele>
        <time>2013-07-27T13:17:54Z</time>
      </trkpt>
      <trkpt lat="42.465959000" lon="-2.414547000">
        <ele>369.60</ele>
        <time>2013-07-27T13:17:55Z</time>
      </trkpt>
      <trkpt lat="42.465979000" lon="-2.414608000">
        <ele>369.60</ele>
        <time>2013-07-27T13:17:56Z</time>
      </trkpt>
      <trkpt lat="42.465998000" lon="-2.414674000">
        <ele>369.60</ele>
        <time>2013-07-27T13:17:57Z</time>
      </trkpt>
      <trkpt lat="42.466021000" lon="-2.414737000">
        <ele>369.60</ele>
        <time>2013-07-27T13:17:58Z</time>
      </trkpt>
      <trkpt lat="42.466048000" lon="-2.414798000">
        <ele>369.50</ele>
        <time>2013-07-27T13:17:59Z</time>
      </trkpt>
      <trkpt lat="42.466073000" lon="-2.414862000">
        <ele>369.40</ele>
        <time>2013-07-27T13:18:00Z</time>
      </trkpt>
      <trkpt lat="42.466098000" lon="-2.414926000">
        <ele>369.60</ele>
        <time>2013-07-27T13:18:01Z</time>
      </trkpt>
      <trkpt lat="42.466125000" lon="-2.414997000">
        <ele>369.70</ele>
        <time>2013-07-27T13:18:02Z</time>
      </trkpt>
      <trkpt lat="42.466149000" lon="-2.415067000">
        <ele>369.20</ele>
        <time>2013-07-27T13:18:03Z</time>
      </trkpt>
      <trkpt lat="42.466171000" lon="-2.415139000">
        <ele>368.80</ele>
        <time>2013-07-27T13:18:04Z</time>
      </trkpt>
      <trkpt lat="42.466191000" lon="-2.415212000">
        <ele>369.10</ele>
        <time>2013-07-27T13:18:05Z</time>
      </trkpt>
      <trkpt lat="42.466208000" lon="-2.415287000">
        <ele>369.40</ele>
        <time>2013-07-27T13:18:06Z</time>
      </trkpt>
      <trkpt lat="42.466224000" lon="-2.415364000">
        <ele>369.20</ele>
        <time>2013-07-27T13:18:07Z</time>
      </trkpt>
      <trkpt lat="42.466239000" lon="-2.415437000">
        <ele>369.00</ele>
        <time>2013-07-27T13:18:08Z</time>
      </trkpt>
      <trkpt lat="42.466260000" lon="-2.415506000">
        <ele>369.20</ele>
        <time>2013-07-27T13:18:09Z</time>
      </trkpt>
      <trkpt lat="42.466279000" lon="-2.415568000">
        <ele>369.40</ele>
        <time>2013-07-27T13:18:10Z</time>
      </trkpt>
      <trkpt lat="42.466301000" lon="-2.415619000">
        <ele>369.40</ele>
        <time>2013-07-27T13:18:11Z</time>
      </trkpt>
      <trkpt lat="42.466328000" lon="-2.415671000">
        <ele>369.40</ele>
        <time>2013-07-27T13:18:12Z</time>
      </trkpt>
      <trkpt lat="42.466358000" lon="-2.415726000">
        <ele>369.50</ele>
        <time>2013-07-27T13:18:13Z</time>
      </trkpt>
      <trkpt lat="42.466382000" lon="-2.415779000">
        <ele>369.60</ele>
        <time>2013-07-27T13:18:14Z</time>
      </trkpt>
      <trkpt lat="42.466407000" lon="-2.415839000">
        <ele>369.50</ele>
        <time>2013-07-27T13:18:15Z</time>
      </trkpt>
      <trkpt lat="42.466430000" lon="-2.415898000">
        <ele>369.50</ele>
        <time>2013-07-27T13:18:16Z</time>
      </trkpt>
      <trkpt lat="42.466453000" lon="-2.415958000">
        <ele>369.50</ele>
        <time>2013-07-27T13:18:17Z</time>
      </trkpt>
      <trkpt lat="42.466476000" lon="-2.416015000">
        <ele>369.40</ele>
        <time>2013-07-27T13:18:18Z</time>
      </trkpt>
      <trkpt lat="42.466503000" lon="-2.416074000">
        <ele>369.30</ele>
        <time>2013-07-27T13:18:19Z</time>
      </trkpt>
      <trkpt lat="42.466530000" lon="-2.416135000">
        <ele>369.30</ele>
        <time>2013-07-27T13:18:20Z</time>
      </trkpt>
      <trkpt lat="42.466554000" lon="-2.416200000">
        <ele>369.20</ele>
        <time>2013-07-27T13:18:21Z</time>
      </trkpt>
      <trkpt lat="42.466578000" lon="-2.416266000">
        <ele>369.20</ele>
        <time>2013-07-27T13:18:22Z</time>
      </trkpt>
      <trkpt lat="42.466596000" lon="-2.416335000">
        <ele>369.20</ele>
        <time>2013-07-27T13:18:23Z</time>
      </trkpt>
      <trkpt lat="42.466609000" lon="-2.416407000">
        <ele>369.20</ele>
        <time>2013-07-27T13:18:24Z</time>
      </trkpt>
      <trkpt lat="42.466618000" lon="-2.416479000">
        <ele>369.40</ele>
        <time>2013-07-27T13:18:25Z</time>
      </trkpt>
      <trkpt lat="42.466626000" lon="-2.416553000">
        <ele>369.60</ele>
        <time>2013-07-27T13:18:26Z</time>
      </trkpt>
      <trkpt lat="42.466633000" lon="-2.416626000">
        <ele>369.80</ele>
        <time>2013-07-27T13:18:27Z</time>
      </trkpt>
      <trkpt lat="42.466645000" lon="-2.416692000">
        <ele>369.90</ele>
        <time>2013-07-27T13:18:28Z</time>
      </trkpt>
      <trkpt lat="42.466661000" lon="-2.416757000">
        <ele>370.00</ele>
        <time>2013-07-27T13:18:29Z</time>
      </trkpt>
      <trkpt lat="42.466681000" lon="-2.416813000">
        <ele>370.10</ele>
        <time>2013-07-27T13:18:30Z</time>
      </trkpt>
      <trkpt lat="42.466707000" lon="-2.416869000">
        <ele>370.10</ele>
        <time>2013-07-27T13:18:31Z</time>
      </trkpt>
      <trkpt lat="42.466729000" lon="-2.416922000">
        <ele>370.00</ele>
        <time>2013-07-27T13:18:32Z</time>
      </trkpt>
      <trkpt lat="42.466758000" lon="-2.416971000">
        <ele>370.00</ele>
        <time>2013-07-27T13:18:33Z</time>
      </trkpt>
      <trkpt lat="42.466788000" lon="-2.417020000">
        <ele>370.00</ele>
        <time>2013-07-27T13:18:34Z</time>
      </trkpt>
      <trkpt lat="42.466817000" lon="-2.417066000">
        <ele>370.20</ele>
        <time>2013-07-27T13:18:35Z</time>
      </trkpt>
      <trkpt lat="42.466846000" lon="-2.417114000">
        <ele>370.40</ele>
        <time>2013-07-27T13:18:36Z</time>
      </trkpt>
      <trkpt lat="42.466874000" lon="-2.417165000">
        <ele>371.00</ele>
        <time>2013-07-27T13:18:37Z</time>
      </trkpt>
      <trkpt lat="42.466903000" lon="-2.417216000">
        <ele>371.40</ele>
        <time>2013-07-27T13:18:38Z</time>
      </trkpt>
      <trkpt lat="42.466931000" lon="-2.417267000">
        <ele>371.70</ele>
        <time>2013-07-27T13:18:39Z</time>
      </trkpt>
      <trkpt lat="42.466959000" lon="-2.417318000">
        <ele>372.00</ele>
        <time>2013-07-27T13:18:40Z</time>
      </trkpt>
      <trkpt lat="42.466983000" lon="-2.417371000">
        <ele>372.00</ele>
        <time>2013-07-27T13:18:41Z</time>
      </trkpt>
      <trkpt lat="42.467004000" lon="-2.417421000">
        <ele>372.10</ele>
        <time>2013-07-27T13:18:42Z</time>
      </trkpt>
      <trkpt lat="42.467025000" lon="-2.417469000">
        <ele>372.10</ele>
        <time>2013-07-27T13:18:43Z</time>
      </trkpt>
      <trkpt lat="42.467048000" lon="-2.417518000">
        <ele>372.10</ele>
        <time>2013-07-27T13:18:44Z</time>
      </trkpt>
      <trkpt lat="42.467066000" lon="-2.417570000">
        <ele>372.50</ele>
        <time>2013-07-27T13:18:45Z</time>
      </trkpt>
      <trkpt lat="42.467085000" lon="-2.417620000">
        <ele>372.80</ele>
        <time>2013-07-27T13:18:46Z</time>
      </trkpt>
      <trkpt lat="42.467109000" lon="-2.417671000">
        <ele>373.00</ele>
        <time>2013-07-27T13:18:47Z</time>
      </trkpt>
      <trkpt lat="42.467131000" lon="-2.417719000">
        <ele>373.10</ele>
        <time>2013-07-27T13:18:48Z</time>
      </trkpt>
      <trkpt lat="42.467156000" lon="-2.417771000">
        <ele>373.30</ele>
        <time>2013-07-27T13:18:49Z</time>
      </trkpt>
      <trkpt lat="42.467177000" lon="-2.417815000">
        <ele>373.40</ele>
        <time>2013-07-27T13:18:50Z</time>
      </trkpt>
      <trkpt lat="42.467196000" lon="-2.417861000">
        <ele>373.30</ele>
        <time>2013-07-27T13:18:51Z</time>
      </trkpt>
      <trkpt lat="42.467210000" lon="-2.417902000">
        <ele>373.10</ele>
        <time>2013-07-27T13:18:52Z</time>
      </trkpt>
      <trkpt lat="42.467224000" lon="-2.417937000">
        <ele>373.20</ele>
        <time>2013-07-27T13:18:53Z</time>
      </trkpt>
      <trkpt lat="42.467238000" lon="-2.417973000">
        <ele>373.30</ele>
        <time>2013-07-27T13:18:54Z</time>
      </trkpt>
      <trkpt lat="42.467248000" lon="-2.418007000">
        <ele>373.20</ele>
        <time>2013-07-27T13:18:55Z</time>
      </trkpt>
      <trkpt lat="42.467255000" lon="-2.418048000">
        <ele>373.10</ele>
        <time>2013-07-27T13:18:56Z</time>
      </trkpt>
      <trkpt lat="42.467261000" lon="-2.418093000">
        <ele>373.00</ele>
        <time>2013-07-27T13:18:57Z</time>
      </trkpt>
      <trkpt lat="42.467264000" lon="-2.418142000">
        <ele>372.90</ele>
        <time>2013-07-27T13:18:58Z</time>
      </trkpt>
      <trkpt lat="42.467250000" lon="-2.418197000">
        <ele>372.80</ele>
        <time>2013-07-27T13:18:59Z</time>
      </trkpt>
      <trkpt lat="42.467219000" lon="-2.418244000">
        <ele>372.70</ele>
        <time>2013-07-27T13:19:00Z</time>
      </trkpt>
      <trkpt lat="42.467191000" lon="-2.418272000">
        <ele>372.60</ele>
        <time>2013-07-27T13:19:01Z</time>
      </trkpt>
      <trkpt lat="42.467168000" lon="-2.418296000">
        <ele>372.50</ele>
        <time>2013-07-27T13:19:02Z</time>
      </trkpt>
      <trkpt lat="42.467147000" lon="-2.418325000">
        <ele>372.40</ele>
        <time>2013-07-27T13:19:03Z</time>
      </trkpt>
      <trkpt lat="42.467138000" lon="-2.418357000">
        <ele>372.40</ele>
        <time>2013-07-27T13:19:04Z</time>
      </trkpt>
      <trkpt lat="42.467146000" lon="-2.418383000">
        <ele>372.30</ele>
        <time>2013-07-27T13:19:05Z</time>
      </trkpt>
      <trkpt lat="42.467169000" lon="-2.418399000">
        <ele>372.30</ele>
        <time>2013-07-27T13:19:06Z</time>
      </trkpt>
      <trkpt lat="42.467207000" lon="-2.418407000">
        <ele>372.40</ele>
        <time>2013-07-27T13:19:07Z</time>
      </trkpt>
      <trkpt lat="42.467253000" lon="-2.418431000">
        <ele>372.50</ele>
        <time>2013-07-27T13:19:08Z</time>
      </trkpt>
      <trkpt lat="42.467294000" lon="-2.418477000">
        <ele>372.50</ele>
        <time>2013-07-27T13:19:09Z</time>
      </trkpt>
      <trkpt lat="42.467334000" lon="-2.418514000">
        <ele>372.60</ele>
        <time>2013-07-27T13:19:10Z</time>
      </trkpt>
      <trkpt lat="42.467369000" lon="-2.418554000">
        <ele>371.90</ele>
        <time>2013-07-27T13:19:11Z</time>
      </trkpt>
      <trkpt lat="42.467402000" lon="-2.418592000">
        <ele>371.40</ele>
        <time>2013-07-27T13:19:12Z</time>
      </trkpt>
      <trkpt lat="42.467443000" lon="-2.418650000">
        <ele>371.00</ele>
        <time>2013-07-27T13:19:13Z</time>
      </trkpt>
      <trkpt lat="42.467454000" lon="-2.418743000">
        <ele>370.70</ele>
        <time>2013-07-27T13:19:14Z</time>
      </trkpt>
      <trkpt lat="42.467452000" lon="-2.418837000">
        <ele>370.60</ele>
        <time>2013-07-27T13:19:15Z</time>
      </trkpt>
      <trkpt lat="42.467456000" lon="-2.418925000">
        <ele>370.50</ele>
        <time>2013-07-27T13:19:16Z</time>
      </trkpt>
      <trkpt lat="42.467458000" lon="-2.419010000">
        <ele>370.40</ele>
        <time>2013-07-27T13:19:17Z</time>
      </trkpt>
      <trkpt lat="42.467460000" lon="-2.419091000">
        <ele>370.30</ele>
        <time>2013-07-27T13:19:18Z</time>
      </trkpt>
      <trkpt lat="42.467462000" lon="-2.419168000">
        <ele>370.50</ele>
        <time>2013-07-27T13:19:19Z</time>
      </trkpt>
      <trkpt lat="42.467470000" lon="-2.419235000">
        <ele>370.60</ele>
        <time>2013-07-27T13:19:20Z</time>
      </trkpt>
      <trkpt lat="42.467485000" lon="-2.419297000">
        <ele>370.60</ele>
        <time>2013-07-27T13:19:21Z</time>
      </trkpt>
      <trkpt lat="42.467507000" lon="-2.419357000">
        <ele>370.70</ele>
        <time>2013-07-27T13:19:22Z</time>
      </trkpt>
      <trkpt lat="42.467531000" lon="-2.419416000">
        <ele>370.80</ele>
        <time>2013-07-27T13:19:23Z</time>
      </trkpt>
      <trkpt lat="42.467560000" lon="-2.419476000">
        <ele>370.80</ele>
        <time>2013-07-27T13:19:24Z</time>
      </trkpt>
      <trkpt lat="42.467591000" lon="-2.419530000">
        <ele>371.20</ele>
        <time>2013-07-27T13:19:25Z</time>
      </trkpt>
      <trkpt lat="42.467616000" lon="-2.419579000">
        <ele>371.50</ele>
        <time>2013-07-27T13:19:26Z</time>
      </trkpt>
      <trkpt lat="42.467637000" lon="-2.419629000">
        <ele>371.70</ele>
        <time>2013-07-27T13:19:27Z</time>
      </trkpt>
      <trkpt lat="42.467659000" lon="-2.419680000">
        <ele>371.90</ele>
        <time>2013-07-27T13:19:28Z</time>
      </trkpt>
      <trkpt lat="42.467678000" lon="-2.419734000">
        <ele>372.20</ele>
        <time>2013-07-27T13:19:29Z</time>
      </trkpt>
      <trkpt lat="42.467697000" lon="-2.419789000">
        <ele>372.30</ele>
        <time>2013-07-27T13:19:30Z</time>
      </trkpt>
      <trkpt lat="42.467713000" lon="-2.419844000">
        <ele>372.60</ele>
        <time>2013-07-27T13:19:31Z</time>
      </trkpt>
      <trkpt lat="42.467730000" lon="-2.419900000">
        <ele>372.80</ele>
        <time>2013-07-27T13:19:32Z</time>
      </trkpt>
      <trkpt lat="42.467752000" lon="-2.419955000">
        <ele>373.00</ele>
        <time>2013-07-27T13:19:33Z</time>
      </trkpt>
      <trkpt lat="42.467776000" lon="-2.420009000">
        <ele>373.10</ele>
        <time>2013-07-27T13:19:34Z</time>
      </trkpt>
      <trkpt lat="42.467799000" lon="-2.420064000">
        <ele>373.20</ele>
        <time>2013-07-27T13:19:35Z</time>
      </trkpt>
      <trkpt lat="42.467825000" lon="-2.420116000">
        <ele>373.30</ele>
        <time>2013-07-27T13:19:36Z</time>
      </trkpt>
      <trkpt lat="42.467850000" lon="-2.420172000">
        <ele>373.50</ele>
        <time>2013-07-27T13:19:37Z</time>
      </trkpt>
      <trkpt lat="42.467874000" lon="-2.420225000">
        <ele>373.60</ele>
        <time>2013-07-27T13:19:38Z</time>
      </trkpt>
      <trkpt lat="42.467902000" lon="-2.420277000">
        <ele>373.60</ele>
        <time>2013-07-27T13:19:39Z</time>
      </trkpt>
      <trkpt lat="42.467931000" lon="-2.420331000">
        <ele>373.70</ele>
        <time>2013-07-27T13:19:40Z</time>
      </trkpt>
      <trkpt lat="42.467959000" lon="-2.420381000">
        <ele>373.90</ele>
        <time>2013-07-27T13:19:41Z</time>
      </trkpt>
      <trkpt lat="42.467988000" lon="-2.420435000">
        <ele>374.00</ele>
        <time>2013-07-27T13:19:42Z</time>
      </trkpt>
      <trkpt lat="42.468019000" lon="-2.420485000">
        <ele>374.00</ele>
        <time>2013-07-27T13:19:43Z</time>
      </trkpt>
      <trkpt lat="42.468051000" lon="-2.420535000">
        <ele>373.90</ele>
        <time>2013-07-27T13:19:44Z</time>
      </trkpt>
      <trkpt lat="42.468087000" lon="-2.420585000">
        <ele>374.00</ele>
        <time>2013-07-27T13:19:45Z</time>
      </trkpt>
      <trkpt lat="42.468121000" lon="-2.420636000">
        <ele>374.10</ele>
        <time>2013-07-27T13:19:46Z</time>
      </trkpt>
      <trkpt lat="42.468153000" lon="-2.420691000">
        <ele>374.10</ele>
        <time>2013-07-27T13:19:47Z</time>
      </trkpt>
      <trkpt lat="42.468180000" lon="-2.420752000">
        <ele>374.10</ele>
        <time>2013-07-27T13:19:48Z</time>
      </trkpt>
      <trkpt lat="42.468203000" lon="-2.420817000">
        <ele>374.20</ele>
        <time>2013-07-27T13:19:49Z</time>
      </trkpt>
      <trkpt lat="42.468220000" lon="-2.420885000">
        <ele>374.20</ele>
        <time>2013-07-27T13:19:50Z</time>
      </trkpt>
      <trkpt lat="42.468238000" lon="-2.420950000">
        <ele>374.20</ele>
        <time>2013-07-27T13:19:51Z</time>
      </trkpt>
      <trkpt lat="42.468258000" lon="-2.421016000">
        <ele>374.20</ele>
        <time>2013-07-27T13:19:52Z</time>
      </trkpt>
      <trkpt lat="42.468284000" lon="-2.421082000">
        <ele>374.20</ele>
        <time>2013-07-27T13:19:53Z</time>
      </trkpt>
      <trkpt lat="42.468311000" lon="-2.421148000">
        <ele>374.30</ele>
        <time>2013-07-27T13:19:54Z</time>
      </trkpt>
      <trkpt lat="42.468344000" lon="-2.421217000">
        <ele>374.20</ele>
        <time>2013-07-27T13:19:55Z</time>
      </trkpt>
      <trkpt lat="42.468389000" lon="-2.421277000">
        <ele>374.20</ele>
        <time>2013-07-27T13:19:56Z</time>
      </trkpt>
      <trkpt lat="42.468431000" lon="-2.421342000">
        <ele>374.20</ele>
        <time>2013-07-27T13:19:57Z</time>
      </trkpt>
      <trkpt lat="42.468466000" lon="-2.421413000">
        <ele>374.20</ele>
        <time>2013-07-27T13:19:58Z</time>
      </trkpt>
      <trkpt lat="42.468500000" lon="-2.421484000">
        <ele>374.20</ele>
        <time>2013-07-27T13:19:59Z</time>
      </trkpt>
      <trkpt lat="42.468531000" lon="-2.421555000">
        <ele>374.10</ele>
        <time>2013-07-27T13:20:00Z</time>
      </trkpt>
      <trkpt lat="42.468568000" lon="-2.421621000">
        <ele>374.20</ele>
        <time>2013-07-27T13:20:01Z</time>
      </trkpt>
      <trkpt lat="42.468607000" lon="-2.421683000">
        <ele>374.20</ele>
        <time>2013-07-27T13:20:02Z</time>
      </trkpt>
      <trkpt lat="42.468648000" lon="-2.421743000">
        <ele>374.30</ele>
        <time>2013-07-27T13:20:03Z</time>
      </trkpt>
      <trkpt lat="42.468688000" lon="-2.421805000">
        <ele>374.30</ele>
        <time>2013-07-27T13:20:04Z</time>
      </trkpt>
      <trkpt lat="42.468724000" lon="-2.421869000">
        <ele>374.20</ele>
        <time>2013-07-27T13:20:05Z</time>
      </trkpt>
      <trkpt lat="42.468753000" lon="-2.421938000">
        <ele>374.10</ele>
        <time>2013-07-27T13:20:06Z</time>
      </trkpt>
      <trkpt lat="42.468775000" lon="-2.422009000">
        <ele>373.80</ele>
        <time>2013-07-27T13:20:07Z</time>
      </trkpt>
      <trkpt lat="42.468789000" lon="-2.422080000">
        <ele>373.50</ele>
        <time>2013-07-27T13:20:08Z</time>
      </trkpt>
      <trkpt lat="42.468790000" lon="-2.422152000">
        <ele>373.40</ele>
        <time>2013-07-27T13:20:09Z</time>
      </trkpt>
      <trkpt lat="42.468776000" lon="-2.422221000">
        <ele>373.20</ele>
        <time>2013-07-27T13:20:10Z</time>
      </trkpt>
      <trkpt lat="42.468755000" lon="-2.422285000">
        <ele>373.40</ele>
        <time>2013-07-27T13:20:11Z</time>
      </trkpt>
      <trkpt lat="42.468736000" lon="-2.422350000">
        <ele>373.60</ele>
        <time>2013-07-27T13:20:12Z</time>
      </trkpt>
      <trkpt lat="42.468730000" lon="-2.422416000">
        <ele>373.90</ele>
        <time>2013-07-27T13:20:13Z</time>
      </trkpt>
      <trkpt lat="42.468738000" lon="-2.422480000">
        <ele>374.20</ele>
        <time>2013-07-27T13:20:14Z</time>
      </trkpt>
      <trkpt lat="42.468760000" lon="-2.422536000">
        <ele>374.40</ele>
        <time>2013-07-27T13:20:15Z</time>
      </trkpt>
      <trkpt lat="42.468792000" lon="-2.422586000">
        <ele>374.50</ele>
        <time>2013-07-27T13:20:16Z</time>
      </trkpt>
      <trkpt lat="42.468824000" lon="-2.422635000">
        <ele>374.60</ele>
        <time>2013-07-27T13:20:17Z</time>
      </trkpt>
      <trkpt lat="42.468856000" lon="-2.422686000">
        <ele>374.70</ele>
        <time>2013-07-27T13:20:18Z</time>
      </trkpt>
      <trkpt lat="42.468890000" lon="-2.422736000">
        <ele>374.30</ele>
        <time>2013-07-27T13:20:19Z</time>
      </trkpt>
      <trkpt lat="42.468926000" lon="-2.422784000">
        <ele>374.10</ele>
        <time>2013-07-27T13:20:20Z</time>
      </trkpt>
      <trkpt lat="42.468961000" lon="-2.422831000">
        <ele>373.90</ele>
        <time>2013-07-27T13:20:21Z</time>
      </trkpt>
      <trkpt lat="42.468993000" lon="-2.422881000">
        <ele>373.80</ele>
        <time>2013-07-27T13:20:22Z</time>
      </trkpt>
      <trkpt lat="42.469026000" lon="-2.422931000">
        <ele>373.80</ele>
        <time>2013-07-27T13:20:23Z</time>
      </trkpt>
      <trkpt lat="42.469058000" lon="-2.422980000">
        <ele>373.90</ele>
        <time>2013-07-27T13:20:24Z</time>
      </trkpt>
      <trkpt lat="42.469090000" lon="-2.423028000">
        <ele>374.10</ele>
        <time>2013-07-27T13:20:25Z</time>
      </trkpt>
      <trkpt lat="42.469122000" lon="-2.423077000">
        <ele>374.20</ele>
        <time>2013-07-27T13:20:26Z</time>
      </trkpt>
      <trkpt lat="42.469153000" lon="-2.423130000">
        <ele>374.30</ele>
        <time>2013-07-27T13:20:27Z</time>
      </trkpt>
      <trkpt lat="42.469187000" lon="-2.423182000">
        <ele>374.40</ele>
        <time>2013-07-27T13:20:28Z</time>
      </trkpt>
      <trkpt lat="42.469217000" lon="-2.423229000">
        <ele>374.50</ele>
        <time>2013-07-27T13:20:29Z</time>
      </trkpt>
      <trkpt lat="42.469250000" lon="-2.423280000">
        <ele>374.50</ele>
        <time>2013-07-27T13:20:30Z</time>
      </trkpt>
      <trkpt lat="42.469284000" lon="-2.423331000">
        <ele>374.30</ele>
        <time>2013-07-27T13:20:31Z</time>
      </trkpt>
      <trkpt lat="42.469313000" lon="-2.423384000">
        <ele>374.20</ele>
        <time>2013-07-27T13:20:32Z</time>
      </trkpt>
      <trkpt lat="42.469336000" lon="-2.423443000">
        <ele>374.10</ele>
        <time>2013-07-27T13:20:33Z</time>
      </trkpt>
      <trkpt lat="42.469354000" lon="-2.423505000">
        <ele>374.10</ele>
        <time>2013-07-27T13:20:34Z</time>
      </trkpt>
      <trkpt lat="42.469375000" lon="-2.423567000">
        <ele>374.30</ele>
        <time>2013-07-27T13:20:35Z</time>
      </trkpt>
      <trkpt lat="42.469395000" lon="-2.423629000">
        <ele>374.40</ele>
        <time>2013-07-27T13:20:36Z</time>
      </trkpt>
      <trkpt lat="42.469413000" lon="-2.423692000">
        <ele>374.50</ele>
        <time>2013-07-27T13:20:37Z</time>
      </trkpt>
      <trkpt lat="42.469427000" lon="-2.423755000">
        <ele>374.60</ele>
        <time>2013-07-27T13:20:38Z</time>
      </trkpt>
      <trkpt lat="42.469439000" lon="-2.423814000">
        <ele>374.60</ele>
        <time>2013-07-27T13:20:39Z</time>
      </trkpt>
      <trkpt lat="42.469450000" lon="-2.423871000">
        <ele>374.60</ele>
        <time>2013-07-27T13:20:40Z</time>
      </trkpt>
      <trkpt lat="42.469456000" lon="-2.423930000">
        <ele>374.60</ele>
        <time>2013-07-27T13:20:41Z</time>
      </trkpt>
      <trkpt lat="42.469460000" lon="-2.423987000">
        <ele>374.60</ele>
        <time>2013-07-27T13:20:42Z</time>
      </trkpt>
      <trkpt lat="42.469463000" lon="-2.424044000">
        <ele>374.50</ele>
        <time>2013-07-27T13:20:43Z</time>
      </trkpt>
      <trkpt lat="42.469465000" lon="-2.424101000">
        <ele>374.40</ele>
        <time>2013-07-27T13:20:44Z</time>
      </trkpt>
      <trkpt lat="42.469463000" lon="-2.424159000">
        <ele>374.50</ele>
        <time>2013-07-27T13:20:45Z</time>
      </trkpt>
      <trkpt lat="42.469461000" lon="-2.424217000">
        <ele>374.50</ele>
        <time>2013-07-27T13:20:46Z</time>
      </trkpt>
      <trkpt lat="42.469457000" lon="-2.424276000">
        <ele>374.50</ele>
        <time>2013-07-27T13:20:47Z</time>
      </trkpt>
      <trkpt lat="42.469450000" lon="-2.424335000">
        <ele>374.60</ele>
        <time>2013-07-27T13:20:48Z</time>
      </trkpt>
      <trkpt lat="42.469442000" lon="-2.424396000">
        <ele>374.60</ele>
        <time>2013-07-27T13:20:49Z</time>
      </trkpt>
      <trkpt lat="42.469438000" lon="-2.424452000">
        <ele>374.60</ele>
        <time>2013-07-27T13:20:50Z</time>
      </trkpt>
      <trkpt lat="42.469431000" lon="-2.424511000">
        <ele>374.30</ele>
        <time>2013-07-27T13:20:51Z</time>
      </trkpt>
      <trkpt lat="42.469424000" lon="-2.424566000">
        <ele>374.20</ele>
        <time>2013-07-27T13:20:52Z</time>
      </trkpt>
      <trkpt lat="42.469421000" lon="-2.424619000">
        <ele>374.00</ele>
        <time>2013-07-27T13:20:53Z</time>
      </trkpt>
      <trkpt lat="42.469413000" lon="-2.424672000">
        <ele>373.90</ele>
        <time>2013-07-27T13:20:54Z</time>
      </trkpt>
      <trkpt lat="42.469410000" lon="-2.424727000">
        <ele>374.10</ele>
        <time>2013-07-27T13:20:55Z</time>
      </trkpt>
      <trkpt lat="42.469403000" lon="-2.424777000">
        <ele>374.20</ele>
        <time>2013-07-27T13:20:56Z</time>
      </trkpt>
      <trkpt lat="42.469395000" lon="-2.424823000">
        <ele>374.30</ele>
        <time>2013-07-27T13:20:57Z</time>
      </trkpt>
      <trkpt lat="42.469393000" lon="-2.424866000">
        <ele>374.40</ele>
        <time>2013-07-27T13:20:58Z</time>
      </trkpt>
      <trkpt lat="42.469388000" lon="-2.424911000">
        <ele>374.50</ele>
        <time>2013-07-27T13:20:59Z</time>
      </trkpt>
      <trkpt lat="42.469386000" lon="-2.424949000">
        <ele>374.50</ele>
        <time>2013-07-27T13:21:00Z</time>
      </trkpt>
      <trkpt lat="42.469382000" lon="-2.424993000">
        <ele>374.30</ele>
        <time>2013-07-27T13:21:01Z</time>
      </trkpt>
      <trkpt lat="42.469373000" lon="-2.425033000">
        <ele>374.20</ele>
        <time>2013-07-27T13:21:02Z</time>
      </trkpt>
      <trkpt lat="42.469368000" lon="-2.425077000">
        <ele>374.40</ele>
        <time>2013-07-27T13:21:03Z</time>
      </trkpt>
      <trkpt lat="42.469360000" lon="-2.425117000">
        <ele>374.50</ele>
        <time>2013-07-27T13:21:04Z</time>
      </trkpt>
      <trkpt lat="42.469354000" lon="-2.425155000">
        <ele>374.60</ele>
        <time>2013-07-27T13:21:05Z</time>
      </trkpt>
      <trkpt lat="42.469349000" lon="-2.425202000">
        <ele>374.70</ele>
        <time>2013-07-27T13:21:06Z</time>
      </trkpt>
      <trkpt lat="42.469346000" lon="-2.425249000">
        <ele>375.20</ele>
        <time>2013-07-27T13:21:07Z</time>
      </trkpt>
      <trkpt lat="42.469342000" lon="-2.425299000">
        <ele>375.50</ele>
        <time>2013-07-27T13:21:08Z</time>
      </trkpt>
      <trkpt lat="42.469347000" lon="-2.425344000">
        <ele>375.80</ele>
        <time>2013-07-27T13:21:09Z</time>
      </trkpt>
      <trkpt lat="42.469358000" lon="-2.425385000">
        <ele>376.00</ele>
        <time>2013-07-27T13:21:10Z</time>
      </trkpt>
      <trkpt lat="42.469373000" lon="-2.425425000">
        <ele>376.40</ele>
        <time>2013-07-27T13:21:11Z</time>
      </trkpt>
      <trkpt lat="42.469389000" lon="-2.425471000">
        <ele>376.60</ele>
        <time>2013-07-27T13:21:12Z</time>
      </trkpt>
      <trkpt lat="42.469404000" lon="-2.425519000">
        <ele>376.70</ele>
        <time>2013-07-27T13:21:13Z</time>
      </trkpt>
      <trkpt lat="42.469419000" lon="-2.425567000">
        <ele>376.70</ele>
        <time>2013-07-27T13:21:14Z</time>
      </trkpt>
      <trkpt lat="42.469436000" lon="-2.425612000">
        <ele>376.80</ele>
        <time>2013-07-27T13:21:15Z</time>
      </trkpt>
      <trkpt lat="42.469449000" lon="-2.425645000">
        <ele>376.90</ele>
        <time>2013-07-27T13:21:16Z</time>
      </trkpt>
      <trkpt lat="42.469453000" lon="-2.425659000">
        <ele>376.90</ele>
        <time>2013-07-27T13:21:17Z</time>
      </trkpt>
      <trkpt lat="42.469455000" lon="-2.425658000">
        <ele>376.90</ele>
        <time>2013-07-27T13:21:18Z</time>
      </trkpt>
      <trkpt lat="42.469451000" lon="-2.425656000">
        <ele>376.80</ele>
        <time>2013-07-27T13:21:19Z</time>
      </trkpt>
      <trkpt lat="42.469446000" lon="-2.425656000">
        <ele>376.80</ele>
        <time>2013-07-27T13:21:20Z</time>
      </trkpt>
      <trkpt lat="42.469443000" lon="-2.425656000">
        <ele>376.70</ele>
        <time>2013-07-27T13:21:21Z</time>
      </trkpt>
      <trkpt lat="42.469444000" lon="-2.425658000">
        <ele>376.60</ele>
        <time>2013-07-27T13:21:22Z</time>
      </trkpt>
      <trkpt lat="42.469446000" lon="-2.425660000">
        <ele>376.60</ele>
        <time>2013-07-27T13:21:23Z</time>
      </trkpt>
      <trkpt lat="42.469449000" lon="-2.425665000">
        <ele>376.60</ele>
        <time>2013-07-27T13:21:24Z</time>
      </trkpt>
      <trkpt lat="42.469454000" lon="-2.425680000">
        <ele>376.60</ele>
        <time>2013-07-27T13:21:25Z</time>
      </trkpt>
      <trkpt lat="42.469462000" lon="-2.425703000">
        <ele>376.50</ele>
        <time>2013-07-27T13:21:26Z</time>
      </trkpt>
      <trkpt lat="42.469477000" lon="-2.425734000">
        <ele>376.50</ele>
        <time>2013-07-27T13:21:27Z</time>
      </trkpt>
      <trkpt lat="42.469492000" lon="-2.425774000">
        <ele>376.60</ele>
        <time>2013-07-27T13:21:28Z</time>
      </trkpt>
      <trkpt lat="42.469510000" lon="-2.425818000">
        <ele>376.60</ele>
        <time>2013-07-27T13:21:29Z</time>
      </trkpt>
      <trkpt lat="42.469529000" lon="-2.425868000">
        <ele>376.70</ele>
        <time>2013-07-27T13:21:30Z</time>
      </trkpt>
      <trkpt lat="42.469550000" lon="-2.425920000">
        <ele>376.70</ele>
        <time>2013-07-27T13:21:31Z</time>
      </trkpt>
      <trkpt lat="42.469573000" lon="-2.425974000">
        <ele>376.80</ele>
        <time>2013-07-27T13:21:32Z</time>
      </trkpt>
      <trkpt lat="42.469597000" lon="-2.426030000">
        <ele>376.80</ele>
        <time>2013-07-27T13:21:33Z</time>
      </trkpt>
      <trkpt lat="42.469620000" lon="-2.426086000">
        <ele>376.80</ele>
        <time>2013-07-27T13:21:34Z</time>
      </trkpt>
      <trkpt lat="42.469641000" lon="-2.426143000">
        <ele>376.80</ele>
        <time>2013-07-27T13:21:35Z</time>
      </trkpt>
      <trkpt lat="42.469660000" lon="-2.426199000">
        <ele>376.90</ele>
        <time>2013-07-27T13:21:36Z</time>
      </trkpt>
      <trkpt lat="42.469681000" lon="-2.426253000">
        <ele>376.70</ele>
        <time>2013-07-27T13:21:37Z</time>
      </trkpt>
      <trkpt lat="42.469700000" lon="-2.426311000">
        <ele>376.60</ele>
        <time>2013-07-27T13:21:38Z</time>
      </trkpt>
      <trkpt lat="42.469717000" lon="-2.426370000">
        <ele>376.70</ele>
        <time>2013-07-27T13:21:39Z</time>
      </trkpt>
      <trkpt lat="42.469734000" lon="-2.426427000">
        <ele>376.70</ele>
        <time>2013-07-27T13:21:40Z</time>
      </trkpt>
      <trkpt lat="42.469752000" lon="-2.426484000">
        <ele>376.80</ele>
        <time>2013-07-27T13:21:41Z</time>
      </trkpt>
      <trkpt lat="42.469771000" lon="-2.426543000">
        <ele>376.90</ele>
        <time>2013-07-27T13:21:42Z</time>
      </trkpt>
      <trkpt lat="42.469791000" lon="-2.426602000">
        <ele>377.00</ele>
        <time>2013-07-27T13:21:43Z</time>
      </trkpt>
      <trkpt lat="42.469812000" lon="-2.426663000">
        <ele>377.10</ele>
        <time>2013-07-27T13:21:44Z</time>
      </trkpt>
      <trkpt lat="42.469833000" lon="-2.426724000">
        <ele>377.20</ele>
        <time>2013-07-27T13:21:45Z</time>
      </trkpt>
      <trkpt lat="42.469854000" lon="-2.426786000">
        <ele>377.30</ele>
        <time>2013-07-27T13:21:46Z</time>
      </trkpt>
      <trkpt lat="42.469876000" lon="-2.426850000">
        <ele>377.30</ele>
        <time>2013-07-27T13:21:47Z</time>
      </trkpt>
      <trkpt lat="42.469902000" lon="-2.426913000">
        <ele>377.30</ele>
        <time>2013-07-27T13:21:48Z</time>
      </trkpt>
      <trkpt lat="42.469928000" lon="-2.426975000">
        <ele>377.80</ele>
        <time>2013-07-27T13:21:49Z</time>
      </trkpt>
      <trkpt lat="42.469954000" lon="-2.427036000">
        <ele>378.10</ele>
        <time>2013-07-27T13:21:50Z</time>
      </trkpt>
      <trkpt lat="42.469982000" lon="-2.427096000">
        <ele>377.80</ele>
        <time>2013-07-27T13:21:51Z</time>
      </trkpt>
      <trkpt lat="42.470008000" lon="-2.427159000">
        <ele>377.70</ele>
        <time>2013-07-27T13:21:52Z</time>
      </trkpt>
      <trkpt lat="42.470032000" lon="-2.427219000">
        <ele>378.10</ele>
        <time>2013-07-27T13:21:53Z</time>
      </trkpt>
      <trkpt lat="42.470052000" lon="-2.427281000">
        <ele>378.40</ele>
        <time>2013-07-27T13:21:54Z</time>
      </trkpt>
      <trkpt lat="42.470075000" lon="-2.427345000">
        <ele>378.30</ele>
        <time>2013-07-27T13:21:55Z</time>
      </trkpt>
      <trkpt lat="42.470097000" lon="-2.427410000">
        <ele>378.20</ele>
        <time>2013-07-27T13:21:56Z</time>
      </trkpt>
      <trkpt lat="42.470119000" lon="-2.427473000">
        <ele>378.20</ele>
        <time>2013-07-27T13:21:57Z</time>
      </trkpt>
      <trkpt lat="42.470141000" lon="-2.427536000">
        <ele>378.10</ele>
        <time>2013-07-27T13:21:58Z</time>
      </trkpt>
      <trkpt lat="42.470163000" lon="-2.427602000">
        <ele>378.10</ele>
        <time>2013-07-27T13:21:59Z</time>
      </trkpt>
      <trkpt lat="42.470184000" lon="-2.427666000">
        <ele>378.10</ele>
        <time>2013-07-27T13:22:00Z</time>
      </trkpt>
      <trkpt lat="42.470206000" lon="-2.427731000">
        <ele>378.10</ele>
        <time>2013-07-27T13:22:01Z</time>
      </trkpt>
      <trkpt lat="42.470226000" lon="-2.427796000">
        <ele>378.10</ele>
        <time>2013-07-27T13:22:02Z</time>
      </trkpt>
      <trkpt lat="42.470249000" lon="-2.427860000">
        <ele>378.40</ele>
        <time>2013-07-27T13:22:03Z</time>
      </trkpt>
      <trkpt lat="42.470272000" lon="-2.427924000">
        <ele>378.50</ele>
        <time>2013-07-27T13:22:04Z</time>
      </trkpt>
      <trkpt lat="42.470297000" lon="-2.427989000">
        <ele>378.40</ele>
        <time>2013-07-27T13:22:05Z</time>
      </trkpt>
      <trkpt lat="42.470319000" lon="-2.428053000">
        <ele>378.40</ele>
        <time>2013-07-27T13:22:06Z</time>
      </trkpt>
      <trkpt lat="42.470343000" lon="-2.428118000">
        <ele>378.30</ele>
        <time>2013-07-27T13:22:07Z</time>
      </trkpt>
      <trkpt lat="42.470367000" lon="-2.428184000">
        <ele>378.30</ele>
        <time>2013-07-27T13:22:08Z</time>
      </trkpt>
      <trkpt lat="42.470391000" lon="-2.428251000">
        <ele>378.20</ele>
        <time>2013-07-27T13:22:09Z</time>
      </trkpt>
      <trkpt lat="42.470418000" lon="-2.428318000">
        <ele>378.10</ele>
        <time>2013-07-27T13:22:10Z</time>
      </trkpt>
      <trkpt lat="42.470443000" lon="-2.428383000">
        <ele>378.00</ele>
        <time>2013-07-27T13:22:11Z</time>
      </trkpt>
      <trkpt lat="42.470469000" lon="-2.428449000">
        <ele>377.90</ele>
        <time>2013-07-27T13:22:12Z</time>
      </trkpt>
      <trkpt lat="42.470492000" lon="-2.428518000">
        <ele>378.20</ele>
        <time>2013-07-27T13:22:13Z</time>
      </trkpt>
      <trkpt lat="42.470516000" lon="-2.428589000">
        <ele>378.40</ele>
        <time>2013-07-27T13:22:14Z</time>
      </trkpt>
      <trkpt lat="42.470539000" lon="-2.428660000">
        <ele>378.60</ele>
        <time>2013-07-27T13:22:15Z</time>
      </trkpt>
      <trkpt lat="42.470561000" lon="-2.428732000">
        <ele>378.70</ele>
        <time>2013-07-27T13:22:16Z</time>
      </trkpt>
      <trkpt lat="42.470582000" lon="-2.428804000">
        <ele>378.30</ele>
        <time>2013-07-27T13:22:17Z</time>
      </trkpt>
      <trkpt lat="42.470603000" lon="-2.428873000">
        <ele>378.00</ele>
        <time>2013-07-27T13:22:18Z</time>
      </trkpt>
      <trkpt lat="42.470625000" lon="-2.428943000">
        <ele>377.80</ele>
        <time>2013-07-27T13:22:19Z</time>
      </trkpt>
      <trkpt lat="42.470647000" lon="-2.429012000">
        <ele>377.60</ele>
        <time>2013-07-27T13:22:20Z</time>
      </trkpt>
      <trkpt lat="42.470673000" lon="-2.429080000">
        <ele>377.50</ele>
        <time>2013-07-27T13:22:21Z</time>
      </trkpt>
      <trkpt lat="42.470703000" lon="-2.429145000">
        <ele>377.50</ele>
        <time>2013-07-27T13:22:22Z</time>
      </trkpt>
      <trkpt lat="42.470732000" lon="-2.429209000">
        <ele>377.70</ele>
        <time>2013-07-27T13:22:23Z</time>
      </trkpt>
      <trkpt lat="42.470759000" lon="-2.429275000">
        <ele>377.80</ele>
        <time>2013-07-27T13:22:24Z</time>
      </trkpt>
      <trkpt lat="42.470783000" lon="-2.429338000">
        <ele>377.90</ele>
        <time>2013-07-27T13:22:25Z</time>
      </trkpt>
      <trkpt lat="42.470805000" lon="-2.429402000">
        <ele>378.00</ele>
        <time>2013-07-27T13:22:26Z</time>
      </trkpt>
      <trkpt lat="42.470823000" lon="-2.429459000">
        <ele>378.10</ele>
        <time>2013-07-27T13:22:27Z</time>
      </trkpt>
      <trkpt lat="42.470846000" lon="-2.429508000">
        <ele>378.10</ele>
        <time>2013-07-27T13:22:28Z</time>
      </trkpt>
      <trkpt lat="42.470866000" lon="-2.429556000">
        <ele>378.10</ele>
        <time>2013-07-27T13:22:29Z</time>
      </trkpt>
      <trkpt lat="42.470881000" lon="-2.429603000">
        <ele>378.10</ele>
        <time>2013-07-27T13:22:30Z</time>
      </trkpt>
      <trkpt lat="42.470894000" lon="-2.429648000">
        <ele>378.10</ele>
        <time>2013-07-27T13:22:31Z</time>
      </trkpt>
      <trkpt lat="42.470913000" lon="-2.429688000">
        <ele>378.10</ele>
        <time>2013-07-27T13:22:32Z</time>
      </trkpt>
      <trkpt lat="42.470928000" lon="-2.429722000">
        <ele>378.20</ele>
        <time>2013-07-27T13:22:33Z</time>
      </trkpt>
      <trkpt lat="42.470941000" lon="-2.429755000">
        <ele>378.20</ele>
        <time>2013-07-27T13:22:34Z</time>
      </trkpt>
      <trkpt lat="42.470954000" lon="-2.429788000">
        <ele>378.20</ele>
        <time>2013-07-27T13:22:35Z</time>
      </trkpt>
      <trkpt lat="42.470967000" lon="-2.429821000">
        <ele>378.50</ele>
        <time>2013-07-27T13:22:36Z</time>
      </trkpt>
      <trkpt lat="42.470976000" lon="-2.429856000">
        <ele>378.80</ele>
        <time>2013-07-27T13:22:37Z</time>
      </trkpt>
      <trkpt lat="42.470987000" lon="-2.429895000">
        <ele>379.00</ele>
        <time>2013-07-27T13:22:38Z</time>
      </trkpt>
      <trkpt lat="42.471006000" lon="-2.429934000">
        <ele>379.10</ele>
        <time>2013-07-27T13:22:39Z</time>
      </trkpt>
      <trkpt lat="42.471026000" lon="-2.429972000">
        <ele>379.10</ele>
        <time>2013-07-27T13:22:40Z</time>
      </trkpt>
      <trkpt lat="42.471048000" lon="-2.430010000">
        <ele>379.10</ele>
        <time>2013-07-27T13:22:41Z</time>
      </trkpt>
      <trkpt lat="42.471073000" lon="-2.430040000">
        <ele>378.80</ele>
        <time>2013-07-27T13:22:42Z</time>
      </trkpt>
      <trkpt lat="42.471095000" lon="-2.430074000">
        <ele>378.60</ele>
        <time>2013-07-27T13:22:43Z</time>
      </trkpt>
      <trkpt lat="42.471117000" lon="-2.430106000">
        <ele>378.70</ele>
        <time>2013-07-27T13:22:44Z</time>
      </trkpt>
      <trkpt lat="42.471140000" lon="-2.430132000">
        <ele>378.80</ele>
        <time>2013-07-27T13:22:45Z</time>
      </trkpt>
      <trkpt lat="42.471159000" lon="-2.430157000">
        <ele>378.90</ele>
        <time>2013-07-27T13:22:46Z</time>
      </trkpt>
      <trkpt lat="42.471177000" lon="-2.430184000">
        <ele>378.90</ele>
        <time>2013-07-27T13:22:47Z</time>
      </trkpt>
      <trkpt lat="42.471195000" lon="-2.430210000">
        <ele>379.00</ele>
        <time>2013-07-27T13:22:48Z</time>
      </trkpt>
      <trkpt lat="42.471217000" lon="-2.430235000">
        <ele>379.00</ele>
        <time>2013-07-27T13:22:49Z</time>
      </trkpt>
      <trkpt lat="42.471236000" lon="-2.430264000">
        <ele>378.90</ele>
        <time>2013-07-27T13:22:50Z</time>
      </trkpt>
      <trkpt lat="42.471257000" lon="-2.430298000">
        <ele>378.80</ele>
        <time>2013-07-27T13:22:51Z</time>
      </trkpt>
      <trkpt lat="42.471277000" lon="-2.430336000">
        <ele>378.70</ele>
        <time>2013-07-27T13:22:52Z</time>
      </trkpt>
      <trkpt lat="42.471300000" lon="-2.430375000">
        <ele>378.70</ele>
        <time>2013-07-27T13:22:53Z</time>
      </trkpt>
      <trkpt lat="42.471327000" lon="-2.430414000">
        <ele>378.60</ele>
        <time>2013-07-27T13:22:54Z</time>
      </trkpt>
      <trkpt lat="42.471353000" lon="-2.430451000">
        <ele>378.60</ele>
        <time>2013-07-27T13:22:55Z</time>
      </trkpt>
      <trkpt lat="42.471379000" lon="-2.430493000">
        <ele>378.60</ele>
        <time>2013-07-27T13:22:56Z</time>
      </trkpt>
      <trkpt lat="42.471407000" lon="-2.430533000">
        <ele>378.60</ele>
        <time>2013-07-27T13:22:57Z</time>
      </trkpt>
      <trkpt lat="42.471434000" lon="-2.430578000">
        <ele>378.70</ele>
        <time>2013-07-27T13:22:58Z</time>
      </trkpt>
      <trkpt lat="42.471463000" lon="-2.430626000">
        <ele>378.80</ele>
        <time>2013-07-27T13:22:59Z</time>
      </trkpt>
      <trkpt lat="42.471490000" lon="-2.430680000">
        <ele>378.90</ele>
        <time>2013-07-27T13:23:00Z</time>
      </trkpt>
      <trkpt lat="42.471515000" lon="-2.430740000">
        <ele>378.90</ele>
        <time>2013-07-27T13:23:01Z</time>
      </trkpt>
      <trkpt lat="42.471536000" lon="-2.430804000">
        <ele>378.90</ele>
        <time>2013-07-27T13:23:02Z</time>
      </trkpt>
      <trkpt lat="42.471553000" lon="-2.430869000">
        <ele>379.00</ele>
        <time>2013-07-27T13:23:03Z</time>
      </trkpt>
      <trkpt lat="42.471563000" lon="-2.430936000">
        <ele>379.00</ele>
        <time>2013-07-27T13:23:04Z</time>
      </trkpt>
      <trkpt lat="42.471571000" lon="-2.431004000">
        <ele>379.00</ele>
        <time>2013-07-27T13:23:05Z</time>
      </trkpt>
      <trkpt lat="42.471574000" lon="-2.431070000">
        <ele>378.90</ele>
        <time>2013-07-27T13:23:06Z</time>
      </trkpt>
      <trkpt lat="42.471577000" lon="-2.431130000">
        <ele>378.80</ele>
        <time>2013-07-27T13:23:07Z</time>
      </trkpt>
      <trkpt lat="42.471580000" lon="-2.431181000">
        <ele>378.70</ele>
        <time>2013-07-27T13:23:08Z</time>
      </trkpt>
      <trkpt lat="42.471582000" lon="-2.431231000">
        <ele>378.70</ele>
        <time>2013-07-27T13:23:09Z</time>
      </trkpt>
      <trkpt lat="42.471588000" lon="-2.431271000">
        <ele>378.60</ele>
        <time>2013-07-27T13:23:10Z</time>
      </trkpt>
      <trkpt lat="42.471596000" lon="-2.431313000">
        <ele>378.50</ele>
        <time>2013-07-27T13:23:11Z</time>
      </trkpt>
      <trkpt lat="42.471604000" lon="-2.431357000">
        <ele>378.40</ele>
        <time>2013-07-27T13:23:12Z</time>
      </trkpt>
      <trkpt lat="42.471613000" lon="-2.431405000">
        <ele>378.40</ele>
        <time>2013-07-27T13:23:13Z</time>
      </trkpt>
      <trkpt lat="42.471621000" lon="-2.431458000">
        <ele>378.40</ele>
        <time>2013-07-27T13:23:14Z</time>
      </trkpt>
      <trkpt lat="42.471625000" lon="-2.431512000">
        <ele>378.30</ele>
        <time>2013-07-27T13:23:15Z</time>
      </trkpt>
      <trkpt lat="42.471630000" lon="-2.431565000">
        <ele>378.30</ele>
        <time>2013-07-27T13:23:16Z</time>
      </trkpt>
      <trkpt lat="42.471637000" lon="-2.431618000">
        <ele>378.20</ele>
        <time>2013-07-27T13:23:17Z</time>
      </trkpt>
      <trkpt lat="42.471645000" lon="-2.431671000">
        <ele>378.20</ele>
        <time>2013-07-27T13:23:18Z</time>
      </trkpt>
      <trkpt lat="42.471652000" lon="-2.431726000">
        <ele>378.10</ele>
        <time>2013-07-27T13:23:19Z</time>
      </trkpt>
      <trkpt lat="42.471657000" lon="-2.431783000">
        <ele>378.20</ele>
        <time>2013-07-27T13:23:20Z</time>
      </trkpt>
      <trkpt lat="42.471660000" lon="-2.431844000">
        <ele>378.20</ele>
        <time>2013-07-27T13:23:21Z</time>
      </trkpt>
      <trkpt lat="42.471664000" lon="-2.431905000">
        <ele>378.30</ele>
        <time>2013-07-27T13:23:22Z</time>
      </trkpt>
      <trkpt lat="42.471667000" lon="-2.431970000">
        <ele>378.30</ele>
        <time>2013-07-27T13:23:23Z</time>
      </trkpt>
      <trkpt lat="42.471673000" lon="-2.432033000">
        <ele>378.40</ele>
        <time>2013-07-27T13:23:24Z</time>
      </trkpt>
      <trkpt lat="42.471679000" lon="-2.432095000">
        <ele>378.40</ele>
        <time>2013-07-27T13:23:25Z</time>
      </trkpt>
      <trkpt lat="42.471684000" lon="-2.432159000">
        <ele>378.30</ele>
        <time>2013-07-27T13:23:26Z</time>
      </trkpt>
      <trkpt lat="42.471689000" lon="-2.432224000">
        <ele>378.20</ele>
        <time>2013-07-27T13:23:27Z</time>
      </trkpt>
      <trkpt lat="42.471693000" lon="-2.432291000">
        <ele>378.20</ele>
        <time>2013-07-27T13:23:28Z</time>
      </trkpt>
      <trkpt lat="42.471698000" lon="-2.432361000">
        <ele>378.10</ele>
        <time>2013-07-27T13:23:29Z</time>
      </trkpt>
      <trkpt lat="42.471704000" lon="-2.432430000">
        <ele>378.10</ele>
        <time>2013-07-27T13:23:30Z</time>
      </trkpt>
      <trkpt lat="42.471710000" lon="-2.432497000">
        <ele>378.10</ele>
        <time>2013-07-27T13:23:31Z</time>
      </trkpt>
      <trkpt lat="42.471717000" lon="-2.432565000">
        <ele>378.10</ele>
        <time>2013-07-27T13:23:32Z</time>
      </trkpt>
      <trkpt lat="42.471722000" lon="-2.432635000">
        <ele>378.20</ele>
        <time>2013-07-27T13:23:33Z</time>
      </trkpt>
      <trkpt lat="42.471729000" lon="-2.432704000">
        <ele>378.20</ele>
        <time>2013-07-27T13:23:34Z</time>
      </trkpt>
      <trkpt lat="42.471736000" lon="-2.432773000">
        <ele>378.20</ele>
        <time>2013-07-27T13:23:35Z</time>
      </trkpt>
      <trkpt lat="42.471742000" lon="-2.432846000">
        <ele>378.10</ele>
        <time>2013-07-27T13:23:36Z</time>
      </trkpt>
      <trkpt lat="42.471751000" lon="-2.432919000">
        <ele>378.00</ele>
        <time>2013-07-27T13:23:37Z</time>
      </trkpt>
      <trkpt lat="42.471759000" lon="-2.432992000">
        <ele>377.40</ele>
        <time>2013-07-27T13:23:38Z</time>
      </trkpt>
      <trkpt lat="42.471764000" lon="-2.433060000">
        <ele>377.00</ele>
        <time>2013-07-27T13:23:39Z</time>
      </trkpt>
      <trkpt lat="42.471764000" lon="-2.433129000">
        <ele>376.70</ele>
        <time>2013-07-27T13:23:40Z</time>
      </trkpt>
      <trkpt lat="42.471766000" lon="-2.433197000">
        <ele>376.40</ele>
        <time>2013-07-27T13:23:41Z</time>
      </trkpt>
      <trkpt lat="42.471774000" lon="-2.433260000">
        <ele>376.40</ele>
        <time>2013-07-27T13:23:42Z</time>
      </trkpt>
      <trkpt lat="42.471780000" lon="-2.433325000">
        <ele>376.40</ele>
        <time>2013-07-27T13:23:43Z</time>
      </trkpt>
      <trkpt lat="42.471786000" lon="-2.433390000">
        <ele>376.40</ele>
        <time>2013-07-27T13:23:44Z</time>
      </trkpt>
      <trkpt lat="42.471791000" lon="-2.433453000">
        <ele>376.40</ele>
        <time>2013-07-27T13:23:45Z</time>
      </trkpt>
      <trkpt lat="42.471798000" lon="-2.433518000">
        <ele>376.50</ele>
        <time>2013-07-27T13:23:46Z</time>
      </trkpt>
      <trkpt lat="42.471804000" lon="-2.433582000">
        <ele>376.60</ele>
        <time>2013-07-27T13:23:47Z</time>
      </trkpt>
      <trkpt lat="42.471810000" lon="-2.433644000">
        <ele>376.60</ele>
        <time>2013-07-27T13:23:48Z</time>
      </trkpt>
      <trkpt lat="42.471814000" lon="-2.433705000">
        <ele>376.70</ele>
        <time>2013-07-27T13:23:49Z</time>
      </trkpt>
      <trkpt lat="42.471821000" lon="-2.433764000">
        <ele>376.70</ele>
        <time>2013-07-27T13:23:50Z</time>
      </trkpt>
      <trkpt lat="42.471833000" lon="-2.433825000">
        <ele>376.80</ele>
        <time>2013-07-27T13:23:51Z</time>
      </trkpt>
      <trkpt lat="42.471844000" lon="-2.433887000">
        <ele>376.40</ele>
        <time>2013-07-27T13:23:52Z</time>
      </trkpt>
      <trkpt lat="42.471854000" lon="-2.433948000">
        <ele>376.20</ele>
        <time>2013-07-27T13:23:53Z</time>
      </trkpt>
      <trkpt lat="42.471862000" lon="-2.434011000">
        <ele>376.00</ele>
        <time>2013-07-27T13:23:54Z</time>
      </trkpt>
      <trkpt lat="42.471871000" lon="-2.434071000">
        <ele>375.80</ele>
        <time>2013-07-27T13:23:55Z</time>
      </trkpt>
      <trkpt lat="42.471881000" lon="-2.434131000">
        <ele>375.90</ele>
        <time>2013-07-27T13:23:56Z</time>
      </trkpt>
      <trkpt lat="42.471889000" lon="-2.434191000">
        <ele>376.00</ele>
        <time>2013-07-27T13:23:57Z</time>
      </trkpt>
      <trkpt lat="42.471900000" lon="-2.434249000">
        <ele>376.00</ele>
        <time>2013-07-27T13:23:58Z</time>
      </trkpt>
      <trkpt lat="42.471910000" lon="-2.434308000">
        <ele>376.00</ele>
        <time>2013-07-27T13:23:59Z</time>
      </trkpt>
      <trkpt lat="42.471920000" lon="-2.434368000">
        <ele>376.00</ele>
        <time>2013-07-27T13:24:00Z</time>
      </trkpt>
      <trkpt lat="42.471933000" lon="-2.434430000">
        <ele>376.10</ele>
        <time>2013-07-27T13:24:01Z</time>
      </trkpt>
      <trkpt lat="42.471946000" lon="-2.434488000">
        <ele>376.10</ele>
        <time>2013-07-27T13:24:02Z</time>
      </trkpt>
      <trkpt lat="42.471961000" lon="-2.434550000">
        <ele>376.20</ele>
        <time>2013-07-27T13:24:03Z</time>
      </trkpt>
      <trkpt lat="42.471977000" lon="-2.434609000">
        <ele>376.20</ele>
        <time>2013-07-27T13:24:04Z</time>
      </trkpt>
      <trkpt lat="42.471992000" lon="-2.434671000">
        <ele>376.30</ele>
        <time>2013-07-27T13:24:05Z</time>
      </trkpt>
      <trkpt lat="42.472008000" lon="-2.434732000">
        <ele>376.20</ele>
        <time>2013-07-27T13:24:06Z</time>
      </trkpt>
      <trkpt lat="42.472023000" lon="-2.434793000">
        <ele>376.20</ele>
        <time>2013-07-27T13:24:07Z</time>
      </trkpt>
      <trkpt lat="42.472036000" lon="-2.434854000">
        <ele>376.10</ele>
        <time>2013-07-27T13:24:08Z</time>
      </trkpt>
      <trkpt lat="42.472050000" lon="-2.434915000">
        <ele>376.00</ele>
        <time>2013-07-27T13:24:09Z</time>
      </trkpt>
      <trkpt lat="42.472062000" lon="-2.434971000">
        <ele>376.00</ele>
        <time>2013-07-27T13:24:10Z</time>
      </trkpt>
      <trkpt lat="42.472074000" lon="-2.435024000">
        <ele>376.00</ele>
        <time>2013-07-27T13:24:11Z</time>
      </trkpt>
      <trkpt lat="42.472085000" lon="-2.435080000">
        <ele>375.70</ele>
        <time>2013-07-27T13:24:12Z</time>
      </trkpt>
      <trkpt lat="42.472097000" lon="-2.435141000">
        <ele>375.50</ele>
        <time>2013-07-27T13:24:13Z</time>
      </trkpt>
      <trkpt lat="42.472110000" lon="-2.435203000">
        <ele>375.30</ele>
        <time>2013-07-27T13:24:14Z</time>
      </trkpt>
      <trkpt lat="42.472124000" lon="-2.435266000">
        <ele>375.20</ele>
        <time>2013-07-27T13:24:15Z</time>
      </trkpt>
      <trkpt lat="42.472138000" lon="-2.435330000">
        <ele>375.30</ele>
        <time>2013-07-27T13:24:16Z</time>
      </trkpt>
      <trkpt lat="42.472153000" lon="-2.435393000">
        <ele>375.30</ele>
        <time>2013-07-27T13:24:17Z</time>
      </trkpt>
      <trkpt lat="42.472167000" lon="-2.435457000">
        <ele>375.30</ele>
        <time>2013-07-27T13:24:18Z</time>
      </trkpt>
      <trkpt lat="42.472181000" lon="-2.435519000">
        <ele>375.40</ele>
        <time>2013-07-27T13:24:19Z</time>
      </trkpt>
      <trkpt lat="42.472195000" lon="-2.435580000">
        <ele>375.40</ele>
        <time>2013-07-27T13:24:20Z</time>
      </trkpt>
      <trkpt lat="42.472208000" lon="-2.435643000">
        <ele>375.40</ele>
        <time>2013-07-27T13:24:21Z</time>
      </trkpt>
      <trkpt lat="42.472222000" lon="-2.435703000">
        <ele>375.50</ele>
        <time>2013-07-27T13:24:22Z</time>
      </trkpt>
      <trkpt lat="42.472234000" lon="-2.435762000">
        <ele>375.50</ele>
        <time>2013-07-27T13:24:23Z</time>
      </trkpt>
      <trkpt lat="42.472246000" lon="-2.435818000">
        <ele>375.50</ele>
        <time>2013-07-27T13:24:24Z</time>
      </trkpt>
      <trkpt lat="42.472259000" lon="-2.435873000">
        <ele>375.50</ele>
        <time>2013-07-27T13:24:25Z</time>
      </trkpt>
      <trkpt lat="42.472272000" lon="-2.435930000">
        <ele>375.50</ele>
        <time>2013-07-27T13:24:26Z</time>
      </trkpt>
      <trkpt lat="42.472283000" lon="-2.435985000">
        <ele>375.40</ele>
        <time>2013-07-27T13:24:27Z</time>
      </trkpt>
      <trkpt lat="42.472296000" lon="-2.436041000">
        <ele>375.30</ele>
        <time>2013-07-27T13:24:28Z</time>
      </trkpt>
      <trkpt lat="42.472314000" lon="-2.436093000">
        <ele>375.20</ele>
        <time>2013-07-27T13:24:29Z</time>
      </trkpt>
      <trkpt lat="42.472335000" lon="-2.436141000">
        <ele>375.30</ele>
        <time>2013-07-27T13:24:30Z</time>
      </trkpt>
      <trkpt lat="42.472360000" lon="-2.436189000">
        <ele>375.30</ele>
        <time>2013-07-27T13:24:31Z</time>
      </trkpt>
      <trkpt lat="42.472389000" lon="-2.436232000">
        <ele>375.00</ele>
        <time>2013-07-27T13:24:32Z</time>
      </trkpt>
      <trkpt lat="42.472419000" lon="-2.436277000">
        <ele>374.80</ele>
        <time>2013-07-27T13:24:33Z</time>
      </trkpt>
      <trkpt lat="42.472451000" lon="-2.436323000">
        <ele>374.90</ele>
        <time>2013-07-27T13:24:34Z</time>
      </trkpt>
      <trkpt lat="42.472484000" lon="-2.436365000">
        <ele>375.10</ele>
        <time>2013-07-27T13:24:35Z</time>
      </trkpt>
      <trkpt lat="42.472516000" lon="-2.436410000">
        <ele>374.80</ele>
        <time>2013-07-27T13:24:36Z</time>
      </trkpt>
      <trkpt lat="42.472549000" lon="-2.436452000">
        <ele>374.50</ele>
        <time>2013-07-27T13:24:37Z</time>
      </trkpt>
      <trkpt lat="42.472579000" lon="-2.436496000">
        <ele>374.80</ele>
        <time>2013-07-27T13:24:38Z</time>
      </trkpt>
      <trkpt lat="42.472605000" lon="-2.436542000">
        <ele>374.90</ele>
        <time>2013-07-27T13:24:39Z</time>
      </trkpt>
      <trkpt lat="42.472628000" lon="-2.436590000">
        <ele>374.90</ele>
        <time>2013-07-27T13:24:40Z</time>
      </trkpt>
      <trkpt lat="42.472641000" lon="-2.436639000">
        <ele>374.90</ele>
        <time>2013-07-27T13:24:41Z</time>
      </trkpt>
      <trkpt lat="42.472653000" lon="-2.436685000">
        <ele>374.90</ele>
        <time>2013-07-27T13:24:42Z</time>
      </trkpt>
      <trkpt lat="42.472665000" lon="-2.436733000">
        <ele>374.90</ele>
        <time>2013-07-27T13:24:43Z</time>
      </trkpt>
      <trkpt lat="42.472674000" lon="-2.436783000">
        <ele>374.80</ele>
        <time>2013-07-27T13:24:44Z</time>
      </trkpt>
      <trkpt lat="42.472681000" lon="-2.436833000">
        <ele>374.80</ele>
        <time>2013-07-27T13:24:45Z</time>
      </trkpt>
      <trkpt lat="42.472681000" lon="-2.436884000">
        <ele>374.60</ele>
        <time>2013-07-27T13:24:46Z</time>
      </trkpt>
      <trkpt lat="42.472668000" lon="-2.436935000">
        <ele>374.40</ele>
        <time>2013-07-27T13:24:47Z</time>
      </trkpt>
      <trkpt lat="42.472642000" lon="-2.436987000">
        <ele>374.20</ele>
        <time>2013-07-27T13:24:48Z</time>
      </trkpt>
      <trkpt lat="42.472609000" lon="-2.437035000">
        <ele>374.00</ele>
        <time>2013-07-27T13:24:49Z</time>
      </trkpt>
      <trkpt lat="42.472576000" lon="-2.437081000">
        <ele>373.90</ele>
        <time>2013-07-27T13:24:50Z</time>
      </trkpt>
      <trkpt lat="42.472541000" lon="-2.437126000">
        <ele>373.80</ele>
        <time>2013-07-27T13:24:51Z</time>
      </trkpt>
      <trkpt lat="42.472505000" lon="-2.437171000">
        <ele>373.80</ele>
        <time>2013-07-27T13:24:52Z</time>
      </trkpt>
      <trkpt lat="42.472469000" lon="-2.437211000">
        <ele>373.70</ele>
        <time>2013-07-27T13:24:53Z</time>
      </trkpt>
      <trkpt lat="42.472430000" lon="-2.437253000">
        <ele>373.70</ele>
        <time>2013-07-27T13:24:54Z</time>
      </trkpt>
      <trkpt lat="42.472395000" lon="-2.437294000">
        <ele>373.70</ele>
        <time>2013-07-27T13:24:55Z</time>
      </trkpt>
      <trkpt lat="42.472356000" lon="-2.437333000">
        <ele>373.50</ele>
        <time>2013-07-27T13:24:56Z</time>
      </trkpt>
      <trkpt lat="42.472317000" lon="-2.437371000">
        <ele>373.40</ele>
        <time>2013-07-27T13:24:57Z</time>
      </trkpt>
      <trkpt lat="42.472281000" lon="-2.437412000">
        <ele>373.30</ele>
        <time>2013-07-27T13:24:58Z</time>
      </trkpt>
      <trkpt lat="42.472244000" lon="-2.437455000">
        <ele>373.30</ele>
        <time>2013-07-27T13:24:59Z</time>
      </trkpt>
      <trkpt lat="42.472210000" lon="-2.437500000">
        <ele>373.20</ele>
        <time>2013-07-27T13:25:00Z</time>
      </trkpt>
      <trkpt lat="42.472177000" lon="-2.437543000">
        <ele>373.20</ele>
        <time>2013-07-27T13:25:01Z</time>
      </trkpt>
      <trkpt lat="42.472146000" lon="-2.437586000">
        <ele>373.20</ele>
        <time>2013-07-27T13:25:02Z</time>
      </trkpt>
      <trkpt lat="42.472113000" lon="-2.437629000">
        <ele>373.20</ele>
        <time>2013-07-27T13:25:03Z</time>
      </trkpt>
      <trkpt lat="42.472079000" lon="-2.437668000">
        <ele>373.50</ele>
        <time>2013-07-27T13:25:04Z</time>
      </trkpt>
      <trkpt lat="42.472045000" lon="-2.437714000">
        <ele>373.60</ele>
        <time>2013-07-27T13:25:05Z</time>
      </trkpt>
      <trkpt lat="42.472012000" lon="-2.437762000">
        <ele>373.70</ele>
        <time>2013-07-27T13:25:06Z</time>
      </trkpt>
      <trkpt lat="42.471976000" lon="-2.437806000">
        <ele>373.80</ele>
        <time>2013-07-27T13:25:07Z</time>
      </trkpt>
      <trkpt lat="42.471940000" lon="-2.437852000">
        <ele>373.80</ele>
        <time>2013-07-27T13:25:08Z</time>
      </trkpt>
      <trkpt lat="42.471902000" lon="-2.437896000">
        <ele>373.70</ele>
        <time>2013-07-27T13:25:09Z</time>
      </trkpt>
      <trkpt lat="42.471864000" lon="-2.437940000">
        <ele>373.70</ele>
        <time>2013-07-27T13:25:10Z</time>
      </trkpt>
      <trkpt lat="42.471827000" lon="-2.437981000">
        <ele>373.70</ele>
        <time>2013-07-27T13:25:11Z</time>
      </trkpt>
      <trkpt lat="42.471791000" lon="-2.438021000">
        <ele>373.70</ele>
        <time>2013-07-27T13:25:12Z</time>
      </trkpt>
      <trkpt lat="42.471759000" lon="-2.438064000">
        <ele>373.60</ele>
        <time>2013-07-27T13:25:13Z</time>
      </trkpt>
      <trkpt lat="42.471731000" lon="-2.438103000">
        <ele>373.50</ele>
        <time>2013-07-27T13:25:14Z</time>
      </trkpt>
      <trkpt lat="42.471700000" lon="-2.438138000">
        <ele>373.40</ele>
        <time>2013-07-27T13:25:15Z</time>
      </trkpt>
      <trkpt lat="42.471668000" lon="-2.438173000">
        <ele>373.30</ele>
        <time>2013-07-27T13:25:16Z</time>
      </trkpt>
      <trkpt lat="42.471634000" lon="-2.438208000">
        <ele>373.20</ele>
        <time>2013-07-27T13:25:17Z</time>
      </trkpt>
      <trkpt lat="42.471602000" lon="-2.438240000">
        <ele>373.10</ele>
        <time>2013-07-27T13:25:18Z</time>
      </trkpt>
      <trkpt lat="42.471568000" lon="-2.438273000">
        <ele>373.10</ele>
        <time>2013-07-27T13:25:19Z</time>
      </trkpt>
      <trkpt lat="42.471538000" lon="-2.438310000">
        <ele>373.10</ele>
        <time>2013-07-27T13:25:20Z</time>
      </trkpt>
      <trkpt lat="42.471507000" lon="-2.438346000">
        <ele>373.20</ele>
        <time>2013-07-27T13:25:21Z</time>
      </trkpt>
      <trkpt lat="42.471476000" lon="-2.438387000">
        <ele>373.20</ele>
        <time>2013-07-27T13:25:22Z</time>
      </trkpt>
      <trkpt lat="42.471444000" lon="-2.438425000">
        <ele>373.20</ele>
        <time>2013-07-27T13:25:23Z</time>
      </trkpt>
      <trkpt lat="42.471413000" lon="-2.438463000">
        <ele>373.20</ele>
        <time>2013-07-27T13:25:24Z</time>
      </trkpt>
      <trkpt lat="42.471383000" lon="-2.438506000">
        <ele>373.20</ele>
        <time>2013-07-27T13:25:25Z</time>
      </trkpt>
      <trkpt lat="42.471350000" lon="-2.438548000">
        <ele>373.20</ele>
        <time>2013-07-27T13:25:26Z</time>
      </trkpt>
      <trkpt lat="42.471317000" lon="-2.438588000">
        <ele>373.10</ele>
        <time>2013-07-27T13:25:27Z</time>
      </trkpt>
      <trkpt lat="42.471285000" lon="-2.438629000">
        <ele>373.00</ele>
        <time>2013-07-27T13:25:28Z</time>
      </trkpt>
      <trkpt lat="42.471251000" lon="-2.438674000">
        <ele>372.90</ele>
        <time>2013-07-27T13:25:29Z</time>
      </trkpt>
      <trkpt lat="42.471217000" lon="-2.438718000">
        <ele>373.00</ele>
        <time>2013-07-27T13:25:30Z</time>
      </trkpt>
      <trkpt lat="42.471180000" lon="-2.438760000">
        <ele>373.00</ele>
        <time>2013-07-27T13:25:31Z</time>
      </trkpt>
      <trkpt lat="42.471144000" lon="-2.438802000">
        <ele>372.90</ele>
        <time>2013-07-27T13:25:32Z</time>
      </trkpt>
      <trkpt lat="42.471109000" lon="-2.438844000">
        <ele>372.90</ele>
        <time>2013-07-27T13:25:33Z</time>
      </trkpt>
      <trkpt lat="42.471075000" lon="-2.438889000">
        <ele>373.00</ele>
        <time>2013-07-27T13:25:34Z</time>
      </trkpt>
      <trkpt lat="42.471042000" lon="-2.438932000">
        <ele>373.00</ele>
        <time>2013-07-27T13:25:35Z</time>
      </trkpt>
      <trkpt lat="42.471010000" lon="-2.438976000">
        <ele>373.10</ele>
        <time>2013-07-27T13:25:36Z</time>
      </trkpt>
      <trkpt lat="42.470978000" lon="-2.439017000">
        <ele>373.10</ele>
        <time>2013-07-27T13:25:37Z</time>
      </trkpt>
      <trkpt lat="42.470947000" lon="-2.439055000">
        <ele>373.30</ele>
        <time>2013-07-27T13:25:38Z</time>
      </trkpt>
      <trkpt lat="42.470920000" lon="-2.439095000">
        <ele>373.40</ele>
        <time>2013-07-27T13:25:39Z</time>
      </trkpt>
      <trkpt lat="42.470894000" lon="-2.439132000">
        <ele>373.50</ele>
        <time>2013-07-27T13:25:40Z</time>
      </trkpt>
      <trkpt lat="42.470867000" lon="-2.439170000">
        <ele>373.60</ele>
        <time>2013-07-27T13:25:41Z</time>
      </trkpt>
      <trkpt lat="42.470837000" lon="-2.439205000">
        <ele>373.40</ele>
        <time>2013-07-27T13:25:42Z</time>
      </trkpt>
      <trkpt lat="42.470807000" lon="-2.439244000">
        <ele>373.20</ele>
        <time>2013-07-27T13:25:43Z</time>
      </trkpt>
      <trkpt lat="42.470777000" lon="-2.439287000">
        <ele>373.10</ele>
        <time>2013-07-27T13:25:44Z</time>
      </trkpt>
      <trkpt lat="42.470747000" lon="-2.439330000">
        <ele>373.00</ele>
        <time>2013-07-27T13:25:45Z</time>
      </trkpt>
      <trkpt lat="42.470719000" lon="-2.439372000">
        <ele>373.10</ele>
        <time>2013-07-27T13:25:46Z</time>
      </trkpt>
      <trkpt lat="42.470691000" lon="-2.439417000">
        <ele>373.20</ele>
        <time>2013-07-27T13:25:47Z</time>
      </trkpt>
      <trkpt lat="42.470663000" lon="-2.439463000">
        <ele>373.50</ele>
        <time>2013-07-27T13:25:48Z</time>
      </trkpt>
      <trkpt lat="42.470636000" lon="-2.439511000">
        <ele>373.70</ele>
        <time>2013-07-27T13:25:49Z</time>
      </trkpt>
      <trkpt lat="42.470608000" lon="-2.439557000">
        <ele>374.00</ele>
        <time>2013-07-27T13:25:50Z</time>
      </trkpt>
      <trkpt lat="42.470584000" lon="-2.439605000">
        <ele>374.20</ele>
        <time>2013-07-27T13:25:51Z</time>
      </trkpt>
      <trkpt lat="42.470561000" lon="-2.439654000">
        <ele>374.20</ele>
        <time>2013-07-27T13:25:52Z</time>
      </trkpt>
      <trkpt lat="42.470537000" lon="-2.439697000">
        <ele>374.20</ele>
        <time>2013-07-27T13:25:53Z</time>
      </trkpt>
      <trkpt lat="42.470513000" lon="-2.439744000">
        <ele>374.00</ele>
        <time>2013-07-27T13:25:54Z</time>
      </trkpt>
      <trkpt lat="42.470485000" lon="-2.439789000">
        <ele>373.90</ele>
        <time>2013-07-27T13:25:55Z</time>
      </trkpt>
      <trkpt lat="42.470456000" lon="-2.439839000">
        <ele>373.70</ele>
        <time>2013-07-27T13:25:56Z</time>
      </trkpt>
      <trkpt lat="42.470434000" lon="-2.439889000">
        <ele>373.60</ele>
        <time>2013-07-27T13:25:57Z</time>
      </trkpt>
      <trkpt lat="42.470414000" lon="-2.439944000">
        <ele>373.60</ele>
        <time>2013-07-27T13:25:58Z</time>
      </trkpt>
      <trkpt lat="42.470395000" lon="-2.440001000">
        <ele>373.60</ele>
        <time>2013-07-27T13:25:59Z</time>
      </trkpt>
      <trkpt lat="42.470375000" lon="-2.440056000">
        <ele>373.40</ele>
        <time>2013-07-27T13:26:00Z</time>
      </trkpt>
      <trkpt lat="42.470360000" lon="-2.440112000">
        <ele>373.20</ele>
        <time>2013-07-27T13:26:01Z</time>
      </trkpt>
      <trkpt lat="42.470341000" lon="-2.440165000">
        <ele>373.30</ele>
        <time>2013-07-27T13:26:02Z</time>
      </trkpt>
      <trkpt lat="42.470318000" lon="-2.440218000">
        <ele>373.30</ele>
        <time>2013-07-27T13:26:03Z</time>
      </trkpt>
      <trkpt lat="42.470295000" lon="-2.440273000">
        <ele>373.40</ele>
        <time>2013-07-27T13:26:04Z</time>
      </trkpt>
      <trkpt lat="42.470277000" lon="-2.440326000">
        <ele>373.40</ele>
        <time>2013-07-27T13:26:05Z</time>
      </trkpt>
      <trkpt lat="42.470259000" lon="-2.440383000">
        <ele>373.40</ele>
        <time>2013-07-27T13:26:06Z</time>
      </trkpt>
      <trkpt lat="42.470235000" lon="-2.440434000">
        <ele>373.50</ele>
        <time>2013-07-27T13:26:07Z</time>
      </trkpt>
      <trkpt lat="42.470213000" lon="-2.440483000">
        <ele>373.50</ele>
        <time>2013-07-27T13:26:08Z</time>
      </trkpt>
      <trkpt lat="42.470193000" lon="-2.440532000">
        <ele>373.50</ele>
        <time>2013-07-27T13:26:09Z</time>
      </trkpt>
      <trkpt lat="42.470170000" lon="-2.440581000">
        <ele>373.20</ele>
        <time>2013-07-27T13:26:10Z</time>
      </trkpt>
      <trkpt lat="42.470149000" lon="-2.440628000">
        <ele>373.00</ele>
        <time>2013-07-27T13:26:11Z</time>
      </trkpt>
      <trkpt lat="42.470128000" lon="-2.440670000">
        <ele>373.00</ele>
        <time>2013-07-27T13:26:12Z</time>
      </trkpt>
      <trkpt lat="42.470105000" lon="-2.440717000">
        <ele>372.90</ele>
        <time>2013-07-27T13:26:13Z</time>
      </trkpt>
      <trkpt lat="42.470084000" lon="-2.440761000">
        <ele>372.90</ele>
        <time>2013-07-27T13:26:14Z</time>
      </trkpt>
      <trkpt lat="42.470066000" lon="-2.440804000">
        <ele>372.80</ele>
        <time>2013-07-27T13:26:15Z</time>
      </trkpt>
      <trkpt lat="42.470047000" lon="-2.440847000">
        <ele>372.80</ele>
        <time>2013-07-27T13:26:16Z</time>
      </trkpt>
      <trkpt lat="42.470030000" lon="-2.440890000">
        <ele>372.80</ele>
        <time>2013-07-27T13:26:17Z</time>
      </trkpt>
      <trkpt lat="42.470011000" lon="-2.440932000">
        <ele>372.90</ele>
        <time>2013-07-27T13:26:18Z</time>
      </trkpt>
      <trkpt lat="42.469994000" lon="-2.440976000">
        <ele>373.00</ele>
        <time>2013-07-27T13:26:19Z</time>
      </trkpt>
      <trkpt lat="42.469974000" lon="-2.441021000">
        <ele>372.90</ele>
        <time>2013-07-27T13:26:20Z</time>
      </trkpt>
      <trkpt lat="42.469955000" lon="-2.441069000">
        <ele>372.90</ele>
        <time>2013-07-27T13:26:21Z</time>
      </trkpt>
      <trkpt lat="42.469935000" lon="-2.441117000">
        <ele>372.80</ele>
        <time>2013-07-27T13:26:22Z</time>
      </trkpt>
      <trkpt lat="42.469919000" lon="-2.441164000">
        <ele>372.80</ele>
        <time>2013-07-27T13:26:23Z</time>
      </trkpt>
      <trkpt lat="42.469897000" lon="-2.441212000">
        <ele>372.80</ele>
        <time>2013-07-27T13:26:24Z</time>
      </trkpt>
      <trkpt lat="42.469880000" lon="-2.441258000">
        <ele>372.80</ele>
        <time>2013-07-27T13:26:25Z</time>
      </trkpt>
      <trkpt lat="42.469858000" lon="-2.441306000">
        <ele>372.80</ele>
        <time>2013-07-27T13:26:26Z</time>
      </trkpt>
      <trkpt lat="42.469837000" lon="-2.441356000">
        <ele>372.80</ele>
        <time>2013-07-27T13:26:27Z</time>
      </trkpt>
      <trkpt lat="42.469815000" lon="-2.441404000">
        <ele>373.00</ele>
        <time>2013-07-27T13:26:28Z</time>
      </trkpt>
      <trkpt lat="42.469794000" lon="-2.441451000">
        <ele>373.20</ele>
        <time>2013-07-27T13:26:29Z</time>
      </trkpt>
      <trkpt lat="42.469773000" lon="-2.441500000">
        <ele>373.30</ele>
        <time>2013-07-27T13:26:30Z</time>
      </trkpt>
      <trkpt lat="42.469753000" lon="-2.441548000">
        <ele>373.40</ele>
        <time>2013-07-27T13:26:31Z</time>
      </trkpt>
      <trkpt lat="42.469731000" lon="-2.441596000">
        <ele>373.50</ele>
        <time>2013-07-27T13:26:32Z</time>
      </trkpt>
      <trkpt lat="42.469707000" lon="-2.441646000">
        <ele>373.60</ele>
        <time>2013-07-27T13:26:33Z</time>
      </trkpt>
      <trkpt lat="42.469684000" lon="-2.441696000">
        <ele>373.60</ele>
        <time>2013-07-27T13:26:34Z</time>
      </trkpt>
      <trkpt lat="42.469657000" lon="-2.441741000">
        <ele>373.70</ele>
        <time>2013-07-27T13:26:35Z</time>
      </trkpt>
      <trkpt lat="42.469634000" lon="-2.441794000">
        <ele>373.20</ele>
        <time>2013-07-27T13:26:36Z</time>
      </trkpt>
      <trkpt lat="42.469611000" lon="-2.441845000">
        <ele>372.90</ele>
        <time>2013-07-27T13:26:37Z</time>
      </trkpt>
      <trkpt lat="42.469588000" lon="-2.441897000">
        <ele>372.70</ele>
        <time>2013-07-27T13:26:38Z</time>
      </trkpt>
      <trkpt lat="42.469565000" lon="-2.441951000">
        <ele>372.50</ele>
        <time>2013-07-27T13:26:39Z</time>
      </trkpt>
      <trkpt lat="42.469542000" lon="-2.442006000">
        <ele>372.40</ele>
        <time>2013-07-27T13:26:40Z</time>
      </trkpt>
      <trkpt lat="42.469519000" lon="-2.442060000">
        <ele>372.30</ele>
        <time>2013-07-27T13:26:41Z</time>
      </trkpt>
      <trkpt lat="42.469495000" lon="-2.442115000">
        <ele>372.10</ele>
        <time>2013-07-27T13:26:42Z</time>
      </trkpt>
      <trkpt lat="42.469473000" lon="-2.442168000">
        <ele>372.00</ele>
        <time>2013-07-27T13:26:43Z</time>
      </trkpt>
      <trkpt lat="42.469449000" lon="-2.442220000">
        <ele>371.90</ele>
        <time>2013-07-27T13:26:44Z</time>
      </trkpt>
      <trkpt lat="42.469425000" lon="-2.442276000">
        <ele>371.90</ele>
        <time>2013-07-27T13:26:45Z</time>
      </trkpt>
      <trkpt lat="42.469400000" lon="-2.442332000">
        <ele>372.00</ele>
        <time>2013-07-27T13:26:46Z</time>
      </trkpt>
      <trkpt lat="42.469372000" lon="-2.442390000">
        <ele>372.10</ele>
        <time>2013-07-27T13:26:47Z</time>
      </trkpt>
      <trkpt lat="42.469345000" lon="-2.442449000">
        <ele>372.20</ele>
        <time>2013-07-27T13:26:48Z</time>
      </trkpt>
      <trkpt lat="42.469321000" lon="-2.442506000">
        <ele>372.30</ele>
        <time>2013-07-27T13:26:49Z</time>
      </trkpt>
      <trkpt lat="42.469298000" lon="-2.442567000">
        <ele>372.30</ele>
        <time>2013-07-27T13:26:50Z</time>
      </trkpt>
      <trkpt lat="42.469272000" lon="-2.442630000">
        <ele>372.40</ele>
        <time>2013-07-27T13:26:51Z</time>
      </trkpt>
      <trkpt lat="42.469248000" lon="-2.442694000">
        <ele>372.20</ele>
        <time>2013-07-27T13:26:52Z</time>
      </trkpt>
      <trkpt lat="42.469225000" lon="-2.442755000">
        <ele>372.10</ele>
        <time>2013-07-27T13:26:53Z</time>
      </trkpt>
      <trkpt lat="42.469203000" lon="-2.442820000">
        <ele>372.20</ele>
        <time>2013-07-27T13:26:54Z</time>
      </trkpt>
      <trkpt lat="42.469181000" lon="-2.442882000">
        <ele>372.20</ele>
        <time>2013-07-27T13:26:55Z</time>
      </trkpt>
      <trkpt lat="42.469164000" lon="-2.442941000">
        <ele>372.10</ele>
        <time>2013-07-27T13:26:56Z</time>
      </trkpt>
      <trkpt lat="42.469146000" lon="-2.443000000">
        <ele>372.00</ele>
        <time>2013-07-27T13:26:57Z</time>
      </trkpt>
      <trkpt lat="42.469129000" lon="-2.443056000">
        <ele>372.10</ele>
        <time>2013-07-27T13:26:58Z</time>
      </trkpt>
      <trkpt lat="42.469108000" lon="-2.443101000">
        <ele>372.10</ele>
        <time>2013-07-27T13:26:59Z</time>
      </trkpt>
      <trkpt lat="42.469094000" lon="-2.443142000">
        <ele>372.30</ele>
        <time>2013-07-27T13:27:00Z</time>
      </trkpt>
      <trkpt lat="42.469092000" lon="-2.443181000">
        <ele>372.40</ele>
        <time>2013-07-27T13:27:01Z</time>
      </trkpt>
      <trkpt lat="42.469108000" lon="-2.443206000">
        <ele>372.50</ele>
        <time>2013-07-27T13:27:02Z</time>
      </trkpt>
      <trkpt lat="42.469106000" lon="-2.443232000">
        <ele>372.60</ele>
        <time>2013-07-27T13:27:03Z</time>
      </trkpt>
      <trkpt lat="42.469093000" lon="-2.443268000">
        <ele>372.60</ele>
        <time>2013-07-27T13:27:04Z</time>
      </trkpt>
      <trkpt lat="42.469088000" lon="-2.443317000">
        <ele>372.60</ele>
        <time>2013-07-27T13:27:05Z</time>
      </trkpt>
      <trkpt lat="42.469086000" lon="-2.443375000">
        <ele>372.60</ele>
        <time>2013-07-27T13:27:06Z</time>
      </trkpt>
      <trkpt lat="42.469094000" lon="-2.443438000">
        <ele>372.60</ele>
        <time>2013-07-27T13:27:07Z</time>
      </trkpt>
      <trkpt lat="42.469112000" lon="-2.443502000">
        <ele>372.70</ele>
        <time>2013-07-27T13:27:08Z</time>
      </trkpt>
      <trkpt lat="42.469134000" lon="-2.443566000">
        <ele>372.80</ele>
        <time>2013-07-27T13:27:09Z</time>
      </trkpt>
      <trkpt lat="42.469158000" lon="-2.443635000">
        <ele>372.90</ele>
        <time>2013-07-27T13:27:10Z</time>
      </trkpt>
      <trkpt lat="42.469177000" lon="-2.443704000">
        <ele>373.00</ele>
        <time>2013-07-27T13:27:11Z</time>
      </trkpt>
      <trkpt lat="42.469189000" lon="-2.443780000">
        <ele>373.00</ele>
        <time>2013-07-27T13:27:12Z</time>
      </trkpt>
      <trkpt lat="42.469198000" lon="-2.443855000">
        <ele>373.00</ele>
        <time>2013-07-27T13:27:13Z</time>
      </trkpt>
      <trkpt lat="42.469206000" lon="-2.443931000">
        <ele>373.10</ele>
        <time>2013-07-27T13:27:14Z</time>
      </trkpt>
      <trkpt lat="42.469206000" lon="-2.444010000">
        <ele>373.10</ele>
        <time>2013-07-27T13:27:15Z</time>
      </trkpt>
      <trkpt lat="42.469201000" lon="-2.444090000">
        <ele>372.90</ele>
        <time>2013-07-27T13:27:16Z</time>
      </trkpt>
      <trkpt lat="42.469194000" lon="-2.444165000">
        <ele>372.80</ele>
        <time>2013-07-27T13:27:17Z</time>
      </trkpt>
      <trkpt lat="42.469187000" lon="-2.444238000">
        <ele>372.50</ele>
        <time>2013-07-27T13:27:18Z</time>
      </trkpt>
      <trkpt lat="42.469180000" lon="-2.444303000">
        <ele>372.30</ele>
        <time>2013-07-27T13:27:19Z</time>
      </trkpt>
      <trkpt lat="42.469171000" lon="-2.444366000">
        <ele>372.20</ele>
        <time>2013-07-27T13:27:20Z</time>
      </trkpt>
      <trkpt lat="42.469161000" lon="-2.444427000">
        <ele>372.10</ele>
        <time>2013-07-27T13:27:21Z</time>
      </trkpt>
      <trkpt lat="42.469157000" lon="-2.444490000">
        <ele>372.30</ele>
        <time>2013-07-27T13:27:22Z</time>
      </trkpt>
      <trkpt lat="42.469153000" lon="-2.444553000">
        <ele>372.40</ele>
        <time>2013-07-27T13:27:23Z</time>
      </trkpt>
      <trkpt lat="42.469149000" lon="-2.444614000">
        <ele>373.00</ele>
        <time>2013-07-27T13:27:24Z</time>
      </trkpt>
      <trkpt lat="42.469147000" lon="-2.444676000">
        <ele>373.30</ele>
        <time>2013-07-27T13:27:25Z</time>
      </trkpt>
      <trkpt lat="42.469149000" lon="-2.444737000">
        <ele>373.50</ele>
        <time>2013-07-27T13:27:26Z</time>
      </trkpt>
      <trkpt lat="42.469154000" lon="-2.444799000">
        <ele>373.60</ele>
        <time>2013-07-27T13:27:27Z</time>
      </trkpt>
      <trkpt lat="42.469160000" lon="-2.444862000">
        <ele>373.70</ele>
        <time>2013-07-27T13:27:28Z</time>
      </trkpt>
      <trkpt lat="42.469165000" lon="-2.444927000">
        <ele>373.70</ele>
        <time>2013-07-27T13:27:29Z</time>
      </trkpt>
      <trkpt lat="42.469172000" lon="-2.444991000">
        <ele>373.80</ele>
        <time>2013-07-27T13:27:30Z</time>
      </trkpt>
      <trkpt lat="42.469178000" lon="-2.445053000">
        <ele>373.80</ele>
        <time>2013-07-27T13:27:31Z</time>
      </trkpt>
      <trkpt lat="42.469184000" lon="-2.445115000">
        <ele>373.90</ele>
        <time>2013-07-27T13:27:32Z</time>
      </trkpt>
      <trkpt lat="42.469191000" lon="-2.445177000">
        <ele>373.90</ele>
        <time>2013-07-27T13:27:33Z</time>
      </trkpt>
      <trkpt lat="42.469197000" lon="-2.445238000">
        <ele>373.90</ele>
        <time>2013-07-27T13:27:34Z</time>
      </trkpt>
      <trkpt lat="42.469200000" lon="-2.445298000">
        <ele>373.90</ele>
        <time>2013-07-27T13:27:35Z</time>
      </trkpt>
      <trkpt lat="42.469204000" lon="-2.445358000">
        <ele>373.90</ele>
        <time>2013-07-27T13:27:36Z</time>
      </trkpt>
      <trkpt lat="42.469205000" lon="-2.445420000">
        <ele>373.90</ele>
        <time>2013-07-27T13:27:37Z</time>
      </trkpt>
      <trkpt lat="42.469203000" lon="-2.445483000">
        <ele>373.90</ele>
        <time>2013-07-27T13:27:38Z</time>
      </trkpt>
      <trkpt lat="42.469199000" lon="-2.445544000">
        <ele>373.90</ele>
        <time>2013-07-27T13:27:39Z</time>
      </trkpt>
      <trkpt lat="42.469194000" lon="-2.445605000">
        <ele>373.90</ele>
        <time>2013-07-27T13:27:40Z</time>
      </trkpt>
      <trkpt lat="42.469187000" lon="-2.445667000">
        <ele>373.90</ele>
        <time>2013-07-27T13:27:41Z</time>
      </trkpt>
      <trkpt lat="42.469180000" lon="-2.445727000">
        <ele>373.90</ele>
        <time>2013-07-27T13:27:42Z</time>
      </trkpt>
      <trkpt lat="42.469173000" lon="-2.445788000">
        <ele>373.90</ele>
        <time>2013-07-27T13:27:43Z</time>
      </trkpt>
      <trkpt lat="42.469163000" lon="-2.445847000">
        <ele>373.90</ele>
        <time>2013-07-27T13:27:44Z</time>
      </trkpt>
      <trkpt lat="42.469156000" lon="-2.445901000">
        <ele>373.90</ele>
        <time>2013-07-27T13:27:45Z</time>
      </trkpt>
      <trkpt lat="42.469146000" lon="-2.445955000">
        <ele>373.90</ele>
        <time>2013-07-27T13:27:46Z</time>
      </trkpt>
      <trkpt lat="42.469136000" lon="-2.446010000">
        <ele>373.90</ele>
        <time>2013-07-27T13:27:47Z</time>
      </trkpt>
      <trkpt lat="42.469130000" lon="-2.446069000">
        <ele>374.10</ele>
        <time>2013-07-27T13:27:48Z</time>
      </trkpt>
      <trkpt lat="42.469128000" lon="-2.446133000">
        <ele>374.30</ele>
        <time>2013-07-27T13:27:49Z</time>
      </trkpt>
      <trkpt lat="42.469122000" lon="-2.446203000">
        <ele>374.10</ele>
        <time>2013-07-27T13:27:50Z</time>
      </trkpt>
      <trkpt lat="42.469115000" lon="-2.446274000">
        <ele>373.90</ele>
        <time>2013-07-27T13:27:51Z</time>
      </trkpt>
      <trkpt lat="42.469108000" lon="-2.446343000">
        <ele>373.80</ele>
        <time>2013-07-27T13:27:52Z</time>
      </trkpt>
      <trkpt lat="42.469101000" lon="-2.446412000">
        <ele>373.70</ele>
        <time>2013-07-27T13:27:53Z</time>
      </trkpt>
      <trkpt lat="42.469095000" lon="-2.446474000">
        <ele>373.60</ele>
        <time>2013-07-27T13:27:54Z</time>
      </trkpt>
      <trkpt lat="42.469088000" lon="-2.446525000">
        <ele>373.50</ele>
        <time>2013-07-27T13:27:55Z</time>
      </trkpt>
      <trkpt lat="42.469084000" lon="-2.446567000">
        <ele>373.40</ele>
        <time>2013-07-27T13:27:56Z</time>
      </trkpt>
      <trkpt lat="42.469081000" lon="-2.446607000">
        <ele>373.30</ele>
        <time>2013-07-27T13:27:57Z</time>
      </trkpt>
      <trkpt lat="42.469081000" lon="-2.446649000">
        <ele>373.30</ele>
        <time>2013-07-27T13:27:58Z</time>
      </trkpt>
      <trkpt lat="42.469074000" lon="-2.446697000">
        <ele>373.30</ele>
        <time>2013-07-27T13:27:59Z</time>
      </trkpt>
      <trkpt lat="42.469074000" lon="-2.446748000">
        <ele>373.20</ele>
        <time>2013-07-27T13:28:00Z</time>
      </trkpt>
      <trkpt lat="42.469074000" lon="-2.446808000">
        <ele>373.20</ele>
        <time>2013-07-27T13:28:01Z</time>
      </trkpt>
      <trkpt lat="42.469073000" lon="-2.446879000">
        <ele>373.00</ele>
        <time>2013-07-27T13:28:02Z</time>
      </trkpt>
      <trkpt lat="42.469076000" lon="-2.446960000">
        <ele>372.90</ele>
        <time>2013-07-27T13:28:03Z</time>
      </trkpt>
      <trkpt lat="42.469079000" lon="-2.447040000">
        <ele>372.90</ele>
        <time>2013-07-27T13:28:04Z</time>
      </trkpt>
      <trkpt lat="42.469088000" lon="-2.447117000">
        <ele>373.00</ele>
        <time>2013-07-27T13:28:05Z</time>
      </trkpt>
      <trkpt lat="42.469093000" lon="-2.447194000">
        <ele>373.00</ele>
        <time>2013-07-27T13:28:06Z</time>
      </trkpt>
      <trkpt lat="42.469100000" lon="-2.447268000">
        <ele>372.90</ele>
        <time>2013-07-27T13:28:07Z</time>
      </trkpt>
      <trkpt lat="42.469106000" lon="-2.447337000">
        <ele>373.10</ele>
        <time>2013-07-27T13:28:08Z</time>
      </trkpt>
      <trkpt lat="42.469113000" lon="-2.447405000">
        <ele>373.20</ele>
        <time>2013-07-27T13:28:09Z</time>
      </trkpt>
      <trkpt lat="42.469116000" lon="-2.447473000">
        <ele>373.10</ele>
        <time>2013-07-27T13:28:10Z</time>
      </trkpt>
      <trkpt lat="42.469118000" lon="-2.447544000">
        <ele>373.00</ele>
        <time>2013-07-27T13:28:11Z</time>
      </trkpt>
      <trkpt lat="42.469117000" lon="-2.447615000">
        <ele>373.30</ele>
        <time>2013-07-27T13:28:12Z</time>
      </trkpt>
      <trkpt lat="42.469120000" lon="-2.447685000">
        <ele>373.40</ele>
        <time>2013-07-27T13:28:13Z</time>
      </trkpt>
      <trkpt lat="42.469124000" lon="-2.447754000">
        <ele>373.60</ele>
        <time>2013-07-27T13:28:14Z</time>
      </trkpt>
      <trkpt lat="42.469125000" lon="-2.447824000">
        <ele>373.80</ele>
        <time>2013-07-27T13:28:15Z</time>
      </trkpt>
      <trkpt lat="42.469128000" lon="-2.447891000">
        <ele>373.90</ele>
        <time>2013-07-27T13:28:16Z</time>
      </trkpt>
      <trkpt lat="42.469127000" lon="-2.447957000">
        <ele>374.00</ele>
        <time>2013-07-27T13:28:17Z</time>
      </trkpt>
      <trkpt lat="42.469128000" lon="-2.448020000">
        <ele>373.90</ele>
        <time>2013-07-27T13:28:18Z</time>
      </trkpt>
      <trkpt lat="42.469127000" lon="-2.448084000">
        <ele>373.80</ele>
        <time>2013-07-27T13:28:19Z</time>
      </trkpt>
      <trkpt lat="42.469129000" lon="-2.448152000">
        <ele>373.80</ele>
        <time>2013-07-27T13:28:20Z</time>
      </trkpt>
      <trkpt lat="42.469128000" lon="-2.448213000">
        <ele>373.80</ele>
        <time>2013-07-27T13:28:21Z</time>
      </trkpt>
      <trkpt lat="42.469122000" lon="-2.448280000">
        <ele>373.80</ele>
        <time>2013-07-27T13:28:22Z</time>
      </trkpt>
      <trkpt lat="42.469115000" lon="-2.448348000">
        <ele>373.90</ele>
        <time>2013-07-27T13:28:23Z</time>
      </trkpt>
      <trkpt lat="42.469109000" lon="-2.448419000">
        <ele>373.90</ele>
        <time>2013-07-27T13:28:24Z</time>
      </trkpt>
      <trkpt lat="42.469102000" lon="-2.448488000">
        <ele>373.90</ele>
        <time>2013-07-27T13:28:25Z</time>
      </trkpt>
      <trkpt lat="42.469095000" lon="-2.448555000">
        <ele>373.60</ele>
        <time>2013-07-27T13:28:26Z</time>
      </trkpt>
      <trkpt lat="42.469088000" lon="-2.448624000">
        <ele>373.40</ele>
        <time>2013-07-27T13:28:27Z</time>
      </trkpt>
      <trkpt lat="42.469084000" lon="-2.448694000">
        <ele>373.20</ele>
        <time>2013-07-27T13:28:28Z</time>
      </trkpt>
      <trkpt lat="42.469077000" lon="-2.448765000">
        <ele>373.10</ele>
        <time>2013-07-27T13:28:29Z</time>
      </trkpt>
      <trkpt lat="42.469073000" lon="-2.448832000">
        <ele>373.30</ele>
        <time>2013-07-27T13:28:30Z</time>
      </trkpt>
      <trkpt lat="42.469068000" lon="-2.448897000">
        <ele>373.50</ele>
        <time>2013-07-27T13:28:31Z</time>
      </trkpt>
      <trkpt lat="42.469068000" lon="-2.448959000">
        <ele>373.60</ele>
        <time>2013-07-27T13:28:32Z</time>
      </trkpt>
      <trkpt lat="42.469070000" lon="-2.449017000">
        <ele>373.70</ele>
        <time>2013-07-27T13:28:33Z</time>
      </trkpt>
      <trkpt lat="42.469074000" lon="-2.449080000">
        <ele>373.50</ele>
        <time>2013-07-27T13:28:34Z</time>
      </trkpt>
      <trkpt lat="42.469079000" lon="-2.449140000">
        <ele>373.40</ele>
        <time>2013-07-27T13:28:35Z</time>
      </trkpt>
      <trkpt lat="42.469084000" lon="-2.449202000">
        <ele>373.10</ele>
        <time>2013-07-27T13:28:36Z</time>
      </trkpt>
      <trkpt lat="42.469089000" lon="-2.449273000">
        <ele>372.90</ele>
        <time>2013-07-27T13:28:37Z</time>
      </trkpt>
      <trkpt lat="42.469095000" lon="-2.449346000">
        <ele>372.70</ele>
        <time>2013-07-27T13:28:38Z</time>
      </trkpt>
      <trkpt lat="42.469102000" lon="-2.449425000">
        <ele>372.60</ele>
        <time>2013-07-27T13:28:39Z</time>
      </trkpt>
      <trkpt lat="42.469109000" lon="-2.449500000">
        <ele>372.60</ele>
        <time>2013-07-27T13:28:40Z</time>
      </trkpt>
      <trkpt lat="42.469110000" lon="-2.449574000">
        <ele>372.50</ele>
        <time>2013-07-27T13:28:41Z</time>
      </trkpt>
      <trkpt lat="42.469109000" lon="-2.449647000">
        <ele>372.80</ele>
        <time>2013-07-27T13:28:42Z</time>
      </trkpt>
      <trkpt lat="42.469102000" lon="-2.449721000">
        <ele>373.00</ele>
        <time>2013-07-27T13:28:43Z</time>
      </trkpt>
      <trkpt lat="42.469091000" lon="-2.449791000">
        <ele>373.20</ele>
        <time>2013-07-27T13:28:44Z</time>
      </trkpt>
      <trkpt lat="42.469080000" lon="-2.449861000">
        <ele>373.40</ele>
        <time>2013-07-27T13:28:45Z</time>
      </trkpt>
      <trkpt lat="42.469075000" lon="-2.449931000">
        <ele>373.60</ele>
        <time>2013-07-27T13:28:46Z</time>
      </trkpt>
      <trkpt lat="42.469074000" lon="-2.449998000">
        <ele>373.70</ele>
        <time>2013-07-27T13:28:47Z</time>
      </trkpt>
      <trkpt lat="42.469074000" lon="-2.450058000">
        <ele>373.60</ele>
        <time>2013-07-27T13:28:48Z</time>
      </trkpt>
      <trkpt lat="42.469074000" lon="-2.450117000">
        <ele>373.60</ele>
        <time>2013-07-27T13:28:49Z</time>
      </trkpt>
      <trkpt lat="42.469079000" lon="-2.450174000">
        <ele>373.50</ele>
        <time>2013-07-27T13:28:50Z</time>
      </trkpt>
      <trkpt lat="42.469080000" lon="-2.450233000">
        <ele>373.50</ele>
        <time>2013-07-27T13:28:51Z</time>
      </trkpt>
      <trkpt lat="42.469077000" lon="-2.450293000">
        <ele>373.10</ele>
        <time>2013-07-27T13:28:52Z</time>
      </trkpt>
      <trkpt lat="42.469070000" lon="-2.450353000">
        <ele>372.80</ele>
        <time>2013-07-27T13:28:53Z</time>
      </trkpt>
      <trkpt lat="42.469062000" lon="-2.450413000">
        <ele>372.50</ele>
        <time>2013-07-27T13:28:54Z</time>
      </trkpt>
      <trkpt lat="42.469054000" lon="-2.450479000">
        <ele>372.20</ele>
        <time>2013-07-27T13:28:55Z</time>
      </trkpt>
      <trkpt lat="42.469048000" lon="-2.450546000">
        <ele>372.10</ele>
        <time>2013-07-27T13:28:56Z</time>
      </trkpt>
      <trkpt lat="42.469050000" lon="-2.450613000">
        <ele>372.10</ele>
        <time>2013-07-27T13:28:57Z</time>
      </trkpt>
      <trkpt lat="42.469055000" lon="-2.450680000">
        <ele>372.50</ele>
        <time>2013-07-27T13:28:58Z</time>
      </trkpt>
      <trkpt lat="42.469057000" lon="-2.450745000">
        <ele>372.70</ele>
        <time>2013-07-27T13:28:59Z</time>
      </trkpt>
      <trkpt lat="42.469058000" lon="-2.450812000">
        <ele>373.10</ele>
        <time>2013-07-27T13:29:00Z</time>
      </trkpt>
      <trkpt lat="42.469062000" lon="-2.450880000">
        <ele>373.30</ele>
        <time>2013-07-27T13:29:01Z</time>
      </trkpt>
      <trkpt lat="42.469066000" lon="-2.450944000">
        <ele>373.40</ele>
        <time>2013-07-27T13:29:02Z</time>
      </trkpt>
      <trkpt lat="42.469072000" lon="-2.451009000">
        <ele>373.50</ele>
        <time>2013-07-27T13:29:03Z</time>
      </trkpt>
      <trkpt lat="42.469074000" lon="-2.451072000">
        <ele>373.70</ele>
        <time>2013-07-27T13:29:04Z</time>
      </trkpt>
      <trkpt lat="42.469075000" lon="-2.451137000">
        <ele>373.90</ele>
        <time>2013-07-27T13:29:05Z</time>
      </trkpt>
      <trkpt lat="42.469076000" lon="-2.451202000">
        <ele>373.70</ele>
        <time>2013-07-27T13:29:06Z</time>
      </trkpt>
      <trkpt lat="42.469077000" lon="-2.451267000">
        <ele>373.50</ele>
        <time>2013-07-27T13:29:07Z</time>
      </trkpt>
      <trkpt lat="42.469080000" lon="-2.451325000">
        <ele>373.70</ele>
        <time>2013-07-27T13:29:08Z</time>
      </trkpt>
      <trkpt lat="42.469086000" lon="-2.451380000">
        <ele>373.90</ele>
        <time>2013-07-27T13:29:09Z</time>
      </trkpt>
      <trkpt lat="42.469094000" lon="-2.451430000">
        <ele>374.00</ele>
        <time>2013-07-27T13:29:10Z</time>
      </trkpt>
      <trkpt lat="42.469105000" lon="-2.451482000">
        <ele>374.10</ele>
        <time>2013-07-27T13:29:11Z</time>
      </trkpt>
      <trkpt lat="42.469119000" lon="-2.451533000">
        <ele>374.20</ele>
        <time>2013-07-27T13:29:12Z</time>
      </trkpt>
      <trkpt lat="42.469135000" lon="-2.451588000">
        <ele>374.30</ele>
        <time>2013-07-27T13:29:13Z</time>
      </trkpt>
      <trkpt lat="42.469150000" lon="-2.451646000">
        <ele>374.30</ele>
        <time>2013-07-27T13:29:14Z</time>
      </trkpt>
      <trkpt lat="42.469168000" lon="-2.451704000">
        <ele>374.40</ele>
        <time>2013-07-27T13:29:15Z</time>
      </trkpt>
      <trkpt lat="42.469187000" lon="-2.451761000">
        <ele>374.20</ele>
        <time>2013-07-27T13:29:16Z</time>
      </trkpt>
      <trkpt lat="42.469202000" lon="-2.451818000">
        <ele>374.10</ele>
        <time>2013-07-27T13:29:17Z</time>
      </trkpt>
      <trkpt lat="42.469220000" lon="-2.451873000">
        <ele>374.30</ele>
        <time>2013-07-27T13:29:18Z</time>
      </trkpt>
      <trkpt lat="42.469236000" lon="-2.451932000">
        <ele>374.50</ele>
        <time>2013-07-27T13:29:19Z</time>
      </trkpt>
      <trkpt lat="42.469253000" lon="-2.451989000">
        <ele>374.10</ele>
        <time>2013-07-27T13:29:20Z</time>
      </trkpt>
      <trkpt lat="42.469270000" lon="-2.452040000">
        <ele>373.90</ele>
        <time>2013-07-27T13:29:21Z</time>
      </trkpt>
      <trkpt lat="42.469283000" lon="-2.452097000">
        <ele>373.80</ele>
        <time>2013-07-27T13:29:22Z</time>
      </trkpt>
      <trkpt lat="42.469280000" lon="-2.452152000">
        <ele>373.80</ele>
        <time>2013-07-27T13:29:23Z</time>
      </trkpt>
      <trkpt lat="42.469259000" lon="-2.452203000">
        <ele>373.80</ele>
        <time>2013-07-27T13:29:24Z</time>
      </trkpt>
      <trkpt lat="42.469226000" lon="-2.452241000">
        <ele>373.70</ele>
        <time>2013-07-27T13:29:25Z</time>
      </trkpt>
      <trkpt lat="42.469189000" lon="-2.452267000">
        <ele>373.80</ele>
        <time>2013-07-27T13:29:26Z</time>
      </trkpt>
      <trkpt lat="42.469151000" lon="-2.452285000">
        <ele>373.80</ele>
        <time>2013-07-27T13:29:27Z</time>
      </trkpt>
      <trkpt lat="42.469119000" lon="-2.452304000">
        <ele>374.10</ele>
        <time>2013-07-27T13:29:28Z</time>
      </trkpt>
      <trkpt lat="42.469093000" lon="-2.452314000">
        <ele>374.30</ele>
        <time>2013-07-27T13:29:29Z</time>
      </trkpt>
      <trkpt lat="42.469075000" lon="-2.452322000">
        <ele>374.40</ele>
        <time>2013-07-27T13:29:30Z</time>
      </trkpt>
      <trkpt lat="42.469053000" lon="-2.452331000">
        <ele>374.50</ele>
        <time>2013-07-27T13:29:31Z</time>
      </trkpt>
      <trkpt lat="42.469036000" lon="-2.452331000">
        <ele>374.80</ele>
        <time>2013-07-27T13:29:32Z</time>
      </trkpt>
      <trkpt lat="42.469021000" lon="-2.452334000">
        <ele>375.00</ele>
        <time>2013-07-27T13:29:33Z</time>
      </trkpt>
      <trkpt lat="42.469007000" lon="-2.452337000">
        <ele>375.40</ele>
        <time>2013-07-27T13:29:34Z</time>
      </trkpt>
      <trkpt lat="42.468994000" lon="-2.452336000">
        <ele>375.70</ele>
        <time>2013-07-27T13:29:35Z</time>
      </trkpt>
      <trkpt lat="42.468982000" lon="-2.452339000">
        <ele>375.90</ele>
        <time>2013-07-27T13:29:36Z</time>
      </trkpt>
      <trkpt lat="42.468971000" lon="-2.452352000">
        <ele>376.20</ele>
        <time>2013-07-27T13:29:37Z</time>
      </trkpt>
      <trkpt lat="42.468970000" lon="-2.452369000">
        <ele>376.40</ele>
        <time>2013-07-27T13:29:38Z</time>
      </trkpt>
      <trkpt lat="42.468982000" lon="-2.452386000">
        <ele>376.70</ele>
        <time>2013-07-27T13:29:39Z</time>
      </trkpt>
      <trkpt lat="42.468991000" lon="-2.452410000">
        <ele>376.80</ele>
        <time>2013-07-27T13:29:40Z</time>
      </trkpt>
      <trkpt lat="42.469015000" lon="-2.452435000">
        <ele>377.00</ele>
        <time>2013-07-27T13:29:41Z</time>
      </trkpt>
      <trkpt lat="42.469046000" lon="-2.452463000">
        <ele>377.00</ele>
        <time>2013-07-27T13:29:42Z</time>
      </trkpt>
      <trkpt lat="42.469087000" lon="-2.452498000">
        <ele>377.10</ele>
        <time>2013-07-27T13:29:43Z</time>
      </trkpt>
      <trkpt lat="42.469125000" lon="-2.452544000">
        <ele>376.80</ele>
        <time>2013-07-27T13:29:44Z</time>
      </trkpt>
      <trkpt lat="42.469157000" lon="-2.452597000">
        <ele>376.60</ele>
        <time>2013-07-27T13:29:45Z</time>
      </trkpt>
      <trkpt lat="42.469170000" lon="-2.452659000">
        <ele>376.50</ele>
        <time>2013-07-27T13:29:46Z</time>
      </trkpt>
      <trkpt lat="42.469180000" lon="-2.452718000">
        <ele>376.40</ele>
        <time>2013-07-27T13:29:47Z</time>
      </trkpt>
      <trkpt lat="42.469189000" lon="-2.452776000">
        <ele>376.70</ele>
        <time>2013-07-27T13:29:48Z</time>
      </trkpt>
      <trkpt lat="42.469201000" lon="-2.452830000">
        <ele>376.90</ele>
        <time>2013-07-27T13:29:49Z</time>
      </trkpt>
      <trkpt lat="42.469216000" lon="-2.452875000">
        <ele>377.20</ele>
        <time>2013-07-27T13:29:50Z</time>
      </trkpt>
      <trkpt lat="42.469231000" lon="-2.452921000">
        <ele>377.40</ele>
        <time>2013-07-27T13:29:51Z</time>
      </trkpt>
      <trkpt lat="42.469245000" lon="-2.452965000">
        <ele>377.60</ele>
        <time>2013-07-27T13:29:52Z</time>
      </trkpt>
      <trkpt lat="42.469260000" lon="-2.453010000">
        <ele>377.80</ele>
        <time>2013-07-27T13:29:53Z</time>
      </trkpt>
      <trkpt lat="42.469275000" lon="-2.453050000">
        <ele>378.30</ele>
        <time>2013-07-27T13:29:54Z</time>
      </trkpt>
      <trkpt lat="42.469292000" lon="-2.453090000">
        <ele>378.60</ele>
        <time>2013-07-27T13:29:55Z</time>
      </trkpt>
      <trkpt lat="42.469310000" lon="-2.453128000">
        <ele>378.90</ele>
        <time>2013-07-27T13:29:56Z</time>
      </trkpt>
      <trkpt lat="42.469325000" lon="-2.453164000">
        <ele>379.10</ele>
        <time>2013-07-27T13:29:57Z</time>
      </trkpt>
      <trkpt lat="42.469340000" lon="-2.453199000">
        <ele>379.20</ele>
        <time>2013-07-27T13:29:58Z</time>
      </trkpt>
      <trkpt lat="42.469354000" lon="-2.453233000">
        <ele>379.30</ele>
        <time>2013-07-27T13:29:59Z</time>
      </trkpt>
      <trkpt lat="42.469368000" lon="-2.453268000">
        <ele>379.40</ele>
        <time>2013-07-27T13:30:00Z</time>
      </trkpt>
      <trkpt lat="42.469379000" lon="-2.453308000">
        <ele>379.60</ele>
        <time>2013-07-27T13:30:01Z</time>
      </trkpt>
      <trkpt lat="42.469391000" lon="-2.453353000">
        <ele>379.80</ele>
        <time>2013-07-27T13:30:02Z</time>
      </trkpt>
      <trkpt lat="42.469403000" lon="-2.453398000">
        <ele>379.90</ele>
        <time>2013-07-27T13:30:03Z</time>
      </trkpt>
      <trkpt lat="42.469408000" lon="-2.453443000">
        <ele>380.20</ele>
        <time>2013-07-27T13:30:04Z</time>
      </trkpt>
      <trkpt lat="42.469415000" lon="-2.453487000">
        <ele>380.50</ele>
        <time>2013-07-27T13:30:05Z</time>
      </trkpt>
      <trkpt lat="42.469422000" lon="-2.453531000">
        <ele>380.80</ele>
        <time>2013-07-27T13:30:06Z</time>
      </trkpt>
      <trkpt lat="42.469429000" lon="-2.453572000">
        <ele>381.10</ele>
        <time>2013-07-27T13:30:07Z</time>
      </trkpt>
      <trkpt lat="42.469433000" lon="-2.453615000">
        <ele>381.30</ele>
        <time>2013-07-27T13:30:08Z</time>
      </trkpt>
      <trkpt lat="42.469440000" lon="-2.453660000">
        <ele>381.40</ele>
        <time>2013-07-27T13:30:09Z</time>
      </trkpt>
      <trkpt lat="42.469448000" lon="-2.453707000">
        <ele>381.50</ele>
        <time>2013-07-27T13:30:10Z</time>
      </trkpt>
      <trkpt lat="42.469454000" lon="-2.453752000">
        <ele>381.50</ele>
        <time>2013-07-27T13:30:11Z</time>
      </trkpt>
      <trkpt lat="42.469461000" lon="-2.453801000">
        <ele>381.50</ele>
        <time>2013-07-27T13:30:12Z</time>
      </trkpt>
      <trkpt lat="42.469469000" lon="-2.453847000">
        <ele>381.50</ele>
        <time>2013-07-27T13:30:13Z</time>
      </trkpt>
      <trkpt lat="42.469477000" lon="-2.453897000">
        <ele>381.50</ele>
        <time>2013-07-27T13:30:14Z</time>
      </trkpt>
      <trkpt lat="42.469485000" lon="-2.453946000">
        <ele>381.60</ele>
        <time>2013-07-27T13:30:15Z</time>
      </trkpt>
      <trkpt lat="42.469492000" lon="-2.453993000">
        <ele>381.60</ele>
        <time>2013-07-27T13:30:16Z</time>
      </trkpt>
      <trkpt lat="42.469500000" lon="-2.454044000">
        <ele>381.60</ele>
        <time>2013-07-27T13:30:17Z</time>
      </trkpt>
      <trkpt lat="42.469507000" lon="-2.454094000">
        <ele>381.70</ele>
        <time>2013-07-27T13:30:18Z</time>
      </trkpt>
      <trkpt lat="42.469513000" lon="-2.454145000">
        <ele>381.80</ele>
        <time>2013-07-27T13:30:19Z</time>
      </trkpt>
      <trkpt lat="42.469517000" lon="-2.454194000">
        <ele>381.90</ele>
        <time>2013-07-27T13:30:20Z</time>
      </trkpt>
      <trkpt lat="42.469521000" lon="-2.454244000">
        <ele>382.00</ele>
        <time>2013-07-27T13:30:21Z</time>
      </trkpt>
      <trkpt lat="42.469529000" lon="-2.454294000">
        <ele>382.00</ele>
        <time>2013-07-27T13:30:22Z</time>
      </trkpt>
      <trkpt lat="42.469539000" lon="-2.454346000">
        <ele>382.10</ele>
        <time>2013-07-27T13:30:23Z</time>
      </trkpt>
      <trkpt lat="42.469553000" lon="-2.454399000">
        <ele>382.20</ele>
        <time>2013-07-27T13:30:24Z</time>
      </trkpt>
      <trkpt lat="42.469567000" lon="-2.454456000">
        <ele>382.20</ele>
        <time>2013-07-27T13:30:25Z</time>
      </trkpt>
      <trkpt lat="42.469583000" lon="-2.454514000">
        <ele>382.30</ele>
        <time>2013-07-27T13:30:26Z</time>
      </trkpt>
      <trkpt lat="42.469596000" lon="-2.454575000">
        <ele>382.30</ele>
        <time>2013-07-27T13:30:27Z</time>
      </trkpt>
      <trkpt lat="42.469610000" lon="-2.454638000">
        <ele>382.30</ele>
        <time>2013-07-27T13:30:28Z</time>
      </trkpt>
      <trkpt lat="42.469626000" lon="-2.454704000">
        <ele>382.40</ele>
        <time>2013-07-27T13:30:29Z</time>
      </trkpt>
      <trkpt lat="42.469639000" lon="-2.454772000">
        <ele>382.10</ele>
        <time>2013-07-27T13:30:30Z</time>
      </trkpt>
      <trkpt lat="42.469651000" lon="-2.454843000">
        <ele>381.80</ele>
        <time>2013-07-27T13:30:31Z</time>
      </trkpt>
      <trkpt lat="42.469663000" lon="-2.454913000">
        <ele>381.70</ele>
        <time>2013-07-27T13:30:32Z</time>
      </trkpt>
      <trkpt lat="42.469675000" lon="-2.454986000">
        <ele>381.50</ele>
        <time>2013-07-27T13:30:33Z</time>
      </trkpt>
      <trkpt lat="42.469690000" lon="-2.455060000">
        <ele>381.40</ele>
        <time>2013-07-27T13:30:34Z</time>
      </trkpt>
      <trkpt lat="42.469707000" lon="-2.455131000">
        <ele>381.40</ele>
        <time>2013-07-27T13:30:35Z</time>
      </trkpt>
      <trkpt lat="42.469724000" lon="-2.455199000">
        <ele>381.30</ele>
        <time>2013-07-27T13:30:36Z</time>
      </trkpt>
      <trkpt lat="42.469747000" lon="-2.455267000">
        <ele>381.30</ele>
        <time>2013-07-27T13:30:37Z</time>
      </trkpt>
      <trkpt lat="42.469769000" lon="-2.455333000">
        <ele>381.20</ele>
        <time>2013-07-27T13:30:38Z</time>
      </trkpt>
      <trkpt lat="42.469792000" lon="-2.455401000">
        <ele>381.20</ele>
        <time>2013-07-27T13:30:39Z</time>
      </trkpt>
      <trkpt lat="42.469809000" lon="-2.455469000">
        <ele>381.20</ele>
        <time>2013-07-27T13:30:40Z</time>
      </trkpt>
      <trkpt lat="42.469824000" lon="-2.455537000">
        <ele>381.20</ele>
        <time>2013-07-27T13:30:41Z</time>
      </trkpt>
      <trkpt lat="42.469840000" lon="-2.455607000">
        <ele>380.90</ele>
        <time>2013-07-27T13:30:42Z</time>
      </trkpt>
      <trkpt lat="42.469855000" lon="-2.455676000">
        <ele>380.80</ele>
        <time>2013-07-27T13:30:43Z</time>
      </trkpt>
      <trkpt lat="42.469870000" lon="-2.455744000">
        <ele>380.60</ele>
        <time>2013-07-27T13:30:44Z</time>
      </trkpt>
      <trkpt lat="42.469884000" lon="-2.455811000">
        <ele>380.60</ele>
        <time>2013-07-27T13:30:45Z</time>
      </trkpt>
      <trkpt lat="42.469898000" lon="-2.455870000">
        <ele>380.80</ele>
        <time>2013-07-27T13:30:46Z</time>
      </trkpt>
      <trkpt lat="42.469912000" lon="-2.455931000">
        <ele>380.90</ele>
        <time>2013-07-27T13:30:47Z</time>
      </trkpt>
      <trkpt lat="42.469926000" lon="-2.455991000">
        <ele>381.00</ele>
        <time>2013-07-27T13:30:48Z</time>
      </trkpt>
      <trkpt lat="42.469938000" lon="-2.456052000">
        <ele>381.10</ele>
        <time>2013-07-27T13:30:49Z</time>
      </trkpt>
      <trkpt lat="42.469952000" lon="-2.456109000">
        <ele>381.30</ele>
        <time>2013-07-27T13:30:50Z</time>
      </trkpt>
      <trkpt lat="42.469965000" lon="-2.456165000">
        <ele>381.50</ele>
        <time>2013-07-27T13:30:51Z</time>
      </trkpt>
      <trkpt lat="42.469976000" lon="-2.456225000">
        <ele>381.50</ele>
        <time>2013-07-27T13:30:52Z</time>
      </trkpt>
      <trkpt lat="42.469988000" lon="-2.456289000">
        <ele>381.40</ele>
        <time>2013-07-27T13:30:53Z</time>
      </trkpt>
      <trkpt lat="42.470001000" lon="-2.456359000">
        <ele>381.60</ele>
        <time>2013-07-27T13:30:54Z</time>
      </trkpt>
      <trkpt lat="42.470015000" lon="-2.456427000">
        <ele>381.80</ele>
        <time>2013-07-27T13:30:55Z</time>
      </trkpt>
      <trkpt lat="42.470032000" lon="-2.456498000">
        <ele>381.90</ele>
        <time>2013-07-27T13:30:56Z</time>
      </trkpt>
      <trkpt lat="42.470055000" lon="-2.456563000">
        <ele>381.90</ele>
        <time>2013-07-27T13:30:57Z</time>
      </trkpt>
      <trkpt lat="42.470088000" lon="-2.456621000">
        <ele>382.00</ele>
        <time>2013-07-27T13:30:58Z</time>
      </trkpt>
      <trkpt lat="42.470126000" lon="-2.456674000">
        <ele>382.00</ele>
        <time>2013-07-27T13:30:59Z</time>
      </trkpt>
      <trkpt lat="42.470159000" lon="-2.456730000">
        <ele>382.10</ele>
        <time>2013-07-27T13:31:00Z</time>
      </trkpt>
      <trkpt lat="42.470191000" lon="-2.456788000">
        <ele>382.10</ele>
        <time>2013-07-27T13:31:01Z</time>
      </trkpt>
      <trkpt lat="42.470222000" lon="-2.456847000">
        <ele>381.60</ele>
        <time>2013-07-27T13:31:02Z</time>
      </trkpt>
      <trkpt lat="42.470253000" lon="-2.456908000">
        <ele>381.30</ele>
        <time>2013-07-27T13:31:03Z</time>
      </trkpt>
      <trkpt lat="42.470287000" lon="-2.456969000">
        <ele>381.00</ele>
        <time>2013-07-27T13:31:04Z</time>
      </trkpt>
      <trkpt lat="42.470316000" lon="-2.457030000">
        <ele>380.80</ele>
        <time>2013-07-27T13:31:05Z</time>
      </trkpt>
      <trkpt lat="42.470350000" lon="-2.457091000">
        <ele>380.70</ele>
        <time>2013-07-27T13:31:06Z</time>
      </trkpt>
      <trkpt lat="42.470393000" lon="-2.457145000">
        <ele>380.60</ele>
        <time>2013-07-27T13:31:07Z</time>
      </trkpt>
      <trkpt lat="42.470436000" lon="-2.457194000">
        <ele>380.50</ele>
        <time>2013-07-27T13:31:08Z</time>
      </trkpt>
      <trkpt lat="42.470476000" lon="-2.457241000">
        <ele>380.40</ele>
        <time>2013-07-27T13:31:09Z</time>
      </trkpt>
      <trkpt lat="42.470514000" lon="-2.457289000">
        <ele>380.40</ele>
        <time>2013-07-27T13:31:10Z</time>
      </trkpt>
      <trkpt lat="42.470551000" lon="-2.457336000">
        <ele>380.40</ele>
        <time>2013-07-27T13:31:11Z</time>
      </trkpt>
      <trkpt lat="42.470584000" lon="-2.457388000">
        <ele>380.10</ele>
        <time>2013-07-27T13:31:12Z</time>
      </trkpt>
      <trkpt lat="42.470616000" lon="-2.457439000">
        <ele>380.00</ele>
        <time>2013-07-27T13:31:13Z</time>
      </trkpt>
      <trkpt lat="42.470648000" lon="-2.457491000">
        <ele>379.90</ele>
        <time>2013-07-27T13:31:14Z</time>
      </trkpt>
      <trkpt lat="42.470680000" lon="-2.457545000">
        <ele>379.80</ele>
        <time>2013-07-27T13:31:15Z</time>
      </trkpt>
      <trkpt lat="42.470710000" lon="-2.457598000">
        <ele>379.70</ele>
        <time>2013-07-27T13:31:16Z</time>
      </trkpt>
      <trkpt lat="42.470741000" lon="-2.457652000">
        <ele>379.60</ele>
        <time>2013-07-27T13:31:17Z</time>
      </trkpt>
      <trkpt lat="42.470770000" lon="-2.457707000">
        <ele>379.60</ele>
        <time>2013-07-27T13:31:18Z</time>
      </trkpt>
      <trkpt lat="42.470798000" lon="-2.457765000">
        <ele>379.60</ele>
        <time>2013-07-27T13:31:19Z</time>
      </trkpt>
      <trkpt lat="42.470825000" lon="-2.457824000">
        <ele>379.60</ele>
        <time>2013-07-27T13:31:20Z</time>
      </trkpt>
      <trkpt lat="42.470853000" lon="-2.457880000">
        <ele>379.60</ele>
        <time>2013-07-27T13:31:21Z</time>
      </trkpt>
      <trkpt lat="42.470881000" lon="-2.457938000">
        <ele>379.70</ele>
        <time>2013-07-27T13:31:22Z</time>
      </trkpt>
      <trkpt lat="42.470909000" lon="-2.457996000">
        <ele>379.70</ele>
        <time>2013-07-27T13:31:23Z</time>
      </trkpt>
      <trkpt lat="42.470936000" lon="-2.458052000">
        <ele>379.80</ele>
        <time>2013-07-27T13:31:24Z</time>
      </trkpt>
      <trkpt lat="42.470961000" lon="-2.458102000">
        <ele>379.90</ele>
        <time>2013-07-27T13:31:25Z</time>
      </trkpt>
      <trkpt lat="42.470985000" lon="-2.458149000">
        <ele>379.80</ele>
        <time>2013-07-27T13:31:26Z</time>
      </trkpt>
      <trkpt lat="42.471011000" lon="-2.458194000">
        <ele>379.70</ele>
        <time>2013-07-27T13:31:27Z</time>
      </trkpt>
      <trkpt lat="42.471034000" lon="-2.458236000">
        <ele>379.90</ele>
        <time>2013-07-27T13:31:28Z</time>
      </trkpt>
      <trkpt lat="42.471052000" lon="-2.458281000">
        <ele>380.00</ele>
        <time>2013-07-27T13:31:29Z</time>
      </trkpt>
      <trkpt lat="42.471063000" lon="-2.458325000">
        <ele>380.20</ele>
        <time>2013-07-27T13:31:30Z</time>
      </trkpt>
      <trkpt lat="42.471066000" lon="-2.458370000">
        <ele>380.30</ele>
        <time>2013-07-27T13:31:31Z</time>
      </trkpt>
      <trkpt lat="42.471072000" lon="-2.458415000">
        <ele>380.40</ele>
        <time>2013-07-27T13:31:32Z</time>
      </trkpt>
      <trkpt lat="42.471072000" lon="-2.458460000">
        <ele>380.50</ele>
        <time>2013-07-27T13:31:33Z</time>
      </trkpt>
      <trkpt lat="42.471065000" lon="-2.458503000">
        <ele>380.60</ele>
        <time>2013-07-27T13:31:34Z</time>
      </trkpt>
      <trkpt lat="42.471054000" lon="-2.458542000">
        <ele>380.60</ele>
        <time>2013-07-27T13:31:35Z</time>
      </trkpt>
      <trkpt lat="42.471044000" lon="-2.458572000">
        <ele>380.70</ele>
        <time>2013-07-27T13:31:36Z</time>
      </trkpt>
      <trkpt lat="42.471035000" lon="-2.458594000">
        <ele>380.70</ele>
        <time>2013-07-27T13:31:37Z</time>
      </trkpt>
      <trkpt lat="42.471025000" lon="-2.458613000">
        <ele>380.60</ele>
        <time>2013-07-27T13:31:38Z</time>
      </trkpt>
      <trkpt lat="42.471011000" lon="-2.458628000">
        <ele>380.50</ele>
        <time>2013-07-27T13:31:39Z</time>
      </trkpt>
      <trkpt lat="42.470994000" lon="-2.458635000">
        <ele>380.60</ele>
        <time>2013-07-27T13:31:40Z</time>
      </trkpt>
      <trkpt lat="42.470975000" lon="-2.458642000">
        <ele>380.60</ele>
        <time>2013-07-27T13:31:41Z</time>
      </trkpt>
      <trkpt lat="42.470948000" lon="-2.458641000">
        <ele>380.70</ele>
        <time>2013-07-27T13:31:42Z</time>
      </trkpt>
      <trkpt lat="42.470920000" lon="-2.458629000">
        <ele>380.80</ele>
        <time>2013-07-27T13:31:43Z</time>
      </trkpt>
      <trkpt lat="42.470886000" lon="-2.458617000">
        <ele>380.90</ele>
        <time>2013-07-27T13:31:44Z</time>
      </trkpt>
      <trkpt lat="42.470853000" lon="-2.458597000">
        <ele>381.00</ele>
        <time>2013-07-27T13:31:45Z</time>
      </trkpt>
      <trkpt lat="42.470818000" lon="-2.458579000">
        <ele>381.10</ele>
        <time>2013-07-27T13:31:46Z</time>
      </trkpt>
      <trkpt lat="42.470783000" lon="-2.458559000">
        <ele>381.10</ele>
        <time>2013-07-27T13:31:47Z</time>
      </trkpt>
      <trkpt lat="42.470748000" lon="-2.458534000">
        <ele>381.40</ele>
        <time>2013-07-27T13:31:48Z</time>
      </trkpt>
      <trkpt lat="42.470717000" lon="-2.458515000">
        <ele>381.60</ele>
        <time>2013-07-27T13:31:49Z</time>
      </trkpt>
      <trkpt lat="42.470683000" lon="-2.458504000">
        <ele>382.00</ele>
        <time>2013-07-27T13:31:50Z</time>
      </trkpt>
      <trkpt lat="42.470650000" lon="-2.458493000">
        <ele>382.30</ele>
        <time>2013-07-27T13:31:51Z</time>
      </trkpt>
      <trkpt lat="42.470617000" lon="-2.458483000">
        <ele>382.50</ele>
        <time>2013-07-27T13:31:52Z</time>
      </trkpt>
      <trkpt lat="42.470586000" lon="-2.458477000">
        <ele>382.80</ele>
        <time>2013-07-27T13:31:53Z</time>
      </trkpt>
      <trkpt lat="42.470556000" lon="-2.458472000">
        <ele>382.90</ele>
        <time>2013-07-27T13:31:54Z</time>
      </trkpt>
      <trkpt lat="42.470524000" lon="-2.458467000">
        <ele>383.00</ele>
        <time>2013-07-27T13:31:55Z</time>
      </trkpt>
      <trkpt lat="42.470495000" lon="-2.458463000">
        <ele>383.10</ele>
        <time>2013-07-27T13:31:56Z</time>
      </trkpt>
      <trkpt lat="42.470462000" lon="-2.458461000">
        <ele>383.20</ele>
        <time>2013-07-27T13:31:57Z</time>
      </trkpt>
      <trkpt lat="42.470432000" lon="-2.458456000">
        <ele>383.30</ele>
        <time>2013-07-27T13:31:58Z</time>
      </trkpt>
      <trkpt lat="42.470400000" lon="-2.458454000">
        <ele>383.40</ele>
        <time>2013-07-27T13:31:59Z</time>
      </trkpt>
      <trkpt lat="42.470371000" lon="-2.458451000">
        <ele>383.50</ele>
        <time>2013-07-27T13:32:00Z</time>
      </trkpt>
      <trkpt lat="42.470345000" lon="-2.458445000">
        <ele>383.50</ele>
        <time>2013-07-27T13:32:01Z</time>
      </trkpt>
      <trkpt lat="42.470318000" lon="-2.458440000">
        <ele>383.60</ele>
        <time>2013-07-27T13:32:02Z</time>
      </trkpt>
      <trkpt lat="42.470289000" lon="-2.458437000">
        <ele>383.70</ele>
        <time>2013-07-27T13:32:03Z</time>
      </trkpt>
      <trkpt lat="42.470259000" lon="-2.458435000">
        <ele>383.70</ele>
        <time>2013-07-27T13:32:04Z</time>
      </trkpt>
      <trkpt lat="42.470225000" lon="-2.458441000">
        <ele>383.80</ele>
        <time>2013-07-27T13:32:05Z</time>
      </trkpt>
      <trkpt lat="42.470193000" lon="-2.458458000">
        <ele>384.00</ele>
        <time>2013-07-27T13:32:06Z</time>
      </trkpt>
      <trkpt lat="42.470165000" lon="-2.458486000">
        <ele>384.20</ele>
        <time>2013-07-27T13:32:07Z</time>
      </trkpt>
      <trkpt lat="42.470144000" lon="-2.458518000">
        <ele>384.40</ele>
        <time>2013-07-27T13:32:08Z</time>
      </trkpt>
      <trkpt lat="42.470131000" lon="-2.458554000">
        <ele>384.50</ele>
        <time>2013-07-27T13:32:09Z</time>
      </trkpt>
      <trkpt lat="42.470124000" lon="-2.458594000">
        <ele>384.80</ele>
        <time>2013-07-27T13:32:10Z</time>
      </trkpt>
      <trkpt lat="42.470125000" lon="-2.458636000">
        <ele>384.90</ele>
        <time>2013-07-27T13:32:11Z</time>
      </trkpt>
      <trkpt lat="42.470130000" lon="-2.458679000">
        <ele>385.10</ele>
        <time>2013-07-27T13:32:12Z</time>
      </trkpt>
      <trkpt lat="42.470139000" lon="-2.458722000">
        <ele>385.30</ele>
        <time>2013-07-27T13:32:13Z</time>
      </trkpt>
      <trkpt lat="42.470162000" lon="-2.458756000">
        <ele>385.80</ele>
        <time>2013-07-27T13:32:14Z</time>
      </trkpt>
      <trkpt lat="42.470186000" lon="-2.458793000">
        <ele>386.20</ele>
        <time>2013-07-27T13:32:15Z</time>
      </trkpt>
      <trkpt lat="42.470209000" lon="-2.458830000">
        <ele>386.40</ele>
        <time>2013-07-27T13:32:16Z</time>
      </trkpt>
      <trkpt lat="42.470232000" lon="-2.458865000">
        <ele>386.70</ele>
        <time>2013-07-27T13:32:17Z</time>
      </trkpt>
      <trkpt lat="42.470256000" lon="-2.458898000">
        <ele>386.80</ele>
        <time>2013-07-27T13:32:18Z</time>
      </trkpt>
      <trkpt lat="42.470279000" lon="-2.458932000">
        <ele>386.90</ele>
        <time>2013-07-27T13:32:19Z</time>
      </trkpt>
      <trkpt lat="42.470300000" lon="-2.458968000">
        <ele>387.30</ele>
        <time>2013-07-27T13:32:20Z</time>
      </trkpt>
      <trkpt lat="42.470321000" lon="-2.459004000">
        <ele>387.60</ele>
        <time>2013-07-27T13:32:21Z</time>
      </trkpt>
      <trkpt lat="42.470345000" lon="-2.459038000">
        <ele>387.80</ele>
        <time>2013-07-27T13:32:22Z</time>
      </trkpt>
      <trkpt lat="42.470366000" lon="-2.459074000">
        <ele>387.90</ele>
        <time>2013-07-27T13:32:23Z</time>
      </trkpt>
      <trkpt lat="42.470389000" lon="-2.459112000">
        <ele>388.10</ele>
        <time>2013-07-27T13:32:24Z</time>
      </trkpt>
      <trkpt lat="42.470411000" lon="-2.459148000">
        <ele>388.20</ele>
        <time>2013-07-27T13:32:25Z</time>
      </trkpt>
      <trkpt lat="42.470432000" lon="-2.459187000">
        <ele>388.50</ele>
        <time>2013-07-27T13:32:26Z</time>
      </trkpt>
      <trkpt lat="42.470452000" lon="-2.459224000">
        <ele>388.70</ele>
        <time>2013-07-27T13:32:27Z</time>
      </trkpt>
      <trkpt lat="42.470472000" lon="-2.459262000">
        <ele>389.00</ele>
        <time>2013-07-27T13:32:28Z</time>
      </trkpt>
      <trkpt lat="42.470491000" lon="-2.459299000">
        <ele>389.20</ele>
        <time>2013-07-27T13:32:29Z</time>
      </trkpt>
      <trkpt lat="42.470509000" lon="-2.459338000">
        <ele>389.30</ele>
        <time>2013-07-27T13:32:30Z</time>
      </trkpt>
      <trkpt lat="42.470528000" lon="-2.459376000">
        <ele>389.40</ele>
        <time>2013-07-27T13:32:31Z</time>
      </trkpt>
      <trkpt lat="42.470545000" lon="-2.459416000">
        <ele>389.50</ele>
        <time>2013-07-27T13:32:32Z</time>
      </trkpt>
      <trkpt lat="42.470564000" lon="-2.459456000">
        <ele>389.50</ele>
        <time>2013-07-27T13:32:33Z</time>
      </trkpt>
      <trkpt lat="42.470585000" lon="-2.459499000">
        <ele>389.60</ele>
        <time>2013-07-27T13:32:34Z</time>
      </trkpt>
      <trkpt lat="42.470606000" lon="-2.459538000">
        <ele>389.60</ele>
        <time>2013-07-27T13:32:35Z</time>
      </trkpt>
      <trkpt lat="42.470625000" lon="-2.459581000">
        <ele>389.70</ele>
        <time>2013-07-27T13:32:36Z</time>
      </trkpt>
      <trkpt lat="42.470645000" lon="-2.459640000">
        <ele>389.80</ele>
        <time>2013-07-27T13:32:37Z</time>
      </trkpt>
      <trkpt lat="42.470654000" lon="-2.459705000">
        <ele>389.80</ele>
        <time>2013-07-27T13:32:38Z</time>
      </trkpt>
      <trkpt lat="42.470674000" lon="-2.459763000">
        <ele>389.90</ele>
        <time>2013-07-27T13:32:39Z</time>
      </trkpt>
      <trkpt lat="42.470690000" lon="-2.459809000">
        <ele>390.00</ele>
        <time>2013-07-27T13:32:40Z</time>
      </trkpt>
      <trkpt lat="42.470700000" lon="-2.459844000">
        <ele>390.00</ele>
        <time>2013-07-27T13:32:41Z</time>
      </trkpt>
      <trkpt lat="42.470712000" lon="-2.459873000">
        <ele>390.10</ele>
        <time>2013-07-27T13:32:42Z</time>
      </trkpt>
      <trkpt lat="42.470725000" lon="-2.459903000">
        <ele>390.10</ele>
        <time>2013-07-27T13:32:43Z</time>
      </trkpt>
      <trkpt lat="42.470738000" lon="-2.459925000">
        <ele>390.10</ele>
        <time>2013-07-27T13:32:44Z</time>
      </trkpt>
      <trkpt lat="42.470749000" lon="-2.459944000">
        <ele>390.10</ele>
        <time>2013-07-27T13:32:45Z</time>
      </trkpt>
      <trkpt lat="42.470757000" lon="-2.459963000">
        <ele>390.00</ele>
        <time>2013-07-27T13:32:46Z</time>
      </trkpt>
      <trkpt lat="42.470763000" lon="-2.459979000">
        <ele>390.00</ele>
        <time>2013-07-27T13:32:47Z</time>
      </trkpt>
      <trkpt lat="42.470769000" lon="-2.459994000">
        <ele>390.10</ele>
        <time>2013-07-27T13:32:48Z</time>
      </trkpt>
      <trkpt lat="42.470775000" lon="-2.460008000">
        <ele>390.20</ele>
        <time>2013-07-27T13:32:49Z</time>
      </trkpt>
      <trkpt lat="42.470784000" lon="-2.460030000">
        <ele>390.30</ele>
        <time>2013-07-27T13:32:50Z</time>
      </trkpt>
      <trkpt lat="42.470792000" lon="-2.460057000">
        <ele>390.30</ele>
        <time>2013-07-27T13:32:51Z</time>
      </trkpt>
      <trkpt lat="42.470808000" lon="-2.460089000">
        <ele>390.40</ele>
        <time>2013-07-27T13:32:52Z</time>
      </trkpt>
      <trkpt lat="42.470824000" lon="-2.460122000">
        <ele>390.40</ele>
        <time>2013-07-27T13:32:53Z</time>
      </trkpt>
      <trkpt lat="42.470841000" lon="-2.460157000">
        <ele>390.40</ele>
        <time>2013-07-27T13:32:54Z</time>
      </trkpt>
      <trkpt lat="42.470856000" lon="-2.460200000">
        <ele>390.40</ele>
        <time>2013-07-27T13:32:55Z</time>
      </trkpt>
      <trkpt lat="42.470864000" lon="-2.460246000">
        <ele>390.50</ele>
        <time>2013-07-27T13:32:56Z</time>
      </trkpt>
      <trkpt lat="42.470866000" lon="-2.460295000">
        <ele>390.50</ele>
        <time>2013-07-27T13:32:57Z</time>
      </trkpt>
      <trkpt lat="42.470861000" lon="-2.460344000">
        <ele>390.50</ele>
        <time>2013-07-27T13:32:58Z</time>
      </trkpt>
      <trkpt lat="42.470842000" lon="-2.460397000">
        <ele>390.60</ele>
        <time>2013-07-27T13:32:59Z</time>
      </trkpt>
      <trkpt lat="42.470815000" lon="-2.460433000">
        <ele>390.70</ele>
        <time>2013-07-27T13:33:00Z</time>
      </trkpt>
      <trkpt lat="42.470782000" lon="-2.460461000">
        <ele>390.80</ele>
        <time>2013-07-27T13:33:01Z</time>
      </trkpt>
      <trkpt lat="42.470749000" lon="-2.460485000">
        <ele>390.90</ele>
        <time>2013-07-27T13:33:02Z</time>
      </trkpt>
      <trkpt lat="42.470716000" lon="-2.460510000">
        <ele>391.00</ele>
        <time>2013-07-27T13:33:03Z</time>
      </trkpt>
      <trkpt lat="42.470684000" lon="-2.460541000">
        <ele>391.00</ele>
        <time>2013-07-27T13:33:04Z</time>
      </trkpt>
      <trkpt lat="42.470647000" lon="-2.460572000">
        <ele>391.10</ele>
        <time>2013-07-27T13:33:05Z</time>
      </trkpt>
      <trkpt lat="42.470609000" lon="-2.460606000">
        <ele>391.00</ele>
        <time>2013-07-27T13:33:06Z</time>
      </trkpt>
      <trkpt lat="42.470573000" lon="-2.460642000">
        <ele>390.90</ele>
        <time>2013-07-27T13:33:07Z</time>
      </trkpt>
      <trkpt lat="42.470536000" lon="-2.460675000">
        <ele>390.90</ele>
        <time>2013-07-27T13:33:08Z</time>
      </trkpt>
      <trkpt lat="42.470499000" lon="-2.460711000">
        <ele>390.90</ele>
        <time>2013-07-27T13:33:09Z</time>
      </trkpt>
      <trkpt lat="42.470460000" lon="-2.460744000">
        <ele>390.90</ele>
        <time>2013-07-27T13:33:10Z</time>
      </trkpt>
      <trkpt lat="42.470419000" lon="-2.460776000">
        <ele>390.80</ele>
        <time>2013-07-27T13:33:11Z</time>
      </trkpt>
      <trkpt lat="42.470382000" lon="-2.460806000">
        <ele>390.80</ele>
        <time>2013-07-27T13:33:12Z</time>
      </trkpt>
      <trkpt lat="42.470341000" lon="-2.460824000">
        <ele>390.90</ele>
        <time>2013-07-27T13:33:13Z</time>
      </trkpt>
      <trkpt lat="42.470303000" lon="-2.460855000">
        <ele>390.60</ele>
        <time>2013-07-27T13:33:14Z</time>
      </trkpt>
      <trkpt lat="42.470265000" lon="-2.460888000">
        <ele>390.40</ele>
        <time>2013-07-27T13:33:15Z</time>
      </trkpt>
      <trkpt lat="42.470228000" lon="-2.460919000">
        <ele>390.50</ele>
        <time>2013-07-27T13:33:16Z</time>
      </trkpt>
      <trkpt lat="42.470190000" lon="-2.460946000">
        <ele>390.60</ele>
        <time>2013-07-27T13:33:17Z</time>
      </trkpt>
      <trkpt lat="42.470154000" lon="-2.460974000">
        <ele>390.40</ele>
        <time>2013-07-27T13:33:18Z</time>
      </trkpt>
      <trkpt lat="42.470116000" lon="-2.461003000">
        <ele>390.20</ele>
        <time>2013-07-27T13:33:19Z</time>
      </trkpt>
      <trkpt lat="42.470085000" lon="-2.461029000">
        <ele>390.40</ele>
        <time>2013-07-27T13:33:20Z</time>
      </trkpt>
      <trkpt lat="42.470057000" lon="-2.461053000">
        <ele>390.50</ele>
        <time>2013-07-27T13:33:21Z</time>
      </trkpt>
      <trkpt lat="42.470028000" lon="-2.461074000">
        <ele>390.40</ele>
        <time>2013-07-27T13:33:22Z</time>
      </trkpt>
      <trkpt lat="42.469999000" lon="-2.461093000">
        <ele>390.30</ele>
        <time>2013-07-27T13:33:23Z</time>
      </trkpt>
      <trkpt lat="42.469974000" lon="-2.461118000">
        <ele>390.40</ele>
        <time>2013-07-27T13:33:24Z</time>
      </trkpt>
      <trkpt lat="42.469955000" lon="-2.461136000">
        <ele>390.60</ele>
        <time>2013-07-27T13:33:25Z</time>
      </trkpt>
      <trkpt lat="42.469940000" lon="-2.461154000">
        <ele>390.40</ele>
        <time>2013-07-27T13:33:26Z</time>
      </trkpt>
      <trkpt lat="42.469926000" lon="-2.461168000">
        <ele>390.30</ele>
        <time>2013-07-27T13:33:27Z</time>
      </trkpt>
      <trkpt lat="42.469906000" lon="-2.461178000">
        <ele>390.40</ele>
        <time>2013-07-27T13:33:28Z</time>
      </trkpt>
      <trkpt lat="42.469881000" lon="-2.461196000">
        <ele>390.40</ele>
        <time>2013-07-27T13:33:29Z</time>
      </trkpt>
      <trkpt lat="42.469850000" lon="-2.461220000">
        <ele>390.40</ele>
        <time>2013-07-27T13:33:30Z</time>
      </trkpt>
      <trkpt lat="42.469815000" lon="-2.461253000">
        <ele>390.40</ele>
        <time>2013-07-27T13:33:31Z</time>
      </trkpt>
      <trkpt lat="42.469769000" lon="-2.461285000">
        <ele>390.50</ele>
        <time>2013-07-27T13:33:32Z</time>
      </trkpt>
      <trkpt lat="42.469727000" lon="-2.461322000">
        <ele>390.50</ele>
        <time>2013-07-27T13:33:33Z</time>
      </trkpt>
      <trkpt lat="42.469684000" lon="-2.461354000">
        <ele>390.40</ele>
        <time>2013-07-27T13:33:34Z</time>
      </trkpt>
      <trkpt lat="42.469640000" lon="-2.461381000">
        <ele>390.30</ele>
        <time>2013-07-27T13:33:35Z</time>
      </trkpt>
      <trkpt lat="42.469599000" lon="-2.461408000">
        <ele>390.30</ele>
        <time>2013-07-27T13:33:36Z</time>
      </trkpt>
      <trkpt lat="42.469561000" lon="-2.461441000">
        <ele>390.20</ele>
        <time>2013-07-27T13:33:37Z</time>
      </trkpt>
      <trkpt lat="42.469525000" lon="-2.461471000">
        <ele>390.20</ele>
        <time>2013-07-27T13:33:38Z</time>
      </trkpt>
      <trkpt lat="42.469488000" lon="-2.461504000">
        <ele>390.20</ele>
        <time>2013-07-27T13:33:39Z</time>
      </trkpt>
      <trkpt lat="42.469451000" lon="-2.461538000">
        <ele>390.30</ele>
        <time>2013-07-27T13:33:40Z</time>
      </trkpt>
      <trkpt lat="42.469414000" lon="-2.461568000">
        <ele>390.40</ele>
        <time>2013-07-27T13:33:41Z</time>
      </trkpt>
      <trkpt lat="42.469377000" lon="-2.461601000">
        <ele>390.50</ele>
        <time>2013-07-27T13:33:42Z</time>
      </trkpt>
      <trkpt lat="42.469340000" lon="-2.461630000">
        <ele>390.50</ele>
        <time>2013-07-27T13:33:43Z</time>
      </trkpt>
      <trkpt lat="42.469305000" lon="-2.461661000">
        <ele>390.60</ele>
        <time>2013-07-27T13:33:44Z</time>
      </trkpt>
      <trkpt lat="42.469267000" lon="-2.461688000">
        <ele>390.60</ele>
        <time>2013-07-27T13:33:45Z</time>
      </trkpt>
      <trkpt lat="42.469229000" lon="-2.461720000">
        <ele>390.60</ele>
        <time>2013-07-27T13:33:46Z</time>
      </trkpt>
      <trkpt lat="42.469192000" lon="-2.461751000">
        <ele>390.60</ele>
        <time>2013-07-27T13:33:47Z</time>
      </trkpt>
      <trkpt lat="42.469154000" lon="-2.461780000">
        <ele>390.70</ele>
        <time>2013-07-27T13:33:48Z</time>
      </trkpt>
      <trkpt lat="42.469118000" lon="-2.461810000">
        <ele>390.80</ele>
        <time>2013-07-27T13:33:49Z</time>
      </trkpt>
      <trkpt lat="42.469082000" lon="-2.461838000">
        <ele>390.60</ele>
        <time>2013-07-27T13:33:50Z</time>
      </trkpt>
      <trkpt lat="42.469046000" lon="-2.461866000">
        <ele>390.50</ele>
        <time>2013-07-27T13:33:51Z</time>
      </trkpt>
      <trkpt lat="42.469010000" lon="-2.461895000">
        <ele>390.50</ele>
        <time>2013-07-27T13:33:52Z</time>
      </trkpt>
      <trkpt lat="42.468973000" lon="-2.461922000">
        <ele>390.60</ele>
        <time>2013-07-27T13:33:53Z</time>
      </trkpt>
      <trkpt lat="42.468936000" lon="-2.461948000">
        <ele>390.60</ele>
        <time>2013-07-27T13:33:54Z</time>
      </trkpt>
      <trkpt lat="42.468900000" lon="-2.461975000">
        <ele>390.60</ele>
        <time>2013-07-27T13:33:55Z</time>
      </trkpt>
      <trkpt lat="42.468864000" lon="-2.462000000">
        <ele>390.60</ele>
        <time>2013-07-27T13:33:56Z</time>
      </trkpt>
      <trkpt lat="42.468828000" lon="-2.462017000">
        <ele>390.60</ele>
        <time>2013-07-27T13:33:57Z</time>
      </trkpt>
      <trkpt lat="42.468790000" lon="-2.462032000">
        <ele>390.80</ele>
        <time>2013-07-27T13:33:58Z</time>
      </trkpt>
      <trkpt lat="42.468750000" lon="-2.462040000">
        <ele>390.90</ele>
        <time>2013-07-27T13:33:59Z</time>
      </trkpt>
      <trkpt lat="42.468709000" lon="-2.462044000">
        <ele>390.90</ele>
        <time>2013-07-27T13:34:00Z</time>
      </trkpt>
      <trkpt lat="42.468668000" lon="-2.462046000">
        <ele>390.90</ele>
        <time>2013-07-27T13:34:01Z</time>
      </trkpt>
      <trkpt lat="42.468631000" lon="-2.462054000">
        <ele>390.90</ele>
        <time>2013-07-27T13:34:02Z</time>
      </trkpt>
      <trkpt lat="42.468593000" lon="-2.462063000">
        <ele>390.90</ele>
        <time>2013-07-27T13:34:03Z</time>
      </trkpt>
      <trkpt lat="42.468548000" lon="-2.462073000">
        <ele>390.90</ele>
        <time>2013-07-27T13:34:04Z</time>
      </trkpt>
      <trkpt lat="42.468503000" lon="-2.462083000">
        <ele>390.90</ele>
        <time>2013-07-27T13:34:05Z</time>
      </trkpt>
      <trkpt lat="42.468460000" lon="-2.462089000">
        <ele>391.00</ele>
        <time>2013-07-27T13:34:06Z</time>
      </trkpt>
      <trkpt lat="42.468420000" lon="-2.462095000">
        <ele>391.00</ele>
        <time>2013-07-27T13:34:07Z</time>
      </trkpt>
      <trkpt lat="42.468382000" lon="-2.462099000">
        <ele>391.10</ele>
        <time>2013-07-27T13:34:08Z</time>
      </trkpt>
      <trkpt lat="42.468347000" lon="-2.462106000">
        <ele>391.20</ele>
        <time>2013-07-27T13:34:09Z</time>
      </trkpt>
      <trkpt lat="42.468313000" lon="-2.462116000">
        <ele>391.30</ele>
        <time>2013-07-27T13:34:10Z</time>
      </trkpt>
      <trkpt lat="42.468279000" lon="-2.462124000">
        <ele>391.30</ele>
        <time>2013-07-27T13:34:11Z</time>
      </trkpt>
      <trkpt lat="42.468247000" lon="-2.462129000">
        <ele>391.30</ele>
        <time>2013-07-27T13:34:12Z</time>
      </trkpt>
      <trkpt lat="42.468210000" lon="-2.462134000">
        <ele>391.20</ele>
        <time>2013-07-27T13:34:13Z</time>
      </trkpt>
      <trkpt lat="42.468172000" lon="-2.462139000">
        <ele>391.20</ele>
        <time>2013-07-27T13:34:14Z</time>
      </trkpt>
      <trkpt lat="42.468132000" lon="-2.462139000">
        <ele>391.20</ele>
        <time>2013-07-27T13:34:15Z</time>
      </trkpt>
      <trkpt lat="42.468090000" lon="-2.462139000">
        <ele>391.30</ele>
        <time>2013-07-27T13:34:16Z</time>
      </trkpt>
      <trkpt lat="42.468049000" lon="-2.462140000">
        <ele>391.40</ele>
        <time>2013-07-27T13:34:17Z</time>
      </trkpt>
      <trkpt lat="42.468007000" lon="-2.462144000">
        <ele>391.40</ele>
        <time>2013-07-27T13:34:18Z</time>
      </trkpt>
      <trkpt lat="42.467966000" lon="-2.462148000">
        <ele>391.50</ele>
        <time>2013-07-27T13:34:19Z</time>
      </trkpt>
      <trkpt lat="42.467924000" lon="-2.462153000">
        <ele>391.60</ele>
        <time>2013-07-27T13:34:20Z</time>
      </trkpt>
      <trkpt lat="42.467884000" lon="-2.462160000">
        <ele>391.70</ele>
        <time>2013-07-27T13:34:21Z</time>
      </trkpt>
      <trkpt lat="42.467845000" lon="-2.462168000">
        <ele>391.80</ele>
        <time>2013-07-27T13:34:22Z</time>
      </trkpt>
      <trkpt lat="42.467806000" lon="-2.462178000">
        <ele>391.90</ele>
        <time>2013-07-27T13:34:23Z</time>
      </trkpt>
      <trkpt lat="42.467770000" lon="-2.462186000">
        <ele>392.00</ele>
        <time>2013-07-27T13:34:24Z</time>
      </trkpt>
      <trkpt lat="42.467733000" lon="-2.462189000">
        <ele>392.10</ele>
        <time>2013-07-27T13:34:25Z</time>
      </trkpt>
      <trkpt lat="42.467698000" lon="-2.462196000">
        <ele>392.20</ele>
        <time>2013-07-27T13:34:26Z</time>
      </trkpt>
      <trkpt lat="42.467664000" lon="-2.462202000">
        <ele>392.40</ele>
        <time>2013-07-27T13:34:27Z</time>
      </trkpt>
      <trkpt lat="42.467630000" lon="-2.462206000">
        <ele>392.40</ele>
        <time>2013-07-27T13:34:28Z</time>
      </trkpt>
      <trkpt lat="42.467597000" lon="-2.462210000">
        <ele>392.40</ele>
        <time>2013-07-27T13:34:29Z</time>
      </trkpt>
      <trkpt lat="42.467568000" lon="-2.462215000">
        <ele>392.50</ele>
        <time>2013-07-27T13:34:30Z</time>
      </trkpt>
      <trkpt lat="42.467536000" lon="-2.462216000">
        <ele>392.60</ele>
        <time>2013-07-27T13:34:31Z</time>
      </trkpt>
      <trkpt lat="42.467507000" lon="-2.462225000">
        <ele>392.70</ele>
        <time>2013-07-27T13:34:32Z</time>
      </trkpt>
      <trkpt lat="42.467480000" lon="-2.462247000">
        <ele>392.80</ele>
        <time>2013-07-27T13:34:33Z</time>
      </trkpt>
      <trkpt lat="42.467459000" lon="-2.462280000">
        <ele>393.00</ele>
        <time>2013-07-27T13:34:34Z</time>
      </trkpt>
      <trkpt lat="42.467440000" lon="-2.462312000">
        <ele>393.10</ele>
        <time>2013-07-27T13:34:35Z</time>
      </trkpt>
      <trkpt lat="42.467416000" lon="-2.462341000">
        <ele>393.30</ele>
        <time>2013-07-27T13:34:36Z</time>
      </trkpt>
      <trkpt lat="42.467388000" lon="-2.462364000">
        <ele>393.40</ele>
        <time>2013-07-27T13:34:37Z</time>
      </trkpt>
      <trkpt lat="42.467355000" lon="-2.462378000">
        <ele>393.40</ele>
        <time>2013-07-27T13:34:38Z</time>
      </trkpt>
      <trkpt lat="42.467322000" lon="-2.462384000">
        <ele>393.50</ele>
        <time>2013-07-27T13:34:39Z</time>
      </trkpt>
      <trkpt lat="42.467287000" lon="-2.462388000">
        <ele>393.50</ele>
        <time>2013-07-27T13:34:40Z</time>
      </trkpt>
      <trkpt lat="42.467250000" lon="-2.462378000">
        <ele>393.60</ele>
        <time>2013-07-27T13:34:41Z</time>
      </trkpt>
      <trkpt lat="42.467213000" lon="-2.462363000">
        <ele>393.70</ele>
        <time>2013-07-27T13:34:42Z</time>
      </trkpt>
      <trkpt lat="42.467175000" lon="-2.462343000">
        <ele>393.70</ele>
        <time>2013-07-27T13:34:43Z</time>
      </trkpt>
      <trkpt lat="42.467134000" lon="-2.462332000">
        <ele>393.70</ele>
        <time>2013-07-27T13:34:44Z</time>
      </trkpt>
      <trkpt lat="42.467095000" lon="-2.462323000">
        <ele>393.70</ele>
        <time>2013-07-27T13:34:45Z</time>
      </trkpt>
      <trkpt lat="42.467053000" lon="-2.462325000">
        <ele>393.70</ele>
        <time>2013-07-27T13:34:46Z</time>
      </trkpt>
      <trkpt lat="42.467010000" lon="-2.462335000">
        <ele>393.80</ele>
        <time>2013-07-27T13:34:47Z</time>
      </trkpt>
      <trkpt lat="42.466967000" lon="-2.462350000">
        <ele>393.80</ele>
        <time>2013-07-27T13:34:48Z</time>
      </trkpt>
      <trkpt lat="42.466926000" lon="-2.462368000">
        <ele>393.80</ele>
        <time>2013-07-27T13:34:49Z</time>
      </trkpt>
      <trkpt lat="42.466885000" lon="-2.462386000">
        <ele>393.60</ele>
        <time>2013-07-27T13:34:50Z</time>
      </trkpt>
      <trkpt lat="42.466849000" lon="-2.462412000">
        <ele>393.50</ele>
        <time>2013-07-27T13:34:51Z</time>
      </trkpt>
      <trkpt lat="42.466815000" lon="-2.462439000">
        <ele>393.30</ele>
        <time>2013-07-27T13:34:52Z</time>
      </trkpt>
      <trkpt lat="42.466777000" lon="-2.462461000">
        <ele>393.10</ele>
        <time>2013-07-27T13:34:53Z</time>
      </trkpt>
      <trkpt lat="42.466738000" lon="-2.462481000">
        <ele>393.00</ele>
        <time>2013-07-27T13:34:54Z</time>
      </trkpt>
      <trkpt lat="42.466698000" lon="-2.462502000">
        <ele>392.90</ele>
        <time>2013-07-27T13:34:55Z</time>
      </trkpt>
      <trkpt lat="42.466659000" lon="-2.462523000">
        <ele>392.90</ele>
        <time>2013-07-27T13:34:56Z</time>
      </trkpt>
      <trkpt lat="42.466617000" lon="-2.462542000">
        <ele>392.80</ele>
        <time>2013-07-27T13:34:57Z</time>
      </trkpt>
      <trkpt lat="42.466574000" lon="-2.462560000">
        <ele>392.80</ele>
        <time>2013-07-27T13:34:58Z</time>
      </trkpt>
      <trkpt lat="42.466536000" lon="-2.462581000">
        <ele>392.90</ele>
        <time>2013-07-27T13:34:59Z</time>
      </trkpt>
      <trkpt lat="42.466498000" lon="-2.462598000">
        <ele>392.90</ele>
        <time>2013-07-27T13:35:00Z</time>
      </trkpt>
      <trkpt lat="42.466458000" lon="-2.462620000">
        <ele>393.00</ele>
        <time>2013-07-27T13:35:01Z</time>
      </trkpt>
      <trkpt lat="42.466416000" lon="-2.462635000">
        <ele>393.00</ele>
        <time>2013-07-27T13:35:02Z</time>
      </trkpt>
      <trkpt lat="42.466377000" lon="-2.462648000">
        <ele>393.10</ele>
        <time>2013-07-27T13:35:03Z</time>
      </trkpt>
      <trkpt lat="42.466338000" lon="-2.462659000">
        <ele>393.20</ele>
        <time>2013-07-27T13:35:04Z</time>
      </trkpt>
      <trkpt lat="42.466300000" lon="-2.462676000">
        <ele>393.20</ele>
        <time>2013-07-27T13:35:05Z</time>
      </trkpt>
      <trkpt lat="42.466258000" lon="-2.462685000">
        <ele>393.60</ele>
        <time>2013-07-27T13:35:06Z</time>
      </trkpt>
      <trkpt lat="42.466218000" lon="-2.462690000">
        <ele>393.80</ele>
        <time>2013-07-27T13:35:07Z</time>
      </trkpt>
      <trkpt lat="42.466179000" lon="-2.462697000">
        <ele>394.10</ele>
        <time>2013-07-27T13:35:08Z</time>
      </trkpt>
      <trkpt lat="42.466140000" lon="-2.462703000">
        <ele>394.30</ele>
        <time>2013-07-27T13:35:09Z</time>
      </trkpt>
      <trkpt lat="42.466101000" lon="-2.462708000">
        <ele>394.30</ele>
        <time>2013-07-27T13:35:10Z</time>
      </trkpt>
      <trkpt lat="42.466064000" lon="-2.462717000">
        <ele>394.40</ele>
        <time>2013-07-27T13:35:11Z</time>
      </trkpt>
      <trkpt lat="42.466026000" lon="-2.462722000">
        <ele>394.50</ele>
        <time>2013-07-27T13:35:12Z</time>
      </trkpt>
      <trkpt lat="42.465987000" lon="-2.462732000">
        <ele>394.60</ele>
        <time>2013-07-27T13:35:13Z</time>
      </trkpt>
      <trkpt lat="42.465949000" lon="-2.462747000">
        <ele>394.50</ele>
        <time>2013-07-27T13:35:14Z</time>
      </trkpt>
      <trkpt lat="42.465910000" lon="-2.462757000">
        <ele>394.50</ele>
        <time>2013-07-27T13:35:15Z</time>
      </trkpt>
      <trkpt lat="42.465869000" lon="-2.462768000">
        <ele>394.60</ele>
        <time>2013-07-27T13:35:16Z</time>
      </trkpt>
      <trkpt lat="42.465830000" lon="-2.462781000">
        <ele>394.60</ele>
        <time>2013-07-27T13:35:17Z</time>
      </trkpt>
      <trkpt lat="42.465790000" lon="-2.462793000">
        <ele>394.50</ele>
        <time>2013-07-27T13:35:18Z</time>
      </trkpt>
      <trkpt lat="42.465749000" lon="-2.462805000">
        <ele>394.40</ele>
        <time>2013-07-27T13:35:19Z</time>
      </trkpt>
      <trkpt lat="42.465707000" lon="-2.462814000">
        <ele>394.50</ele>
        <time>2013-07-27T13:35:20Z</time>
      </trkpt>
      <trkpt lat="42.465666000" lon="-2.462822000">
        <ele>394.60</ele>
        <time>2013-07-27T13:35:21Z</time>
      </trkpt>
      <trkpt lat="42.465626000" lon="-2.462831000">
        <ele>394.60</ele>
        <time>2013-07-27T13:35:22Z</time>
      </trkpt>
      <trkpt lat="42.465587000" lon="-2.462838000">
        <ele>394.70</ele>
        <time>2013-07-27T13:35:23Z</time>
      </trkpt>
      <trkpt lat="42.465547000" lon="-2.462843000">
        <ele>394.90</ele>
        <time>2013-07-27T13:35:24Z</time>
      </trkpt>
      <trkpt lat="42.465506000" lon="-2.462850000">
        <ele>395.00</ele>
        <time>2013-07-27T13:35:25Z</time>
      </trkpt>
      <trkpt lat="42.465467000" lon="-2.462858000">
        <ele>395.00</ele>
        <time>2013-07-27T13:35:26Z</time>
      </trkpt>
      <trkpt lat="42.465432000" lon="-2.462867000">
        <ele>394.90</ele>
        <time>2013-07-27T13:35:27Z</time>
      </trkpt>
      <trkpt lat="42.465394000" lon="-2.462876000">
        <ele>394.90</ele>
        <time>2013-07-27T13:35:28Z</time>
      </trkpt>
      <trkpt lat="42.465358000" lon="-2.462883000">
        <ele>395.00</ele>
        <time>2013-07-27T13:35:29Z</time>
      </trkpt>
      <trkpt lat="42.465321000" lon="-2.462889000">
        <ele>394.90</ele>
        <time>2013-07-27T13:35:30Z</time>
      </trkpt>
      <trkpt lat="42.465282000" lon="-2.462896000">
        <ele>394.90</ele>
        <time>2013-07-27T13:35:31Z</time>
      </trkpt>
      <trkpt lat="42.465242000" lon="-2.462901000">
        <ele>394.90</ele>
        <time>2013-07-27T13:35:32Z</time>
      </trkpt>
      <trkpt lat="42.465201000" lon="-2.462906000">
        <ele>394.90</ele>
        <time>2013-07-27T13:35:33Z</time>
      </trkpt>
      <trkpt lat="42.465160000" lon="-2.462914000">
        <ele>395.00</ele>
        <time>2013-07-27T13:35:34Z</time>
      </trkpt>
      <trkpt lat="42.465113000" lon="-2.462925000">
        <ele>395.10</ele>
        <time>2013-07-27T13:35:35Z</time>
      </trkpt>
      <trkpt lat="42.465069000" lon="-2.462934000">
        <ele>395.10</ele>
        <time>2013-07-27T13:35:36Z</time>
      </trkpt>
      <trkpt lat="42.465026000" lon="-2.462943000">
        <ele>395.20</ele>
        <time>2013-07-27T13:35:37Z</time>
      </trkpt>
      <trkpt lat="42.464983000" lon="-2.462948000">
        <ele>395.50</ele>
        <time>2013-07-27T13:35:38Z</time>
      </trkpt>
      <trkpt lat="42.464939000" lon="-2.462950000">
        <ele>395.80</ele>
        <time>2013-07-27T13:35:39Z</time>
      </trkpt>
      <trkpt lat="42.464894000" lon="-2.462952000">
        <ele>395.80</ele>
        <time>2013-07-27T13:35:40Z</time>
      </trkpt>
      <trkpt lat="42.464845000" lon="-2.462942000">
        <ele>395.90</ele>
        <time>2013-07-27T13:35:41Z</time>
      </trkpt>
      <trkpt lat="42.464802000" lon="-2.462935000">
        <ele>396.00</ele>
        <time>2013-07-27T13:35:42Z</time>
      </trkpt>
      <trkpt lat="42.464757000" lon="-2.462921000">
        <ele>396.10</ele>
        <time>2013-07-27T13:35:43Z</time>
      </trkpt>
      <trkpt lat="42.464712000" lon="-2.462902000">
        <ele>396.10</ele>
        <time>2013-07-27T13:35:44Z</time>
      </trkpt>
      <trkpt lat="42.464668000" lon="-2.462880000">
        <ele>396.10</ele>
        <time>2013-07-27T13:35:45Z</time>
      </trkpt>
      <trkpt lat="42.464623000" lon="-2.462864000">
        <ele>396.00</ele>
        <time>2013-07-27T13:35:46Z</time>
      </trkpt>
      <trkpt lat="42.464581000" lon="-2.462849000">
        <ele>395.90</ele>
        <time>2013-07-27T13:35:47Z</time>
      </trkpt>
      <trkpt lat="42.464542000" lon="-2.462833000">
        <ele>395.90</ele>
        <time>2013-07-27T13:35:48Z</time>
      </trkpt>
      <trkpt lat="42.464503000" lon="-2.462813000">
        <ele>395.90</ele>
        <time>2013-07-27T13:35:49Z</time>
      </trkpt>
      <trkpt lat="42.464465000" lon="-2.462788000">
        <ele>395.90</ele>
        <time>2013-07-27T13:35:50Z</time>
      </trkpt>
      <trkpt lat="42.464427000" lon="-2.462761000">
        <ele>395.80</ele>
        <time>2013-07-27T13:35:51Z</time>
      </trkpt>
      <trkpt lat="42.464389000" lon="-2.462736000">
        <ele>395.80</ele>
        <time>2013-07-27T13:35:52Z</time>
      </trkpt>
      <trkpt lat="42.464347000" lon="-2.462709000">
        <ele>395.70</ele>
        <time>2013-07-27T13:35:53Z</time>
      </trkpt>
      <trkpt lat="42.464306000" lon="-2.462701000">
        <ele>395.70</ele>
        <time>2013-07-27T13:35:54Z</time>
      </trkpt>
      <trkpt lat="42.464268000" lon="-2.462684000">
        <ele>395.60</ele>
        <time>2013-07-27T13:35:55Z</time>
      </trkpt>
      <trkpt lat="42.464230000" lon="-2.462665000">
        <ele>395.60</ele>
        <time>2013-07-27T13:35:56Z</time>
      </trkpt>
      <trkpt lat="42.464195000" lon="-2.462649000">
        <ele>395.60</ele>
        <time>2013-07-27T13:35:57Z</time>
      </trkpt>
      <trkpt lat="42.464162000" lon="-2.462623000">
        <ele>395.60</ele>
        <time>2013-07-27T13:35:58Z</time>
      </trkpt>
      <trkpt lat="42.464126000" lon="-2.462590000">
        <ele>395.70</ele>
        <time>2013-07-27T13:35:59Z</time>
      </trkpt>
      <trkpt lat="42.464089000" lon="-2.462563000">
        <ele>395.80</ele>
        <time>2013-07-27T13:36:00Z</time>
      </trkpt>
      <trkpt lat="42.464040000" lon="-2.462546000">
        <ele>395.80</ele>
        <time>2013-07-27T13:36:01Z</time>
      </trkpt>
      <trkpt lat="42.464002000" lon="-2.462525000">
        <ele>395.80</ele>
        <time>2013-07-27T13:36:02Z</time>
      </trkpt>
      <trkpt lat="42.463968000" lon="-2.462498000">
        <ele>395.80</ele>
        <time>2013-07-27T13:36:03Z</time>
      </trkpt>
      <trkpt lat="42.463930000" lon="-2.462471000">
        <ele>395.90</ele>
        <time>2013-07-27T13:36:04Z</time>
      </trkpt>
      <trkpt lat="42.463894000" lon="-2.462460000">
        <ele>395.90</ele>
        <time>2013-07-27T13:36:05Z</time>
      </trkpt>
      <trkpt lat="42.463858000" lon="-2.462436000">
        <ele>396.00</ele>
        <time>2013-07-27T13:36:06Z</time>
      </trkpt>
      <trkpt lat="42.463821000" lon="-2.462418000">
        <ele>396.10</ele>
        <time>2013-07-27T13:36:07Z</time>
      </trkpt>
      <trkpt lat="42.463787000" lon="-2.462407000">
        <ele>396.30</ele>
        <time>2013-07-27T13:36:08Z</time>
      </trkpt>
      <trkpt lat="42.463752000" lon="-2.462390000">
        <ele>396.50</ele>
        <time>2013-07-27T13:36:09Z</time>
      </trkpt>
      <trkpt lat="42.463721000" lon="-2.462375000">
        <ele>396.70</ele>
        <time>2013-07-27T13:36:10Z</time>
      </trkpt>
      <trkpt lat="42.463691000" lon="-2.462368000">
        <ele>396.80</ele>
        <time>2013-07-27T13:36:11Z</time>
      </trkpt>
      <trkpt lat="42.463669000" lon="-2.462357000">
        <ele>396.90</ele>
        <time>2013-07-27T13:36:12Z</time>
      </trkpt>
      <trkpt lat="42.463640000" lon="-2.462347000">
        <ele>397.00</ele>
        <time>2013-07-27T13:36:13Z</time>
      </trkpt>
      <trkpt lat="42.463602000" lon="-2.462347000">
        <ele>397.00</ele>
        <time>2013-07-27T13:36:14Z</time>
      </trkpt>
      <trkpt lat="42.463566000" lon="-2.462356000">
        <ele>397.10</ele>
        <time>2013-07-27T13:36:15Z</time>
      </trkpt>
      <trkpt lat="42.463533000" lon="-2.462378000">
        <ele>397.10</ele>
        <time>2013-07-27T13:36:16Z</time>
      </trkpt>
      <trkpt lat="42.463508000" lon="-2.462395000">
        <ele>397.10</ele>
        <time>2013-07-27T13:36:17Z</time>
      </trkpt>
      <trkpt lat="42.463485000" lon="-2.462417000">
        <ele>397.10</ele>
        <time>2013-07-27T13:36:18Z</time>
      </trkpt>
      <trkpt lat="42.463465000" lon="-2.462439000">
        <ele>397.10</ele>
        <time>2013-07-27T13:36:19Z</time>
      </trkpt>
      <trkpt lat="42.463448000" lon="-2.462474000">
        <ele>397.40</ele>
        <time>2013-07-27T13:36:20Z</time>
      </trkpt>
      <trkpt lat="42.463435000" lon="-2.462511000">
        <ele>397.70</ele>
        <time>2013-07-27T13:36:21Z</time>
      </trkpt>
      <trkpt lat="42.463421000" lon="-2.462549000">
        <ele>397.80</ele>
        <time>2013-07-27T13:36:22Z</time>
      </trkpt>
      <trkpt lat="42.463409000" lon="-2.462590000">
        <ele>398.00</ele>
        <time>2013-07-27T13:36:23Z</time>
      </trkpt>
      <trkpt lat="42.463396000" lon="-2.462631000">
        <ele>398.00</ele>
        <time>2013-07-27T13:36:24Z</time>
      </trkpt>
      <trkpt lat="42.463388000" lon="-2.462664000">
        <ele>397.90</ele>
        <time>2013-07-27T13:36:25Z</time>
      </trkpt>
      <trkpt lat="42.463380000" lon="-2.462699000">
        <ele>397.90</ele>
        <time>2013-07-27T13:36:26Z</time>
      </trkpt>
      <trkpt lat="42.463372000" lon="-2.462736000">
        <ele>397.90</ele>
        <time>2013-07-27T13:36:27Z</time>
      </trkpt>
      <trkpt lat="42.463362000" lon="-2.462768000">
        <ele>398.20</ele>
        <time>2013-07-27T13:36:28Z</time>
      </trkpt>
      <trkpt lat="42.463352000" lon="-2.462808000">
        <ele>398.30</ele>
        <time>2013-07-27T13:36:29Z</time>
      </trkpt>
      <trkpt lat="42.463341000" lon="-2.462849000">
        <ele>398.60</ele>
        <time>2013-07-27T13:36:30Z</time>
      </trkpt>
      <trkpt lat="42.463331000" lon="-2.462892000">
        <ele>398.80</ele>
        <time>2013-07-27T13:36:31Z</time>
      </trkpt>
      <trkpt lat="42.463316000" lon="-2.462936000">
        <ele>399.00</ele>
        <time>2013-07-27T13:36:32Z</time>
      </trkpt>
      <trkpt lat="42.463306000" lon="-2.462981000">
        <ele>399.20</ele>
        <time>2013-07-27T13:36:33Z</time>
      </trkpt>
      <trkpt lat="42.463294000" lon="-2.463024000">
        <ele>399.50</ele>
        <time>2013-07-27T13:36:34Z</time>
      </trkpt>
      <trkpt lat="42.463282000" lon="-2.463069000">
        <ele>399.60</ele>
        <time>2013-07-27T13:36:35Z</time>
      </trkpt>
      <trkpt lat="42.463270000" lon="-2.463118000">
        <ele>399.80</ele>
        <time>2013-07-27T13:36:36Z</time>
      </trkpt>
      <trkpt lat="42.463262000" lon="-2.463170000">
        <ele>399.90</ele>
        <time>2013-07-27T13:36:37Z</time>
      </trkpt>
      <trkpt lat="42.463251000" lon="-2.463221000">
        <ele>400.00</ele>
        <time>2013-07-27T13:36:38Z</time>
      </trkpt>
      <trkpt lat="42.463240000" lon="-2.463272000">
        <ele>400.20</ele>
        <time>2013-07-27T13:36:39Z</time>
      </trkpt>
      <trkpt lat="42.463220000" lon="-2.463323000">
        <ele>400.20</ele>
        <time>2013-07-27T13:36:40Z</time>
      </trkpt>
      <trkpt lat="42.463201000" lon="-2.463382000">
        <ele>400.30</ele>
        <time>2013-07-27T13:36:41Z</time>
      </trkpt>
      <trkpt lat="42.463180000" lon="-2.463431000">
        <ele>400.30</ele>
        <time>2013-07-27T13:36:42Z</time>
      </trkpt>
      <trkpt lat="42.463163000" lon="-2.463482000">
        <ele>400.40</ele>
        <time>2013-07-27T13:36:43Z</time>
      </trkpt>
      <trkpt lat="42.463149000" lon="-2.463533000">
        <ele>400.50</ele>
        <time>2013-07-27T13:36:44Z</time>
      </trkpt>
      <trkpt lat="42.463137000" lon="-2.463583000">
        <ele>400.60</ele>
        <time>2013-07-27T13:36:45Z</time>
      </trkpt>
      <trkpt lat="42.463125000" lon="-2.463635000">
        <ele>400.80</ele>
        <time>2013-07-27T13:36:46Z</time>
      </trkpt>
      <trkpt lat="42.463117000" lon="-2.463687000">
        <ele>400.90</ele>
        <time>2013-07-27T13:36:47Z</time>
      </trkpt>
      <trkpt lat="42.463107000" lon="-2.463735000">
        <ele>401.10</ele>
        <time>2013-07-27T13:36:48Z</time>
      </trkpt>
      <trkpt lat="42.463100000" lon="-2.463781000">
        <ele>401.20</ele>
        <time>2013-07-27T13:36:49Z</time>
      </trkpt>
      <trkpt lat="42.463087000" lon="-2.463821000">
        <ele>401.30</ele>
        <time>2013-07-27T13:36:50Z</time>
      </trkpt>
      <trkpt lat="42.463068000" lon="-2.463867000">
        <ele>401.30</ele>
        <time>2013-07-27T13:36:51Z</time>
      </trkpt>
      <trkpt lat="42.463042000" lon="-2.463922000">
        <ele>401.40</ele>
        <time>2013-07-27T13:36:52Z</time>
      </trkpt>
      <trkpt lat="42.463017000" lon="-2.463982000">
        <ele>401.40</ele>
        <time>2013-07-27T13:36:53Z</time>
      </trkpt>
      <trkpt lat="42.462998000" lon="-2.464041000">
        <ele>401.40</ele>
        <time>2013-07-27T13:36:54Z</time>
      </trkpt>
      <trkpt lat="42.462979000" lon="-2.464101000">
        <ele>401.50</ele>
        <time>2013-07-27T13:36:55Z</time>
      </trkpt>
      <trkpt lat="42.462965000" lon="-2.464154000">
        <ele>401.50</ele>
        <time>2013-07-27T13:36:56Z</time>
      </trkpt>
      <trkpt lat="42.462954000" lon="-2.464184000">
        <ele>401.50</ele>
        <time>2013-07-27T13:36:57Z</time>
      </trkpt>
      <trkpt lat="42.462948000" lon="-2.464193000">
        <ele>401.50</ele>
        <time>2013-07-27T13:36:58Z</time>
      </trkpt>
      <trkpt lat="42.462946000" lon="-2.464192000">
        <ele>401.50</ele>
        <time>2013-07-27T13:36:59Z</time>
      </trkpt>
      <trkpt lat="42.462943000" lon="-2.464190000">
        <ele>401.40</ele>
        <time>2013-07-27T13:37:00Z</time>
      </trkpt>
      <trkpt lat="42.462931000" lon="-2.464190000">
        <ele>401.40</ele>
        <time>2013-07-27T13:37:01Z</time>
      </trkpt>
      <trkpt lat="42.462916000" lon="-2.464188000">
        <ele>401.40</ele>
        <time>2013-07-27T13:37:02Z</time>
      </trkpt>
      <trkpt lat="42.462906000" lon="-2.464181000">
        <ele>401.40</ele>
        <time>2013-07-27T13:37:03Z</time>
      </trkpt>
      <trkpt lat="42.462896000" lon="-2.464172000">
        <ele>401.30</ele>
        <time>2013-07-27T13:37:04Z</time>
      </trkpt>
      <trkpt lat="42.462882000" lon="-2.464160000">
        <ele>401.10</ele>
        <time>2013-07-27T13:37:05Z</time>
      </trkpt>
      <trkpt lat="42.462867000" lon="-2.464164000">
        <ele>401.10</ele>
        <time>2013-07-27T13:37:06Z</time>
      </trkpt>
      <trkpt lat="42.462853000" lon="-2.464186000">
        <ele>401.10</ele>
        <time>2013-07-27T13:37:07Z</time>
      </trkpt>
      <trkpt lat="42.462842000" lon="-2.464215000">
        <ele>401.10</ele>
        <time>2013-07-27T13:37:08Z</time>
      </trkpt>
      <trkpt lat="42.462831000" lon="-2.464247000">
        <ele>401.00</ele>
        <time>2013-07-27T13:37:09Z</time>
      </trkpt>
      <trkpt lat="42.462813000" lon="-2.464273000">
        <ele>401.10</ele>
        <time>2013-07-27T13:37:10Z</time>
      </trkpt>
      <trkpt lat="42.462786000" lon="-2.464293000">
        <ele>401.20</ele>
        <time>2013-07-27T13:37:11Z</time>
      </trkpt>
      <trkpt lat="42.462758000" lon="-2.464305000">
        <ele>401.30</ele>
        <time>2013-07-27T13:37:12Z</time>
      </trkpt>
      <trkpt lat="42.462732000" lon="-2.464311000">
        <ele>401.40</ele>
        <time>2013-07-27T13:37:13Z</time>
      </trkpt>
      <trkpt lat="42.462708000" lon="-2.464310000">
        <ele>401.40</ele>
        <time>2013-07-27T13:37:14Z</time>
      </trkpt>
      <trkpt lat="42.462683000" lon="-2.464306000">
        <ele>401.40</ele>
        <time>2013-07-27T13:37:15Z</time>
      </trkpt>
      <trkpt lat="42.462656000" lon="-2.464299000">
        <ele>401.40</ele>
        <time>2013-07-27T13:37:16Z</time>
      </trkpt>
      <trkpt lat="42.462626000" lon="-2.464294000">
        <ele>401.40</ele>
        <time>2013-07-27T13:37:17Z</time>
      </trkpt>
      <trkpt lat="42.462592000" lon="-2.464293000">
        <ele>401.30</ele>
        <time>2013-07-27T13:37:18Z</time>
      </trkpt>
      <trkpt lat="42.462558000" lon="-2.464297000">
        <ele>401.30</ele>
        <time>2013-07-27T13:37:19Z</time>
      </trkpt>
      <trkpt lat="42.462527000" lon="-2.464293000">
        <ele>401.30</ele>
        <time>2013-07-27T13:37:20Z</time>
      </trkpt>
      <trkpt lat="42.462500000" lon="-2.464281000">
        <ele>401.30</ele>
        <time>2013-07-27T13:37:21Z</time>
      </trkpt>
      <trkpt lat="42.462469000" lon="-2.464270000">
        <ele>401.30</ele>
        <time>2013-07-27T13:37:22Z</time>
      </trkpt>
      <trkpt lat="42.462440000" lon="-2.464259000">
        <ele>401.20</ele>
        <time>2013-07-27T13:37:23Z</time>
      </trkpt>
      <trkpt lat="42.462407000" lon="-2.464250000">
        <ele>401.20</ele>
        <time>2013-07-27T13:37:24Z</time>
      </trkpt>
      <trkpt lat="42.462379000" lon="-2.464242000">
        <ele>401.20</ele>
        <time>2013-07-27T13:37:25Z</time>
      </trkpt>
      <trkpt lat="42.462350000" lon="-2.464232000">
        <ele>401.10</ele>
        <time>2013-07-27T13:37:26Z</time>
      </trkpt>
      <trkpt lat="42.462322000" lon="-2.464217000">
        <ele>401.10</ele>
        <time>2013-07-27T13:37:27Z</time>
      </trkpt>
      <trkpt lat="42.462294000" lon="-2.464201000">
        <ele>401.20</ele>
        <time>2013-07-27T13:37:28Z</time>
      </trkpt>
      <trkpt lat="42.462269000" lon="-2.464189000">
        <ele>401.20</ele>
        <time>2013-07-27T13:37:29Z</time>
      </trkpt>
      <trkpt lat="42.462247000" lon="-2.464180000">
        <ele>401.30</ele>
        <time>2013-07-27T13:37:30Z</time>
      </trkpt>
      <trkpt lat="42.462224000" lon="-2.464174000">
        <ele>401.30</ele>
        <time>2013-07-27T13:37:31Z</time>
      </trkpt>
      <trkpt lat="42.462204000" lon="-2.464162000">
        <ele>401.30</ele>
        <time>2013-07-27T13:37:32Z</time>
      </trkpt>
      <trkpt lat="42.462183000" lon="-2.464151000">
        <ele>401.30</ele>
        <time>2013-07-27T13:37:33Z</time>
      </trkpt>
      <trkpt lat="42.462160000" lon="-2.464139000">
        <ele>401.30</ele>
        <time>2013-07-27T13:37:34Z</time>
      </trkpt>
      <trkpt lat="42.462132000" lon="-2.464131000">
        <ele>401.30</ele>
        <time>2013-07-27T13:37:35Z</time>
      </trkpt>
      <trkpt lat="42.462105000" lon="-2.464121000">
        <ele>401.30</ele>
        <time>2013-07-27T13:37:36Z</time>
      </trkpt>
      <trkpt lat="42.462080000" lon="-2.464108000">
        <ele>401.30</ele>
        <time>2013-07-27T13:37:37Z</time>
      </trkpt>
      <trkpt lat="42.462058000" lon="-2.464096000">
        <ele>401.40</ele>
        <time>2013-07-27T13:37:38Z</time>
      </trkpt>
      <trkpt lat="42.462035000" lon="-2.464087000">
        <ele>401.50</ele>
        <time>2013-07-27T13:37:39Z</time>
      </trkpt>
      <trkpt lat="42.462012000" lon="-2.464077000">
        <ele>401.40</ele>
        <time>2013-07-27T13:37:40Z</time>
      </trkpt>
      <trkpt lat="42.461987000" lon="-2.464071000">
        <ele>401.30</ele>
        <time>2013-07-27T13:37:41Z</time>
      </trkpt>
      <trkpt lat="42.461967000" lon="-2.464064000">
        <ele>401.50</ele>
        <time>2013-07-27T13:37:42Z</time>
      </trkpt>
      <trkpt lat="42.461949000" lon="-2.464051000">
        <ele>401.70</ele>
        <time>2013-07-27T13:37:43Z</time>
      </trkpt>
      <trkpt lat="42.461926000" lon="-2.464041000">
        <ele>401.50</ele>
        <time>2013-07-27T13:37:44Z</time>
      </trkpt>
      <trkpt lat="42.461905000" lon="-2.464034000">
        <ele>401.40</ele>
        <time>2013-07-27T13:37:45Z</time>
      </trkpt>
      <trkpt lat="42.461887000" lon="-2.464029000">
        <ele>401.30</ele>
        <time>2013-07-27T13:37:46Z</time>
      </trkpt>
      <trkpt lat="42.461868000" lon="-2.464020000">
        <ele>401.30</ele>
        <time>2013-07-27T13:37:47Z</time>
      </trkpt>
      <trkpt lat="42.461849000" lon="-2.464013000">
        <ele>401.20</ele>
        <time>2013-07-27T13:37:48Z</time>
      </trkpt>
      <trkpt lat="42.461830000" lon="-2.464004000">
        <ele>401.20</ele>
        <time>2013-07-27T13:37:49Z</time>
      </trkpt>
      <trkpt lat="42.461810000" lon="-2.463993000">
        <ele>401.20</ele>
        <time>2013-07-27T13:37:50Z</time>
      </trkpt>
      <trkpt lat="42.461790000" lon="-2.463981000">
        <ele>401.30</ele>
        <time>2013-07-27T13:37:51Z</time>
      </trkpt>
      <trkpt lat="42.461772000" lon="-2.463971000">
        <ele>401.50</ele>
        <time>2013-07-27T13:37:52Z</time>
      </trkpt>
      <trkpt lat="42.461751000" lon="-2.463969000">
        <ele>401.60</ele>
        <time>2013-07-27T13:37:53Z</time>
      </trkpt>
      <trkpt lat="42.461722000" lon="-2.463960000">
        <ele>401.70</ele>
        <time>2013-07-27T13:37:54Z</time>
      </trkpt>
      <trkpt lat="42.461692000" lon="-2.463946000">
        <ele>401.70</ele>
        <time>2013-07-27T13:37:55Z</time>
      </trkpt>
      <trkpt lat="42.461661000" lon="-2.463931000">
        <ele>401.80</ele>
        <time>2013-07-27T13:37:56Z</time>
      </trkpt>
      <trkpt lat="42.461631000" lon="-2.463921000">
        <ele>401.80</ele>
        <time>2013-07-27T13:37:57Z</time>
      </trkpt>
      <trkpt lat="42.461601000" lon="-2.463912000">
        <ele>401.60</ele>
        <time>2013-07-27T13:37:58Z</time>
      </trkpt>
      <trkpt lat="42.461574000" lon="-2.463898000">
        <ele>401.50</ele>
        <time>2013-07-27T13:37:59Z</time>
      </trkpt>
      <trkpt lat="42.461545000" lon="-2.463884000">
        <ele>401.40</ele>
        <time>2013-07-27T13:38:00Z</time>
      </trkpt>
      <trkpt lat="42.461517000" lon="-2.463872000">
        <ele>401.30</ele>
        <time>2013-07-27T13:38:01Z</time>
      </trkpt>
      <trkpt lat="42.461493000" lon="-2.463860000">
        <ele>401.40</ele>
        <time>2013-07-27T13:38:02Z</time>
      </trkpt>
      <trkpt lat="42.461470000" lon="-2.463849000">
        <ele>401.40</ele>
        <time>2013-07-27T13:38:03Z</time>
      </trkpt>
      <trkpt lat="42.461447000" lon="-2.463841000">
        <ele>401.50</ele>
        <time>2013-07-27T13:38:04Z</time>
      </trkpt>
      <trkpt lat="42.461426000" lon="-2.463831000">
        <ele>401.50</ele>
        <time>2013-07-27T13:38:05Z</time>
      </trkpt>
      <trkpt lat="42.461404000" lon="-2.463821000">
        <ele>401.50</ele>
        <time>2013-07-27T13:38:06Z</time>
      </trkpt>
      <trkpt lat="42.461381000" lon="-2.463809000">
        <ele>401.40</ele>
        <time>2013-07-27T13:38:07Z</time>
      </trkpt>
      <trkpt lat="42.461360000" lon="-2.463798000">
        <ele>401.40</ele>
        <time>2013-07-27T13:38:08Z</time>
      </trkpt>
      <trkpt lat="42.461337000" lon="-2.463788000">
        <ele>401.40</ele>
        <time>2013-07-27T13:38:09Z</time>
      </trkpt>
      <trkpt lat="42.461318000" lon="-2.463781000">
        <ele>401.40</ele>
        <time>2013-07-27T13:38:10Z</time>
      </trkpt>
      <trkpt lat="42.461297000" lon="-2.463771000">
        <ele>401.40</ele>
        <time>2013-07-27T13:38:11Z</time>
      </trkpt>
      <trkpt lat="42.461277000" lon="-2.463762000">
        <ele>401.40</ele>
        <time>2013-07-27T13:38:12Z</time>
      </trkpt>
      <trkpt lat="42.461261000" lon="-2.463751000">
        <ele>401.50</ele>
        <time>2013-07-27T13:38:13Z</time>
      </trkpt>
      <trkpt lat="42.461249000" lon="-2.463737000">
        <ele>401.30</ele>
        <time>2013-07-27T13:38:14Z</time>
      </trkpt>
      <trkpt lat="42.461236000" lon="-2.463725000">
        <ele>401.20</ele>
        <time>2013-07-27T13:38:15Z</time>
      </trkpt>
      <trkpt lat="42.461222000" lon="-2.463725000">
        <ele>401.30</ele>
        <time>2013-07-27T13:38:16Z</time>
      </trkpt>
      <trkpt lat="42.461204000" lon="-2.463723000">
        <ele>401.40</ele>
        <time>2013-07-27T13:38:17Z</time>
      </trkpt>
      <trkpt lat="42.461184000" lon="-2.463732000">
        <ele>401.20</ele>
        <time>2013-07-27T13:38:18Z</time>
      </trkpt>
      <trkpt lat="42.461165000" lon="-2.463733000">
        <ele>401.00</ele>
        <time>2013-07-27T13:38:19Z</time>
      </trkpt>
      <trkpt lat="42.461148000" lon="-2.463748000">
        <ele>401.20</ele>
        <time>2013-07-27T13:38:20Z</time>
      </trkpt>
      <trkpt lat="42.461131000" lon="-2.463763000">
        <ele>401.40</ele>
        <time>2013-07-27T13:38:21Z</time>
      </trkpt>
      <trkpt lat="42.461111000" lon="-2.463780000">
        <ele>401.60</ele>
        <time>2013-07-27T13:38:22Z</time>
      </trkpt>
      <trkpt lat="42.461090000" lon="-2.463796000">
        <ele>401.70</ele>
        <time>2013-07-27T13:38:23Z</time>
      </trkpt>
      <trkpt lat="42.461074000" lon="-2.463816000">
        <ele>401.90</ele>
        <time>2013-07-27T13:38:24Z</time>
      </trkpt>
      <trkpt lat="42.461059000" lon="-2.463836000">
        <ele>402.00</ele>
        <time>2013-07-27T13:38:25Z</time>
      </trkpt>
      <trkpt lat="42.461044000" lon="-2.463858000">
        <ele>402.30</ele>
        <time>2013-07-27T13:38:26Z</time>
      </trkpt>
      <trkpt lat="42.461036000" lon="-2.463883000">
        <ele>402.50</ele>
        <time>2013-07-27T13:38:27Z</time>
      </trkpt>
      <trkpt lat="42.461030000" lon="-2.463907000">
        <ele>402.40</ele>
        <time>2013-07-27T13:38:28Z</time>
      </trkpt>
      <trkpt lat="42.461025000" lon="-2.463933000">
        <ele>402.30</ele>
        <time>2013-07-27T13:38:29Z</time>
      </trkpt>
      <trkpt lat="42.461021000" lon="-2.463958000">
        <ele>402.20</ele>
        <time>2013-07-27T13:38:30Z</time>
      </trkpt>
      <trkpt lat="42.461018000" lon="-2.463984000">
        <ele>402.10</ele>
        <time>2013-07-27T13:38:31Z</time>
      </trkpt>
      <trkpt lat="42.461010000" lon="-2.464011000">
        <ele>402.10</ele>
        <time>2013-07-27T13:38:32Z</time>
      </trkpt>
      <trkpt lat="42.461002000" lon="-2.464037000">
        <ele>402.00</ele>
        <time>2013-07-27T13:38:33Z</time>
      </trkpt>
      <trkpt lat="42.460997000" lon="-2.464059000">
        <ele>401.30</ele>
        <time>2013-07-27T13:38:34Z</time>
      </trkpt>
      <trkpt lat="42.460997000" lon="-2.464059000">
        <ele>401.30</ele>
        <time>2013-07-27T13:38:34Z</time>
      </trkpt>
    </trkseg>
  </trk>
</gpx>
